<?xml version='1.0' encoding='UTF-8'?><gpx version="1.1" creator="JPX - https://github.com/jenetics/jpx" xmlns="http://www.topografix.com/GPX/1/1"><trk><trkseg><trkpt lat="48.17894177390927" lon="11.564327986650886"><ele>511.99999999999994</ele><time>2026-03-27T07:47:08.017Z</time></trkpt><trkpt lat="48.178876478858726" lon="11.56422546487838"><ele>512.0</ele><time>2026-03-27T07:47:16.01Z</time></trkpt><trkpt lat="48.17887994883142" lon="11.564112125855294"><ele>512.0</ele><time>2026-03-27T07:48:21.998Z</time></trkpt><trkpt lat="48.1789349672391" lon="11.56416693813002"><ele>512.0</ele><time>2026-03-27T07:48:32.998Z</time></trkpt><trkpt lat="48.178994596243506" lon="11.564263471608488"><ele>511.99999999999994</ele><time>2026-03-27T07:48:45.997Z</time></trkpt><trkpt lat="48.17901623511237" lon="11.564173574559495"><ele>512.0</ele><time>2026-03-27T07:49:47.999Z</time></trkpt><trkpt lat="48.17908161518689" lon="11.564077232763474"><ele>511.8</ele><time>2026-03-27T07:49:52.999Z</time></trkpt><trkpt lat="48.179176729653676" lon="11.564023240403069"><ele>511.6</ele><time>2026-03-27T07:49:54.999Z</time></trkpt><trkpt lat="48.17928633792287" lon="11.563989429551054"><ele>511.40000000000003</ele><time>2026-03-27T07:49:56.999Z</time></trkpt><trkpt lat="48.1793468790202" lon="11.563963292476542"><ele>511.20000000000005</ele><time>2026-03-27T07:49:57.999Z</time></trkpt><trkpt lat="48.17941021069518" lon="11.563918331139929"><ele>511.0</ele><time>2026-03-27T07:49:58.999Z</time></trkpt><trkpt lat="48.17951852716379" lon="11.563884126815926"><ele>511.0</ele><time>2026-03-27T07:50:00.999Z</time></trkpt><trkpt lat="48.17961480884365" lon="11.563854936621809"><ele>511.0</ele><time>2026-03-27T07:50:02.999Z</time></trkpt><trkpt lat="48.179716649935244" lon="11.563820497347999"><ele>511.0</ele><time>2026-03-27T07:50:04.999Z</time></trkpt><trkpt lat="48.17982339318585" lon="11.563801461316663"><ele>511.0</ele><time>2026-03-27T07:50:06.999Z</time></trkpt><trkpt lat="48.179914552286554" lon="11.563754706336525"><ele>511.0</ele><time>2026-03-27T07:50:08.999Z</time></trkpt><trkpt lat="48.17998067569984" lon="11.563726342764872"><ele>511.4</ele><time>2026-03-27T07:50:09.999Z</time></trkpt><trkpt lat="48.18005047940217" lon="11.563693276395217"><ele>511.8</ele><time>2026-03-27T07:50:10.999Z</time></trkpt><trkpt lat="48.18011130008258" lon="11.563665818434687"><ele>512.1999999999999</ele><time>2026-03-27T07:50:11.999Z</time></trkpt><trkpt lat="48.18022101466816" lon="11.563625528645677"><ele>512.6</ele><time>2026-03-27T07:50:13.999Z</time></trkpt><trkpt lat="48.180318587409666" lon="11.563594307646712"><ele>513.0</ele><time>2026-03-27T07:50:15.999Z</time></trkpt><trkpt lat="48.18044888844069" lon="11.563528534117783"><ele>513.0</ele><time>2026-03-27T07:50:17.999Z</time></trkpt><trkpt lat="48.1805156878181" lon="11.563502772106414"><ele>513.0</ele><time>2026-03-27T07:50:18.999Z</time></trkpt><trkpt lat="48.180582196755715" lon="11.563482491939354"><ele>513.0</ele><time>2026-03-27T07:50:19.999Z</time></trkpt><trkpt lat="48.18065818590742" lon="11.563446561576725"><ele>513.0</ele><time>2026-03-27T07:50:21.999Z</time></trkpt><trkpt lat="48.18075659341515" lon="11.56340500314556"><ele>513.0</ele><time>2026-03-27T07:50:23.999Z</time></trkpt><trkpt lat="48.18085028610792" lon="11.5633834430195"><ele>513.0</ele><time>2026-03-27T07:50:24.999Z</time></trkpt><trkpt lat="48.18091840891735" lon="11.563351158856205"><ele>513.0</ele><time>2026-03-27T07:50:25.999Z</time></trkpt><trkpt lat="48.18098395780701" lon="11.563322975964796"><ele>513.0</ele><time>2026-03-27T07:50:26.999Z</time></trkpt><trkpt lat="48.18105903241486" lon="11.563310922026558"><ele>513.0</ele><time>2026-03-27T07:50:27.999Z</time></trkpt><trkpt lat="48.18115144725493" lon="11.563277396287793"><ele>513.0</ele><time>2026-03-27T07:50:29.999Z</time></trkpt><trkpt lat="48.18130188748924" lon="11.563252858388775"><ele>513.0</ele><time>2026-03-27T07:50:31.999Z</time></trkpt><trkpt lat="48.181386050320725" lon="11.56323241309824"><ele>513.0</ele><time>2026-03-27T07:50:32.999Z</time></trkpt><trkpt lat="48.1814880054594" lon="11.563211444503876"><ele>513.0</ele><time>2026-03-27T07:50:33.999Z</time></trkpt><trkpt lat="48.181583766713956" lon="11.56320009228906"><ele>513.0</ele><time>2026-03-27T07:50:34.999Z</time></trkpt><trkpt lat="48.18168532095085" lon="11.563220538666181"><ele>513.0</ele><time>2026-03-27T07:50:35.999Z</time></trkpt><trkpt lat="48.18178700695567" lon="11.563237508627841"><ele>513.0</ele><time>2026-03-27T07:50:36.999Z</time></trkpt><trkpt lat="48.181875362394" lon="11.563215107124512"><ele>512.8</ele><time>2026-03-27T07:50:37.999Z</time></trkpt><trkpt lat="48.18197241427452" lon="11.563202630777907"><ele>512.5999999999999</ele><time>2026-03-27T07:50:38.999Z</time></trkpt><trkpt lat="48.182070394667434" lon="11.56318281432711"><ele>512.4000000000001</ele><time>2026-03-27T07:50:39.999Z</time></trkpt><trkpt lat="48.18219687141016" lon="11.56320471150995"><ele>512.2</ele><time>2026-03-27T07:50:40.999Z</time></trkpt><trkpt lat="48.1823065952306" lon="11.563202252092829"><ele>512.0</ele><time>2026-03-27T07:50:41.999Z</time></trkpt><trkpt lat="48.18242483005423" lon="11.563205288366225"><ele>512.0</ele><time>2026-03-27T07:50:42.999Z</time></trkpt><trkpt lat="48.18252508944325" lon="11.563190589949903"><ele>512.0</ele><time>2026-03-27T07:50:43.999Z</time></trkpt><trkpt lat="48.18262757127178" lon="11.56317587816541"><ele>512.0</ele><time>2026-03-27T07:50:44.999Z</time></trkpt><trkpt lat="48.182734480926655" lon="11.563190736613258"><ele>512.0</ele><time>2026-03-27T07:50:45.999Z</time></trkpt><trkpt lat="48.18281345823553" lon="11.563172115525992"><ele>512.0</ele><time>2026-03-27T07:50:46.999Z</time></trkpt><trkpt lat="48.18289103025579" lon="11.563151701938112"><ele>512.0</ele><time>2026-03-27T07:50:47.999Z</time></trkpt><trkpt lat="48.182963175651366" lon="11.563139426215018"><ele>511.99999999999994</ele><time>2026-03-27T07:50:48.999Z</time></trkpt><trkpt lat="48.18303214360616" lon="11.563131867573455"><ele>512.0</ele><time>2026-03-27T07:50:49.999Z</time></trkpt><trkpt lat="48.18310060304044" lon="11.563121526125943"><ele>512.0</ele><time>2026-03-27T07:50:50.999Z</time></trkpt><trkpt lat="48.18316536595033" lon="11.563108620727236"><ele>511.99999999999994</ele><time>2026-03-27T07:50:51.999Z</time></trkpt><trkpt lat="48.18323013512421" lon="11.563099218744007"><ele>512.0</ele><time>2026-03-27T07:50:52.999Z</time></trkpt><trkpt lat="48.18332647409298" lon="11.563081976646219"><ele>512.0</ele><time>2026-03-27T07:50:54.999Z</time></trkpt><trkpt lat="48.183418049834835" lon="11.563064721635179"><ele>511.3333333333333</ele><time>2026-03-27T07:51:06Z</time></trkpt><trkpt lat="48.18351955992019" lon="11.563028792543127"><ele>510.66666666666663</ele><time>2026-03-27T07:51:08Z</time></trkpt><trkpt lat="48.18364232972932" lon="11.56298944359979"><ele>510.0</ele><time>2026-03-27T07:51:10Z</time></trkpt><trkpt lat="48.183708338640834" lon="11.56297300249422"><ele>509.33333333333337</ele><time>2026-03-27T07:51:11Z</time></trkpt><trkpt lat="48.18377273557643" lon="11.562956254166295"><ele>508.6666666666667</ele><time>2026-03-27T07:51:12Z</time></trkpt><trkpt lat="48.18383465700137" lon="11.562931380267598"><ele>508.0</ele><time>2026-03-27T07:51:13Z</time></trkpt><trkpt lat="48.1839071507718" lon="11.562904815329"><ele>508.00000000000006</ele><time>2026-03-27T07:51:14Z</time></trkpt><trkpt lat="48.18398156550934" lon="11.56288080390523"><ele>508.0</ele><time>2026-03-27T07:51:15Z</time></trkpt><trkpt lat="48.18405952013201" lon="11.56286082478359"><ele>508.0</ele><time>2026-03-27T07:51:16Z</time></trkpt><trkpt lat="48.18415057280131" lon="11.562837149381554"><ele>508.0</ele><time>2026-03-27T07:51:17Z</time></trkpt><trkpt lat="48.1842477767809" lon="11.562811134738869"><ele>508.00000000000006</ele><time>2026-03-27T07:51:18Z</time></trkpt><trkpt lat="48.18434607016045" lon="11.562788506330316"><ele>508.0</ele><time>2026-03-27T07:51:19Z</time></trkpt><trkpt lat="48.184437280077304" lon="11.562770022660489"><ele>508.4</ele><time>2026-03-27T07:51:20Z</time></trkpt><trkpt lat="48.18453436375979" lon="11.562755075178528"><ele>508.79999999999995</ele><time>2026-03-27T07:51:21Z</time></trkpt><trkpt lat="48.18463574811897" lon="11.56273671646528"><ele>509.2</ele><time>2026-03-27T07:51:22Z</time></trkpt><trkpt lat="48.18474012206313" lon="11.562709029514126"><ele>509.6</ele><time>2026-03-27T07:51:23Z</time></trkpt><trkpt lat="48.184843430759344" lon="11.562687998400097"><ele>510.0</ele><time>2026-03-27T07:51:24Z</time></trkpt><trkpt lat="48.18495118047343" lon="11.562670344455233"><ele>510.2</ele><time>2026-03-27T07:51:25Z</time></trkpt><trkpt lat="48.18505700897219" lon="11.562650599304162"><ele>510.4</ele><time>2026-03-27T07:51:26Z</time></trkpt><trkpt lat="48.185164750212486" lon="11.562631178729614"><ele>510.6</ele><time>2026-03-27T07:51:27Z</time></trkpt><trkpt lat="48.185274371534824" lon="11.562612750296887"><ele>510.8</ele><time>2026-03-27T07:51:28Z</time></trkpt><trkpt lat="48.185378118429206" lon="11.562595016039602"><ele>511.0</ele><time>2026-03-27T07:51:29Z</time></trkpt><trkpt lat="48.185485693366225" lon="11.562578711910716"><ele>511.0</ele><time>2026-03-27T07:51:30Z</time></trkpt><trkpt lat="48.18558905565231" lon="11.5625617390655"><ele>511.0</ele><time>2026-03-27T07:51:31Z</time></trkpt><trkpt lat="48.185691324847745" lon="11.562545315672196"><ele>511.0</ele><time>2026-03-27T07:51:32Z</time></trkpt><trkpt lat="48.18578809998702" lon="11.562531034939434"><ele>511.0</ele><time>2026-03-27T07:51:33Z</time></trkpt><trkpt lat="48.18587971237147" lon="11.562514390168142"><ele>511.0</ele><time>2026-03-27T07:51:34Z</time></trkpt><trkpt lat="48.18596988378939" lon="11.562501505782363"><ele>510.8</ele><time>2026-03-27T07:51:35Z</time></trkpt><trkpt lat="48.18605411975292" lon="11.562489590044459"><ele>510.6</ele><time>2026-03-27T07:51:36Z</time></trkpt><trkpt lat="48.18613062938358" lon="11.562479451523979"><ele>510.4</ele><time>2026-03-27T07:51:37Z</time></trkpt><trkpt lat="48.18625351776935" lon="11.562461672445709"><ele>510.2</ele><time>2026-03-27T07:51:39Z</time></trkpt><trkpt lat="48.186356533365135" lon="11.562445057186174"><ele>510.0</ele><time>2026-03-27T07:51:41Z</time></trkpt><trkpt lat="48.186434884567284" lon="11.562432834200168"><ele>509.8333333333333</ele><time>2026-03-27T07:51:43Z</time></trkpt><trkpt lat="48.18651439606456" lon="11.562421816064361"><ele>509.66666666666663</ele><time>2026-03-27T07:51:45Z</time></trkpt><trkpt lat="48.18661074300896" lon="11.56240793740725"><ele>509.5</ele><time>2026-03-27T07:51:47Z</time></trkpt><trkpt lat="48.186689024012104" lon="11.562397370445087"><ele>509.3333333333333</ele><time>2026-03-27T07:51:49Z</time></trkpt><trkpt lat="48.186763040885495" lon="11.562388231519053"><ele>509.16666666666663</ele><time>2026-03-27T07:51:51Z</time></trkpt><trkpt lat="48.18681302986395" lon="11.562507582314458"><ele>509.0</ele><time>2026-03-27T07:51:52Z</time></trkpt><trkpt lat="48.18681791237768" lon="11.56271165688197"><ele>508.99999999999994</ele><time>2026-03-27T07:51:54Z</time></trkpt><trkpt lat="48.18682836968387" lon="11.562840865621471"><ele>509.0</ele><time>2026-03-27T07:51:55Z</time></trkpt><trkpt lat="48.186840899694396" lon="11.56296200841008"><ele>509.0</ele><time>2026-03-27T07:51:56Z</time></trkpt><trkpt lat="48.1868500496051" lon="11.563091974453009"><ele>509.0</ele><time>2026-03-27T07:51:57Z</time></trkpt><trkpt lat="48.186866202595354" lon="11.563219997030096"><ele>508.99999999999994</ele><time>2026-03-27T07:51:58Z</time></trkpt><trkpt lat="48.18688070976502" lon="11.563348132458534"><ele>509.0</ele><time>2026-03-27T07:51:59Z</time></trkpt><trkpt lat="48.18689527615601" lon="11.563470427251232"><ele>509.1428571428571</ele><time>2026-03-27T07:52:00Z</time></trkpt><trkpt lat="48.186907892206335" lon="11.563585629275376"><ele>509.2857142857143</ele><time>2026-03-27T07:52:01Z</time></trkpt><trkpt lat="48.186922178182634" lon="11.563692575670157"><ele>509.42857142857144</ele><time>2026-03-27T07:52:02Z</time></trkpt><trkpt lat="48.186934703898466" lon="11.563797484140437"><ele>509.57142857142856</ele><time>2026-03-27T07:52:03Z</time></trkpt><trkpt lat="48.186946089407265" lon="11.56390610671349"><ele>509.7142857142858</ele><time>2026-03-27T07:52:03.999Z</time></trkpt><trkpt lat="48.18695574518373" lon="11.564010614211817"><ele>509.8571428571429</ele><time>2026-03-27T07:52:04.999Z</time></trkpt><trkpt lat="48.186965883222605" lon="11.564119784792544"><ele>510.0</ele><time>2026-03-27T07:52:05.999Z</time></trkpt><trkpt lat="48.18697393844853" lon="11.564230792780037"><ele>509.4</ele><time>2026-03-27T07:52:06.999Z</time></trkpt><trkpt lat="48.18698096152451" lon="11.564336649220353"><ele>508.8</ele><time>2026-03-27T07:52:07.999Z</time></trkpt><trkpt lat="48.18699706424686" lon="11.564507528133916"><ele>508.20000000000005</ele><time>2026-03-27T07:52:09.999Z</time></trkpt><trkpt lat="48.187017562831635" lon="11.564681047165536"><ele>507.6</ele><time>2026-03-27T07:52:11.999Z</time></trkpt><trkpt lat="48.18703530578363" lon="11.564868452216896"><ele>507.0</ele><time>2026-03-27T07:52:13.999Z</time></trkpt><trkpt lat="48.187050174579035" lon="11.565036167754283"><ele>506.8333333333333</ele><time>2026-03-27T07:52:15.999Z</time></trkpt><trkpt lat="48.18706355043404" lon="11.56516369964826"><ele>506.66666666666663</ele><time>2026-03-27T07:52:17.999Z</time></trkpt><trkpt lat="48.187067715494074" lon="11.565261869350595"><ele>506.5</ele><time>2026-03-27T07:52:20.999Z</time></trkpt><trkpt lat="48.187083648540494" lon="11.565416487778954"><ele>506.3333333333333</ele><time>2026-03-27T07:52:23.999Z</time></trkpt><trkpt lat="48.18709531041061" lon="11.565545822871291"><ele>506.16666666666663</ele><time>2026-03-27T07:52:25.999Z</time></trkpt><trkpt lat="48.18710350131733" lon="11.565639963935329"><ele>506.0</ele><time>2026-03-27T07:52:26.999Z</time></trkpt><trkpt lat="48.18711674514821" lon="11.565801505737017"><ele>505.99999999999994</ele><time>2026-03-27T07:52:28.999Z</time></trkpt><trkpt lat="48.18712571999292" lon="11.565895206405287"><ele>506.0</ele><time>2026-03-27T07:52:29.999Z</time></trkpt><trkpt lat="48.18713440355311" lon="11.566003568769233"><ele>506.0</ele><time>2026-03-27T07:52:30.999Z</time></trkpt><trkpt lat="48.18714575650173" lon="11.56612100741725"><ele>506.0</ele><time>2026-03-27T07:52:31.999Z</time></trkpt><trkpt lat="48.187156462143356" lon="11.56624998491983"><ele>505.99999999999994</ele><time>2026-03-27T07:52:32.999Z</time></trkpt><trkpt lat="48.18716865130586" lon="11.566388738694194"><ele>506.0</ele><time>2026-03-27T07:52:33.999Z</time></trkpt><trkpt lat="48.18717935859553" lon="11.56653917517145"><ele>506.8</ele><time>2026-03-27T07:52:34.999Z</time></trkpt><trkpt lat="48.187190377745516" lon="11.566682856332958"><ele>507.6</ele><time>2026-03-27T07:52:35.999Z</time></trkpt><trkpt lat="48.18719994967661" lon="11.566829163287808"><ele>508.4</ele><time>2026-03-27T07:52:36.999Z</time></trkpt><trkpt lat="48.18721120253435" lon="11.566986724727183"><ele>509.2</ele><time>2026-03-27T07:52:37.999Z</time></trkpt><trkpt lat="48.187219345758166" lon="11.567154111452432"><ele>510.0</ele><time>2026-03-27T07:52:38.999Z</time></trkpt><trkpt lat="48.18722430536834" lon="11.567331151094976"><ele>510.0</ele><time>2026-03-27T07:52:39.999Z</time></trkpt><trkpt lat="48.18723418792136" lon="11.567508327007834"><ele>510.0</ele><time>2026-03-27T07:52:40.999Z</time></trkpt><trkpt lat="48.18724336151542" lon="11.567662243497148"><ele>510.0</ele><time>2026-03-27T07:52:41.999Z</time></trkpt><trkpt lat="48.18725333138116" lon="11.56781850043922"><ele>510.0</ele><time>2026-03-27T07:52:42.999Z</time></trkpt><trkpt lat="48.18726403031406" lon="11.567976447052041"><ele>510.0</ele><time>2026-03-27T07:52:43.999Z</time></trkpt><trkpt lat="48.18727576568337" lon="11.568137541458478"><ele>509.75</ele><time>2026-03-27T07:52:44.999Z</time></trkpt><trkpt lat="48.18728818544882" lon="11.568304911522016"><ele>509.5</ele><time>2026-03-27T07:52:45.999Z</time></trkpt><trkpt lat="48.187297409927645" lon="11.568478700185498"><ele>509.25</ele><time>2026-03-27T07:52:46.999Z</time></trkpt><trkpt lat="48.18730582362773" lon="11.568653821770281"><ele>509.0</ele><time>2026-03-27T07:52:47.999Z</time></trkpt><trkpt lat="48.18731369444381" lon="11.568824306270738"><ele>509.0</ele><time>2026-03-27T07:52:48.999Z</time></trkpt><trkpt lat="48.18732064560596" lon="11.568988827984501"><ele>509.0</ele><time>2026-03-27T07:52:49.999Z</time></trkpt><trkpt lat="48.187327881007704" lon="11.569154465356197"><ele>509.0</ele><time>2026-03-27T07:52:50.999Z</time></trkpt><trkpt lat="48.18733580926115" lon="11.56932570674137"><ele>509.0</ele><time>2026-03-27T07:52:51.999Z</time></trkpt><trkpt lat="48.18734402728828" lon="11.569503229813398"><ele>508.0</ele><time>2026-03-27T07:52:52.999Z</time></trkpt><trkpt lat="48.187353752431235" lon="11.569685247859542"><ele>507.0</ele><time>2026-03-27T07:52:53.999Z</time></trkpt><trkpt lat="48.1873617887691" lon="11.569869563438735"><ele>506.0</ele><time>2026-03-27T07:52:54.999Z</time></trkpt><trkpt lat="48.18736615816751" lon="11.570055263677093"><ele>505.0</ele><time>2026-03-27T07:52:55.999Z</time></trkpt><trkpt lat="48.187371212809865" lon="11.570239990733365"><ele>505.0</ele><time>2026-03-27T07:52:56.999Z</time></trkpt><trkpt lat="48.1873763346313" lon="11.5704108895645"><ele>505.0</ele><time>2026-03-27T07:52:57.999Z</time></trkpt><trkpt lat="48.18738090736292" lon="11.570572348740379"><ele>505.0</ele><time>2026-03-27T07:52:58.999Z</time></trkpt><trkpt lat="48.18738754868963" lon="11.570740292060218"><ele>505.0</ele><time>2026-03-27T07:52:59.999Z</time></trkpt><trkpt lat="48.18739404155782" lon="11.57091063800235"><ele>505.0</ele><time>2026-03-27T07:53:00.999Z</time></trkpt><trkpt lat="48.18739911866079" lon="11.571073490074765"><ele>504.8</ele><time>2026-03-27T07:53:01.999Z</time></trkpt><trkpt lat="48.187403271547275" lon="11.571231620001267"><ele>504.6</ele><time>2026-03-27T07:53:02.999Z</time></trkpt><trkpt lat="48.18740547170356" lon="11.571384906512538"><ele>504.4</ele><time>2026-03-27T07:53:03.999Z</time></trkpt><trkpt lat="48.18740910608475" lon="11.571534727894997"><ele>504.2</ele><time>2026-03-27T07:53:04.999Z</time></trkpt><trkpt lat="48.18741264179284" lon="11.57168145630286"><ele>504.0</ele><time>2026-03-27T07:53:05.999Z</time></trkpt><trkpt lat="48.18741832650994" lon="11.571835727697042"><ele>504.0</ele><time>2026-03-27T07:53:06.999Z</time></trkpt><trkpt lat="48.1874245047422" lon="11.571997914916029"><ele>504.0</ele><time>2026-03-27T07:53:07.999Z</time></trkpt><trkpt lat="48.187430063605156" lon="11.57216994265435"><ele>504.0</ele><time>2026-03-27T07:53:09Z</time></trkpt><trkpt lat="48.187436903140494" lon="11.5723434433703"><ele>504.0</ele><time>2026-03-27T07:53:10Z</time></trkpt><trkpt lat="48.18744358442372" lon="11.572513366125532"><ele>504.0</ele><time>2026-03-27T07:53:11Z</time></trkpt><trkpt lat="48.18745186388349" lon="11.572683088568555"><ele>504.0</ele><time>2026-03-27T07:53:12Z</time></trkpt><trkpt lat="48.18745993519328" lon="11.572852611409626"><ele>504.0</ele><time>2026-03-27T07:53:13Z</time></trkpt><trkpt lat="48.18746886085094" lon="11.573022583381466"><ele>504.0</ele><time>2026-03-27T07:53:14Z</time></trkpt><trkpt lat="48.18747409033181" lon="11.573196230481544"><ele>504.0</ele><time>2026-03-27T07:53:15Z</time></trkpt><trkpt lat="48.18747987159832" lon="11.573376072015225"><ele>504.0</ele><time>2026-03-27T07:53:16Z</time></trkpt><trkpt lat="48.18748489494409" lon="11.573563555798314"><ele>504.0</ele><time>2026-03-27T07:53:17Z</time></trkpt><trkpt lat="48.187489196541065" lon="11.573759344249408"><ele>504.0</ele><time>2026-03-27T07:53:18Z</time></trkpt><trkpt lat="48.187494665451524" lon="11.573951212164861"><ele>504.4</ele><time>2026-03-27T07:53:19Z</time></trkpt><trkpt lat="48.18750012780479" lon="11.574138355196943"><ele>504.79999999999995</ele><time>2026-03-27T07:53:20Z</time></trkpt><trkpt lat="48.18750601043862" lon="11.574313685942231"><ele>505.20000000000005</ele><time>2026-03-27T07:53:21Z</time></trkpt><trkpt lat="48.18751021730421" lon="11.574467899265427"><ele>505.6</ele><time>2026-03-27T07:53:22Z</time></trkpt><trkpt lat="48.18751501871883" lon="11.574610331493615"><ele>506.0</ele><time>2026-03-27T07:53:23Z</time></trkpt><trkpt lat="48.187518803921705" lon="11.574748154176632"><ele>505.99999999999994</ele><time>2026-03-27T07:53:24Z</time></trkpt><trkpt lat="48.1875232066435" lon="11.574883563665383"><ele>506.0</ele><time>2026-03-27T07:53:25Z</time></trkpt><trkpt lat="48.18752636154506" lon="11.575011552750151"><ele>506.0</ele><time>2026-03-27T07:53:26Z</time></trkpt><trkpt lat="48.187529995406685" lon="11.575135499785375"><ele>506.0</ele><time>2026-03-27T07:53:27Z</time></trkpt><trkpt lat="48.1875344802387" lon="11.575250509699393"><ele>505.99999999999994</ele><time>2026-03-27T07:53:28Z</time></trkpt><trkpt lat="48.187538623821084" lon="11.575349078316128"><ele>506.0</ele><time>2026-03-27T07:53:29.001Z</time></trkpt><trkpt lat="48.18754588225008" lon="11.575521403022337"><ele>505.99999999999994</ele><time>2026-03-27T07:53:31Z</time></trkpt><trkpt lat="48.1875507394468" lon="11.575684202252578"><ele>506.0</ele><time>2026-03-27T07:53:33Z</time></trkpt><trkpt lat="48.18755625019652" lon="11.575816080101527"><ele>506.0</ele><time>2026-03-27T07:53:35Z</time></trkpt><trkpt lat="48.18756031111308" lon="11.575919110509924"><ele>506.0</ele><time>2026-03-27T07:53:37Z</time></trkpt><trkpt lat="48.187561405964004" lon="11.576033392268425"><ele>505.99999999999994</ele><time>2026-03-27T07:53:40Z</time></trkpt><trkpt lat="48.18756338182391" lon="11.576171525125705"><ele>506.0</ele><time>2026-03-27T07:53:59Z</time></trkpt><trkpt lat="48.187571451039624" lon="11.576268779798989"><ele>506.0</ele><time>2026-03-27T07:54:00Z</time></trkpt><trkpt lat="48.18758117545144" lon="11.57646995789288"><ele>506.0</ele><time>2026-03-27T07:54:01.999Z</time></trkpt><trkpt lat="48.18758449490807" lon="11.576586255983555"><ele>506.0</ele><time>2026-03-27T07:54:02.999Z</time></trkpt><trkpt lat="48.187588691489985" lon="11.576707316316535"><ele>506.0</ele><time>2026-03-27T07:54:03.999Z</time></trkpt><trkpt lat="48.18759397169273" lon="11.576841541291556"><ele>506.0</ele><time>2026-03-27T07:54:04.999Z</time></trkpt><trkpt lat="48.18759907636152" lon="11.576984003980424"><ele>506.0</ele><time>2026-03-27T07:54:05.999Z</time></trkpt><trkpt lat="48.187602666542844" lon="11.577124807342491"><ele>506.0</ele><time>2026-03-27T07:54:06.999Z</time></trkpt><trkpt lat="48.18760624404223" lon="11.577273193949384"><ele>506.0</ele><time>2026-03-27T07:54:07.999Z</time></trkpt><trkpt lat="48.18761221355408" lon="11.577432459021344"><ele>506.0</ele><time>2026-03-27T07:54:08.999Z</time></trkpt><trkpt lat="48.18762000140044" lon="11.577600816029308"><ele>506.0</ele><time>2026-03-27T07:54:09.999Z</time></trkpt><trkpt lat="48.1876255424169" lon="11.577774367826292"><ele>506.0</ele><time>2026-03-27T07:54:10.999Z</time></trkpt><trkpt lat="48.18763030419394" lon="11.577945723672723"><ele>506.0</ele><time>2026-03-27T07:54:11.999Z</time></trkpt><trkpt lat="48.18763419681476" lon="11.578102970170876"><ele>506.0</ele><time>2026-03-27T07:54:12.999Z</time></trkpt><trkpt lat="48.1876385961166" lon="11.578263565241652"><ele>506.0</ele><time>2026-03-27T07:54:13.999Z</time></trkpt><trkpt lat="48.18764504649878" lon="11.5784300920118"><ele>506.0</ele><time>2026-03-27T07:54:14.999Z</time></trkpt><trkpt lat="48.18765096869811" lon="11.578601418859881"><ele>506.25</ele><time>2026-03-27T07:54:15.999Z</time></trkpt><trkpt lat="48.18765610161893" lon="11.57877836032532"><ele>506.5</ele><time>2026-03-27T07:54:16.999Z</time></trkpt><trkpt lat="48.18766219500246" lon="11.578947163802747"><ele>506.75</ele><time>2026-03-27T07:54:17.999Z</time></trkpt><trkpt lat="48.187666373619514" lon="11.579111067870217"><ele>507.0</ele><time>2026-03-27T07:54:18.999Z</time></trkpt><trkpt lat="48.18767324301661" lon="11.579281628208012"><ele>507.0</ele><time>2026-03-27T07:54:19.999Z</time></trkpt><trkpt lat="48.18767969914006" lon="11.579454298921123"><ele>507.0</ele><time>2026-03-27T07:54:20.999Z</time></trkpt><trkpt lat="48.18768427827146" lon="11.579625797046479"><ele>507.0</ele><time>2026-03-27T07:54:21.999Z</time></trkpt><trkpt lat="48.187687890000674" lon="11.579796294704517"><ele>507.0</ele><time>2026-03-27T07:54:22.999Z</time></trkpt><trkpt lat="48.18769325849849" lon="11.57996667647908"><ele>506.6</ele><time>2026-03-27T07:54:23.999Z</time></trkpt><trkpt lat="48.187698231942335" lon="11.580137098312601"><ele>506.20000000000005</ele><time>2026-03-27T07:54:24.999Z</time></trkpt><trkpt lat="48.18770374486233" lon="11.580305842158126"><ele>505.8</ele><time>2026-03-27T07:54:25.999Z</time></trkpt><trkpt lat="48.18770812038282" lon="11.580473379886117"><ele>505.4</ele><time>2026-03-27T07:54:26.999Z</time></trkpt><trkpt lat="48.18771193497748" lon="11.580638629320038"><ele>505.0</ele><time>2026-03-27T07:54:27.999Z</time></trkpt><trkpt lat="48.187716495966406" lon="11.580805068945281"><ele>505.0</ele><time>2026-03-27T07:54:28.999Z</time></trkpt><trkpt lat="48.18772100590694" lon="11.580973433458466"><ele>505.0</ele><time>2026-03-27T07:54:29.999Z</time></trkpt><trkpt lat="48.1877260191562" lon="11.58114485769783"><ele>505.0</ele><time>2026-03-27T07:54:30.999Z</time></trkpt><trkpt lat="48.1877314475493" lon="11.581315004698297"><ele>505.0</ele><time>2026-03-27T07:54:31.999Z</time></trkpt><trkpt lat="48.18773742754432" lon="11.58148688799395"><ele>505.4</ele><time>2026-03-27T07:54:32.999Z</time></trkpt><trkpt lat="48.187743241318884" lon="11.581657326683873"><ele>505.8</ele><time>2026-03-27T07:54:33.999Z</time></trkpt><trkpt lat="48.18774791059201" lon="11.58182097863356"><ele>506.20000000000005</ele><time>2026-03-27T07:54:34.999Z</time></trkpt><trkpt lat="48.18775285198926" lon="11.581979591783325"><ele>506.6</ele><time>2026-03-27T07:54:35.999Z</time></trkpt><trkpt lat="48.187758558786946" lon="11.582132596049044"><ele>507.0</ele><time>2026-03-27T07:54:36.999Z</time></trkpt><trkpt lat="48.18776374193276" lon="11.582285285646726"><ele>507.0</ele><time>2026-03-27T07:54:37.999Z</time></trkpt><trkpt lat="48.18776800378415" lon="11.582438358976104"><ele>507.00000000000006</ele><time>2026-03-27T07:54:38.999Z</time></trkpt><trkpt lat="48.18777285923844" lon="11.582591983983738"><ele>507.00000000000006</ele><time>2026-03-27T07:54:39.999Z</time></trkpt><trkpt lat="48.18777838632125" lon="11.58274195655527"><ele>507.0</ele><time>2026-03-27T07:54:40.999Z</time></trkpt><trkpt lat="48.18778342641648" lon="11.58288521880935"><ele>507.0</ele><time>2026-03-27T07:54:41.999Z</time></trkpt><trkpt lat="48.18778769719617" lon="11.583020229250838"><ele>506.8333333333333</ele><time>2026-03-27T07:54:42.999Z</time></trkpt><trkpt lat="48.187790638349114" lon="11.583139557821102"><ele>506.66666666666663</ele><time>2026-03-27T07:54:43.999Z</time></trkpt><trkpt lat="48.187793534977" lon="11.583243262762945"><ele>506.5</ele><time>2026-03-27T07:54:44.999Z</time></trkpt><trkpt lat="48.1877963907881" lon="11.583341832028365"><ele>506.3333333333333</ele><time>2026-03-27T07:54:45.998Z</time></trkpt><trkpt lat="48.18779835586767" lon="11.583439147372744"><ele>506.16666666666663</ele><time>2026-03-27T07:54:46.998Z</time></trkpt><trkpt lat="48.1878026550096" lon="11.583623125576795"><ele>506.0</ele><time>2026-03-27T07:54:48.998Z</time></trkpt><trkpt lat="48.18780791976174" lon="11.583777011303074"><ele>505.99999999999994</ele><time>2026-03-27T07:54:50.998Z</time></trkpt><trkpt lat="48.187809671168665" lon="11.583895770553832"><ele>506.0</ele><time>2026-03-27T07:54:52.998Z</time></trkpt><trkpt lat="48.187804880810354" lon="11.584003550246319"><ele>506.0</ele><time>2026-03-27T07:54:55.998Z</time></trkpt><trkpt lat="48.18779569218561" lon="11.584108254920137"><ele>506.0</ele><time>2026-03-27T07:55:39.999Z</time></trkpt><trkpt lat="48.18779985100719" lon="11.58426104531433"><ele>505.99999999999994</ele><time>2026-03-27T07:55:42.999Z</time></trkpt><trkpt lat="48.187830510673066" lon="11.584410789673562"><ele>506.0</ele><time>2026-03-27T07:55:44.999Z</time></trkpt><trkpt lat="48.187973001027025" lon="11.584462897921732"><ele>506.0</ele><time>2026-03-27T07:55:47.999Z</time></trkpt><trkpt lat="48.18809593410981" lon="11.58446762149371"><ele>506.0</ele><time>2026-03-27T07:55:48.999Z</time></trkpt><trkpt lat="48.18818033763194" lon="11.584449433597355"><ele>506.0</ele><time>2026-03-27T07:55:49.999Z</time></trkpt><trkpt lat="48.188262702340595" lon="11.584441580964505"><ele>506.0</ele><time>2026-03-27T07:55:50.999Z</time></trkpt><trkpt lat="48.18836747623114" lon="11.584442324127963"><ele>506.0</ele><time>2026-03-27T07:55:51.999Z</time></trkpt><trkpt lat="48.1884843570453" lon="11.584449183538952"><ele>505.4</ele><time>2026-03-27T07:55:52.999Z</time></trkpt><trkpt lat="48.18858518408213" lon="11.58444309107232"><ele>504.8</ele><time>2026-03-27T07:55:53.999Z</time></trkpt><trkpt lat="48.18868572752997" lon="11.584440655080174"><ele>504.19999999999993</ele><time>2026-03-27T07:55:54.999Z</time></trkpt><trkpt lat="48.188801219737755" lon="11.584428995319008"><ele>503.59999999999997</ele><time>2026-03-27T07:55:55.999Z</time></trkpt><trkpt lat="48.18892281474427" lon="11.584423607841911"><ele>503.0</ele><time>2026-03-27T07:55:56.999Z</time></trkpt><trkpt lat="48.18904068278101" lon="11.584421048712802"><ele>502.8333333333333</ele><time>2026-03-27T07:55:57.999Z</time></trkpt><trkpt lat="48.189128021759196" lon="11.58440552635187"><ele>502.66666666666663</ele><time>2026-03-27T07:55:58.999Z</time></trkpt><trkpt lat="48.189206258749536" lon="11.58438995681579"><ele>502.5</ele><time>2026-03-27T07:55:59.999Z</time></trkpt><trkpt lat="48.18928350586495" lon="11.58437375313706"><ele>502.33333333333337</ele><time>2026-03-27T07:56:00.999Z</time></trkpt><trkpt lat="48.189358383461844" lon="11.584368012328728"><ele>502.1666666666667</ele><time>2026-03-27T07:56:01.999Z</time></trkpt><trkpt lat="48.189436610854315" lon="11.58435878892278"><ele>502.0</ele><time>2026-03-27T07:56:02.999Z</time></trkpt><trkpt lat="48.18950972139931" lon="11.584353498814531"><ele>502.00000000000006</ele><time>2026-03-27T07:56:03.999Z</time></trkpt><trkpt lat="48.18957736372279" lon="11.584353053505206"><ele>502.0</ele><time>2026-03-27T07:56:04.999Z</time></trkpt><trkpt lat="48.189652589147926" lon="11.58436554642913"><ele>502.0</ele><time>2026-03-27T07:56:05.999Z</time></trkpt><trkpt lat="48.189737756463934" lon="11.58438202656744"><ele>502.0</ele><time>2026-03-27T07:56:06.999Z</time></trkpt><trkpt lat="48.18982628781085" lon="11.584389939251064"><ele>502.00000000000006</ele><time>2026-03-27T07:56:07.999Z</time></trkpt><trkpt lat="48.18991661946826" lon="11.58438591011505"><ele>502.0</ele><time>2026-03-27T07:56:08.999Z</time></trkpt><trkpt lat="48.190001104312884" lon="11.584368330639034"><ele>502.0</ele><time>2026-03-27T07:56:09.999Z</time></trkpt><trkpt lat="48.190107412925116" lon="11.584356725498537"><ele>502.00000000000006</ele><time>2026-03-27T07:56:10.999Z</time></trkpt><trkpt lat="48.19021798459604" lon="11.584343156295034"><ele>502.00000000000006</ele><time>2026-03-27T07:56:11.999Z</time></trkpt><trkpt lat="48.19032343992869" lon="11.58433753553003"><ele>502.0</ele><time>2026-03-27T07:56:12.999Z</time></trkpt><trkpt lat="48.190434119904246" lon="11.584328336609572"><ele>502.0</ele><time>2026-03-27T07:56:13.999Z</time></trkpt><trkpt lat="48.19055338741394" lon="11.584315805301037"><ele>502.0</ele><time>2026-03-27T07:56:14.999Z</time></trkpt><trkpt lat="48.1906734394302" lon="11.584293530491788"><ele>502.00000000000006</ele><time>2026-03-27T07:56:15.999Z</time></trkpt><trkpt lat="48.1907941262564" lon="11.584299440974108"><ele>502.00000000000006</ele><time>2026-03-27T07:56:16.999Z</time></trkpt><trkpt lat="48.19088592664876" lon="11.584287127055104"><ele>502.0</ele><time>2026-03-27T07:56:17.999Z</time></trkpt><trkpt lat="48.19097213562749" lon="11.584262533754348"><ele>502.0</ele><time>2026-03-27T07:56:18.999Z</time></trkpt><trkpt lat="48.191064102734195" lon="11.584270955744888"><ele>502.00000000000006</ele><time>2026-03-27T07:56:19.999Z</time></trkpt><trkpt lat="48.191144898435034" lon="11.5842738999596"><ele>502.0</ele><time>2026-03-27T07:56:20.999Z</time></trkpt><trkpt lat="48.191230389873425" lon="11.584274748024841"><ele>502.0</ele><time>2026-03-27T07:56:21.999Z</time></trkpt><trkpt lat="48.19131541872354" lon="11.58425238547831"><ele>502.0</ele><time>2026-03-27T07:56:22.999Z</time></trkpt><trkpt lat="48.191410385350345" lon="11.58430302949903"><ele>502.00000000000006</ele><time>2026-03-27T07:56:23.999Z</time></trkpt><trkpt lat="48.19150379408213" lon="11.58431815951773"><ele>502.0</ele><time>2026-03-27T07:56:24.999Z</time></trkpt><trkpt lat="48.191600773649625" lon="11.58435162338661"><ele>502.0</ele><time>2026-03-27T07:56:25.999Z</time></trkpt><trkpt lat="48.191690382860365" lon="11.584415855479492"><ele>502.00000000000006</ele><time>2026-03-27T07:56:26.999Z</time></trkpt><trkpt lat="48.19177221552698" lon="11.584506637070463"><ele>502.00000000000006</ele><time>2026-03-27T07:56:27.999Z</time></trkpt><trkpt lat="48.19185092454474" lon="11.5846070688789"><ele>502.0</ele><time>2026-03-27T07:56:28.999Z</time></trkpt><trkpt lat="48.1919293140956" lon="11.584716080310951"><ele>502.0</ele><time>2026-03-27T07:56:29.999Z</time></trkpt><trkpt lat="48.19200763895929" lon="11.58483999647934"><ele>501.75</ele><time>2026-03-27T07:56:30.999Z</time></trkpt><trkpt lat="48.19208993933538" lon="11.584968331038164"><ele>501.5</ele><time>2026-03-27T07:56:31.999Z</time></trkpt><trkpt lat="48.1921776289711" lon="11.58510355950435"><ele>501.25</ele><time>2026-03-27T07:56:32.999Z</time></trkpt><trkpt lat="48.19226488461285" lon="11.585235122290095"><ele>501.0</ele><time>2026-03-27T07:56:33.999Z</time></trkpt><trkpt lat="48.19234385422152" lon="11.585354715756665"><ele>500.8</ele><time>2026-03-27T07:56:34.999Z</time></trkpt><trkpt lat="48.19241600824694" lon="11.585473642188294"><ele>500.6</ele><time>2026-03-27T07:56:35.999Z</time></trkpt><trkpt lat="48.19248447374842" lon="11.585583708047535"><ele>500.4</ele><time>2026-03-27T07:56:36.999Z</time></trkpt><trkpt lat="48.19255935941757" lon="11.585679051105103"><ele>500.2</ele><time>2026-03-27T07:56:37.999Z</time></trkpt><trkpt lat="48.19261219075212" lon="11.585792365182757"><ele>500.0</ele><time>2026-03-27T07:56:38.999Z</time></trkpt><trkpt lat="48.1926190793482" lon="11.585972703746542"><ele>500.0</ele><time>2026-03-27T07:56:39.999Z</time></trkpt><trkpt lat="48.1926732843695" lon="11.586137809820439"><ele>500.0</ele><time>2026-03-27T07:56:40.999Z</time></trkpt><trkpt lat="48.19263963931357" lon="11.586365915244228"><ele>500.0</ele><time>2026-03-27T07:56:41.999Z</time></trkpt><trkpt lat="48.19264278710912" lon="11.586564478895166"><ele>500.0</ele><time>2026-03-27T07:56:42.999Z</time></trkpt><trkpt lat="48.192643354950064" lon="11.586735125870868"><ele>500.2</ele><time>2026-03-27T07:56:43.999Z</time></trkpt><trkpt lat="48.192644755074454" lon="11.586891807448248"><ele>500.4</ele><time>2026-03-27T07:56:44.999Z</time></trkpt><trkpt lat="48.192644964013546" lon="11.587051552842276"><ele>500.6</ele><time>2026-03-27T07:56:45.999Z</time></trkpt><trkpt lat="48.192645578241624" lon="11.58721233655443"><ele>500.8</ele><time>2026-03-27T07:56:46.999Z</time></trkpt><trkpt lat="48.19264570403609" lon="11.587374359363555"><ele>501.0</ele><time>2026-03-27T07:56:47.999Z</time></trkpt><trkpt lat="48.19264730676179" lon="11.587532199279199"><ele>501.0</ele><time>2026-03-27T07:56:48.999Z</time></trkpt><trkpt lat="48.19264819511298" lon="11.587693136191097"><ele>501.0</ele><time>2026-03-27T07:56:49.999Z</time></trkpt><trkpt lat="48.19265028282941" lon="11.5878620685194"><ele>501.0</ele><time>2026-03-27T07:56:50.999Z</time></trkpt><trkpt lat="48.192650482460024" lon="11.588035369907077"><ele>501.0</ele><time>2026-03-27T07:56:51.999Z</time></trkpt><trkpt lat="48.19265301352169" lon="11.58820244108715"><ele>501.0</ele><time>2026-03-27T07:56:52.999Z</time></trkpt><trkpt lat="48.192654086217516" lon="11.58834704437362"><ele>501.20000000000005</ele><time>2026-03-27T07:56:53.998Z</time></trkpt><trkpt lat="48.19265391778855" lon="11.588492389564474"><ele>501.40000000000003</ele><time>2026-03-27T07:56:54.998Z</time></trkpt><trkpt lat="48.19265731095883" lon="11.588652922260172"><ele>501.6</ele><time>2026-03-27T07:56:55.998Z</time></trkpt><trkpt lat="48.19265906400435" lon="11.588822654693352"><ele>501.8</ele><time>2026-03-27T07:56:56.998Z</time></trkpt><trkpt lat="48.19266331462962" lon="11.588975093579228"><ele>502.0</ele><time>2026-03-27T07:56:57.998Z</time></trkpt><trkpt lat="48.192663928535424" lon="11.589108002603185"><ele>502.33333333333337</ele><time>2026-03-27T07:56:58.998Z</time></trkpt><trkpt lat="48.19266276312845" lon="11.589230028059577"><ele>502.6666666666667</ele><time>2026-03-27T07:56:59.998Z</time></trkpt><trkpt lat="48.192663462098245" lon="11.589348582576717"><ele>503.0</ele><time>2026-03-27T07:57:00.998Z</time></trkpt><trkpt lat="48.19266589970146" lon="11.589456217410675"><ele>503.33333333333337</ele><time>2026-03-27T07:57:01.998Z</time></trkpt><trkpt lat="48.192666318222045" lon="11.589557868990605"><ele>503.6666666666667</ele><time>2026-03-27T07:57:02.998Z</time></trkpt><trkpt lat="48.19266926394943" lon="11.58971481770703"><ele>504.0</ele><time>2026-03-27T07:57:04.998Z</time></trkpt><trkpt lat="48.192670430182844" lon="11.589840368762136"><ele>504.0</ele><time>2026-03-27T07:57:06.998Z</time></trkpt><trkpt lat="48.192671642092876" lon="11.58994247160786"><ele>504.0</ele><time>2026-03-27T07:57:08.998Z</time></trkpt><trkpt lat="48.19267219959869" lon="11.590085441224405"><ele>504.0</ele><time>2026-03-27T07:57:10.998Z</time></trkpt><trkpt lat="48.19265094108242" lon="11.590213408841237"><ele>504.0</ele><time>2026-03-27T07:57:12.998Z</time></trkpt><trkpt lat="48.19255216593212" lon="11.590291903198327"><ele>504.0</ele><time>2026-03-27T07:57:14.998Z</time></trkpt><trkpt lat="48.192477522597365" lon="11.590302184055414"><ele>504.0</ele><time>2026-03-27T07:57:15.998Z</time></trkpt><trkpt lat="48.19239594163365" lon="11.590302446988089"><ele>503.5</ele><time>2026-03-27T07:57:16.998Z</time></trkpt><trkpt lat="48.19232110474177" lon="11.59030179290193"><ele>503.0</ele><time>2026-03-27T07:57:17.998Z</time></trkpt><trkpt lat="48.192244555463105" lon="11.590304022723974"><ele>502.5</ele><time>2026-03-27T07:57:18.998Z</time></trkpt><trkpt lat="48.192166895909" lon="11.590304908695822"><ele>502.0</ele><time>2026-03-27T07:57:20Z</time></trkpt><trkpt lat="48.19208503799205" lon="11.590305940715664"><ele>501.5</ele><time>2026-03-27T07:57:21Z</time></trkpt><trkpt lat="48.19200206113051" lon="11.590307889916287"><ele>501.0</ele><time>2026-03-27T07:57:22Z</time></trkpt><trkpt lat="48.19191615977466" lon="11.59031167037499"><ele>501.0</ele><time>2026-03-27T07:57:23Z</time></trkpt><trkpt lat="48.19183065159874" lon="11.590308035644481"><ele>501.0</ele><time>2026-03-27T07:57:24Z</time></trkpt><trkpt lat="48.19174355589103" lon="11.590297472653495"><ele>501.0</ele><time>2026-03-27T07:57:25Z</time></trkpt><trkpt lat="48.1916525044848" lon="11.590303241337569"><ele>501.0</ele><time>2026-03-27T07:57:26Z</time></trkpt><trkpt lat="48.19156902822138" lon="11.590229523454939"><ele>501.0</ele><time>2026-03-27T07:57:27Z</time></trkpt><trkpt lat="48.19148763129896" lon="11.590172699638929"><ele>500.6</ele><time>2026-03-27T07:57:28Z</time></trkpt><trkpt lat="48.19140897380498" lon="11.590093672767752"><ele>500.20000000000005</ele><time>2026-03-27T07:57:29Z</time></trkpt><trkpt lat="48.19133953073421" lon="11.589997712109508"><ele>499.79999999999995</ele><time>2026-03-27T07:57:30Z</time></trkpt><trkpt lat="48.191279315330725" lon="11.589884286617131"><ele>499.4</ele><time>2026-03-27T07:57:31Z</time></trkpt><trkpt lat="48.19122687348207" lon="11.589759488164047"><ele>499.0</ele><time>2026-03-27T07:57:32Z</time></trkpt><trkpt lat="48.19118275465276" lon="11.589632101004378"><ele>499.4</ele><time>2026-03-27T07:57:33Z</time></trkpt><trkpt lat="48.19115055289277" lon="11.589495964182023"><ele>499.79999999999995</ele><time>2026-03-27T07:57:34Z</time></trkpt><trkpt lat="48.19112666610071" lon="11.589364104229595"><ele>500.20000000000005</ele><time>2026-03-27T07:57:35Z</time></trkpt><trkpt lat="48.19110578775005" lon="11.589227357882493"><ele>500.6</ele><time>2026-03-27T07:57:36Z</time></trkpt><trkpt lat="48.19108410725201" lon="11.58909370214574"><ele>501.0</ele><time>2026-03-27T07:57:37Z</time></trkpt><trkpt lat="48.191065866964834" lon="11.588952680473113"><ele>501.0</ele><time>2026-03-27T07:57:38Z</time></trkpt><trkpt lat="48.19104433166821" lon="11.58880978132954"><ele>501.0</ele><time>2026-03-27T07:57:39Z</time></trkpt><trkpt lat="48.19102711308416" lon="11.588656205991603"><ele>501.0</ele><time>2026-03-27T07:57:40Z</time></trkpt><trkpt lat="48.19101084382543" lon="11.588498268588106"><ele>501.0</ele><time>2026-03-27T07:57:40.999Z</time></trkpt><trkpt lat="48.190990956197396" lon="11.588345657010578"><ele>501.0</ele><time>2026-03-27T07:57:41.999Z</time></trkpt><trkpt lat="48.19097474203838" lon="11.588194989043053"><ele>502.0</ele><time>2026-03-27T07:57:42.999Z</time></trkpt><trkpt lat="48.19095682403055" lon="11.588039097017228"><ele>503.0</ele><time>2026-03-27T07:57:43.999Z</time></trkpt><trkpt lat="48.19093919367107" lon="11.58788263924486"><ele>504.0</ele><time>2026-03-27T07:57:44.999Z</time></trkpt><trkpt lat="48.19091888962218" lon="11.587724204017412"><ele>505.0</ele><time>2026-03-27T07:57:45.999Z</time></trkpt><trkpt lat="48.190899560623116" lon="11.587568519063325"><ele>506.0</ele><time>2026-03-27T07:57:46.999Z</time></trkpt><trkpt lat="48.1908853976192" lon="11.587417536393993"><ele>506.20000000000005</ele><time>2026-03-27T07:57:47.999Z</time></trkpt><trkpt lat="48.19086732231307" lon="11.58727033931577"><ele>506.40000000000003</ele><time>2026-03-27T07:57:48.999Z</time></trkpt><trkpt lat="48.1908509317282" lon="11.587122871089168"><ele>506.6</ele><time>2026-03-27T07:57:49.999Z</time></trkpt><trkpt lat="48.1908348694226" lon="11.586967668425682"><ele>506.8</ele><time>2026-03-27T07:57:50.999Z</time></trkpt><trkpt lat="48.19081989467199" lon="11.586814812482858"><ele>507.0</ele><time>2026-03-27T07:57:51.999Z</time></trkpt><trkpt lat="48.190819675848196" lon="11.586655058383718"><ele>506.20000000000005</ele><time>2026-03-27T07:57:52.999Z</time></trkpt><trkpt lat="48.190791734789286" lon="11.586503178194343"><ele>505.40000000000003</ele><time>2026-03-27T07:57:53.999Z</time></trkpt><trkpt lat="48.19078320575249" lon="11.586351302869659"><ele>504.59999999999997</ele><time>2026-03-27T07:57:54.999Z</time></trkpt><trkpt lat="48.19077755927964" lon="11.586200109592669"><ele>503.79999999999995</ele><time>2026-03-27T07:57:55.999Z</time></trkpt><trkpt lat="48.19077262749172" lon="11.586043539647495"><ele>503.0</ele><time>2026-03-27T07:57:56.999Z</time></trkpt><trkpt lat="48.19076828712901" lon="11.585883341490877"><ele>503.0</ele><time>2026-03-27T07:57:57.999Z</time></trkpt><trkpt lat="48.19076935730537" lon="11.585720123840161"><ele>502.99999999999994</ele><time>2026-03-27T07:57:58.999Z</time></trkpt><trkpt lat="48.19076369271866" lon="11.585556130099295"><ele>502.99999999999994</ele><time>2026-03-27T07:57:59.999Z</time></trkpt><trkpt lat="48.19075981633465" lon="11.585394563175912"><ele>503.0</ele><time>2026-03-27T07:58:00.999Z</time></trkpt><trkpt lat="48.1907580414377" lon="11.58523602426443"><ele>503.0</ele><time>2026-03-27T07:58:01.999Z</time></trkpt><trkpt lat="48.19075257087334" lon="11.585079353109553"><ele>503.0</ele><time>2026-03-27T07:58:02.999Z</time></trkpt><trkpt lat="48.190752364506" lon="11.584923714916659"><ele>502.99999999999994</ele><time>2026-03-27T07:58:03.999Z</time></trkpt><trkpt lat="48.190749154263905" lon="11.58476899984043"><ele>502.99999999999994</ele><time>2026-03-27T07:58:04.999Z</time></trkpt><trkpt lat="48.190761324267044" lon="11.584615653359336"><ele>503.0</ele><time>2026-03-27T07:58:05.999Z</time></trkpt><trkpt lat="48.1907595230722" lon="11.584460832547752"><ele>503.0</ele><time>2026-03-27T07:58:06.999Z</time></trkpt><trkpt lat="48.190757589143075" lon="11.584298364184965"><ele>503.0</ele><time>2026-03-27T07:58:07.999Z</time></trkpt><trkpt lat="48.19075586815196" lon="11.584153338891994"><ele>502.99999999999994</ele><time>2026-03-27T07:58:08.999Z</time></trkpt><trkpt lat="48.19075412987112" lon="11.584003289245443"><ele>502.99999999999994</ele><time>2026-03-27T07:58:09.999Z</time></trkpt><trkpt lat="48.19073795842013" lon="11.583846847502489"><ele>503.0</ele><time>2026-03-27T07:58:10.999Z</time></trkpt><trkpt lat="48.19073666337441" lon="11.583703675065246"><ele>503.0</ele><time>2026-03-27T07:58:11.999Z</time></trkpt><trkpt lat="48.19073820006917" lon="11.583572260965129"><ele>502.99999999999994</ele><time>2026-03-27T07:58:12.999Z</time></trkpt><trkpt lat="48.19074228165356" lon="11.583445655555842"><ele>503.0</ele><time>2026-03-27T07:58:13.999Z</time></trkpt><trkpt lat="48.190740745964156" lon="11.583338584683826"><ele>503.0</ele><time>2026-03-27T07:58:14.999Z</time></trkpt><trkpt lat="48.190741032911944" lon="11.583241032022665"><ele>503.0</ele><time>2026-03-27T07:58:15.999Z</time></trkpt><trkpt lat="48.19074471625589" lon="11.583145718616292"><ele>502.99999999999994</ele><time>2026-03-27T07:58:16.999Z</time></trkpt><trkpt lat="48.190743013340786" lon="11.582967144007979"><ele>503.0</ele><time>2026-03-27T07:58:18.999Z</time></trkpt><trkpt lat="48.19074781362904" lon="11.582867025383479"><ele>503.16666666666663</ele><time>2026-03-27T07:58:19.999Z</time></trkpt><trkpt lat="48.19075040605963" lon="11.582769915094051"><ele>503.3333333333333</ele><time>2026-03-27T07:58:20.999Z</time></trkpt><trkpt lat="48.19077794194723" lon="11.582608717786776"><ele>503.5</ele><time>2026-03-27T07:58:22.999Z</time></trkpt><trkpt lat="48.190809364669505" lon="11.582516616312835"><ele>503.66666666666663</ele><time>2026-03-27T07:58:24.999Z</time></trkpt><trkpt lat="48.19084692610466" lon="11.582436612590987"><ele>503.8333333333333</ele><time>2026-03-27T07:58:26.999Z</time></trkpt><trkpt lat="48.19089368672607" lon="11.582325815636546"><ele>504.0</ele><time>2026-03-27T07:58:28.999Z</time></trkpt><trkpt lat="48.19081519199612" lon="11.582187762505848"><ele>504.0</ele><time>2026-03-27T07:58:29.999Z</time></trkpt><trkpt lat="48.190764650257925" lon="11.582031650481715"><ele>504.0</ele><time>2026-03-27T07:58:31.999Z</time></trkpt><trkpt lat="48.19073861583379" lon="11.581925265068554"><ele>504.0</ele><time>2026-03-27T07:58:32.999Z</time></trkpt><trkpt lat="48.19072973907042" lon="11.581814703460806"><ele>504.0</ele><time>2026-03-27T07:58:33.999Z</time></trkpt><trkpt lat="48.19072357064842" lon="11.581701725797782"><ele>504.0</ele><time>2026-03-27T07:58:34.999Z</time></trkpt><trkpt lat="48.19072346443058" lon="11.581579300587173"><ele>504.0</ele><time>2026-03-27T07:58:35.999Z</time></trkpt><trkpt lat="48.19072331833382" lon="11.581444618228794"><ele>504.2</ele><time>2026-03-27T07:58:36.999Z</time></trkpt><trkpt lat="48.19071879616575" lon="11.58129037744775"><ele>504.4</ele><time>2026-03-27T07:58:37.999Z</time></trkpt><trkpt lat="48.19071351260701" lon="11.581126407107366"><ele>504.6</ele><time>2026-03-27T07:58:38.999Z</time></trkpt><trkpt lat="48.190729666391675" lon="11.58096653104167"><ele>504.8</ele><time>2026-03-27T07:58:39.999Z</time></trkpt><trkpt lat="48.1907281127628" lon="11.580808343335574"><ele>505.0</ele><time>2026-03-27T07:58:40.999Z</time></trkpt><trkpt lat="48.19070856172819" lon="11.58065008233433"><ele>505.0</ele><time>2026-03-27T07:58:41.999Z</time></trkpt><trkpt lat="48.190707477105995" lon="11.580484704755511"><ele>505.0</ele><time>2026-03-27T07:58:42.999Z</time></trkpt><trkpt lat="48.19070533646606" lon="11.580319194992608"><ele>505.0</ele><time>2026-03-27T07:58:43.999Z</time></trkpt><trkpt lat="48.190704049862646" lon="11.580155063737584"><ele>505.0</ele><time>2026-03-27T07:58:44.999Z</time></trkpt><trkpt lat="48.190701331545505" lon="11.57998788762281"><ele>505.0</ele><time>2026-03-27T07:58:45.999Z</time></trkpt><trkpt lat="48.19069850372346" lon="11.579821844202764"><ele>504.6</ele><time>2026-03-27T07:58:46.999Z</time></trkpt><trkpt lat="48.190697193606155" lon="11.579660468838927"><ele>504.2</ele><time>2026-03-27T07:58:47.999Z</time></trkpt><trkpt lat="48.19069575275199" lon="11.579490090467942"><ele>503.79999999999995</ele><time>2026-03-27T07:58:48.999Z</time></trkpt><trkpt lat="48.19071379089638" lon="11.579321774184798"><ele>503.4</ele><time>2026-03-27T07:58:49.999Z</time></trkpt><trkpt lat="48.19069375252334" lon="11.579156525134707"><ele>503.0</ele><time>2026-03-27T07:58:50.999Z</time></trkpt><trkpt lat="48.19069194003175" lon="11.578983381922509"><ele>502.79999999999995</ele><time>2026-03-27T07:58:51.999Z</time></trkpt><trkpt lat="48.190690377891734" lon="11.578827192363969"><ele>502.59999999999997</ele><time>2026-03-27T07:58:52.999Z</time></trkpt><trkpt lat="48.190690018632324" lon="11.578668697477697"><ele>502.40000000000003</ele><time>2026-03-27T07:58:53.999Z</time></trkpt><trkpt lat="48.190688596204154" lon="11.578504431037311"><ele>502.20000000000005</ele><time>2026-03-27T07:58:54.999Z</time></trkpt><trkpt lat="48.190687679890885" lon="11.578338091387884"><ele>502.0</ele><time>2026-03-27T07:58:55.999Z</time></trkpt><trkpt lat="48.190685102046785" lon="11.578183570129626"><ele>501.8</ele><time>2026-03-27T07:58:56.999Z</time></trkpt><trkpt lat="48.190681146497866" lon="11.578030115058707"><ele>501.6</ele><time>2026-03-27T07:58:57.999Z</time></trkpt><trkpt lat="48.1906791033301" lon="11.577890977425428"><ele>501.40000000000003</ele><time>2026-03-27T07:58:58.999Z</time></trkpt><trkpt lat="48.19069676419319" lon="11.577766447223041"><ele>501.20000000000005</ele><time>2026-03-27T07:58:59.999Z</time></trkpt><trkpt lat="48.190693495634505" lon="11.57765512448916"><ele>501.0</ele><time>2026-03-27T07:59:00.999Z</time></trkpt><trkpt lat="48.190674358665866" lon="11.577497054489477"><ele>501.0</ele><time>2026-03-27T07:59:02.999Z</time></trkpt><trkpt lat="48.190705990367356" lon="11.577338145323468"><ele>501.0</ele><time>2026-03-27T07:59:04.999Z</time></trkpt><trkpt lat="48.190756793063215" lon="11.577259460724774"><ele>501.0</ele><time>2026-03-27T07:59:05.999Z</time></trkpt><trkpt lat="48.190822748507024" lon="11.577193111288773"><ele>501.0</ele><time>2026-03-27T07:59:06.999Z</time></trkpt><trkpt lat="48.19090332182954" lon="11.577159541881402"><ele>501.0</ele><time>2026-03-27T07:59:07.999Z</time></trkpt><trkpt lat="48.19098053303946" lon="11.577144380256598"><ele>501.0</ele><time>2026-03-27T07:59:08.999Z</time></trkpt><trkpt lat="48.19105161781885" lon="11.577150433799453"><ele>501.0</ele><time>2026-03-27T07:59:09.999Z</time></trkpt><trkpt lat="48.19112782360899" lon="11.577152849270524"><ele>501.0</ele><time>2026-03-27T07:59:10.998Z</time></trkpt><trkpt lat="48.1912002378613" lon="11.57715181512634"><ele>501.0</ele><time>2026-03-27T07:59:11.998Z</time></trkpt><trkpt lat="48.19127339259026" lon="11.577150521365427"><ele>501.0</ele><time>2026-03-27T07:59:12.998Z</time></trkpt><trkpt lat="48.19135064616223" lon="11.57714991489329"><ele>501.0</ele><time>2026-03-27T07:59:13.998Z</time></trkpt><trkpt lat="48.19143213774008" lon="11.577147208031993"><ele>501.0</ele><time>2026-03-27T07:59:14.998Z</time></trkpt><trkpt lat="48.191516291968945" lon="11.577143661772245"><ele>501.0</ele><time>2026-03-27T07:59:15.998Z</time></trkpt><trkpt lat="48.19159925978449" lon="11.577139301450385"><ele>501.0</ele><time>2026-03-27T07:59:16.998Z</time></trkpt><trkpt lat="48.191682628405005" lon="11.57713687190272"><ele>501.0</ele><time>2026-03-27T07:59:17.998Z</time></trkpt><trkpt lat="48.1917654415458" lon="11.5771399837636"><ele>501.0</ele><time>2026-03-27T07:59:18.998Z</time></trkpt><trkpt lat="48.19183818166634" lon="11.577140400908496"><ele>501.0</ele><time>2026-03-27T07:59:19.998Z</time></trkpt><trkpt lat="48.19190826268922" lon="11.57713539546012"><ele>501.0</ele><time>2026-03-27T07:59:20.998Z</time></trkpt><trkpt lat="48.19197394037671" lon="11.577127102189168"><ele>501.0</ele><time>2026-03-27T07:59:21.998Z</time></trkpt><trkpt lat="48.192040933901744" lon="11.577118382369047"><ele>501.0</ele><time>2026-03-27T07:59:22.998Z</time></trkpt><trkpt lat="48.192112070368886" lon="11.577107997032252"><ele>501.0</ele><time>2026-03-27T07:59:23.998Z</time></trkpt><trkpt lat="48.192180286777315" lon="11.577103942700889"><ele>501.0</ele><time>2026-03-27T07:59:24.998Z</time></trkpt><trkpt lat="48.19228933322644" lon="11.577107116531364"><ele>501.0</ele><time>2026-03-27T07:59:27Z</time></trkpt><trkpt lat="48.19236047564675" lon="11.577095522587774"><ele>501.0</ele><time>2026-03-27T07:59:29Z</time></trkpt><trkpt lat="48.19243713704635" lon="11.577090859409914"><ele>501.3333333333333</ele><time>2026-03-27T07:59:32Z</time></trkpt><trkpt lat="48.19250747450714" lon="11.577094403656682"><ele>501.66666666666663</ele><time>2026-03-27T07:59:39Z</time></trkpt><trkpt lat="48.19256638175913" lon="11.576888635253594"><ele>502.0</ele><time>2026-03-27T07:59:42Z</time></trkpt><trkpt lat="48.1925547852014" lon="11.576793147010195"><ele>502.3333333333333</ele><time>2026-03-27T07:59:43Z</time></trkpt><trkpt lat="48.1925362744665" lon="11.576685030823036"><ele>502.66666666666663</ele><time>2026-03-27T07:59:44Z</time></trkpt><trkpt lat="48.192525917530716" lon="11.576581582406888"><ele>503.0</ele><time>2026-03-27T07:59:45Z</time></trkpt><trkpt lat="48.19251198947146" lon="11.576395586889964"><ele>503.3333333333333</ele><time>2026-03-27T07:59:47Z</time></trkpt><trkpt lat="48.19249125669577" lon="11.576300810367048"><ele>503.66666666666663</ele><time>2026-03-27T07:59:48Z</time></trkpt><trkpt lat="48.19247101496568" lon="11.57621088734253"><ele>504.0</ele><time>2026-03-27T07:59:49Z</time></trkpt><trkpt lat="48.19242236256034" lon="11.576074298624498"><ele>504.33333333333337</ele><time>2026-03-27T07:59:51Z</time></trkpt><trkpt lat="48.19240134778171" lon="11.575971071525752"><ele>504.6666666666667</ele><time>2026-03-27T07:59:53Z</time></trkpt><trkpt lat="48.19238431008052" lon="11.5758632124674"><ele>505.0</ele><time>2026-03-27T07:59:55Z</time></trkpt><trkpt lat="48.19236775617622" lon="11.575755387466716"><ele>505.1666666666667</ele><time>2026-03-27T07:59:58Z</time></trkpt><trkpt lat="48.19235913880866" lon="11.575661483175343"><ele>505.33333333333337</ele><time>2026-03-27T08:00:09.999Z</time></trkpt><trkpt lat="48.1923470054681" lon="11.575546826809877"><ele>505.5</ele><time>2026-03-27T08:00:11.999Z</time></trkpt><trkpt lat="48.19234584069479" lon="11.57545021742334"><ele>505.66666666666663</ele><time>2026-03-27T08:00:12.999Z</time></trkpt><trkpt lat="48.19233896353522" lon="11.575252368783225"><ele>505.8333333333333</ele><time>2026-03-27T08:00:14.999Z</time></trkpt><trkpt lat="48.19233740896344" lon="11.575141623272287"><ele>506.0</ele><time>2026-03-27T08:00:15.999Z</time></trkpt><trkpt lat="48.19233520686635" lon="11.57502255954729"><ele>505.99999999999994</ele><time>2026-03-27T08:00:16.999Z</time></trkpt><trkpt lat="48.1923327389103" lon="11.574903815202566"><ele>506.0</ele><time>2026-03-27T08:00:17.999Z</time></trkpt><trkpt lat="48.192330960015745" lon="11.574782264048372"><ele>506.0</ele><time>2026-03-27T08:00:18.999Z</time></trkpt><trkpt lat="48.192331736627814" lon="11.574651128682335"><ele>506.0</ele><time>2026-03-27T08:00:19.999Z</time></trkpt><trkpt lat="48.19233312289198" lon="11.574522279552601"><ele>505.99999999999994</ele><time>2026-03-27T08:00:20.999Z</time></trkpt><trkpt lat="48.19233744506984" lon="11.574392486003694"><ele>506.0</ele><time>2026-03-27T08:00:21.999Z</time></trkpt><trkpt lat="48.192338031359405" lon="11.574263010627275"><ele>505.99999999999994</ele><time>2026-03-27T08:00:22.999Z</time></trkpt><trkpt lat="48.192334953465284" lon="11.57412036408315"><ele>506.0</ele><time>2026-03-27T08:00:23.999Z</time></trkpt><trkpt lat="48.192332645195854" lon="11.57398157520575"><ele>506.0</ele><time>2026-03-27T08:00:24.999Z</time></trkpt><trkpt lat="48.192330622183974" lon="11.573851429755823"><ele>506.0</ele><time>2026-03-27T08:00:25.999Z</time></trkpt><trkpt lat="48.19232775919608" lon="11.57372358407098"><ele>505.99999999999994</ele><time>2026-03-27T08:00:26.999Z</time></trkpt><trkpt lat="48.192326855131064" lon="11.573596974082117"><ele>506.0</ele><time>2026-03-27T08:00:27.999Z</time></trkpt><trkpt lat="48.19232543944577" lon="11.573474692906519"><ele>506.16666666666663</ele><time>2026-03-27T08:00:28.999Z</time></trkpt><trkpt lat="48.192325249430866" lon="11.573349778511172"><ele>506.3333333333333</ele><time>2026-03-27T08:00:29.999Z</time></trkpt><trkpt lat="48.19232420469213" lon="11.573225978776318"><ele>506.5</ele><time>2026-03-27T08:00:30.999Z</time></trkpt><trkpt lat="48.19232144804711" lon="11.573122781874005"><ele>506.66666666666663</ele><time>2026-03-27T08:00:31.999Z</time></trkpt><trkpt lat="48.192320686981155" lon="11.573027549482106"><ele>506.8333333333333</ele><time>2026-03-27T08:00:32.999Z</time></trkpt><trkpt lat="48.192314882667866" lon="11.572847981725861"><ele>507.0</ele><time>2026-03-27T08:00:34.999Z</time></trkpt><trkpt lat="48.192312717372744" lon="11.572730680608991"><ele>507.0</ele><time>2026-03-27T08:00:36.999Z</time></trkpt><trkpt lat="48.19231146187867" lon="11.572634117313626"><ele>507.0</ele><time>2026-03-27T08:00:38.999Z</time></trkpt><trkpt lat="48.19231093144392" lon="11.572517553599301"><ele>507.0</ele><time>2026-03-27T08:01:38Z</time></trkpt><trkpt lat="48.19231156624044" lon="11.572412150230187"><ele>507.0</ele><time>2026-03-27T08:01:41Z</time></trkpt><trkpt lat="48.19238357799695" lon="11.572366831314785"><ele>507.0</ele><time>2026-03-27T08:01:43Z</time></trkpt><trkpt lat="48.19248567101486" lon="11.572370990802941"><ele>507.0</ele><time>2026-03-27T08:01:45Z</time></trkpt><trkpt lat="48.19261350529553" lon="11.57236513134808"><ele>506.5</ele><time>2026-03-27T08:01:47Z</time></trkpt><trkpt lat="48.192686146616374" lon="11.572358324952242"><ele>506.0</ele><time>2026-03-27T08:01:48Z</time></trkpt><trkpt lat="48.19276851806496" lon="11.572351011404756"><ele>505.5</ele><time>2026-03-27T08:01:49Z</time></trkpt><trkpt lat="48.192859280118235" lon="11.57234605866517"><ele>505.0</ele><time>2026-03-27T08:01:50Z</time></trkpt><trkpt lat="48.192955264226484" lon="11.572339832362289"><ele>504.5</ele><time>2026-03-27T08:01:51Z</time></trkpt><trkpt lat="48.1930503619945" lon="11.572330724822354"><ele>504.0</ele><time>2026-03-27T08:01:52Z</time></trkpt><trkpt lat="48.193149871827885" lon="11.572322547473634"><ele>504.0</ele><time>2026-03-27T08:01:53Z</time></trkpt><trkpt lat="48.193259891826045" lon="11.57231311318475"><ele>504.0</ele><time>2026-03-27T08:01:54Z</time></trkpt><trkpt lat="48.193363979669535" lon="11.572302579108644"><ele>504.0</ele><time>2026-03-27T08:01:55Z</time></trkpt><trkpt lat="48.19346256966816" lon="11.572296454249734"><ele>504.0</ele><time>2026-03-27T08:01:56Z</time></trkpt><trkpt lat="48.193557977736575" lon="11.572297574582473"><ele>504.0</ele><time>2026-03-27T08:01:57Z</time></trkpt><trkpt lat="48.19365703107439" lon="11.572294685644735"><ele>504.0</ele><time>2026-03-27T08:01:58Z</time></trkpt><trkpt lat="48.19376199637895" lon="11.572290745312902"><ele>504.0</ele><time>2026-03-27T08:01:59Z</time></trkpt><trkpt lat="48.19387311052513" lon="11.572274487769645"><ele>504.0</ele><time>2026-03-27T08:02:00Z</time></trkpt><trkpt lat="48.19398082818288" lon="11.57226695622929"><ele>504.0</ele><time>2026-03-27T08:02:01Z</time></trkpt><trkpt lat="48.194087562859096" lon="11.57225726528337"><ele>504.0</ele><time>2026-03-27T08:02:02Z</time></trkpt><trkpt lat="48.19419319429245" lon="11.572245423072063"><ele>503.6</ele><time>2026-03-27T08:02:03Z</time></trkpt><trkpt lat="48.19429773543839" lon="11.572224135877745"><ele>503.2</ele><time>2026-03-27T08:02:04Z</time></trkpt><trkpt lat="48.19440275006114" lon="11.572207460453063"><ele>502.80000000000007</ele><time>2026-03-27T08:02:05Z</time></trkpt><trkpt lat="48.19451157509329" lon="11.572201254453631"><ele>502.40000000000003</ele><time>2026-03-27T08:02:06Z</time></trkpt><trkpt lat="48.1946187159323" lon="11.572192670409988"><ele>502.0</ele><time>2026-03-27T08:02:07Z</time></trkpt><trkpt lat="48.19472282484785" lon="11.5721852505459"><ele>502.0</ele><time>2026-03-27T08:02:08Z</time></trkpt><trkpt lat="48.19482192774811" lon="11.572181224010018"><ele>502.00000000000006</ele><time>2026-03-27T08:02:09Z</time></trkpt><trkpt lat="48.19492076064747" lon="11.572175605807711"><ele>502.00000000000006</ele><time>2026-03-27T08:02:10Z</time></trkpt><trkpt lat="48.195024767545334" lon="11.572166344700479"><ele>502.0</ele><time>2026-03-27T08:02:11Z</time></trkpt><trkpt lat="48.195125159844345" lon="11.572158315119346"><ele>502.0</ele><time>2026-03-27T08:02:12Z</time></trkpt><trkpt lat="48.19522213371666" lon="11.572153895448736"><ele>502.0</ele><time>2026-03-27T08:02:13Z</time></trkpt><trkpt lat="48.195324814962035" lon="11.57214478271733"><ele>502.00000000000006</ele><time>2026-03-27T08:02:14Z</time></trkpt><trkpt lat="48.19543341593362" lon="11.572139669591595"><ele>502.00000000000006</ele><time>2026-03-27T08:02:15Z</time></trkpt><trkpt lat="48.19554033890705" lon="11.572129838785768"><ele>502.0</ele><time>2026-03-27T08:02:16Z</time></trkpt><trkpt lat="48.195643860730264" lon="11.572123805161203"><ele>502.0</ele><time>2026-03-27T08:02:17Z</time></trkpt><trkpt lat="48.1957454112783" lon="11.572116485778505"><ele>502.00000000000006</ele><time>2026-03-27T08:02:18Z</time></trkpt><trkpt lat="48.1958502823669" lon="11.572107311905029"><ele>502.0</ele><time>2026-03-27T08:02:19Z</time></trkpt><trkpt lat="48.19594886333991" lon="11.57209638971633"><ele>502.0</ele><time>2026-03-27T08:02:19.999Z</time></trkpt><trkpt lat="48.196031920313764" lon="11.572085977987651"><ele>502.0</ele><time>2026-03-27T08:02:20.999Z</time></trkpt><trkpt lat="48.19610815812751" lon="11.572078685766169"><ele>502.00000000000006</ele><time>2026-03-27T08:02:21.999Z</time></trkpt><trkpt lat="48.19617853506394" lon="11.572073196104084"><ele>502.0</ele><time>2026-03-27T08:02:22.999Z</time></trkpt><trkpt lat="48.196286312749876" lon="11.572061846108536"><ele>502.00000000000006</ele><time>2026-03-27T08:02:24.999Z</time></trkpt><trkpt lat="48.1963684492678" lon="11.572055985784232"><ele>502.0</ele><time>2026-03-27T08:02:26.999Z</time></trkpt><trkpt lat="48.19646777326617" lon="11.572030978471512"><ele>502.0</ele><time>2026-03-27T08:02:48.999Z</time></trkpt><trkpt lat="48.196579258884185" lon="11.572016102204994"><ele>502.0</ele><time>2026-03-27T08:02:50.999Z</time></trkpt><trkpt lat="48.19664899334552" lon="11.572011953669339"><ele>502.00000000000006</ele><time>2026-03-27T08:02:51.999Z</time></trkpt><trkpt lat="48.196725537169634" lon="11.572006877186746"><ele>502.0</ele><time>2026-03-27T08:02:52.999Z</time></trkpt><trkpt lat="48.19680812700487" lon="11.572014669733752"><ele>501.8</ele><time>2026-03-27T08:02:53.999Z</time></trkpt><trkpt lat="48.196896070480825" lon="11.572022386420127"><ele>501.6</ele><time>2026-03-27T08:02:54.999Z</time></trkpt><trkpt lat="48.19698757595191" lon="11.572030951602182"><ele>501.40000000000003</ele><time>2026-03-27T08:02:55.999Z</time></trkpt><trkpt lat="48.1970829525574" lon="11.572048652441284"><ele>501.20000000000005</ele><time>2026-03-27T08:02:56.999Z</time></trkpt><trkpt lat="48.19718129387084" lon="11.572071516056353"><ele>501.0</ele><time>2026-03-27T08:02:57.999Z</time></trkpt><trkpt lat="48.1972793631014" lon="11.572101960299554"><ele>501.4</ele><time>2026-03-27T08:02:58.999Z</time></trkpt><trkpt lat="48.19738046487734" lon="11.572139191706869"><ele>501.8</ele><time>2026-03-27T08:02:59.999Z</time></trkpt><trkpt lat="48.19748581981787" lon="11.572181829256335"><ele>502.19999999999993</ele><time>2026-03-27T08:03:00.999Z</time></trkpt><trkpt lat="48.19759496735449" lon="11.572232618364984"><ele>502.59999999999997</ele><time>2026-03-27T08:03:01.999Z</time></trkpt><trkpt lat="48.19770814712994" lon="11.57228302825744"><ele>503.0</ele><time>2026-03-27T08:03:02.999Z</time></trkpt><trkpt lat="48.19782270970072" lon="11.57233870043671"><ele>503.0</ele><time>2026-03-27T08:03:03.999Z</time></trkpt><trkpt lat="48.19793505997946" lon="11.572395635020944"><ele>502.99999999999994</ele><time>2026-03-27T08:03:04.999Z</time></trkpt><trkpt lat="48.198038513735945" lon="11.572444515259699"><ele>502.99999999999994</ele><time>2026-03-27T08:03:05.999Z</time></trkpt><trkpt lat="48.19813749150912" lon="11.572489231429488"><ele>503.0</ele><time>2026-03-27T08:03:06.999Z</time></trkpt><trkpt lat="48.19823116442432" lon="11.572532585054212"><ele>503.0</ele><time>2026-03-27T08:03:07.999Z</time></trkpt><trkpt lat="48.19832030371765" lon="11.572578042033667"><ele>503.0</ele><time>2026-03-27T08:03:08.999Z</time></trkpt><trkpt lat="48.198404525639305" lon="11.572618864645845"><ele>503.00000000000006</ele><time>2026-03-27T08:03:09.999Z</time></trkpt><trkpt lat="48.19848829833135" lon="11.57265591478538"><ele>503.0</ele><time>2026-03-27T08:03:10.999Z</time></trkpt><trkpt lat="48.1985599289401" lon="11.572689571946965"><ele>503.0</ele><time>2026-03-27T08:03:11.999Z</time></trkpt><trkpt lat="48.19862061577882" lon="11.572715268200533"><ele>503.00000000000006</ele><time>2026-03-27T08:03:12.999Z</time></trkpt><trkpt lat="48.19868107013648" lon="11.57274231230071"><ele>503.0</ele><time>2026-03-27T08:03:13.999Z</time></trkpt><trkpt lat="48.198741365266756" lon="11.572774091556134"><ele>503.0</ele><time>2026-03-27T08:03:14.999Z</time></trkpt><trkpt lat="48.19880384006746" lon="11.572807804792356"><ele>503.0</ele><time>2026-03-27T08:03:15.999Z</time></trkpt><trkpt lat="48.198868335349765" lon="11.572840131541316"><ele>503.00000000000006</ele><time>2026-03-27T08:03:16.999Z</time></trkpt><trkpt lat="48.198934078460184" lon="11.57287471826451"><ele>503.0</ele><time>2026-03-27T08:03:17.999Z</time></trkpt><trkpt lat="48.199002678494935" lon="11.57290600987415"><ele>503.0</ele><time>2026-03-27T08:03:18.999Z</time></trkpt><trkpt lat="48.19907041941004" lon="11.572942113538716"><ele>503.00000000000006</ele><time>2026-03-27T08:03:19.999Z</time></trkpt><trkpt lat="48.19913606084685" lon="11.572969606273578"><ele>503.0</ele><time>2026-03-27T08:03:20.999Z</time></trkpt><trkpt lat="48.199198922372524" lon="11.573000857313993"><ele>503.0</ele><time>2026-03-27T08:03:21.999Z</time></trkpt><trkpt lat="48.19926218303051" lon="11.57303154315166"><ele>502.7142857142857</ele><time>2026-03-27T08:03:22.999Z</time></trkpt><trkpt lat="48.19932438496346" lon="11.57306429541734"><ele>502.42857142857144</ele><time>2026-03-27T08:03:23.999Z</time></trkpt><trkpt lat="48.19938853249436" lon="11.573102165514191"><ele>502.14285714285717</ele><time>2026-03-27T08:03:24.999Z</time></trkpt><trkpt lat="48.199456780068246" lon="11.573140437975226"><ele>501.8571428571429</ele><time>2026-03-27T08:03:25.999Z</time></trkpt><trkpt lat="48.19952610652258" lon="11.573177123405536"><ele>501.57142857142856</ele><time>2026-03-27T08:03:26.999Z</time></trkpt><trkpt lat="48.19959346265084" lon="11.573213779642181"><ele>501.28571428571433</ele><time>2026-03-27T08:03:27.999Z</time></trkpt><trkpt lat="48.199654870477666" lon="11.573254740048126"><ele>501.0</ele><time>2026-03-27T08:03:28.999Z</time></trkpt><trkpt lat="48.19971517356684" lon="11.573293245764292"><ele>501.0</ele><time>2026-03-27T08:03:29.999Z</time></trkpt><trkpt lat="48.19977689835548" lon="11.573331652415332"><ele>501.0</ele><time>2026-03-27T08:03:30.999Z</time></trkpt><trkpt lat="48.199844513888394" lon="11.573364881847892"><ele>501.0</ele><time>2026-03-27T08:03:31.999Z</time></trkpt><trkpt lat="48.1999113597688" lon="11.5733993596106"><ele>501.0</ele><time>2026-03-27T08:03:32.999Z</time></trkpt><trkpt lat="48.1999765625472" lon="11.573432787211134"><ele>501.0</ele><time>2026-03-27T08:03:33.999Z</time></trkpt><trkpt lat="48.200040312253414" lon="11.573462232149671"><ele>501.0</ele><time>2026-03-27T08:03:34.999Z</time></trkpt><trkpt lat="48.200104170996596" lon="11.573487491963292"><ele>501.0</ele><time>2026-03-27T08:03:35.999Z</time></trkpt><trkpt lat="48.20016480663667" lon="11.573513517671403"><ele>501.0</ele><time>2026-03-27T08:03:37Z</time></trkpt><trkpt lat="48.20028619817981" lon="11.573552508693576"><ele>501.0</ele><time>2026-03-27T08:03:39Z</time></trkpt><trkpt lat="48.20035190189089" lon="11.573573924292747"><ele>501.0</ele><time>2026-03-27T08:03:40Z</time></trkpt><trkpt lat="48.20042093460653" lon="11.573588382579645"><ele>501.0</ele><time>2026-03-27T08:03:41Z</time></trkpt><trkpt lat="48.20048782568289" lon="11.573601607170014"><ele>501.0</ele><time>2026-03-27T08:03:42Z</time></trkpt><trkpt lat="48.200554530243" lon="11.573615762478932"><ele>501.0</ele><time>2026-03-27T08:03:43Z</time></trkpt><trkpt lat="48.20061867669734" lon="11.573628147889568"><ele>500.7142857142857</ele><time>2026-03-27T08:03:44Z</time></trkpt><trkpt lat="48.20068151898765" lon="11.57363759231585"><ele>500.42857142857144</ele><time>2026-03-27T08:03:45Z</time></trkpt><trkpt lat="48.20074903795998" lon="11.573644400456327"><ele>500.14285714285717</ele><time>2026-03-27T08:03:46Z</time></trkpt><trkpt lat="48.20081472073692" lon="11.573642003927043"><ele>499.8571428571429</ele><time>2026-03-27T08:03:47Z</time></trkpt><trkpt lat="48.20088279673881" lon="11.573649146587853"><ele>499.57142857142856</ele><time>2026-03-27T08:03:48Z</time></trkpt><trkpt lat="48.2009531670843" lon="11.57364694452432"><ele>499.28571428571433</ele><time>2026-03-27T08:03:49Z</time></trkpt><trkpt lat="48.20102317513654" lon="11.573650302436253"><ele>499.00000000000006</ele><time>2026-03-27T08:03:50Z</time></trkpt><trkpt lat="48.201091175371666" lon="11.573648932236553"><ele>499.00000000000006</ele><time>2026-03-27T08:03:51Z</time></trkpt><trkpt lat="48.201168430478646" lon="11.573646034832015"><ele>499.0</ele><time>2026-03-27T08:03:52Z</time></trkpt><trkpt lat="48.20124991252222" lon="11.573640325363135"><ele>499.0</ele><time>2026-03-27T08:03:53Z</time></trkpt><trkpt lat="48.2013310834263" lon="11.573637232803087"><ele>499.0</ele><time>2026-03-27T08:03:54Z</time></trkpt><trkpt lat="48.20141379330146" lon="11.573634077135036"><ele>499.00000000000006</ele><time>2026-03-27T08:03:55Z</time></trkpt><trkpt lat="48.201502060021774" lon="11.57363473231606"><ele>499.0</ele><time>2026-03-27T08:03:56Z</time></trkpt><trkpt lat="48.201601467165546" lon="11.573627994066666"><ele>499.0</ele><time>2026-03-27T08:03:57Z</time></trkpt><trkpt lat="48.201703002484514" lon="11.573621087053631"><ele>499.0</ele><time>2026-03-27T08:03:58Z</time></trkpt><trkpt lat="48.2018016248064" lon="11.573605818691991"><ele>499.0</ele><time>2026-03-27T08:03:59Z</time></trkpt><trkpt lat="48.201901232804595" lon="11.573577178372842"><ele>499.0</ele><time>2026-03-27T08:04:00Z</time></trkpt><trkpt lat="48.20200929006306" lon="11.573534913194715"><ele>499.0</ele><time>2026-03-27T08:04:01Z</time></trkpt><trkpt lat="48.20212715247564" lon="11.573479473535336"><ele>499.0</ele><time>2026-03-27T08:04:02Z</time></trkpt><trkpt lat="48.202231999038716" lon="11.573445374575273"><ele>499.0</ele><time>2026-03-27T08:04:03Z</time></trkpt><trkpt lat="48.20233608508009" lon="11.573415890105657"><ele>499.0</ele><time>2026-03-27T08:04:04Z</time></trkpt><trkpt lat="48.20244256782626" lon="11.57339427672513"><ele>499.0</ele><time>2026-03-27T08:04:05Z</time></trkpt><trkpt lat="48.202547604061266" lon="11.573366154767418"><ele>499.0</ele><time>2026-03-27T08:04:06Z</time></trkpt><trkpt lat="48.202655611609565" lon="11.57333877041375"><ele>499.4</ele><time>2026-03-27T08:04:07Z</time></trkpt><trkpt lat="48.202763099572564" lon="11.573313034646276"><ele>499.79999999999995</ele><time>2026-03-27T08:04:08Z</time></trkpt><trkpt lat="48.20287011283018" lon="11.573288672729822"><ele>500.20000000000005</ele><time>2026-03-27T08:04:09Z</time></trkpt><trkpt lat="48.20297414226814" lon="11.57325506487152"><ele>500.6</ele><time>2026-03-27T08:04:10Z</time></trkpt><trkpt lat="48.20307800313154" lon="11.57321989698797"><ele>501.0</ele><time>2026-03-27T08:04:11Z</time></trkpt><trkpt lat="48.203179174686056" lon="11.57318597581645"><ele>501.0</ele><time>2026-03-27T08:04:12Z</time></trkpt><trkpt lat="48.20328272092251" lon="11.573149041440416"><ele>501.0</ele><time>2026-03-27T08:04:13Z</time></trkpt><trkpt lat="48.20339205519959" lon="11.573113390860556"><ele>501.0</ele><time>2026-03-27T08:04:14Z</time></trkpt><trkpt lat="48.20350349716701" lon="11.573080148061624"><ele>501.0</ele><time>2026-03-27T08:04:15Z</time></trkpt><trkpt lat="48.203609861067925" lon="11.573049383313373"><ele>501.0</ele><time>2026-03-27T08:04:16Z</time></trkpt><trkpt lat="48.203708215516066" lon="11.57303380131704"><ele>501.0</ele><time>2026-03-27T08:04:17Z</time></trkpt><trkpt lat="48.20380339791519" lon="11.57301738167785"><ele>501.0</ele><time>2026-03-27T08:04:18Z</time></trkpt><trkpt lat="48.20389583506234" lon="11.573005485009341"><ele>501.0</ele><time>2026-03-27T08:04:19Z</time></trkpt><trkpt lat="48.203983363684564" lon="11.572990441719764"><ele>501.0</ele><time>2026-03-27T08:04:20Z</time></trkpt><trkpt lat="48.20406501624066" lon="11.572978949383133"><ele>501.0</ele><time>2026-03-27T08:04:21Z</time></trkpt><trkpt lat="48.204138263812624" lon="11.572975940916324"><ele>501.0</ele><time>2026-03-27T08:04:22Z</time></trkpt><trkpt lat="48.204250103637435" lon="11.572970676590774"><ele>500.8333333333333</ele><time>2026-03-27T08:04:24Z</time></trkpt><trkpt lat="48.20432776278124" lon="11.57298368752991"><ele>500.66666666666663</ele><time>2026-03-27T08:04:26Z</time></trkpt><trkpt lat="48.20434407146058" lon="11.5730851420175"><ele>500.5</ele><time>2026-03-27T08:04:28Z</time></trkpt><trkpt lat="48.20436014035417" lon="11.573198236917625"><ele>500.3333333333333</ele><time>2026-03-27T08:04:30Z</time></trkpt><trkpt lat="48.2043541481893" lon="11.573323975006613"><ele>500.16666666666663</ele><time>2026-03-27T08:04:32Z</time></trkpt><trkpt lat="48.204364612290114" lon="11.573467902634256"><ele>500.0</ele><time>2026-03-27T08:04:34Z</time></trkpt><trkpt lat="48.204368882599034" lon="11.573576780144474"><ele>500.0</ele><time>2026-03-27T08:04:36Z</time></trkpt><trkpt lat="48.20443145334595" lon="11.573627969359391"><ele>500.0</ele><time>2026-03-27T08:04:37.999Z</time></trkpt><trkpt lat="48.20451064467314" lon="11.573632401404414"><ele>500.0</ele><time>2026-03-27T08:04:39.999Z</time></trkpt><trkpt lat="48.20462073357194" lon="11.573625958984533"><ele>500.0</ele><time>2026-03-27T08:04:41.999Z</time></trkpt><trkpt lat="48.204717085596236" lon="11.573627936973947"><ele>500.0</ele><time>2026-03-27T08:04:43.999Z</time></trkpt><trkpt lat="48.20483385479799" lon="11.573624124905821"><ele>499.66666666666663</ele><time>2026-03-27T08:04:45.999Z</time></trkpt><trkpt lat="48.20493906731315" lon="11.573621145488476"><ele>499.3333333333333</ele><time>2026-03-27T08:04:47.999Z</time></trkpt><trkpt lat="48.205027727182625" lon="11.573621283856324"><ele>499.0</ele><time>2026-03-27T08:04:49.999Z</time></trkpt><trkpt lat="48.205121233049304" lon="11.57362137188686"><ele>498.66666666666663</ele><time>2026-03-27T08:04:51.999Z</time></trkpt><trkpt lat="48.20519064099796" lon="11.573625015699143"><ele>498.3333333333333</ele><time>2026-03-27T08:04:53.999Z</time></trkpt><trkpt lat="48.20526331483421" lon="11.573619145255462"><ele>498.0</ele><time>2026-03-27T08:04:57.999Z</time></trkpt><trkpt lat="48.20532968142503" lon="11.573604753472868"><ele>498.0</ele><time>2026-03-27T08:05:03.999Z</time></trkpt><trkpt lat="48.20532169001387" lon="11.573415932903986"><ele>497.99999999999994</ele><time>2026-03-27T08:05:04.999Z</time></trkpt><trkpt lat="48.20531206222862" lon="11.573255957810103"><ele>497.99999999999994</ele><time>2026-03-27T08:05:06.999Z</time></trkpt><trkpt lat="48.2053135903032" lon="11.573153533943564"><ele>498.0</ele><time>2026-03-27T08:05:08.999Z</time></trkpt><trkpt lat="48.20529637914842" lon="11.573052043042084"><ele>498.0</ele><time>2026-03-27T08:05:10.999Z</time></trkpt><trkpt lat="48.20524746000135" lon="11.572924557546726"><ele>498.0</ele><time>2026-03-27T08:05:12.999Z</time></trkpt><trkpt lat="48.20516667711811" lon="11.572905011828155"><ele>498.0</ele><time>2026-03-27T08:05:14.999Z</time></trkpt><trkpt lat="48.20507277265272" lon="11.572899191162591"><ele>498.0</ele><time>2026-03-27T08:05:17.999Z</time></trkpt><trkpt lat="48.205022107516506" lon="11.572828388958845"><ele>498.0</ele><time>2026-03-27T08:05:19.999Z</time></trkpt><trkpt lat="48.20505320795278" lon="11.572650308049427"><ele>498.0</ele><time>2026-03-27T08:05:20.999Z</time></trkpt><trkpt lat="48.205052540292" lon="11.572553330833339"><ele>498.0</ele><time>2026-03-27T08:05:21.999Z</time></trkpt><trkpt lat="48.20504675224588" lon="11.572379367652475"><ele>498.1666666666667</ele><time>2026-03-27T08:05:23.999Z</time></trkpt><trkpt lat="48.205042728180395" lon="11.57218934930896"><ele>498.33333333333337</ele><time>2026-03-27T08:05:25.999Z</time></trkpt><trkpt lat="48.20504068529309" lon="11.572091722285872"><ele>498.5</ele><time>2026-03-27T08:05:26.999Z</time></trkpt><trkpt lat="48.205038231508965" lon="11.571987864032307"><ele>498.6666666666667</ele><time>2026-03-27T08:05:27.999Z</time></trkpt><trkpt lat="48.20503535416899" lon="11.571880159132403"><ele>498.83333333333337</ele><time>2026-03-27T08:05:28.999Z</time></trkpt><trkpt lat="48.20503245960322" lon="11.571771809492525"><ele>499.0</ele><time>2026-03-27T08:05:29.999Z</time></trkpt><trkpt lat="48.205029528703314" lon="11.571662098988853"><ele>499.0</ele><time>2026-03-27T08:05:30.999Z</time></trkpt><trkpt lat="48.20502640760331" lon="11.571550810656298"><ele>499.0</ele><time>2026-03-27T08:05:31.999Z</time></trkpt><trkpt lat="48.20502349483717" lon="11.571444997600972"><ele>499.0</ele><time>2026-03-27T08:05:32.999Z</time></trkpt><trkpt lat="48.20502084030234" lon="11.571348565313949"><ele>499.0</ele><time>2026-03-27T08:05:33.999Z</time></trkpt><trkpt lat="48.205012717661745" lon="11.571053491279557"><ele>499.0</ele><time>2026-03-27T08:05:36.999Z</time></trkpt><trkpt lat="48.20500971924373" lon="11.570944566666594"><ele>499.00000000000006</ele><time>2026-03-27T08:05:37.999Z</time></trkpt><trkpt lat="48.205008354202484" lon="11.57083163484358"><ele>499.0</ele><time>2026-03-27T08:05:38.999Z</time></trkpt><trkpt lat="48.20501213272882" lon="11.570711815128378"><ele>499.0</ele><time>2026-03-27T08:05:39.999Z</time></trkpt><trkpt lat="48.205012927544956" lon="11.57058562673683"><ele>499.0</ele><time>2026-03-27T08:05:40.999Z</time></trkpt><trkpt lat="48.2050097240776" lon="11.570477580357236"><ele>499.00000000000006</ele><time>2026-03-27T08:05:41.999Z</time></trkpt><trkpt lat="48.20500567292395" lon="11.57038200298219"><ele>499.0</ele><time>2026-03-27T08:05:43Z</time></trkpt><trkpt lat="48.204997414251196" lon="11.570192582582067"><ele>498.8571428571429</ele><time>2026-03-27T08:05:45Z</time></trkpt><trkpt lat="48.20499292113109" lon="11.570082147580115"><ele>498.7142857142857</ele><time>2026-03-27T08:05:46Z</time></trkpt><trkpt lat="48.20498858807177" lon="11.56997564673129"><ele>498.57142857142856</ele><time>2026-03-27T08:05:47Z</time></trkpt><trkpt lat="48.20498461506912" lon="11.569877995551224"><ele>498.42857142857144</ele><time>2026-03-27T08:05:48Z</time></trkpt><trkpt lat="48.20498076878912" lon="11.569783459084507"><ele>498.2857142857142</ele><time>2026-03-27T08:05:49Z</time></trkpt><trkpt lat="48.2049760663163" lon="11.569686383457949"><ele>498.1428571428571</ele><time>2026-03-27T08:05:50Z</time></trkpt><trkpt lat="48.20497115017411" lon="11.569586073232387"><ele>498.0</ele><time>2026-03-27T08:05:51Z</time></trkpt><trkpt lat="48.204966131810735" lon="11.56948367726307"><ele>498.0</ele><time>2026-03-27T08:05:52Z</time></trkpt><trkpt lat="48.20496113983034" lon="11.56938221455422"><ele>498.0</ele><time>2026-03-27T08:05:53Z</time></trkpt><trkpt lat="48.20495593299152" lon="11.569279709767379"><ele>498.0</ele><time>2026-03-27T08:05:54Z</time></trkpt><trkpt lat="48.204950677383074" lon="11.569176244875147"><ele>498.0</ele><time>2026-03-27T08:05:55Z</time></trkpt><trkpt lat="48.20494557530504" lon="11.569075802467896"><ele>498.0</ele><time>2026-03-27T08:05:56Z</time></trkpt><trkpt lat="48.20493764458344" lon="11.568919673766692"><ele>498.0</ele><time>2026-03-27T08:05:58Z</time></trkpt><trkpt lat="48.204930758320096" lon="11.568784106899312"><ele>498.1666666666667</ele><time>2026-03-27T08:06:00Z</time></trkpt><trkpt lat="48.20492471369389" lon="11.568665108939562"><ele>498.33333333333337</ele><time>2026-03-27T08:06:02Z</time></trkpt><trkpt lat="48.20491952046255" lon="11.568558935889277"><ele>498.5</ele><time>2026-03-27T08:06:05Z</time></trkpt><trkpt lat="48.20491423118267" lon="11.568444252436853"><ele>498.6666666666667</ele><time>2026-03-27T08:06:15Z</time></trkpt><trkpt lat="48.20490976898402" lon="11.568337232468739"><ele>498.83333333333337</ele><time>2026-03-27T08:06:18Z</time></trkpt><trkpt lat="48.204949818308954" lon="11.568217270696461"><ele>499.0</ele><time>2026-03-27T08:06:21Z</time></trkpt><trkpt lat="48.205027079399926" lon="11.568195019687645"><ele>499.0</ele><time>2026-03-27T08:06:22Z</time></trkpt><trkpt lat="48.20513439961844" lon="11.568174478494136"><ele>499.0</ele><time>2026-03-27T08:06:24Z</time></trkpt><trkpt lat="48.205237107044944" lon="11.568153746844573"><ele>499.0</ele><time>2026-03-27T08:06:26Z</time></trkpt><trkpt lat="48.20533711103646" lon="11.56813412705039"><ele>499.0</ele><time>2026-03-27T08:06:28Z</time></trkpt><trkpt lat="48.20545139231808" lon="11.568110938423196"><ele>499.0</ele><time>2026-03-27T08:06:30Z</time></trkpt><trkpt lat="48.20557213535553" lon="11.568084708853602"><ele>499.2</ele><time>2026-03-27T08:06:32Z</time></trkpt><trkpt lat="48.205693668029674" lon="11.568048576238716"><ele>499.4</ele><time>2026-03-27T08:06:34Z</time></trkpt><trkpt lat="48.205805485895894" lon="11.568012991324798"><ele>499.6</ele><time>2026-03-27T08:06:36Z</time></trkpt><trkpt lat="48.20587598064177" lon="11.567992259345838"><ele>499.8</ele><time>2026-03-27T08:06:38Z</time></trkpt><trkpt lat="48.20594945602554" lon="11.567971283170362"><ele>500.0</ele><time>2026-03-27T08:06:40Z</time></trkpt><trkpt lat="48.20606991136929" lon="11.567931171657673"><ele>500.0</ele><time>2026-03-27T08:06:42Z</time></trkpt><trkpt lat="48.206176133111725" lon="11.567906797889798"><ele>500.0</ele><time>2026-03-27T08:06:44Z</time></trkpt><trkpt lat="48.20629057208464" lon="11.567889029456106"><ele>500.0</ele><time>2026-03-27T08:06:46Z</time></trkpt><trkpt lat="48.20635669685419" lon="11.567879442766895"><ele>500.0</ele><time>2026-03-27T08:06:47Z</time></trkpt><trkpt lat="48.206475546530314" lon="11.567864891130414"><ele>500.0</ele><time>2026-03-27T08:06:49Z</time></trkpt><trkpt lat="48.206543479468046" lon="11.567855665359007"><ele>500.0</ele><time>2026-03-27T08:06:50Z</time></trkpt><trkpt lat="48.20661166529815" lon="11.567845606511371"><ele>500.0</ele><time>2026-03-27T08:06:51Z</time></trkpt><trkpt lat="48.206677557356734" lon="11.56783505150901"><ele>500.0</ele><time>2026-03-27T08:06:52Z</time></trkpt><trkpt lat="48.206743072033625" lon="11.567827363089737"><ele>500.0</ele><time>2026-03-27T08:06:53Z</time></trkpt><trkpt lat="48.20680946701376" lon="11.567820017729163"><ele>500.0</ele><time>2026-03-27T08:06:54Z</time></trkpt><trkpt lat="48.20687554411096" lon="11.567812571148924"><ele>500.0</ele><time>2026-03-27T08:06:55Z</time></trkpt><trkpt lat="48.20694367726681" lon="11.56780386225426"><ele>500.0</ele><time>2026-03-27T08:06:56Z</time></trkpt><trkpt lat="48.20700978513352" lon="11.56780057802623"><ele>499.99999999999994</ele><time>2026-03-27T08:06:57Z</time></trkpt><trkpt lat="48.20707563489808" lon="11.567796842828994"><ele>500.0</ele><time>2026-03-27T08:06:58Z</time></trkpt><trkpt lat="48.207140746111605" lon="11.567790535669396"><ele>500.0</ele><time>2026-03-27T08:06:59Z</time></trkpt><trkpt lat="48.207205143403435" lon="11.567784955170083"><ele>500.0</ele><time>2026-03-27T08:07:00Z</time></trkpt><trkpt lat="48.20727076149646" lon="11.56777932089462"><ele>499.99999999999994</ele><time>2026-03-27T08:07:01Z</time></trkpt><trkpt lat="48.20738792085523" lon="11.567753175551923"><ele>500.0</ele><time>2026-03-27T08:07:03Z</time></trkpt><trkpt lat="48.20750787209479" lon="11.567775513375523"><ele>500.6</ele><time>2026-03-27T08:07:05Z</time></trkpt><trkpt lat="48.20757193561505" lon="11.567771684220803"><ele>501.2</ele><time>2026-03-27T08:07:06Z</time></trkpt><trkpt lat="48.207682227999406" lon="11.567740538761385"><ele>501.79999999999995</ele><time>2026-03-27T08:07:07.999Z</time></trkpt><trkpt lat="48.20777517478818" lon="11.567734510521472"><ele>502.4</ele><time>2026-03-27T08:07:09.999Z</time></trkpt><trkpt lat="48.20788068016187" lon="11.567713596831615"><ele>503.0</ele><time>2026-03-27T08:07:11.999Z</time></trkpt><trkpt lat="48.20800155556928" lon="11.567696192141122"><ele>503.0</ele><time>2026-03-27T08:07:13.999Z</time></trkpt><trkpt lat="48.20807017139169" lon="11.567687908796515"><ele>502.99999999999994</ele><time>2026-03-27T08:07:14.999Z</time></trkpt><trkpt lat="48.20819009488423" lon="11.567672551564248"><ele>502.99999999999994</ele><time>2026-03-27T08:07:16.999Z</time></trkpt><trkpt lat="48.208307115050175" lon="11.56765242068457"><ele>503.0</ele><time>2026-03-27T08:07:18.999Z</time></trkpt><trkpt lat="48.20843022643731" lon="11.567656614704775"><ele>503.0</ele><time>2026-03-27T08:07:20.999Z</time></trkpt><trkpt lat="48.20849216223994" lon="11.567626843377056"><ele>502.66666666666663</ele><time>2026-03-27T08:07:21.999Z</time></trkpt><trkpt lat="48.20855645542663" lon="11.567622953058217"><ele>502.3333333333333</ele><time>2026-03-27T08:07:22.999Z</time></trkpt><trkpt lat="48.208650017914344" lon="11.56760671316783"><ele>502.0</ele><time>2026-03-27T08:07:24.999Z</time></trkpt><trkpt lat="48.20872358707421" lon="11.567594668139177"><ele>501.66666666666663</ele><time>2026-03-27T08:07:26.999Z</time></trkpt><trkpt lat="48.208796073782786" lon="11.567581366309536"><ele>501.3333333333333</ele><time>2026-03-27T08:07:28.999Z</time></trkpt><trkpt lat="48.20887934095663" lon="11.567566952531935"><ele>501.0</ele><time>2026-03-27T08:07:30.999Z</time></trkpt><trkpt lat="48.20895788255668" lon="11.567552729849744"><ele>500.3333333333333</ele><time>2026-03-27T08:07:33.999Z</time></trkpt><trkpt lat="48.20904407996074" lon="11.567537205728943"><ele>499.66666666666663</ele><time>2026-03-27T08:07:36.999Z</time></trkpt><trkpt lat="48.20910858274719" lon="11.567533830671378"><ele>499.0</ele><time>2026-03-27T08:07:38.999Z</time></trkpt><trkpt lat="48.20918800746073" lon="11.567561279795358"><ele>498.3333333333333</ele><time>2026-03-27T08:07:40.999Z</time></trkpt><trkpt lat="48.209232388493795" lon="11.567703063356964"><ele>497.66666666666663</ele><time>2026-03-27T08:07:43.999Z</time></trkpt><trkpt lat="48.20924648984066" lon="11.567795768803459"><ele>497.0</ele><time>2026-03-27T08:07:47.999Z</time></trkpt><trkpt lat="48.20926700080888" lon="11.567887079506761"><ele>496.20000000000005</ele><time>2026-03-27T08:07:59Z</time></trkpt><trkpt lat="48.20929518304509" lon="11.568030512963464"><ele>495.40000000000003</ele><time>2026-03-27T08:08:01Z</time></trkpt><trkpt lat="48.20932715240722" lon="11.568197665400536"><ele>494.59999999999997</ele><time>2026-03-27T08:08:03Z</time></trkpt><trkpt lat="48.20936382640097" lon="11.56839361215972"><ele>493.79999999999995</ele><time>2026-03-27T08:08:05Z</time></trkpt><trkpt lat="48.209386445868745" lon="11.568508327159195"><ele>493.0</ele><time>2026-03-27T08:08:06Z</time></trkpt><trkpt lat="48.209406901244435" lon="11.568616468419409"><ele>493.33333333333337</ele><time>2026-03-27T08:08:07Z</time></trkpt><trkpt lat="48.20942838267075" lon="11.568731927016046"><ele>493.6666666666667</ele><time>2026-03-27T08:08:08Z</time></trkpt><trkpt lat="48.209452958207315" lon="11.568861046433655"><ele>494.0</ele><time>2026-03-27T08:08:09Z</time></trkpt><trkpt lat="48.209478643782354" lon="11.56899286327621"><ele>494.33333333333337</ele><time>2026-03-27T08:08:10Z</time></trkpt><trkpt lat="48.20950042933093" lon="11.569112876258714"><ele>494.6666666666667</ele><time>2026-03-27T08:08:11Z</time></trkpt><trkpt lat="48.209523714326586" lon="11.569239980602934"><ele>495.0</ele><time>2026-03-27T08:08:12Z</time></trkpt><trkpt lat="48.209547912479344" lon="11.569370222545139"><ele>495.0</ele><time>2026-03-27T08:08:13Z</time></trkpt><trkpt lat="48.20957325026587" lon="11.569504348679358"><ele>495.0</ele><time>2026-03-27T08:08:14Z</time></trkpt><trkpt lat="48.20959987555735" lon="11.569643850803493"><ele>495.0</ele><time>2026-03-27T08:08:15Z</time></trkpt><trkpt lat="48.209626034148435" lon="11.569787027238277"><ele>495.0</ele><time>2026-03-27T08:08:16Z</time></trkpt><trkpt lat="48.20965279456301" lon="11.56992608145281"><ele>495.0</ele><time>2026-03-27T08:08:17Z</time></trkpt><trkpt lat="48.209679063669725" lon="11.570063085954962"><ele>495.4</ele><time>2026-03-27T08:08:18Z</time></trkpt><trkpt lat="48.209703751500065" lon="11.570203228459032"><ele>495.8</ele><time>2026-03-27T08:08:19Z</time></trkpt><trkpt lat="48.20972981231628" lon="11.570347160418477"><ele>496.20000000000005</ele><time>2026-03-27T08:08:20Z</time></trkpt><trkpt lat="48.209759523776405" lon="11.570491860222646"><ele>496.6</ele><time>2026-03-27T08:08:21Z</time></trkpt><trkpt lat="48.20978645133683" lon="11.57064528519573"><ele>497.0</ele><time>2026-03-27T08:08:22Z</time></trkpt><trkpt lat="48.20981645249719" lon="11.570801279265751"><ele>496.8</ele><time>2026-03-27T08:08:23Z</time></trkpt><trkpt lat="48.20984709946304" lon="11.570957563775549"><ele>496.6</ele><time>2026-03-27T08:08:24Z</time></trkpt><trkpt lat="48.20987781345872" lon="11.571115128771435"><ele>496.40000000000003</ele><time>2026-03-27T08:08:25Z</time></trkpt><trkpt lat="48.209906630484106" lon="11.571254210813713"><ele>496.20000000000005</ele><time>2026-03-27T08:08:26Z</time></trkpt><trkpt lat="48.209928155813856" lon="11.571373862783906"><ele>496.0</ele><time>2026-03-27T08:08:27Z</time></trkpt><trkpt lat="48.20994817604484" lon="11.571478085945502"><ele>496.28571428571433</ele><time>2026-03-27T08:08:28Z</time></trkpt><trkpt lat="48.2099687829215" lon="11.571577362139305"><ele>496.5714285714286</ele><time>2026-03-27T08:08:29Z</time></trkpt><trkpt lat="48.20999059010145" lon="11.571692526584856"><ele>496.8571428571429</ele><time>2026-03-27T08:08:31Z</time></trkpt><trkpt lat="48.210010784732056" lon="11.571784228245996"><ele>497.1428571428571</ele><time>2026-03-27T08:08:34Z</time></trkpt><trkpt lat="48.21003673302645" lon="11.571886801345993"><ele>497.4285714285714</ele><time>2026-03-27T08:08:36Z</time></trkpt><trkpt lat="48.21006145625796" lon="11.57198958618947"><ele>497.71428571428567</ele><time>2026-03-27T08:08:38Z</time></trkpt><trkpt lat="48.21008337227583" lon="11.572098515764692"><ele>498.0</ele><time>2026-03-27T08:08:40Z</time></trkpt><trkpt lat="48.2101044857861" lon="11.57224238274398"><ele>498.0</ele><time>2026-03-27T08:08:42Z</time></trkpt><trkpt lat="48.210115200000615" lon="11.572339725068934"><ele>498.0</ele><time>2026-03-27T08:08:43Z</time></trkpt><trkpt lat="48.2101358740474" lon="11.572443609654917"><ele>498.0</ele><time>2026-03-27T08:08:44Z</time></trkpt><trkpt lat="48.21015361013897" lon="11.572547985162485"><ele>498.0</ele><time>2026-03-27T08:08:45Z</time></trkpt><trkpt lat="48.210172931025916" lon="11.572661618559033"><ele>498.0</ele><time>2026-03-27T08:08:46Z</time></trkpt><trkpt lat="48.21019707052028" lon="11.572778820398193"><ele>498.0</ele><time>2026-03-27T08:08:47Z</time></trkpt><trkpt lat="48.21022073325141" lon="11.572903793558357"><ele>498.0</ele><time>2026-03-27T08:08:48Z</time></trkpt><trkpt lat="48.2102429384049" lon="11.57302286850957"><ele>497.99999999999994</ele><time>2026-03-27T08:08:49Z</time></trkpt><trkpt lat="48.21026604941153" lon="11.573144896813805"><ele>497.99999999999994</ele><time>2026-03-27T08:08:50Z</time></trkpt><trkpt lat="48.21028905537455" lon="11.573280469957476"><ele>498.0</ele><time>2026-03-27T08:08:51Z</time></trkpt><trkpt lat="48.21031810422956" lon="11.57342808060671"><ele>498.0</ele><time>2026-03-27T08:08:52Z</time></trkpt><trkpt lat="48.21034156638705" lon="11.573574303119596"><ele>497.59999999999997</ele><time>2026-03-27T08:08:53Z</time></trkpt><trkpt lat="48.210366811732975" lon="11.573718368212852"><ele>497.19999999999993</ele><time>2026-03-27T08:08:54Z</time></trkpt><trkpt lat="48.21039253043104" lon="11.573866633563137"><ele>496.8</ele><time>2026-03-27T08:08:55Z</time></trkpt><trkpt lat="48.210421332653844" lon="11.574017940481436"><ele>496.4</ele><time>2026-03-27T08:08:56Z</time></trkpt><trkpt lat="48.210453271418984" lon="11.57417474917931"><ele>496.0</ele><time>2026-03-27T08:08:57Z</time></trkpt><trkpt lat="48.210483385436056" lon="11.57433335855679"><ele>496.0</ele><time>2026-03-27T08:08:58Z</time></trkpt><trkpt lat="48.2105090310992" lon="11.57448854910333"><ele>496.0</ele><time>2026-03-27T08:08:59Z</time></trkpt><trkpt lat="48.21053567464452" lon="11.574643875438346"><ele>496.0</ele><time>2026-03-27T08:09:00Z</time></trkpt><trkpt lat="48.21056441537097" lon="11.57480095859019"><ele>496.0</ele><time>2026-03-27T08:09:01Z</time></trkpt><trkpt lat="48.21059484796671" lon="11.574962860158418"><ele>496.0</ele><time>2026-03-27T08:09:02Z</time></trkpt><trkpt lat="48.210624123598954" lon="11.575129751669012"><ele>496.0</ele><time>2026-03-27T08:09:03Z</time></trkpt><trkpt lat="48.21065553789698" lon="11.575298544080129"><ele>496.0</ele><time>2026-03-27T08:09:04Z</time></trkpt><trkpt lat="48.210683802896455" lon="11.575465316343342"><ele>496.0</ele><time>2026-03-27T08:09:05Z</time></trkpt><trkpt lat="48.210714943600735" lon="11.57562229843721"><ele>496.0</ele><time>2026-03-27T08:09:06Z</time></trkpt><trkpt lat="48.210742883338476" lon="11.575781180471107"><ele>496.6</ele><time>2026-03-27T08:09:07Z</time></trkpt><trkpt lat="48.210770361797444" lon="11.575937743371565"><ele>497.20000000000005</ele><time>2026-03-27T08:09:08Z</time></trkpt><trkpt lat="48.21079726919286" lon="11.576094794988343"><ele>497.79999999999995</ele><time>2026-03-27T08:09:09Z</time></trkpt><trkpt lat="48.21082635197827" lon="11.576255653977295"><ele>498.4</ele><time>2026-03-27T08:09:10Z</time></trkpt><trkpt lat="48.210855102485276" lon="11.576412804879823"><ele>499.0</ele><time>2026-03-27T08:09:11Z</time></trkpt><trkpt lat="48.2108861572264" lon="11.576572355432264"><ele>499.0</ele><time>2026-03-27T08:09:12Z</time></trkpt><trkpt lat="48.2109194425937" lon="11.57674442876854"><ele>499.0</ele><time>2026-03-27T08:09:13Z</time></trkpt><trkpt lat="48.21094931232974" lon="11.576907298318488"><ele>499.0</ele><time>2026-03-27T08:09:14Z</time></trkpt><trkpt lat="48.210976821879335" lon="11.577065036108975"><ele>499.0</ele><time>2026-03-27T08:09:15Z</time></trkpt><trkpt lat="48.21100275970733" lon="11.577222264562435"><ele>499.0</ele><time>2026-03-27T08:09:16Z</time></trkpt><trkpt lat="48.21102923647048" lon="11.577382667528221"><ele>498.75</ele><time>2026-03-27T08:09:16.999Z</time></trkpt><trkpt lat="48.21105631307902" lon="11.577552695109334"><ele>498.5</ele><time>2026-03-27T08:09:17.999Z</time></trkpt><trkpt lat="48.211078608174645" lon="11.577726974700935"><ele>498.25</ele><time>2026-03-27T08:09:18.999Z</time></trkpt><trkpt lat="48.21109664536943" lon="11.577897510857413"><ele>498.0</ele><time>2026-03-27T08:09:19.999Z</time></trkpt><trkpt lat="48.21110670927484" lon="11.578069564167956"><ele>498.0</ele><time>2026-03-27T08:09:20.999Z</time></trkpt><trkpt lat="48.211110714104066" lon="11.5782425282233"><ele>497.99999999999994</ele><time>2026-03-27T08:09:21.999Z</time></trkpt><trkpt lat="48.21111375491388" lon="11.578418547666809"><ele>497.99999999999994</ele><time>2026-03-27T08:09:22.999Z</time></trkpt><trkpt lat="48.21111624536534" lon="11.578584833893807"><ele>498.0</ele><time>2026-03-27T08:09:23.999Z</time></trkpt><trkpt lat="48.211111529023896" lon="11.578741999997524"><ele>498.0</ele><time>2026-03-27T08:09:24.999Z</time></trkpt><trkpt lat="48.21110241469688" lon="11.578893362583285"><ele>497.79999999999995</ele><time>2026-03-27T08:09:25.999Z</time></trkpt><trkpt lat="48.21109072796667" lon="11.57904242426994"><ele>497.59999999999997</ele><time>2026-03-27T08:09:26.999Z</time></trkpt><trkpt lat="48.211080766954936" lon="11.579192515022216"><ele>497.40000000000003</ele><time>2026-03-27T08:09:27.999Z</time></trkpt><trkpt lat="48.2110687674153" lon="11.579341932367056"><ele>497.20000000000005</ele><time>2026-03-27T08:09:28.999Z</time></trkpt><trkpt lat="48.211055117835954" lon="11.579482057068587"><ele>497.0</ele><time>2026-03-27T08:09:29.999Z</time></trkpt><trkpt lat="48.211041461787666" lon="11.579614410288189"><ele>496.8333333333333</ele><time>2026-03-27T08:09:30.999Z</time></trkpt><trkpt lat="48.211026714928096" lon="11.579741249714775"><ele>496.66666666666663</ele><time>2026-03-27T08:09:31.999Z</time></trkpt><trkpt lat="48.21101467895965" lon="11.579868957468625"><ele>496.5</ele><time>2026-03-27T08:09:32.999Z</time></trkpt><trkpt lat="48.21100276656285" lon="11.580002044795254"><ele>496.33333333333337</ele><time>2026-03-27T08:09:33.999Z</time></trkpt><trkpt lat="48.21099299792316" lon="11.580140758781788"><ele>496.1666666666667</ele><time>2026-03-27T08:09:34.999Z</time></trkpt><trkpt lat="48.21098315307109" lon="11.580280720293615"><ele>496.0</ele><time>2026-03-27T08:09:35.999Z</time></trkpt><trkpt lat="48.21097144117663" lon="11.580405973135223"><ele>496.0</ele><time>2026-03-27T08:09:36.999Z</time></trkpt><trkpt lat="48.21096354179657" lon="11.580521955778298"><ele>496.00000000000006</ele><time>2026-03-27T08:09:37.999Z</time></trkpt><trkpt lat="48.2109556824517" lon="11.58063370511395"><ele>496.0</ele><time>2026-03-27T08:09:38.999Z</time></trkpt><trkpt lat="48.210948149407756" lon="11.580739764505473"><ele>496.0</ele><time>2026-03-27T08:09:39.999Z</time></trkpt><trkpt lat="48.21093866559568" lon="11.58083936417231"><ele>496.00000000000006</ele><time>2026-03-27T08:09:40.999Z</time></trkpt><trkpt lat="48.210929385301355" lon="11.580933801211458"><ele>496.0</ele><time>2026-03-27T08:09:41.999Z</time></trkpt><trkpt lat="48.21091967147675" lon="11.581034028653367"><ele>496.0</ele><time>2026-03-27T08:09:42.999Z</time></trkpt><trkpt lat="48.21090766225611" lon="11.581146917650289"><ele>495.8571428571429</ele><time>2026-03-27T08:09:43.999Z</time></trkpt><trkpt lat="48.210896174052465" lon="11.581261022046654"><ele>495.7142857142858</ele><time>2026-03-27T08:09:44.999Z</time></trkpt><trkpt lat="48.210884555651205" lon="11.581371643476851"><ele>495.57142857142856</ele><time>2026-03-27T08:09:45.999Z</time></trkpt><trkpt lat="48.21087324796907" lon="11.581478069924493"><ele>495.42857142857144</ele><time>2026-03-27T08:09:46.999Z</time></trkpt><trkpt lat="48.21086309114052" lon="11.58158280138416"><ele>495.2857142857143</ele><time>2026-03-27T08:09:47.999Z</time></trkpt><trkpt lat="48.2108541193127" lon="11.58168134949446"><ele>495.1428571428571</ele><time>2026-03-27T08:09:48.999Z</time></trkpt><trkpt lat="48.210845067696106" lon="11.581780999531489"><ele>494.99999999999994</ele><time>2026-03-27T08:09:49.999Z</time></trkpt><trkpt lat="48.21083701598117" lon="11.581885704709526"><ele>494.99999999999994</ele><time>2026-03-27T08:09:50.999Z</time></trkpt><trkpt lat="48.21082680717169" lon="11.58199260772214"><ele>495.0</ele><time>2026-03-27T08:09:51.999Z</time></trkpt><trkpt lat="48.210818025789344" lon="11.58210292625956"><ele>494.99999999999994</ele><time>2026-03-27T08:09:52.999Z</time></trkpt><trkpt lat="48.2108105983179" lon="11.582216453277306"><ele>494.99999999999994</ele><time>2026-03-27T08:09:53.999Z</time></trkpt><trkpt lat="48.21080084764989" lon="11.582320596674197"><ele>495.0</ele><time>2026-03-27T08:09:55Z</time></trkpt><trkpt lat="48.210790607948994" lon="11.582422279944273"><ele>494.99999999999994</ele><time>2026-03-27T08:09:56Z</time></trkpt><trkpt lat="48.21078005544968" lon="11.582521528074857"><ele>494.99999999999994</ele><time>2026-03-27T08:09:57Z</time></trkpt><trkpt lat="48.21077111640655" lon="11.582620186678795"><ele>495.2857142857142</ele><time>2026-03-27T08:09:58Z</time></trkpt><trkpt lat="48.210761658336594" lon="11.582717977441188"><ele>495.57142857142856</ele><time>2026-03-27T08:09:59Z</time></trkpt><trkpt lat="48.21075328199355" lon="11.582817163832585"><ele>495.85714285714283</ele><time>2026-03-27T08:10:00Z</time></trkpt><trkpt lat="48.21074743561257" lon="11.582917269852068"><ele>496.1428571428571</ele><time>2026-03-27T08:10:01Z</time></trkpt><trkpt lat="48.210736270771456" lon="11.583020368175243"><ele>496.42857142857144</ele><time>2026-03-27T08:10:02Z</time></trkpt><trkpt lat="48.21072597702871" lon="11.583130749477041"><ele>496.7142857142857</ele><time>2026-03-27T08:10:03Z</time></trkpt><trkpt lat="48.210716382314246" lon="11.583245477905425"><ele>497.0</ele><time>2026-03-27T08:10:04Z</time></trkpt><trkpt lat="48.21070725437637" lon="11.583366925009273"><ele>497.6</ele><time>2026-03-27T08:10:05Z</time></trkpt><trkpt lat="48.21069377154113" lon="11.58350087394665"><ele>498.20000000000005</ele><time>2026-03-27T08:10:06Z</time></trkpt><trkpt lat="48.21068166496341" lon="11.583646744965794"><ele>498.8</ele><time>2026-03-27T08:10:07Z</time></trkpt><trkpt lat="48.21067010267254" lon="11.583798158757634"><ele>499.4</ele><time>2026-03-27T08:10:08Z</time></trkpt><trkpt lat="48.21065989457711" lon="11.583943128302288"><ele>500.0</ele><time>2026-03-27T08:10:09Z</time></trkpt><trkpt lat="48.21064545441647" lon="11.58407913518133"><ele>500.2</ele><time>2026-03-27T08:10:10Z</time></trkpt><trkpt lat="48.210632220655974" lon="11.58421808122123"><ele>500.4</ele><time>2026-03-27T08:10:11Z</time></trkpt><trkpt lat="48.21062487901032" lon="11.584355261503244"><ele>500.6</ele><time>2026-03-27T08:10:12Z</time></trkpt><trkpt lat="48.21060700159954" lon="11.584507492543882"><ele>500.8</ele><time>2026-03-27T08:10:13Z</time></trkpt><trkpt lat="48.21059521693702" lon="11.584657678508629"><ele>501.0</ele><time>2026-03-27T08:10:14Z</time></trkpt><trkpt lat="48.210579518359246" lon="11.584807703389147"><ele>501.1666666666667</ele><time>2026-03-27T08:10:15Z</time></trkpt><trkpt lat="48.2105695611774" lon="11.584951730057298"><ele>501.33333333333337</ele><time>2026-03-27T08:10:16Z</time></trkpt><trkpt lat="48.21055801171879" lon="11.58508567985533"><ele>501.5</ele><time>2026-03-27T08:10:17Z</time></trkpt><trkpt lat="48.210545567217" lon="11.585214352075983"><ele>501.6666666666667</ele><time>2026-03-27T08:10:18Z</time></trkpt><trkpt lat="48.21053448814297" lon="11.585346292278583"><ele>501.83333333333337</ele><time>2026-03-27T08:10:19Z</time></trkpt><trkpt lat="48.21052613866251" lon="11.585470623061928"><ele>502.0</ele><time>2026-03-27T08:10:20Z</time></trkpt><trkpt lat="48.210515118385494" lon="11.585592486338742"><ele>501.99999999999994</ele><time>2026-03-27T08:10:21Z</time></trkpt><trkpt lat="48.21050399307255" lon="11.585711988329649"><ele>502.0</ele><time>2026-03-27T08:10:22Z</time></trkpt><trkpt lat="48.21049302118298" lon="11.585826808238512"><ele>501.99999999999994</ele><time>2026-03-27T08:10:23Z</time></trkpt><trkpt lat="48.21048306395904" lon="11.585940194789252"><ele>501.99999999999994</ele><time>2026-03-27T08:10:24Z</time></trkpt><trkpt lat="48.210471023868784" lon="11.58605076273804"><ele>502.0</ele><time>2026-03-27T08:10:25Z</time></trkpt><trkpt lat="48.21045321856521" lon="11.58615292621636"><ele>501.99999999999994</ele><time>2026-03-27T08:10:26Z</time></trkpt><trkpt lat="48.210434584718044" lon="11.586250061271558"><ele>501.99999999999994</ele><time>2026-03-27T08:10:27Z</time></trkpt><trkpt lat="48.210415920561765" lon="11.586409984780287"><ele>502.00000000000006</ele><time>2026-03-27T08:10:29Z</time></trkpt><trkpt lat="48.21040175612931" lon="11.586554854694024"><ele>502.0</ele><time>2026-03-27T08:10:31Z</time></trkpt><trkpt lat="48.210395031482044" lon="11.586693285896692"><ele>502.0</ele><time>2026-03-27T08:10:33Z</time></trkpt><trkpt lat="48.21038735357618" lon="11.586816915671612"><ele>502.0</ele><time>2026-03-27T08:10:36Z</time></trkpt><trkpt lat="48.21037465860219" lon="11.586955662727144"><ele>502.00000000000006</ele><time>2026-03-27T08:11:04Z</time></trkpt><trkpt lat="48.21035956537328" lon="11.587071524247357"><ele>502.0</ele><time>2026-03-27T08:11:06Z</time></trkpt><trkpt lat="48.21025246342275" lon="11.587069093461356"><ele>502.0</ele><time>2026-03-27T08:11:07Z</time></trkpt><trkpt lat="48.210181650341944" lon="11.587050775881677"><ele>502.00000000000006</ele><time>2026-03-27T08:11:08Z</time></trkpt><trkpt lat="48.21010308483699" lon="11.587032276024718"><ele>502.00000000000006</ele><time>2026-03-27T08:11:09Z</time></trkpt><trkpt lat="48.210017265760676" lon="11.587013660386367"><ele>502.0</ele><time>2026-03-27T08:11:10Z</time></trkpt><trkpt lat="48.20991270112854" lon="11.58699141195638"><ele>502.0</ele><time>2026-03-27T08:11:11Z</time></trkpt><trkpt lat="48.20980326585595" lon="11.586972335562406"><ele>501.6</ele><time>2026-03-27T08:11:12Z</time></trkpt><trkpt lat="48.20969447639852" lon="11.586954313853637"><ele>501.20000000000005</ele><time>2026-03-27T08:11:13Z</time></trkpt><trkpt lat="48.20958605952443" lon="11.586933499756443"><ele>500.8</ele><time>2026-03-27T08:11:14Z</time></trkpt><trkpt lat="48.20947868176083" lon="11.586912589331776"><ele>500.4</ele><time>2026-03-27T08:11:15Z</time></trkpt><trkpt lat="48.20936892127808" lon="11.586890231706375"><ele>500.0</ele><time>2026-03-27T08:11:16Z</time></trkpt><trkpt lat="48.20925629790723" lon="11.586868381346932"><ele>500.0</ele><time>2026-03-27T08:11:17Z</time></trkpt><trkpt lat="48.209144838471246" lon="11.586848048434737"><ele>500.0</ele><time>2026-03-27T08:11:18Z</time></trkpt><trkpt lat="48.20903951537908" lon="11.586825692348494"><ele>500.0</ele><time>2026-03-27T08:11:19Z</time></trkpt><trkpt lat="48.20893730735853" lon="11.586802496499152"><ele>500.0</ele><time>2026-03-27T08:11:20Z</time></trkpt><trkpt lat="48.20882950193741" lon="11.58678257750998"><ele>500.0</ele><time>2026-03-27T08:11:21Z</time></trkpt><trkpt lat="48.20871479867922" lon="11.586761273396323"><ele>499.6</ele><time>2026-03-27T08:11:22Z</time></trkpt><trkpt lat="48.20859901270197" lon="11.586739850247163"><ele>499.2</ele><time>2026-03-27T08:11:23Z</time></trkpt><trkpt lat="48.20848992364666" lon="11.586717191356328"><ele>498.79999999999995</ele><time>2026-03-27T08:11:24Z</time></trkpt><trkpt lat="48.20838232361827" lon="11.586695230358044"><ele>498.4</ele><time>2026-03-27T08:11:25Z</time></trkpt><trkpt lat="48.20827752135293" lon="11.586675265015545"><ele>498.0</ele><time>2026-03-27T08:11:26Z</time></trkpt><trkpt lat="48.208173894764684" lon="11.586654848651094"><ele>498.2</ele><time>2026-03-27T08:11:27Z</time></trkpt><trkpt lat="48.20807247352114" lon="11.586636530266858"><ele>498.4</ele><time>2026-03-27T08:11:27.999Z</time></trkpt><trkpt lat="48.20797115175781" lon="11.586615238279506"><ele>498.59999999999997</ele><time>2026-03-27T08:11:28.999Z</time></trkpt><trkpt lat="48.207863288503084" lon="11.58659395609722"><ele>498.79999999999995</ele><time>2026-03-27T08:11:29.999Z</time></trkpt><trkpt lat="48.207755541279994" lon="11.586574548734164"><ele>499.0</ele><time>2026-03-27T08:11:30.999Z</time></trkpt><trkpt lat="48.20765214952465" lon="11.586553847772997"><ele>499.0</ele><time>2026-03-27T08:11:31.999Z</time></trkpt><trkpt lat="48.207549599164984" lon="11.586531688860617"><ele>499.0</ele><time>2026-03-27T08:11:32.999Z</time></trkpt><trkpt lat="48.207442787728816" lon="11.586511044605215"><ele>499.0</ele><time>2026-03-27T08:11:33.999Z</time></trkpt><trkpt lat="48.2073360447371" lon="11.586487153629983"><ele>499.0</ele><time>2026-03-27T08:11:34.999Z</time></trkpt><trkpt lat="48.20723372403843" lon="11.58646419882817"><ele>499.0</ele><time>2026-03-27T08:11:35.999Z</time></trkpt><trkpt lat="48.207133626002005" lon="11.586445523532264"><ele>499.0</ele><time>2026-03-27T08:11:36.999Z</time></trkpt><trkpt lat="48.20703436491731" lon="11.586428336457203"><ele>499.0</ele><time>2026-03-27T08:11:37.999Z</time></trkpt><trkpt lat="48.20693475601957" lon="11.586409574163255"><ele>499.0</ele><time>2026-03-27T08:11:38.999Z</time></trkpt><trkpt lat="48.206840300625394" lon="11.586393666038974"><ele>499.0</ele><time>2026-03-27T08:11:39.999Z</time></trkpt><trkpt lat="48.20675445824368" lon="11.58637634211137"><ele>499.0</ele><time>2026-03-27T08:11:40.999Z</time></trkpt><trkpt lat="48.20667255094892" lon="11.586358952508203"><ele>499.00000000000006</ele><time>2026-03-27T08:11:41.999Z</time></trkpt><trkpt lat="48.206592050141516" lon="11.586341251774211"><ele>499.0</ele><time>2026-03-27T08:11:42.999Z</time></trkpt><trkpt lat="48.206510145068364" lon="11.586321391277698"><ele>499.0</ele><time>2026-03-27T08:11:43.999Z</time></trkpt><trkpt lat="48.20643018994574" lon="11.58630721937344"><ele>499.0</ele><time>2026-03-27T08:11:44.999Z</time></trkpt><trkpt lat="48.20635375058981" lon="11.586291446345518"><ele>499.00000000000006</ele><time>2026-03-27T08:11:45.999Z</time></trkpt><trkpt lat="48.206277968853755" lon="11.58627997237723"><ele>499.0</ele><time>2026-03-27T08:11:46.999Z</time></trkpt><trkpt lat="48.20620847566918" lon="11.58626663680216"><ele>498.50000000000006</ele><time>2026-03-27T08:11:47.999Z</time></trkpt><trkpt lat="48.20609427730146" lon="11.586245545605104"><ele>498.0</ele><time>2026-03-27T08:11:49.999Z</time></trkpt><trkpt lat="48.2060217213661" lon="11.586230899528058"><ele>497.5</ele><time>2026-03-27T08:11:51.999Z</time></trkpt><trkpt lat="48.20595916724376" lon="11.586218537849698"><ele>497.0</ele><time>2026-03-27T08:11:55.999Z</time></trkpt><trkpt lat="48.20589251072633" lon="11.58620778364871"><ele>496.50000000000006</ele><time>2026-03-27T08:12:05.001Z</time></trkpt><trkpt lat="48.20582760979654" lon="11.586191926516582"><ele>496.0</ele><time>2026-03-27T08:12:06.001Z</time></trkpt><trkpt lat="48.205741017410936" lon="11.586179412608633"><ele>496.50000000000006</ele><time>2026-03-27T08:12:07Z</time></trkpt><trkpt lat="48.205635487125235" lon="11.586160501022512"><ele>497.0</ele><time>2026-03-27T08:12:08Z</time></trkpt><trkpt lat="48.20554033840934" lon="11.586148559236845"><ele>497.5</ele><time>2026-03-27T08:12:09Z</time></trkpt><trkpt lat="48.20545891458824" lon="11.5861253713961"><ele>498.0</ele><time>2026-03-27T08:12:10Z</time></trkpt><trkpt lat="48.20538400873729" lon="11.58610396037849"><ele>498.50000000000006</ele><time>2026-03-27T08:12:11Z</time></trkpt><trkpt lat="48.20530627729555" lon="11.586085898175284"><ele>499.0</ele><time>2026-03-27T08:12:12Z</time></trkpt><trkpt lat="48.20522172007053" lon="11.586069980394603"><ele>499.0</ele><time>2026-03-27T08:12:13Z</time></trkpt><trkpt lat="48.20513024943279" lon="11.586052860231602"><ele>499.0</ele><time>2026-03-27T08:12:14Z</time></trkpt><trkpt lat="48.20502505345466" lon="11.586034850778853"><ele>499.0</ele><time>2026-03-27T08:12:15Z</time></trkpt><trkpt lat="48.20491011745845" lon="11.586015807569732"><ele>499.0</ele><time>2026-03-27T08:12:16Z</time></trkpt><trkpt lat="48.204794106188174" lon="11.585996595754052"><ele>499.0</ele><time>2026-03-27T08:12:17Z</time></trkpt><trkpt lat="48.20468272244614" lon="11.585971872906152"><ele>498.83333333333337</ele><time>2026-03-27T08:12:18Z</time></trkpt><trkpt lat="48.20458298413683" lon="11.585950273481435"><ele>498.6666666666667</ele><time>2026-03-27T08:12:19Z</time></trkpt><trkpt lat="48.20449499905403" lon="11.585933646411734"><ele>498.5</ele><time>2026-03-27T08:12:20Z</time></trkpt><trkpt lat="48.204417758518154" lon="11.585920798254758"><ele>498.33333333333337</ele><time>2026-03-27T08:12:21Z</time></trkpt><trkpt lat="48.20433750549734" lon="11.585907764561563"><ele>498.1666666666667</ele><time>2026-03-27T08:12:22Z</time></trkpt><trkpt lat="48.20425109091191" lon="11.58589232805354"><ele>498.0</ele><time>2026-03-27T08:12:23Z</time></trkpt><trkpt lat="48.20415894619695" lon="11.585873806733677"><ele>498.0</ele><time>2026-03-27T08:12:24Z</time></trkpt><trkpt lat="48.2040601123825" lon="11.58584816707353"><ele>497.99999999999994</ele><time>2026-03-27T08:12:25Z</time></trkpt><trkpt lat="48.20395606670398" lon="11.58582883160523"><ele>497.99999999999994</ele><time>2026-03-27T08:12:26Z</time></trkpt><trkpt lat="48.203849065436884" lon="11.58581027439626"><ele>498.0</ele><time>2026-03-27T08:12:27Z</time></trkpt><trkpt lat="48.203739247213086" lon="11.585789095361326"><ele>498.0</ele><time>2026-03-27T08:12:28Z</time></trkpt><trkpt lat="48.203629833207756" lon="11.585766452231793"><ele>498.0</ele><time>2026-03-27T08:12:29Z</time></trkpt><trkpt lat="48.20352520163012" lon="11.58574403370567"><ele>497.99999999999994</ele><time>2026-03-27T08:12:30Z</time></trkpt><trkpt lat="48.203425527013756" lon="11.585724594446964"><ele>497.99999999999994</ele><time>2026-03-27T08:12:31Z</time></trkpt><trkpt lat="48.20333146487717" lon="11.585705031923707"><ele>498.0</ele><time>2026-03-27T08:12:32Z</time></trkpt><trkpt lat="48.20323738885222" lon="11.585688114868029"><ele>498.0</ele><time>2026-03-27T08:12:32.999Z</time></trkpt><trkpt lat="48.20314340829497" lon="11.585670125839442"><ele>498.2</ele><time>2026-03-27T08:12:33.999Z</time></trkpt><trkpt lat="48.203046067500445" lon="11.585652326492227"><ele>498.4</ele><time>2026-03-27T08:12:34.999Z</time></trkpt><trkpt lat="48.20294588573608" lon="11.585633588836787"><ele>498.59999999999997</ele><time>2026-03-27T08:12:35.999Z</time></trkpt><trkpt lat="48.202844410107815" lon="11.585614737282695"><ele>498.79999999999995</ele><time>2026-03-27T08:12:36.999Z</time></trkpt><trkpt lat="48.20273748391399" lon="11.585594845148862"><ele>499.0</ele><time>2026-03-27T08:12:37.999Z</time></trkpt><trkpt lat="48.20262641914727" lon="11.58556946769654"><ele>499.0</ele><time>2026-03-27T08:12:38.999Z</time></trkpt><trkpt lat="48.20251184331566" lon="11.585546070567192"><ele>499.0</ele><time>2026-03-27T08:12:39.999Z</time></trkpt><trkpt lat="48.202394183347096" lon="11.585522764544935"><ele>499.0</ele><time>2026-03-27T08:12:40.999Z</time></trkpt><trkpt lat="48.20227312613086" lon="11.585500006179597"><ele>499.0</ele><time>2026-03-27T08:12:41.999Z</time></trkpt><trkpt lat="48.20214785041828" lon="11.585478118160097"><ele>499.25</ele><time>2026-03-27T08:12:42.999Z</time></trkpt><trkpt lat="48.20202015285777" lon="11.585454406173705"><ele>499.5</ele><time>2026-03-27T08:12:43.999Z</time></trkpt><trkpt lat="48.201898004962686" lon="11.585429094481109"><ele>499.75</ele><time>2026-03-27T08:12:44.999Z</time></trkpt><trkpt lat="48.20178054054256" lon="11.585403006552088"><ele>500.0</ele><time>2026-03-27T08:12:45.999Z</time></trkpt><trkpt lat="48.201670819864056" lon="11.585380749064543"><ele>500.0</ele><time>2026-03-27T08:12:46.999Z</time></trkpt><trkpt lat="48.20156743655065" lon="11.585359502594887"><ele>500.0</ele><time>2026-03-27T08:12:47.999Z</time></trkpt><trkpt lat="48.20146854973503" lon="11.585338790188523"><ele>500.0</ele><time>2026-03-27T08:12:48.999Z</time></trkpt><trkpt lat="48.20136956344655" lon="11.585322342444824"><ele>500.0</ele><time>2026-03-27T08:12:49.999Z</time></trkpt><trkpt lat="48.201270291041915" lon="11.58530265184795"><ele>500.0</ele><time>2026-03-27T08:12:50.999Z</time></trkpt><trkpt lat="48.20115805551934" lon="11.585279799891097"><ele>500.5</ele><time>2026-03-27T08:12:51.999Z</time></trkpt><trkpt lat="48.20101727329964" lon="11.585256843848835"><ele>501.0</ele><time>2026-03-27T08:12:52.999Z</time></trkpt><trkpt lat="48.200870495444875" lon="11.585228041774334"><ele>501.5</ele><time>2026-03-27T08:12:53.999Z</time></trkpt><trkpt lat="48.20074849675276" lon="11.585202629465996"><ele>502.0</ele><time>2026-03-27T08:12:54.999Z</time></trkpt><trkpt lat="48.200641010493875" lon="11.585178699633992"><ele>502.0</ele><time>2026-03-27T08:12:55.999Z</time></trkpt><trkpt lat="48.200536771198884" lon="11.585159190888048"><ele>502.0</ele><time>2026-03-27T08:12:56.999Z</time></trkpt><trkpt lat="48.200429071527566" lon="11.58513864687998"><ele>502.0</ele><time>2026-03-27T08:12:57.999Z</time></trkpt><trkpt lat="48.200314706998725" lon="11.585116014485486"><ele>502.0</ele><time>2026-03-27T08:12:58.999Z</time></trkpt><trkpt lat="48.20019306614857" lon="11.585096642456696"><ele>502.0</ele><time>2026-03-27T08:12:59.999Z</time></trkpt><trkpt lat="48.200075768410954" lon="11.585075450170763"><ele>502.0</ele><time>2026-03-27T08:13:00.999Z</time></trkpt><trkpt lat="48.199962543749514" lon="11.585049869104624"><ele>502.0</ele><time>2026-03-27T08:13:01.999Z</time></trkpt><trkpt lat="48.19984658073022" lon="11.585028976033428"><ele>502.0</ele><time>2026-03-27T08:13:02.999Z</time></trkpt><trkpt lat="48.19973024933331" lon="11.585008324498954"><ele>501.5</ele><time>2026-03-27T08:13:03.999Z</time></trkpt><trkpt lat="48.199614025053975" lon="11.584983858113874"><ele>501.0</ele><time>2026-03-27T08:13:04.999Z</time></trkpt><trkpt lat="48.199494438546814" lon="11.584961220014916"><ele>500.5</ele><time>2026-03-27T08:13:05.999Z</time></trkpt><trkpt lat="48.199376811222756" lon="11.584938298056096"><ele>500.0</ele><time>2026-03-27T08:13:06.999Z</time></trkpt><trkpt lat="48.199266663629295" lon="11.584911816985864"><ele>500.0</ele><time>2026-03-27T08:13:07.999Z</time></trkpt><trkpt lat="48.19915362483825" lon="11.584889638328733"><ele>500.0</ele><time>2026-03-27T08:13:08.999Z</time></trkpt><trkpt lat="48.199037114313604" lon="11.584868230084437"><ele>500.0</ele><time>2026-03-27T08:13:09.999Z</time></trkpt><trkpt lat="48.19891592950719" lon="11.584844681507706"><ele>500.0</ele><time>2026-03-27T08:13:10.999Z</time></trkpt><trkpt lat="48.19879194938842" lon="11.584817130661555"><ele>500.0</ele><time>2026-03-27T08:13:11.999Z</time></trkpt><trkpt lat="48.19866721689373" lon="11.584801435575084"><ele>500.0</ele><time>2026-03-27T08:13:12.999Z</time></trkpt><trkpt lat="48.1985519300929" lon="11.584777099157872"><ele>500.0</ele><time>2026-03-27T08:13:13.999Z</time></trkpt><trkpt lat="48.19843715967836" lon="11.584752738286765"><ele>500.0</ele><time>2026-03-27T08:13:14.999Z</time></trkpt><trkpt lat="48.198322546505686" lon="11.584731385832121"><ele>500.0</ele><time>2026-03-27T08:13:15.999Z</time></trkpt><trkpt lat="48.19820878493969" lon="11.584707979256258"><ele>500.0</ele><time>2026-03-27T08:13:16.999Z</time></trkpt><trkpt lat="48.19809364259066" lon="11.58468435406702"><ele>500.0</ele><time>2026-03-27T08:13:17.999Z</time></trkpt><trkpt lat="48.19797908135868" lon="11.584657512584053"><ele>500.0</ele><time>2026-03-27T08:13:18.999Z</time></trkpt><trkpt lat="48.19786447232481" lon="11.584636723248774"><ele>500.2</ele><time>2026-03-27T08:13:19.999Z</time></trkpt><trkpt lat="48.19775117425273" lon="11.58461580594922"><ele>500.4</ele><time>2026-03-27T08:13:20.999Z</time></trkpt><trkpt lat="48.19764612825426" lon="11.584596602051194"><ele>500.6</ele><time>2026-03-27T08:13:21.999Z</time></trkpt><trkpt lat="48.19754108991546" lon="11.584578029248423"><ele>500.8</ele><time>2026-03-27T08:13:22.999Z</time></trkpt><trkpt lat="48.19743455965833" lon="11.584556921389446"><ele>501.0</ele><time>2026-03-27T08:13:23.999Z</time></trkpt><trkpt lat="48.19732560585574" lon="11.584536169695772"><ele>501.0</ele><time>2026-03-27T08:13:24.999Z</time></trkpt><trkpt lat="48.19721530609543" lon="11.58451528053772"><ele>501.0</ele><time>2026-03-27T08:13:25.999Z</time></trkpt><trkpt lat="48.197104430490995" lon="11.58449233126752"><ele>501.0</ele><time>2026-03-27T08:13:26.999Z</time></trkpt><trkpt lat="48.19699397618653" lon="11.584473597084237"><ele>501.0</ele><time>2026-03-27T08:13:27.999Z</time></trkpt><trkpt lat="48.19689040980694" lon="11.584453994347466"><ele>501.0</ele><time>2026-03-27T08:13:28.999Z</time></trkpt><trkpt lat="48.19679307770497" lon="11.584434447750406"><ele>501.1666666666667</ele><time>2026-03-27T08:13:29.999Z</time></trkpt><trkpt lat="48.19670100714983" lon="11.584415882919851"><ele>501.33333333333337</ele><time>2026-03-27T08:13:30.999Z</time></trkpt><trkpt lat="48.19661401503476" lon="11.584397666299585"><ele>501.5</ele><time>2026-03-27T08:13:31.999Z</time></trkpt><trkpt lat="48.196531167395264" lon="11.584380586632555"><ele>501.6666666666667</ele><time>2026-03-27T08:13:32.999Z</time></trkpt><trkpt lat="48.19646052345341" lon="11.584368857505535"><ele>501.83333333333337</ele><time>2026-03-27T08:13:33.999Z</time></trkpt><trkpt lat="48.19634952388136" lon="11.584347370317246"><ele>502.0</ele><time>2026-03-27T08:13:35.999Z</time></trkpt><trkpt lat="48.19625389302206" lon="11.584330760011639"><ele>502.20000000000005</ele><time>2026-03-27T08:13:37.999Z</time></trkpt><trkpt lat="48.196133664409295" lon="11.584303603225413"><ele>502.40000000000003</ele><time>2026-03-27T08:13:39.999Z</time></trkpt><trkpt lat="48.196056979182536" lon="11.584292851591245"><ele>502.59999999999997</ele><time>2026-03-27T08:13:40.999Z</time></trkpt><trkpt lat="48.1959715077977" lon="11.5842741212726"><ele>502.79999999999995</ele><time>2026-03-27T08:13:41.999Z</time></trkpt><trkpt lat="48.19588160285156" lon="11.5842547879568"><ele>503.0</ele><time>2026-03-27T08:13:42.999Z</time></trkpt><trkpt lat="48.195790132164674" lon="11.584236121462279"><ele>503.0</ele><time>2026-03-27T08:13:43.999Z</time></trkpt><trkpt lat="48.19569929645716" lon="11.584219264668606"><ele>502.99999999999994</ele><time>2026-03-27T08:13:44.999Z</time></trkpt><trkpt lat="48.19560460017568" lon="11.584200006142947"><ele>502.99999999999994</ele><time>2026-03-27T08:13:45.998Z</time></trkpt><trkpt lat="48.19550945825818" lon="11.584184941614195"><ele>503.0</ele><time>2026-03-27T08:13:46.998Z</time></trkpt><trkpt lat="48.195392970815504" lon="11.584165199091034"><ele>503.0</ele><time>2026-03-27T08:13:47.998Z</time></trkpt><trkpt lat="48.195274995884986" lon="11.58414518259017"><ele>503.0</ele><time>2026-03-27T08:13:48.998Z</time></trkpt><trkpt lat="48.19516731705805" lon="11.584125281375977"><ele>502.99999999999994</ele><time>2026-03-27T08:13:49.998Z</time></trkpt><trkpt lat="48.19505805455747" lon="11.584101932532558"><ele>502.99999999999994</ele><time>2026-03-27T08:13:50.998Z</time></trkpt><trkpt lat="48.19494672402191" lon="11.584081012852193"><ele>503.0</ele><time>2026-03-27T08:13:51.998Z</time></trkpt><trkpt lat="48.19483135486367" lon="11.584063023601304"><ele>503.0</ele><time>2026-03-27T08:13:52.998Z</time></trkpt><trkpt lat="48.19471547644367" lon="11.58404228303958"><ele>503.25</ele><time>2026-03-27T08:13:53.998Z</time></trkpt><trkpt lat="48.19459648370085" lon="11.584024301928215"><ele>503.5</ele><time>2026-03-27T08:13:54.998Z</time></trkpt><trkpt lat="48.194474054784635" lon="11.58400840602123"><ele>503.75</ele><time>2026-03-27T08:13:55.998Z</time></trkpt><trkpt lat="48.19435982835568" lon="11.58399430974245"><ele>504.0</ele><time>2026-03-27T08:13:56.998Z</time></trkpt><trkpt lat="48.19424875676293" lon="11.583978554588276"><ele>504.0</ele><time>2026-03-27T08:13:57.998Z</time></trkpt><trkpt lat="48.19413867071542" lon="11.58396345975223"><ele>504.0</ele><time>2026-03-27T08:13:58.998Z</time></trkpt><trkpt lat="48.19402847418257" lon="11.583956062234922"><ele>504.0</ele><time>2026-03-27T08:13:59.998Z</time></trkpt><trkpt lat="48.19392013533159" lon="11.583951260885271"><ele>504.0</ele><time>2026-03-27T08:14:00.998Z</time></trkpt><trkpt lat="48.19382035565706" lon="11.58394724277408"><ele>504.0</ele><time>2026-03-27T08:14:01.998Z</time></trkpt><trkpt lat="48.19371929402663" lon="11.583939915509719"><ele>504.0</ele><time>2026-03-27T08:14:02.998Z</time></trkpt><trkpt lat="48.19361556187865" lon="11.58393627564877"><ele>504.0</ele><time>2026-03-27T08:14:03.998Z</time></trkpt><trkpt lat="48.19350993739372" lon="11.583936872389275"><ele>504.0</ele><time>2026-03-27T08:14:04.998Z</time></trkpt><trkpt lat="48.19340255784275" lon="11.583933949903512"><ele>504.0</ele><time>2026-03-27T08:14:05.998Z</time></trkpt><trkpt lat="48.19329801445098" lon="11.583933852771612"><ele>504.0</ele><time>2026-03-27T08:14:07Z</time></trkpt><trkpt lat="48.19319183540808" lon="11.583932093365913"><ele>503.6</ele><time>2026-03-27T08:14:08Z</time></trkpt><trkpt lat="48.19309087093725" lon="11.583933103550216"><ele>503.2</ele><time>2026-03-27T08:14:09Z</time></trkpt><trkpt lat="48.19298611539006" lon="11.583931402566083"><ele>502.80000000000007</ele><time>2026-03-27T08:14:10Z</time></trkpt><trkpt lat="48.19288003193069" lon="11.583935058259343"><ele>502.40000000000003</ele><time>2026-03-27T08:14:11Z</time></trkpt><trkpt lat="48.19277647004773" lon="11.58393836942338"><ele>502.0</ele><time>2026-03-27T08:14:12Z</time></trkpt><trkpt lat="48.19267622627829" lon="11.583939415721316"><ele>502.0</ele><time>2026-03-27T08:14:13Z</time></trkpt><trkpt lat="48.19257496396602" lon="11.58394156136588"><ele>502.00000000000006</ele><time>2026-03-27T08:14:14Z</time></trkpt><trkpt lat="48.192475277854655" lon="11.583948080319368"><ele>502.00000000000006</ele><time>2026-03-27T08:14:15Z</time></trkpt><trkpt lat="48.19236498076497" lon="11.583955124216658"><ele>502.0</ele><time>2026-03-27T08:14:16Z</time></trkpt><trkpt lat="48.192253254254126" lon="11.583963735119173"><ele>502.0</ele><time>2026-03-27T08:14:17Z</time></trkpt><trkpt lat="48.19215331326385" lon="11.583966340622322"><ele>502.0</ele><time>2026-03-27T08:14:18Z</time></trkpt><trkpt lat="48.192049559033535" lon="11.583972563997106"><ele>502.00000000000006</ele><time>2026-03-27T08:14:19Z</time></trkpt><trkpt lat="48.1919442177845" lon="11.583981061659061"><ele>502.00000000000006</ele><time>2026-03-27T08:14:20Z</time></trkpt><trkpt lat="48.19183782323356" lon="11.583989287003668"><ele>502.0</ele><time>2026-03-27T08:14:21Z</time></trkpt><trkpt lat="48.19172905322561" lon="11.583996432572388"><ele>502.0</ele><time>2026-03-27T08:14:22Z</time></trkpt><trkpt lat="48.19161458583253" lon="11.584003558694258"><ele>502.20000000000005</ele><time>2026-03-27T08:14:23Z</time></trkpt><trkpt lat="48.19150350393142" lon="11.58401310833554"><ele>502.40000000000003</ele><time>2026-03-27T08:14:24Z</time></trkpt><trkpt lat="48.191395220334854" lon="11.584022387686947"><ele>502.59999999999997</ele><time>2026-03-27T08:14:25Z</time></trkpt><trkpt lat="48.19128528834984" lon="11.58403172020782"><ele>502.79999999999995</ele><time>2026-03-27T08:14:26Z</time></trkpt><trkpt lat="48.19117375798021" lon="11.584042631247922"><ele>503.0</ele><time>2026-03-27T08:14:27Z</time></trkpt><trkpt lat="48.1910607095038" lon="11.58405221875632"><ele>503.0</ele><time>2026-03-27T08:14:28Z</time></trkpt><trkpt lat="48.190943634388624" lon="11.584063054440568"><ele>503.0</ele><time>2026-03-27T08:14:29Z</time></trkpt><trkpt lat="48.190823045058714" lon="11.58407262962893"><ele>503.0</ele><time>2026-03-27T08:14:30Z</time></trkpt><trkpt lat="48.19070038747845" lon="11.584085091356775"><ele>503.0</ele><time>2026-03-27T08:14:31Z</time></trkpt><trkpt lat="48.190585049069675" lon="11.584100034352257"><ele>502.79999999999995</ele><time>2026-03-27T08:14:32Z</time></trkpt><trkpt lat="48.1904716740801" lon="11.584111947218235"><ele>502.59999999999997</ele><time>2026-03-27T08:14:33Z</time></trkpt><trkpt lat="48.19035998306957" lon="11.584127203001756"><ele>502.40000000000003</ele><time>2026-03-27T08:14:34Z</time></trkpt><trkpt lat="48.19024650565135" lon="11.58414029324755"><ele>502.20000000000005</ele><time>2026-03-27T08:14:35Z</time></trkpt><trkpt lat="48.19013754222953" lon="11.58414339290646"><ele>502.0</ele><time>2026-03-27T08:14:35.999Z</time></trkpt><trkpt lat="48.190030723904236" lon="11.584150377982864"><ele>502.0</ele><time>2026-03-27T08:14:36.999Z</time></trkpt><trkpt lat="48.18992626364669" lon="11.584157565067896"><ele>502.00000000000006</ele><time>2026-03-27T08:14:37.999Z</time></trkpt><trkpt lat="48.189821819915565" lon="11.584166556958658"><ele>502.00000000000006</ele><time>2026-03-27T08:14:38.999Z</time></trkpt><trkpt lat="48.18971401744259" lon="11.584174200397328"><ele>502.0</ele><time>2026-03-27T08:14:39.999Z</time></trkpt><trkpt lat="48.189602045073045" lon="11.584182843120141"><ele>502.0</ele><time>2026-03-27T08:14:40.999Z</time></trkpt><trkpt lat="48.189498564797546" lon="11.584191976668876"><ele>502.0</ele><time>2026-03-27T08:14:41.999Z</time></trkpt><trkpt lat="48.18939466855139" lon="11.584198801147844"><ele>502.00000000000006</ele><time>2026-03-27T08:14:42.999Z</time></trkpt><trkpt lat="48.18928561350302" lon="11.58420536086954"><ele>502.00000000000006</ele><time>2026-03-27T08:14:43.999Z</time></trkpt><trkpt lat="48.18917532795818" lon="11.584215170827708"><ele>502.0</ele><time>2026-03-27T08:14:44.999Z</time></trkpt><trkpt lat="48.18907299511429" lon="11.584224999208974"><ele>502.0</ele><time>2026-03-27T08:14:45.999Z</time></trkpt><trkpt lat="48.18897302235647" lon="11.584235860548475"><ele>502.1666666666667</ele><time>2026-03-27T08:14:46.999Z</time></trkpt><trkpt lat="48.18887020717252" lon="11.584240813468721"><ele>502.33333333333337</ele><time>2026-03-27T08:14:47.999Z</time></trkpt><trkpt lat="48.18877451914976" lon="11.584248068854867"><ele>502.5</ele><time>2026-03-27T08:14:48.999Z</time></trkpt><trkpt lat="48.18868639570484" lon="11.584255176614702"><ele>502.66666666666663</ele><time>2026-03-27T08:14:49.999Z</time></trkpt><trkpt lat="48.18860762993856" lon="11.58426042438276"><ele>502.8333333333333</ele><time>2026-03-27T08:14:50.999Z</time></trkpt><trkpt lat="48.188534311048706" lon="11.584265853370617"><ele>503.0</ele><time>2026-03-27T08:14:51.999Z</time></trkpt><trkpt lat="48.188463108547154" lon="11.584274597604907"><ele>502.99999999999994</ele><time>2026-03-27T08:14:52.999Z</time></trkpt><trkpt lat="48.18839983737736" lon="11.584278366992558"><ele>503.0</ele><time>2026-03-27T08:14:53.999Z</time></trkpt><trkpt lat="48.18829492346682" lon="11.58428546137588"><ele>503.0</ele><time>2026-03-27T08:14:55.999Z</time></trkpt><trkpt lat="48.18822300065017" lon="11.584291276941736"><ele>503.0</ele><time>2026-03-27T08:14:57.999Z</time></trkpt><trkpt lat="48.18814785057806" lon="11.584291756845532"><ele>502.99999999999994</ele><time>2026-03-27T08:15:45.999Z</time></trkpt><trkpt lat="48.188059596004244" lon="11.584301912173622"><ele>503.0</ele><time>2026-03-27T08:15:47.999Z</time></trkpt><trkpt lat="48.1879366792219" lon="11.584306782273863"><ele>503.49999999999994</ele><time>2026-03-27T08:15:49.999Z</time></trkpt><trkpt lat="48.1878596805242" lon="11.584316299591777"><ele>504.0</ele><time>2026-03-27T08:15:50.999Z</time></trkpt><trkpt lat="48.187776998199915" lon="11.58431220609422"><ele>504.5</ele><time>2026-03-27T08:15:51.999Z</time></trkpt><trkpt lat="48.187688717317336" lon="11.584320203104676"><ele>505.0</ele><time>2026-03-27T08:15:52.999Z</time></trkpt><trkpt lat="48.18759634305831" lon="11.58433086642605"><ele>505.49999999999994</ele><time>2026-03-27T08:15:53.999Z</time></trkpt><trkpt lat="48.18749577770056" lon="11.584337331360821"><ele>506.0</ele><time>2026-03-27T08:15:54.999Z</time></trkpt><trkpt lat="48.18739525294258" lon="11.584342353112689"><ele>505.8</ele><time>2026-03-27T08:15:55.999Z</time></trkpt><trkpt lat="48.18728744723197" lon="11.584353831515044"><ele>505.6</ele><time>2026-03-27T08:15:56.999Z</time></trkpt><trkpt lat="48.1871766287053" lon="11.584362719627785"><ele>505.4</ele><time>2026-03-27T08:15:57.999Z</time></trkpt><trkpt lat="48.18706680556684" lon="11.584366971088684"><ele>505.2</ele><time>2026-03-27T08:15:58.999Z</time></trkpt><trkpt lat="48.186959149276454" lon="11.584371129016528"><ele>505.0</ele><time>2026-03-27T08:15:59.999Z</time></trkpt><trkpt lat="48.1868517455049" lon="11.584377238585763"><ele>505.0</ele><time>2026-03-27T08:16:00.999Z</time></trkpt><trkpt lat="48.186737464458076" lon="11.584388911820149"><ele>505.0</ele><time>2026-03-27T08:16:01.999Z</time></trkpt><trkpt lat="48.186615848087065" lon="11.584396557120183"><ele>505.0</ele><time>2026-03-27T08:16:02.998Z</time></trkpt><trkpt lat="48.186502156703966" lon="11.584404860376068"><ele>505.0</ele><time>2026-03-27T08:16:03.998Z</time></trkpt><trkpt lat="48.18639767407541" lon="11.584414848281241"><ele>504.6</ele><time>2026-03-27T08:16:04.998Z</time></trkpt><trkpt lat="48.18629365930401" lon="11.584423570607203"><ele>504.2</ele><time>2026-03-27T08:16:05.998Z</time></trkpt><trkpt lat="48.1861809529889" lon="11.584432666776364"><ele>503.79999999999995</ele><time>2026-03-27T08:16:06.998Z</time></trkpt><trkpt lat="48.186064387724684" lon="11.584442969661577"><ele>503.4</ele><time>2026-03-27T08:16:07.998Z</time></trkpt><trkpt lat="48.18595223448986" lon="11.584450105162935"><ele>503.0</ele><time>2026-03-27T08:16:08.998Z</time></trkpt><trkpt lat="48.18584598803856" lon="11.584456618394935"><ele>503.0</ele><time>2026-03-27T08:16:09.998Z</time></trkpt><trkpt lat="48.185744993756245" lon="11.584465797364661"><ele>502.99999999999994</ele><time>2026-03-27T08:16:10.998Z</time></trkpt><trkpt lat="48.18564608157021" lon="11.584473048349048"><ele>502.99999999999994</ele><time>2026-03-27T08:16:11.998Z</time></trkpt><trkpt lat="48.18555260800587" lon="11.584479309312586"><ele>503.0</ele><time>2026-03-27T08:16:13Z</time></trkpt><trkpt lat="48.18546321960343" lon="11.584484865084928"><ele>503.0</ele><time>2026-03-27T08:16:14Z</time></trkpt><trkpt lat="48.18537695149556" lon="11.584492999215668"><ele>503.3333333333333</ele><time>2026-03-27T08:16:15Z</time></trkpt><trkpt lat="48.185294077560485" lon="11.584498279850147"><ele>503.66666666666663</ele><time>2026-03-27T08:16:16Z</time></trkpt><trkpt lat="48.18521193112796" lon="11.584506234163886"><ele>504.0</ele><time>2026-03-27T08:16:17Z</time></trkpt><trkpt lat="48.18513042396391" lon="11.584514841049321"><ele>504.33333333333337</ele><time>2026-03-27T08:16:18Z</time></trkpt><trkpt lat="48.185051124384216" lon="11.584519988944688"><ele>504.6666666666667</ele><time>2026-03-27T08:16:19Z</time></trkpt><trkpt lat="48.184972149710916" lon="11.584528439852974"><ele>505.0</ele><time>2026-03-27T08:16:20Z</time></trkpt><trkpt lat="48.18489856729564" lon="11.58453445428196"><ele>505.1666666666667</ele><time>2026-03-27T08:16:21Z</time></trkpt><trkpt lat="48.18482992757656" lon="11.584539535607867"><ele>505.33333333333337</ele><time>2026-03-27T08:16:22Z</time></trkpt><trkpt lat="48.18473143319545" lon="11.584546562237371"><ele>505.5</ele><time>2026-03-27T08:16:24Z</time></trkpt><trkpt lat="48.18464367077281" lon="11.584555863487502"><ele>505.66666666666663</ele><time>2026-03-27T08:16:27Z</time></trkpt><trkpt lat="48.18457730777017" lon="11.584560571912764"><ele>505.8333333333333</ele><time>2026-03-27T08:16:29.999Z</time></trkpt><trkpt lat="48.18448820766741" lon="11.584571739378735"><ele>506.0</ele><time>2026-03-27T08:16:31.999Z</time></trkpt><trkpt lat="48.18437879105626" lon="11.584581567884197"><ele>505.99999999999994</ele><time>2026-03-27T08:16:33.999Z</time></trkpt><trkpt lat="48.18431191923648" lon="11.58458725417343"><ele>506.0</ele><time>2026-03-27T08:16:34.999Z</time></trkpt><trkpt lat="48.18423585565027" lon="11.58459627438597"><ele>506.0</ele><time>2026-03-27T08:16:35.999Z</time></trkpt><trkpt lat="48.18416095492775" lon="11.58460215071313"><ele>506.0</ele><time>2026-03-27T08:16:36.999Z</time></trkpt><trkpt lat="48.18408811676232" lon="11.584606273621137"><ele>505.99999999999994</ele><time>2026-03-27T08:16:37.999Z</time></trkpt><trkpt lat="48.18400053562524" lon="11.584617148069114"><ele>506.0</ele><time>2026-03-27T08:16:38.999Z</time></trkpt><trkpt lat="48.18390220276964" lon="11.584629640954791"><ele>506.4</ele><time>2026-03-27T08:16:39.999Z</time></trkpt><trkpt lat="48.18380096720576" lon="11.584641708817323"><ele>506.8</ele><time>2026-03-27T08:16:40.999Z</time></trkpt><trkpt lat="48.18369158710644" lon="11.584651089324812"><ele>507.19999999999993</ele><time>2026-03-27T08:16:41.998Z</time></trkpt><trkpt lat="48.18358128223516" lon="11.584664961850745"><ele>507.59999999999997</ele><time>2026-03-27T08:16:42.998Z</time></trkpt><trkpt lat="48.18347475960206" lon="11.584669777340217"><ele>508.0</ele><time>2026-03-27T08:16:43.998Z</time></trkpt><trkpt lat="48.18336573478099" lon="11.584678686527674"><ele>508.0</ele><time>2026-03-27T08:16:44.998Z</time></trkpt><trkpt lat="48.18325006938573" lon="11.584690358767569"><ele>508.0</ele><time>2026-03-27T08:16:45.998Z</time></trkpt><trkpt lat="48.18313134410961" lon="11.584703198763336"><ele>508.0</ele><time>2026-03-27T08:16:46.998Z</time></trkpt><trkpt lat="48.18301305294576" lon="11.584714933746895"><ele>508.0</ele><time>2026-03-27T08:16:47.998Z</time></trkpt><trkpt lat="48.18289735451318" lon="11.584724405998962"><ele>507.5</ele><time>2026-03-27T08:16:48.998Z</time></trkpt><trkpt lat="48.18278378639976" lon="11.584733146415415"><ele>507.0</ele><time>2026-03-27T08:16:49.998Z</time></trkpt><trkpt lat="48.18267343816808" lon="11.584742244860427"><ele>506.5</ele><time>2026-03-27T08:16:50.998Z</time></trkpt><trkpt lat="48.182558981118504" lon="11.584751087617969"><ele>506.0</ele><time>2026-03-27T08:16:51.998Z</time></trkpt><trkpt lat="48.18243474293118" lon="11.58476254330524"><ele>506.0</ele><time>2026-03-27T08:16:52.998Z</time></trkpt><trkpt lat="48.18231538292296" lon="11.584776532666817"><ele>506.0</ele><time>2026-03-27T08:16:53.998Z</time></trkpt><trkpt lat="48.18220093576071" lon="11.58478487506589"><ele>506.0</ele><time>2026-03-27T08:16:54.998Z</time></trkpt><trkpt lat="48.18208803223686" lon="11.58479603673598"><ele>506.0</ele><time>2026-03-27T08:16:55.998Z</time></trkpt><trkpt lat="48.18197498112788" lon="11.584805783989454"><ele>506.0</ele><time>2026-03-27T08:16:56.998Z</time></trkpt><trkpt lat="48.18186255278476" lon="11.584816641816708"><ele>506.0</ele><time>2026-03-27T08:16:57.998Z</time></trkpt><trkpt lat="48.1817493513816" lon="11.584830225922067"><ele>506.0</ele><time>2026-03-27T08:16:58.998Z</time></trkpt><trkpt lat="48.181634067724296" lon="11.58484394230164"><ele>506.0</ele><time>2026-03-27T08:16:59.998Z</time></trkpt><trkpt lat="48.18152596371669" lon="11.584853817835084"><ele>506.8</ele><time>2026-03-27T08:17:00.998Z</time></trkpt><trkpt lat="48.18141669700214" lon="11.584862569732259"><ele>507.6</ele><time>2026-03-27T08:17:01.998Z</time></trkpt><trkpt lat="48.181305375230366" lon="11.584871753761185"><ele>508.4</ele><time>2026-03-27T08:17:02.998Z</time></trkpt><trkpt lat="48.18119329870774" lon="11.58488138150341"><ele>509.2</ele><time>2026-03-27T08:17:03.998Z</time></trkpt><trkpt lat="48.18108562583182" lon="11.58489249551586"><ele>510.0</ele><time>2026-03-27T08:17:04.998Z</time></trkpt><trkpt lat="48.18098537943442" lon="11.584899153703509"><ele>510.0</ele><time>2026-03-27T08:17:05.998Z</time></trkpt><trkpt lat="48.18089493565558" lon="11.584906691848877"><ele>510.0</ele><time>2026-03-27T08:17:06.998Z</time></trkpt><trkpt lat="48.180815511961626" lon="11.584911256643851"><ele>510.0</ele><time>2026-03-27T08:17:07.998Z</time></trkpt><trkpt lat="48.18074179244048" lon="11.584917411489688"><ele>510.0</ele><time>2026-03-27T08:17:08.998Z</time></trkpt><trkpt lat="48.18067446778906" lon="11.584921870726474"><ele>510.0</ele><time>2026-03-27T08:17:09.998Z</time></trkpt><trkpt lat="48.18057282145929" lon="11.58493473111029"><ele>510.0</ele><time>2026-03-27T08:17:11.998Z</time></trkpt><trkpt lat="48.18050185186029" lon="11.584942491008164"><ele>509.6666666666667</ele><time>2026-03-27T08:17:13.998Z</time></trkpt><trkpt lat="48.180408390021185" lon="11.584950186492364"><ele>509.33333333333337</ele><time>2026-03-27T08:17:15.998Z</time></trkpt><trkpt lat="48.180292684607316" lon="11.58496169444266"><ele>509.0</ele><time>2026-03-27T08:17:17.997Z</time></trkpt><trkpt lat="48.18022866799097" lon="11.584969643457741"><ele>508.6666666666667</ele><time>2026-03-27T08:17:18.997Z</time></trkpt><trkpt lat="48.18015900018401" lon="11.584975852724744"><ele>508.33333333333337</ele><time>2026-03-27T08:17:19.997Z</time></trkpt><trkpt lat="48.18008298403176" lon="11.584981428963538"><ele>508.0</ele><time>2026-03-27T08:17:20.997Z</time></trkpt><trkpt lat="48.1800031543397" lon="11.584992936844488"><ele>508.00000000000006</ele><time>2026-03-27T08:17:21.997Z</time></trkpt><trkpt lat="48.17992501071624" lon="11.584999979963582"><ele>508.0</ele><time>2026-03-27T08:17:22.997Z</time></trkpt><trkpt lat="48.179847763021094" lon="11.585005219533137"><ele>508.0</ele><time>2026-03-27T08:17:23.997Z</time></trkpt><trkpt lat="48.17976546313062" lon="11.585012731297914"><ele>508.0</ele><time>2026-03-27T08:17:24.997Z</time></trkpt><trkpt lat="48.17967639733606" lon="11.58502270914582"><ele>508.00000000000006</ele><time>2026-03-27T08:17:25.997Z</time></trkpt><trkpt lat="48.17958149515119" lon="11.58503233533728"><ele>508.0</ele><time>2026-03-27T08:17:26.997Z</time></trkpt><trkpt lat="48.1794835609708" lon="11.585039150157854"><ele>507.2</ele><time>2026-03-27T08:17:27.997Z</time></trkpt><trkpt lat="48.179390381877255" lon="11.585048598492428"><ele>506.4</ele><time>2026-03-27T08:17:28.997Z</time></trkpt><trkpt lat="48.17930066743404" lon="11.585054588583414"><ele>505.59999999999997</ele><time>2026-03-27T08:17:29.997Z</time></trkpt><trkpt lat="48.17920981084281" lon="11.585060989984456"><ele>504.79999999999995</ele><time>2026-03-27T08:17:30.997Z</time></trkpt><trkpt lat="48.17911822801684" lon="11.585070846991087"><ele>504.0</ele><time>2026-03-27T08:17:31.997Z</time></trkpt><trkpt lat="48.17902350647928" lon="11.585077022569513"><ele>504.4</ele><time>2026-03-27T08:17:32.997Z</time></trkpt><trkpt lat="48.17892756129226" lon="11.585087374363672"><ele>504.79999999999995</ele><time>2026-03-27T08:17:33.997Z</time></trkpt><trkpt lat="48.17883077360851" lon="11.58509297484263"><ele>505.20000000000005</ele><time>2026-03-27T08:17:34.997Z</time></trkpt><trkpt lat="48.17873395144011" lon="11.585100599580722"><ele>505.6</ele><time>2026-03-27T08:17:35.997Z</time></trkpt><trkpt lat="48.17863624365988" lon="11.585101845051582"><ele>506.0</ele><time>2026-03-27T08:17:36.997Z</time></trkpt><trkpt lat="48.17854545141132" lon="11.585102119556355"><ele>505.99999999999994</ele><time>2026-03-27T08:17:37.997Z</time></trkpt><trkpt lat="48.17845639494645" lon="11.585100923791106"><ele>506.0</ele><time>2026-03-27T08:17:38.997Z</time></trkpt><trkpt lat="48.17836824320783" lon="11.585107173017263"><ele>506.0</ele><time>2026-03-27T08:17:39.997Z</time></trkpt><trkpt lat="48.17827863837558" lon="11.585113100976308"><ele>506.0</ele><time>2026-03-27T08:17:40.997Z</time></trkpt><trkpt lat="48.178186603675755" lon="11.585121975615275"><ele>505.99999999999994</ele><time>2026-03-27T08:17:41.997Z</time></trkpt><trkpt lat="48.178106992213266" lon="11.585131566282211"><ele>506.0</ele><time>2026-03-27T08:17:42.997Z</time></trkpt><trkpt lat="48.178039773480734" lon="11.585134999935002"><ele>506.0</ele><time>2026-03-27T08:17:43.997Z</time></trkpt><trkpt lat="48.17792526349528" lon="11.585134559635282"><ele>506.0</ele><time>2026-03-27T08:17:45.997Z</time></trkpt><trkpt lat="48.17781663510526" lon="11.585118298044367"><ele>506.0</ele><time>2026-03-27T08:17:47.997Z</time></trkpt><trkpt lat="48.17773033790148" lon="11.58506597589968"><ele>506.0</ele><time>2026-03-27T08:17:49.997Z</time></trkpt><trkpt lat="48.177687321244136" lon="11.584897985037118"><ele>506.0</ele><time>2026-03-27T08:17:51.997Z</time></trkpt><trkpt lat="48.1776799269635" lon="11.58477925790987"><ele>506.00000000000006</ele><time>2026-03-27T08:17:52.997Z</time></trkpt><trkpt lat="48.17767642599695" lon="11.58467471335773"><ele>506.0</ele><time>2026-03-27T08:17:53.997Z</time></trkpt><trkpt lat="48.17767572996886" lon="11.584575657035733"><ele>506.00000000000006</ele><time>2026-03-27T08:17:54.997Z</time></trkpt><trkpt lat="48.17767441649915" lon="11.584468354355069"><ele>506.00000000000006</ele><time>2026-03-27T08:17:55.997Z</time></trkpt><trkpt lat="48.17767247378293" lon="11.584358179078025"><ele>506.0</ele><time>2026-03-27T08:17:56.997Z</time></trkpt><trkpt lat="48.17766916759547" lon="11.584241946506856"><ele>506.00000000000006</ele><time>2026-03-27T08:17:57.997Z</time></trkpt><trkpt lat="48.1776665492728" lon="11.584110484612557"><ele>506.00000000000006</ele><time>2026-03-27T08:17:58.997Z</time></trkpt><trkpt lat="48.17766413317838" lon="11.583969748264968"><ele>506.0</ele><time>2026-03-27T08:17:59.997Z</time></trkpt><trkpt lat="48.17766124021168" lon="11.583821369106348"><ele>506.0</ele><time>2026-03-27T08:18:00.997Z</time></trkpt><trkpt lat="48.177657681578225" lon="11.58366311385117"><ele>506.0</ele><time>2026-03-27T08:18:01.997Z</time></trkpt><trkpt lat="48.17765382744478" lon="11.583496147170464"><ele>506.0</ele><time>2026-03-27T08:18:02.997Z</time></trkpt><trkpt lat="48.1776502414135" lon="11.583327489941347"><ele>506.0</ele><time>2026-03-27T08:18:03.997Z</time></trkpt><trkpt lat="48.1776440507958" lon="11.583151082074664"><ele>505.75</ele><time>2026-03-27T08:18:04.997Z</time></trkpt><trkpt lat="48.17763799249324" lon="11.582966477948986"><ele>505.5</ele><time>2026-03-27T08:18:05.997Z</time></trkpt><trkpt lat="48.177631127263616" lon="11.582779528911201"><ele>505.25</ele><time>2026-03-27T08:18:06.997Z</time></trkpt><trkpt lat="48.177624133638965" lon="11.582596310848704"><ele>505.0</ele><time>2026-03-27T08:18:07.997Z</time></trkpt><trkpt lat="48.177620453688945" lon="11.582423532722167"><ele>505.75</ele><time>2026-03-27T08:18:08.997Z</time></trkpt><trkpt lat="48.17761909599632" lon="11.582249438093697"><ele>506.5</ele><time>2026-03-27T08:18:09.997Z</time></trkpt><trkpt lat="48.17761878710436" lon="11.582063132666441"><ele>507.25</ele><time>2026-03-27T08:18:10.997Z</time></trkpt><trkpt lat="48.17762186981179" lon="11.581867272882532"><ele>508.0</ele><time>2026-03-27T08:18:11.997Z</time></trkpt><trkpt lat="48.17760905497106" lon="11.581655290908605"><ele>508.0</ele><time>2026-03-27T08:18:13.065Z</time></trkpt><trkpt lat="48.17761025628691" lon="11.581467482366595"><ele>508.0</ele><time>2026-03-27T08:18:14.061Z</time></trkpt><trkpt lat="48.17759893614924" lon="11.581306327056078"><ele>508.0</ele><time>2026-03-27T08:18:15.061Z</time></trkpt><trkpt lat="48.177641290655316" lon="11.581134419668546"><ele>508.0</ele><time>2026-03-27T08:18:16.054Z</time></trkpt><trkpt lat="48.17764227445247" lon="11.580969150073805"><ele>506.0</ele><time>2026-03-27T08:18:17.039Z</time></trkpt><trkpt lat="48.17786362295922" lon="11.577667853082572"><ele>510.0</ele><time>2026-03-27T08:18:21.969Z</time></trkpt><trkpt lat="48.17643524248811" lon="11.566936398911409"><ele>510.0</ele><time>2026-03-27T08:19:32.478Z</time></trkpt><trkpt lat="48.17645734839971" lon="11.566846125705059"><ele>510.0</ele><time>2026-03-27T08:19:34.255Z</time></trkpt><trkpt lat="48.176400422081066" lon="11.566536795719669"><ele>510.0</ele><time>2026-03-27T08:19:34.996Z</time></trkpt><trkpt lat="48.17635177034642" lon="11.566383833279463"><ele>510.0</ele><time>2026-03-27T08:19:35.996Z</time></trkpt><trkpt lat="48.17630072897732" lon="11.56625425520557"><ele>510.75</ele><time>2026-03-27T08:19:36.996Z</time></trkpt><trkpt lat="48.17625552510855" lon="11.566100235608172"><ele>511.5</ele><time>2026-03-27T08:19:37.996Z</time></trkpt><trkpt lat="48.17621793110653" lon="11.565950450198386"><ele>512.25</ele><time>2026-03-27T08:19:38.998Z</time></trkpt><trkpt lat="48.176172890988305" lon="11.565765229244299"><ele>513.0</ele><time>2026-03-27T08:19:39.998Z</time></trkpt><trkpt lat="48.176137945346234" lon="11.565580440537179"><ele>513.0</ele><time>2026-03-27T08:19:40.998Z</time></trkpt><trkpt lat="48.17610559611127" lon="11.565398221417146"><ele>513.0</ele><time>2026-03-27T08:19:41.998Z</time></trkpt><trkpt lat="48.17608112013996" lon="11.56520665682501"><ele>513.0</ele><time>2026-03-27T08:19:42.998Z</time></trkpt><trkpt lat="48.17605795313006" lon="11.56501064371657"><ele>513.0</ele><time>2026-03-27T08:19:43.998Z</time></trkpt><trkpt lat="48.17604476400038" lon="11.564807769250846"><ele>513.5</ele><time>2026-03-27T08:19:44.999Z</time></trkpt><trkpt lat="48.17603842740967" lon="11.5646053543102"><ele>514.0</ele><time>2026-03-27T08:19:45.999Z</time></trkpt><trkpt lat="48.17603723078192" lon="11.564411168522637"><ele>514.5</ele><time>2026-03-27T08:19:46.999Z</time></trkpt><trkpt lat="48.17604144955453" lon="11.564214808243479"><ele>515.0</ele><time>2026-03-27T08:19:47.999Z</time></trkpt><trkpt lat="48.17604754975248" lon="11.564007928182772"><ele>515.0</ele><time>2026-03-27T08:19:48.999Z</time></trkpt><trkpt lat="48.17605342859842" lon="11.563784905072914"><ele>515.0</ele><time>2026-03-27T08:19:49.999Z</time></trkpt><trkpt lat="48.17605825129927" lon="11.563567622078851"><ele>515.0</ele><time>2026-03-27T08:19:50.999Z</time></trkpt><trkpt lat="48.17607103041993" lon="11.563363362458878"><ele>515.0</ele><time>2026-03-27T08:19:51.999Z</time></trkpt><trkpt lat="48.17608454680991" lon="11.56316786531489"><ele>514.5</ele><time>2026-03-27T08:19:52.999Z</time></trkpt><trkpt lat="48.176088613515944" lon="11.562967107049625"><ele>514.0</ele><time>2026-03-27T08:19:53.999Z</time></trkpt><trkpt lat="48.17608496505523" lon="11.562770949136855"><ele>513.5</ele><time>2026-03-27T08:19:54.999Z</time></trkpt><trkpt lat="48.17609108596583" lon="11.562586459582526"><ele>513.0</ele><time>2026-03-27T08:19:55.999Z</time></trkpt><trkpt lat="48.17609756842935" lon="11.562413418815868"><ele>513.0</ele><time>2026-03-27T08:19:56.999Z</time></trkpt><trkpt lat="48.17610420361207" lon="11.562228675717138"><ele>513.0</ele><time>2026-03-27T08:19:57.999Z</time></trkpt><trkpt lat="48.17609330879881" lon="11.562049304024454"><ele>513.0</ele><time>2026-03-27T08:19:58.999Z</time></trkpt><trkpt lat="48.176096561670796" lon="11.56186942736148"><ele>513.0</ele><time>2026-03-27T08:19:59.999Z</time></trkpt><trkpt lat="48.176100704837644" lon="11.561688635078752"><ele>513.5</ele><time>2026-03-27T08:20:00.999Z</time></trkpt><trkpt lat="48.17610561321276" lon="11.561504442285937"><ele>514.0</ele><time>2026-03-27T08:20:01.999Z</time></trkpt><trkpt lat="48.1761098409581" lon="11.561319858385474"><ele>514.5</ele><time>2026-03-27T08:20:02.999Z</time></trkpt><trkpt lat="48.1761119101184" lon="11.561136885747976"><ele>515.0</ele><time>2026-03-27T08:20:03.999Z</time></trkpt><trkpt lat="48.17611432459746" lon="11.560955050148548"><ele>515.0</ele><time>2026-03-27T08:20:04.999Z</time></trkpt><trkpt lat="48.1761179382947" lon="11.560763877194635"><ele>515.0</ele><time>2026-03-27T08:20:05.999Z</time></trkpt><trkpt lat="48.176119864618904" lon="11.560554540093575"><ele>515.0</ele><time>2026-03-27T08:20:06.999Z</time></trkpt><trkpt lat="48.176122838461346" lon="11.560344238627055"><ele>515.0</ele><time>2026-03-27T08:20:07.999Z</time></trkpt><trkpt lat="48.17612614120072" lon="11.560139216531166"><ele>514.5</ele><time>2026-03-27T08:20:08.999Z</time></trkpt><trkpt lat="48.176130582140516" lon="11.559938484712658"><ele>514.0</ele><time>2026-03-27T08:20:09.999Z</time></trkpt><trkpt lat="48.176136726437406" lon="11.559734007236226"><ele>513.5</ele><time>2026-03-27T08:20:11Z</time></trkpt><trkpt lat="48.17613922851376" lon="11.55952859655014"><ele>513.0</ele><time>2026-03-27T08:20:12Z</time></trkpt><trkpt lat="48.17614457396092" lon="11.559326802493036"><ele>512.5</ele><time>2026-03-27T08:20:13Z</time></trkpt><trkpt lat="48.17614849883925" lon="11.559129612649256"><ele>512.0</ele><time>2026-03-27T08:20:14Z</time></trkpt><trkpt lat="48.17615041903397" lon="11.558933057636343"><ele>511.5</ele><time>2026-03-27T08:20:15Z</time></trkpt><trkpt lat="48.176154960674346" lon="11.55874710284226"><ele>511.0</ele><time>2026-03-27T08:20:16Z</time></trkpt><trkpt lat="48.17615393547395" lon="11.55857290232063"><ele>510.75</ele><time>2026-03-27T08:20:17Z</time></trkpt><trkpt lat="48.17615458913761" lon="11.558398267839163"><ele>510.5</ele><time>2026-03-27T08:20:18Z</time></trkpt><trkpt lat="48.17615399367081" lon="11.558244414289316"><ele>510.25</ele><time>2026-03-27T08:20:19Z</time></trkpt><trkpt lat="48.176164950140226" lon="11.55807611441893"><ele>510.0</ele><time>2026-03-27T08:20:20Z</time></trkpt><trkpt lat="48.176178555030994" lon="11.55785893823818"><ele>509.0</ele><time>2026-03-27T08:20:20.999Z</time></trkpt><trkpt lat="48.17616661165204" lon="11.557635016172776"><ele>508.0</ele><time>2026-03-27T08:20:21.999Z</time></trkpt><trkpt lat="48.176165962944104" lon="11.557492681918413"><ele>507.0</ele><time>2026-03-27T08:20:22.999Z</time></trkpt><trkpt lat="48.176169076453895" lon="11.55732449714215"><ele>506.0</ele><time>2026-03-27T08:20:23.999Z</time></trkpt><trkpt lat="48.17617029125913" lon="11.55715162926579"><ele>505.8</ele><time>2026-03-27T08:20:24.999Z</time></trkpt><trkpt lat="48.17617100940169" lon="11.556986369753679"><ele>505.6</ele><time>2026-03-27T08:20:25.999Z</time></trkpt><trkpt lat="48.17617247713897" lon="11.556828673280801"><ele>505.4</ele><time>2026-03-27T08:20:26.999Z</time></trkpt><trkpt lat="48.17617307555859" lon="11.556668564247271"><ele>505.2</ele><time>2026-03-27T08:20:27.999Z</time></trkpt><trkpt lat="48.17617574439245" lon="11.556508718378632"><ele>505.0</ele><time>2026-03-27T08:20:28.999Z</time></trkpt><trkpt lat="48.176177810490394" lon="11.556346107222934"><ele>504.4</ele><time>2026-03-27T08:20:29.999Z</time></trkpt><trkpt lat="48.17618205229885" lon="11.556184545242962"><ele>503.8</ele><time>2026-03-27T08:20:30.999Z</time></trkpt><trkpt lat="48.176183926589324" lon="11.556021984529396"><ele>503.20000000000005</ele><time>2026-03-27T08:20:31.999Z</time></trkpt><trkpt lat="48.17618721451174" lon="11.555859020719215"><ele>502.6</ele><time>2026-03-27T08:20:32.999Z</time></trkpt><trkpt lat="48.176188583611015" lon="11.555681287985058"><ele>502.0</ele><time>2026-03-27T08:20:33.999Z</time></trkpt><trkpt lat="48.176191207126124" lon="11.555491022332573"><ele>501.5</ele><time>2026-03-27T08:20:34.999Z</time></trkpt><trkpt lat="48.176192286430926" lon="11.555318627972476"><ele>501.0</ele><time>2026-03-27T08:20:35.999Z</time></trkpt><trkpt lat="48.1761939199441" lon="11.555138822806617"><ele>500.5</ele><time>2026-03-27T08:20:36.999Z</time></trkpt><trkpt lat="48.17619571868767" lon="11.554939621893118"><ele>500.0</ele><time>2026-03-27T08:20:37.999Z</time></trkpt><trkpt lat="48.176197629384966" lon="11.554732872677292"><ele>501.5</ele><time>2026-03-27T08:20:38.999Z</time></trkpt><trkpt lat="48.176201188243795" lon="11.554529550169727"><ele>503.0</ele><time>2026-03-27T08:20:39.999Z</time></trkpt><trkpt lat="48.17619935254549" lon="11.554333998501965"><ele>504.5</ele><time>2026-03-27T08:20:40.999Z</time></trkpt><trkpt lat="48.17620424791029" lon="11.554148886033765"><ele>506.0</ele><time>2026-03-27T08:20:41.999Z</time></trkpt><trkpt lat="48.176213343123585" lon="11.55395015022259"><ele>506.0</ele><time>2026-03-27T08:20:42.999Z</time></trkpt><trkpt lat="48.17622599493186" lon="11.553743384405756"><ele>506.0</ele><time>2026-03-27T08:20:43.999Z</time></trkpt><trkpt lat="48.17624412007025" lon="11.55354245003354"><ele>506.0</ele><time>2026-03-27T08:20:44.999Z</time></trkpt><trkpt lat="48.17624216568548" lon="11.553334665500346"><ele>506.0</ele><time>2026-03-27T08:20:45.999Z</time></trkpt><trkpt lat="48.17625933432499" lon="11.553132010457016"><ele>507.25</ele><time>2026-03-27T08:20:46.999Z</time></trkpt><trkpt lat="48.17627130680396" lon="11.552906753257767"><ele>508.5</ele><time>2026-03-27T08:20:47.999Z</time></trkpt><trkpt lat="48.1762783370827" lon="11.552706030706885"><ele>509.75</ele><time>2026-03-27T08:20:48.999Z</time></trkpt><trkpt lat="48.176282581912716" lon="11.552499838174652"><ele>511.0</ele><time>2026-03-27T08:20:49.999Z</time></trkpt><trkpt lat="48.17627941148391" lon="11.552289963438028"><ele>511.0</ele><time>2026-03-27T08:20:50.999Z</time></trkpt><trkpt lat="48.17627739671108" lon="11.552064099010899"><ele>511.0</ele><time>2026-03-27T08:20:51.999Z</time></trkpt><trkpt lat="48.17628195057952" lon="11.551847277293929"><ele>511.0</ele><time>2026-03-27T08:20:52.999Z</time></trkpt><trkpt lat="48.17628419733211" lon="11.551650374691864"><ele>511.0</ele><time>2026-03-27T08:20:53.999Z</time></trkpt><trkpt lat="48.176286100092504" lon="11.55145972579333"><ele>510.5</ele><time>2026-03-27T08:20:54.999Z</time></trkpt><trkpt lat="48.176287653646476" lon="11.551261871970683"><ele>510.0</ele><time>2026-03-27T08:20:55.999Z</time></trkpt><trkpt lat="48.1762895587481" lon="11.551060108307455"><ele>509.5</ele><time>2026-03-27T08:20:56.999Z</time></trkpt><trkpt lat="48.17629106531011" lon="11.550859372150965"><ele>509.0</ele><time>2026-03-27T08:20:57.999Z</time></trkpt><trkpt lat="48.17629314240601" lon="11.550655561119129"><ele>509.0</ele><time>2026-03-27T08:20:58.999Z</time></trkpt><trkpt lat="48.17629514544855" lon="11.550451862960422"><ele>509.0</ele><time>2026-03-27T08:20:59.999Z</time></trkpt><trkpt lat="48.17629748544771" lon="11.550251919428666"><ele>509.0</ele><time>2026-03-27T08:21:00.999Z</time></trkpt><trkpt lat="48.176299264895974" lon="11.550052131175397"><ele>509.0</ele><time>2026-03-27T08:21:01.999Z</time></trkpt><trkpt lat="48.176301927649284" lon="11.54985527524138"><ele>509.75</ele><time>2026-03-27T08:21:02.999Z</time></trkpt><trkpt lat="48.176306037471804" lon="11.549659574905997"><ele>510.5</ele><time>2026-03-27T08:21:03.999Z</time></trkpt><trkpt lat="48.17631028264705" lon="11.549467101300696"><ele>511.25</ele><time>2026-03-27T08:21:04.999Z</time></trkpt><trkpt lat="48.17631197506803" lon="11.549270208832539"><ele>512.0</ele><time>2026-03-27T08:21:05.999Z</time></trkpt><trkpt lat="48.176310329313864" lon="11.5490651927423"><ele>512.25</ele><time>2026-03-27T08:21:06.999Z</time></trkpt><trkpt lat="48.176311708373994" lon="11.54885560347584"><ele>512.5</ele><time>2026-03-27T08:21:07.999Z</time></trkpt><trkpt lat="48.17631359007949" lon="11.548649989529098"><ele>512.75</ele><time>2026-03-27T08:21:08.999Z</time></trkpt><trkpt lat="48.176317073747065" lon="11.54844745562865"><ele>513.0</ele><time>2026-03-27T08:21:09.999Z</time></trkpt><trkpt lat="48.17631693588687" lon="11.548248306689697"><ele>513.25</ele><time>2026-03-27T08:21:10.999Z</time></trkpt><trkpt lat="48.176318841958754" lon="11.548052685819124"><ele>513.5</ele><time>2026-03-27T08:21:11.999Z</time></trkpt><trkpt lat="48.17632151226564" lon="11.547859600574636"><ele>513.75</ele><time>2026-03-27T08:21:12.999Z</time></trkpt><trkpt lat="48.17632258119891" lon="11.547662470690645"><ele>514.0</ele><time>2026-03-27T08:21:13.999Z</time></trkpt><trkpt lat="48.1763217702418" lon="11.547456866601912"><ele>512.0</ele><time>2026-03-27T08:21:14.999Z</time></trkpt><trkpt lat="48.176327754177294" lon="11.547259173276462"><ele>510.0</ele><time>2026-03-27T08:21:15.999Z</time></trkpt><trkpt lat="48.17632804401629" lon="11.547056220151228"><ele>508.0</ele><time>2026-03-27T08:21:16.999Z</time></trkpt><trkpt lat="48.17632832077174" lon="11.546848763046185"><ele>506.0</ele><time>2026-03-27T08:21:17.999Z</time></trkpt><trkpt lat="48.17632995400661" lon="11.546638115547815"><ele>506.0</ele><time>2026-03-27T08:21:18.999Z</time></trkpt><trkpt lat="48.176331607254994" lon="11.546434497189226"><ele>506.0</ele><time>2026-03-27T08:21:19.999Z</time></trkpt><trkpt lat="48.176335452713886" lon="11.546235188595054"><ele>506.0</ele><time>2026-03-27T08:21:20.999Z</time></trkpt><trkpt lat="48.17634015526239" lon="11.546033478977412"><ele>506.0</ele><time>2026-03-27T08:21:21.999Z</time></trkpt><trkpt lat="48.17634600584788" lon="11.54582332494047"><ele>506.0</ele><time>2026-03-27T08:21:22.999Z</time></trkpt><trkpt lat="48.1763571186206" lon="11.545611555417212"><ele>506.0</ele><time>2026-03-27T08:21:23.999Z</time></trkpt><trkpt lat="48.176368961590036" lon="11.545408444664602"><ele>506.0</ele><time>2026-03-27T08:21:24.999Z</time></trkpt><trkpt lat="48.17638229616446" lon="11.545208835916226"><ele>506.0</ele><time>2026-03-27T08:21:25.999Z</time></trkpt><trkpt lat="48.17639925746683" lon="11.54500608115945"><ele>506.5</ele><time>2026-03-27T08:21:26.999Z</time></trkpt><trkpt lat="48.17641617368836" lon="11.544807600239668"><ele>507.0</ele><time>2026-03-27T08:21:27.999Z</time></trkpt><trkpt lat="48.17643047992809" lon="11.544613223461518"><ele>507.5</ele><time>2026-03-27T08:21:28.999Z</time></trkpt><trkpt lat="48.17644402107797" lon="11.544425251304517"><ele>508.0</ele><time>2026-03-27T08:21:29.999Z</time></trkpt><trkpt lat="48.176458623262846" lon="11.54424217203262"><ele>508.0</ele><time>2026-03-27T08:21:30.999Z</time></trkpt><trkpt lat="48.17647496529326" lon="11.544054049828166"><ele>508.0</ele><time>2026-03-27T08:21:31.999Z</time></trkpt><trkpt lat="48.17649076875099" lon="11.543867936142862"><ele>508.0</ele><time>2026-03-27T08:21:32.999Z</time></trkpt><trkpt lat="48.1765039381228" lon="11.54368675458099"><ele>508.0</ele><time>2026-03-27T08:21:33.999Z</time></trkpt><trkpt lat="48.17651762002123" lon="11.543509957291318"><ele>507.75</ele><time>2026-03-27T08:21:34.999Z</time></trkpt><trkpt lat="48.17653002006995" lon="11.543327939944122"><ele>507.5</ele><time>2026-03-27T08:21:35.999Z</time></trkpt><trkpt lat="48.17654287928989" lon="11.543141658292916"><ele>507.25</ele><time>2026-03-27T08:21:36.999Z</time></trkpt><trkpt lat="48.176555264355294" lon="11.542954864138444"><ele>507.0</ele><time>2026-03-27T08:21:37.999Z</time></trkpt><trkpt lat="48.17656763710965" lon="11.542777330940643"><ele>508.25</ele><time>2026-03-27T08:21:38.999Z</time></trkpt><trkpt lat="48.17657843865421" lon="11.542594428191624"><ele>509.5</ele><time>2026-03-27T08:21:39.999Z</time></trkpt><trkpt lat="48.176585136722004" lon="11.542410297169452"><ele>510.75</ele><time>2026-03-27T08:21:40.999Z</time></trkpt><trkpt lat="48.176589684175575" lon="11.542222821901738"><ele>512.0</ele><time>2026-03-27T08:21:41.999Z</time></trkpt><trkpt lat="48.17658823628094" lon="11.542028807082568"><ele>512.25</ele><time>2026-03-27T08:21:42.999Z</time></trkpt><trkpt lat="48.17658015051928" lon="11.541836129141203"><ele>512.5</ele><time>2026-03-27T08:21:44Z</time></trkpt><trkpt lat="48.17656597867284" lon="11.541649335012087"><ele>512.75</ele><time>2026-03-27T08:21:45Z</time></trkpt><trkpt lat="48.17654461845297" lon="11.541477501171913"><ele>513.0</ele><time>2026-03-27T08:21:46Z</time></trkpt><trkpt lat="48.17651843628082" lon="11.541317703831687"><ele>512.4</ele><time>2026-03-27T08:21:47Z</time></trkpt><trkpt lat="48.17648988568502" lon="11.541171638564672"><ele>511.79999999999995</ele><time>2026-03-27T08:21:48Z</time></trkpt><trkpt lat="48.17645693123053" lon="11.541029777164061"><ele>511.2</ele><time>2026-03-27T08:21:49Z</time></trkpt><trkpt lat="48.17642058011339" lon="11.540890058856677"><ele>510.6</ele><time>2026-03-27T08:21:50Z</time></trkpt><trkpt lat="48.17637507217071" lon="11.540746828765139"><ele>510.0</ele><time>2026-03-27T08:21:51Z</time></trkpt><trkpt lat="48.17632382938173" lon="11.540600224563239"><ele>510.0</ele><time>2026-03-27T08:21:52Z</time></trkpt><trkpt lat="48.17626683455322" lon="11.540459852826444"><ele>510.0</ele><time>2026-03-27T08:21:53Z</time></trkpt><trkpt lat="48.17620501118505" lon="11.54032157315909"><ele>510.0</ele><time>2026-03-27T08:21:54Z</time></trkpt><trkpt lat="48.17613724090964" lon="11.540183679836376"><ele>510.0</ele><time>2026-03-27T08:21:55Z</time></trkpt><trkpt lat="48.17606345728559" lon="11.540051333735786"><ele>510.0</ele><time>2026-03-27T08:21:56Z</time></trkpt><trkpt lat="48.17598049396686" lon="11.539922667964422"><ele>510.0</ele><time>2026-03-27T08:21:57Z</time></trkpt><trkpt lat="48.1758919668728" lon="11.539802333597985"><ele>510.0</ele><time>2026-03-27T08:21:58Z</time></trkpt><trkpt lat="48.17580625890352" lon="11.539694237734668"><ele>510.0</ele><time>2026-03-27T08:21:59Z</time></trkpt><trkpt lat="48.17571768401787" lon="11.539594987067996"><ele>511.75</ele><time>2026-03-27T08:22:00Z</time></trkpt><trkpt lat="48.17562598708475" lon="11.539503020458826"><ele>513.5</ele><time>2026-03-27T08:22:01Z</time></trkpt><trkpt lat="48.17552794855404" lon="11.539414933749596"><ele>515.25</ele><time>2026-03-27T08:22:02Z</time></trkpt><trkpt lat="48.17542776480768" lon="11.53933630072564"><ele>517.0</ele><time>2026-03-27T08:22:03Z</time></trkpt><trkpt lat="48.17532311616466" lon="11.539267263314999"><ele>517.0</ele><time>2026-03-27T08:22:04Z</time></trkpt><trkpt lat="48.17521691770629" lon="11.539203323266634"><ele>517.0</ele><time>2026-03-27T08:22:05Z</time></trkpt><trkpt lat="48.17510672035516" lon="11.539150647378952"><ele>517.0</ele><time>2026-03-27T08:22:06Z</time></trkpt><trkpt lat="48.17499241340871" lon="11.539107342273638"><ele>517.0</ele><time>2026-03-27T08:22:07Z</time></trkpt><trkpt lat="48.17488129527895" lon="11.53907167497199"><ele>517.4</ele><time>2026-03-27T08:22:08Z</time></trkpt><trkpt lat="48.17477330484874" lon="11.539051065830115"><ele>517.8000000000001</ele><time>2026-03-27T08:22:09Z</time></trkpt><trkpt lat="48.174665935110895" lon="11.539025531065692"><ele>518.2</ele><time>2026-03-27T08:22:10Z</time></trkpt><trkpt lat="48.174560793443646" lon="11.539004601948658"><ele>518.6</ele><time>2026-03-27T08:22:11Z</time></trkpt><trkpt lat="48.1744544347348" lon="11.538987121003279"><ele>519.0</ele><time>2026-03-27T08:22:12Z</time></trkpt><trkpt lat="48.17433520175377" lon="11.538968213991998"><ele>519.0</ele><time>2026-03-27T08:22:13Z</time></trkpt><trkpt lat="48.17421849856402" lon="11.538951145408857"><ele>519.0</ele><time>2026-03-27T08:22:14Z</time></trkpt><trkpt lat="48.17410985476463" lon="11.538936716777055"><ele>519.0</ele><time>2026-03-27T08:22:15Z</time></trkpt><trkpt lat="48.17400138341989" lon="11.538923527629732"><ele>519.0</ele><time>2026-03-27T08:22:16Z</time></trkpt><trkpt lat="48.17389241091387" lon="11.538909338947205"><ele>519.0</ele><time>2026-03-27T08:22:17Z</time></trkpt><trkpt lat="48.173785332218905" lon="11.538894002854077"><ele>518.6</ele><time>2026-03-27T08:22:18Z</time></trkpt><trkpt lat="48.17368043410811" lon="11.53888022568955"><ele>518.2</ele><time>2026-03-27T08:22:19Z</time></trkpt><trkpt lat="48.17357642831256" lon="11.538869732853911"><ele>517.8000000000001</ele><time>2026-03-27T08:22:20Z</time></trkpt><trkpt lat="48.1734745753067" lon="11.538858506538745"><ele>517.4</ele><time>2026-03-27T08:22:21Z</time></trkpt><trkpt lat="48.17337650127909" lon="11.538846164607925"><ele>517.0</ele><time>2026-03-27T08:22:22Z</time></trkpt><trkpt lat="48.17328334984192" lon="11.538837322378672"><ele>516.2</ele><time>2026-03-27T08:22:23Z</time></trkpt><trkpt lat="48.17318855619677" lon="11.538832126399829"><ele>515.4000000000001</ele><time>2026-03-27T08:22:24Z</time></trkpt><trkpt lat="48.17309024975695" lon="11.538828735004055"><ele>514.5999999999999</ele><time>2026-03-27T08:22:25Z</time></trkpt><trkpt lat="48.17298929736384" lon="11.538822063642572"><ele>513.8</ele><time>2026-03-27T08:22:26Z</time></trkpt><trkpt lat="48.17288626431936" lon="11.53881428898563"><ele>513.0</ele><time>2026-03-27T08:22:27Z</time></trkpt><trkpt lat="48.17278281485548" lon="11.538805878264839"><ele>513.0</ele><time>2026-03-27T08:22:28Z</time></trkpt><trkpt lat="48.1726784393734" lon="11.53878984540652"><ele>513.0</ele><time>2026-03-27T08:22:29Z</time></trkpt><trkpt lat="48.172575774223695" lon="11.538773532920231"><ele>513.0</ele><time>2026-03-27T08:22:30Z</time></trkpt><trkpt lat="48.17247455176839" lon="11.538757210258096"><ele>513.0</ele><time>2026-03-27T08:22:31Z</time></trkpt><trkpt lat="48.172369513715836" lon="11.53873918033165"><ele>513.0</ele><time>2026-03-27T08:22:32Z</time></trkpt><trkpt lat="48.172261831484604" lon="11.538715807374293"><ele>512.8</ele><time>2026-03-27T08:22:33Z</time></trkpt><trkpt lat="48.17215169236893" lon="11.538690134404902"><ele>512.5999999999999</ele><time>2026-03-27T08:22:34Z</time></trkpt><trkpt lat="48.17204793087976" lon="11.538664724866889"><ele>512.4000000000001</ele><time>2026-03-27T08:22:35Z</time></trkpt><trkpt lat="48.1719525893617" lon="11.53864001950043"><ele>512.2</ele><time>2026-03-27T08:22:36Z</time></trkpt><trkpt lat="48.17185601822473" lon="11.53860967126935"><ele>512.0</ele><time>2026-03-27T08:22:37Z</time></trkpt><trkpt lat="48.17175306195706" lon="11.538575935274554"><ele>512.0</ele><time>2026-03-27T08:22:37.999Z</time></trkpt><trkpt lat="48.171643269420954" lon="11.538542433819584"><ele>512.0</ele><time>2026-03-27T08:22:38.999Z</time></trkpt><trkpt lat="48.17153081425719" lon="11.538509334384505"><ele>512.0</ele><time>2026-03-27T08:22:39.999Z</time></trkpt><trkpt lat="48.17142538752954" lon="11.538477741771938"><ele>512.0</ele><time>2026-03-27T08:22:40.999Z</time></trkpt><trkpt lat="48.17132838779519" lon="11.538447789248522"><ele>512.0</ele><time>2026-03-27T08:22:41.999Z</time></trkpt><trkpt lat="48.171228591954105" lon="11.538422497254079"><ele>511.66666666666663</ele><time>2026-03-27T08:22:42.999Z</time></trkpt><trkpt lat="48.17112454261813" lon="11.538395788609254"><ele>511.3333333333333</ele><time>2026-03-27T08:22:43.999Z</time></trkpt><trkpt lat="48.17103224876668" lon="11.538370921897416"><ele>511.0</ele><time>2026-03-27T08:22:44.999Z</time></trkpt><trkpt lat="48.17095069599229" lon="11.538351012455506"><ele>510.66666666666663</ele><time>2026-03-27T08:22:45.999Z</time></trkpt><trkpt lat="48.17087702243383" lon="11.538337173740079"><ele>510.3333333333333</ele><time>2026-03-27T08:22:46.999Z</time></trkpt><trkpt lat="48.170806907740264" lon="11.538325359315719"><ele>510.0</ele><time>2026-03-27T08:22:47.999Z</time></trkpt><trkpt lat="48.170734261317556" lon="11.538315935461656"><ele>510.42857142857144</ele><time>2026-03-27T08:22:48.999Z</time></trkpt><trkpt lat="48.170659734781076" lon="11.538302869027"><ele>510.8571428571429</ele><time>2026-03-27T08:22:49.999Z</time></trkpt><trkpt lat="48.17058890399021" lon="11.538287562447723"><ele>511.28571428571433</ele><time>2026-03-27T08:22:50.999Z</time></trkpt><trkpt lat="48.170519415380554" lon="11.53827314090798"><ele>511.7142857142858</ele><time>2026-03-27T08:22:51.999Z</time></trkpt><trkpt lat="48.17045104899419" lon="11.538261396883081"><ele>512.1428571428571</ele><time>2026-03-27T08:22:52.999Z</time></trkpt><trkpt lat="48.17038204602941" lon="11.538250397503358"><ele>512.5714285714287</ele><time>2026-03-27T08:22:53.999Z</time></trkpt><trkpt lat="48.17031159093651" lon="11.538239378795828"><ele>513.0</ele><time>2026-03-27T08:22:54.999Z</time></trkpt><trkpt lat="48.17023812463738" lon="11.538227752657237"><ele>513.0000000000001</ele><time>2026-03-27T08:22:55.999Z</time></trkpt><trkpt lat="48.17016013965373" lon="11.53821584458915"><ele>513.0</ele><time>2026-03-27T08:22:56.999Z</time></trkpt><trkpt lat="48.1700879696627" lon="11.53820427576431"><ele>513.0</ele><time>2026-03-27T08:22:57.999Z</time></trkpt><trkpt lat="48.17001235831166" lon="11.538192023875128"><ele>513.0</ele><time>2026-03-27T08:22:58.999Z</time></trkpt><trkpt lat="48.169935588717365" lon="11.538178522004836"><ele>513.0</ele><time>2026-03-27T08:22:59.999Z</time></trkpt><trkpt lat="48.169860867047426" lon="11.538164938371015"><ele>513.0000000000001</ele><time>2026-03-27T08:23:00.999Z</time></trkpt><trkpt lat="48.16979480113115" lon="11.538152060883311"><ele>513.0</ele><time>2026-03-27T08:23:01.999Z</time></trkpt><trkpt lat="48.16973158611948" lon="11.538142559757857"><ele>513.7142857142858</ele><time>2026-03-27T08:23:02.999Z</time></trkpt><trkpt lat="48.169668699428044" lon="11.53813443283626"><ele>514.4285714285714</ele><time>2026-03-27T08:23:03.999Z</time></trkpt><trkpt lat="48.169599365262194" lon="11.538122728811627"><ele>515.1428571428571</ele><time>2026-03-27T08:23:04.999Z</time></trkpt><trkpt lat="48.16952292154703" lon="11.538109652735498"><ele>515.8571428571429</ele><time>2026-03-27T08:23:05.999Z</time></trkpt><trkpt lat="48.16944660397989" lon="11.538094518819253"><ele>516.5714285714286</ele><time>2026-03-27T08:23:06.999Z</time></trkpt><trkpt lat="48.16937551991074" lon="11.538080852511266"><ele>517.2857142857143</ele><time>2026-03-27T08:23:07.999Z</time></trkpt><trkpt lat="48.16930404157547" lon="11.538067544591948"><ele>518.0</ele><time>2026-03-27T08:23:08.999Z</time></trkpt><trkpt lat="48.16923077206451" lon="11.538052007304515"><ele>518.0</ele><time>2026-03-27T08:23:09.999Z</time></trkpt><trkpt lat="48.16915551703401" lon="11.538035366842482"><ele>518.0</ele><time>2026-03-27T08:23:10.999Z</time></trkpt><trkpt lat="48.169078951257895" lon="11.538019073135665"><ele>518.0</ele><time>2026-03-27T08:23:11.999Z</time></trkpt><trkpt lat="48.1690019712547" lon="11.538001428109453"><ele>518.0</ele><time>2026-03-27T08:23:12.999Z</time></trkpt><trkpt lat="48.16892950317144" lon="11.537985017328817"><ele>518.0</ele><time>2026-03-27T08:23:13.999Z</time></trkpt><trkpt lat="48.1688586073604" lon="11.53797087214729"><ele>518.0</ele><time>2026-03-27T08:23:14.999Z</time></trkpt><trkpt lat="48.16878578053097" lon="11.537959064984697"><ele>518.0</ele><time>2026-03-27T08:23:15.999Z</time></trkpt><trkpt lat="48.16871256047863" lon="11.537949686216658"><ele>519.0</ele><time>2026-03-27T08:23:16.999Z</time></trkpt><trkpt lat="48.168641939352185" lon="11.537939696502756"><ele>520.0</ele><time>2026-03-27T08:23:17.999Z</time></trkpt><trkpt lat="48.16857800445616" lon="11.5379279884773"><ele>521.0</ele><time>2026-03-27T08:23:18.999Z</time></trkpt><trkpt lat="48.16851343418456" lon="11.537918590387395"><ele>522.0</ele><time>2026-03-27T08:23:19.999Z</time></trkpt><trkpt lat="48.16844670829963" lon="11.537911639106483"><ele>523.0</ele><time>2026-03-27T08:23:20.999Z</time></trkpt><trkpt lat="48.168377389473804" lon="11.537905064025411"><ele>524.0</ele><time>2026-03-27T08:23:21.999Z</time></trkpt><trkpt lat="48.168305811273896" lon="11.537899479032106"><ele>525.0</ele><time>2026-03-27T08:23:22.999Z</time></trkpt><trkpt lat="48.1682333256086" lon="11.53788835521233"><ele>525.4285714285714</ele><time>2026-03-27T08:23:23.999Z</time></trkpt><trkpt lat="48.16816196511176" lon="11.537879017597598"><ele>525.8571428571429</ele><time>2026-03-27T08:23:24.999Z</time></trkpt><trkpt lat="48.168091155046994" lon="11.537872714783402"><ele>526.2857142857142</ele><time>2026-03-27T08:23:25.999Z</time></trkpt><trkpt lat="48.16802143473973" lon="11.537868568386509"><ele>526.7142857142858</ele><time>2026-03-27T08:23:26.999Z</time></trkpt><trkpt lat="48.1679494812014" lon="11.53786412373433"><ele>527.1428571428571</ele><time>2026-03-27T08:23:27.999Z</time></trkpt><trkpt lat="48.16787744394392" lon="11.53785833756115"><ele>527.5714285714286</ele><time>2026-03-27T08:23:28.999Z</time></trkpt><trkpt lat="48.16780342495141" lon="11.537849117999604"><ele>528.0</ele><time>2026-03-27T08:23:29.999Z</time></trkpt><trkpt lat="48.16772829097233" lon="11.537842736098343"><ele>528.0</ele><time>2026-03-27T08:23:30.999Z</time></trkpt><trkpt lat="48.16765045737265" lon="11.537837711043938"><ele>528.0</ele><time>2026-03-27T08:23:31.999Z</time></trkpt><trkpt lat="48.167575775843524" lon="11.53783000625644"><ele>528.0</ele><time>2026-03-27T08:23:32.999Z</time></trkpt><trkpt lat="48.167501596269815" lon="11.537821473271228"><ele>528.0</ele><time>2026-03-27T08:23:33.999Z</time></trkpt><trkpt lat="48.16742241042631" lon="11.537815307631034"><ele>528.0</ele><time>2026-03-27T08:23:34.999Z</time></trkpt><trkpt lat="48.167342981154455" lon="11.537811919114464"><ele>528.0</ele><time>2026-03-27T08:23:35.999Z</time></trkpt><trkpt lat="48.16727213766862" lon="11.537807673414898"><ele>525.3333333333334</ele><time>2026-03-27T08:23:36.999Z</time></trkpt><trkpt lat="48.16720056630317" lon="11.537802669343773"><ele>522.6666666666666</ele><time>2026-03-27T08:23:37.999Z</time></trkpt><trkpt lat="48.16712763776358" lon="11.537797325105661"><ele>520.0</ele><time>2026-03-27T08:23:38.999Z</time></trkpt><trkpt lat="48.16706145671395" lon="11.537791415787035"><ele>517.3333333333333</ele><time>2026-03-27T08:23:39.999Z</time></trkpt><trkpt lat="48.1669482484605" lon="11.537786639804793"><ele>514.6666666666666</ele><time>2026-03-27T08:23:41.999Z</time></trkpt><trkpt lat="48.16684575691551" lon="11.53778352154775"><ele>512.0</ele><time>2026-03-27T08:23:43.999Z</time></trkpt><trkpt lat="48.16675011882815" lon="11.537779157287764"><ele>511.99999999999994</ele><time>2026-03-27T08:23:45.999Z</time></trkpt><trkpt lat="48.16667403180051" lon="11.537772485161877"><ele>512.0</ele><time>2026-03-27T08:23:47.999Z</time></trkpt><trkpt lat="48.16660030522724" lon="11.537766905911674"><ele>512.0</ele><time>2026-03-27T08:23:51Z</time></trkpt><trkpt lat="48.16653563522545" lon="11.537769076933907"><ele>512.0</ele><time>2026-03-27T08:24:38Z</time></trkpt><trkpt lat="48.166463511496815" lon="11.537761768589858"><ele>511.99999999999994</ele><time>2026-03-27T08:24:40Z</time></trkpt><trkpt lat="48.16635431513179" lon="11.537755358138082"><ele>512.0</ele><time>2026-03-27T08:24:42Z</time></trkpt><trkpt lat="48.16625194431063" lon="11.537753946465386"><ele>512.6</ele><time>2026-03-27T08:24:44Z</time></trkpt><trkpt lat="48.16615490035583" lon="11.537760309163422"><ele>513.2</ele><time>2026-03-27T08:24:46Z</time></trkpt><trkpt lat="48.16606926608247" lon="11.537768867284225"><ele>513.8</ele><time>2026-03-27T08:24:48Z</time></trkpt><trkpt lat="48.16597990596266" lon="11.537772641471332"><ele>514.4</ele><time>2026-03-27T08:24:50Z</time></trkpt><trkpt lat="48.165888692504716" lon="11.537795381575128"><ele>515.0</ele><time>2026-03-27T08:24:52Z</time></trkpt><trkpt lat="48.1658093704001" lon="11.537856650784772"><ele>514.5</ele><time>2026-03-27T08:24:54Z</time></trkpt><trkpt lat="48.16573082535368" lon="11.537932603122318"><ele>514.0</ele><time>2026-03-27T08:24:56Z</time></trkpt><trkpt lat="48.16563624067879" lon="11.53793633200887"><ele>513.5</ele><time>2026-03-27T08:25:09.999Z</time></trkpt><trkpt lat="48.1655598477846" lon="11.53793114296314"><ele>513.0</ele><time>2026-03-27T08:25:11.999Z</time></trkpt><trkpt lat="48.16541937166077" lon="11.538290814478856"><ele>513.8</ele><time>2026-03-27T08:25:13.999Z</time></trkpt><trkpt lat="48.16534151595831" lon="11.538368606034107"><ele>514.5999999999999</ele><time>2026-03-27T08:25:14.999Z</time></trkpt><trkpt lat="48.16524823572644" lon="11.538470733577423"><ele>515.4000000000001</ele><time>2026-03-27T08:25:15.999Z</time></trkpt><trkpt lat="48.16514945275798" lon="11.5385771823683"><ele>516.2</ele><time>2026-03-27T08:25:16.999Z</time></trkpt><trkpt lat="48.16506285653771" lon="11.538673247946722"><ele>517.0</ele><time>2026-03-27T08:25:17.999Z</time></trkpt><trkpt lat="48.16498349669408" lon="11.538766896963004"><ele>517.0</ele><time>2026-03-27T08:25:18.999Z</time></trkpt><trkpt lat="48.16490657739193" lon="11.538861551636762"><ele>517.0</ele><time>2026-03-27T08:25:19.999Z</time></trkpt><trkpt lat="48.1648314148796" lon="11.538966719717859"><ele>517.0</ele><time>2026-03-27T08:25:20.999Z</time></trkpt><trkpt lat="48.16474904001904" lon="11.53908598524743"><ele>517.0</ele><time>2026-03-27T08:25:21.999Z</time></trkpt><trkpt lat="48.16466701004303" lon="11.539205833666543"><ele>517.0</ele><time>2026-03-27T08:25:22.999Z</time></trkpt><trkpt lat="48.164587945239006" lon="11.539328267534856"><ele>516.75</ele><time>2026-03-27T08:25:23.999Z</time></trkpt><trkpt lat="48.16451021076845" lon="11.539450984478542"><ele>516.5</ele><time>2026-03-27T08:25:24.999Z</time></trkpt><trkpt lat="48.16443325709087" lon="11.539574404388926"><ele>516.25</ele><time>2026-03-27T08:25:25.999Z</time></trkpt><trkpt lat="48.16435749385063" lon="11.539700149135705"><ele>516.0</ele><time>2026-03-27T08:25:26.999Z</time></trkpt><trkpt lat="48.16428082388302" lon="11.539825524232619"><ele>516.0</ele><time>2026-03-27T08:25:27.999Z</time></trkpt><trkpt lat="48.164203640810754" lon="11.539951628072824"><ele>516.0</ele><time>2026-03-27T08:25:28.999Z</time></trkpt><trkpt lat="48.164127340921944" lon="11.540076911597371"><ele>516.0</ele><time>2026-03-27T08:25:29.999Z</time></trkpt><trkpt lat="48.164056531615614" lon="11.540195439272388"><ele>516.0</ele><time>2026-03-27T08:25:30.999Z</time></trkpt><trkpt lat="48.16398988354257" lon="11.540302432133025"><ele>516.0</ele><time>2026-03-27T08:25:31.999Z</time></trkpt><trkpt lat="48.16392761155307" lon="11.54040421081303"><ele>515.8</ele><time>2026-03-27T08:25:32.999Z</time></trkpt><trkpt lat="48.16386649447837" lon="11.540504245587668"><ele>515.6</ele><time>2026-03-27T08:25:33.999Z</time></trkpt><trkpt lat="48.16380480719764" lon="11.540606155217388"><ele>515.4</ele><time>2026-03-27T08:25:34.999Z</time></trkpt><trkpt lat="48.16374074733155" lon="11.540712171908105"><ele>515.2</ele><time>2026-03-27T08:25:35.999Z</time></trkpt><trkpt lat="48.16367349070182" lon="11.5408215073414"><ele>515.0</ele><time>2026-03-27T08:25:36.999Z</time></trkpt><trkpt lat="48.16361389386827" lon="11.540921839366343"><ele>515.0</ele><time>2026-03-27T08:25:37.999Z</time></trkpt><trkpt lat="48.1635593853246" lon="11.541011716348098"><ele>515.0</ele><time>2026-03-27T08:25:38.999Z</time></trkpt><trkpt lat="48.163511973655766" lon="11.541084815952352"><ele>515.0</ele><time>2026-03-27T08:25:39.999Z</time></trkpt><trkpt lat="48.163437866264566" lon="11.54120435079568"><ele>515.0</ele><time>2026-03-27T08:25:41.999Z</time></trkpt><trkpt lat="48.16336681498462" lon="11.54132503643653"><ele>515.0</ele><time>2026-03-27T08:25:43.999Z</time></trkpt><trkpt lat="48.163281603243945" lon="11.541456767256498"><ele>515.1666666666666</ele><time>2026-03-27T08:25:45.999Z</time></trkpt><trkpt lat="48.163231861973124" lon="11.54153393300322"><ele>515.3333333333333</ele><time>2026-03-27T08:25:46.999Z</time></trkpt><trkpt lat="48.16317965359353" lon="11.541616707262918"><ele>515.5</ele><time>2026-03-27T08:25:47.999Z</time></trkpt><trkpt lat="48.16312857094772" lon="11.54169678515625"><ele>515.6666666666666</ele><time>2026-03-27T08:25:48.999Z</time></trkpt><trkpt lat="48.16304853871654" lon="11.541819658029468"><ele>515.8333333333334</ele><time>2026-03-27T08:25:50.999Z</time></trkpt><trkpt lat="48.16300098070121" lon="11.541892237505737"><ele>516.0</ele><time>2026-03-27T08:25:52.999Z</time></trkpt><trkpt lat="48.16294697645838" lon="11.54195782314703"><ele>516.0</ele><time>2026-03-27T08:26:34Z</time></trkpt><trkpt lat="48.162897676034866" lon="11.542045864242006"><ele>516.0</ele><time>2026-03-27T08:26:36Z</time></trkpt><trkpt lat="48.1628627308673" lon="11.542168348691316"><ele>516.0</ele><time>2026-03-27T08:26:39Z</time></trkpt><trkpt lat="48.16295966188936" lon="11.542258062286583"><ele>516.0</ele><time>2026-03-27T08:26:42Z</time></trkpt><trkpt lat="48.16305774974255" lon="11.54215957091865"><ele>516.0</ele><time>2026-03-27T08:26:44Z</time></trkpt><trkpt lat="48.16312927617749" lon="11.542055512273484"><ele>516.0</ele><time>2026-03-27T08:26:46Z</time></trkpt><trkpt lat="48.16319710332149" lon="11.541943941830715"><ele>516.0</ele><time>2026-03-27T08:26:48Z</time></trkpt><trkpt lat="48.16327969653614" lon="11.541801987939241"><ele>516.0</ele><time>2026-03-27T08:26:50Z</time></trkpt><trkpt lat="48.16332937036642" lon="11.541719097452706"><ele>516.0</ele><time>2026-03-27T08:26:51Z</time></trkpt><trkpt lat="48.163381465719375" lon="11.541635134249606"><ele>516.0</ele><time>2026-03-27T08:26:52Z</time></trkpt><trkpt lat="48.16342984195062" lon="11.54155501181837"><ele>516.0</ele><time>2026-03-27T08:26:53Z</time></trkpt><trkpt lat="48.16347437740492" lon="11.541481992658188"><ele>515.9999999999999</ele><time>2026-03-27T08:26:54Z</time></trkpt><trkpt lat="48.163515987590856" lon="11.541410595182446"><ele>516.0</ele><time>2026-03-27T08:26:55Z</time></trkpt><trkpt lat="48.163558628262045" lon="11.541338512761257"><ele>516.0</ele><time>2026-03-27T08:26:56Z</time></trkpt><trkpt lat="48.16360438874624" lon="11.54126464397895"><ele>516.0</ele><time>2026-03-27T08:26:57Z</time></trkpt><trkpt lat="48.16365300156037" lon="11.541184768779368"><ele>516.0</ele><time>2026-03-27T08:26:58Z</time></trkpt><trkpt lat="48.16370240072351" lon="11.54110115645462"><ele>515.9999999999999</ele><time>2026-03-27T08:26:59Z</time></trkpt><trkpt lat="48.163753193276435" lon="11.541021904740884"><ele>516.0</ele><time>2026-03-27T08:27:00Z</time></trkpt><trkpt lat="48.16380320246182" lon="11.540941780378164"><ele>516.0</ele><time>2026-03-27T08:27:01Z</time></trkpt><trkpt lat="48.16385485544792" lon="11.54085862218469"><ele>516.0</ele><time>2026-03-27T08:27:02Z</time></trkpt><trkpt lat="48.16391156154677" lon="11.540765577018233"><ele>516.0</ele><time>2026-03-27T08:27:03Z</time></trkpt><trkpt lat="48.163984861692484" lon="11.540646919468333"><ele>516.0</ele><time>2026-03-27T08:27:04Z</time></trkpt><trkpt lat="48.16405443599895" lon="11.540529400892305"><ele>516.0</ele><time>2026-03-27T08:27:05Z</time></trkpt><trkpt lat="48.16411559301649" lon="11.540424554073631"><ele>516.0</ele><time>2026-03-27T08:27:06Z</time></trkpt><trkpt lat="48.16417616384035" lon="11.540321608793507"><ele>516.0</ele><time>2026-03-27T08:27:07Z</time></trkpt><trkpt lat="48.1642360361999" lon="11.540218417176243"><ele>516.0</ele><time>2026-03-27T08:27:08Z</time></trkpt><trkpt lat="48.16429376161941" lon="11.540111879414525"><ele>516.0</ele><time>2026-03-27T08:27:09Z</time></trkpt><trkpt lat="48.164355043859246" lon="11.540004705110325"><ele>516.0</ele><time>2026-03-27T08:27:10Z</time></trkpt><trkpt lat="48.164417635346226" lon="11.53989862218177"><ele>516.0</ele><time>2026-03-27T08:27:11Z</time></trkpt><trkpt lat="48.16448448574073" lon="11.539793889523517"><ele>516.0</ele><time>2026-03-27T08:27:12Z</time></trkpt><trkpt lat="48.164552366761754" lon="11.539686863608159"><ele>516.0</ele><time>2026-03-27T08:27:13Z</time></trkpt><trkpt lat="48.164619073196846" lon="11.539581724168691"><ele>516.0</ele><time>2026-03-27T08:27:14Z</time></trkpt><trkpt lat="48.164681045175534" lon="11.539484789572477"><ele>516.0</ele><time>2026-03-27T08:27:15Z</time></trkpt><trkpt lat="48.164743462965625" lon="11.539403059597772"><ele>516.2</ele><time>2026-03-27T08:27:16Z</time></trkpt><trkpt lat="48.16480953471312" lon="11.539316209410712"><ele>516.4000000000001</ele><time>2026-03-27T08:27:16.999Z</time></trkpt><trkpt lat="48.16488063908143" lon="11.539223627839274"><ele>516.6</ele><time>2026-03-27T08:27:17.999Z</time></trkpt><trkpt lat="48.164960370789345" lon="11.539129673837506"><ele>516.8000000000001</ele><time>2026-03-27T08:27:18.999Z</time></trkpt><trkpt lat="48.165046423671335" lon="11.539020941968095"><ele>517.0</ele><time>2026-03-27T08:27:19.999Z</time></trkpt><trkpt lat="48.16513012478183" lon="11.538927674581288"><ele>517.0</ele><time>2026-03-27T08:27:20.999Z</time></trkpt><trkpt lat="48.1652084342654" lon="11.538856259841317"><ele>517.0</ele><time>2026-03-27T08:27:21.999Z</time></trkpt><trkpt lat="48.16528179968995" lon="11.538787336696725"><ele>517.0</ele><time>2026-03-27T08:27:22.999Z</time></trkpt><trkpt lat="48.165350202117025" lon="11.53869111227908"><ele>517.0</ele><time>2026-03-27T08:27:23.999Z</time></trkpt><trkpt lat="48.16543306529912" lon="11.538631704133632"><ele>517.0</ele><time>2026-03-27T08:27:24.999Z</time></trkpt><trkpt lat="48.165488401485845" lon="11.538546805419656"><ele>517.0</ele><time>2026-03-27T08:27:25.999Z</time></trkpt><trkpt lat="48.165542382349884" lon="11.538492104812946"><ele>517.4</ele><time>2026-03-27T08:27:26.999Z</time></trkpt><trkpt lat="48.165632801710196" lon="11.53840088134374"><ele>517.8000000000001</ele><time>2026-03-27T08:27:28.999Z</time></trkpt><trkpt lat="48.16569769407415" lon="11.538337286829298"><ele>518.2</ele><time>2026-03-27T08:27:30.999Z</time></trkpt><trkpt lat="48.165767816648334" lon="11.53826856671657"><ele>518.6</ele><time>2026-03-27T08:28:23Z</time></trkpt><trkpt lat="48.165860419824455" lon="11.538179369895138"><ele>519.0</ele><time>2026-03-27T08:28:25Z</time></trkpt><trkpt lat="48.165950548753614" lon="11.538144175909597"><ele>518.0</ele><time>2026-03-27T08:28:27Z</time></trkpt><trkpt lat="48.166053394128" lon="11.53818048145721"><ele>517.0</ele><time>2026-03-27T08:28:29Z</time></trkpt><trkpt lat="48.16617980437947" lon="11.538184084693084"><ele>516.0</ele><time>2026-03-27T08:28:31Z</time></trkpt><trkpt lat="48.166246029346766" lon="11.538185573333218"><ele>515.0</ele><time>2026-03-27T08:28:32Z</time></trkpt><trkpt lat="48.16631870534899" lon="11.538187908760873"><ele>514.0</ele><time>2026-03-27T08:28:33Z</time></trkpt><trkpt lat="48.16639597725562" lon="11.538196983988126"><ele>513.0</ele><time>2026-03-27T08:28:34Z</time></trkpt><trkpt lat="48.166467484917185" lon="11.538201682489976"><ele>512.6666666666666</ele><time>2026-03-27T08:28:35Z</time></trkpt><trkpt lat="48.16653224318502" lon="11.538202107133115"><ele>512.3333333333334</ele><time>2026-03-27T08:28:36Z</time></trkpt><trkpt lat="48.16665028472284" lon="11.538209952870938"><ele>512.0</ele><time>2026-03-27T08:28:38Z</time></trkpt><trkpt lat="48.166717540199194" lon="11.538213508363256"><ele>511.6666666666667</ele><time>2026-03-27T08:28:39Z</time></trkpt><trkpt lat="48.16679073074884" lon="11.538215822806011"><ele>511.33333333333337</ele><time>2026-03-27T08:28:40Z</time></trkpt><trkpt lat="48.166870274216414" lon="11.538220645424431"><ele>511.0</ele><time>2026-03-27T08:28:41Z</time></trkpt><trkpt lat="48.16695276050126" lon="11.53822168981138"><ele>511.00000000000006</ele><time>2026-03-27T08:28:42Z</time></trkpt><trkpt lat="48.16702399540918" lon="11.53822505636989"><ele>511.0</ele><time>2026-03-27T08:28:43Z</time></trkpt><trkpt lat="48.16708987619862" lon="11.538231149218303"><ele>511.0</ele><time>2026-03-27T08:28:44Z</time></trkpt><trkpt lat="48.167215927305335" lon="11.538246393743995"><ele>511.0</ele><time>2026-03-27T08:28:46Z</time></trkpt><trkpt lat="48.16728118543784" lon="11.538246638583784"><ele>511.00000000000006</ele><time>2026-03-27T08:28:47Z</time></trkpt><trkpt lat="48.16734991649869" lon="11.538248115141002"><ele>511.0</ele><time>2026-03-27T08:28:48Z</time></trkpt><trkpt lat="48.16741906692567" lon="11.538251457412098"><ele>512.5714285714286</ele><time>2026-03-27T08:28:49Z</time></trkpt><trkpt lat="48.16748721378603" lon="11.538255208734103"><ele>514.1428571428571</ele><time>2026-03-27T08:28:50Z</time></trkpt><trkpt lat="48.16755383830994" lon="11.538258013729397"><ele>515.7142857142858</ele><time>2026-03-27T08:28:51Z</time></trkpt><trkpt lat="48.16762076751384" lon="11.538261186309738"><ele>517.2857142857142</ele><time>2026-03-27T08:28:52Z</time></trkpt><trkpt lat="48.16769703575427" lon="11.538262799793092"><ele>518.8571428571429</ele><time>2026-03-27T08:28:53Z</time></trkpt><trkpt lat="48.167775787586024" lon="11.538266267543717"><ele>520.4285714285714</ele><time>2026-03-27T08:28:54Z</time></trkpt><trkpt lat="48.16785237682269" lon="11.538270208060656"><ele>522.0</ele><time>2026-03-27T08:28:55Z</time></trkpt><trkpt lat="48.16792522043521" lon="11.538275784671606"><ele>522.0</ele><time>2026-03-27T08:28:56Z</time></trkpt><trkpt lat="48.167998575950364" lon="11.538280718465066"><ele>522.0</ele><time>2026-03-27T08:28:57Z</time></trkpt><trkpt lat="48.16807125003813" lon="11.53829017366119"><ele>522.0</ele><time>2026-03-27T08:28:58Z</time></trkpt><trkpt lat="48.16814167693041" lon="11.538300292440242"><ele>522.0</ele><time>2026-03-27T08:28:59Z</time></trkpt><trkpt lat="48.1682149608037" lon="11.538313291311912"><ele>522.0</ele><time>2026-03-27T08:29:00Z</time></trkpt><trkpt lat="48.168294240944356" lon="11.53829669740063"><ele>522.0</ele><time>2026-03-27T08:29:01Z</time></trkpt><trkpt lat="48.16837100189978" lon="11.538301604853562"><ele>522.0</ele><time>2026-03-27T08:29:02Z</time></trkpt><trkpt lat="48.16843881694715" lon="11.538389189341915"><ele>522.4285714285714</ele><time>2026-03-27T08:29:03Z</time></trkpt><trkpt lat="48.16850250519198" lon="11.538421806301828"><ele>522.8571428571429</ele><time>2026-03-27T08:29:04Z</time></trkpt><trkpt lat="48.168565621978" lon="11.538461840833724"><ele>523.2857142857142</ele><time>2026-03-27T08:29:05Z</time></trkpt><trkpt lat="48.16862982865009" lon="11.538500672702007"><ele>523.7142857142858</ele><time>2026-03-27T08:29:06Z</time></trkpt><trkpt lat="48.16869599734087" lon="11.538546437329073"><ele>524.1428571428571</ele><time>2026-03-27T08:29:07Z</time></trkpt><trkpt lat="48.16876076305715" lon="11.538593665907907"><ele>524.5714285714286</ele><time>2026-03-27T08:29:08Z</time></trkpt><trkpt lat="48.1688244429704" lon="11.538648662995953"><ele>525.0</ele><time>2026-03-27T08:29:09Z</time></trkpt><trkpt lat="48.168888546650166" lon="11.538703536243895"><ele>523.6666666666666</ele><time>2026-03-27T08:29:10Z</time></trkpt><trkpt lat="48.16894377328707" lon="11.538755668358398"><ele>522.3333333333334</ele><time>2026-03-27T08:29:11Z</time></trkpt><trkpt lat="48.16900596007108" lon="11.538779142795692"><ele>521.0</ele><time>2026-03-27T08:29:12Z</time></trkpt><trkpt lat="48.169112215772294" lon="11.538876506796667"><ele>519.6666666666667</ele><time>2026-03-27T08:29:14Z</time></trkpt><trkpt lat="48.169176542755665" lon="11.538925450088026"><ele>518.3333333333334</ele><time>2026-03-27T08:29:15Z</time></trkpt><trkpt lat="48.16924676862532" lon="11.538968103498144"><ele>517.0</ele><time>2026-03-27T08:29:16Z</time></trkpt><trkpt lat="48.16932616359491" lon="11.539010053961853"><ele>516.6666666666667</ele><time>2026-03-27T08:29:17Z</time></trkpt><trkpt lat="48.16939111709473" lon="11.53904007131078"><ele>516.3333333333334</ele><time>2026-03-27T08:29:18Z</time></trkpt><trkpt lat="48.16945212655983" lon="11.539068081366485"><ele>516.0</ele><time>2026-03-27T08:29:19Z</time></trkpt><trkpt lat="48.169515875735975" lon="11.539100616154455"><ele>515.6666666666666</ele><time>2026-03-27T08:29:20Z</time></trkpt><trkpt lat="48.16958127734375" lon="11.539121671799458"><ele>515.3333333333333</ele><time>2026-03-27T08:29:21Z</time></trkpt><trkpt lat="48.169646191130184" lon="11.539138527649685"><ele>515.0</ele><time>2026-03-27T08:29:22Z</time></trkpt><trkpt lat="48.16977100588165" lon="11.53915682033278"><ele>515.0</ele><time>2026-03-27T08:29:24Z</time></trkpt><trkpt lat="48.16983892583245" lon="11.53916552929612"><ele>515.0</ele><time>2026-03-27T08:29:25Z</time></trkpt><trkpt lat="48.169909038241684" lon="11.53917064377965"><ele>515.0</ele><time>2026-03-27T08:29:26Z</time></trkpt><trkpt lat="48.16997918481961" lon="11.539166972186768"><ele>515.0</ele><time>2026-03-27T08:29:27Z</time></trkpt><trkpt lat="48.170098860475306" lon="11.539164434188544"><ele>515.0</ele><time>2026-03-27T08:29:29Z</time></trkpt><trkpt lat="48.17021541390301" lon="11.539150433581412"><ele>515.0</ele><time>2026-03-27T08:29:31Z</time></trkpt><trkpt lat="48.170320505750865" lon="11.539139503230059"><ele>514.4285714285714</ele><time>2026-03-27T08:29:32.999Z</time></trkpt><trkpt lat="48.17040316532604" lon="11.539133686192951"><ele>513.8571428571429</ele><time>2026-03-27T08:29:34.999Z</time></trkpt><trkpt lat="48.1704689874202" lon="11.539131787620077"><ele>513.2857142857142</ele><time>2026-03-27T08:29:36.999Z</time></trkpt><trkpt lat="48.17055330803304" lon="11.539139154318015"><ele>512.7142857142858</ele><time>2026-03-27T08:29:39.999Z</time></trkpt><trkpt lat="48.17062270339404" lon="11.539139903181436"><ele>512.1428571428571</ele><time>2026-03-27T08:29:43.999Z</time></trkpt><trkpt lat="48.170684028446615" lon="11.539114632760727"><ele>511.57142857142856</ele><time>2026-03-27T08:29:50.999Z</time></trkpt><trkpt lat="48.17076007890809" lon="11.539108749214405"><ele>511.0</ele><time>2026-03-27T08:29:52.999Z</time></trkpt><trkpt lat="48.17086582794809" lon="11.539100947480417"><ele>511.0</ele><time>2026-03-27T08:29:54.999Z</time></trkpt><trkpt lat="48.17096397748788" lon="11.539094334666187"><ele>511.0</ele><time>2026-03-27T08:29:56.999Z</time></trkpt><trkpt lat="48.171064336018155" lon="11.539085658870084"><ele>511.0</ele><time>2026-03-27T08:29:58.999Z</time></trkpt><trkpt lat="48.17117428045065" lon="11.539078983604385"><ele>511.0</ele><time>2026-03-27T08:30:00.999Z</time></trkpt><trkpt lat="48.17129991897684" lon="11.539074571563042"><ele>511.0</ele><time>2026-03-27T08:30:02.999Z</time></trkpt><trkpt lat="48.17141444768909" lon="11.539082017858773"><ele>511.0</ele><time>2026-03-27T08:30:05Z</time></trkpt><trkpt lat="48.1715178084789" lon="11.539103768315526"><ele>511.0</ele><time>2026-03-27T08:30:07Z</time></trkpt><trkpt lat="48.17162363074448" lon="11.539130267540367"><ele>511.0</ele><time>2026-03-27T08:30:09Z</time></trkpt><trkpt lat="48.17173274895082" lon="11.539169127591457"><ele>511.0</ele><time>2026-03-27T08:30:11Z</time></trkpt><trkpt lat="48.17183261950345" lon="11.539201385719926"><ele>511.0</ele><time>2026-03-27T08:30:13Z</time></trkpt><trkpt lat="48.17191558723934" lon="11.539236201144973"><ele>511.00000000000006</ele><time>2026-03-27T08:30:15Z</time></trkpt><trkpt lat="48.17199272864984" lon="11.539275853846833"><ele>511.0</ele><time>2026-03-27T08:30:17Z</time></trkpt><trkpt lat="48.17206139491255" lon="11.539308652341328"><ele>511.0</ele><time>2026-03-27T08:30:19Z</time></trkpt><trkpt lat="48.17212884630542" lon="11.539345820944135"><ele>511.0</ele><time>2026-03-27T08:30:20.999Z</time></trkpt><trkpt lat="48.172210454738554" lon="11.539396906441937"><ele>511.00000000000006</ele><time>2026-03-27T08:30:22.999Z</time></trkpt><trkpt lat="48.17231073939607" lon="11.539446422452013"><ele>511.0</ele><time>2026-03-27T08:30:24.999Z</time></trkpt><trkpt lat="48.172399938876026" lon="11.539507765098454"><ele>510.4</ele><time>2026-03-27T08:30:26.999Z</time></trkpt><trkpt lat="48.17250190445057" lon="11.539556451624842"><ele>509.8</ele><time>2026-03-27T08:30:28.999Z</time></trkpt><trkpt lat="48.17262781136646" lon="11.539596338580044"><ele>509.19999999999993</ele><time>2026-03-27T08:30:30.999Z</time></trkpt><trkpt lat="48.17269362944693" lon="11.539616461202575"><ele>508.59999999999997</ele><time>2026-03-27T08:30:31.999Z</time></trkpt><trkpt lat="48.1728131206727" lon="11.53965199750158"><ele>508.0</ele><time>2026-03-27T08:30:33.999Z</time></trkpt><trkpt lat="48.17293467694115" lon="11.539695520538254"><ele>508.0</ele><time>2026-03-27T08:30:35.999Z</time></trkpt><trkpt lat="48.17299750030245" lon="11.539718291366196"><ele>508.0</ele><time>2026-03-27T08:30:36.999Z</time></trkpt><trkpt lat="48.17306167351477" lon="11.53974503204884"><ele>508.0</ele><time>2026-03-27T08:30:37.999Z</time></trkpt><trkpt lat="48.17312653007534" lon="11.53977001918294"><ele>508.0</ele><time>2026-03-27T08:30:38.999Z</time></trkpt><trkpt lat="48.1731894740189" lon="11.53979468750915"><ele>508.0</ele><time>2026-03-27T08:30:39.999Z</time></trkpt><trkpt lat="48.173251863725675" lon="11.53982184844523"><ele>508.0</ele><time>2026-03-27T08:30:40.999Z</time></trkpt><trkpt lat="48.1733118263591" lon="11.539855730044039"><ele>508.0</ele><time>2026-03-27T08:30:41.999Z</time></trkpt><trkpt lat="48.17337098891724" lon="11.539893820905242"><ele>508.25</ele><time>2026-03-27T08:30:42.999Z</time></trkpt><trkpt lat="48.17342770139312" lon="11.539935290783296"><ele>508.5</ele><time>2026-03-27T08:30:43.999Z</time></trkpt><trkpt lat="48.17348295583609" lon="11.539982591006542"><ele>508.75</ele><time>2026-03-27T08:30:44.999Z</time></trkpt><trkpt lat="48.17353727410493" lon="11.540032009066115"><ele>509.0</ele><time>2026-03-27T08:30:45.999Z</time></trkpt><trkpt lat="48.17359327442528" lon="11.540079500812796"><ele>509.25</ele><time>2026-03-27T08:30:46.999Z</time></trkpt><trkpt lat="48.17364779522275" lon="11.540127335089194"><ele>509.5</ele><time>2026-03-27T08:30:47.999Z</time></trkpt><trkpt lat="48.17370203707605" lon="11.540176506289267"><ele>509.75</ele><time>2026-03-27T08:30:48.999Z</time></trkpt><trkpt lat="48.173755712490966" lon="11.540226926843198"><ele>510.0</ele><time>2026-03-27T08:30:49.999Z</time></trkpt><trkpt lat="48.17381031933929" lon="11.540275463655348"><ele>510.0</ele><time>2026-03-27T08:30:50.999Z</time></trkpt><trkpt lat="48.17386259094245" lon="11.540328731428275"><ele>510.00000000000006</ele><time>2026-03-27T08:30:51.999Z</time></trkpt><trkpt lat="48.17391521175496" lon="11.540383522996086"><ele>510.0</ele><time>2026-03-27T08:30:52.999Z</time></trkpt><trkpt lat="48.173965313675794" lon="11.540445516898002"><ele>510.0</ele><time>2026-03-27T08:30:53.999Z</time></trkpt><trkpt lat="48.17401708638063" lon="11.540508364984388"><ele>510.00000000000006</ele><time>2026-03-27T08:30:54.999Z</time></trkpt><trkpt lat="48.174068214809544" lon="11.540572909039488"><ele>510.0</ele><time>2026-03-27T08:30:55.999Z</time></trkpt><trkpt lat="48.17412014743595" lon="11.540640687955522"><ele>510.0</ele><time>2026-03-27T08:30:56.999Z</time></trkpt><trkpt lat="48.17416798088229" lon="11.540714389765386"><ele>510.14285714285717</ele><time>2026-03-27T08:30:57.999Z</time></trkpt><trkpt lat="48.17421437391365" lon="11.540784602929666"><ele>510.28571428571433</ele><time>2026-03-27T08:30:58.999Z</time></trkpt><trkpt lat="48.17426284805257" lon="11.540851703080156"><ele>510.42857142857144</ele><time>2026-03-27T08:30:59.999Z</time></trkpt><trkpt lat="48.17431281697773" lon="11.540917125539119"><ele>510.57142857142856</ele><time>2026-03-27T08:31:00.999Z</time></trkpt><trkpt lat="48.17436266206483" lon="11.540983944374045"><ele>510.7142857142857</ele><time>2026-03-27T08:31:01.999Z</time></trkpt><trkpt lat="48.17441560478743" lon="11.541047148236693"><ele>510.8571428571429</ele><time>2026-03-27T08:31:02.999Z</time></trkpt><trkpt lat="48.1744688030723" lon="11.541107312937216"><ele>511.0</ele><time>2026-03-27T08:31:03.999Z</time></trkpt><trkpt lat="48.17452174092904" lon="11.541165121430186"><ele>511.2857142857143</ele><time>2026-03-27T08:31:04.999Z</time></trkpt><trkpt lat="48.17457608660815" lon="11.541225988732133"><ele>511.57142857142856</ele><time>2026-03-27T08:31:05.999Z</time></trkpt><trkpt lat="48.17463354956689" lon="11.541286555576807"><ele>511.8571428571429</ele><time>2026-03-27T08:31:06.999Z</time></trkpt><trkpt lat="48.17469128607317" lon="11.541349056778703"><ele>512.1428571428571</ele><time>2026-03-27T08:31:07.999Z</time></trkpt><trkpt lat="48.17474716515457" lon="11.541414789446407"><ele>512.4285714285714</ele><time>2026-03-27T08:31:08.999Z</time></trkpt><trkpt lat="48.174804112059896" lon="11.541478782623905"><ele>512.7142857142858</ele><time>2026-03-27T08:31:09.999Z</time></trkpt><trkpt lat="48.1748605926224" lon="11.5415459264052"><ele>513.0</ele><time>2026-03-27T08:31:10.999Z</time></trkpt><trkpt lat="48.174915426031056" lon="11.541619065085488"><ele>512.3333333333334</ele><time>2026-03-27T08:31:11.999Z</time></trkpt><trkpt lat="48.17498278244519" lon="11.541666203218226"><ele>511.66666666666663</ele><time>2026-03-27T08:31:12.999Z</time></trkpt><trkpt lat="48.17504001181953" lon="11.54172556543029"><ele>511.0</ele><time>2026-03-27T08:31:13.999Z</time></trkpt><trkpt lat="48.175064231633726" lon="11.541843196412396"><ele>510.3333333333333</ele><time>2026-03-27T08:31:14.999Z</time></trkpt><trkpt lat="48.17510828338766" lon="11.541914301418482"><ele>509.66666666666663</ele><time>2026-03-27T08:31:15.999Z</time></trkpt><trkpt lat="48.17518760416279" lon="11.542060307428413"><ele>509.0</ele><time>2026-03-27T08:31:17.999Z</time></trkpt><trkpt lat="48.17522572791729" lon="11.5421375569634"><ele>508.71428571428567</ele><time>2026-03-27T08:31:18.999Z</time></trkpt><trkpt lat="48.175262485586615" lon="11.542222661157709"><ele>508.42857142857144</ele><time>2026-03-27T08:31:19.999Z</time></trkpt><trkpt lat="48.17529642134674" lon="11.542314169829657"><ele>508.1428571428571</ele><time>2026-03-27T08:31:20.999Z</time></trkpt><trkpt lat="48.17532861298944" lon="11.54240745795561"><ele>507.85714285714283</ele><time>2026-03-27T08:31:21.999Z</time></trkpt><trkpt lat="48.17535988887775" lon="11.542500212116476"><ele>507.57142857142856</ele><time>2026-03-27T08:31:22.999Z</time></trkpt><trkpt lat="48.17538824558512" lon="11.54259511632249"><ele>507.2857142857143</ele><time>2026-03-27T08:31:23.999Z</time></trkpt><trkpt lat="48.17541237780785" lon="11.542689446888495"><ele>507.0</ele><time>2026-03-27T08:31:24.999Z</time></trkpt><trkpt lat="48.175433391701645" lon="11.542786633006111"><ele>507.1666666666667</ele><time>2026-03-27T08:31:25.999Z</time></trkpt><trkpt lat="48.17545129013868" lon="11.542883506679301"><ele>507.33333333333337</ele><time>2026-03-27T08:31:26.999Z</time></trkpt><trkpt lat="48.17546629982794" lon="11.542980001188038"><ele>507.5</ele><time>2026-03-27T08:31:27.999Z</time></trkpt><trkpt lat="48.17548753633479" lon="11.543153360290278"><ele>507.6666666666667</ele><time>2026-03-27T08:31:29.999Z</time></trkpt><trkpt lat="48.17552674933748" lon="11.543328389293858"><ele>507.83333333333337</ele><time>2026-03-27T08:31:31.999Z</time></trkpt><trkpt lat="48.17555266856876" lon="11.543419954259074"><ele>508.0</ele><time>2026-03-27T08:31:32.999Z</time></trkpt><trkpt lat="48.175583453745126" lon="11.543510215175289"><ele>508.0</ele><time>2026-03-27T08:31:33.999Z</time></trkpt><trkpt lat="48.17561505059021" lon="11.543595466827746"><ele>508.0</ele><time>2026-03-27T08:31:34.999Z</time></trkpt><trkpt lat="48.175648102848655" lon="11.54367647387869"><ele>508.0</ele><time>2026-03-27T08:31:35.999Z</time></trkpt><trkpt lat="48.1756816719219" lon="11.543761941399273"><ele>508.0</ele><time>2026-03-27T08:31:36.999Z</time></trkpt><trkpt lat="48.1757135797231" lon="11.543851427349601"><ele>508.0</ele><time>2026-03-27T08:31:37.999Z</time></trkpt><trkpt lat="48.17575879752821" lon="11.543930186755292"><ele>508.0</ele><time>2026-03-27T08:31:38.999Z</time></trkpt><trkpt lat="48.17579342206059" lon="11.544016059262296"><ele>508.0</ele><time>2026-03-27T08:31:39.999Z</time></trkpt><trkpt lat="48.17579734814432" lon="11.544126493937576"><ele>508.00000000000006</ele><time>2026-03-27T08:31:40.999Z</time></trkpt><trkpt lat="48.175814133624876" lon="11.544218437895875"><ele>508.0</ele><time>2026-03-27T08:31:41.999Z</time></trkpt><trkpt lat="48.17584232843932" lon="11.544393616333597"><ele>508.0</ele><time>2026-03-27T08:31:43.999Z</time></trkpt><trkpt lat="48.17587475834706" lon="11.544513895651516"><ele>508.0</ele><time>2026-03-27T08:31:45.999Z</time></trkpt><trkpt lat="48.1758841924852" lon="11.544607583272667"><ele>508.00000000000006</ele><time>2026-03-27T08:31:47.999Z</time></trkpt><trkpt lat="48.175892205216186" lon="11.544720887420755"><ele>508.0</ele><time>2026-03-27T08:31:51.999Z</time></trkpt><trkpt lat="48.17589866798496" lon="11.54484645086644"><ele>508.00000000000006</ele><time>2026-03-27T08:31:58.998Z</time></trkpt><trkpt lat="48.175901901034415" lon="11.544996056658405"><ele>508.0</ele><time>2026-03-27T08:32:00.998Z</time></trkpt><trkpt lat="48.175888853841954" lon="11.54511106079546"><ele>508.0</ele><time>2026-03-27T08:32:02.998Z</time></trkpt><trkpt lat="48.17588806125736" lon="11.545225961000316"><ele>508.0</ele><time>2026-03-27T08:32:04.998Z</time></trkpt><trkpt lat="48.17584036665141" lon="11.545368801973064"><ele>508.00000000000006</ele><time>2026-03-27T08:32:06.998Z</time></trkpt><trkpt lat="48.17580295549678" lon="11.545447330544842"><ele>508.0</ele><time>2026-03-27T08:32:07.998Z</time></trkpt><trkpt lat="48.17575635330551" lon="11.5455352308294"><ele>508.00000000000006</ele><time>2026-03-27T08:32:08.998Z</time></trkpt><trkpt lat="48.17570574184758" lon="11.54562802853035"><ele>508.0</ele><time>2026-03-27T08:32:10Z</time></trkpt><trkpt lat="48.17566196230632" lon="11.545708550983361"><ele>508.0</ele><time>2026-03-27T08:32:11Z</time></trkpt><trkpt lat="48.17562075846006" lon="11.5457838484233"><ele>508.0</ele><time>2026-03-27T08:32:12Z</time></trkpt><trkpt lat="48.17555598599384" lon="11.545944839663179"><ele>508.00000000000006</ele><time>2026-03-27T08:32:14Z</time></trkpt><trkpt lat="48.17546524650804" lon="11.54598462041111"><ele>508.0</ele><time>2026-03-27T08:32:15Z</time></trkpt><trkpt lat="48.17543203858934" lon="11.546070379735175"><ele>508.4</ele><time>2026-03-27T08:32:16Z</time></trkpt><trkpt lat="48.175394990591805" lon="11.546238901471156"><ele>508.79999999999995</ele><time>2026-03-27T08:32:18Z</time></trkpt><trkpt lat="48.17538716240243" lon="11.54641151627707"><ele>509.2</ele><time>2026-03-27T08:32:20Z</time></trkpt><trkpt lat="48.17540867416113" lon="11.546589535788275"><ele>509.6</ele><time>2026-03-27T08:32:22Z</time></trkpt><trkpt lat="48.175433478787596" lon="11.546679037111188"><ele>510.0</ele><time>2026-03-27T08:32:23Z</time></trkpt><trkpt lat="48.175467304392846" lon="11.54676568829718"><ele>510.0</ele><time>2026-03-27T08:32:24Z</time></trkpt><trkpt lat="48.17551090672934" lon="11.546847780973874"><ele>510.0</ele><time>2026-03-27T08:32:25Z</time></trkpt><trkpt lat="48.175558411152856" lon="11.546924138851162"><ele>510.0</ele><time>2026-03-27T08:32:26Z</time></trkpt><trkpt lat="48.175604404556054" lon="11.54700216659479"><ele>510.0</ele><time>2026-03-27T08:32:27Z</time></trkpt><trkpt lat="48.17567975367318" lon="11.547133733761521"><ele>510.0</ele><time>2026-03-27T08:32:29Z</time></trkpt><trkpt lat="48.1757563834061" lon="11.547278989614203"><ele>510.0</ele><time>2026-03-27T08:32:31Z</time></trkpt><trkpt lat="48.17580215654562" lon="11.547357467708595"><ele>510.6666666666667</ele><time>2026-03-27T08:32:32Z</time></trkpt><trkpt lat="48.17585127287482" lon="11.547437231669578"><ele>511.33333333333337</ele><time>2026-03-27T08:32:33Z</time></trkpt><trkpt lat="48.1758986247745" lon="11.547521107890745"><ele>512.0</ele><time>2026-03-27T08:32:34Z</time></trkpt><trkpt lat="48.17597342454938" lon="11.547658238818446"><ele>512.6666666666667</ele><time>2026-03-27T08:32:36Z</time></trkpt><trkpt lat="48.17601716699542" lon="11.547730704198784"><ele>513.3333333333334</ele><time>2026-03-27T08:32:38Z</time></trkpt><trkpt lat="48.17606359877254" lon="11.547845856616538"><ele>514.0</ele><time>2026-03-27T08:32:40.999Z</time></trkpt><trkpt lat="48.176101506808884" lon="11.548040591595441"><ele>514.0</ele><time>2026-03-27T08:32:42.999Z</time></trkpt><trkpt lat="48.17610173814024" lon="11.548156320707596"><ele>514.0</ele><time>2026-03-27T08:32:43.999Z</time></trkpt><trkpt lat="48.17610357111966" lon="11.548270825759678"><ele>514.0</ele><time>2026-03-27T08:32:44.999Z</time></trkpt><trkpt lat="48.17609474280999" lon="11.548393750095975"><ele>514.0</ele><time>2026-03-27T08:32:45.999Z</time></trkpt><trkpt lat="48.1760946335559" lon="11.548526120726565"><ele>514.0</ele><time>2026-03-27T08:32:46.999Z</time></trkpt><trkpt lat="48.17609176322058" lon="11.54866980635959"><ele>514.0</ele><time>2026-03-27T08:32:47.999Z</time></trkpt><trkpt lat="48.17608954729413" lon="11.548822070838796"><ele>513.75</ele><time>2026-03-27T08:32:48.999Z</time></trkpt><trkpt lat="48.17608892407829" lon="11.54897652730751"><ele>513.5</ele><time>2026-03-27T08:32:49.999Z</time></trkpt><trkpt lat="48.176092016827134" lon="11.549142320939032"><ele>513.25</ele><time>2026-03-27T08:32:50.999Z</time></trkpt><trkpt lat="48.17609141090506" lon="11.549310517955776"><ele>513.0</ele><time>2026-03-27T08:32:51.999Z</time></trkpt><trkpt lat="48.176090630482136" lon="11.549500839500933"><ele>512.75</ele><time>2026-03-27T08:32:52.999Z</time></trkpt><trkpt lat="48.17609065945289" lon="11.549705092893076"><ele>512.5</ele><time>2026-03-27T08:32:53.999Z</time></trkpt><trkpt lat="48.17608867854469" lon="11.549908565252617"><ele>512.25</ele><time>2026-03-27T08:32:54.999Z</time></trkpt><trkpt lat="48.17609183953407" lon="11.550095292640801"><ele>512.0</ele><time>2026-03-27T08:32:55.999Z</time></trkpt><trkpt lat="48.17609635027206" lon="11.550283983340167"><ele>511.25</ele><time>2026-03-27T08:32:56.999Z</time></trkpt><trkpt lat="48.17609640175194" lon="11.550478213113143"><ele>510.5</ele><time>2026-03-27T08:32:57.999Z</time></trkpt><trkpt lat="48.1760968687684" lon="11.550672946892263"><ele>509.75</ele><time>2026-03-27T08:32:58.999Z</time></trkpt><trkpt lat="48.17609659537777" lon="11.55085148050947"><ele>509.0</ele><time>2026-03-27T08:32:59.999Z</time></trkpt><trkpt lat="48.17609622444695" lon="11.551033011667675"><ele>509.0</ele><time>2026-03-27T08:33:00.999Z</time></trkpt><trkpt lat="48.176091473948674" lon="11.551224905570903"><ele>509.0</ele><time>2026-03-27T08:33:01.999Z</time></trkpt><trkpt lat="48.17608944711133" lon="11.551422851741725"><ele>509.0</ele><time>2026-03-27T08:33:02.999Z</time></trkpt><trkpt lat="48.17609006862901" lon="11.551621374603167"><ele>509.0</ele><time>2026-03-27T08:33:03.999Z</time></trkpt><trkpt lat="48.17608471356267" lon="11.551810681474395"><ele>509.0</ele><time>2026-03-27T08:33:04.999Z</time></trkpt><trkpt lat="48.176081566729394" lon="11.55200311459303"><ele>509.0</ele><time>2026-03-27T08:33:05.999Z</time></trkpt><trkpt lat="48.17608194242966" lon="11.552202828381873"><ele>509.0</ele><time>2026-03-27T08:33:06.999Z</time></trkpt><trkpt lat="48.17608170265263" lon="11.552403645908209"><ele>509.0</ele><time>2026-03-27T08:33:07.999Z</time></trkpt><trkpt lat="48.17608711677257" lon="11.552591090332504"><ele>509.5</ele><time>2026-03-27T08:33:08.999Z</time></trkpt><trkpt lat="48.17609315112597" lon="11.552794935286615"><ele>510.0</ele><time>2026-03-27T08:33:09.999Z</time></trkpt><trkpt lat="48.17609509919633" lon="11.553001823540676"><ele>510.5</ele><time>2026-03-27T08:33:10.999Z</time></trkpt><trkpt lat="48.17609459279037" lon="11.553183125815083"><ele>511.0</ele><time>2026-03-27T08:33:11.999Z</time></trkpt><trkpt lat="48.17609259552618" lon="11.553356516931776"><ele>511.75</ele><time>2026-03-27T08:33:12.999Z</time></trkpt><trkpt lat="48.17609228540141" lon="11.553530072420388"><ele>512.5</ele><time>2026-03-27T08:33:13.999Z</time></trkpt><trkpt lat="48.17609111563206" lon="11.553702692832934"><ele>513.25</ele><time>2026-03-27T08:33:14.999Z</time></trkpt><trkpt lat="48.17609317827383" lon="11.553872378140365"><ele>514.0</ele><time>2026-03-27T08:33:15.999Z</time></trkpt><trkpt lat="48.176092777695565" lon="11.554045040916675"><ele>512.4</ele><time>2026-03-27T08:33:16.999Z</time></trkpt><trkpt lat="48.17609084438262" lon="11.554217618685637"><ele>510.79999999999995</ele><time>2026-03-27T08:33:17.999Z</time></trkpt><trkpt lat="48.176089479173164" lon="11.55439072640687"><ele>509.20000000000005</ele><time>2026-03-27T08:33:18.999Z</time></trkpt><trkpt lat="48.1760862157217" lon="11.554549942690798"><ele>507.6</ele><time>2026-03-27T08:33:19.999Z</time></trkpt><trkpt lat="48.17608735195621" lon="11.554702797339672"><ele>506.0</ele><time>2026-03-27T08:33:20.999Z</time></trkpt><trkpt lat="48.176085113152716" lon="11.554852528510057"><ele>505.20000000000005</ele><time>2026-03-27T08:33:21.999Z</time></trkpt><trkpt lat="48.176084122296324" lon="11.554999627993677"><ele>504.40000000000003</ele><time>2026-03-27T08:33:22.999Z</time></trkpt><trkpt lat="48.17608285153218" lon="11.555146681785168"><ele>503.6</ele><time>2026-03-27T08:33:23.999Z</time></trkpt><trkpt lat="48.17608178436688" lon="11.555297119457473"><ele>502.8</ele><time>2026-03-27T08:33:24.999Z</time></trkpt><trkpt lat="48.17608196370948" lon="11.555454718236632"><ele>502.0</ele><time>2026-03-27T08:33:25.999Z</time></trkpt><trkpt lat="48.17607780293772" lon="11.55561272111406"><ele>502.0</ele><time>2026-03-27T08:33:26.999Z</time></trkpt><trkpt lat="48.17607090451024" lon="11.555777873288106"><ele>502.0</ele><time>2026-03-27T08:33:27.999Z</time></trkpt><trkpt lat="48.17606986817633" lon="11.555948977387278"><ele>502.0</ele><time>2026-03-27T08:33:28.999Z</time></trkpt><trkpt lat="48.17607024732039" lon="11.556122996955647"><ele>502.0</ele><time>2026-03-27T08:33:29.999Z</time></trkpt><trkpt lat="48.17606430915508" lon="11.556298358739852"><ele>502.6</ele><time>2026-03-27T08:33:30.999Z</time></trkpt><trkpt lat="48.17606073080337" lon="11.556467163245495"><ele>503.20000000000005</ele><time>2026-03-27T08:33:31.999Z</time></trkpt><trkpt lat="48.17605898006595" lon="11.556630610386302"><ele>503.8</ele><time>2026-03-27T08:33:32.999Z</time></trkpt><trkpt lat="48.17605861762871" lon="11.556792429866224"><ele>504.4</ele><time>2026-03-27T08:33:33.999Z</time></trkpt><trkpt lat="48.17605867617578" lon="11.556952386581777"><ele>505.0</ele><time>2026-03-27T08:33:34.999Z</time></trkpt><trkpt lat="48.17605728630701" lon="11.557108320376393"><ele>505.25</ele><time>2026-03-27T08:33:35.999Z</time></trkpt><trkpt lat="48.176056612483094" lon="11.557271906935728"><ele>505.5</ele><time>2026-03-27T08:33:36.999Z</time></trkpt><trkpt lat="48.17605542777357" lon="11.557440272582603"><ele>505.75</ele><time>2026-03-27T08:33:37.999Z</time></trkpt><trkpt lat="48.176053086310915" lon="11.557627732057739"><ele>506.0</ele><time>2026-03-27T08:33:38.999Z</time></trkpt><trkpt lat="48.176049836146284" lon="11.557827291655471"><ele>507.0</ele><time>2026-03-27T08:33:39.999Z</time></trkpt><trkpt lat="48.17604727137132" lon="11.55802913759723"><ele>508.0</ele><time>2026-03-27T08:33:40.999Z</time></trkpt><trkpt lat="48.17604744914833" lon="11.558228832704039"><ele>509.0</ele><time>2026-03-27T08:33:41.999Z</time></trkpt><trkpt lat="48.17604476014463" lon="11.558428182247773"><ele>510.0</ele><time>2026-03-27T08:33:42.999Z</time></trkpt><trkpt lat="48.17604282144889" lon="11.558626152890179"><ele>510.25</ele><time>2026-03-27T08:33:43.999Z</time></trkpt><trkpt lat="48.176041565167246" lon="11.558821984224888"><ele>510.5</ele><time>2026-03-27T08:33:44.999Z</time></trkpt><trkpt lat="48.17604035246366" lon="11.559014124317049"><ele>510.75</ele><time>2026-03-27T08:33:45.999Z</time></trkpt><trkpt lat="48.17604041822379" lon="11.559205714441564"><ele>511.0</ele><time>2026-03-27T08:33:46.999Z</time></trkpt><trkpt lat="48.17603998563198" lon="11.559394503575357"><ele>511.4</ele><time>2026-03-27T08:33:47.999Z</time></trkpt><trkpt lat="48.17602768879437" lon="11.559547817517402"><ele>511.8</ele><time>2026-03-27T08:33:48.999Z</time></trkpt><trkpt lat="48.176024340877" lon="11.559712027808946"><ele>512.1999999999999</ele><time>2026-03-27T08:33:49.999Z</time></trkpt><trkpt lat="48.176022352510905" lon="11.559868584076023"><ele>512.6</ele><time>2026-03-27T08:33:50.999Z</time></trkpt><trkpt lat="48.17602068564463" lon="11.56002427810924"><ele>513.0</ele><time>2026-03-27T08:33:51.999Z</time></trkpt><trkpt lat="48.176016969804365" lon="11.560185492765896"><ele>513.0</ele><time>2026-03-27T08:33:52.999Z</time></trkpt><trkpt lat="48.17601376430427" lon="11.560350759559437"><ele>513.0</ele><time>2026-03-27T08:33:53.999Z</time></trkpt><trkpt lat="48.176011400105956" lon="11.560519366835807"><ele>513.0</ele><time>2026-03-27T08:33:54.999Z</time></trkpt><trkpt lat="48.1760065441219" lon="11.560694063601888"><ele>513.0</ele><time>2026-03-27T08:33:55.999Z</time></trkpt><trkpt lat="48.1760009267806" lon="11.56087164698835"><ele>513.5</ele><time>2026-03-27T08:33:56.999Z</time></trkpt><trkpt lat="48.175998114344424" lon="11.561053477099069"><ele>514.0</ele><time>2026-03-27T08:33:57.999Z</time></trkpt><trkpt lat="48.175994092479854" lon="11.561238860241758"><ele>514.5</ele><time>2026-03-27T08:33:58.999Z</time></trkpt><trkpt lat="48.175989275695414" lon="11.561426786247035"><ele>515.0</ele><time>2026-03-27T08:33:59.999Z</time></trkpt><trkpt lat="48.17598485365606" lon="11.561613819341007"><ele>515.0</ele><time>2026-03-27T08:34:00.999Z</time></trkpt><trkpt lat="48.175979515603224" lon="11.561801035386592"><ele>515.0</ele><time>2026-03-27T08:34:01.999Z</time></trkpt><trkpt lat="48.17597772384394" lon="11.561995603961353"><ele>515.0</ele><time>2026-03-27T08:34:02.999Z</time></trkpt><trkpt lat="48.1759722011514" lon="11.562197971397465"><ele>515.0</ele><time>2026-03-27T08:34:03.999Z</time></trkpt><trkpt lat="48.17596893338528" lon="11.562399454439376"><ele>514.5</ele><time>2026-03-27T08:34:04.999Z</time></trkpt><trkpt lat="48.17596521441536" lon="11.562599391723834"><ele>514.0</ele><time>2026-03-27T08:34:05.999Z</time></trkpt><trkpt lat="48.17596322526488" lon="11.56279209515643"><ele>513.5</ele><time>2026-03-27T08:34:06.999Z</time></trkpt><trkpt lat="48.175958630876316" lon="11.562975234953178"><ele>513.0</ele><time>2026-03-27T08:34:07.999Z</time></trkpt><trkpt lat="48.175953323193674" lon="11.563154714363844"><ele>513.0</ele><time>2026-03-27T08:34:08.999Z</time></trkpt><trkpt lat="48.17595043970167" lon="11.563338339351882"><ele>513.0</ele><time>2026-03-27T08:34:09.999Z</time></trkpt><trkpt lat="48.175945183755815" lon="11.563532160185998"><ele>513.0</ele><time>2026-03-27T08:34:10.998Z</time></trkpt><trkpt lat="48.17593939020065" lon="11.56372826021478"><ele>513.0</ele><time>2026-03-27T08:34:11.998Z</time></trkpt><trkpt lat="48.17593655046994" lon="11.563921061603946"><ele>513.5</ele><time>2026-03-27T08:34:12.998Z</time></trkpt><trkpt lat="48.17593516721126" lon="11.564110330249708"><ele>514.0</ele><time>2026-03-27T08:34:13.998Z</time></trkpt><trkpt lat="48.17593049319553" lon="11.564297265949715"><ele>514.5</ele><time>2026-03-27T08:34:14.998Z</time></trkpt><trkpt lat="48.17592813981981" lon="11.564482695339631"><ele>515.0</ele><time>2026-03-27T08:34:16Z</time></trkpt><trkpt lat="48.175930497987274" lon="11.564671653454399"><ele>515.5</ele><time>2026-03-27T08:34:17Z</time></trkpt><trkpt lat="48.175938798840086" lon="11.564862495439176"><ele>516.0</ele><time>2026-03-27T08:34:18Z</time></trkpt><trkpt lat="48.175953580648766" lon="11.565049239088875"><ele>516.5</ele><time>2026-03-27T08:34:19Z</time></trkpt><trkpt lat="48.17597202700794" lon="11.565225253992104"><ele>517.0</ele><time>2026-03-27T08:34:20Z</time></trkpt><trkpt lat="48.17599135862008" lon="11.565385905044053"><ele>516.2</ele><time>2026-03-27T08:34:21Z</time></trkpt><trkpt lat="48.176013974861995" lon="11.565544914243809"><ele>515.4000000000001</ele><time>2026-03-27T08:34:22Z</time></trkpt><trkpt lat="48.17604370959189" lon="11.565703273255714"><ele>514.5999999999999</ele><time>2026-03-27T08:34:23Z</time></trkpt><trkpt lat="48.17607669464005" lon="11.565864430922828"><ele>513.8</ele><time>2026-03-27T08:34:24Z</time></trkpt><trkpt lat="48.176116068875196" lon="11.566029052199287"><ele>513.0</ele><time>2026-03-27T08:34:25Z</time></trkpt><trkpt lat="48.17615908436455" lon="11.566199498601245"><ele>512.25</ele><time>2026-03-27T08:34:26Z</time></trkpt><trkpt lat="48.17620660020535" lon="11.566375130648993"><ele>511.5</ele><time>2026-03-27T08:34:27Z</time></trkpt><trkpt lat="48.17625831346294" lon="11.566551531666716"><ele>510.75</ele><time>2026-03-27T08:34:28Z</time></trkpt><trkpt lat="48.176307895032174" lon="11.566725851041197"><ele>510.0</ele><time>2026-03-27T08:34:29Z</time></trkpt><trkpt lat="48.176354475461565" lon="11.566890896513286"><ele>510.0</ele><time>2026-03-27T08:34:30Z</time></trkpt><trkpt lat="48.176400674874664" lon="11.567055285287019"><ele>510.0</ele><time>2026-03-27T08:34:31Z</time></trkpt><trkpt lat="48.17644936658041" lon="11.567220685104353"><ele>510.0</ele><time>2026-03-27T08:34:32Z</time></trkpt><trkpt lat="48.17650037375229" lon="11.567393666510181"><ele>510.0</ele><time>2026-03-27T08:34:33Z</time></trkpt><trkpt lat="48.176560535835485" lon="11.567580007310816"><ele>510.0</ele><time>2026-03-27T08:34:34Z</time></trkpt><trkpt lat="48.17661936665492" lon="11.567773108096947"><ele>510.0</ele><time>2026-03-27T08:34:35Z</time></trkpt><trkpt lat="48.17668126455921" lon="11.56797737868721"><ele>510.0</ele><time>2026-03-27T08:34:36Z</time></trkpt><trkpt lat="48.17675005451261" lon="11.568191492893185"><ele>510.0</ele><time>2026-03-27T08:34:37Z</time></trkpt><trkpt lat="48.176814573142025" lon="11.568396089099458"><ele>510.0</ele><time>2026-03-27T08:34:38Z</time></trkpt><trkpt lat="48.17686780587051" lon="11.56858861729952"><ele>510.0</ele><time>2026-03-27T08:34:39Z</time></trkpt><trkpt lat="48.176919547585136" lon="11.568774260809983"><ele>510.0</ele><time>2026-03-27T08:34:40Z</time></trkpt><trkpt lat="48.176964839655106" lon="11.568945994224764"><ele>509.75</ele><time>2026-03-27T08:34:41Z</time></trkpt><trkpt lat="48.17700646440404" lon="11.569107210143448"><ele>509.5</ele><time>2026-03-27T08:34:42Z</time></trkpt><trkpt lat="48.17704492344151" lon="11.569279394326314"><ele>509.25</ele><time>2026-03-27T08:34:43Z</time></trkpt><trkpt lat="48.17709084718847" lon="11.569462801343935"><ele>509.0</ele><time>2026-03-27T08:34:44Z</time></trkpt><trkpt lat="48.17713118501155" lon="11.569654803453023"><ele>509.0</ele><time>2026-03-27T08:34:45Z</time></trkpt><trkpt lat="48.177177503400785" lon="11.569843601153156"><ele>509.0</ele><time>2026-03-27T08:34:46Z</time></trkpt><trkpt lat="48.177298358679046" lon="11.5700218571354"><ele>509.0</ele><time>2026-03-27T08:34:47Z</time></trkpt><trkpt lat="48.17735881954657" lon="11.570185584952066"><ele>509.0</ele><time>2026-03-27T08:34:48Z</time></trkpt><trkpt lat="48.177402934426375" lon="11.570328746395239"><ele>508.25</ele><time>2026-03-27T08:34:49Z</time></trkpt><trkpt lat="48.17745507770606" lon="11.570476513914734"><ele>507.5</ele><time>2026-03-27T08:34:50Z</time></trkpt><trkpt lat="48.17750159629287" lon="11.57063299192563"><ele>506.75</ele><time>2026-03-27T08:34:51Z</time></trkpt><trkpt lat="48.177558868059904" lon="11.570804823673047"><ele>506.0</ele><time>2026-03-27T08:34:52Z</time></trkpt><trkpt lat="48.17762099116611" lon="11.57099460027429"><ele>506.0</ele><time>2026-03-27T08:34:52.999Z</time></trkpt><trkpt lat="48.17767803961348" lon="11.571163002919022"><ele>506.0</ele><time>2026-03-27T08:34:53.999Z</time></trkpt><trkpt lat="48.17773376578198" lon="11.571334178419722"><ele>506.0</ele><time>2026-03-27T08:34:54.999Z</time></trkpt><trkpt lat="48.17779223399559" lon="11.571513878841673"><ele>506.0</ele><time>2026-03-27T08:34:55.999Z</time></trkpt><trkpt lat="48.17784749277438" lon="11.571703416608614"><ele>505.75</ele><time>2026-03-27T08:34:56.999Z</time></trkpt><trkpt lat="48.1778785360606" lon="11.571847915808927"><ele>505.5</ele><time>2026-03-27T08:34:57.999Z</time></trkpt><trkpt lat="48.17792354887635" lon="11.572024039010852"><ele>505.25</ele><time>2026-03-27T08:34:58.999Z</time></trkpt><trkpt lat="48.17795112242744" lon="11.572172767609812"><ele>505.0</ele><time>2026-03-27T08:34:59.999Z</time></trkpt><trkpt lat="48.17799018033161" lon="11.572356933842169"><ele>505.2</ele><time>2026-03-27T08:35:00.999Z</time></trkpt><trkpt lat="48.17802575711181" lon="11.572529975577824"><ele>505.4</ele><time>2026-03-27T08:35:01.999Z</time></trkpt><trkpt lat="48.17803852077468" lon="11.572656047855434"><ele>505.6</ele><time>2026-03-27T08:35:02.999Z</time></trkpt><trkpt lat="48.17802412832528" lon="11.572773551984888"><ele>505.8</ele><time>2026-03-27T08:35:04.999Z</time></trkpt><trkpt lat="48.178042783409424" lon="11.572925432433344"><ele>506.0</ele><time>2026-03-27T08:35:05.999Z</time></trkpt><trkpt lat="48.17805513575801" lon="11.573061037050579"><ele>505.99999999999994</ele><time>2026-03-27T08:35:06.999Z</time></trkpt><trkpt lat="48.17806195592175" lon="11.573188245922932"><ele>506.0</ele><time>2026-03-27T08:35:07.999Z</time></trkpt><trkpt lat="48.17800231817564" lon="11.573307586405189"><ele>506.0</ele><time>2026-03-27T08:35:08.999Z</time></trkpt><trkpt lat="48.17800832313574" lon="11.573433276563692"><ele>506.0</ele><time>2026-03-27T08:35:10.999Z</time></trkpt><trkpt lat="48.17798313558498" lon="11.573281766175205"><ele>505.99999999999994</ele><time>2026-03-27T08:35:11.999Z</time></trkpt><trkpt lat="48.17796276186675" lon="11.573382420321886"><ele>506.0</ele><time>2026-03-27T08:35:12.999Z</time></trkpt><trkpt lat="48.17796308567154" lon="11.57348331963785"><ele>506.0</ele><time>2026-03-27T08:35:13.999Z</time></trkpt><trkpt lat="48.177967163726244" lon="11.573649358393558"><ele>506.0</ele><time>2026-03-27T08:35:14.999Z</time></trkpt><trkpt lat="48.17796489839808" lon="11.573767612536077"><ele>506.0</ele><time>2026-03-27T08:35:15.999Z</time></trkpt><trkpt lat="48.17796386721304" lon="11.573903947075543"><ele>506.0</ele><time>2026-03-27T08:35:16.999Z</time></trkpt><trkpt lat="48.17796869336211" lon="11.574093363517598"><ele>506.0</ele><time>2026-03-27T08:35:17.999Z</time></trkpt><trkpt lat="48.177967279341715" lon="11.574232713482466"><ele>506.3333333333333</ele><time>2026-03-27T08:35:18.999Z</time></trkpt><trkpt lat="48.17796943720203" lon="11.574385355946333"><ele>506.66666666666663</ele><time>2026-03-27T08:35:19.999Z</time></trkpt><trkpt lat="48.1779623082552" lon="11.574497780832608"><ele>507.0</ele><time>2026-03-27T08:35:21.999Z</time></trkpt><trkpt lat="48.17796002703939" lon="11.574618527833259"><ele>507.33333333333337</ele><time>2026-03-27T08:35:22.999Z</time></trkpt><trkpt lat="48.1779568341149" lon="11.574731144520541"><ele>507.6666666666667</ele><time>2026-03-27T08:35:23.999Z</time></trkpt><trkpt lat="48.17795346181105" lon="11.574854052945279"><ele>508.0</ele><time>2026-03-27T08:35:24.999Z</time></trkpt><trkpt lat="48.17795310715394" lon="11.574974330627901"><ele>508.0</ele><time>2026-03-27T08:35:26.008Z</time></trkpt><trkpt lat="48.177944641555555" lon="11.575516952647968"><ele>508.0</ele><time>2026-03-27T08:35:29.96Z</time></trkpt><trkpt lat="48.17793569591416" lon="11.57565352491036"><ele>508.0</ele><time>2026-03-27T08:35:30.959Z</time></trkpt><trkpt lat="48.177925327041166" lon="11.575790202622679"><ele>507.99999999999994</ele><time>2026-03-27T08:35:31.959Z</time></trkpt><trkpt lat="48.17791312791336" lon="11.57592663907731"><ele>507.99999999999994</ele><time>2026-03-27T08:35:32.961Z</time></trkpt><trkpt lat="48.17790094986022" lon="11.576062839830426"><ele>508.0</ele><time>2026-03-27T08:35:33.961Z</time></trkpt><trkpt lat="48.17788818756373" lon="11.576198982121369"><ele>508.0</ele><time>2026-03-27T08:35:34.961Z</time></trkpt><trkpt lat="48.177875367049005" lon="11.576335089671494"><ele>507.79999999999995</ele><time>2026-03-27T08:35:35.961Z</time></trkpt><trkpt lat="48.177862547186876" lon="11.57647119029352"><ele>507.59999999999997</ele><time>2026-03-27T08:35:36.961Z</time></trkpt><trkpt lat="48.17784972674857" lon="11.57660729703239"><ele>507.40000000000003</ele><time>2026-03-27T08:35:37.961Z</time></trkpt><trkpt lat="48.17783684153449" lon="11.576743385216632"><ele>507.20000000000005</ele><time>2026-03-27T08:35:38.961Z</time></trkpt><trkpt lat="48.177824079240544" lon="11.576879508614041"><ele>507.0</ele><time>2026-03-27T08:35:39.961Z</time></trkpt><trkpt lat="48.17781172315326" lon="11.577015724210755"><ele>506.8</ele><time>2026-03-27T08:35:40.961Z</time></trkpt><trkpt lat="48.177799369314954" lon="11.57715191501432"><ele>506.6</ele><time>2026-03-27T08:35:41.961Z</time></trkpt><trkpt lat="48.17778758855241" lon="11.577287598762894"><ele>506.40000000000003</ele><time>2026-03-27T08:35:42.956Z</time></trkpt><trkpt lat="48.177776060985444" lon="11.577424660934765"><ele>506.20000000000005</ele><time>2026-03-27T08:35:43.961Z</time></trkpt><trkpt lat="48.177764586177034" lon="11.577561095810136"><ele>506.0</ele><time>2026-03-27T08:35:44.962Z</time></trkpt><trkpt lat="48.17775311106099" lon="11.577697534343354"><ele>506.0</ele><time>2026-03-27T08:35:45.962Z</time></trkpt><trkpt lat="48.17774165934213" lon="11.57783369468506"><ele>506.0</ele><time>2026-03-27T08:35:46.961Z</time></trkpt><trkpt lat="48.17773018885849" lon="11.57797007813922"><ele>506.0</ele><time>2026-03-27T08:35:47.961Z</time></trkpt><trkpt lat="48.177718723686795" lon="11.578106398434544"><ele>506.0</ele><time>2026-03-27T08:35:48.96Z</time></trkpt><trkpt lat="48.17770730458757" lon="11.57824217093059"><ele>506.0</ele><time>2026-03-27T08:35:49.956Z</time></trkpt><trkpt lat="48.177695781022685" lon="11.578379185517926"><ele>506.20000000000005</ele><time>2026-03-27T08:35:50.961Z</time></trkpt><trkpt lat="48.177684311858485" lon="11.578515553283985"><ele>506.40000000000003</ele><time>2026-03-27T08:35:51.961Z</time></trkpt><trkpt lat="48.17767290330147" lon="11.57865195124137"><ele>506.6</ele><time>2026-03-27T08:35:52.961Z</time></trkpt><trkpt lat="48.17766155534533" lon="11.578788298653805"><ele>506.8</ele><time>2026-03-27T08:35:53.96Z</time></trkpt><trkpt lat="48.177650211838724" lon="11.578924592604348"><ele>507.0</ele><time>2026-03-27T08:35:54.96Z</time></trkpt><trkpt lat="48.17763884758114" lon="11.579061135881114"><ele>507.20000000000005</ele><time>2026-03-27T08:35:55.961Z</time></trkpt><trkpt lat="48.17762752948076" lon="11.57919712457207"><ele>507.40000000000003</ele><time>2026-03-27T08:35:56.958Z</time></trkpt><trkpt lat="48.177616165551434" lon="11.579333481643339"><ele>507.59999999999997</ele><time>2026-03-27T08:35:57.957Z</time></trkpt><trkpt lat="48.17760476033759" lon="11.579470307771164"><ele>507.79999999999995</ele><time>2026-03-27T08:35:58.961Z</time></trkpt><trkpt lat="48.17759341528978" lon="11.5796066997589"><ele>508.0</ele><time>2026-03-27T08:35:59.96Z</time></trkpt><trkpt lat="48.177582064594446" lon="11.579742441263928"><ele>507.79999999999995</ele><time>2026-03-27T08:36:00.956Z</time></trkpt><trkpt lat="48.17757052970317" lon="11.579879360423403"><ele>507.59999999999997</ele><time>2026-03-27T08:36:01.96Z</time></trkpt><trkpt lat="48.17755903266503" lon="11.580015830266143"><ele>507.40000000000003</ele><time>2026-03-27T08:36:02.961Z</time></trkpt><trkpt lat="48.17754754427973" lon="11.580152197399554"><ele>507.20000000000005</ele><time>2026-03-27T08:36:03.96Z</time></trkpt><trkpt lat="48.177536055731466" lon="11.580288566467503"><ele>507.0</ele><time>2026-03-27T08:36:04.96Z</time></trkpt><trkpt lat="48.17752529466045" lon="11.580425062199437"><ele>507.0</ele><time>2026-03-27T08:36:05.96Z</time></trkpt><trkpt lat="48.17751527973868" lon="11.580561126998688"><ele>507.00000000000006</ele><time>2026-03-27T08:36:06.956Z</time></trkpt><trkpt lat="48.17750565244204" lon="11.580697802747553"><ele>507.00000000000006</ele><time>2026-03-27T08:36:07.956Z</time></trkpt><trkpt lat="48.17749774219031" lon="11.580835314563572"><ele>507.0</ele><time>2026-03-27T08:36:08.96Z</time></trkpt><trkpt lat="48.17749059438068" lon="11.580972137106126"><ele>507.0</ele><time>2026-03-27T08:36:09.959Z</time></trkpt><trkpt lat="48.17748505399725" lon="11.581109389040613"><ele>507.33333333333337</ele><time>2026-03-27T08:36:10.959Z</time></trkpt><trkpt lat="48.17748007848072" lon="11.581246771832467"><ele>507.6666666666667</ele><time>2026-03-27T08:36:11.96Z</time></trkpt><trkpt lat="48.17747510787042" lon="11.581384019154486"><ele>508.0</ele><time>2026-03-27T08:36:12.96Z</time></trkpt><trkpt lat="48.17746017804136" lon="11.583817052331643"><ele>508.2</ele><time>2026-03-27T08:36:24.998Z</time></trkpt><trkpt lat="48.17744762676457" lon="11.583969135535753"><ele>508.4</ele><time>2026-03-27T08:36:26.998Z</time></trkpt><trkpt lat="48.17739247219152" lon="11.58406382432152"><ele>508.59999999999997</ele><time>2026-03-27T08:36:28.998Z</time></trkpt><trkpt lat="48.17734715891359" lon="11.584253903928019"><ele>508.79999999999995</ele><time>2026-03-27T08:36:31Z</time></trkpt><trkpt lat="48.177345730692096" lon="11.58435661505363"><ele>509.0</ele><time>2026-03-27T08:36:32Z</time></trkpt><trkpt lat="48.1773394839581" lon="11.584458892765086"><ele>509.4</ele><time>2026-03-27T08:36:33Z</time></trkpt><trkpt lat="48.17734391708518" lon="11.584562815974989"><ele>509.79999999999995</ele><time>2026-03-27T08:36:34Z</time></trkpt><trkpt lat="48.17734102729457" lon="11.584719823253153"><ele>510.20000000000005</ele><time>2026-03-27T08:36:36Z</time></trkpt><trkpt lat="48.177338995964895" lon="11.584899183048483"><ele>510.6</ele><time>2026-03-27T08:36:38Z</time></trkpt><trkpt lat="48.17733933074186" lon="11.585029283800392"><ele>511.0</ele><time>2026-03-27T08:36:40Z</time></trkpt><trkpt lat="48.17734789703772" lon="11.585151796384691"><ele>510.20000000000005</ele><time>2026-03-27T08:36:43Z</time></trkpt><trkpt lat="48.177370245415844" lon="11.585295359371381"><ele>509.40000000000003</ele><time>2026-03-27T08:36:50Z</time></trkpt><trkpt lat="48.17738953166475" lon="11.585414688996112"><ele>508.6</ele><time>2026-03-27T08:36:52Z</time></trkpt><trkpt lat="48.17739175053608" lon="11.585535479288886"><ele>507.8</ele><time>2026-03-27T08:36:54Z</time></trkpt><trkpt lat="48.17755669904816" lon="11.585581532339159"><ele>507.0</ele><time>2026-03-27T08:36:56Z</time></trkpt><trkpt lat="48.17768442319715" lon="11.585565524905368"><ele>507.0</ele><time>2026-03-27T08:36:58Z</time></trkpt><trkpt lat="48.177764495128" lon="11.585537647911579"><ele>507.0</ele><time>2026-03-27T08:36:59Z</time></trkpt><trkpt lat="48.17784437948548" lon="11.58549666684387"><ele>507.0</ele><time>2026-03-27T08:37:00Z</time></trkpt><trkpt lat="48.17792254844454" lon="11.585441985512997"><ele>507.0</ele><time>2026-03-27T08:37:01Z</time></trkpt><trkpt lat="48.178001003218434" lon="11.585381974636086"><ele>507.0</ele><time>2026-03-27T08:37:02Z</time></trkpt><trkpt lat="48.17808790254432" lon="11.58534953225311"><ele>507.0</ele><time>2026-03-27T08:37:03Z</time></trkpt><trkpt lat="48.17818572241357" lon="11.585328005189652"><ele>506.8</ele><time>2026-03-27T08:37:04Z</time></trkpt><trkpt lat="48.17829478195902" lon="11.585311246774463"><ele>506.6</ele><time>2026-03-27T08:37:05Z</time></trkpt><trkpt lat="48.17840065311529" lon="11.585303005644743"><ele>506.40000000000003</ele><time>2026-03-27T08:37:06Z</time></trkpt><trkpt lat="48.17849979744236" lon="11.585295979083883"><ele>506.20000000000005</ele><time>2026-03-27T08:37:07Z</time></trkpt><trkpt lat="48.178598630382105" lon="11.585288203901696"><ele>506.0</ele><time>2026-03-27T08:37:08Z</time></trkpt><trkpt lat="48.1787018786213" lon="11.585283925868533"><ele>506.0</ele><time>2026-03-27T08:37:09Z</time></trkpt><trkpt lat="48.178804560390624" lon="11.58527343945444"><ele>506.0</ele><time>2026-03-27T08:37:10Z</time></trkpt><trkpt lat="48.178907724909294" lon="11.585263524920432"><ele>506.0</ele><time>2026-03-27T08:37:11Z</time></trkpt><trkpt lat="48.17901411827317" lon="11.585252275281789"><ele>506.0</ele><time>2026-03-27T08:37:12Z</time></trkpt><trkpt lat="48.17912224482685" lon="11.585242457808347"><ele>506.0</ele><time>2026-03-27T08:37:13Z</time></trkpt><trkpt lat="48.17923344844063" lon="11.585233131657072"><ele>505.5</ele><time>2026-03-27T08:37:14Z</time></trkpt><trkpt lat="48.179347833613335" lon="11.585220824603397"><ele>505.0</ele><time>2026-03-27T08:37:15Z</time></trkpt><trkpt lat="48.17947032116553" lon="11.585202478314768"><ele>504.5</ele><time>2026-03-27T08:37:16Z</time></trkpt><trkpt lat="48.17959418750727" lon="11.585179615660397"><ele>504.0</ele><time>2026-03-27T08:37:17Z</time></trkpt><trkpt lat="48.17970887001477" lon="11.585162774515105"><ele>504.0</ele><time>2026-03-27T08:37:18Z</time></trkpt><trkpt lat="48.17981718553654" lon="11.585150323353805"><ele>504.0</ele><time>2026-03-27T08:37:19Z</time></trkpt><trkpt lat="48.17992311000899" lon="11.585138894310159"><ele>504.0</ele><time>2026-03-27T08:37:19.999Z</time></trkpt><trkpt lat="48.180029301714505" lon="11.5851316441539"><ele>504.0</ele><time>2026-03-27T08:37:20.999Z</time></trkpt><trkpt lat="48.18013711837743" lon="11.585132993082883"><ele>504.0</ele><time>2026-03-27T08:37:21.999Z</time></trkpt><trkpt lat="48.180246406576366" lon="11.585141209178701"><ele>504.79999999999995</ele><time>2026-03-27T08:37:22.999Z</time></trkpt><trkpt lat="48.18035709526074" lon="11.585131474850677"><ele>505.59999999999997</ele><time>2026-03-27T08:37:23.999Z</time></trkpt><trkpt lat="48.180468077360224" lon="11.585118217831658"><ele>506.4</ele><time>2026-03-27T08:37:24.999Z</time></trkpt><trkpt lat="48.18057063848859" lon="11.585111509503683"><ele>507.2</ele><time>2026-03-27T08:37:25.999Z</time></trkpt><trkpt lat="48.18066019837073" lon="11.585106502961267"><ele>508.0</ele><time>2026-03-27T08:37:26.999Z</time></trkpt><trkpt lat="48.18074334811276" lon="11.58510259228496"><ele>508.33333333333337</ele><time>2026-03-27T08:37:27.999Z</time></trkpt><trkpt lat="48.180820579127605" lon="11.58509555265189"><ele>508.6666666666667</ele><time>2026-03-27T08:37:28.999Z</time></trkpt><trkpt lat="48.18088847153173" lon="11.585089742207662"><ele>509.0</ele><time>2026-03-27T08:37:29.999Z</time></trkpt><trkpt lat="48.180999651238885" lon="11.585075752738486"><ele>509.33333333333337</ele><time>2026-03-27T08:37:31.999Z</time></trkpt><trkpt lat="48.181081036864825" lon="11.585064338642306"><ele>509.6666666666667</ele><time>2026-03-27T08:37:34.999Z</time></trkpt><trkpt lat="48.18114785090796" lon="11.585064163464603"><ele>510.0</ele><time>2026-03-27T08:37:50.999Z</time></trkpt><trkpt lat="48.18124255041778" lon="11.585052514531199"><ele>510.0</ele><time>2026-03-27T08:37:52.999Z</time></trkpt><trkpt lat="48.18136465520311" lon="11.58503968016523"><ele>510.0</ele><time>2026-03-27T08:37:54.999Z</time></trkpt><trkpt lat="48.18147732158672" lon="11.585028719176373"><ele>510.0</ele><time>2026-03-27T08:37:56.999Z</time></trkpt><trkpt lat="48.18160408445583" lon="11.58501621050653"><ele>510.0</ele><time>2026-03-27T08:37:58.999Z</time></trkpt><trkpt lat="48.18168214441608" lon="11.58501130199088"><ele>510.0</ele><time>2026-03-27T08:37:59.999Z</time></trkpt><trkpt lat="48.1817658901625" lon="11.585003657202167"><ele>509.2</ele><time>2026-03-27T08:38:00.999Z</time></trkpt><trkpt lat="48.18186094613078" lon="11.58499066689867"><ele>508.4</ele><time>2026-03-27T08:38:01.999Z</time></trkpt><trkpt lat="48.18196794979151" lon="11.584978257808034"><ele>507.6</ele><time>2026-03-27T08:38:02.999Z</time></trkpt><trkpt lat="48.182076863451755" lon="11.58496411261739"><ele>506.8</ele><time>2026-03-27T08:38:03.999Z</time></trkpt><trkpt lat="48.182169260083775" lon="11.58495786000153"><ele>506.0</ele><time>2026-03-27T08:38:04.999Z</time></trkpt><trkpt lat="48.182251500590226" lon="11.584954611845934"><ele>506.0</ele><time>2026-03-27T08:38:05.999Z</time></trkpt><trkpt lat="48.18233421636485" lon="11.584948265496392"><ele>506.0</ele><time>2026-03-27T08:38:06.999Z</time></trkpt><trkpt lat="48.18242140893794" lon="11.584940854402259"><ele>506.0</ele><time>2026-03-27T08:38:07.999Z</time></trkpt><trkpt lat="48.18251607017375" lon="11.584930862071976"><ele>506.0</ele><time>2026-03-27T08:38:08.999Z</time></trkpt><trkpt lat="48.182616611603976" lon="11.584922194625886"><ele>506.0</ele><time>2026-03-27T08:38:09.999Z</time></trkpt><trkpt lat="48.182720644711125" lon="11.584914051875588"><ele>506.0</ele><time>2026-03-27T08:38:10.999Z</time></trkpt><trkpt lat="48.18281422281445" lon="11.584905608702442"><ele>506.0</ele><time>2026-03-27T08:38:11.999Z</time></trkpt><trkpt lat="48.18290854462565" lon="11.584897114616421"><ele>506.0</ele><time>2026-03-27T08:38:12.999Z</time></trkpt><trkpt lat="48.183000238157014" lon="11.584881383639233"><ele>506.0</ele><time>2026-03-27T08:38:13.999Z</time></trkpt><trkpt lat="48.18309097419794" lon="11.584874827594254"><ele>506.0</ele><time>2026-03-27T08:38:14.999Z</time></trkpt><trkpt lat="48.183183629755696" lon="11.584866442472652"><ele>506.4</ele><time>2026-03-27T08:38:15.999Z</time></trkpt><trkpt lat="48.18327503344835" lon="11.584861652431828"><ele>506.8</ele><time>2026-03-27T08:38:16.999Z</time></trkpt><trkpt lat="48.183366126395704" lon="11.584849928854423"><ele>507.19999999999993</ele><time>2026-03-27T08:38:17.999Z</time></trkpt><trkpt lat="48.18346019803882" lon="11.584842839996403"><ele>507.59999999999997</ele><time>2026-03-27T08:38:18.999Z</time></trkpt><trkpt lat="48.183556962659885" lon="11.584832059248717"><ele>508.0</ele><time>2026-03-27T08:38:19.999Z</time></trkpt><trkpt lat="48.183660381062154" lon="11.584822290913197"><ele>508.0</ele><time>2026-03-27T08:38:20.999Z</time></trkpt><trkpt lat="48.1837713687804" lon="11.584812874454906"><ele>507.99999999999994</ele><time>2026-03-27T08:38:21.999Z</time></trkpt><trkpt lat="48.18388694391992" lon="11.584799013847968"><ele>507.99999999999994</ele><time>2026-03-27T08:38:22.999Z</time></trkpt><trkpt lat="48.18396712437866" lon="11.584795305804377"><ele>508.0</ele><time>2026-03-27T08:38:23.999Z</time></trkpt><trkpt lat="48.18404789488288" lon="11.584787732109326"><ele>508.0</ele><time>2026-03-27T08:38:25.999Z</time></trkpt><trkpt lat="48.184114307359124" lon="11.584768406368177"><ele>507.6666666666667</ele><time>2026-03-27T08:39:05Z</time></trkpt><trkpt lat="48.18419175582118" lon="11.584760273155169"><ele>507.33333333333337</ele><time>2026-03-27T08:39:07Z</time></trkpt><trkpt lat="48.18432280085432" lon="11.584748284429546"><ele>507.0</ele><time>2026-03-27T08:39:09Z</time></trkpt><trkpt lat="48.18439572486106" lon="11.584742790427999"><ele>506.66666666666663</ele><time>2026-03-27T08:39:10Z</time></trkpt><trkpt lat="48.18447458791069" lon="11.584742204286556"><ele>506.3333333333333</ele><time>2026-03-27T08:39:11Z</time></trkpt><trkpt lat="48.18455706385358" lon="11.584731783313599"><ele>506.0</ele><time>2026-03-27T08:39:12Z</time></trkpt><trkpt lat="48.184644488932236" lon="11.584725149007186"><ele>506.0</ele><time>2026-03-27T08:39:13Z</time></trkpt><trkpt lat="48.18473574180742" lon="11.584717490692805"><ele>506.0</ele><time>2026-03-27T08:39:14Z</time></trkpt><trkpt lat="48.18483113818288" lon="11.584711626482152"><ele>506.0</ele><time>2026-03-27T08:39:15Z</time></trkpt><trkpt lat="48.18493273263753" lon="11.584703324433892"><ele>506.0</ele><time>2026-03-27T08:39:16Z</time></trkpt><trkpt lat="48.1850426852182" lon="11.584695061230276"><ele>506.0</ele><time>2026-03-27T08:39:17Z</time></trkpt><trkpt lat="48.185155859886265" lon="11.58468518180353"><ele>505.75</ele><time>2026-03-27T08:39:18Z</time></trkpt><trkpt lat="48.18527220462223" lon="11.584672936669852"><ele>505.5</ele><time>2026-03-27T08:39:19Z</time></trkpt><trkpt lat="48.185387109555094" lon="11.584664936984405"><ele>505.25</ele><time>2026-03-27T08:39:20Z</time></trkpt><trkpt lat="48.18550009216947" lon="11.584657034310233"><ele>505.0</ele><time>2026-03-27T08:39:21Z</time></trkpt><trkpt lat="48.185606615296344" lon="11.584645548500248"><ele>505.2</ele><time>2026-03-27T08:39:22Z</time></trkpt><trkpt lat="48.185716891107695" lon="11.584641809817587"><ele>505.4</ele><time>2026-03-27T08:39:23Z</time></trkpt><trkpt lat="48.185833456666664" lon="11.58463676578762"><ele>505.6</ele><time>2026-03-27T08:39:24Z</time></trkpt><trkpt lat="48.18594185477727" lon="11.584628102656536"><ele>505.8</ele><time>2026-03-27T08:39:25Z</time></trkpt><trkpt lat="48.186041025091605" lon="11.584620864605737"><ele>506.0</ele><time>2026-03-27T08:39:26Z</time></trkpt><trkpt lat="48.18613592646413" lon="11.584612731730996"><ele>505.99999999999994</ele><time>2026-03-27T08:39:27Z</time></trkpt><trkpt lat="48.18622560344385" lon="11.584602340800112"><ele>506.0</ele><time>2026-03-27T08:39:28Z</time></trkpt><trkpt lat="48.186311238189525" lon="11.584598565782365"><ele>506.0</ele><time>2026-03-27T08:39:29Z</time></trkpt><trkpt lat="48.18639920909514" lon="11.584591481823274"><ele>506.0</ele><time>2026-03-27T08:39:30Z</time></trkpt><trkpt lat="48.18648737323222" lon="11.584586592141605"><ele>505.99999999999994</ele><time>2026-03-27T08:39:31Z</time></trkpt><trkpt lat="48.18657439903411" lon="11.584580797698733"><ele>506.0</ele><time>2026-03-27T08:39:32Z</time></trkpt><trkpt lat="48.18665991358136" lon="11.584571547553772"><ele>505.99999999999994</ele><time>2026-03-27T08:39:32.999Z</time></trkpt><trkpt lat="48.18674116918013" lon="11.584561341486927"><ele>506.0</ele><time>2026-03-27T08:39:33.999Z</time></trkpt><trkpt lat="48.1868146985461" lon="11.584550325326227"><ele>506.0</ele><time>2026-03-27T08:39:34.999Z</time></trkpt><trkpt lat="48.18688246395275" lon="11.584541461935268"><ele>506.0</ele><time>2026-03-27T08:39:35.999Z</time></trkpt><trkpt lat="48.186948686858294" lon="11.584539444198919"><ele>505.99999999999994</ele><time>2026-03-27T08:39:36.999Z</time></trkpt><trkpt lat="48.18705957733635" lon="11.584529032189053"><ele>506.0</ele><time>2026-03-27T08:39:38.999Z</time></trkpt><trkpt lat="48.18713231489137" lon="11.584523910505496"><ele>505.99999999999994</ele><time>2026-03-27T08:39:40.999Z</time></trkpt><trkpt lat="48.187204668805144" lon="11.584519464092029"><ele>506.0</ele><time>2026-03-27T08:39:43.999Z</time></trkpt><trkpt lat="48.187291199340464" lon="11.584518747379734"><ele>506.0</ele><time>2026-03-27T08:39:51.999Z</time></trkpt><trkpt lat="48.187376375921794" lon="11.584509716528206"><ele>506.0</ele><time>2026-03-27T08:39:53.999Z</time></trkpt><trkpt lat="48.18749564127851" lon="11.584507047860736"><ele>505.99999999999994</ele><time>2026-03-27T08:39:55.999Z</time></trkpt><trkpt lat="48.1875664041742" lon="11.58449981958361"><ele>506.0</ele><time>2026-03-27T08:39:56.999Z</time></trkpt><trkpt lat="48.187639449389316" lon="11.5845007382733"><ele>506.0</ele><time>2026-03-27T08:39:57.999Z</time></trkpt><trkpt lat="48.18772575005258" lon="11.584498630508646"><ele>506.0</ele><time>2026-03-27T08:39:58.999Z</time></trkpt><trkpt lat="48.18782879394607" lon="11.584486602482283"><ele>506.0</ele><time>2026-03-27T08:39:59.999Z</time></trkpt><trkpt lat="48.18793133773566" lon="11.584478142021723"><ele>506.0</ele><time>2026-03-27T08:40:00.999Z</time></trkpt><trkpt lat="48.18804227124736" lon="11.584471331696655"><ele>506.0</ele><time>2026-03-27T08:40:01.999Z</time></trkpt><trkpt lat="48.18815869398525" lon="11.584459728688326"><ele>505.4</ele><time>2026-03-27T08:40:02.999Z</time></trkpt><trkpt lat="48.18827153537007" lon="11.58445038949892"><ele>504.8</ele><time>2026-03-27T08:40:03.999Z</time></trkpt><trkpt lat="48.188377172774814" lon="11.584442869680602"><ele>504.19999999999993</ele><time>2026-03-27T08:40:04.999Z</time></trkpt><trkpt lat="48.188484389722746" lon="11.584439545891653"><ele>503.59999999999997</ele><time>2026-03-27T08:40:05.999Z</time></trkpt><trkpt lat="48.18859590786062" lon="11.58443539380969"><ele>503.0</ele><time>2026-03-27T08:40:06.999Z</time></trkpt><trkpt lat="48.1887139806654" lon="11.584426598677569"><ele>503.0</ele><time>2026-03-27T08:40:07.999Z</time></trkpt><trkpt lat="48.18883350683462" lon="11.58441560190751"><ele>503.0</ele><time>2026-03-27T08:40:08.999Z</time></trkpt><trkpt lat="48.18895116599478" lon="11.58440312930292"><ele>503.0</ele><time>2026-03-27T08:40:09.999Z</time></trkpt><trkpt lat="48.18907045638835" lon="11.584392407004493"><ele>503.0</ele><time>2026-03-27T08:40:10.999Z</time></trkpt><trkpt lat="48.18918798977672" lon="11.584384001700831"><ele>502.79999999999995</ele><time>2026-03-27T08:40:11.999Z</time></trkpt><trkpt lat="48.18930753905365" lon="11.584372736513803"><ele>502.59999999999997</ele><time>2026-03-27T08:40:12.999Z</time></trkpt><trkpt lat="48.18942579458245" lon="11.58436210637371"><ele>502.40000000000003</ele><time>2026-03-27T08:40:13.999Z</time></trkpt><trkpt lat="48.18953645645369" lon="11.584355381589084"><ele>502.20000000000005</ele><time>2026-03-27T08:40:14.999Z</time></trkpt><trkpt lat="48.18963019827992" lon="11.584349168717498"><ele>502.0</ele><time>2026-03-27T08:40:15.999Z</time></trkpt><trkpt lat="48.1897238917911" lon="11.584354135985597"><ele>502.0</ele><time>2026-03-27T08:40:16.999Z</time></trkpt><trkpt lat="48.189822858462655" lon="11.584336505151079"><ele>502.00000000000006</ele><time>2026-03-27T08:40:17.999Z</time></trkpt><trkpt lat="48.18993342549988" lon="11.584325249281594"><ele>502.00000000000006</ele><time>2026-03-27T08:40:18.999Z</time></trkpt><trkpt lat="48.19004428522289" lon="11.584313942561355"><ele>502.0</ele><time>2026-03-27T08:40:19.999Z</time></trkpt><trkpt lat="48.19015282584897" lon="11.584300139484194"><ele>502.0</ele><time>2026-03-27T08:40:20.999Z</time></trkpt><trkpt lat="48.19026161191882" lon="11.58429138827639"><ele>502.0</ele><time>2026-03-27T08:40:21.999Z</time></trkpt><trkpt lat="48.19037275977486" lon="11.584284605686971"><ele>502.0</ele><time>2026-03-27T08:40:22.999Z</time></trkpt><trkpt lat="48.19049112634267" lon="11.584273130290407"><ele>502.0</ele><time>2026-03-27T08:40:23.999Z</time></trkpt><trkpt lat="48.19061959950634" lon="11.584263142022937"><ele>502.0</ele><time>2026-03-27T08:40:24.999Z</time></trkpt><trkpt lat="48.19073520058212" lon="11.584250537154775"><ele>502.20000000000005</ele><time>2026-03-27T08:40:25.999Z</time></trkpt><trkpt lat="48.19084641950104" lon="11.584239980674312"><ele>502.40000000000003</ele><time>2026-03-27T08:40:26.999Z</time></trkpt><trkpt lat="48.19095435471788" lon="11.5842299531276"><ele>502.59999999999997</ele><time>2026-03-27T08:40:27.999Z</time></trkpt><trkpt lat="48.191059722841715" lon="11.584230233866307"><ele>502.79999999999995</ele><time>2026-03-27T08:40:28.999Z</time></trkpt><trkpt lat="48.19116803630282" lon="11.584221897964941"><ele>503.0</ele><time>2026-03-27T08:40:29.999Z</time></trkpt><trkpt lat="48.19127814928977" lon="11.584214995001242"><ele>503.0</ele><time>2026-03-27T08:40:30.999Z</time></trkpt><trkpt lat="48.19139309754023" lon="11.58420518838492"><ele>503.0</ele><time>2026-03-27T08:40:31.999Z</time></trkpt><trkpt lat="48.19151254616387" lon="11.584190880513086"><ele>503.0</ele><time>2026-03-27T08:40:32.999Z</time></trkpt><trkpt lat="48.191642066014246" lon="11.584178428763916"><ele>503.0</ele><time>2026-03-27T08:40:33.999Z</time></trkpt><trkpt lat="48.191776243929375" lon="11.584162003008078"><ele>502.79999999999995</ele><time>2026-03-27T08:40:34.999Z</time></trkpt><trkpt lat="48.19189422473032" lon="11.584155719570711"><ele>502.59999999999997</ele><time>2026-03-27T08:40:35.999Z</time></trkpt><trkpt lat="48.19200270460917" lon="11.584148647297445"><ele>502.40000000000003</ele><time>2026-03-27T08:40:36.999Z</time></trkpt><trkpt lat="48.19210959242802" lon="11.584144681354516"><ele>502.20000000000005</ele><time>2026-03-27T08:40:37.999Z</time></trkpt><trkpt lat="48.19221513064619" lon="11.584137628819017"><ele>502.0</ele><time>2026-03-27T08:40:38.999Z</time></trkpt><trkpt lat="48.192324079442606" lon="11.584132881271607"><ele>502.0</ele><time>2026-03-27T08:40:39.999Z</time></trkpt><trkpt lat="48.19243961587278" lon="11.584128976383456"><ele>502.0</ele><time>2026-03-27T08:40:40.999Z</time></trkpt><trkpt lat="48.19256248046192" lon="11.584122590993386"><ele>502.0</ele><time>2026-03-27T08:40:42Z</time></trkpt><trkpt lat="48.19267541820167" lon="11.584120658207171"><ele>502.0</ele><time>2026-03-27T08:40:43Z</time></trkpt><trkpt lat="48.19278407667627" lon="11.584112017500498"><ele>502.0</ele><time>2026-03-27T08:40:44Z</time></trkpt><trkpt lat="48.192887892447956" lon="11.584110947508897"><ele>502.00000000000006</ele><time>2026-03-27T08:40:45Z</time></trkpt><trkpt lat="48.19299371315519" lon="11.584107326061508"><ele>502.00000000000006</ele><time>2026-03-27T08:40:46Z</time></trkpt><trkpt lat="48.19310038885963" lon="11.58410768555061"><ele>502.0</ele><time>2026-03-27T08:40:47Z</time></trkpt><trkpt lat="48.19320799872328" lon="11.584107091178895"><ele>502.0</ele><time>2026-03-27T08:40:48Z</time></trkpt><trkpt lat="48.19331509055761" lon="11.584107033732495"><ele>502.40000000000003</ele><time>2026-03-27T08:40:49Z</time></trkpt><trkpt lat="48.19342186485869" lon="11.584106749236946"><ele>502.80000000000007</ele><time>2026-03-27T08:40:50Z</time></trkpt><trkpt lat="48.1935296677896" lon="11.584110445593394"><ele>503.2</ele><time>2026-03-27T08:40:51Z</time></trkpt><trkpt lat="48.19363790990447" lon="11.584111640454434"><ele>503.6</ele><time>2026-03-27T08:40:52Z</time></trkpt><trkpt lat="48.19374838668713" lon="11.584121091622539"><ele>504.0</ele><time>2026-03-27T08:40:53Z</time></trkpt><trkpt lat="48.19386329457168" lon="11.584125942824999"><ele>504.0</ele><time>2026-03-27T08:40:54Z</time></trkpt><trkpt lat="48.19397676878831" lon="11.584134779205925"><ele>504.0</ele><time>2026-03-27T08:40:55Z</time></trkpt><trkpt lat="48.19408997189273" lon="11.584143011042556"><ele>504.0</ele><time>2026-03-27T08:40:56Z</time></trkpt><trkpt lat="48.19420728636323" lon="11.58415164609514"><ele>504.0</ele><time>2026-03-27T08:40:57Z</time></trkpt><trkpt lat="48.19432213229702" lon="11.584164862952356"><ele>504.0</ele><time>2026-03-27T08:40:58Z</time></trkpt><trkpt lat="48.19443375223081" lon="11.584179074198742"><ele>504.0</ele><time>2026-03-27T08:40:59Z</time></trkpt><trkpt lat="48.194544290305416" lon="11.584194973481473"><ele>504.0</ele><time>2026-03-27T08:41:00Z</time></trkpt><trkpt lat="48.19465663828341" lon="11.584210869652662"><ele>504.0</ele><time>2026-03-27T08:41:01Z</time></trkpt><trkpt lat="48.19477278907073" lon="11.584231051823425"><ele>503.75</ele><time>2026-03-27T08:41:02Z</time></trkpt><trkpt lat="48.19488695989422" lon="11.584249616121506"><ele>503.5</ele><time>2026-03-27T08:41:03Z</time></trkpt><trkpt lat="48.19500198198829" lon="11.58426904909575"><ele>503.25</ele><time>2026-03-27T08:41:04Z</time></trkpt><trkpt lat="48.19511471183899" lon="11.584290709674649"><ele>503.0</ele><time>2026-03-27T08:41:05Z</time></trkpt><trkpt lat="48.195225131072625" lon="11.5843133555354"><ele>503.0</ele><time>2026-03-27T08:41:06Z</time></trkpt><trkpt lat="48.19533478582303" lon="11.584334238523049"><ele>503.0</ele><time>2026-03-27T08:41:07Z</time></trkpt><trkpt lat="48.19544624679876" lon="11.584356102891165"><ele>503.0</ele><time>2026-03-27T08:41:08Z</time></trkpt><trkpt lat="48.19556257447968" lon="11.584377555924709"><ele>503.0</ele><time>2026-03-27T08:41:09Z</time></trkpt><trkpt lat="48.195678965162614" lon="11.584396581264729"><ele>503.0</ele><time>2026-03-27T08:41:10Z</time></trkpt><trkpt lat="48.195790971561195" lon="11.584417186918628"><ele>502.99999999999994</ele><time>2026-03-27T08:41:11Z</time></trkpt><trkpt lat="48.19589551391315" lon="11.584441247862598"><ele>502.99999999999994</ele><time>2026-03-27T08:41:12Z</time></trkpt><trkpt lat="48.19600169318737" lon="11.58446326407762"><ele>503.0</ele><time>2026-03-27T08:41:13Z</time></trkpt><trkpt lat="48.19611172756732" lon="11.584482836038358"><ele>503.0</ele><time>2026-03-27T08:41:14Z</time></trkpt><trkpt lat="48.19621927932155" lon="11.584503177838785"><ele>502.79999999999995</ele><time>2026-03-27T08:41:15Z</time></trkpt><trkpt lat="48.19632482365951" lon="11.584524411785017"><ele>502.59999999999997</ele><time>2026-03-27T08:41:16Z</time></trkpt><trkpt lat="48.19643127333673" lon="11.584545275320396"><ele>502.40000000000003</ele><time>2026-03-27T08:41:17Z</time></trkpt><trkpt lat="48.196539309953" lon="11.584565446039658"><ele>502.20000000000005</ele><time>2026-03-27T08:41:18Z</time></trkpt><trkpt lat="48.19664986472985" lon="11.584584868634195"><ele>502.0</ele><time>2026-03-27T08:41:19Z</time></trkpt><trkpt lat="48.196759183292215" lon="11.584604806213708"><ele>501.83333333333337</ele><time>2026-03-27T08:41:20Z</time></trkpt><trkpt lat="48.19685779734751" lon="11.584626712903875"><ele>501.6666666666667</ele><time>2026-03-27T08:41:21Z</time></trkpt><trkpt lat="48.19695216754325" lon="11.58464359804239"><ele>501.5</ele><time>2026-03-27T08:41:22Z</time></trkpt><trkpt lat="48.1970417791531" lon="11.584658967649075"><ele>501.33333333333337</ele><time>2026-03-27T08:41:23Z</time></trkpt><trkpt lat="48.19712386546247" lon="11.584676633336203"><ele>501.1666666666667</ele><time>2026-03-27T08:41:24Z</time></trkpt><trkpt lat="48.19719869649903" lon="11.58469234421935"><ele>501.0</ele><time>2026-03-27T08:41:25Z</time></trkpt><trkpt lat="48.19726327731073" lon="11.584705040142808"><ele>501.20000000000005</ele><time>2026-03-27T08:41:26Z</time></trkpt><trkpt lat="48.197367588677906" lon="11.584723576223164"><ele>501.40000000000003</ele><time>2026-03-27T08:41:28Z</time></trkpt><trkpt lat="48.197462135218935" lon="11.584741617092991"><ele>501.6</ele><time>2026-03-27T08:41:30Z</time></trkpt><trkpt lat="48.197539547129416" lon="11.584755916038173"><ele>501.8</ele><time>2026-03-27T08:41:32Z</time></trkpt><trkpt lat="48.19763993977762" lon="11.584776174423395"><ele>502.0</ele><time>2026-03-27T08:41:34Z</time></trkpt><trkpt lat="48.197748112514624" lon="11.58479692817138"><ele>502.00000000000006</ele><time>2026-03-27T08:41:36Z</time></trkpt><trkpt lat="48.19786344732514" lon="11.584818859988257"><ele>502.0</ele><time>2026-03-27T08:41:38Z</time></trkpt><trkpt lat="48.19792916898156" lon="11.584831798141808"><ele>502.0</ele><time>2026-03-27T08:41:39Z</time></trkpt><trkpt lat="48.19800007032902" lon="11.58484555855825"><ele>502.0</ele><time>2026-03-27T08:41:40Z</time></trkpt><trkpt lat="48.198074779425816" lon="11.584860064084424"><ele>502.00000000000006</ele><time>2026-03-27T08:41:41Z</time></trkpt><trkpt lat="48.19815224906009" lon="11.584874736045563"><ele>502.0</ele><time>2026-03-27T08:41:42Z</time></trkpt><trkpt lat="48.19822340825824" lon="11.58488829647178"><ele>501.6666666666667</ele><time>2026-03-27T08:41:43Z</time></trkpt><trkpt lat="48.19829395764191" lon="11.584903533167878"><ele>501.33333333333337</ele><time>2026-03-27T08:41:44Z</time></trkpt><trkpt lat="48.19836687276041" lon="11.584917599179247"><ele>501.0</ele><time>2026-03-27T08:41:45Z</time></trkpt><trkpt lat="48.1984491699301" lon="11.584934538098526"><ele>500.66666666666663</ele><time>2026-03-27T08:41:46Z</time></trkpt><trkpt lat="48.198539239643914" lon="11.584952502419693"><ele>500.3333333333333</ele><time>2026-03-27T08:41:47Z</time></trkpt><trkpt lat="48.19863551284348" lon="11.584973177671744"><ele>500.0</ele><time>2026-03-27T08:41:48Z</time></trkpt><trkpt lat="48.19873143326024" lon="11.584985372226653"><ele>500.0</ele><time>2026-03-27T08:41:49Z</time></trkpt><trkpt lat="48.19882954054586" lon="11.58500412506596"><ele>500.0</ele><time>2026-03-27T08:41:50Z</time></trkpt><trkpt lat="48.19892860859096" lon="11.585023111253369"><ele>500.0</ele><time>2026-03-27T08:41:51Z</time></trkpt><trkpt lat="48.19902641705603" lon="11.585044863690436"><ele>500.0</ele><time>2026-03-27T08:41:52Z</time></trkpt><trkpt lat="48.19912318466446" lon="11.585065909848877"><ele>500.0</ele><time>2026-03-27T08:41:52.999Z</time></trkpt><trkpt lat="48.19922054343052" lon="11.585082688365834"><ele>500.0</ele><time>2026-03-27T08:41:53.999Z</time></trkpt><trkpt lat="48.19931898209733" lon="11.585101154449823"><ele>500.0</ele><time>2026-03-27T08:41:54.999Z</time></trkpt><trkpt lat="48.19941280727199" lon="11.585121129331366"><ele>500.0</ele><time>2026-03-27T08:41:55.999Z</time></trkpt><trkpt lat="48.19950575681591" lon="11.585141718081069"><ele>500.0</ele><time>2026-03-27T08:41:56.999Z</time></trkpt><trkpt lat="48.19959428566394" lon="11.585159171650622"><ele>500.0</ele><time>2026-03-27T08:41:57.999Z</time></trkpt><trkpt lat="48.199680322638706" lon="11.585174788263577"><ele>499.99999999999994</ele><time>2026-03-27T08:41:58.999Z</time></trkpt><trkpt lat="48.199761852588416" lon="11.585188414358296"><ele>500.0</ele><time>2026-03-27T08:41:59.999Z</time></trkpt><trkpt lat="48.199837747968424" lon="11.585203155685052"><ele>500.0</ele><time>2026-03-27T08:42:00.999Z</time></trkpt><trkpt lat="48.199911495557046" lon="11.585219826461039"><ele>500.0</ele><time>2026-03-27T08:42:01.999Z</time></trkpt><trkpt lat="48.199977885009226" lon="11.585232991320055"><ele>499.99999999999994</ele><time>2026-03-27T08:42:02.999Z</time></trkpt><trkpt lat="48.20009083112145" lon="11.58525517538393"><ele>500.0</ele><time>2026-03-27T08:42:04.999Z</time></trkpt><trkpt lat="48.20017931522427" lon="11.585273622400747"><ele>500.16666666666663</ele><time>2026-03-27T08:42:06.999Z</time></trkpt><trkpt lat="48.20027012028627" lon="11.585288262500086"><ele>500.3333333333333</ele><time>2026-03-27T08:42:08.999Z</time></trkpt><trkpt lat="48.200346959873364" lon="11.585290978050612"><ele>500.5</ele><time>2026-03-27T08:42:10.999Z</time></trkpt><trkpt lat="48.20041011932785" lon="11.585301478255985"><ele>500.66666666666663</ele><time>2026-03-27T08:42:13.999Z</time></trkpt><trkpt lat="48.20048416628627" lon="11.585324866892044"><ele>500.8333333333333</ele><time>2026-03-27T08:42:39.999Z</time></trkpt><trkpt lat="48.20055033535833" lon="11.585330506086754"><ele>501.0</ele><time>2026-03-27T08:42:40.999Z</time></trkpt><trkpt lat="48.20064694105701" lon="11.585349914306713"><ele>500.8333333333333</ele><time>2026-03-27T08:42:42.999Z</time></trkpt><trkpt lat="48.20076453406183" lon="11.585369555889399"><ele>500.66666666666663</ele><time>2026-03-27T08:42:44.999Z</time></trkpt><trkpt lat="48.20083683308465" lon="11.58537837345114"><ele>500.5</ele><time>2026-03-27T08:42:45.999Z</time></trkpt><trkpt lat="48.20090469841188" lon="11.58539663705882"><ele>500.3333333333333</ele><time>2026-03-27T08:42:46.999Z</time></trkpt><trkpt lat="48.20097352499444" lon="11.585409820734421"><ele>500.16666666666663</ele><time>2026-03-27T08:42:48Z</time></trkpt><trkpt lat="48.20104359299069" lon="11.585425587502122"><ele>500.0</ele><time>2026-03-27T08:42:49Z</time></trkpt><trkpt lat="48.20111220019139" lon="11.585438692694986"><ele>499.99999999999994</ele><time>2026-03-27T08:42:50Z</time></trkpt><trkpt lat="48.201179508035246" lon="11.585455951080696"><ele>500.0</ele><time>2026-03-27T08:42:51Z</time></trkpt><trkpt lat="48.201242320979354" lon="11.585468927612048"><ele>500.0</ele><time>2026-03-27T08:42:52Z</time></trkpt><trkpt lat="48.201364373267296" lon="11.585492611076535"><ele>500.0</ele><time>2026-03-27T08:42:54Z</time></trkpt><trkpt lat="48.20143808368853" lon="11.58550514331516"><ele>499.99999999999994</ele><time>2026-03-27T08:42:55Z</time></trkpt><trkpt lat="48.20152726339922" lon="11.585520662755805"><ele>500.0</ele><time>2026-03-27T08:42:56Z</time></trkpt><trkpt lat="48.201618823619235" lon="11.585538690653886"><ele>499.99999999999994</ele><time>2026-03-27T08:42:57Z</time></trkpt><trkpt lat="48.20170877496056" lon="11.585553671352184"><ele>500.0</ele><time>2026-03-27T08:42:58Z</time></trkpt><trkpt lat="48.20179477332418" lon="11.58557082628953"><ele>500.0</ele><time>2026-03-27T08:42:59Z</time></trkpt><trkpt lat="48.201865926588475" lon="11.585589080198115"><ele>500.0</ele><time>2026-03-27T08:43:00Z</time></trkpt><trkpt lat="48.201972567756506" lon="11.585612732333999"><ele>499.99999999999994</ele><time>2026-03-27T08:43:02Z</time></trkpt><trkpt lat="48.20205699399093" lon="11.585630281514424"><ele>500.0</ele><time>2026-03-27T08:43:04Z</time></trkpt><trkpt lat="48.20212263417053" lon="11.585638917160301"><ele>499.99999999999994</ele><time>2026-03-27T08:43:06Z</time></trkpt><trkpt lat="48.20220534861539" lon="11.58565728393182"><ele>500.0</ele><time>2026-03-27T08:43:09Z</time></trkpt><trkpt lat="48.20227284996663" lon="11.585669533746538"><ele>500.0</ele><time>2026-03-27T08:43:11Z</time></trkpt><trkpt lat="48.202339304544964" lon="11.585681003370455"><ele>500.0</ele><time>2026-03-27T08:43:37Z</time></trkpt><trkpt lat="48.20241935076219" lon="11.585699259528058"><ele>499.99999999999994</ele><time>2026-03-27T08:43:40Z</time></trkpt><trkpt lat="48.20248404760361" lon="11.585712529603342"><ele>500.0</ele><time>2026-03-27T08:43:42Z</time></trkpt><trkpt lat="48.20257566994091" lon="11.585729364962479"><ele>499.8</ele><time>2026-03-27T08:43:44Z</time></trkpt><trkpt lat="48.20270140710982" lon="11.585750271128619"><ele>499.6</ele><time>2026-03-27T08:43:46Z</time></trkpt><trkpt lat="48.20282461859238" lon="11.585776864343735"><ele>499.4</ele><time>2026-03-27T08:43:48Z</time></trkpt><trkpt lat="48.20289444661263" lon="11.585792044363586"><ele>499.2</ele><time>2026-03-27T08:43:49Z</time></trkpt><trkpt lat="48.20297203016968" lon="11.585806243881304"><ele>499.0</ele><time>2026-03-27T08:43:50Z</time></trkpt><trkpt lat="48.203055771402866" lon="11.58582128764968"><ele>499.0</ele><time>2026-03-27T08:43:51Z</time></trkpt><trkpt lat="48.203142362254894" lon="11.585838851606633"><ele>499.0</ele><time>2026-03-27T08:43:52Z</time></trkpt><trkpt lat="48.203231198963636" lon="11.585853429035978"><ele>499.0</ele><time>2026-03-27T08:43:53Z</time></trkpt><trkpt lat="48.20332251308248" lon="11.58587214286864"><ele>499.0</ele><time>2026-03-27T08:43:54Z</time></trkpt><trkpt lat="48.20341440972096" lon="11.585890109419058"><ele>499.0</ele><time>2026-03-27T08:43:55Z</time></trkpt><trkpt lat="48.20350743597451" lon="11.58590867332692"><ele>498.79999999999995</ele><time>2026-03-27T08:43:56Z</time></trkpt><trkpt lat="48.20360219591702" lon="11.5859284399595"><ele>498.59999999999997</ele><time>2026-03-27T08:43:57Z</time></trkpt><trkpt lat="48.20370346481932" lon="11.585947955648624"><ele>498.4</ele><time>2026-03-27T08:43:58Z</time></trkpt><trkpt lat="48.203810636129035" lon="11.585974432733757"><ele>498.2</ele><time>2026-03-27T08:43:59Z</time></trkpt><trkpt lat="48.20391889950978" lon="11.585989707929944"><ele>498.0</ele><time>2026-03-27T08:44:00Z</time></trkpt><trkpt lat="48.20403005586545" lon="11.586010661025359"><ele>498.0</ele><time>2026-03-27T08:44:01Z</time></trkpt><trkpt lat="48.20414488559652" lon="11.58603523417332"><ele>498.0</ele><time>2026-03-27T08:44:01.999Z</time></trkpt><trkpt lat="48.20426219473481" lon="11.58605697873339"><ele>498.0</ele><time>2026-03-27T08:44:02.999Z</time></trkpt><trkpt lat="48.20437907870258" lon="11.586082229630586"><ele>498.0</ele><time>2026-03-27T08:44:03.999Z</time></trkpt><trkpt lat="48.20449658736474" lon="11.58610619774853"><ele>498.0</ele><time>2026-03-27T08:44:04.999Z</time></trkpt><trkpt lat="48.204615496894704" lon="11.586130071595992"><ele>498.0</ele><time>2026-03-27T08:44:05.999Z</time></trkpt><trkpt lat="48.204735188313556" lon="11.586154025484277"><ele>498.0</ele><time>2026-03-27T08:44:06.999Z</time></trkpt><trkpt lat="48.20485563256509" lon="11.586176369897844"><ele>498.0</ele><time>2026-03-27T08:44:07.999Z</time></trkpt><trkpt lat="48.20497095083835" lon="11.586197243834048"><ele>498.0</ele><time>2026-03-27T08:44:08.999Z</time></trkpt><trkpt lat="48.20508563373907" lon="11.586221942572516"><ele>498.0</ele><time>2026-03-27T08:44:09.999Z</time></trkpt><trkpt lat="48.20520125909031" lon="11.586245462919274"><ele>498.0</ele><time>2026-03-27T08:44:10.999Z</time></trkpt><trkpt lat="48.20531609159627" lon="11.586266549065156"><ele>498.0</ele><time>2026-03-27T08:44:11.999Z</time></trkpt><trkpt lat="48.20542866440568" lon="11.586290385083876"><ele>498.0</ele><time>2026-03-27T08:44:12.999Z</time></trkpt><trkpt lat="48.205539598210294" lon="11.586306704513659"><ele>498.0</ele><time>2026-03-27T08:44:13.999Z</time></trkpt><trkpt lat="48.20564977752551" lon="11.586333753666448"><ele>498.0</ele><time>2026-03-27T08:44:14.999Z</time></trkpt><trkpt lat="48.20576276049251" lon="11.586355334505413"><ele>498.0</ele><time>2026-03-27T08:44:15.999Z</time></trkpt><trkpt lat="48.20587715549878" lon="11.58637545089299"><ele>497.59999999999997</ele><time>2026-03-27T08:44:16.999Z</time></trkpt><trkpt lat="48.20599019090996" lon="11.586397241853696"><ele>497.19999999999993</ele><time>2026-03-27T08:44:17.999Z</time></trkpt><trkpt lat="48.20610128805288" lon="11.586416350475618"><ele>496.8</ele><time>2026-03-27T08:44:18.999Z</time></trkpt><trkpt lat="48.206206604642816" lon="11.586439203360833"><ele>496.4</ele><time>2026-03-27T08:44:19.999Z</time></trkpt><trkpt lat="48.206312622960894" lon="11.586459130936104"><ele>496.0</ele><time>2026-03-27T08:44:20.999Z</time></trkpt><trkpt lat="48.20642042005339" lon="11.58648080927678"><ele>496.75</ele><time>2026-03-27T08:44:21.999Z</time></trkpt><trkpt lat="48.20652821813537" lon="11.586500802947905"><ele>497.5</ele><time>2026-03-27T08:44:22.999Z</time></trkpt><trkpt lat="48.20663932418924" lon="11.586522269647835"><ele>498.25</ele><time>2026-03-27T08:44:23.999Z</time></trkpt><trkpt lat="48.206753415425" lon="11.586543527954337"><ele>499.0</ele><time>2026-03-27T08:44:24.999Z</time></trkpt><trkpt lat="48.206871653396426" lon="11.586567219950716"><ele>499.0</ele><time>2026-03-27T08:44:25.999Z</time></trkpt><trkpt lat="48.20699060229917" lon="11.586590622493235"><ele>499.0</ele><time>2026-03-27T08:44:26.999Z</time></trkpt><trkpt lat="48.20709982200899" lon="11.586613688196064"><ele>499.0</ele><time>2026-03-27T08:44:27.999Z</time></trkpt><trkpt lat="48.207208545524026" lon="11.586635240182202"><ele>499.0</ele><time>2026-03-27T08:44:28.999Z</time></trkpt><trkpt lat="48.207320946047226" lon="11.586656301065483"><ele>499.0</ele><time>2026-03-27T08:44:29.999Z</time></trkpt><trkpt lat="48.2074387263455" lon="11.586679322611028"><ele>499.0</ele><time>2026-03-27T08:44:30.999Z</time></trkpt><trkpt lat="48.207552187698816" lon="11.586701908973494"><ele>499.0</ele><time>2026-03-27T08:44:31.999Z</time></trkpt><trkpt lat="48.20766346263317" lon="11.586725861905986"><ele>499.0</ele><time>2026-03-27T08:44:32.999Z</time></trkpt><trkpt lat="48.207775410776584" lon="11.586748387517035"><ele>499.0</ele><time>2026-03-27T08:44:33.999Z</time></trkpt><trkpt lat="48.20788789508151" lon="11.586773857432176"><ele>499.0</ele><time>2026-03-27T08:44:34.999Z</time></trkpt><trkpt lat="48.207999497208384" lon="11.586794324935818"><ele>499.0</ele><time>2026-03-27T08:44:35.999Z</time></trkpt><trkpt lat="48.20811125211429" lon="11.586816064078809"><ele>499.0</ele><time>2026-03-27T08:44:36.999Z</time></trkpt><trkpt lat="48.20822661931587" lon="11.586838916147585"><ele>498.75</ele><time>2026-03-27T08:44:37.999Z</time></trkpt><trkpt lat="48.20834226858049" lon="11.586861649881047"><ele>498.5</ele><time>2026-03-27T08:44:38.999Z</time></trkpt><trkpt lat="48.20845984757148" lon="11.586881104924082"><ele>498.25</ele><time>2026-03-27T08:44:39.999Z</time></trkpt><trkpt lat="48.208576271493705" lon="11.586902352351114"><ele>498.0</ele><time>2026-03-27T08:44:40.999Z</time></trkpt><trkpt lat="48.20869519622877" lon="11.58692596885191"><ele>498.0</ele><time>2026-03-27T08:44:41.999Z</time></trkpt><trkpt lat="48.20881073612391" lon="11.586948323453681"><ele>497.99999999999994</ele><time>2026-03-27T08:44:42.999Z</time></trkpt><trkpt lat="48.20892411436792" lon="11.586972105916322"><ele>497.99999999999994</ele><time>2026-03-27T08:44:43.999Z</time></trkpt><trkpt lat="48.209035784446236" lon="11.586993697101471"><ele>498.0</ele><time>2026-03-27T08:44:44.999Z</time></trkpt><trkpt lat="48.20913165158116" lon="11.587012686914568"><ele>498.0</ele><time>2026-03-27T08:44:45.999Z</time></trkpt><trkpt lat="48.20921004973245" lon="11.587029270461377"><ele>497.59999999999997</ele><time>2026-03-27T08:44:46.999Z</time></trkpt><trkpt lat="48.20931126520154" lon="11.58704711075127"><ele>497.19999999999993</ele><time>2026-03-27T08:44:48.999Z</time></trkpt><trkpt lat="48.209379778707685" lon="11.58706157428078"><ele>496.8</ele><time>2026-03-27T08:44:50.999Z</time></trkpt><trkpt lat="48.20944834814056" lon="11.587073662073744"><ele>496.4</ele><time>2026-03-27T08:44:53Z</time></trkpt><trkpt lat="48.209551337258404" lon="11.587090988413427"><ele>496.0</ele><time>2026-03-27T08:44:55Z</time></trkpt><trkpt lat="48.20966195029389" lon="11.587113494820464"><ele>496.00000000000006</ele><time>2026-03-27T08:44:57Z</time></trkpt><trkpt lat="48.20972813615517" lon="11.587126915184133"><ele>496.0</ele><time>2026-03-27T08:44:58Z</time></trkpt><trkpt lat="48.20979606551813" lon="11.587141718820059"><ele>496.0</ele><time>2026-03-27T08:44:59Z</time></trkpt><trkpt lat="48.20986769799958" lon="11.587155271057624"><ele>496.0</ele><time>2026-03-27T08:45:00Z</time></trkpt><trkpt lat="48.20994463791545" lon="11.587170564077717"><ele>496.00000000000006</ele><time>2026-03-27T08:45:01Z</time></trkpt><trkpt lat="48.21002579616782" lon="11.587187264647334"><ele>496.0</ele><time>2026-03-27T08:45:02Z</time></trkpt><trkpt lat="48.21011450898411" lon="11.587200671774747"><ele>495.8</ele><time>2026-03-27T08:45:03Z</time></trkpt><trkpt lat="48.210203991969614" lon="11.587223172960682"><ele>495.6</ele><time>2026-03-27T08:45:04Z</time></trkpt><trkpt lat="48.21029098060122" lon="11.58724420482381"><ele>495.4</ele><time>2026-03-27T08:45:05Z</time></trkpt><trkpt lat="48.2103777281631" lon="11.587272622015186"><ele>495.2</ele><time>2026-03-27T08:45:06Z</time></trkpt><trkpt lat="48.210469025814625" lon="11.587309121615469"><ele>495.0</ele><time>2026-03-27T08:45:07Z</time></trkpt><trkpt lat="48.21055947882612" lon="11.587340339389506"><ele>495.0</ele><time>2026-03-27T08:45:08Z</time></trkpt><trkpt lat="48.21065059513678" lon="11.58736662965788"><ele>495.0</ele><time>2026-03-27T08:45:09Z</time></trkpt><trkpt lat="48.21074746129239" lon="11.58737978680658"><ele>495.0</ele><time>2026-03-27T08:45:10Z</time></trkpt><trkpt lat="48.21084982129963" lon="11.587402481239426"><ele>495.0</ele><time>2026-03-27T08:45:11Z</time></trkpt><trkpt lat="48.21095288075562" lon="11.587420856962185"><ele>495.0</ele><time>2026-03-27T08:45:12Z</time></trkpt><trkpt lat="48.211056002575596" lon="11.587442421031179"><ele>495.2</ele><time>2026-03-27T08:45:13Z</time></trkpt><trkpt lat="48.21115939366249" lon="11.587463300963941"><ele>495.4</ele><time>2026-03-27T08:45:14Z</time></trkpt><trkpt lat="48.21126784345321" lon="11.587485407993258"><ele>495.6</ele><time>2026-03-27T08:45:15Z</time></trkpt><trkpt lat="48.21137399964746" lon="11.58750529912432"><ele>495.8</ele><time>2026-03-27T08:45:16Z</time></trkpt><trkpt lat="48.211476391002066" lon="11.58752475605106"><ele>496.0</ele><time>2026-03-27T08:45:17Z</time></trkpt><trkpt lat="48.211581650980996" lon="11.587544354876048"><ele>496.0</ele><time>2026-03-27T08:45:18Z</time></trkpt><trkpt lat="48.21168962407553" lon="11.587562556176712"><ele>496.0</ele><time>2026-03-27T08:45:19Z</time></trkpt><trkpt lat="48.21180030936228" lon="11.587579265241272"><ele>496.0</ele><time>2026-03-27T08:45:20Z</time></trkpt><trkpt lat="48.21191224060237" lon="11.5876009374926"><ele>496.0</ele><time>2026-03-27T08:45:21Z</time></trkpt><trkpt lat="48.21202268208646" lon="11.587619640670752"><ele>496.0</ele><time>2026-03-27T08:45:22Z</time></trkpt><trkpt lat="48.21213261925532" lon="11.587642392520396"><ele>496.0</ele><time>2026-03-27T08:45:23Z</time></trkpt><trkpt lat="48.21224107446713" lon="11.587664335432411"><ele>496.0</ele><time>2026-03-27T08:45:24Z</time></trkpt><trkpt lat="48.21235005717284" lon="11.587685777371856"><ele>496.0</ele><time>2026-03-27T08:45:25Z</time></trkpt><trkpt lat="48.212459200372955" lon="11.587706322858109"><ele>496.0</ele><time>2026-03-27T08:45:26Z</time></trkpt><trkpt lat="48.21256777203439" lon="11.587728608615555"><ele>496.0</ele><time>2026-03-27T08:45:27Z</time></trkpt><trkpt lat="48.212678691668614" lon="11.587741386425693"><ele>496.0</ele><time>2026-03-27T08:45:28Z</time></trkpt><trkpt lat="48.212790947563605" lon="11.587747590058699"><ele>496.0</ele><time>2026-03-27T08:45:29Z</time></trkpt><trkpt lat="48.21290176759345" lon="11.587746621191263"><ele>496.0</ele><time>2026-03-27T08:45:30Z</time></trkpt><trkpt lat="48.213007166531774" lon="11.587757407987123"><ele>496.0</ele><time>2026-03-27T08:45:31Z</time></trkpt><trkpt lat="48.21311515566766" lon="11.587770172702857"><ele>496.0</ele><time>2026-03-27T08:45:32Z</time></trkpt><trkpt lat="48.213225072974545" lon="11.58779179761052"><ele>496.20000000000005</ele><time>2026-03-27T08:45:33Z</time></trkpt><trkpt lat="48.2133274606295" lon="11.58780555889478"><ele>496.40000000000003</ele><time>2026-03-27T08:45:34Z</time></trkpt><trkpt lat="48.21343403160391" lon="11.587820535030357"><ele>496.6</ele><time>2026-03-27T08:45:35Z</time></trkpt><trkpt lat="48.2135493137193" lon="11.587830612889755"><ele>496.8</ele><time>2026-03-27T08:45:36Z</time></trkpt><trkpt lat="48.21366822549258" lon="11.587837902571225"><ele>497.0</ele><time>2026-03-27T08:45:37Z</time></trkpt><trkpt lat="48.21378173017391" lon="11.58784222738497"><ele>496.75</ele><time>2026-03-27T08:45:38Z</time></trkpt><trkpt lat="48.213887989451" lon="11.587849656236695"><ele>496.5</ele><time>2026-03-27T08:45:39Z</time></trkpt><trkpt lat="48.2140001584888" lon="11.587854554113836"><ele>496.25</ele><time>2026-03-27T08:45:40Z</time></trkpt><trkpt lat="48.214117358818655" lon="11.587854274799149"><ele>496.0</ele><time>2026-03-27T08:45:41Z</time></trkpt><trkpt lat="48.21423499093485" lon="11.587858877076235"><ele>495.25</ele><time>2026-03-27T08:45:42Z</time></trkpt><trkpt lat="48.21434774659703" lon="11.587861698781962"><ele>494.5</ele><time>2026-03-27T08:45:43Z</time></trkpt><trkpt lat="48.21446564987355" lon="11.587864461413874"><ele>493.75</ele><time>2026-03-27T08:45:44Z</time></trkpt><trkpt lat="48.21459413312251" lon="11.587858163783372"><ele>493.0</ele><time>2026-03-27T08:45:45Z</time></trkpt><trkpt lat="48.214728889276564" lon="11.587856023971376"><ele>493.25</ele><time>2026-03-27T08:45:46Z</time></trkpt><trkpt lat="48.21486494982651" lon="11.587855554594775"><ele>493.5</ele><time>2026-03-27T08:45:47Z</time></trkpt><trkpt lat="48.21500000175294" lon="11.587857270060663"><ele>493.75</ele><time>2026-03-27T08:45:48Z</time></trkpt><trkpt lat="48.21513688440951" lon="11.587855779798243"><ele>494.0</ele><time>2026-03-27T08:45:49Z</time></trkpt><trkpt lat="48.215276482077286" lon="11.587855015930156"><ele>494.0</ele><time>2026-03-27T08:45:50Z</time></trkpt><trkpt lat="48.21542510605814" lon="11.587855153617987"><ele>494.0</ele><time>2026-03-27T08:45:51Z</time></trkpt><trkpt lat="48.21556673837022" lon="11.58785499114313"><ele>494.0</ele><time>2026-03-27T08:45:52Z</time></trkpt><trkpt lat="48.215710413056435" lon="11.587853290000783"><ele>494.0</ele><time>2026-03-27T08:45:53Z</time></trkpt><trkpt lat="48.21585957335901" lon="11.587852213211718"><ele>494.3333333333333</ele><time>2026-03-27T08:45:54Z</time></trkpt><trkpt lat="48.216012411557045" lon="11.58785000045964"><ele>494.66666666666663</ele><time>2026-03-27T08:45:55Z</time></trkpt><trkpt lat="48.21617440778858" lon="11.587845296168025"><ele>495.0</ele><time>2026-03-27T08:45:56Z</time></trkpt><trkpt lat="48.21633950952069" lon="11.587844918915028"><ele>494.66666666666663</ele><time>2026-03-27T08:45:57Z</time></trkpt><trkpt lat="48.21649562565661" lon="11.587846430362358"><ele>494.3333333333333</ele><time>2026-03-27T08:45:58Z</time></trkpt><trkpt lat="48.21665039437924" lon="11.587846699719663"><ele>494.0</ele><time>2026-03-27T08:45:59Z</time></trkpt><trkpt lat="48.216814918790874" lon="11.58784420514854"><ele>494.0</ele><time>2026-03-27T08:46:00Z</time></trkpt><trkpt lat="48.21698623101153" lon="11.587841834167348"><ele>494.0</ele><time>2026-03-27T08:46:01Z</time></trkpt><trkpt lat="48.21715296040137" lon="11.587838441981791"><ele>494.0</ele><time>2026-03-27T08:46:02Z</time></trkpt><trkpt lat="48.21731563762247" lon="11.58783813787017"><ele>493.0</ele><time>2026-03-27T08:46:03Z</time></trkpt><trkpt lat="48.217476732948136" lon="11.587837347169035"><ele>492.0</ele><time>2026-03-27T08:46:04Z</time></trkpt><trkpt lat="48.21763353509926" lon="11.587839474148323"><ele>491.0</ele><time>2026-03-27T08:46:05Z</time></trkpt><trkpt lat="48.2177928369369" lon="11.587838737376703"><ele>491.0</ele><time>2026-03-27T08:46:06Z</time></trkpt><trkpt lat="48.217955312753055" lon="11.587836664765193"><ele>491.0</ele><time>2026-03-27T08:46:07Z</time></trkpt><trkpt lat="48.21811719511632" lon="11.587833941768164"><ele>491.0</ele><time>2026-03-27T08:46:08Z</time></trkpt><trkpt lat="48.21827506284982" lon="11.587832928225087"><ele>491.66666666666663</ele><time>2026-03-27T08:46:09Z</time></trkpt><trkpt lat="48.21843449301745" lon="11.587831401692338"><ele>492.33333333333337</ele><time>2026-03-27T08:46:10Z</time></trkpt><trkpt lat="48.218596556909475" lon="11.587831741154039"><ele>493.0</ele><time>2026-03-27T08:46:11Z</time></trkpt><trkpt lat="48.218758029942634" lon="11.58782871256115"><ele>493.0</ele><time>2026-03-27T08:46:12Z</time></trkpt><trkpt lat="48.21891306449936" lon="11.58782784143006"><ele>493.0</ele><time>2026-03-27T08:46:13Z</time></trkpt><trkpt lat="48.21907263443505" lon="11.58782811695442"><ele>493.0</ele><time>2026-03-27T08:46:14Z</time></trkpt><trkpt lat="48.21923418575395" lon="11.587826120439162"><ele>493.6666666666667</ele><time>2026-03-27T08:46:15Z</time></trkpt><trkpt lat="48.21939233307503" lon="11.587825760613331"><ele>494.33333333333337</ele><time>2026-03-27T08:46:16Z</time></trkpt><trkpt lat="48.21954924264667" lon="11.587827034753637"><ele>495.0</ele><time>2026-03-27T08:46:17Z</time></trkpt><trkpt lat="48.21970944122844" lon="11.587824512933029"><ele>494.66666666666663</ele><time>2026-03-27T08:46:18Z</time></trkpt><trkpt lat="48.21987059914959" lon="11.587824719196849"><ele>494.3333333333333</ele><time>2026-03-27T08:46:19Z</time></trkpt><trkpt lat="48.22003200976213" lon="11.587821597957848"><ele>494.0</ele><time>2026-03-27T08:46:20Z</time></trkpt><trkpt lat="48.22019079150565" lon="11.587817652980418"><ele>494.0</ele><time>2026-03-27T08:46:21Z</time></trkpt><trkpt lat="48.220348437841636" lon="11.587816212205079"><ele>494.0</ele><time>2026-03-27T08:46:22Z</time></trkpt><trkpt lat="48.22051089894362" lon="11.587818686354316"><ele>494.0</ele><time>2026-03-27T08:46:23Z</time></trkpt><trkpt lat="48.22067874206363" lon="11.587824127283223"><ele>493.66666666666663</ele><time>2026-03-27T08:46:24Z</time></trkpt><trkpt lat="48.22084527820133" lon="11.587827046449943"><ele>493.33333333333337</ele><time>2026-03-27T08:46:24.999Z</time></trkpt><trkpt lat="48.221011447581745" lon="11.587823058380877"><ele>493.0</ele><time>2026-03-27T08:46:25.999Z</time></trkpt><trkpt lat="48.22117405804809" lon="11.587816910466056"><ele>493.0</ele><time>2026-03-27T08:46:26.999Z</time></trkpt><trkpt lat="48.22133420580213" lon="11.58780474634716"><ele>493.0</ele><time>2026-03-27T08:46:27.999Z</time></trkpt><trkpt lat="48.22149793988772" lon="11.58779922448388"><ele>493.0</ele><time>2026-03-27T08:46:28.999Z</time></trkpt><trkpt lat="48.221664235244255" lon="11.58778801622903"><ele>493.33333333333337</ele><time>2026-03-27T08:46:29.999Z</time></trkpt><trkpt lat="48.22182769735788" lon="11.587774738817219"><ele>493.66666666666663</ele><time>2026-03-27T08:46:30.999Z</time></trkpt><trkpt lat="48.22198962769638" lon="11.587763567828963"><ele>494.0</ele><time>2026-03-27T08:46:31.999Z</time></trkpt><trkpt lat="48.22215121993312" lon="11.587747793858462"><ele>494.0</ele><time>2026-03-27T08:46:32.999Z</time></trkpt><trkpt lat="48.22231344114344" lon="11.587735910006684"><ele>494.0</ele><time>2026-03-27T08:46:33.999Z</time></trkpt><trkpt lat="48.22247246906309" lon="11.58771874922005"><ele>494.0</ele><time>2026-03-27T08:46:34.999Z</time></trkpt><trkpt lat="48.222626509026874" lon="11.587707578892601"><ele>494.0</ele><time>2026-03-27T08:46:35.999Z</time></trkpt><trkpt lat="48.22277994234774" lon="11.587692701421926"><ele>494.0</ele><time>2026-03-27T08:46:36.999Z</time></trkpt><trkpt lat="48.222935042515275" lon="11.587678526426048"><ele>494.0</ele><time>2026-03-27T08:46:37.999Z</time></trkpt><trkpt lat="48.223097577084715" lon="11.587659803422136"><ele>493.3333333333333</ele><time>2026-03-27T08:46:38.999Z</time></trkpt><trkpt lat="48.223263014105584" lon="11.587642228538568"><ele>492.66666666666663</ele><time>2026-03-27T08:46:39.999Z</time></trkpt><trkpt lat="48.223424456737646" lon="11.587622151618444"><ele>492.0</ele><time>2026-03-27T08:46:40.999Z</time></trkpt><trkpt lat="48.22358295930113" lon="11.58760103265764"><ele>492.0</ele><time>2026-03-27T08:46:41.999Z</time></trkpt><trkpt lat="48.223744436585264" lon="11.587576267804412"><ele>492.0</ele><time>2026-03-27T08:46:42.999Z</time></trkpt><trkpt lat="48.223906715864025" lon="11.58755693997101"><ele>492.0</ele><time>2026-03-27T08:46:43.999Z</time></trkpt><trkpt lat="48.22406771838702" lon="11.58753637629656"><ele>492.66666666666663</ele><time>2026-03-27T08:46:44.999Z</time></trkpt><trkpt lat="48.22423558720098" lon="11.587517807739891"><ele>493.3333333333333</ele><time>2026-03-27T08:46:45.999Z</time></trkpt><trkpt lat="48.22438196797695" lon="11.587475213610311"><ele>494.0</ele><time>2026-03-27T08:46:46.999Z</time></trkpt><trkpt lat="48.22459631544691" lon="11.587450840524951"><ele>494.0</ele><time>2026-03-27T08:46:47.999Z</time></trkpt><trkpt lat="48.22476826014061" lon="11.587428468601715"><ele>494.0</ele><time>2026-03-27T08:46:48.999Z</time></trkpt><trkpt lat="48.224930158950414" lon="11.587406845419373"><ele>494.0</ele><time>2026-03-27T08:46:49.999Z</time></trkpt><trkpt lat="48.22508738846954" lon="11.587377776225882"><ele>493.66666666666663</ele><time>2026-03-27T08:46:50.999Z</time></trkpt><trkpt lat="48.22524309032372" lon="11.587345948417779"><ele>493.33333333333337</ele><time>2026-03-27T08:46:51.999Z</time></trkpt><trkpt lat="48.225400423829186" lon="11.5873134028326"><ele>493.0</ele><time>2026-03-27T08:46:52.999Z</time></trkpt><trkpt lat="48.22555271361225" lon="11.587282276694442"><ele>492.75</ele><time>2026-03-27T08:46:53.999Z</time></trkpt><trkpt lat="48.22569395712952" lon="11.587254432361018"><ele>492.5</ele><time>2026-03-27T08:46:54.999Z</time></trkpt><trkpt lat="48.22582600205551" lon="11.58722437171733"><ele>492.25</ele><time>2026-03-27T08:46:55.999Z</time></trkpt><trkpt lat="48.22595249313469" lon="11.587194912367716"><ele>492.0</ele><time>2026-03-27T08:46:56.999Z</time></trkpt><trkpt lat="48.22607512902044" lon="11.587165384865921"><ele>492.0</ele><time>2026-03-27T08:46:57.999Z</time></trkpt><trkpt lat="48.226180534985346" lon="11.587142318217442"><ele>492.00000000000006</ele><time>2026-03-27T08:46:59Z</time></trkpt><trkpt lat="48.22628247370975" lon="11.587120959708418"><ele>492.00000000000006</ele><time>2026-03-27T08:47:00Z</time></trkpt><trkpt lat="48.2263818427332" lon="11.587098355401011"><ele>492.0</ele><time>2026-03-27T08:47:01Z</time></trkpt><trkpt lat="48.226479289471655" lon="11.58707833141336"><ele>492.0</ele><time>2026-03-27T08:47:02Z</time></trkpt><trkpt lat="48.22657308184516" lon="11.58705808011587"><ele>492.20000000000005</ele><time>2026-03-27T08:47:03Z</time></trkpt><trkpt lat="48.22666341261876" lon="11.58701438953301"><ele>492.40000000000003</ele><time>2026-03-27T08:47:04Z</time></trkpt><trkpt lat="48.226757348218946" lon="11.587072279212038"><ele>492.59999999999997</ele><time>2026-03-27T08:47:05Z</time></trkpt><trkpt lat="48.22683696818826" lon="11.587130220906763"><ele>492.79999999999995</ele><time>2026-03-27T08:47:06Z</time></trkpt><trkpt lat="48.226899267346184" lon="11.587225197729895"><ele>493.0</ele><time>2026-03-27T08:47:07Z</time></trkpt><trkpt lat="48.226936776773876" lon="11.587342607492648"><ele>493.0</ele><time>2026-03-27T08:47:08Z</time></trkpt><trkpt lat="48.22695159006025" lon="11.587474427967498"><ele>492.99999999999994</ele><time>2026-03-27T08:47:09Z</time></trkpt><trkpt lat="48.226958367527295" lon="11.587620569044573"><ele>492.99999999999994</ele><time>2026-03-27T08:47:10Z</time></trkpt><trkpt lat="48.226966208262105" lon="11.58778576019444"><ele>493.0</ele><time>2026-03-27T08:47:11Z</time></trkpt><trkpt lat="48.22697527217866" lon="11.587974101588578"><ele>493.0</ele><time>2026-03-27T08:47:12Z</time></trkpt><trkpt lat="48.226984081068665" lon="11.588185957404445"><ele>493.5</ele><time>2026-03-27T08:47:13Z</time></trkpt><trkpt lat="48.226992508471575" lon="11.588408431586494"><ele>494.0</ele><time>2026-03-27T08:47:14Z</time></trkpt><trkpt lat="48.2269916579448" lon="11.588617339645987"><ele>494.5</ele><time>2026-03-27T08:47:15Z</time></trkpt><trkpt lat="48.226981086001494" lon="11.58883053644067"><ele>495.0</ele><time>2026-03-27T08:47:16Z</time></trkpt><trkpt lat="48.2269626831054" lon="11.589051451874457"><ele>495.0</ele><time>2026-03-27T08:47:17Z</time></trkpt><trkpt lat="48.22693794785005" lon="11.58927663162294"><ele>495.0</ele><time>2026-03-27T08:47:18Z</time></trkpt><trkpt lat="48.22690701780893" lon="11.589506279957279"><ele>495.0</ele><time>2026-03-27T08:47:19Z</time></trkpt><trkpt lat="48.22686663211778" lon="11.589740412867156"><ele>495.0</ele><time>2026-03-27T08:47:20Z</time></trkpt><trkpt lat="48.226815766955774" lon="11.58997513621109"><ele>495.0</ele><time>2026-03-27T08:47:21Z</time></trkpt><trkpt lat="48.22675688113856" lon="11.590205099802404"><ele>495.0</ele><time>2026-03-27T08:47:22Z</time></trkpt><trkpt lat="48.22669257518476" lon="11.590431530875493"><ele>494.0</ele><time>2026-03-27T08:47:23Z</time></trkpt><trkpt lat="48.22663423231805" lon="11.59065881382011"><ele>493.0</ele><time>2026-03-27T08:47:24Z</time></trkpt><trkpt lat="48.22658010823237" lon="11.590888031230131"><ele>492.0</ele><time>2026-03-27T08:47:25Z</time></trkpt><trkpt lat="48.22653201083899" lon="11.59112075482588"><ele>492.0</ele><time>2026-03-27T08:47:26Z</time></trkpt><trkpt lat="48.22649321016813" lon="11.59135468894237"><ele>492.0</ele><time>2026-03-27T08:47:27Z</time></trkpt><trkpt lat="48.226458282371375" lon="11.591589319215224"><ele>492.0</ele><time>2026-03-27T08:47:28Z</time></trkpt><trkpt lat="48.22643340337389" lon="11.59182500299401"><ele>492.33333333333337</ele><time>2026-03-27T08:47:29Z</time></trkpt><trkpt lat="48.22641568552027" lon="11.592061290967507"><ele>492.6666666666667</ele><time>2026-03-27T08:47:30Z</time></trkpt><trkpt lat="48.226403301300586" lon="11.592302619343856"><ele>493.0</ele><time>2026-03-27T08:47:31Z</time></trkpt><trkpt lat="48.22639945064861" lon="11.59254453027838"><ele>493.0</ele><time>2026-03-27T08:47:32Z</time></trkpt><trkpt lat="48.226401984320574" lon="11.592786613017672"><ele>493.0</ele><time>2026-03-27T08:47:33Z</time></trkpt><trkpt lat="48.22641155636685" lon="11.593026431554996"><ele>493.0</ele><time>2026-03-27T08:47:34Z</time></trkpt><trkpt lat="48.226428426220565" lon="11.593268457674757"><ele>493.0</ele><time>2026-03-27T08:47:35Z</time></trkpt><trkpt lat="48.22645165181363" lon="11.593510931459791"><ele>493.0</ele><time>2026-03-27T08:47:36Z</time></trkpt><trkpt lat="48.2264842256901" lon="11.593752193730328"><ele>493.0</ele><time>2026-03-27T08:47:37Z</time></trkpt><trkpt lat="48.22652551989936" lon="11.593992525077525"><ele>492.6666666666667</ele><time>2026-03-27T08:47:38Z</time></trkpt><trkpt lat="48.22657384753188" lon="11.594230203023384"><ele>492.33333333333337</ele><time>2026-03-27T08:47:39Z</time></trkpt><trkpt lat="48.22662860399958" lon="11.594466836355284"><ele>492.0</ele><time>2026-03-27T08:47:40Z</time></trkpt><trkpt lat="48.22669019824719" lon="11.594700754718676"><ele>492.0</ele><time>2026-03-27T08:47:41Z</time></trkpt><trkpt lat="48.226759434803405" lon="11.594928581531269"><ele>492.0</ele><time>2026-03-27T08:47:42Z</time></trkpt><trkpt lat="48.226837438544976" lon="11.59515253347579"><ele>492.0</ele><time>2026-03-27T08:47:43Z</time></trkpt><trkpt lat="48.22691968675267" lon="11.595370881401974"><ele>493.0</ele><time>2026-03-27T08:47:44Z</time></trkpt><trkpt lat="48.22700774417761" lon="11.595580930095224"><ele>494.0</ele><time>2026-03-27T08:47:45Z</time></trkpt><trkpt lat="48.22710196556389" lon="11.5957799557713"><ele>495.0</ele><time>2026-03-27T08:47:46Z</time></trkpt><trkpt lat="48.2272092662257" lon="11.595963126460656"><ele>494.66666666666663</ele><time>2026-03-27T08:47:47Z</time></trkpt><trkpt lat="48.227310652794756" lon="11.596153105531313"><ele>494.3333333333333</ele><time>2026-03-27T08:47:48Z</time></trkpt><trkpt lat="48.22741840670125" lon="11.596329781522554"><ele>494.0</ele><time>2026-03-27T08:47:49Z</time></trkpt><trkpt lat="48.227536669163555" lon="11.596496426892882"><ele>494.0</ele><time>2026-03-27T08:47:50Z</time></trkpt><trkpt lat="48.227655368744216" lon="11.596658095167504"><ele>494.0</ele><time>2026-03-27T08:47:50.999Z</time></trkpt><trkpt lat="48.227780691174466" lon="11.596815032598704"><ele>494.0</ele><time>2026-03-27T08:47:51.999Z</time></trkpt><trkpt lat="48.227912587969904" lon="11.596962789925156"><ele>493.66666666666663</ele><time>2026-03-27T08:47:52.999Z</time></trkpt><trkpt lat="48.22805035306177" lon="11.597102149135905"><ele>493.33333333333337</ele><time>2026-03-27T08:47:53.999Z</time></trkpt><trkpt lat="48.228191780825576" lon="11.597230468153889"><ele>493.0</ele><time>2026-03-27T08:47:54.999Z</time></trkpt><trkpt lat="48.2283357638861" lon="11.597346654976153"><ele>493.0</ele><time>2026-03-27T08:47:55.999Z</time></trkpt><trkpt lat="48.228483253480455" lon="11.597455965676456"><ele>493.0</ele><time>2026-03-27T08:47:56.999Z</time></trkpt><trkpt lat="48.22863235611473" lon="11.597556547927944"><ele>493.0</ele><time>2026-03-27T08:47:57.999Z</time></trkpt><trkpt lat="48.22878445454281" lon="11.597645740308556"><ele>493.0</ele><time>2026-03-27T08:47:58.999Z</time></trkpt><trkpt lat="48.228945952628244" lon="11.597719520498975"><ele>493.0</ele><time>2026-03-27T08:47:59.999Z</time></trkpt><trkpt lat="48.22912272870142" lon="11.597786817323541"><ele>493.0</ele><time>2026-03-27T08:48:00.999Z</time></trkpt><trkpt lat="48.22930877712385" lon="11.597850685413563"><ele>492.6666666666667</ele><time>2026-03-27T08:48:01.999Z</time></trkpt><trkpt lat="48.22949103430268" lon="11.59791030779074"><ele>492.33333333333337</ele><time>2026-03-27T08:48:02.999Z</time></trkpt><trkpt lat="48.22967003751162" lon="11.597965330864474"><ele>492.0</ele><time>2026-03-27T08:48:03.999Z</time></trkpt><trkpt lat="48.229847210219546" lon="11.598019604509673"><ele>492.0</ele><time>2026-03-27T08:48:04.999Z</time></trkpt><trkpt lat="48.23002262734257" lon="11.598071701579846"><ele>492.0</ele><time>2026-03-27T08:48:05.999Z</time></trkpt><trkpt lat="48.23019451148889" lon="11.598119325047488"><ele>492.0</ele><time>2026-03-27T08:48:06.999Z</time></trkpt><trkpt lat="48.23036329080784" lon="11.598165937944485"><ele>492.0</ele><time>2026-03-27T08:48:07.999Z</time></trkpt><trkpt lat="48.23052063288548" lon="11.598224605837807"><ele>492.0</ele><time>2026-03-27T08:48:08.999Z</time></trkpt><trkpt lat="48.230660084997574" lon="11.598245866255084"><ele>492.0</ele><time>2026-03-27T08:48:09.999Z</time></trkpt><trkpt lat="48.23077637305018" lon="11.598300905906688"><ele>492.0</ele><time>2026-03-27T08:48:10.999Z</time></trkpt><trkpt lat="48.23088537351566" lon="11.598306351746437"><ele>492.0</ele><time>2026-03-27T08:48:11.999Z</time></trkpt><trkpt lat="48.230989845079094" lon="11.59833498841202"><ele>492.00000000000006</ele><time>2026-03-27T08:48:12.999Z</time></trkpt><trkpt lat="48.23108822345125" lon="11.59836194584629"><ele>492.00000000000006</ele><time>2026-03-27T08:48:13.999Z</time></trkpt><trkpt lat="48.231187235867196" lon="11.598388350338823"><ele>492.0</ele><time>2026-03-27T08:48:14.999Z</time></trkpt><trkpt lat="48.23128653789373" lon="11.598415425582525"><ele>492.0</ele><time>2026-03-27T08:48:15.999Z</time></trkpt><trkpt lat="48.231393919650856" lon="11.59844470382449"><ele>491.75</ele><time>2026-03-27T08:48:16.999Z</time></trkpt><trkpt lat="48.23151222725947" lon="11.598476961023648"><ele>491.5</ele><time>2026-03-27T08:48:17.999Z</time></trkpt><trkpt lat="48.23163655657114" lon="11.59853425059067"><ele>491.25</ele><time>2026-03-27T08:48:18.999Z</time></trkpt><trkpt lat="48.23177210166339" lon="11.598571057131103"><ele>491.0</ele><time>2026-03-27T08:48:19.999Z</time></trkpt><trkpt lat="48.23190131325497" lon="11.598607366883687"><ele>491.0</ele><time>2026-03-27T08:48:20.999Z</time></trkpt><trkpt lat="48.2320245707095" lon="11.59863892235401"><ele>491.0</ele><time>2026-03-27T08:48:21.999Z</time></trkpt><trkpt lat="48.232178083951474" lon="11.598671277228897"><ele>491.0</ele><time>2026-03-27T08:48:22.999Z</time></trkpt><trkpt lat="48.23236259480267" lon="11.598720740085646"><ele>492.0</ele><time>2026-03-27T08:48:23.999Z</time></trkpt><trkpt lat="48.23254887385436" lon="11.59877049432525"><ele>493.0</ele><time>2026-03-27T08:48:24.999Z</time></trkpt><trkpt lat="48.23271510567078" lon="11.598813644827548"><ele>494.0</ele><time>2026-03-27T08:48:25.999Z</time></trkpt><trkpt lat="48.23288075210014" lon="11.598856188698807"><ele>494.0</ele><time>2026-03-27T08:48:26.999Z</time></trkpt><trkpt lat="48.23305009648093" lon="11.598900593899389"><ele>494.0</ele><time>2026-03-27T08:48:27.999Z</time></trkpt><trkpt lat="48.23322096898553" lon="11.598944117575218"><ele>494.0</ele><time>2026-03-27T08:48:28.999Z</time></trkpt><trkpt lat="48.23339117441685" lon="11.598986352686843"><ele>493.66666666666663</ele><time>2026-03-27T08:48:29.999Z</time></trkpt><trkpt lat="48.23355886292681" lon="11.599027598841007"><ele>493.33333333333337</ele><time>2026-03-27T08:48:30.999Z</time></trkpt><trkpt lat="48.23373083731416" lon="11.599070070105785"><ele>493.0</ele><time>2026-03-27T08:48:31.999Z</time></trkpt><trkpt lat="48.23390728271297" lon="11.59911782284235"><ele>492.33333333333337</ele><time>2026-03-27T08:48:32.999Z</time></trkpt><trkpt lat="48.23409627420742" lon="11.599167022003337"><ele>491.66666666666663</ele><time>2026-03-27T08:48:33.999Z</time></trkpt><trkpt lat="48.23429848447312" lon="11.599222196532693"><ele>491.0</ele><time>2026-03-27T08:48:34.999Z</time></trkpt><trkpt lat="48.23450643436052" lon="11.599280906834137"><ele>491.0</ele><time>2026-03-27T08:48:35.999Z</time></trkpt><trkpt lat="48.23471281518507" lon="11.599337254649853"><ele>491.0</ele><time>2026-03-27T08:48:36.999Z</time></trkpt><trkpt lat="48.23491324421701" lon="11.599391439578957"><ele>491.0</ele><time>2026-03-27T08:48:37.999Z</time></trkpt><trkpt lat="48.23511494598591" lon="11.599446642215524"><ele>490.66666666666663</ele><time>2026-03-27T08:48:38.998Z</time></trkpt><trkpt lat="48.235317644124024" lon="11.599504470715566"><ele>490.33333333333337</ele><time>2026-03-27T08:48:39.998Z</time></trkpt><trkpt lat="48.23552053152004" lon="11.599556486989078"><ele>490.0</ele><time>2026-03-27T08:48:40.998Z</time></trkpt><trkpt lat="48.2357225617937" lon="11.59961000476947"><ele>488.6666666666667</ele><time>2026-03-27T08:48:41.998Z</time></trkpt><trkpt lat="48.23592110812162" lon="11.599663804851959"><ele>487.33333333333337</ele><time>2026-03-27T08:48:42.998Z</time></trkpt><trkpt lat="48.236113685665906" lon="11.599713939336526"><ele>486.0</ele><time>2026-03-27T08:48:43.998Z</time></trkpt><trkpt lat="48.23630664922687" lon="11.599763014440086"><ele>486.0</ele><time>2026-03-27T08:48:44.998Z</time></trkpt><trkpt lat="48.236500990195" lon="11.599811487507232"><ele>486.0</ele><time>2026-03-27T08:48:45.998Z</time></trkpt><trkpt lat="48.2367020455154" lon="11.599867286941944"><ele>486.0</ele><time>2026-03-27T08:48:46.998Z</time></trkpt><trkpt lat="48.23691279161429" lon="11.599927898865952"><ele>486.0</ele><time>2026-03-27T08:48:47.998Z</time></trkpt><trkpt lat="48.23713227200459" lon="11.599988044895928"><ele>486.0</ele><time>2026-03-27T08:48:48.998Z</time></trkpt><trkpt lat="48.23734493699913" lon="11.600049436802319"><ele>486.0</ele><time>2026-03-27T08:48:49.998Z</time></trkpt><trkpt lat="48.237557058955346" lon="11.600107553827051"><ele>487.66666666666663</ele><time>2026-03-27T08:48:50.998Z</time></trkpt><trkpt lat="48.23776926901622" lon="11.600164655351852"><ele>489.3333333333333</ele><time>2026-03-27T08:48:51.998Z</time></trkpt><trkpt lat="48.23798602496887" lon="11.60022388456121"><ele>491.0</ele><time>2026-03-27T08:48:52.998Z</time></trkpt><trkpt lat="48.23820377287576" lon="11.600284390978238"><ele>491.3333333333333</ele><time>2026-03-27T08:48:53.998Z</time></trkpt><trkpt lat="48.23842473424599" lon="11.600345101515208"><ele>491.66666666666663</ele><time>2026-03-27T08:48:54.998Z</time></trkpt><trkpt lat="48.238643759932934" lon="11.600403027305887"><ele>492.0</ele><time>2026-03-27T08:48:55.998Z</time></trkpt><trkpt lat="48.238856405817664" lon="11.600462318817117"><ele>490.66666666666663</ele><time>2026-03-27T08:48:56.998Z</time></trkpt><trkpt lat="48.239063062443094" lon="11.60051784104165"><ele>489.3333333333333</ele><time>2026-03-27T08:48:57.998Z</time></trkpt><trkpt lat="48.23927594449446" lon="11.600574169443819"><ele>488.0</ele><time>2026-03-27T08:48:58.998Z</time></trkpt><trkpt lat="48.23949389347222" lon="11.600631968465976"><ele>488.0</ele><time>2026-03-27T08:48:59.998Z</time></trkpt><trkpt lat="48.23971084708366" lon="11.60069533391931"><ele>488.0</ele><time>2026-03-27T08:49:00.998Z</time></trkpt><trkpt lat="48.239928143063004" lon="11.600757860749082"><ele>488.0</ele><time>2026-03-27T08:49:01.998Z</time></trkpt><trkpt lat="48.240144538179145" lon="11.600814643030784"><ele>488.3333333333333</ele><time>2026-03-27T08:49:02.998Z</time></trkpt><trkpt lat="48.24035883524495" lon="11.600871045677994"><ele>488.66666666666663</ele><time>2026-03-27T08:49:03.998Z</time></trkpt><trkpt lat="48.240573881283076" lon="11.60092953535164"><ele>489.0</ele><time>2026-03-27T08:49:05Z</time></trkpt><trkpt lat="48.24079167922828" lon="11.600989587239729"><ele>489.33333333333337</ele><time>2026-03-27T08:49:06Z</time></trkpt><trkpt lat="48.24100830908168" lon="11.601051423449904"><ele>489.6666666666667</ele><time>2026-03-27T08:49:07Z</time></trkpt><trkpt lat="48.24122507025752" lon="11.601110993566513"><ele>490.0</ele><time>2026-03-27T08:49:08Z</time></trkpt><trkpt lat="48.24144291387666" lon="11.601170827446238"><ele>488.6666666666667</ele><time>2026-03-27T08:49:09Z</time></trkpt><trkpt lat="48.241660388153335" lon="11.601229875591608"><ele>487.33333333333337</ele><time>2026-03-27T08:49:10Z</time></trkpt><trkpt lat="48.2418800129244" lon="11.601290347076375"><ele>486.0</ele><time>2026-03-27T08:49:11Z</time></trkpt><trkpt lat="48.24209495560783" lon="11.601349075799568"><ele>486.66666666666663</ele><time>2026-03-27T08:49:12Z</time></trkpt><trkpt lat="48.242307833876694" lon="11.601409761063941"><ele>487.3333333333333</ele><time>2026-03-27T08:49:13Z</time></trkpt><trkpt lat="48.24252564266249" lon="11.601466720960646"><ele>488.0</ele><time>2026-03-27T08:49:14Z</time></trkpt><trkpt lat="48.24274301104921" lon="11.601523852457197"><ele>488.0</ele><time>2026-03-27T08:49:15Z</time></trkpt><trkpt lat="48.24295714051428" lon="11.601578929012385"><ele>488.0</ele><time>2026-03-27T08:49:16Z</time></trkpt><trkpt lat="48.24316695500914" lon="11.601640778112285"><ele>488.0</ele><time>2026-03-27T08:49:17Z</time></trkpt><trkpt lat="48.24337673799519" lon="11.60169954486262"><ele>488.0</ele><time>2026-03-27T08:49:18Z</time></trkpt><trkpt lat="48.24358772667841" lon="11.601755040636677"><ele>488.0</ele><time>2026-03-27T08:49:19Z</time></trkpt><trkpt lat="48.243799461525235" lon="11.60180179783091"><ele>488.0</ele><time>2026-03-27T08:49:20Z</time></trkpt><trkpt lat="48.24401419188493" lon="11.601859909457152"><ele>487.0</ele><time>2026-03-27T08:49:21Z</time></trkpt><trkpt lat="48.24422983296901" lon="11.601908480632504"><ele>486.0</ele><time>2026-03-27T08:49:22Z</time></trkpt><trkpt lat="48.2444432573131" lon="11.601948464666899"><ele>485.0</ele><time>2026-03-27T08:49:23Z</time></trkpt><trkpt lat="48.24465749886101" lon="11.60200247423102"><ele>485.0</ele><time>2026-03-27T08:49:24Z</time></trkpt><trkpt lat="48.2448785231674" lon="11.602056196676337"><ele>485.0</ele><time>2026-03-27T08:49:25Z</time></trkpt><trkpt lat="48.24510712049759" lon="11.602093102831867"><ele>485.0</ele><time>2026-03-27T08:49:26Z</time></trkpt><trkpt lat="48.24530705866672" lon="11.60212381006505"><ele>485.0</ele><time>2026-03-27T08:49:26.999Z</time></trkpt><trkpt lat="48.24551914884805" lon="11.602156994353011"><ele>485.0</ele><time>2026-03-27T08:49:27.999Z</time></trkpt><trkpt lat="48.24573382763742" lon="11.602185306865724"><ele>485.3333333333333</ele><time>2026-03-27T08:49:28.999Z</time></trkpt><trkpt lat="48.245938577501306" lon="11.602208187853398"><ele>485.66666666666663</ele><time>2026-03-27T08:49:29.999Z</time></trkpt><trkpt lat="48.246127143830265" lon="11.60222822073844"><ele>486.0</ele><time>2026-03-27T08:49:30.999Z</time></trkpt><trkpt lat="48.24630376877923" lon="11.60224446965689"><ele>486.0</ele><time>2026-03-27T08:49:31.999Z</time></trkpt><trkpt lat="48.246468485099065" lon="11.602255209867598"><ele>486.0</ele><time>2026-03-27T08:49:32.999Z</time></trkpt><trkpt lat="48.246623280083035" lon="11.60226578028306"><ele>486.0</ele><time>2026-03-27T08:49:33.999Z</time></trkpt><trkpt lat="48.24690656674977" lon="11.60227825169903"><ele>486.0</ele><time>2026-03-27T08:49:35.999Z</time></trkpt><trkpt lat="48.24704132425646" lon="11.602283059685139"><ele>486.0</ele><time>2026-03-27T08:49:36.999Z</time></trkpt><trkpt lat="48.24729720973883" lon="11.602284998955573"><ele>486.0</ele><time>2026-03-27T08:49:38.999Z</time></trkpt><trkpt lat="48.247415706824" lon="11.602286716705045"><ele>486.25</ele><time>2026-03-27T08:49:39.999Z</time></trkpt><trkpt lat="48.24752918461469" lon="11.602290748999318"><ele>486.5</ele><time>2026-03-27T08:49:40.999Z</time></trkpt><trkpt lat="48.24763790902612" lon="11.602297480176519"><ele>486.75</ele><time>2026-03-27T08:49:41.999Z</time></trkpt><trkpt lat="48.24774652346273" lon="11.602298810521527"><ele>487.0</ele><time>2026-03-27T08:49:42.999Z</time></trkpt><trkpt lat="48.247869118896794" lon="11.602294707327658"><ele>487.0</ele><time>2026-03-27T08:49:43.999Z</time></trkpt><trkpt lat="48.24798053078655" lon="11.602287271844839"><ele>487.00000000000006</ele><time>2026-03-27T08:49:44.999Z</time></trkpt><trkpt lat="48.24808178742139" lon="11.602278836809498"><ele>487.00000000000006</ele><time>2026-03-27T08:49:45.999Z</time></trkpt><trkpt lat="48.248173755583515" lon="11.602272112491162"><ele>487.0</ele><time>2026-03-27T08:49:46.999Z</time></trkpt><trkpt lat="48.24825410554934" lon="11.602265980613057"><ele>487.0</ele><time>2026-03-27T08:49:47.999Z</time></trkpt><trkpt lat="48.248319225277804" lon="11.60225922456385"><ele>486.50000000000006</ele><time>2026-03-27T08:49:48.999Z</time></trkpt><trkpt lat="48.248412870877715" lon="11.602240037934438"><ele>486.0</ele><time>2026-03-27T08:49:50.999Z</time></trkpt><trkpt lat="48.24848848413492" lon="11.602239412844161"><ele>485.5</ele><time>2026-03-27T08:49:52.999Z</time></trkpt><trkpt lat="48.24855429166655" lon="11.602229249966907"><ele>485.0</ele><time>2026-03-27T08:49:54.999Z</time></trkpt><trkpt lat="48.24864557236629" lon="11.602198043711658"><ele>484.50000000000006</ele><time>2026-03-27T08:49:57.999Z</time></trkpt><trkpt lat="48.24870721064768" lon="11.602323131153552"><ele>484.0</ele><time>2026-03-27T08:49:59.999Z</time></trkpt><trkpt lat="48.248728464921" lon="11.602457806119816"><ele>484.0</ele><time>2026-03-27T08:50:01.999Z</time></trkpt><trkpt lat="48.248724810925445" lon="11.602610125520641"><ele>484.0</ele><time>2026-03-27T08:50:03.999Z</time></trkpt><trkpt lat="48.24871818518241" lon="11.602808863041364"><ele>484.0</ele><time>2026-03-27T08:50:05.999Z</time></trkpt><trkpt lat="48.2487236353247" lon="11.602919214677685"><ele>484.0</ele><time>2026-03-27T08:50:06.999Z</time></trkpt><trkpt lat="48.24873792739038" lon="11.603026561093436"><ele>484.0</ele><time>2026-03-27T08:50:07.999Z</time></trkpt><trkpt lat="48.24875800897799" lon="11.603133394651282"><ele>484.00000000000006</ele><time>2026-03-27T08:50:08.999Z</time></trkpt><trkpt lat="48.24878819807641" lon="11.603238448920074"><ele>484.0</ele><time>2026-03-27T08:50:09.999Z</time></trkpt><trkpt lat="48.24882666626021" lon="11.603338675232182"><ele>484.0</ele><time>2026-03-27T08:50:10.999Z</time></trkpt><trkpt lat="48.24887575996336" lon="11.603430545458986"><ele>484.0</ele><time>2026-03-27T08:50:11.999Z</time></trkpt><trkpt lat="48.24893203145163" lon="11.603517318612566"><ele>484.00000000000006</ele><time>2026-03-27T08:50:12.999Z</time></trkpt><trkpt lat="48.24899589066246" lon="11.603597090169625"><ele>484.0</ele><time>2026-03-27T08:50:13.999Z</time></trkpt><trkpt lat="48.24905982404162" lon="11.603684929470946"><ele>483.83333333333337</ele><time>2026-03-27T08:50:14.999Z</time></trkpt><trkpt lat="48.249122511368235" lon="11.603778596188373"><ele>483.6666666666667</ele><time>2026-03-27T08:50:15.999Z</time></trkpt><trkpt lat="48.24918294356965" lon="11.603874723432718"><ele>483.5</ele><time>2026-03-27T08:50:16.999Z</time></trkpt><trkpt lat="48.24924393808305" lon="11.603977255786079"><ele>483.33333333333337</ele><time>2026-03-27T08:50:17.999Z</time></trkpt><trkpt lat="48.249294234723244" lon="11.60407723223845"><ele>483.1666666666667</ele><time>2026-03-27T08:50:18.999Z</time></trkpt><trkpt lat="48.24933822483367" lon="11.604184002542807"><ele>483.0</ele><time>2026-03-27T08:50:19.999Z</time></trkpt><trkpt lat="48.24937593278035" lon="11.604290684361441"><ele>483.0</ele><time>2026-03-27T08:50:20.999Z</time></trkpt><trkpt lat="48.249411501312935" lon="11.604396765670923"><ele>483.0</ele><time>2026-03-27T08:50:21.999Z</time></trkpt><trkpt lat="48.24944997240588" lon="11.604501777687569"><ele>483.0</ele><time>2026-03-27T08:50:22.999Z</time></trkpt><trkpt lat="48.24949217060362" lon="11.604613034342668"><ele>483.0</ele><time>2026-03-27T08:50:23.999Z</time></trkpt><trkpt lat="48.249531813649426" lon="11.604743128917788"><ele>483.0</ele><time>2026-03-27T08:50:24.999Z</time></trkpt><trkpt lat="48.249579307629546" lon="11.60487712776683"><ele>483.0</ele><time>2026-03-27T08:50:25.999Z</time></trkpt><trkpt lat="48.24962479463524" lon="11.605011572716375"><ele>483.0</ele><time>2026-03-27T08:50:26.999Z</time></trkpt><trkpt lat="48.249664282107375" lon="11.605137779497365"><ele>483.0</ele><time>2026-03-27T08:50:27.999Z</time></trkpt><trkpt lat="48.24970818468259" lon="11.605264551693866"><ele>483.0</ele><time>2026-03-27T08:50:28.999Z</time></trkpt><trkpt lat="48.24975023232587" lon="11.605387268806103"><ele>483.0</ele><time>2026-03-27T08:50:29.999Z</time></trkpt><trkpt lat="48.24978629146496" lon="11.60549131038212"><ele>483.0</ele><time>2026-03-27T08:50:30.999Z</time></trkpt><trkpt lat="48.24981868416172" lon="11.60558654800083"><ele>483.0</ele><time>2026-03-27T08:50:31.999Z</time></trkpt><trkpt lat="48.24985233986562" lon="11.605680576172649"><ele>483.0</ele><time>2026-03-27T08:50:32.999Z</time></trkpt><trkpt lat="48.249886701454926" lon="11.605794834277324"><ele>482.99999999999994</ele><time>2026-03-27T08:50:33.999Z</time></trkpt><trkpt lat="48.2499304781022" lon="11.60591829421105"><ele>482.99999999999994</ele><time>2026-03-27T08:50:34.999Z</time></trkpt><trkpt lat="48.24997116516213" lon="11.606042202328396"><ele>483.0</ele><time>2026-03-27T08:50:35.999Z</time></trkpt><trkpt lat="48.25000601865086" lon="11.60616714370767"><ele>483.0</ele><time>2026-03-27T08:50:36.999Z</time></trkpt><trkpt lat="48.25003654254165" lon="11.606306298387572"><ele>483.2</ele><time>2026-03-27T08:50:37.999Z</time></trkpt><trkpt lat="48.25007025768951" lon="11.606443555131106"><ele>483.4</ele><time>2026-03-27T08:50:38.999Z</time></trkpt><trkpt lat="48.25009587754357" lon="11.606574806223817"><ele>483.59999999999997</ele><time>2026-03-27T08:50:39.999Z</time></trkpt><trkpt lat="48.25010970570447" lon="11.606703900532418"><ele>483.79999999999995</ele><time>2026-03-27T08:50:40.999Z</time></trkpt><trkpt lat="48.25011692644036" lon="11.606857475648733"><ele>484.0</ele><time>2026-03-27T08:50:41.999Z</time></trkpt><trkpt lat="48.250133929463004" lon="11.60699391781198"><ele>483.75</ele><time>2026-03-27T08:50:42.999Z</time></trkpt><trkpt lat="48.250152569846435" lon="11.607157792864202"><ele>483.5</ele><time>2026-03-27T08:50:43.999Z</time></trkpt><trkpt lat="48.25017551241345" lon="11.607341437337842"><ele>483.25</ele><time>2026-03-27T08:50:44.999Z</time></trkpt><trkpt lat="48.25018834663923" lon="11.607511795648952"><ele>483.0</ele><time>2026-03-27T08:50:45.999Z</time></trkpt><trkpt lat="48.25020263280252" lon="11.607673722979392"><ele>483.0</ele><time>2026-03-27T08:50:46.999Z</time></trkpt><trkpt lat="48.25021282165535" lon="11.607836845541875"><ele>482.99999999999994</ele><time>2026-03-27T08:50:47.999Z</time></trkpt><trkpt lat="48.25022261473775" lon="11.608002484086969"><ele>482.99999999999994</ele><time>2026-03-27T08:50:48.999Z</time></trkpt><trkpt lat="48.25023905375988" lon="11.608163964281768"><ele>483.0</ele><time>2026-03-27T08:50:49.999Z</time></trkpt><trkpt lat="48.250264274816764" lon="11.608331830117857"><ele>483.0</ele><time>2026-03-27T08:50:50.999Z</time></trkpt><trkpt lat="48.25027951613727" lon="11.608519635959647"><ele>483.0</ele><time>2026-03-27T08:50:51.999Z</time></trkpt><trkpt lat="48.25029824678707" lon="11.608734278226388"><ele>483.0</ele><time>2026-03-27T08:50:52.999Z</time></trkpt><trkpt lat="48.25032030551672" lon="11.608963900835924"><ele>483.0</ele><time>2026-03-27T08:50:53.999Z</time></trkpt><trkpt lat="48.25033223884154" lon="11.609162445274979"><ele>483.0</ele><time>2026-03-27T08:50:54.999Z</time></trkpt><trkpt lat="48.25034180364688" lon="11.609345902235628"><ele>483.0</ele><time>2026-03-27T08:50:55.999Z</time></trkpt><trkpt lat="48.25034878572188" lon="11.60952707442689"><ele>483.0</ele><time>2026-03-27T08:50:56.998Z</time></trkpt><trkpt lat="48.25035679199079" lon="11.609723822292512"><ele>483.0</ele><time>2026-03-27T08:50:57.998Z</time></trkpt><trkpt lat="48.250364235699095" lon="11.6099351088844"><ele>483.0</ele><time>2026-03-27T08:50:58.998Z</time></trkpt><trkpt lat="48.250364141906" lon="11.610126970344451"><ele>483.0</ele><time>2026-03-27T08:50:59.998Z</time></trkpt><trkpt lat="48.25036665775984" lon="11.610318971358325"><ele>483.0</ele><time>2026-03-27T08:51:00.998Z</time></trkpt><trkpt lat="48.250376628354196" lon="11.610504599565065"><ele>483.0</ele><time>2026-03-27T08:51:01.998Z</time></trkpt><trkpt lat="48.25038549824469" lon="11.610676384317667"><ele>483.0</ele><time>2026-03-27T08:51:02.998Z</time></trkpt><trkpt lat="48.25039200441039" lon="11.610830457464418"><ele>483.1666666666667</ele><time>2026-03-27T08:51:03.998Z</time></trkpt><trkpt lat="48.25039696324297" lon="11.610973998529325"><ele>483.33333333333337</ele><time>2026-03-27T08:51:04.998Z</time></trkpt><trkpt lat="48.25040023904104" lon="11.611112128091333"><ele>483.5</ele><time>2026-03-27T08:51:05.998Z</time></trkpt><trkpt lat="48.250403988270534" lon="11.611232387685561"><ele>483.6666666666667</ele><time>2026-03-27T08:51:06.998Z</time></trkpt><trkpt lat="48.25040856034657" lon="11.61133504508069"><ele>483.83333333333337</ele><time>2026-03-27T08:51:07.998Z</time></trkpt><trkpt lat="48.25041245879086" lon="11.611435145730876"><ele>484.0</ele><time>2026-03-27T08:51:08.998Z</time></trkpt><trkpt lat="48.25042162242523" lon="11.611580317598817"><ele>484.00000000000006</ele><time>2026-03-27T08:51:11Z</time></trkpt><trkpt lat="48.25042732692452" lon="11.611694692226317"><ele>484.0</ele><time>2026-03-27T08:51:13Z</time></trkpt><trkpt lat="48.25043168150607" lon="11.61181336571519"><ele>484.0</ele><time>2026-03-27T08:51:16Z</time></trkpt><trkpt lat="48.250415458563225" lon="11.611964581889335"><ele>484.0</ele><time>2026-03-27T08:51:28.999Z</time></trkpt><trkpt lat="48.250425927104686" lon="11.612074771997206"><ele>484.00000000000006</ele><time>2026-03-27T08:51:29.999Z</time></trkpt><trkpt lat="48.25042826314614" lon="11.612172124856809"><ele>484.0</ele><time>2026-03-27T08:51:30.999Z</time></trkpt><trkpt lat="48.25042360900647" lon="11.612269530040825"><ele>484.00000000000006</ele><time>2026-03-27T08:51:31.999Z</time></trkpt><trkpt lat="48.25042215561558" lon="11.612369133699511"><ele>484.0</ele><time>2026-03-27T08:51:32.999Z</time></trkpt><trkpt lat="48.25041425350899" lon="11.61247362637047"><ele>484.0</ele><time>2026-03-27T08:51:33.999Z</time></trkpt><trkpt lat="48.25041124033533" lon="11.612593892486004"><ele>484.0</ele><time>2026-03-27T08:51:34.999Z</time></trkpt><trkpt lat="48.2504108051716" lon="11.612730937969406"><ele>484.00000000000006</ele><time>2026-03-27T08:51:35.999Z</time></trkpt><trkpt lat="48.250405390138646" lon="11.612879951761313"><ele>484.0</ele><time>2026-03-27T08:51:36.999Z</time></trkpt><trkpt lat="48.250404601398934" lon="11.613024479468928"><ele>484.0</ele><time>2026-03-27T08:51:37.999Z</time></trkpt><trkpt lat="48.25040046615392" lon="11.613162154732663"><ele>484.0</ele><time>2026-03-27T08:51:38.999Z</time></trkpt><trkpt lat="48.25040254981869" lon="11.613297536442726"><ele>484.0</ele><time>2026-03-27T08:51:39.999Z</time></trkpt><trkpt lat="48.250408051998434" lon="11.613436009055242"><ele>484.0</ele><time>2026-03-27T08:51:40.999Z</time></trkpt><trkpt lat="48.250406682270814" lon="11.613586215797687"><ele>484.0</ele><time>2026-03-27T08:51:41.999Z</time></trkpt><trkpt lat="48.250407892330536" lon="11.613738314679129"><ele>484.25</ele><time>2026-03-27T08:51:42.999Z</time></trkpt><trkpt lat="48.25040752072661" lon="11.61389673320933"><ele>484.5</ele><time>2026-03-27T08:51:43.999Z</time></trkpt><trkpt lat="48.25040962990481" lon="11.614062117471217"><ele>484.75</ele><time>2026-03-27T08:51:44.999Z</time></trkpt><trkpt lat="48.2504097989538" lon="11.61423950446939"><ele>485.0</ele><time>2026-03-27T08:51:45.999Z</time></trkpt><trkpt lat="48.25040676546468" lon="11.614419616774782"><ele>484.25</ele><time>2026-03-27T08:51:46.999Z</time></trkpt><trkpt lat="48.25040502203155" lon="11.614600309939181"><ele>483.5</ele><time>2026-03-27T08:51:47.999Z</time></trkpt><trkpt lat="48.25040354342326" lon="11.614775675527852"><ele>482.75</ele><time>2026-03-27T08:51:48.999Z</time></trkpt><trkpt lat="48.25039523811319" lon="11.614943000933724"><ele>482.0</ele><time>2026-03-27T08:51:49.999Z</time></trkpt><trkpt lat="48.250391633762824" lon="11.615111158589368"><ele>482.0</ele><time>2026-03-27T08:51:50.999Z</time></trkpt><trkpt lat="48.25039139376874" lon="11.61528961701851"><ele>482.0</ele><time>2026-03-27T08:51:51.999Z</time></trkpt><trkpt lat="48.25038763444644" lon="11.615476954383912"><ele>482.0</ele><time>2026-03-27T08:51:52.999Z</time></trkpt><trkpt lat="48.25038509035087" lon="11.615667759762596"><ele>482.0</ele><time>2026-03-27T08:51:53.999Z</time></trkpt><trkpt lat="48.25038169152427" lon="11.615854150748392"><ele>482.0</ele><time>2026-03-27T08:51:54.999Z</time></trkpt><trkpt lat="48.250377358806475" lon="11.616036251454952"><ele>482.0</ele><time>2026-03-27T08:51:55.999Z</time></trkpt><trkpt lat="48.25037379895622" lon="11.616218886411863"><ele>482.0</ele><time>2026-03-27T08:51:56.999Z</time></trkpt><trkpt lat="48.25037099268663" lon="11.616403876028835"><ele>482.0</ele><time>2026-03-27T08:51:57.999Z</time></trkpt><trkpt lat="48.250365333039454" lon="11.61659203229288"><ele>482.5</ele><time>2026-03-27T08:51:58.999Z</time></trkpt><trkpt lat="48.25035895078798" lon="11.616780871214326"><ele>483.0</ele><time>2026-03-27T08:51:59.999Z</time></trkpt><trkpt lat="48.250353403872175" lon="11.616953756191943"><ele>483.5</ele><time>2026-03-27T08:52:00.999Z</time></trkpt><trkpt lat="48.25034457769566" lon="11.617129441006915"><ele>484.0</ele><time>2026-03-27T08:52:01.999Z</time></trkpt><trkpt lat="48.25033499901043" lon="11.617318571273554"><ele>484.0</ele><time>2026-03-27T08:52:02.999Z</time></trkpt><trkpt lat="48.25032409456761" lon="11.61749023220689"><ele>484.0</ele><time>2026-03-27T08:52:03.999Z</time></trkpt><trkpt lat="48.25031142708989" lon="11.617646751826843"><ele>484.0</ele><time>2026-03-27T08:52:04.999Z</time></trkpt><trkpt lat="48.2502995350647" lon="11.6177905608462"><ele>484.0</ele><time>2026-03-27T08:52:05.999Z</time></trkpt><trkpt lat="48.25028863133725" lon="11.617931732511272"><ele>484.0</ele><time>2026-03-27T08:52:06.999Z</time></trkpt><trkpt lat="48.250274006324666" lon="11.618064820556743"><ele>483.6</ele><time>2026-03-27T08:52:07.999Z</time></trkpt><trkpt lat="48.250261239911666" lon="11.618175410621127"><ele>483.2</ele><time>2026-03-27T08:52:08.999Z</time></trkpt><trkpt lat="48.25024591358192" lon="11.618314998685328"><ele>482.80000000000007</ele><time>2026-03-27T08:52:10.999Z</time></trkpt><trkpt lat="48.250231014996565" lon="11.618431685268904"><ele>482.40000000000003</ele><time>2026-03-27T08:52:26.999Z</time></trkpt><trkpt lat="48.250212841529866" lon="11.618589892232595"><ele>482.0</ele><time>2026-03-27T08:52:29.999Z</time></trkpt><trkpt lat="48.25020262775245" lon="11.618752509176058"><ele>482.0</ele><time>2026-03-27T08:52:31.999Z</time></trkpt><trkpt lat="48.25018179693451" lon="11.61893053308128"><ele>482.00000000000006</ele><time>2026-03-27T08:52:33.999Z</time></trkpt><trkpt lat="48.250161958224886" lon="11.61910242960257"><ele>482.00000000000006</ele><time>2026-03-27T08:52:35.999Z</time></trkpt><trkpt lat="48.25014811093194" lon="11.619236149213641"><ele>482.0</ele><time>2026-03-27T08:52:37.999Z</time></trkpt><trkpt lat="48.250115309037525" lon="11.619361434817229"><ele>482.0</ele><time>2026-03-27T08:52:39.999Z</time></trkpt><trkpt lat="48.249985862397935" lon="11.619403434596883"><ele>481.99999999999994</ele><time>2026-03-27T08:52:41.999Z</time></trkpt><trkpt lat="48.249898980037806" lon="11.619392438465704"><ele>482.0</ele><time>2026-03-27T08:52:42.999Z</time></trkpt><trkpt lat="48.24981934977384" lon="11.61937856862666"><ele>482.0</ele><time>2026-03-27T08:52:43.999Z</time></trkpt><trkpt lat="48.24975291844143" lon="11.619334187682739"><ele>482.0</ele><time>2026-03-27T08:52:44.999Z</time></trkpt><trkpt lat="48.24967584655218" lon="11.619307306542929"><ele>481.99999999999994</ele><time>2026-03-27T08:52:45.999Z</time></trkpt><trkpt lat="48.249598304374686" lon="11.619286194725674"><ele>482.0</ele><time>2026-03-27T08:52:46.999Z</time></trkpt><trkpt lat="48.24951662517105" lon="11.619270747514532"><ele>481.99999999999994</ele><time>2026-03-27T08:52:47.999Z</time></trkpt><trkpt lat="48.24943412183761" lon="11.619255536914727"><ele>482.0</ele><time>2026-03-27T08:52:48.999Z</time></trkpt><trkpt lat="48.24934813255454" lon="11.619239583267541"><ele>482.0</ele><time>2026-03-27T08:52:49.999Z</time></trkpt><trkpt lat="48.249261083225655" lon="11.619222464780067"><ele>482.0</ele><time>2026-03-27T08:52:50.999Z</time></trkpt><trkpt lat="48.24917860013068" lon="11.619205749913906"><ele>481.99999999999994</ele><time>2026-03-27T08:52:51.999Z</time></trkpt><trkpt lat="48.24910164332289" lon="11.61919144088847"><ele>482.0</ele><time>2026-03-27T08:52:52.999Z</time></trkpt><trkpt lat="48.24902563860906" lon="11.61917814014686"><ele>482.0</ele><time>2026-03-27T08:52:53.999Z</time></trkpt><trkpt lat="48.248953137498695" lon="11.619166841885859"><ele>482.00000000000006</ele><time>2026-03-27T08:52:54.999Z</time></trkpt><trkpt lat="48.24888359682929" lon="11.619155544156412"><ele>482.0</ele><time>2026-03-27T08:52:55.999Z</time></trkpt><trkpt lat="48.24881419289475" lon="11.61914426873808"><ele>482.0</ele><time>2026-03-27T08:52:56.999Z</time></trkpt><trkpt lat="48.248741922095405" lon="11.61913252759337"><ele>482.00000000000006</ele><time>2026-03-27T08:52:57.999Z</time></trkpt><trkpt lat="48.24866440739683" lon="11.619125136553295"><ele>482.0</ele><time>2026-03-27T08:52:58.999Z</time></trkpt><trkpt lat="48.24858793531584" lon="11.619121482142521"><ele>482.0</ele><time>2026-03-27T08:52:59.999Z</time></trkpt><trkpt lat="48.24852085538518" lon="11.619144604193181"><ele>482.0</ele><time>2026-03-27T08:53:00.999Z</time></trkpt><trkpt lat="48.24846138246561" lon="11.619180272458724"><ele>482.00000000000006</ele><time>2026-03-27T08:53:01.999Z</time></trkpt><trkpt lat="48.24841501674986" lon="11.619244330944426"><ele>482.0</ele><time>2026-03-27T08:53:02.999Z</time></trkpt><trkpt lat="48.24838433259984" lon="11.619339582437998"><ele>482.0</ele><time>2026-03-27T08:53:03.999Z</time></trkpt><trkpt lat="48.24836506799872" lon="11.619448728955613"><ele>482.00000000000006</ele><time>2026-03-27T08:53:04.999Z</time></trkpt><trkpt lat="48.24835091230672" lon="11.619559406024603"><ele>482.0</ele><time>2026-03-27T08:53:05.999Z</time></trkpt><trkpt lat="48.24832022134127" lon="11.619650708090916"><ele>482.0</ele><time>2026-03-27T08:53:06.999Z</time></trkpt><trkpt lat="48.248317951396956" lon="11.619762987408421"><ele>482.16666666666663</ele><time>2026-03-27T08:53:07.999Z</time></trkpt><trkpt lat="48.248283260166495" lon="11.61987789513867"><ele>482.3333333333333</ele><time>2026-03-27T08:53:08.999Z</time></trkpt><trkpt lat="48.24826326369445" lon="11.620000804915763"><ele>482.5</ele><time>2026-03-27T08:53:09.999Z</time></trkpt><trkpt lat="48.24824307986021" lon="11.620126650446336"><ele>482.66666666666663</ele><time>2026-03-27T08:53:10.999Z</time></trkpt><trkpt lat="48.24822411846825" lon="11.620252739305938"><ele>482.8333333333333</ele><time>2026-03-27T08:53:11.998Z</time></trkpt><trkpt lat="48.248205989928" lon="11.620379624005336"><ele>483.0</ele><time>2026-03-27T08:53:12.998Z</time></trkpt><trkpt lat="48.24818782958997" lon="11.620506910914562"><ele>483.0</ele><time>2026-03-27T08:53:13.998Z</time></trkpt><trkpt lat="48.24816902166902" lon="11.620638029826367"><ele>482.99999999999994</ele><time>2026-03-27T08:53:14.998Z</time></trkpt><trkpt lat="48.24814991939392" lon="11.620771223070543"><ele>482.99999999999994</ele><time>2026-03-27T08:53:15.998Z</time></trkpt><trkpt lat="48.24813011933181" lon="11.620903539893577"><ele>483.0</ele><time>2026-03-27T08:53:17Z</time></trkpt><trkpt lat="48.24811008625579" lon="11.621039485776203"><ele>483.0</ele><time>2026-03-27T08:53:18Z</time></trkpt><trkpt lat="48.248089867273414" lon="11.621176113299462"><ele>483.0</ele><time>2026-03-27T08:53:19Z</time></trkpt><trkpt lat="48.24808539719248" lon="11.621318031502707"><ele>482.99999999999994</ele><time>2026-03-27T08:53:20Z</time></trkpt><trkpt lat="48.248063461767025" lon="11.621457024911031"><ele>482.99999999999994</ele><time>2026-03-27T08:53:21Z</time></trkpt><trkpt lat="48.2480381135893" lon="11.621595497085677"><ele>483.0</ele><time>2026-03-27T08:53:22Z</time></trkpt><trkpt lat="48.24801704410038" lon="11.621736019275701"><ele>483.0</ele><time>2026-03-27T08:53:23Z</time></trkpt><trkpt lat="48.247996148596805" lon="11.621873726652908"><ele>482.8333333333333</ele><time>2026-03-27T08:53:24Z</time></trkpt><trkpt lat="48.24797597657394" lon="11.621996880200841"><ele>482.66666666666663</ele><time>2026-03-27T08:53:25Z</time></trkpt><trkpt lat="48.24795805059652" lon="11.622115381443228"><ele>482.5</ele><time>2026-03-27T08:53:26Z</time></trkpt><trkpt lat="48.24793923956562" lon="11.622228699947764"><ele>482.3333333333333</ele><time>2026-03-27T08:53:27Z</time></trkpt><trkpt lat="48.247920352002524" lon="11.622341166071305"><ele>482.16666666666663</ele><time>2026-03-27T08:53:28Z</time></trkpt><trkpt lat="48.2479010462079" lon="11.622462072174967"><ele>482.0</ele><time>2026-03-27T08:53:29Z</time></trkpt><trkpt lat="48.24788578879582" lon="11.622592548107251"><ele>482.0</ele><time>2026-03-27T08:53:30Z</time></trkpt><trkpt lat="48.247865419065576" lon="11.622726033271737"><ele>482.00000000000006</ele><time>2026-03-27T08:53:31Z</time></trkpt><trkpt lat="48.247846160206194" lon="11.622861312730716"><ele>482.00000000000006</ele><time>2026-03-27T08:53:32Z</time></trkpt><trkpt lat="48.24782840335348" lon="11.622998292309056"><ele>482.0</ele><time>2026-03-27T08:53:33Z</time></trkpt><trkpt lat="48.24780874478393" lon="11.623134364186981"><ele>482.0</ele><time>2026-03-27T08:53:34Z</time></trkpt><trkpt lat="48.24778810098409" lon="11.623269825939092"><ele>482.20000000000005</ele><time>2026-03-27T08:53:35Z</time></trkpt><trkpt lat="48.24776807633724" lon="11.623402717667828"><ele>482.40000000000003</ele><time>2026-03-27T08:53:36Z</time></trkpt><trkpt lat="48.247747941755364" lon="11.623536245065239"><ele>482.59999999999997</ele><time>2026-03-27T08:53:37Z</time></trkpt><trkpt lat="48.24773094549847" lon="11.623667014714812"><ele>482.79999999999995</ele><time>2026-03-27T08:53:38Z</time></trkpt><trkpt lat="48.24771118557639" lon="11.6237981588842"><ele>483.0</ele><time>2026-03-27T08:53:39Z</time></trkpt><trkpt lat="48.247681118096274" lon="11.623925074759194"><ele>483.0</ele><time>2026-03-27T08:53:40Z</time></trkpt><trkpt lat="48.24766352771902" lon="11.624056932149402"><ele>483.0</ele><time>2026-03-27T08:53:41Z</time></trkpt><trkpt lat="48.247642698562025" lon="11.624188410038286"><ele>483.0</ele><time>2026-03-27T08:53:42Z</time></trkpt><trkpt lat="48.24762494724124" lon="11.624314869312782"><ele>483.0</ele><time>2026-03-27T08:53:43Z</time></trkpt><trkpt lat="48.247607521761495" lon="11.624442309524031"><ele>483.0</ele><time>2026-03-27T08:53:44Z</time></trkpt><trkpt lat="48.24759321373488" lon="11.62456978652917"><ele>483.0</ele><time>2026-03-27T08:53:45Z</time></trkpt><trkpt lat="48.247580434209056" lon="11.624695691084847"><ele>483.0</ele><time>2026-03-27T08:53:46Z</time></trkpt><trkpt lat="48.247554758304325" lon="11.624807787279996"><ele>483.0</ele><time>2026-03-27T08:53:47Z</time></trkpt><trkpt lat="48.24751742824232" lon="11.62496625298932"><ele>483.0</ele><time>2026-03-27T08:53:49Z</time></trkpt><trkpt lat="48.247494228935665" lon="11.625103282919781"><ele>483.0</ele><time>2026-03-27T08:53:51Z</time></trkpt><trkpt lat="48.247478669125734" lon="11.625218685983482"><ele>483.0</ele><time>2026-03-27T08:53:53Z</time></trkpt><trkpt lat="48.24745693156322" lon="11.625338966003229"><ele>483.0</ele><time>2026-03-27T08:53:55Z</time></trkpt><trkpt lat="48.247435619568044" lon="11.62549420252079"><ele>483.0</ele><time>2026-03-27T08:53:57Z</time></trkpt><trkpt lat="48.24741886290617" lon="11.625589899032338"><ele>483.0</ele><time>2026-03-27T08:53:58Z</time></trkpt><trkpt lat="48.24739955432508" lon="11.625692946067087"><ele>483.0</ele><time>2026-03-27T08:53:59Z</time></trkpt><trkpt lat="48.24738150178802" lon="11.625799539637464"><ele>483.0</ele><time>2026-03-27T08:53:59.999Z</time></trkpt><trkpt lat="48.247364098334785" lon="11.625902853045131"><ele>483.0</ele><time>2026-03-27T08:54:00.999Z</time></trkpt><trkpt lat="48.247344850973455" lon="11.62600681914099"><ele>483.0</ele><time>2026-03-27T08:54:01.999Z</time></trkpt><trkpt lat="48.2473331252253" lon="11.626131708794919"><ele>483.0</ele><time>2026-03-27T08:54:02.999Z</time></trkpt><trkpt lat="48.24732592039206" lon="11.626262166413"><ele>483.0</ele><time>2026-03-27T08:54:03.999Z</time></trkpt><trkpt lat="48.24730242574402" lon="11.626384997937546"><ele>482.99999999999994</ele><time>2026-03-27T08:54:04.999Z</time></trkpt><trkpt lat="48.24728219046378" lon="11.626513065835018"><ele>482.99999999999994</ele><time>2026-03-27T08:54:05.999Z</time></trkpt><trkpt lat="48.247266929035675" lon="11.626653772141724"><ele>483.0</ele><time>2026-03-27T08:54:06.999Z</time></trkpt><trkpt lat="48.247247194462965" lon="11.626788331776684"><ele>483.0</ele><time>2026-03-27T08:54:07.999Z</time></trkpt><trkpt lat="48.24722442020419" lon="11.626929031945698"><ele>483.2</ele><time>2026-03-27T08:54:08.999Z</time></trkpt><trkpt lat="48.24720240484274" lon="11.627077370135705"><ele>483.4</ele><time>2026-03-27T08:54:09.999Z</time></trkpt><trkpt lat="48.24718014769578" lon="11.627228430836183"><ele>483.59999999999997</ele><time>2026-03-27T08:54:10.999Z</time></trkpt><trkpt lat="48.24715733538966" lon="11.6273808627533"><ele>483.79999999999995</ele><time>2026-03-27T08:54:11.999Z</time></trkpt><trkpt lat="48.24713694287835" lon="11.627526832476232"><ele>484.0</ele><time>2026-03-27T08:54:12.999Z</time></trkpt><trkpt lat="48.24711508321115" lon="11.627665206479856"><ele>484.0</ele><time>2026-03-27T08:54:13.999Z</time></trkpt><trkpt lat="48.24709259368109" lon="11.627805092150048"><ele>484.0</ele><time>2026-03-27T08:54:14.999Z</time></trkpt><trkpt lat="48.247071570965176" lon="11.627947092741769"><ele>484.0</ele><time>2026-03-27T08:54:15.999Z</time></trkpt><trkpt lat="48.247050796393346" lon="11.628086309804623"><ele>484.0</ele><time>2026-03-27T08:54:16.999Z</time></trkpt><trkpt lat="48.24703034773912" lon="11.628225587069517"><ele>484.0</ele><time>2026-03-27T08:54:17.999Z</time></trkpt><trkpt lat="48.247011206713246" lon="11.628360867380701"><ele>483.83333333333337</ele><time>2026-03-27T08:54:18.999Z</time></trkpt><trkpt lat="48.24699404196845" lon="11.62849180416291"><ele>483.6666666666667</ele><time>2026-03-27T08:54:19.999Z</time></trkpt><trkpt lat="48.24697627319833" lon="11.628620405424202"><ele>483.5</ele><time>2026-03-27T08:54:20.999Z</time></trkpt><trkpt lat="48.24695932547918" lon="11.62874725959548"><ele>483.33333333333337</ele><time>2026-03-27T08:54:21.999Z</time></trkpt><trkpt lat="48.24694226820909" lon="11.628869779239997"><ele>483.1666666666667</ele><time>2026-03-27T08:54:22.999Z</time></trkpt><trkpt lat="48.24692960839134" lon="11.628973039749473"><ele>483.0</ele><time>2026-03-27T08:54:23.999Z</time></trkpt><trkpt lat="48.24690410743964" lon="11.629145194722314"><ele>483.0</ele><time>2026-03-27T08:54:25.999Z</time></trkpt><trkpt lat="48.24687677185243" lon="11.629315253026403"><ele>482.99999999999994</ele><time>2026-03-27T08:54:27.999Z</time></trkpt><trkpt lat="48.2468529315668" lon="11.629476488934944"><ele>482.99999999999994</ele><time>2026-03-27T08:54:29.999Z</time></trkpt><trkpt lat="48.24682261311717" lon="11.629607371097906"><ele>483.0</ele><time>2026-03-27T08:54:31.999Z</time></trkpt><trkpt lat="48.24680410452182" lon="11.629714360369425"><ele>483.0</ele><time>2026-03-27T08:54:33.999Z</time></trkpt><trkpt lat="48.24677288741506" lon="11.62982166358782"><ele>483.0</ele><time>2026-03-27T08:54:38.999Z</time></trkpt><trkpt lat="48.24689036401597" lon="11.62991227837263"><ele>482.99999999999994</ele><time>2026-03-27T08:54:41.999Z</time></trkpt><trkpt lat="48.2469977453766" lon="11.629971974092982"><ele>482.99999999999994</ele><time>2026-03-27T08:54:43.999Z</time></trkpt><trkpt lat="48.247103803423975" lon="11.63001970711883"><ele>483.0</ele><time>2026-03-27T08:54:45.999Z</time></trkpt><trkpt lat="48.24717599222857" lon="11.630045116289981"><ele>483.0</ele><time>2026-03-27T08:54:46.999Z</time></trkpt><trkpt lat="48.247263554074415" lon="11.63005608372487"><ele>483.1666666666667</ele><time>2026-03-27T08:54:47.999Z</time></trkpt><trkpt lat="48.247353071848444" lon="11.630075778651138"><ele>483.33333333333337</ele><time>2026-03-27T08:54:48.999Z</time></trkpt><trkpt lat="48.24744158154672" lon="11.630103127909212"><ele>483.5</ele><time>2026-03-27T08:54:49.999Z</time></trkpt><trkpt lat="48.24752819609871" lon="11.63013327601865"><ele>483.6666666666667</ele><time>2026-03-27T08:54:50.999Z</time></trkpt><trkpt lat="48.24761613762048" lon="11.630156969253763"><ele>483.83333333333337</ele><time>2026-03-27T08:54:51.999Z</time></trkpt><trkpt lat="48.247702896037055" lon="11.630178703528184"><ele>484.0</ele><time>2026-03-27T08:54:52.999Z</time></trkpt><trkpt lat="48.24779103313723" lon="11.630205422198664"><ele>484.00000000000006</ele><time>2026-03-27T08:54:53.999Z</time></trkpt><trkpt lat="48.24787331409261" lon="11.630219392986021"><ele>484.0</ele><time>2026-03-27T08:54:54.999Z</time></trkpt><trkpt lat="48.24794989198073" lon="11.63023424348475"><ele>484.0</ele><time>2026-03-27T08:54:55.999Z</time></trkpt><trkpt lat="48.2480285011511" lon="11.630248857247983"><ele>484.0</ele><time>2026-03-27T08:54:56.999Z</time></trkpt><trkpt lat="48.24811308559215" lon="11.63027509344698"><ele>484.00000000000006</ele><time>2026-03-27T08:54:57.999Z</time></trkpt><trkpt lat="48.2481980180985" lon="11.630302675401108"><ele>484.0</ele><time>2026-03-27T08:54:58.999Z</time></trkpt><trkpt lat="48.248284070122864" lon="11.630338379202513"><ele>483.6666666666667</ele><time>2026-03-27T08:54:59.999Z</time></trkpt><trkpt lat="48.248364574426574" lon="11.630373578240212"><ele>483.33333333333337</ele><time>2026-03-27T08:55:00.999Z</time></trkpt><trkpt lat="48.248435570222235" lon="11.630408388449965"><ele>483.0</ele><time>2026-03-27T08:55:01.999Z</time></trkpt><trkpt lat="48.248499386980114" lon="11.630440969077261"><ele>482.66666666666663</ele><time>2026-03-27T08:55:02.999Z</time></trkpt><trkpt lat="48.24862023732073" lon="11.630489987187445"><ele>482.3333333333333</ele><time>2026-03-27T08:55:04.999Z</time></trkpt><trkpt lat="48.24868898780058" lon="11.630508856253892"><ele>482.0</ele><time>2026-03-27T08:55:05.999Z</time></trkpt><trkpt lat="48.24875197292039" lon="11.63052808740038"><ele>482.0</ele><time>2026-03-27T08:55:06.999Z</time></trkpt><trkpt lat="48.248861716363564" lon="11.630571005201036"><ele>482.00000000000006</ele><time>2026-03-27T08:55:08.999Z</time></trkpt><trkpt lat="48.2489569013749" lon="11.630624679730307"><ele>482.00000000000006</ele><time>2026-03-27T08:55:10.999Z</time></trkpt><trkpt lat="48.2490375768836" lon="11.630674069370103"><ele>482.0</ele><time>2026-03-27T08:55:12.999Z</time></trkpt><trkpt lat="48.24910559185052" lon="11.63072314498388"><ele>482.0</ele><time>2026-03-27T08:55:15.999Z</time></trkpt><trkpt lat="48.24918372901434" lon="11.630785643136923"><ele>482.25</ele><time>2026-03-27T08:56:32.999Z</time></trkpt><trkpt lat="48.24928601412385" lon="11.63085195003819"><ele>482.5</ele><time>2026-03-27T08:56:34.999Z</time></trkpt><trkpt lat="48.24936773713335" lon="11.630864465295053"><ele>482.75</ele><time>2026-03-27T08:56:36.999Z</time></trkpt><trkpt lat="48.24941240734611" lon="11.630558907266844"><ele>483.0</ele><time>2026-03-27T08:56:37.999Z</time></trkpt><trkpt lat="48.249420252270035" lon="11.63045552794654"><ele>483.0</ele><time>2026-03-27T08:56:38.999Z</time></trkpt><trkpt lat="48.24942059416796" lon="11.63033428863097"><ele>483.0</ele><time>2026-03-27T08:56:39.999Z</time></trkpt><trkpt lat="48.24942709797182" lon="11.630207762548206"><ele>483.0</ele><time>2026-03-27T08:56:40.999Z</time></trkpt><trkpt lat="48.24943599113926" lon="11.630090410295049"><ele>483.0</ele><time>2026-03-27T08:56:41.999Z</time></trkpt><trkpt lat="48.24944519022491" lon="11.629974819837445"><ele>483.0</ele><time>2026-03-27T08:56:42.999Z</time></trkpt><trkpt lat="48.24945497042386" lon="11.629847770068734"><ele>483.0</ele><time>2026-03-27T08:56:43.999Z</time></trkpt><trkpt lat="48.24946365780713" lon="11.629717833488199"><ele>483.0</ele><time>2026-03-27T08:56:44.999Z</time></trkpt><trkpt lat="48.249472704728355" lon="11.629583724581101"><ele>482.99999999999994</ele><time>2026-03-27T08:56:45.999Z</time></trkpt><trkpt lat="48.249481445786266" lon="11.629446705811391"><ele>482.99999999999994</ele><time>2026-03-27T08:56:46.999Z</time></trkpt><trkpt lat="48.249489926382886" lon="11.629307513822456"><ele>483.0</ele><time>2026-03-27T08:56:47.999Z</time></trkpt><trkpt lat="48.2495008283274" lon="11.62916287527419"><ele>483.0</ele><time>2026-03-27T08:56:48.999Z</time></trkpt><trkpt lat="48.24951158850116" lon="11.629002962880916"><ele>483.0</ele><time>2026-03-27T08:56:49.999Z</time></trkpt><trkpt lat="48.24952284357154" lon="11.628836381511903"><ele>483.0</ele><time>2026-03-27T08:56:50.999Z</time></trkpt><trkpt lat="48.2495334051806" lon="11.62866620093279"><ele>483.0</ele><time>2026-03-27T08:56:51.999Z</time></trkpt><trkpt lat="48.249544682958295" lon="11.628487401315494"><ele>483.0</ele><time>2026-03-27T08:56:52.999Z</time></trkpt><trkpt lat="48.249554641941636" lon="11.628300706236873"><ele>483.5</ele><time>2026-03-27T08:56:53.999Z</time></trkpt><trkpt lat="48.24956747328618" lon="11.62811434255413"><ele>484.0</ele><time>2026-03-27T08:56:54.999Z</time></trkpt><trkpt lat="48.249578852014636" lon="11.627924738399692"><ele>484.5</ele><time>2026-03-27T08:56:55.999Z</time></trkpt><trkpt lat="48.24959038814286" lon="11.627735298766144"><ele>485.0</ele><time>2026-03-27T08:56:56.999Z</time></trkpt><trkpt lat="48.24960459648864" lon="11.62754498567566"><ele>485.0</ele><time>2026-03-27T08:56:57.999Z</time></trkpt><trkpt lat="48.249617801119044" lon="11.627356204655893"><ele>485.0</ele><time>2026-03-27T08:56:58.999Z</time></trkpt><trkpt lat="48.24962918080829" lon="11.627163245946004"><ele>485.0</ele><time>2026-03-27T08:56:59.999Z</time></trkpt><trkpt lat="48.24964114569277" lon="11.62696819882999"><ele>485.0</ele><time>2026-03-27T08:57:00.999Z</time></trkpt><trkpt lat="48.24965346248397" lon="11.626768799382273"><ele>484.5</ele><time>2026-03-27T08:57:01.999Z</time></trkpt><trkpt lat="48.24966616769801" lon="11.626563015866124"><ele>484.0</ele><time>2026-03-27T08:57:02.999Z</time></trkpt><trkpt lat="48.24968186933056" lon="11.626354365046039"><ele>483.5</ele><time>2026-03-27T08:57:03.999Z</time></trkpt><trkpt lat="48.2497211393608" lon="11.626153670263896"><ele>483.0</ele><time>2026-03-27T08:57:04.999Z</time></trkpt><trkpt lat="48.249733961218226" lon="11.625954148981936"><ele>482.75</ele><time>2026-03-27T08:57:05.999Z</time></trkpt><trkpt lat="48.24974661405478" lon="11.625757257743066"><ele>482.5</ele><time>2026-03-27T08:57:06.999Z</time></trkpt><trkpt lat="48.24975901508156" lon="11.625564285012759"><ele>482.25</ele><time>2026-03-27T08:57:07.999Z</time></trkpt><trkpt lat="48.249771370199085" lon="11.625375058808215"><ele>482.0</ele><time>2026-03-27T08:57:08.999Z</time></trkpt><trkpt lat="48.24978406946947" lon="11.62518942071476"><ele>482.25</ele><time>2026-03-27T08:57:09.999Z</time></trkpt><trkpt lat="48.24979673905695" lon="11.625004216564356"><ele>482.5</ele><time>2026-03-27T08:57:10.999Z</time></trkpt><trkpt lat="48.2498100468573" lon="11.62481701865413"><ele>482.75</ele><time>2026-03-27T08:57:11.999Z</time></trkpt><trkpt lat="48.249823704064035" lon="11.624627703761151"><ele>483.0</ele><time>2026-03-27T08:57:12.999Z</time></trkpt><trkpt lat="48.2498374366179" lon="11.624437344454872"><ele>482.5</ele><time>2026-03-27T08:57:13.999Z</time></trkpt><trkpt lat="48.24985063104061" lon="11.624243421839473"><ele>482.0</ele><time>2026-03-27T08:57:14.999Z</time></trkpt><trkpt lat="48.249863670162895" lon="11.624045322246518"><ele>481.5</ele><time>2026-03-27T08:57:15.999Z</time></trkpt><trkpt lat="48.249876775215974" lon="11.6238462209826"><ele>481.0</ele><time>2026-03-27T08:57:16.999Z</time></trkpt><trkpt lat="48.24988971098272" lon="11.623647746714317"><ele>481.0</ele><time>2026-03-27T08:57:17.999Z</time></trkpt><trkpt lat="48.249902894118755" lon="11.623446962238294"><ele>481.0</ele><time>2026-03-27T08:57:18.999Z</time></trkpt><trkpt lat="48.24991624299922" lon="11.623246489580053"><ele>481.0</ele><time>2026-03-27T08:57:19.999Z</time></trkpt><trkpt lat="48.24992877096027" lon="11.623058345209728"><ele>481.0</ele><time>2026-03-27T08:57:20.999Z</time></trkpt><trkpt lat="48.24994104346291" lon="11.622874037887565"><ele>481.25</ele><time>2026-03-27T08:57:21.999Z</time></trkpt><trkpt lat="48.24995312511415" lon="11.62269259521254"><ele>481.5</ele><time>2026-03-27T08:57:22.999Z</time></trkpt><trkpt lat="48.2499650786647" lon="11.622511956467129"><ele>481.75</ele><time>2026-03-27T08:57:23.999Z</time></trkpt><trkpt lat="48.24997693015955" lon="11.622323898848373"><ele>482.0</ele><time>2026-03-27T08:57:24.999Z</time></trkpt><trkpt lat="48.24998937543936" lon="11.622126420525444"><ele>482.0</ele><time>2026-03-27T08:57:25.999Z</time></trkpt><trkpt lat="48.25000135181676" lon="11.621922183747612"><ele>482.0</ele><time>2026-03-27T08:57:26.999Z</time></trkpt><trkpt lat="48.25001345264899" lon="11.62170891141088"><ele>482.0</ele><time>2026-03-27T08:57:27.999Z</time></trkpt><trkpt lat="48.25002448455009" lon="11.62151147247882"><ele>482.0</ele><time>2026-03-27T08:57:29Z</time></trkpt><trkpt lat="48.250034302772185" lon="11.62133000612205"><ele>482.0</ele><time>2026-03-27T08:57:30Z</time></trkpt><trkpt lat="48.25004324198986" lon="11.621164785823202"><ele>482.00000000000006</ele><time>2026-03-27T08:57:31Z</time></trkpt><trkpt lat="48.250051583618365" lon="11.621010611170021"><ele>482.00000000000006</ele><time>2026-03-27T08:57:32Z</time></trkpt><trkpt lat="48.25004488801122" lon="11.620862733877127"><ele>482.0</ele><time>2026-03-27T08:57:33Z</time></trkpt><trkpt lat="48.250057242067236" lon="11.620718707566922"><ele>482.0</ele><time>2026-03-27T08:57:34Z</time></trkpt><trkpt lat="48.25007224973811" lon="11.620560499253887"><ele>482.0</ele><time>2026-03-27T08:57:35Z</time></trkpt><trkpt lat="48.25008264678745" lon="11.62040863496855"><ele>482.00000000000006</ele><time>2026-03-27T08:57:36Z</time></trkpt><trkpt lat="48.250096001361534" lon="11.620252046087517"><ele>482.00000000000006</ele><time>2026-03-27T08:57:37Z</time></trkpt><trkpt lat="48.250108967326376" lon="11.620091937207352"><ele>482.0</ele><time>2026-03-27T08:57:38Z</time></trkpt><trkpt lat="48.25012246788086" lon="11.61992806472043"><ele>482.0</ele><time>2026-03-27T08:57:39Z</time></trkpt><trkpt lat="48.25013785612878" lon="11.619761439614749"><ele>482.0</ele><time>2026-03-27T08:57:40Z</time></trkpt><trkpt lat="48.25015326189912" lon="11.619595855002528"><ele>482.0</ele><time>2026-03-27T08:57:41Z</time></trkpt><trkpt lat="48.25016746762248" lon="11.619429608625376"><ele>482.0</ele><time>2026-03-27T08:57:42Z</time></trkpt><trkpt lat="48.25017610773358" lon="11.61925267009866"><ele>482.0</ele><time>2026-03-27T08:57:43Z</time></trkpt><trkpt lat="48.25019324897377" lon="11.619075898028916"><ele>482.0</ele><time>2026-03-27T08:57:44Z</time></trkpt><trkpt lat="48.25021125719581" lon="11.618903583819005"><ele>482.0</ele><time>2026-03-27T08:57:45Z</time></trkpt><trkpt lat="48.250228143826185" lon="11.618727464085042"><ele>482.0</ele><time>2026-03-27T08:57:46Z</time></trkpt><trkpt lat="48.25024506300365" lon="11.618542475024485"><ele>482.0</ele><time>2026-03-27T08:57:47Z</time></trkpt><trkpt lat="48.25026361314862" lon="11.618354629114286"><ele>481.75</ele><time>2026-03-27T08:57:48Z</time></trkpt><trkpt lat="48.250296897307074" lon="11.618174202291552"><ele>481.5</ele><time>2026-03-27T08:57:49Z</time></trkpt><trkpt lat="48.25031470820886" lon="11.617992445134576"><ele>481.25</ele><time>2026-03-27T08:57:50Z</time></trkpt><trkpt lat="48.25033058588408" lon="11.61781376866497"><ele>481.0</ele><time>2026-03-27T08:57:51Z</time></trkpt><trkpt lat="48.25034324854217" lon="11.617633056303193"><ele>481.75</ele><time>2026-03-27T08:57:52Z</time></trkpt><trkpt lat="48.25035447058396" lon="11.617431999958809"><ele>482.5</ele><time>2026-03-27T08:57:53Z</time></trkpt><trkpt lat="48.25036198870951" lon="11.617245786849223"><ele>483.25</ele><time>2026-03-27T08:57:54Z</time></trkpt><trkpt lat="48.250369358327255" lon="11.61705774286634"><ele>484.0</ele><time>2026-03-27T08:57:55Z</time></trkpt><trkpt lat="48.250376828757695" lon="11.616863248006721"><ele>484.25</ele><time>2026-03-27T08:57:56Z</time></trkpt><trkpt lat="48.25038419845361" lon="11.616667237664798"><ele>484.5</ele><time>2026-03-27T08:57:57Z</time></trkpt><trkpt lat="48.25039034937977" lon="11.61646350393435"><ele>484.75</ele><time>2026-03-27T08:57:58Z</time></trkpt><trkpt lat="48.250395576791405" lon="11.616259960931128"><ele>485.0</ele><time>2026-03-27T08:57:59Z</time></trkpt><trkpt lat="48.25039987338869" lon="11.616056970587504"><ele>484.25</ele><time>2026-03-27T08:58:00Z</time></trkpt><trkpt lat="48.250403900686734" lon="11.61585866618175"><ele>483.5</ele><time>2026-03-27T08:58:01Z</time></trkpt><trkpt lat="48.250407444086036" lon="11.615671914062897"><ele>482.75</ele><time>2026-03-27T08:58:02Z</time></trkpt><trkpt lat="48.250410645229685" lon="11.61548812705342"><ele>482.0</ele><time>2026-03-27T08:58:03Z</time></trkpt><trkpt lat="48.250413444241595" lon="11.615302749028041"><ele>482.0</ele><time>2026-03-27T08:58:04Z</time></trkpt><trkpt lat="48.25041624020534" lon="11.615117572848698"><ele>482.0</ele><time>2026-03-27T08:58:05Z</time></trkpt><trkpt lat="48.25041900163415" lon="11.61493468398966"><ele>482.0</ele><time>2026-03-27T08:58:06Z</time></trkpt><trkpt lat="48.250421707078694" lon="11.61475550286136"><ele>482.0</ele><time>2026-03-27T08:58:07Z</time></trkpt><trkpt lat="48.25042449337732" lon="11.614570966786992"><ele>482.75</ele><time>2026-03-27T08:58:08Z</time></trkpt><trkpt lat="48.25042639035435" lon="11.61438356605667"><ele>483.5</ele><time>2026-03-27T08:58:09Z</time></trkpt><trkpt lat="48.25042769214514" lon="11.614191009406747"><ele>484.25</ele><time>2026-03-27T08:58:10Z</time></trkpt><trkpt lat="48.25042899938508" lon="11.61399764670448"><ele>485.0</ele><time>2026-03-27T08:58:11Z</time></trkpt><trkpt lat="48.250430021214896" lon="11.6138164385933"><ele>484.8333333333333</ele><time>2026-03-27T08:58:12Z</time></trkpt><trkpt lat="48.250430891985296" lon="11.6136543216806"><ele>484.66666666666663</ele><time>2026-03-27T08:58:13Z</time></trkpt><trkpt lat="48.2504323606081" lon="11.613528184494264"><ele>484.5</ele><time>2026-03-27T08:58:14Z</time></trkpt><trkpt lat="48.25043355295205" lon="11.613429378914402"><ele>484.33333333333337</ele><time>2026-03-27T08:58:15Z</time></trkpt><trkpt lat="48.25043526480383" lon="11.613287523481862"><ele>484.1666666666667</ele><time>2026-03-27T08:58:17Z</time></trkpt><trkpt lat="48.25043592917984" lon="11.613179137540431"><ele>484.0</ele><time>2026-03-27T08:58:20Z</time></trkpt><trkpt lat="48.2504363361455" lon="11.613080322270788"><ele>484.0</ele><time>2026-03-27T08:58:45.999Z</time></trkpt><trkpt lat="48.25043633614551" lon="11.612876648664663"><ele>484.0</ele><time>2026-03-27T08:58:47.999Z</time></trkpt><trkpt lat="48.250436336145455" lon="11.612763594331817"><ele>484.0</ele><time>2026-03-27T08:58:48.999Z</time></trkpt><trkpt lat="48.250437789518465" lon="11.612630209651682"><ele>484.0</ele><time>2026-03-27T08:58:49.999Z</time></trkpt><trkpt lat="48.25044022047452" lon="11.612494050879336"><ele>484.0</ele><time>2026-03-27T08:58:50.999Z</time></trkpt><trkpt lat="48.250443269793095" lon="11.61235205620758"><ele>484.0</ele><time>2026-03-27T08:58:51.999Z</time></trkpt><trkpt lat="48.250445804904366" lon="11.612208168015382"><ele>484.0</ele><time>2026-03-27T08:58:52.999Z</time></trkpt><trkpt lat="48.25044802700688" lon="11.612059253561275"><ele>484.0</ele><time>2026-03-27T08:58:53.999Z</time></trkpt><trkpt lat="48.250449151489036" lon="11.611908447971528"><ele>484.0</ele><time>2026-03-27T08:58:54.999Z</time></trkpt><trkpt lat="48.250449240858444" lon="11.611750812270742"><ele>484.0</ele><time>2026-03-27T08:58:55.999Z</time></trkpt><trkpt lat="48.250446696054404" lon="11.611587155828468"><ele>484.0</ele><time>2026-03-27T08:58:56.999Z</time></trkpt><trkpt lat="48.25044094601089" lon="11.611416291167918"><ele>484.0</ele><time>2026-03-27T08:58:57.999Z</time></trkpt><trkpt lat="48.250434285378596" lon="11.611240437608513"><ele>484.0</ele><time>2026-03-27T08:58:58.999Z</time></trkpt><trkpt lat="48.2504272606173" lon="11.611068311353923"><ele>484.0</ele><time>2026-03-27T08:58:59.999Z</time></trkpt><trkpt lat="48.250420637894365" lon="11.610906036112619"><ele>484.0</ele><time>2026-03-27T08:59:00.999Z</time></trkpt><trkpt lat="48.250413431243715" lon="11.610739546400087"><ele>484.0</ele><time>2026-03-27T08:59:01.999Z</time></trkpt><trkpt lat="48.250392831866684" lon="11.610564908119924"><ele>484.0</ele><time>2026-03-27T08:59:02.999Z</time></trkpt><trkpt lat="48.250387028484305" lon="11.610391552673313"><ele>484.0</ele><time>2026-03-27T08:59:03.999Z</time></trkpt><trkpt lat="48.250379797671684" lon="11.610220043228356"><ele>483.75</ele><time>2026-03-27T08:59:04.999Z</time></trkpt><trkpt lat="48.25037437512114" lon="11.610046663383793"><ele>483.5</ele><time>2026-03-27T08:59:05.999Z</time></trkpt><trkpt lat="48.25038327563188" lon="11.609876329812174"><ele>483.25</ele><time>2026-03-27T08:59:06.999Z</time></trkpt><trkpt lat="48.25037832827931" lon="11.609703501224157"><ele>483.0</ele><time>2026-03-27T08:59:07.999Z</time></trkpt><trkpt lat="48.25037180513161" lon="11.609532282877975"><ele>483.0</ele><time>2026-03-27T08:59:08.999Z</time></trkpt><trkpt lat="48.25036384571563" lon="11.609358317879662"><ele>483.0</ele><time>2026-03-27T08:59:09.999Z</time></trkpt><trkpt lat="48.25035280692037" lon="11.609182773268374"><ele>483.0</ele><time>2026-03-27T08:59:10.999Z</time></trkpt><trkpt lat="48.25033998904246" lon="11.609003466326964"><ele>483.0</ele><time>2026-03-27T08:59:11.999Z</time></trkpt><trkpt lat="48.25032751220777" lon="11.608835302875601"><ele>483.0</ele><time>2026-03-27T08:59:12.999Z</time></trkpt><trkpt lat="48.2503136624396" lon="11.608669458965558"><ele>483.0</ele><time>2026-03-27T08:59:13.999Z</time></trkpt><trkpt lat="48.25029902705029" lon="11.60850059435698"><ele>483.0</ele><time>2026-03-27T08:59:14.999Z</time></trkpt><trkpt lat="48.25028234276038" lon="11.608323503271572"><ele>483.0</ele><time>2026-03-27T08:59:15.999Z</time></trkpt><trkpt lat="48.25026657485268" lon="11.608159618198979"><ele>483.0</ele><time>2026-03-27T08:59:16.999Z</time></trkpt><trkpt lat="48.25023872624485" lon="11.607997023443875"><ele>483.0</ele><time>2026-03-27T08:59:17.999Z</time></trkpt><trkpt lat="48.25022496442548" lon="11.607815676900552"><ele>483.0</ele><time>2026-03-27T08:59:18.999Z</time></trkpt><trkpt lat="48.25021130630092" lon="11.607637023271964"><ele>483.0</ele><time>2026-03-27T08:59:19.999Z</time></trkpt><trkpt lat="48.2501993985561" lon="11.607465261778842"><ele>483.0</ele><time>2026-03-27T08:59:20.999Z</time></trkpt><trkpt lat="48.25018684870008" lon="11.60730075706496"><ele>482.99999999999994</ele><time>2026-03-27T08:59:21.999Z</time></trkpt><trkpt lat="48.2501724588696" lon="11.607136389811762"><ele>482.99999999999994</ele><time>2026-03-27T08:59:22.999Z</time></trkpt><trkpt lat="48.25015659804504" lon="11.606972099130887"><ele>483.0</ele><time>2026-03-27T08:59:23.999Z</time></trkpt><trkpt lat="48.25014139236245" lon="11.60681408646899"><ele>483.0</ele><time>2026-03-27T08:59:24.999Z</time></trkpt><trkpt lat="48.250120550415595" lon="11.606654835403317"><ele>483.0</ele><time>2026-03-27T08:59:25.999Z</time></trkpt><trkpt lat="48.250109064420215" lon="11.606491417261932"><ele>482.99999999999994</ele><time>2026-03-27T08:59:26.999Z</time></trkpt><trkpt lat="48.25007465740084" lon="11.606345660367143"><ele>482.99999999999994</ele><time>2026-03-27T08:59:27.999Z</time></trkpt><trkpt lat="48.250040042849776" lon="11.60620698690226"><ele>483.0</ele><time>2026-03-27T08:59:28.999Z</time></trkpt><trkpt lat="48.25000128528718" lon="11.60606733570332"><ele>483.0</ele><time>2026-03-27T08:59:29.999Z</time></trkpt><trkpt lat="48.249961636726155" lon="11.605929249642141"><ele>483.0</ele><time>2026-03-27T08:59:30.999Z</time></trkpt><trkpt lat="48.24991840837295" lon="11.605790300201267"><ele>483.0</ele><time>2026-03-27T08:59:31.999Z</time></trkpt><trkpt lat="48.24987240168157" lon="11.605661265622766"><ele>483.0</ele><time>2026-03-27T08:59:32.999Z</time></trkpt><trkpt lat="48.24981825178208" lon="11.605553066508167"><ele>483.0</ele><time>2026-03-27T08:59:33.999Z</time></trkpt><trkpt lat="48.24977950097654" lon="11.605444456339507"><ele>483.0</ele><time>2026-03-27T08:59:35Z</time></trkpt><trkpt lat="48.24974668033671" lon="11.605349234673193"><ele>483.0</ele><time>2026-03-27T08:59:36Z</time></trkpt><trkpt lat="48.24970061510783" lon="11.605210754282933"><ele>483.0</ele><time>2026-03-27T08:59:38Z</time></trkpt><trkpt lat="48.24968137803558" lon="11.605096943124192"><ele>483.0</ele><time>2026-03-27T08:59:40Z</time></trkpt><trkpt lat="48.24970637458424" lon="11.605003065764372"><ele>483.0</ele><time>2026-03-27T08:59:42Z</time></trkpt><trkpt lat="48.24977241411263" lon="11.604928493893103"><ele>483.0</ele><time>2026-03-27T08:59:45Z</time></trkpt><trkpt lat="48.24973969098021" lon="11.60474479370715"><ele>483.0</ele><time>2026-03-27T08:59:49Z</time></trkpt><trkpt lat="48.24971557212614" lon="11.604656233389125"><ele>483.0</ele><time>2026-03-27T08:59:53Z</time></trkpt><trkpt lat="48.249728025650654" lon="11.604756789223607"><ele>483.0</ele><time>2026-03-27T09:00:40Z</time></trkpt><trkpt lat="48.24971413086954" lon="11.604663298024848"><ele>483.0</ele><time>2026-03-27T09:01:14.999Z</time></trkpt><trkpt lat="48.24967814799987" lon="11.604579781489413"><ele>483.0</ele><time>2026-03-27T09:01:19.999Z</time></trkpt><trkpt lat="48.249681613324825" lon="11.604626882858502"><ele>483.0</ele><time>2026-03-27T09:02:11.999Z</time></trkpt><trkpt lat="48.24974209035923" lon="11.604664755095786"><ele>483.0</ele><time>2026-03-27T09:04:08Z</time></trkpt><trkpt lat="48.24967873632039" lon="11.604686321151156"><ele>483.0</ele><time>2026-03-27T09:05:15Z</time></trkpt><trkpt lat="48.24966606642431" lon="11.604574565942535"><ele>483.0</ele><time>2026-03-27T09:06:35.999Z</time></trkpt><trkpt lat="48.24963789379851" lon="11.604489408991933"><ele>483.0</ele><time>2026-03-27T09:06:37.999Z</time></trkpt><trkpt lat="48.249607045833805" lon="11.604381182436846"><ele>483.0</ele><time>2026-03-27T09:06:41.999Z</time></trkpt><trkpt lat="48.2496780389145" lon="11.604293511309827"><ele>483.0</ele><time>2026-03-27T09:06:45.999Z</time></trkpt><trkpt lat="48.24970525072136" lon="11.604204617095045"><ele>483.0</ele><time>2026-03-27T09:06:50.999Z</time></trkpt><trkpt lat="48.24965116134003" lon="11.604119081413339"><ele>483.0</ele><time>2026-03-27T09:06:54.999Z</time></trkpt><trkpt lat="48.249581771588765" lon="11.604088407136182"><ele>483.0</ele><time>2026-03-27T09:06:56.999Z</time></trkpt><trkpt lat="48.24951229181232" lon="11.604076269358066"><ele>483.0</ele><time>2026-03-27T09:06:58.999Z</time></trkpt><trkpt lat="48.249457099056606" lon="11.604005070863806"><ele>483.0</ele><time>2026-03-27T09:07:00.999Z</time></trkpt><trkpt lat="48.249386232038376" lon="11.60399553940473"><ele>483.0</ele><time>2026-03-27T09:07:03.999Z</time></trkpt><trkpt lat="48.24932323140711" lon="11.604008740983716"><ele>483.0</ele><time>2026-03-27T09:07:07.999Z</time></trkpt><trkpt lat="48.249257135124296" lon="11.604080150255657"><ele>483.0</ele><time>2026-03-27T09:07:37.999Z</time></trkpt><trkpt lat="48.249314082926276" lon="11.604266932582071"><ele>483.0</ele><time>2026-03-27T09:07:38.999Z</time></trkpt><trkpt lat="48.24934765921793" lon="11.604364138574503"><ele>483.0</ele><time>2026-03-27T09:07:39.999Z</time></trkpt><trkpt lat="48.24938095575086" lon="11.604444888053594"><ele>483.0</ele><time>2026-03-27T09:07:40.999Z</time></trkpt><trkpt lat="48.249417485720244" lon="11.604528740089913"><ele>483.0</ele><time>2026-03-27T09:07:41.999Z</time></trkpt><trkpt lat="48.24945649498257" lon="11.604622437002142"><ele>483.0</ele><time>2026-03-27T09:07:42.999Z</time></trkpt><trkpt lat="48.24949374636976" lon="11.60472834687324"><ele>483.0</ele><time>2026-03-27T09:07:43.999Z</time></trkpt><trkpt lat="48.24953230064453" lon="11.604845948718037"><ele>483.0</ele><time>2026-03-27T09:07:44.999Z</time></trkpt><trkpt lat="48.24956613828611" lon="11.60495187190296"><ele>483.0</ele><time>2026-03-27T09:07:45.998Z</time></trkpt><trkpt lat="48.24959776502524" lon="11.605049924948684"><ele>483.0</ele><time>2026-03-27T09:07:46.998Z</time></trkpt><trkpt lat="48.2496291017095" lon="11.605146249762564"><ele>483.0</ele><time>2026-03-27T09:07:47.998Z</time></trkpt><trkpt lat="48.249659668811375" lon="11.605242475290597"><ele>483.0</ele><time>2026-03-27T09:07:48.998Z</time></trkpt><trkpt lat="48.24969488808925" lon="11.605348758189846"><ele>483.0</ele><time>2026-03-27T09:07:49.998Z</time></trkpt><trkpt lat="48.24973638673156" lon="11.60547173347793"><ele>483.0</ele><time>2026-03-27T09:07:50.998Z</time></trkpt><trkpt lat="48.249784084023986" lon="11.605604889705731"><ele>483.0</ele><time>2026-03-27T09:07:51.998Z</time></trkpt><trkpt lat="48.249828411813844" lon="11.605721415578172"><ele>483.0</ele><time>2026-03-27T09:07:52.998Z</time></trkpt><trkpt lat="48.249869290091176" lon="11.605834531059456"><ele>483.0</ele><time>2026-03-27T09:07:53.998Z</time></trkpt><trkpt lat="48.2499083543799" lon="11.605947499275652"><ele>483.0</ele><time>2026-03-27T09:07:54.998Z</time></trkpt><trkpt lat="48.24994335834983" lon="11.606064031506524"><ele>483.0</ele><time>2026-03-27T09:07:55.998Z</time></trkpt><trkpt lat="48.249976419681275" lon="11.606190296099356"><ele>483.0</ele><time>2026-03-27T09:07:57Z</time></trkpt><trkpt lat="48.25000939831497" lon="11.606328960407595"><ele>483.0</ele><time>2026-03-27T09:07:58Z</time></trkpt><trkpt lat="48.25004354994998" lon="11.606472185832976"><ele>483.0</ele><time>2026-03-27T09:07:59Z</time></trkpt><trkpt lat="48.25007803997237" lon="11.606618204377016"><ele>482.99999999999994</ele><time>2026-03-27T09:08:00Z</time></trkpt><trkpt lat="48.25010340558774" lon="11.60675710745525"><ele>482.99999999999994</ele><time>2026-03-27T09:08:01Z</time></trkpt><trkpt lat="48.25012043025049" lon="11.606896054230349"><ele>483.0</ele><time>2026-03-27T09:08:02Z</time></trkpt><trkpt lat="48.25012772539302" lon="11.607034573216929"><ele>483.0</ele><time>2026-03-27T09:08:03Z</time></trkpt><trkpt lat="48.25013344299046" lon="11.607169463789"><ele>483.0</ele><time>2026-03-27T09:08:04Z</time></trkpt><trkpt lat="48.250139607827364" lon="11.607298927205017"><ele>482.99999999999994</ele><time>2026-03-27T09:08:05Z</time></trkpt><trkpt lat="48.25014623214142" lon="11.607434201776925"><ele>482.99999999999994</ele><time>2026-03-27T09:08:06Z</time></trkpt><trkpt lat="48.25015549622189" lon="11.607573682047619"><ele>483.0</ele><time>2026-03-27T09:08:07Z</time></trkpt><trkpt lat="48.25016987095028" lon="11.607717708207634"><ele>483.0</ele><time>2026-03-27T09:08:08Z</time></trkpt><trkpt lat="48.250183221597574" lon="11.607867396353058"><ele>483.0</ele><time>2026-03-27T09:08:09Z</time></trkpt><trkpt lat="48.25019795799302" lon="11.608028174868247"><ele>482.99999999999994</ele><time>2026-03-27T09:08:10Z</time></trkpt><trkpt lat="48.250214972044596" lon="11.608196443583646"><ele>482.99999999999994</ele><time>2026-03-27T09:08:11Z</time></trkpt><trkpt lat="48.250235599421686" lon="11.608367005755941"><ele>483.0</ele><time>2026-03-27T09:08:12Z</time></trkpt><trkpt lat="48.25025561964652" lon="11.608523430195065"><ele>483.0</ele><time>2026-03-27T09:08:13Z</time></trkpt><trkpt lat="48.250271697406276" lon="11.608672945744658"><ele>483.0</ele><time>2026-03-27T09:08:14Z</time></trkpt><trkpt lat="48.25028480911689" lon="11.608816100822994"><ele>482.99999999999994</ele><time>2026-03-27T09:08:15Z</time></trkpt><trkpt lat="48.250297688960565" lon="11.608959313032114"><ele>482.99999999999994</ele><time>2026-03-27T09:08:16Z</time></trkpt><trkpt lat="48.25030636958069" lon="11.609103532798379"><ele>483.0</ele><time>2026-03-27T09:08:17Z</time></trkpt><trkpt lat="48.25031224360697" lon="11.609251228771258"><ele>483.0</ele><time>2026-03-27T09:08:17.999Z</time></trkpt><trkpt lat="48.250321063626515" lon="11.609409709028474"><ele>483.0</ele><time>2026-03-27T09:08:18.999Z</time></trkpt><trkpt lat="48.25032918867662" lon="11.609585387972478"><ele>483.0</ele><time>2026-03-27T09:08:19.999Z</time></trkpt><trkpt lat="48.25033510330404" lon="11.609775824060964"><ele>483.0</ele><time>2026-03-27T09:08:20.999Z</time></trkpt><trkpt lat="48.25033966482494" lon="11.609982042472163"><ele>483.0</ele><time>2026-03-27T09:08:21.999Z</time></trkpt><trkpt lat="48.250344256865155" lon="11.61019354473211"><ele>483.25</ele><time>2026-03-27T09:08:22.999Z</time></trkpt><trkpt lat="48.25034973978275" lon="11.61040163982507"><ele>483.5</ele><time>2026-03-27T09:08:23.999Z</time></trkpt><trkpt lat="48.25035741334413" lon="11.61060520190017"><ele>483.75</ele><time>2026-03-27T09:08:24.999Z</time></trkpt><trkpt lat="48.25036451602488" lon="11.610790360701072"><ele>484.0</ele><time>2026-03-27T09:08:25.999Z</time></trkpt><trkpt lat="48.25036984185753" lon="11.61095995119083"><ele>484.0</ele><time>2026-03-27T09:08:26.999Z</time></trkpt><trkpt lat="48.25037491069716" lon="11.611114533773168"><ele>484.0</ele><time>2026-03-27T09:08:27.999Z</time></trkpt><trkpt lat="48.25038066987129" lon="11.611269561013316"><ele>484.0</ele><time>2026-03-27T09:08:28.999Z</time></trkpt><trkpt lat="48.250385892941964" lon="11.61143372078179"><ele>484.0</ele><time>2026-03-27T09:08:29.999Z</time></trkpt><trkpt lat="48.250393164075255" lon="11.611614012471133"><ele>484.0</ele><time>2026-03-27T09:08:30.999Z</time></trkpt><trkpt lat="48.25040019721498" lon="11.611792736200579"><ele>484.00000000000006</ele><time>2026-03-27T09:08:31.999Z</time></trkpt><trkpt lat="48.25040199524019" lon="11.611951121250495"><ele>484.0</ele><time>2026-03-27T09:08:32.999Z</time></trkpt><trkpt lat="48.25040326530242" lon="11.612095719549997"><ele>484.0</ele><time>2026-03-27T09:08:33.999Z</time></trkpt><trkpt lat="48.25040430730828" lon="11.612226646834674"><ele>484.0</ele><time>2026-03-27T09:08:34.999Z</time></trkpt><trkpt lat="48.25040437324147" lon="11.61234773775217"><ele>484.00000000000006</ele><time>2026-03-27T09:08:35.999Z</time></trkpt><trkpt lat="48.25039939289353" lon="11.612454946730324"><ele>484.0</ele><time>2026-03-27T09:08:36.999Z</time></trkpt><trkpt lat="48.25039125078512" lon="11.612589969413007"><ele>484.00000000000006</ele><time>2026-03-27T09:08:38.999Z</time></trkpt><trkpt lat="48.25038150804849" lon="11.612712806602694"><ele>484.0</ele><time>2026-03-27T09:09:19.999Z</time></trkpt><trkpt lat="48.25035990279171" lon="11.612807336292843"><ele>484.0</ele><time>2026-03-27T09:09:21.999Z</time></trkpt><trkpt lat="48.25026195629267" lon="11.612865859331102"><ele>484.0</ele><time>2026-03-27T09:09:23.999Z</time></trkpt><trkpt lat="48.250197136226944" lon="11.61285873354338"><ele>484.00000000000006</ele><time>2026-03-27T09:09:24.999Z</time></trkpt><trkpt lat="48.25012578917527" lon="11.61285519276734"><ele>484.0</ele><time>2026-03-27T09:09:25.999Z</time></trkpt><trkpt lat="48.25006103379788" lon="11.612851327469386"><ele>484.00000000000006</ele><time>2026-03-27T09:09:26.999Z</time></trkpt><trkpt lat="48.24999789401252" lon="11.612847243685453"><ele>484.0</ele><time>2026-03-27T09:09:27.999Z</time></trkpt><trkpt lat="48.24993395268697" lon="11.612815123095116"><ele>484.0</ele><time>2026-03-27T09:09:28.999Z</time></trkpt><trkpt lat="48.24986515094627" lon="11.612806442846283"><ele>484.0</ele><time>2026-03-27T09:09:29.999Z</time></trkpt><trkpt lat="48.24974533509386" lon="11.612796297494913"><ele>484.00000000000006</ele><time>2026-03-27T09:09:31.999Z</time></trkpt><trkpt lat="48.24963646879222" lon="11.612788202095219"><ele>484.0</ele><time>2026-03-27T09:09:33.999Z</time></trkpt><trkpt lat="48.24955890267118" lon="11.612803939704913"><ele>483.83333333333337</ele><time>2026-03-27T09:09:35.999Z</time></trkpt><trkpt lat="48.24948263550917" lon="11.612800817288486"><ele>483.6666666666667</ele><time>2026-03-27T09:09:38.999Z</time></trkpt><trkpt lat="48.24941314891483" lon="11.612794949055333"><ele>483.5</ele><time>2026-03-27T09:09:40.999Z</time></trkpt><trkpt lat="48.249341198769535" lon="11.612765436822045"><ele>483.33333333333337</ele><time>2026-03-27T09:09:42.999Z</time></trkpt><trkpt lat="48.249253617243944" lon="11.612758381510858"><ele>483.1666666666667</ele><time>2026-03-27T09:09:44.999Z</time></trkpt><trkpt lat="48.249148974396405" lon="11.61274995179034"><ele>483.0</ele><time>2026-03-27T09:09:46.999Z</time></trkpt><trkpt lat="48.24907529216361" lon="11.612743465535758"><ele>483.0</ele><time>2026-03-27T09:09:48.999Z</time></trkpt><trkpt lat="48.24897426192731" lon="11.612734082125993"><ele>483.0</ele><time>2026-03-27T09:09:51.999Z</time></trkpt><trkpt lat="48.24894069997476" lon="11.61264239121076"><ele>483.0</ele><time>2026-03-27T09:09:55.998Z</time></trkpt><trkpt lat="48.24894627196426" lon="11.61254268192982"><ele>483.0</ele><time>2026-03-27T09:09:58.998Z</time></trkpt><trkpt lat="48.248953492399245" lon="11.612441786829756"><ele>483.0</ele><time>2026-03-27T09:10:02Z</time></trkpt><trkpt lat="48.24896522118587" lon="11.612325518865799"><ele>483.0</ele><time>2026-03-27T09:10:06Z</time></trkpt><trkpt lat="48.248978049974454" lon="11.612198347591367"><ele>483.0</ele><time>2026-03-27T09:10:10Z</time></trkpt><trkpt lat="48.24898821932689" lon="11.612080871980886"><ele>483.0</ele><time>2026-03-27T09:10:13Z</time></trkpt><trkpt lat="48.24899957073034" lon="11.611957050666932"><ele>483.0</ele><time>2026-03-27T09:10:16Z</time></trkpt><trkpt lat="48.249010809825194" lon="11.61183434221301"><ele>483.0</ele><time>2026-03-27T09:10:19Z</time></trkpt><trkpt lat="48.24902097025305" lon="11.611723410651525"><ele>483.0</ele><time>2026-03-27T09:10:22Z</time></trkpt><trkpt lat="48.24903153148647" lon="11.61160810310985"><ele>483.0</ele><time>2026-03-27T09:10:25Z</time></trkpt><trkpt lat="48.2490416706543" lon="11.611497403986661"><ele>483.0</ele><time>2026-03-27T09:10:29Z</time></trkpt><trkpt lat="48.249050823988306" lon="11.611391057889941"><ele>483.0</ele><time>2026-03-27T09:10:31.999Z</time></trkpt><trkpt lat="48.24905990788705" lon="11.611293796913667"><ele>483.0</ele><time>2026-03-27T09:10:34.999Z</time></trkpt><trkpt lat="48.24907145921468" lon="11.611176079770381"><ele>483.0</ele><time>2026-03-27T09:10:38.999Z</time></trkpt><trkpt lat="48.249083517286266" lon="11.611053198489849"><ele>483.0</ele><time>2026-03-27T09:10:42.999Z</time></trkpt><trkpt lat="48.24908863613805" lon="11.610956877557088"><ele>483.0</ele><time>2026-03-27T09:10:45.999Z</time></trkpt><trkpt lat="48.249088636138474" lon="11.610837741290277"><ele>483.0</ele><time>2026-03-27T09:10:49.999Z</time></trkpt><trkpt lat="48.249088636137834" lon="11.610739329764026"><ele>483.1666666666667</ele><time>2026-03-27T09:10:52.999Z</time></trkpt><trkpt lat="48.2490895306226" lon="11.610643511690753"><ele>483.33333333333337</ele><time>2026-03-27T09:10:55.999Z</time></trkpt><trkpt lat="48.24906836847595" lon="11.610540420550436"><ele>483.5</ele><time>2026-03-27T09:10:59.999Z</time></trkpt><trkpt lat="48.24913026479027" lon="11.61049183009589"><ele>483.6666666666667</ele><time>2026-03-27T09:11:06.999Z</time></trkpt><trkpt lat="48.24923591117729" lon="11.610486890180349"><ele>483.83333333333337</ele><time>2026-03-27T09:11:08.999Z</time></trkpt><trkpt lat="48.249300217725555" lon="11.610475712198898"><ele>484.0</ele><time>2026-03-27T09:11:10.999Z</time></trkpt><trkpt lat="48.249384817832514" lon="11.610474486661762"><ele>484.0</ele><time>2026-03-27T09:11:13.999Z</time></trkpt><trkpt lat="48.249457473001435" lon="11.610468722447711"><ele>483.99999999999994</ele><time>2026-03-27T09:11:16.999Z</time></trkpt><trkpt lat="48.249526550534945" lon="11.610469821506406"><ele>484.0</ele><time>2026-03-27T09:11:19.999Z</time></trkpt><trkpt lat="48.24959912371532" lon="11.610479258431598"><ele>484.0</ele><time>2026-03-27T09:11:22.999Z</time></trkpt><trkpt lat="48.249655878915256" lon="11.610527202212532"><ele>483.99999999999994</ele><time>2026-03-27T09:11:24.999Z</time></trkpt><trkpt lat="48.24967272811988" lon="11.610629201640394"><ele>484.0</ele><time>2026-03-27T09:11:26.999Z</time></trkpt><trkpt lat="48.24967342228059" lon="11.610732175283934"><ele>484.0</ele><time>2026-03-27T09:11:28.999Z</time></trkpt><trkpt lat="48.24967821394262" lon="11.610867641376863"><ele>484.00000000000006</ele><time>2026-03-27T09:11:30.999Z</time></trkpt><trkpt lat="48.24968166953026" lon="11.610992481275732"><ele>484.0</ele><time>2026-03-27T09:11:33.999Z</time></trkpt><trkpt lat="48.249677931043415" lon="11.611094067993902"><ele>484.0</ele><time>2026-03-27T09:11:35.999Z</time></trkpt><trkpt lat="48.249679543628694" lon="11.611202571208269"><ele>484.0</ele><time>2026-03-27T09:11:37.999Z</time></trkpt><trkpt lat="48.24968171160341" lon="11.611361282924056"><ele>484.00000000000006</ele><time>2026-03-27T09:11:40.999Z</time></trkpt><trkpt lat="48.249681212270865" lon="11.611487795165143"><ele>484.0</ele><time>2026-03-27T09:11:42.999Z</time></trkpt><trkpt lat="48.24968178678979" lon="11.611633982247078"><ele>483.79999999999995</ele><time>2026-03-27T09:11:44.999Z</time></trkpt><trkpt lat="48.24968919941961" lon="11.611778369593125"><ele>483.59999999999997</ele><time>2026-03-27T09:11:46.999Z</time></trkpt><trkpt lat="48.2497047379117" lon="11.611955717893988"><ele>483.4</ele><time>2026-03-27T09:11:48.999Z</time></trkpt><trkpt lat="48.24970682564792" lon="11.612129056995602"><ele>483.2</ele><time>2026-03-27T09:11:50.999Z</time></trkpt><trkpt lat="48.24971127966534" lon="11.612268519000141"><ele>483.0</ele><time>2026-03-27T09:11:52.999Z</time></trkpt><trkpt lat="48.24971270018019" lon="11.612419666946524"><ele>483.0</ele><time>2026-03-27T09:11:54.999Z</time></trkpt><trkpt lat="48.24971753625418" lon="11.612555863576956"><ele>483.0</ele><time>2026-03-27T09:11:56.999Z</time></trkpt><trkpt lat="48.2497156535341" lon="11.612654626213223"><ele>483.0</ele><time>2026-03-27T09:11:58.999Z</time></trkpt><trkpt lat="48.249716224733234" lon="11.612756800871885"><ele>483.0</ele><time>2026-03-27T09:12:06.999Z</time></trkpt><trkpt lat="48.24973353076115" lon="11.612870519289125"><ele>483.0</ele><time>2026-03-27T09:12:10Z</time></trkpt><trkpt lat="48.24983421884678" lon="11.612875731104333"><ele>483.0</ele><time>2026-03-27T09:12:11Z</time></trkpt><trkpt lat="48.249903791117184" lon="11.612878871296495"><ele>483.1666666666667</ele><time>2026-03-27T09:12:13Z</time></trkpt><trkpt lat="48.24998260541186" lon="11.612885323337945"><ele>483.33333333333337</ele><time>2026-03-27T09:12:15Z</time></trkpt><trkpt lat="48.25006196045838" lon="11.61289047625273"><ele>483.5</ele><time>2026-03-27T09:12:17Z</time></trkpt><trkpt lat="48.25014664461343" lon="11.612890171056794"><ele>483.6666666666667</ele><time>2026-03-27T09:12:20Z</time></trkpt><trkpt lat="48.25021173564856" lon="11.612898625194406"><ele>483.83333333333337</ele><time>2026-03-27T09:12:23Z</time></trkpt><trkpt lat="48.25029869113523" lon="11.612910612081045"><ele>484.0</ele><time>2026-03-27T09:12:46Z</time></trkpt><trkpt lat="48.25039758777721" lon="11.612917754041836"><ele>483.83333333333337</ele><time>2026-03-27T09:12:48Z</time></trkpt><trkpt lat="48.25042846401763" lon="11.612802218699487"><ele>483.6666666666667</ele><time>2026-03-27T09:12:49Z</time></trkpt><trkpt lat="48.25043834731909" lon="11.612705962179508"><ele>483.5</ele><time>2026-03-27T09:12:50Z</time></trkpt><trkpt lat="48.250443675774676" lon="11.612593354477537"><ele>483.33333333333337</ele><time>2026-03-27T09:12:51Z</time></trkpt><trkpt lat="48.25043696585374" lon="11.612456204316025"><ele>483.1666666666667</ele><time>2026-03-27T09:12:51.999Z</time></trkpt><trkpt lat="48.25043270922763" lon="11.612326256443714"><ele>483.0</ele><time>2026-03-27T09:12:52.999Z</time></trkpt><trkpt lat="48.25043093149668" lon="11.612198882288563"><ele>483.0</ele><time>2026-03-27T09:12:53.999Z</time></trkpt><trkpt lat="48.250431990771915" lon="11.612070650502163"><ele>483.0</ele><time>2026-03-27T09:12:54.999Z</time></trkpt><trkpt lat="48.250434002940025" lon="11.611939475720645"><ele>483.0</ele><time>2026-03-27T09:12:55.999Z</time></trkpt><trkpt lat="48.250434378885515" lon="11.611806353710154"><ele>483.0</ele><time>2026-03-27T09:12:56.999Z</time></trkpt><trkpt lat="48.2504338885796" lon="11.611670072795071"><ele>483.0</ele><time>2026-03-27T09:12:57.999Z</time></trkpt><trkpt lat="48.250432048068745" lon="11.611529112320547"><ele>483.0</ele><time>2026-03-27T09:12:58.999Z</time></trkpt><trkpt lat="48.25043001288263" lon="11.61138617001115"><ele>483.2</ele><time>2026-03-27T09:12:59.999Z</time></trkpt><trkpt lat="48.25042592976956" lon="11.611242792003985"><ele>483.4</ele><time>2026-03-27T09:13:00.999Z</time></trkpt><trkpt lat="48.250420968329415" lon="11.611098195452751"><ele>483.59999999999997</ele><time>2026-03-27T09:13:01.999Z</time></trkpt><trkpt lat="48.25041668540362" lon="11.61095078583244"><ele>483.79999999999995</ele><time>2026-03-27T09:13:02.999Z</time></trkpt><trkpt lat="48.250410597657684" lon="11.610802645418698"><ele>484.0</ele><time>2026-03-27T09:13:03.999Z</time></trkpt><trkpt lat="48.250404996628454" lon="11.610652983073667"><ele>484.0</ele><time>2026-03-27T09:13:04.999Z</time></trkpt><trkpt lat="48.25039886565711" lon="11.6104975236443"><ele>484.0</ele><time>2026-03-27T09:13:05.999Z</time></trkpt><trkpt lat="48.25039073727572" lon="11.610323865112532"><ele>484.0</ele><time>2026-03-27T09:13:06.999Z</time></trkpt><trkpt lat="48.25038320453751" lon="11.610149251938516"><ele>484.0</ele><time>2026-03-27T09:13:07.999Z</time></trkpt><trkpt lat="48.25037618820218" lon="11.609974021129787"><ele>483.75</ele><time>2026-03-27T09:13:08.999Z</time></trkpt><trkpt lat="48.250369061212076" lon="11.609796499522046"><ele>483.5</ele><time>2026-03-27T09:13:09.999Z</time></trkpt><trkpt lat="48.25035929495639" lon="11.609614325467025"><ele>483.25</ele><time>2026-03-27T09:13:10.999Z</time></trkpt><trkpt lat="48.25036750211078" lon="11.609427849281385"><ele>483.0</ele><time>2026-03-27T09:13:11.999Z</time></trkpt><trkpt lat="48.25035654329909" lon="11.609237484551352"><ele>483.0</ele><time>2026-03-27T09:13:12.999Z</time></trkpt><trkpt lat="48.25034312832775" lon="11.609046428332585"><ele>483.0</ele><time>2026-03-27T09:13:13.999Z</time></trkpt><trkpt lat="48.250313901028484" lon="11.608873038514027"><ele>483.0</ele><time>2026-03-27T09:13:14.999Z</time></trkpt><trkpt lat="48.250301375455344" lon="11.608696953906428"><ele>483.0</ele><time>2026-03-27T09:13:15.999Z</time></trkpt><trkpt lat="48.25028695999322" lon="11.608511466897973"><ele>483.0</ele><time>2026-03-27T09:13:16.999Z</time></trkpt><trkpt lat="48.25027226414577" lon="11.608327866684622"><ele>483.0</ele><time>2026-03-27T09:13:17.999Z</time></trkpt><trkpt lat="48.250260078528164" lon="11.608146496015674"><ele>483.0</ele><time>2026-03-27T09:13:18.999Z</time></trkpt><trkpt lat="48.25024732857696" lon="11.607965160230878"><ele>483.0</ele><time>2026-03-27T09:13:19.999Z</time></trkpt><trkpt lat="48.25023176264901" lon="11.607774951751693"><ele>483.0</ele><time>2026-03-27T09:13:20.999Z</time></trkpt><trkpt lat="48.250216182459255" lon="11.607581444469616"><ele>483.0</ele><time>2026-03-27T09:13:21.999Z</time></trkpt><trkpt lat="48.250199898464494" lon="11.607388932827607"><ele>483.0</ele><time>2026-03-27T09:13:22.999Z</time></trkpt><trkpt lat="48.25018440311301" lon="11.607200793557265"><ele>483.0</ele><time>2026-03-27T09:13:23.999Z</time></trkpt><trkpt lat="48.250168102198415" lon="11.607019153714415"><ele>483.25</ele><time>2026-03-27T09:13:24.999Z</time></trkpt><trkpt lat="48.25015147549836" lon="11.606841545809129"><ele>483.5</ele><time>2026-03-27T09:13:25.999Z</time></trkpt><trkpt lat="48.250129273145" lon="11.606658337750629"><ele>483.75</ele><time>2026-03-27T09:13:26.999Z</time></trkpt><trkpt lat="48.25009438052789" lon="11.606477494643212"><ele>484.0</ele><time>2026-03-27T09:13:27.999Z</time></trkpt><trkpt lat="48.2500546856181" lon="11.606311422842543"><ele>484.0</ele><time>2026-03-27T09:13:28.999Z</time></trkpt><trkpt lat="48.25001812963646" lon="11.606166775170514"><ele>484.0</ele><time>2026-03-27T09:13:29.999Z</time></trkpt><trkpt lat="48.249976146664864" lon="11.606019476092191"><ele>484.0</ele><time>2026-03-27T09:13:30.999Z</time></trkpt><trkpt lat="48.249930946412356" lon="11.605874239604118"><ele>484.0</ele><time>2026-03-27T09:13:31.999Z</time></trkpt><trkpt lat="48.24988682400237" lon="11.605738224114615"><ele>484.0</ele><time>2026-03-27T09:13:32.999Z</time></trkpt><trkpt lat="48.2498462775596" lon="11.605613782180715"><ele>484.00000000000006</ele><time>2026-03-27T09:13:33.999Z</time></trkpt><trkpt lat="48.24980932110407" lon="11.605497886437773"><ele>484.0</ele><time>2026-03-27T09:13:34.999Z</time></trkpt><trkpt lat="48.249773246558696" lon="11.6053963680728"><ele>484.0</ele><time>2026-03-27T09:13:35.999Z</time></trkpt><trkpt lat="48.24974071490606" lon="11.605308735484424"><ele>484.0</ele><time>2026-03-27T09:13:36.999Z</time></trkpt><trkpt lat="48.24969901566529" lon="11.605186911410255"><ele>484.00000000000006</ele><time>2026-03-27T09:13:38.999Z</time></trkpt><trkpt lat="48.24968933027384" lon="11.605083017046779"><ele>484.0</ele><time>2026-03-27T09:13:40.999Z</time></trkpt><trkpt lat="48.249730624660195" lon="11.605001809189439"><ele>483.83333333333337</ele><time>2026-03-27T09:13:42.999Z</time></trkpt><trkpt lat="48.24977401155842" lon="11.604931617540874"><ele>483.6666666666667</ele><time>2026-03-27T09:13:44.999Z</time></trkpt><trkpt lat="48.249848668196655" lon="11.6048413868411"><ele>483.5</ele><time>2026-03-27T09:13:47.999Z</time></trkpt><trkpt lat="48.249921818109506" lon="11.60477339411437"><ele>483.33333333333337</ele><time>2026-03-27T09:13:49.999Z</time></trkpt><trkpt lat="48.249983366525214" lon="11.604711526294214"><ele>483.1666666666667</ele><time>2026-03-27T09:13:52.999Z</time></trkpt><trkpt lat="48.25000983756201" lon="11.604526244683921"><ele>483.0</ele><time>2026-03-27T09:13:54.999Z</time></trkpt><trkpt lat="48.24994919192402" lon="11.604442274184573"><ele>483.0</ele><time>2026-03-27T09:13:57.999Z</time></trkpt><trkpt lat="48.24991435203762" lon="11.604330873106889"><ele>483.0</ele><time>2026-03-27T09:14:00.999Z</time></trkpt><trkpt lat="48.249866320217635" lon="11.604229475570385"><ele>483.0</ele><time>2026-03-27T09:14:05.999Z</time></trkpt><trkpt lat="48.249796842878006" lon="11.604103077006846"><ele>483.0</ele><time>2026-03-27T09:14:08.999Z</time></trkpt><trkpt lat="48.24972577826154" lon="11.604079775029197"><ele>483.0</ele><time>2026-03-27T09:14:10.999Z</time></trkpt><trkpt lat="48.24965224111264" lon="11.604057599719866"><ele>483.0</ele><time>2026-03-27T09:14:13Z</time></trkpt><trkpt lat="48.24957766945931" lon="11.60403507682928"><ele>483.0</ele><time>2026-03-27T09:14:15Z</time></trkpt><trkpt lat="48.24950588428703" lon="11.604015857628248"><ele>483.0</ele><time>2026-03-27T09:14:17Z</time></trkpt><trkpt lat="48.24942513164748" lon="11.603999692739709"><ele>483.0</ele><time>2026-03-27T09:14:19Z</time></trkpt><trkpt lat="48.249351445655336" lon="11.603999645793596"><ele>483.0</ele><time>2026-03-27T09:14:21Z</time></trkpt><trkpt lat="48.24928478483679" lon="11.603984707944484"><ele>483.0</ele><time>2026-03-27T09:14:23Z</time></trkpt><trkpt lat="48.24922360306763" lon="11.603928896774372"><ele>483.0</ele><time>2026-03-27T09:14:25Z</time></trkpt><trkpt lat="48.249167837339094" lon="11.603840583825662"><ele>483.0</ele><time>2026-03-27T09:14:27Z</time></trkpt><trkpt lat="48.24909601947127" lon="11.60373574436914"><ele>483.0</ele><time>2026-03-27T09:14:29Z</time></trkpt><trkpt lat="48.249050210583206" lon="11.603669804788282"><ele>483.0</ele><time>2026-03-27T09:14:30Z</time></trkpt><trkpt lat="48.248998790611736" lon="11.603594763733392"><ele>483.0</ele><time>2026-03-27T09:14:31Z</time></trkpt><trkpt lat="48.2489381649348" lon="11.603538066465314"><ele>483.0</ele><time>2026-03-27T09:14:32Z</time></trkpt><trkpt lat="48.2488579729364" lon="11.603396036927817"><ele>483.0</ele><time>2026-03-27T09:14:34Z</time></trkpt><trkpt lat="48.24882118090901" lon="11.603314566117943"><ele>483.0</ele><time>2026-03-27T09:14:35Z</time></trkpt><trkpt lat="48.24879133639588" lon="11.603223147096992"><ele>483.1666666666667</ele><time>2026-03-27T09:14:36Z</time></trkpt><trkpt lat="48.248760783292354" lon="11.603082005606385"><ele>483.33333333333337</ele><time>2026-03-27T09:14:38Z</time></trkpt><trkpt lat="48.248755972229716" lon="11.602973747415064"><ele>483.5</ele><time>2026-03-27T09:14:40Z</time></trkpt><trkpt lat="48.24875586377186" lon="11.6028676948982"><ele>483.6666666666667</ele><time>2026-03-27T09:14:43Z</time></trkpt><trkpt lat="48.248757920905405" lon="11.602761395006997"><ele>483.83333333333337</ele><time>2026-03-27T09:14:45Z</time></trkpt><trkpt lat="48.24877176954611" lon="11.60264477464736"><ele>484.0</ele><time>2026-03-27T09:14:47Z</time></trkpt><trkpt lat="48.248796424172" lon="11.602499845347895"><ele>484.0</ele><time>2026-03-27T09:14:49Z</time></trkpt><trkpt lat="48.248825990329664" lon="11.60234555811509"><ele>484.0</ele><time>2026-03-27T09:14:51Z</time></trkpt><trkpt lat="48.24885186782625" lon="11.602149757623009"><ele>484.0</ele><time>2026-03-27T09:14:53Z</time></trkpt><trkpt lat="48.2488625100077" lon="11.602033183289509"><ele>484.0</ele><time>2026-03-27T09:14:54Z</time></trkpt><trkpt lat="48.248878030987186" lon="11.601895543899106"><ele>484.0</ele><time>2026-03-27T09:14:55Z</time></trkpt><trkpt lat="48.24889207183837" lon="11.601757220409555"><ele>484.6</ele><time>2026-03-27T09:14:56Z</time></trkpt><trkpt lat="48.248901262686275" lon="11.601617235986017"><ele>485.2</ele><time>2026-03-27T09:14:57Z</time></trkpt><trkpt lat="48.24893254574774" lon="11.601469762814801"><ele>485.80000000000007</ele><time>2026-03-27T09:14:58Z</time></trkpt><trkpt lat="48.248952218137944" lon="11.60130886542595"><ele>486.40000000000003</ele><time>2026-03-27T09:14:59Z</time></trkpt><trkpt lat="48.248969999710866" lon="11.601138087175258"><ele>487.0</ele><time>2026-03-27T09:15:00Z</time></trkpt><trkpt lat="48.24897325396645" lon="11.600954655940818"><ele>487.25</ele><time>2026-03-27T09:15:01Z</time></trkpt><trkpt lat="48.248994301847645" lon="11.600772061565934"><ele>487.5</ele><time>2026-03-27T09:15:02Z</time></trkpt><trkpt lat="48.24902302258415" lon="11.600579783860473"><ele>487.75</ele><time>2026-03-27T09:15:03Z</time></trkpt><trkpt lat="48.24904931180077" lon="11.600387243686775"><ele>488.0</ele><time>2026-03-27T09:15:04Z</time></trkpt><trkpt lat="48.24907007711643" lon="11.600221070812214"><ele>488.0</ele><time>2026-03-27T09:15:05Z</time></trkpt><trkpt lat="48.2490932115002" lon="11.600057171775441"><ele>488.0</ele><time>2026-03-27T09:15:06Z</time></trkpt><trkpt lat="48.24911916857962" lon="11.599876813575625"><ele>488.0</ele><time>2026-03-27T09:15:07Z</time></trkpt><trkpt lat="48.2491452959318" lon="11.599683953980843"><ele>488.0</ele><time>2026-03-27T09:15:08Z</time></trkpt><trkpt lat="48.249167745166304" lon="11.599486400902009"><ele>488.25</ele><time>2026-03-27T09:15:09Z</time></trkpt><trkpt lat="48.249193448555346" lon="11.599288363549078"><ele>488.5</ele><time>2026-03-27T09:15:10Z</time></trkpt><trkpt lat="48.24923610660859" lon="11.599098459287887"><ele>488.75</ele><time>2026-03-27T09:15:11Z</time></trkpt><trkpt lat="48.24926083938816" lon="11.598911743422988"><ele>489.0</ele><time>2026-03-27T09:15:12Z</time></trkpt><trkpt lat="48.24928487315998" lon="11.598729560868179"><ele>489.0</ele><time>2026-03-27T09:15:13Z</time></trkpt><trkpt lat="48.24930940177201" lon="11.598542834074033"><ele>489.0</ele><time>2026-03-27T09:15:14Z</time></trkpt><trkpt lat="48.24933835349167" lon="11.598322435809077"><ele>489.0</ele><time>2026-03-27T09:15:15Z</time></trkpt><trkpt lat="48.249370560368774" lon="11.59807456455921"><ele>489.0</ele><time>2026-03-27T09:15:16Z</time></trkpt><trkpt lat="48.24940615204905" lon="11.59779876076"><ele>489.66666666666663</ele><time>2026-03-27T09:15:17Z</time></trkpt><trkpt lat="48.249438388384085" lon="11.597548957829853"><ele>490.3333333333333</ele><time>2026-03-27T09:15:18Z</time></trkpt><trkpt lat="48.249469135117316" lon="11.597310698384517"><ele>491.0</ele><time>2026-03-27T09:15:19Z</time></trkpt><trkpt lat="48.249499991133" lon="11.5970715920573"><ele>491.0</ele><time>2026-03-27T09:15:20Z</time></trkpt><trkpt lat="48.249531039104085" lon="11.596830998236584"><ele>491.0</ele><time>2026-03-27T09:15:21Z</time></trkpt><trkpt lat="48.24956406822116" lon="11.596575052269765"><ele>491.0</ele><time>2026-03-27T09:15:22Z</time></trkpt><trkpt lat="48.24959832288708" lon="11.596309609472083"><ele>490.66666666666663</ele><time>2026-03-27T09:15:23Z</time></trkpt><trkpt lat="48.2496336948516" lon="11.596036377580608"><ele>490.33333333333337</ele><time>2026-03-27T09:15:23.999Z</time></trkpt><trkpt lat="48.249668033360265" lon="11.595770131491106"><ele>490.0</ele><time>2026-03-27T09:15:24.999Z</time></trkpt><trkpt lat="48.249701122123625" lon="11.59551081855992"><ele>490.0</ele><time>2026-03-27T09:15:25.999Z</time></trkpt><trkpt lat="48.249735210334876" lon="11.59524367297326"><ele>490.0</ele><time>2026-03-27T09:15:26.999Z</time></trkpt><trkpt lat="48.24977082312499" lon="11.594969348770293"><ele>490.0</ele><time>2026-03-27T09:15:27.999Z</time></trkpt><trkpt lat="48.24980688750687" lon="11.594693716224189"><ele>490.6666666666667</ele><time>2026-03-27T09:15:28.999Z</time></trkpt><trkpt lat="48.24984342021843" lon="11.594416501964247"><ele>491.33333333333337</ele><time>2026-03-27T09:15:29.999Z</time></trkpt><trkpt lat="48.24988047566436" lon="11.594135320921145"><ele>492.0</ele><time>2026-03-27T09:15:30.999Z</time></trkpt><trkpt lat="48.24991654284441" lon="11.593859356022492"><ele>492.0</ele><time>2026-03-27T09:15:31.999Z</time></trkpt><trkpt lat="48.24995182862843" lon="11.59358817839179"><ele>492.0</ele><time>2026-03-27T09:15:32.999Z</time></trkpt><trkpt lat="48.24998771892594" lon="11.59331235499239"><ele>492.0</ele><time>2026-03-27T09:15:33.999Z</time></trkpt><trkpt lat="48.25002526006186" lon="11.593023844597248"><ele>492.0</ele><time>2026-03-27T09:15:34.999Z</time></trkpt><trkpt lat="48.25006408757447" lon="11.59272544818521"><ele>492.0</ele><time>2026-03-27T09:15:35.999Z</time></trkpt><trkpt lat="48.250102261036034" lon="11.592432078068153"><ele>492.0</ele><time>2026-03-27T09:15:36.999Z</time></trkpt><trkpt lat="48.2501398744205" lon="11.592143012039903"><ele>491.66666666666663</ele><time>2026-03-27T09:15:37.999Z</time></trkpt><trkpt lat="48.25017706327243" lon="11.591857209002026"><ele>491.3333333333333</ele><time>2026-03-27T09:15:38.999Z</time></trkpt><trkpt lat="48.25021437635925" lon="11.591570451588302"><ele>491.0</ele><time>2026-03-27T09:15:39.999Z</time></trkpt><trkpt lat="48.250251409781846" lon="11.59128584295872"><ele>491.0</ele><time>2026-03-27T09:15:40.999Z</time></trkpt><trkpt lat="48.25028944551674" lon="11.590993531580962"><ele>491.0</ele><time>2026-03-27T09:15:41.999Z</time></trkpt><trkpt lat="48.25032849326208" lon="11.59069344262442"><ele>491.0</ele><time>2026-03-27T09:15:42.999Z</time></trkpt><trkpt lat="48.25036788051194" lon="11.59038924660574"><ele>491.3333333333333</ele><time>2026-03-27T09:15:43.999Z</time></trkpt><trkpt lat="48.25040781506307" lon="11.590079925794912"><ele>491.66666666666663</ele><time>2026-03-27T09:15:44.999Z</time></trkpt><trkpt lat="48.25044677081925" lon="11.589778186330433"><ele>492.0</ele><time>2026-03-27T09:15:45.999Z</time></trkpt><trkpt lat="48.2504854098385" lon="11.58947890030157"><ele>492.0</ele><time>2026-03-27T09:15:46.999Z</time></trkpt><trkpt lat="48.25052374178159" lon="11.58918440126773"><ele>492.0</ele><time>2026-03-27T09:15:47.999Z</time></trkpt><trkpt lat="48.250562366826145" lon="11.588888365151696"><ele>492.0</ele><time>2026-03-27T09:15:48.999Z</time></trkpt><trkpt lat="48.250600624706244" lon="11.588595142710698"><ele>491.66666666666663</ele><time>2026-03-27T09:15:49.999Z</time></trkpt><trkpt lat="48.25063854236432" lon="11.58830452847451"><ele>491.3333333333333</ele><time>2026-03-27T09:15:50.999Z</time></trkpt><trkpt lat="48.25067728784283" lon="11.58800756936364"><ele>491.0</ele><time>2026-03-27T09:15:51.999Z</time></trkpt><trkpt lat="48.25071456123592" lon="11.587721892709133"><ele>491.0</ele><time>2026-03-27T09:15:52.999Z</time></trkpt><trkpt lat="48.25074879310129" lon="11.587459527186697"><ele>491.0</ele><time>2026-03-27T09:15:53.999Z</time></trkpt><trkpt lat="48.25078138570413" lon="11.5872097260215"><ele>491.0</ele><time>2026-03-27T09:15:54.999Z</time></trkpt><trkpt lat="48.25081334431848" lon="11.586964783804648"><ele>492.0</ele><time>2026-03-27T09:15:55.999Z</time></trkpt><trkpt lat="48.25084663928195" lon="11.586709195889519"><ele>493.0</ele><time>2026-03-27T09:15:56.999Z</time></trkpt><trkpt lat="48.25088024703639" lon="11.5864493583152"><ele>494.0</ele><time>2026-03-27T09:15:57.999Z</time></trkpt><trkpt lat="48.25091253943181" lon="11.586199690002994"><ele>493.3333333333333</ele><time>2026-03-27T09:15:58.999Z</time></trkpt><trkpt lat="48.25094438546656" lon="11.585953472937245"><ele>492.66666666666663</ele><time>2026-03-27T09:15:59.999Z</time></trkpt><trkpt lat="48.25095934132877" lon="11.585708775991222"><ele>492.0</ele><time>2026-03-27T09:16:00.999Z</time></trkpt><trkpt lat="48.250992535735335" lon="11.585475087915233"><ele>492.0</ele><time>2026-03-27T09:16:01.999Z</time></trkpt><trkpt lat="48.25102174053479" lon="11.585246323045498"><ele>492.0</ele><time>2026-03-27T09:16:02.999Z</time></trkpt><trkpt lat="48.25104973787259" lon="11.585021873816316"><ele>492.0</ele><time>2026-03-27T09:16:03.999Z</time></trkpt><trkpt lat="48.25107846489261" lon="11.584798507219768"><ele>492.0</ele><time>2026-03-27T09:16:04.999Z</time></trkpt><trkpt lat="48.251122228422226" lon="11.584578482919207"><ele>492.0</ele><time>2026-03-27T09:16:05.999Z</time></trkpt><trkpt lat="48.25115063463229" lon="11.584358860356083"><ele>492.0</ele><time>2026-03-27T09:16:06.999Z</time></trkpt><trkpt lat="48.25117908189517" lon="11.584138921423095"><ele>492.25</ele><time>2026-03-27T09:16:07.999Z</time></trkpt><trkpt lat="48.251205686220764" lon="11.583933230529874"><ele>492.5</ele><time>2026-03-27T09:16:08.999Z</time></trkpt><trkpt lat="48.25122901344751" lon="11.583752876209905"><ele>492.75</ele><time>2026-03-27T09:16:09.999Z</time></trkpt><trkpt lat="48.25125089572178" lon="11.58358272687785"><ele>493.0</ele><time>2026-03-27T09:16:10.999Z</time></trkpt><trkpt lat="48.25125676983953" lon="11.583407659590998"><ele>493.0</ele><time>2026-03-27T09:16:11.999Z</time></trkpt><trkpt lat="48.251294205623516" lon="11.583243016693075"><ele>493.0</ele><time>2026-03-27T09:16:12.999Z</time></trkpt><trkpt lat="48.251319405921" lon="11.583074452196811"><ele>493.0</ele><time>2026-03-27T09:16:13.999Z</time></trkpt><trkpt lat="48.25134870025542" lon="11.58290674614785"><ele>493.0</ele><time>2026-03-27T09:16:14.999Z</time></trkpt><trkpt lat="48.25138493846795" lon="11.58274014434496"><ele>492.75</ele><time>2026-03-27T09:16:15.999Z</time></trkpt><trkpt lat="48.25141691646526" lon="11.582569617327524"><ele>492.5</ele><time>2026-03-27T09:16:16.999Z</time></trkpt><trkpt lat="48.251467350397135" lon="11.582409795561537"><ele>492.25</ele><time>2026-03-27T09:16:17.999Z</time></trkpt><trkpt lat="48.25152432131554" lon="11.582255210723456"><ele>492.0</ele><time>2026-03-27T09:16:19Z</time></trkpt><trkpt lat="48.25158782140809" lon="11.582107093678902"><ele>491.0</ele><time>2026-03-27T09:16:20Z</time></trkpt><trkpt lat="48.2516534159878" lon="11.581964618934702"><ele>490.0</ele><time>2026-03-27T09:16:21Z</time></trkpt><trkpt lat="48.251733585971735" lon="11.58184154612503"><ele>489.0</ele><time>2026-03-27T09:16:22Z</time></trkpt><trkpt lat="48.251801957178785" lon="11.581700976677094"><ele>488.0</ele><time>2026-03-27T09:16:23Z</time></trkpt><trkpt lat="48.25185133869037" lon="11.581542592710692"><ele>488.0</ele><time>2026-03-27T09:16:24Z</time></trkpt><trkpt lat="48.25190754277914" lon="11.581390644965248"><ele>487.99999999999994</ele><time>2026-03-27T09:16:25Z</time></trkpt><trkpt lat="48.25196647411247" lon="11.581257045110494"><ele>487.99999999999994</ele><time>2026-03-27T09:16:26Z</time></trkpt><trkpt lat="48.252000793382216" lon="11.581109904877156"><ele>488.0</ele><time>2026-03-27T09:16:27Z</time></trkpt><trkpt lat="48.25203041033593" lon="11.580959468059023"><ele>488.0</ele><time>2026-03-27T09:16:28Z</time></trkpt><trkpt lat="48.25205204815939" lon="11.580811110781523"><ele>487.8333333333333</ele><time>2026-03-27T09:16:29Z</time></trkpt><trkpt lat="48.252062144980776" lon="11.580683191906791"><ele>487.66666666666663</ele><time>2026-03-27T09:16:30Z</time></trkpt><trkpt lat="48.25205374450543" lon="11.580572955162461"><ele>487.5</ele><time>2026-03-27T09:16:31Z</time></trkpt><trkpt lat="48.252061939265054" lon="11.580409837031327"><ele>487.33333333333337</ele><time>2026-03-27T09:16:33Z</time></trkpt><trkpt lat="48.25205662716603" lon="11.580307992206418"><ele>487.1666666666667</ele><time>2026-03-27T09:16:35Z</time></trkpt><trkpt lat="48.252053131038465" lon="11.580175084060524"><ele>487.0</ele><time>2026-03-27T09:16:38Z</time></trkpt><trkpt lat="48.25208625352195" lon="11.580069691711778"><ele>487.0</ele><time>2026-03-27T09:16:40Z</time></trkpt><trkpt lat="48.252145863756205" lon="11.57996010358179"><ele>487.00000000000006</ele><time>2026-03-27T09:16:42Z</time></trkpt><trkpt lat="48.25217881390668" lon="11.5798303953633"><ele>487.00000000000006</ele><time>2026-03-27T09:16:44Z</time></trkpt><trkpt lat="48.25215281545882" lon="11.579687506970071"><ele>487.0</ele><time>2026-03-27T09:16:46Z</time></trkpt><trkpt lat="48.25207501103736" lon="11.579561003890216"><ele>487.0</ele><time>2026-03-27T09:16:48Z</time></trkpt><trkpt lat="48.25196786907416" lon="11.57952897407407"><ele>487.0</ele><time>2026-03-27T09:16:50Z</time></trkpt><trkpt lat="48.25186068278268" lon="11.579603873236252"><ele>487.0</ele><time>2026-03-27T09:16:52Z</time></trkpt><trkpt lat="48.25179375584573" lon="11.579751202540224"><ele>487.0</ele><time>2026-03-27T09:16:54Z</time></trkpt><trkpt lat="48.251799096280905" lon="11.579926491270532"><ele>487.0</ele><time>2026-03-27T09:16:56Z</time></trkpt><trkpt lat="48.251860888257326" lon="11.580052966317236"><ele>487.0</ele><time>2026-03-27T09:16:58Z</time></trkpt><trkpt lat="48.251954916965545" lon="11.58016165901972"><ele>487.00000000000006</ele><time>2026-03-27T09:17:00Z</time></trkpt><trkpt lat="48.252003515675945" lon="11.58026025072924"><ele>487.00000000000006</ele><time>2026-03-27T09:17:00.999Z</time></trkpt><trkpt lat="48.25202970001781" lon="11.580381753267966"><ele>487.0</ele><time>2026-03-27T09:17:01.999Z</time></trkpt><trkpt lat="48.25204855611008" lon="11.580500534324441"><ele>487.0</ele><time>2026-03-27T09:17:02.999Z</time></trkpt><trkpt lat="48.25202993284738" lon="11.580652314809612"><ele>487.0</ele><time>2026-03-27T09:17:03.999Z</time></trkpt><trkpt lat="48.25202049233175" lon="11.58079492414449"><ele>487.00000000000006</ele><time>2026-03-27T09:17:04.999Z</time></trkpt><trkpt lat="48.25200179360348" lon="11.580945495113966"><ele>487.00000000000006</ele><time>2026-03-27T09:17:05.999Z</time></trkpt><trkpt lat="48.251975866763495" lon="11.581094442375223"><ele>487.0</ele><time>2026-03-27T09:17:06.999Z</time></trkpt><trkpt lat="48.25194139287772" lon="11.58124626914981"><ele>487.0</ele><time>2026-03-27T09:17:07.999Z</time></trkpt><trkpt lat="48.25189684962799" lon="11.581391845420729"><ele>487.20000000000005</ele><time>2026-03-27T09:17:08.999Z</time></trkpt><trkpt lat="48.251847115485425" lon="11.581531976361347"><ele>487.40000000000003</ele><time>2026-03-27T09:17:09.999Z</time></trkpt><trkpt lat="48.25178841465763" lon="11.5816715064128"><ele>487.59999999999997</ele><time>2026-03-27T09:17:10.999Z</time></trkpt><trkpt lat="48.25172301731306" lon="11.581811348318313"><ele>487.79999999999995</ele><time>2026-03-27T09:17:11.999Z</time></trkpt><trkpt lat="48.25165581774651" lon="11.581940182110701"><ele>488.0</ele><time>2026-03-27T09:17:12.999Z</time></trkpt><trkpt lat="48.25159303747338" lon="11.582065942392514"><ele>488.0</ele><time>2026-03-27T09:17:13.999Z</time></trkpt><trkpt lat="48.251536402222605" lon="11.58219725726658"><ele>487.99999999999994</ele><time>2026-03-27T09:17:14.999Z</time></trkpt><trkpt lat="48.25148161230377" lon="11.582332427489327"><ele>487.99999999999994</ele><time>2026-03-27T09:17:15.999Z</time></trkpt><trkpt lat="48.25142891237525" lon="11.582477562069037"><ele>488.0</ele><time>2026-03-27T09:17:16.999Z</time></trkpt><trkpt lat="48.25137979426616" lon="11.582634516865998"><ele>488.0</ele><time>2026-03-27T09:17:17.999Z</time></trkpt><trkpt lat="48.251341095140475" lon="11.582802130699704"><ele>489.25</ele><time>2026-03-27T09:17:18.999Z</time></trkpt><trkpt lat="48.25130635561688" lon="11.582975493538902"><ele>490.5</ele><time>2026-03-27T09:17:19.999Z</time></trkpt><trkpt lat="48.251276224758236" lon="11.58315571681514"><ele>491.75</ele><time>2026-03-27T09:17:20.999Z</time></trkpt><trkpt lat="48.2512511290005" lon="11.583342818943713"><ele>493.0</ele><time>2026-03-27T09:17:21.999Z</time></trkpt><trkpt lat="48.25122962859784" lon="11.58352983656917"><ele>493.0</ele><time>2026-03-27T09:17:22.999Z</time></trkpt><trkpt lat="48.2512032770319" lon="11.583725674932314"><ele>493.0</ele><time>2026-03-27T09:17:23.999Z</time></trkpt><trkpt lat="48.2511750019829" lon="11.583944288848777"><ele>493.0</ele><time>2026-03-27T09:17:24.999Z</time></trkpt><trkpt lat="48.251147665279674" lon="11.584156252364162"><ele>493.0</ele><time>2026-03-27T09:17:25.999Z</time></trkpt><trkpt lat="48.25111989253508" lon="11.584362273419018"><ele>492.6666666666667</ele><time>2026-03-27T09:17:26.999Z</time></trkpt><trkpt lat="48.25108862604568" lon="11.584583407812465"><ele>492.33333333333337</ele><time>2026-03-27T09:17:27.999Z</time></trkpt><trkpt lat="48.2510573045504" lon="11.584812804589246"><ele>492.0</ele><time>2026-03-27T09:17:28.999Z</time></trkpt><trkpt lat="48.251025171813076" lon="11.58507184845221"><ele>492.0</ele><time>2026-03-27T09:17:29.999Z</time></trkpt><trkpt lat="48.250993428530656" lon="11.585343469246574"><ele>492.0</ele><time>2026-03-27T09:17:30.999Z</time></trkpt><trkpt lat="48.25096170320748" lon="11.585597321249763"><ele>492.0</ele><time>2026-03-27T09:17:31.999Z</time></trkpt><trkpt lat="48.25092435439118" lon="11.585847780762657"><ele>492.0</ele><time>2026-03-27T09:17:32.999Z</time></trkpt><trkpt lat="48.25089062652291" lon="11.586115043115525"><ele>492.0</ele><time>2026-03-27T09:17:33.999Z</time></trkpt><trkpt lat="48.2508560205438" lon="11.586386802772632"><ele>492.0</ele><time>2026-03-27T09:17:34.999Z</time></trkpt><trkpt lat="48.25082264500082" lon="11.586644811735056"><ele>491.66666666666663</ele><time>2026-03-27T09:17:35.999Z</time></trkpt><trkpt lat="48.25079080099779" lon="11.586907425530084"><ele>491.3333333333333</ele><time>2026-03-27T09:17:36.999Z</time></trkpt><trkpt lat="48.250755998089375" lon="11.58717905393616"><ele>491.0</ele><time>2026-03-27T09:17:37.999Z</time></trkpt><trkpt lat="48.25072265274885" lon="11.587448126366256"><ele>491.0</ele><time>2026-03-27T09:17:38.999Z</time></trkpt><trkpt lat="48.25068849586091" lon="11.587716693903202"><ele>491.0</ele><time>2026-03-27T09:17:39.999Z</time></trkpt><trkpt lat="48.25065191796417" lon="11.58798247160893"><ele>491.0</ele><time>2026-03-27T09:17:40.999Z</time></trkpt><trkpt lat="48.25061602994837" lon="11.588251941642183"><ele>491.3333333333333</ele><time>2026-03-27T09:17:41.999Z</time></trkpt><trkpt lat="48.25058034661851" lon="11.588523659561154"><ele>491.66666666666663</ele><time>2026-03-27T09:17:42.999Z</time></trkpt><trkpt lat="48.25054734646876" lon="11.588783914594373"><ele>492.0</ele><time>2026-03-27T09:17:43.999Z</time></trkpt><trkpt lat="48.25051366399509" lon="11.589040926985371"><ele>492.0</ele><time>2026-03-27T09:17:44.999Z</time></trkpt><trkpt lat="48.250477831092766" lon="11.589310629083442"><ele>492.0</ele><time>2026-03-27T09:17:45.999Z</time></trkpt><trkpt lat="48.25043944495704" lon="11.589590023690938"><ele>492.0</ele><time>2026-03-27T09:17:46.999Z</time></trkpt><trkpt lat="48.25040392068902" lon="11.589877968686205"><ele>492.0</ele><time>2026-03-27T09:17:47.999Z</time></trkpt><trkpt lat="48.25036861834413" lon="11.590154804908952"><ele>492.0</ele><time>2026-03-27T09:17:48.999Z</time></trkpt><trkpt lat="48.25033071050202" lon="11.590433160849793"><ele>492.0</ele><time>2026-03-27T09:17:49.999Z</time></trkpt><trkpt lat="48.25029545692978" lon="11.590715782283883"><ele>491.66666666666663</ele><time>2026-03-27T09:17:50.999Z</time></trkpt><trkpt lat="48.250259784934" lon="11.59100126660867"><ele>491.3333333333333</ele><time>2026-03-27T09:17:51.999Z</time></trkpt><trkpt lat="48.2502230123979" lon="11.591292134743426"><ele>491.0</ele><time>2026-03-27T09:17:52.999Z</time></trkpt><trkpt lat="48.25018416948992" lon="11.591574897903934"><ele>491.0</ele><time>2026-03-27T09:17:53.999Z</time></trkpt><trkpt lat="48.25014533787887" lon="11.591862700911033"><ele>491.0</ele><time>2026-03-27T09:17:54.999Z</time></trkpt><trkpt lat="48.250108611830086" lon="11.592150969327045"><ele>491.0</ele><time>2026-03-27T09:17:55.999Z</time></trkpt><trkpt lat="48.25007083340046" lon="11.592440702539154"><ele>491.3333333333333</ele><time>2026-03-27T09:17:56.999Z</time></trkpt><trkpt lat="48.25003336650179" lon="11.592735247243956"><ele>491.66666666666663</ele><time>2026-03-27T09:17:57.999Z</time></trkpt><trkpt lat="48.24999494355179" lon="11.593034732075045"><ele>492.0</ele><time>2026-03-27T09:17:58.999Z</time></trkpt><trkpt lat="48.249956389208954" lon="11.593334334133587"><ele>492.0</ele><time>2026-03-27T09:17:59.999Z</time></trkpt><trkpt lat="48.24991724939032" lon="11.5936326999933"><ele>492.0</ele><time>2026-03-27T09:18:00.999Z</time></trkpt><trkpt lat="48.24987752282202" lon="11.593937683365464"><ele>492.0</ele><time>2026-03-27T09:18:01.999Z</time></trkpt><trkpt lat="48.24983728457561" lon="11.594240862094612"><ele>491.33333333333337</ele><time>2026-03-27T09:18:02.999Z</time></trkpt><trkpt lat="48.249799008882086" lon="11.594542476696985"><ele>490.6666666666667</ele><time>2026-03-27T09:18:03.999Z</time></trkpt><trkpt lat="48.2497602941468" lon="11.594850390867515"><ele>490.0</ele><time>2026-03-27T09:18:04.999Z</time></trkpt><trkpt lat="48.249721744902715" lon="11.595157120292445"><ele>490.0</ele><time>2026-03-27T09:18:05.999Z</time></trkpt><trkpt lat="48.2496823633778" lon="11.595458748114474"><ele>490.0</ele><time>2026-03-27T09:18:06.999Z</time></trkpt><trkpt lat="48.24964473154039" lon="11.595743135428213"><ele>490.0</ele><time>2026-03-27T09:18:07.999Z</time></trkpt><trkpt lat="48.24960518380378" lon="11.596020824360142"><ele>490.33333333333337</ele><time>2026-03-27T09:18:08.999Z</time></trkpt><trkpt lat="48.24956811306877" lon="11.596300772858813"><ele>490.66666666666663</ele><time>2026-03-27T09:18:09.999Z</time></trkpt><trkpt lat="48.24953717348333" lon="11.596553010129544"><ele>491.0</ele><time>2026-03-27T09:18:10.999Z</time></trkpt><trkpt lat="48.24950545432189" lon="11.596795608708993"><ele>491.0</ele><time>2026-03-27T09:18:11.999Z</time></trkpt><trkpt lat="48.24947405333567" lon="11.59704016068427"><ele>491.0</ele><time>2026-03-27T09:18:12.999Z</time></trkpt><trkpt lat="48.24944305334644" lon="11.597282977284435"><ele>491.0</ele><time>2026-03-27T09:18:13.999Z</time></trkpt><trkpt lat="48.24941228320898" lon="11.597523363181056"><ele>491.0</ele><time>2026-03-27T09:18:14.999Z</time></trkpt><trkpt lat="48.249383137976146" lon="11.597752883194396"><ele>491.0</ele><time>2026-03-27T09:18:15.999Z</time></trkpt><trkpt lat="48.24935227892692" lon="11.597978877882065"><ele>491.0</ele><time>2026-03-27T09:18:16.999Z</time></trkpt><trkpt lat="48.24932139835028" lon="11.598204495067868"><ele>490.5</ele><time>2026-03-27T09:18:17.999Z</time></trkpt><trkpt lat="48.249290901277384" lon="11.598428889752263"><ele>490.0</ele><time>2026-03-27T09:18:18.999Z</time></trkpt><trkpt lat="48.24926180929966" lon="11.598637278481867"><ele>489.5</ele><time>2026-03-27T09:18:19.999Z</time></trkpt><trkpt lat="48.249231890725554" lon="11.598825293197"><ele>489.0</ele><time>2026-03-27T09:18:20.999Z</time></trkpt><trkpt lat="48.249203953119675" lon="11.59900945673338"><ele>489.0</ele><time>2026-03-27T09:18:21.999Z</time></trkpt><trkpt lat="48.249176459119646" lon="11.59918830616028"><ele>489.0</ele><time>2026-03-27T09:18:22.999Z</time></trkpt><trkpt lat="48.249149752344216" lon="11.599370874513882"><ele>489.0</ele><time>2026-03-27T09:18:23.999Z</time></trkpt><trkpt lat="48.249122551131066" lon="11.599557033353486"><ele>489.0</ele><time>2026-03-27T09:18:25Z</time></trkpt><trkpt lat="48.2490976367883" lon="11.599726654117276"><ele>488.79999999999995</ele><time>2026-03-27T09:18:26Z</time></trkpt><trkpt lat="48.249074195375854" lon="11.599885475631321"><ele>488.59999999999997</ele><time>2026-03-27T09:18:27Z</time></trkpt><trkpt lat="48.24905214716713" lon="11.60003869125269"><ele>488.4</ele><time>2026-03-27T09:18:28Z</time></trkpt><trkpt lat="48.24903140796527" lon="11.600189042430301"><ele>488.2</ele><time>2026-03-27T09:18:29Z</time></trkpt><trkpt lat="48.24901057641861" lon="11.60033697073824"><ele>488.0</ele><time>2026-03-27T09:18:30Z</time></trkpt><trkpt lat="48.248990017117556" lon="11.600478760632242"><ele>487.99999999999994</ele><time>2026-03-27T09:18:31Z</time></trkpt><trkpt lat="48.24897265829166" lon="11.60061481431174"><ele>488.0</ele><time>2026-03-27T09:18:32Z</time></trkpt><trkpt lat="48.24895632884195" lon="11.600745688153559"><ele>488.0</ele><time>2026-03-27T09:18:33Z</time></trkpt><trkpt lat="48.24894218330776" lon="11.600864137147852"><ele>488.0</ele><time>2026-03-27T09:18:34Z</time></trkpt><trkpt lat="48.24892774061707" lon="11.60097052218084"><ele>487.99999999999994</ele><time>2026-03-27T09:18:35Z</time></trkpt><trkpt lat="48.24891504588414" lon="11.60107032675625"><ele>488.0</ele><time>2026-03-27T09:18:36Z</time></trkpt><trkpt lat="48.24889485373592" lon="11.601230294719189"><ele>487.8333333333333</ele><time>2026-03-27T09:18:38Z</time></trkpt><trkpt lat="48.2488789719884" lon="11.601340664710538"><ele>487.66666666666663</ele><time>2026-03-27T09:18:40Z</time></trkpt><trkpt lat="48.24886071464533" lon="11.601475745136241"><ele>487.5</ele><time>2026-03-27T09:18:43Z</time></trkpt><trkpt lat="48.24884638086352" lon="11.601572217606947"><ele>487.33333333333337</ele><time>2026-03-27T09:18:46Z</time></trkpt><trkpt lat="48.248843978824624" lon="11.601699980060612"><ele>487.1666666666667</ele><time>2026-03-27T09:19:17Z</time></trkpt><trkpt lat="48.24883246107566" lon="11.601807475130743"><ele>487.0</ele><time>2026-03-27T09:19:19Z</time></trkpt><trkpt lat="48.248795678060766" lon="11.60197595839983"><ele>486.57142857142856</ele><time>2026-03-27T09:19:21Z</time></trkpt><trkpt lat="48.248788589570644" lon="11.602070905551727"><ele>486.1428571428571</ele><time>2026-03-27T09:19:22Z</time></trkpt><trkpt lat="48.24877528707515" lon="11.602169227250112"><ele>485.71428571428567</ele><time>2026-03-27T09:19:23Z</time></trkpt><trkpt lat="48.24875600141184" lon="11.602273891353969"><ele>485.2857142857143</ele><time>2026-03-27T09:19:24Z</time></trkpt><trkpt lat="48.24873958241291" lon="11.602384352692523"><ele>484.8571428571428</ele><time>2026-03-27T09:19:25Z</time></trkpt><trkpt lat="48.24872979185863" lon="11.602505855431296"><ele>484.4285714285714</ele><time>2026-03-27T09:19:26Z</time></trkpt><trkpt lat="48.248718404480776" lon="11.602636431297102"><ele>484.0</ele><time>2026-03-27T09:19:27Z</time></trkpt><trkpt lat="48.2487082592303" lon="11.602773885380078"><ele>484.1666666666667</ele><time>2026-03-27T09:19:28Z</time></trkpt><trkpt lat="48.24868826386635" lon="11.602910137431715"><ele>484.33333333333337</ele><time>2026-03-27T09:19:29Z</time></trkpt><trkpt lat="48.248699640275504" lon="11.603038475020075"><ele>484.5</ele><time>2026-03-27T09:19:30Z</time></trkpt><trkpt lat="48.24873643650761" lon="11.603155831049643"><ele>484.66666666666663</ele><time>2026-03-27T09:19:31Z</time></trkpt><trkpt lat="48.24877060513819" lon="11.603277442214523"><ele>484.8333333333333</ele><time>2026-03-27T09:19:32Z</time></trkpt><trkpt lat="48.248816358071196" lon="11.60339931185118"><ele>485.0</ele><time>2026-03-27T09:19:33Z</time></trkpt><trkpt lat="48.24887964770219" lon="11.603509367544683"><ele>485.0</ele><time>2026-03-27T09:19:34Z</time></trkpt><trkpt lat="48.24894514364791" lon="11.603602961410584"><ele>485.0</ele><time>2026-03-27T09:19:35Z</time></trkpt><trkpt lat="48.24901743982442" lon="11.603703342790993"><ele>485.0</ele><time>2026-03-27T09:19:36Z</time></trkpt><trkpt lat="48.24909268712543" lon="11.603811420146975"><ele>485.0</ele><time>2026-03-27T09:19:37Z</time></trkpt><trkpt lat="48.24916442876609" lon="11.603914993310664"><ele>485.0</ele><time>2026-03-27T09:19:38Z</time></trkpt><trkpt lat="48.24922788399564" lon="11.604021786694487"><ele>484.66666666666663</ele><time>2026-03-27T09:19:39Z</time></trkpt><trkpt lat="48.2492850277222" lon="11.604140018954949"><ele>484.3333333333333</ele><time>2026-03-27T09:19:40Z</time></trkpt><trkpt lat="48.249333048121024" lon="11.604245309097049"><ele>484.0</ele><time>2026-03-27T09:19:41Z</time></trkpt><trkpt lat="48.249378022399945" lon="11.60434862137623"><ele>483.66666666666663</ele><time>2026-03-27T09:19:42Z</time></trkpt><trkpt lat="48.249418881443475" lon="11.604446683875434"><ele>483.3333333333333</ele><time>2026-03-27T09:19:43Z</time></trkpt><trkpt lat="48.24945293078351" lon="11.604531059514851"><ele>483.0</ele><time>2026-03-27T09:19:44Z</time></trkpt><trkpt lat="48.249505517310595" lon="11.604672105062711"><ele>483.0</ele><time>2026-03-27T09:19:46Z</time></trkpt><trkpt lat="48.24954858665612" lon="11.604790530830865"><ele>483.0</ele><time>2026-03-27T09:19:48Z</time></trkpt><trkpt lat="48.249576815217225" lon="11.60487676377906"><ele>483.0</ele><time>2026-03-27T09:19:50Z</time></trkpt><trkpt lat="48.249613555530466" lon="11.604982184477807"><ele>483.0</ele><time>2026-03-27T09:19:53Z</time></trkpt><trkpt lat="48.24962950563067" lon="11.605074913903678"><ele>483.0</ele><time>2026-03-27T09:19:55Z</time></trkpt><trkpt lat="48.24970896246411" lon="11.605000911162932"><ele>483.0</ele><time>2026-03-27T09:19:57Z</time></trkpt><trkpt lat="48.24976887690169" lon="11.604932535163806"><ele>483.0</ele><time>2026-03-27T09:20:00Z</time></trkpt><trkpt lat="48.24976084522548" lon="11.604752737165688"><ele>483.0</ele><time>2026-03-27T09:20:05Z</time></trkpt><trkpt lat="48.24972811012388" lon="11.604655094459709"><ele>483.0</ele><time>2026-03-27T09:20:08Z</time></trkpt><trkpt lat="48.24969192844988" lon="11.60454717125551"><ele>483.0</ele><time>2026-03-27T09:20:10.999Z</time></trkpt><trkpt lat="48.249661768997576" lon="11.604457211323044"><ele>483.0</ele><time>2026-03-27T09:20:13.999Z</time></trkpt><trkpt lat="48.249618232085034" lon="11.60438764738622"><ele>483.0</ele><time>2026-03-27T09:20:16.999Z</time></trkpt><trkpt lat="48.249659770141065" lon="11.604289810925506"><ele>483.0</ele><time>2026-03-27T09:20:20.999Z</time></trkpt><trkpt lat="48.249720590108396" lon="11.60424644625721"><ele>483.0</ele><time>2026-03-27T09:20:23.999Z</time></trkpt><trkpt lat="48.24971100447121" lon="11.604152756476388"><ele>483.0</ele><time>2026-03-27T09:20:27.999Z</time></trkpt><trkpt lat="48.24966822357744" lon="11.604062479022627"><ele>483.0</ele><time>2026-03-27T09:20:29.999Z</time></trkpt><trkpt lat="48.24960340539631" lon="11.604042687630471"><ele>483.0</ele><time>2026-03-27T09:20:32.001Z</time></trkpt><trkpt lat="48.24953062038371" lon="11.604022479529577"><ele>483.0</ele><time>2026-03-27T09:20:34.001Z</time></trkpt><trkpt lat="48.249447179203095" lon="11.604003269978037"><ele>483.0</ele><time>2026-03-27T09:20:37.001Z</time></trkpt><trkpt lat="48.249367462340985" lon="11.603993534530831"><ele>483.0</ele><time>2026-03-27T09:20:40.001Z</time></trkpt><trkpt lat="48.24929165483093" lon="11.604005117581435"><ele>483.0</ele><time>2026-03-27T09:20:42.001Z</time></trkpt><trkpt lat="48.249216605125625" lon="11.603948857181043"><ele>483.0</ele><time>2026-03-27T09:20:44.001Z</time></trkpt><trkpt lat="48.249183862805154" lon="11.603864317916573"><ele>483.0</ele><time>2026-03-27T09:20:45.001Z</time></trkpt><trkpt lat="48.24910051556" lon="11.603742215717414"><ele>483.0</ele><time>2026-03-27T09:20:47.001Z</time></trkpt><trkpt lat="48.249044754361194" lon="11.60369611936461"><ele>483.0</ele><time>2026-03-27T09:20:48.001Z</time></trkpt><trkpt lat="48.2489998987183" lon="11.603629471990216"><ele>483.4</ele><time>2026-03-27T09:20:49.001Z</time></trkpt><trkpt lat="48.248927584721464" lon="11.603510589784163"><ele>483.79999999999995</ele><time>2026-03-27T09:20:51.001Z</time></trkpt><trkpt lat="48.248851257038126" lon="11.603366377958627"><ele>484.2</ele><time>2026-03-27T09:20:53Z</time></trkpt><trkpt lat="48.24881471492665" lon="11.603280223683283"><ele>484.6</ele><time>2026-03-27T09:20:54Z</time></trkpt><trkpt lat="48.24877692927509" lon="11.603124388326982"><ele>485.0</ele><time>2026-03-27T09:20:56Z</time></trkpt><trkpt lat="48.2487672353898" lon="11.602967004106215"><ele>484.8333333333333</ele><time>2026-03-27T09:20:58Z</time></trkpt><trkpt lat="48.24876862721005" lon="11.60277268168419"><ele>484.66666666666663</ele><time>2026-03-27T09:21:00Z</time></trkpt><trkpt lat="48.248781723921084" lon="11.602665253643728"><ele>484.5</ele><time>2026-03-27T09:21:01Z</time></trkpt><trkpt lat="48.2487983636945" lon="11.602555376483812"><ele>484.33333333333337</ele><time>2026-03-27T09:21:02Z</time></trkpt><trkpt lat="48.248818144869965" lon="11.602457393879407"><ele>484.1666666666667</ele><time>2026-03-27T09:21:03Z</time></trkpt><trkpt lat="48.248847787196" lon="11.602313967539484"><ele>484.0</ele><time>2026-03-27T09:21:05Z</time></trkpt><trkpt lat="48.24889572256864" lon="11.602193202962678"><ele>484.0</ele><time>2026-03-27T09:21:07Z</time></trkpt><trkpt lat="48.24902776491227" lon="11.602137049610574"><ele>484.0</ele><time>2026-03-27T09:21:09Z</time></trkpt><trkpt lat="48.24912834889047" lon="11.602122052203704"><ele>484.0</ele><time>2026-03-27T09:21:10Z</time></trkpt><trkpt lat="48.24924334007192" lon="11.602098323928976"><ele>484.0</ele><time>2026-03-27T09:21:11Z</time></trkpt><trkpt lat="48.2493798716881" lon="11.602071232116767"><ele>484.0</ele><time>2026-03-27T09:21:12Z</time></trkpt><trkpt lat="48.24952925114043" lon="11.60203502254666"><ele>484.0</ele><time>2026-03-27T09:21:13Z</time></trkpt><trkpt lat="48.249688986616434" lon="11.602005098770528"><ele>484.0</ele><time>2026-03-27T09:21:14Z</time></trkpt><trkpt lat="48.249855021360204" lon="11.601969958096236"><ele>484.33333333333337</ele><time>2026-03-27T09:21:15Z</time></trkpt><trkpt lat="48.25002824490055" lon="11.601928078113536"><ele>484.66666666666663</ele><time>2026-03-27T09:21:16Z</time></trkpt><trkpt lat="48.25020974006083" lon="11.601879241316219"><ele>485.0</ele><time>2026-03-27T09:21:17Z</time></trkpt><trkpt lat="48.25039990681936" lon="11.601825746639964"><ele>485.0</ele><time>2026-03-27T09:21:18Z</time></trkpt><trkpt lat="48.25059573797645" lon="11.601767913664915"><ele>485.0</ele><time>2026-03-27T09:21:19Z</time></trkpt><trkpt lat="48.25079897830906" lon="11.601703400860767"><ele>485.0</ele><time>2026-03-27T09:21:20Z</time></trkpt><trkpt lat="48.25100499672539" lon="11.601634921220093"><ele>485.0</ele><time>2026-03-27T09:21:21Z</time></trkpt><trkpt lat="48.25121874692912" lon="11.601564752843773"><ele>485.0</ele><time>2026-03-27T09:21:22Z</time></trkpt><trkpt lat="48.251434937309725" lon="11.601487400576527"><ele>485.0</ele><time>2026-03-27T09:21:23Z</time></trkpt><trkpt lat="48.25165550739315" lon="11.601405793565714"><ele>484.0</ele><time>2026-03-27T09:21:24Z</time></trkpt><trkpt lat="48.25187578049242" lon="11.601318909938154"><ele>483.0</ele><time>2026-03-27T09:21:25Z</time></trkpt><trkpt lat="48.25209515805068" lon="11.601226981167034"><ele>483.5</ele><time>2026-03-27T09:21:26Z</time></trkpt><trkpt lat="48.252311405130946" lon="11.601133747357482"><ele>484.0</ele><time>2026-03-27T09:21:27Z</time></trkpt><trkpt lat="48.25252674735894" lon="11.601035956110586"><ele>484.0</ele><time>2026-03-27T09:21:28Z</time></trkpt><trkpt lat="48.25274170489443" lon="11.600936248885317"><ele>484.0</ele><time>2026-03-27T09:21:29Z</time></trkpt><trkpt lat="48.252958489862266" lon="11.600834121958348"><ele>483.5</ele><time>2026-03-27T09:21:30Z</time></trkpt><trkpt lat="48.25317687611706" lon="11.600731669758913"><ele>483.0</ele><time>2026-03-27T09:21:31Z</time></trkpt><trkpt lat="48.25340681286708" lon="11.600625165470111"><ele>483.0</ele><time>2026-03-27T09:21:32Z</time></trkpt><trkpt lat="48.253644860097694" lon="11.600512709968129"><ele>483.0</ele><time>2026-03-27T09:21:33Z</time></trkpt><trkpt lat="48.25387321813616" lon="11.60040375428815"><ele>485.0</ele><time>2026-03-27T09:21:34Z</time></trkpt><trkpt lat="48.2540946493276" lon="11.600300466607726"><ele>487.0</ele><time>2026-03-27T09:21:35Z</time></trkpt><trkpt lat="48.25431602524281" lon="11.600194364133825"><ele>487.0</ele><time>2026-03-27T09:21:36Z</time></trkpt><trkpt lat="48.25454075283912" lon="11.600090523079967"><ele>487.0</ele><time>2026-03-27T09:21:37Z</time></trkpt><trkpt lat="48.254766847382406" lon="11.599983765699523"><ele>485.0</ele><time>2026-03-27T09:21:38Z</time></trkpt><trkpt lat="48.25499245786901" lon="11.599875753701005"><ele>483.0</ele><time>2026-03-27T09:21:39Z</time></trkpt><trkpt lat="48.25522070615022" lon="11.599768481846603"><ele>483.0</ele><time>2026-03-27T09:21:40Z</time></trkpt><trkpt lat="48.25544983835838" lon="11.599658808896494"><ele>483.0</ele><time>2026-03-27T09:21:41Z</time></trkpt><trkpt lat="48.255678863089074" lon="11.599544079417145"><ele>484.5</ele><time>2026-03-27T09:21:42Z</time></trkpt><trkpt lat="48.25591049187499" lon="11.59943502796498"><ele>486.0</ele><time>2026-03-27T09:21:43Z</time></trkpt><trkpt lat="48.25614045403084" lon="11.5993290153798"><ele>486.0</ele><time>2026-03-27T09:21:44Z</time></trkpt><trkpt lat="48.25636216726212" lon="11.599226924336103"><ele>486.0</ele><time>2026-03-27T09:21:45Z</time></trkpt><trkpt lat="48.25657619574591" lon="11.599127566425697"><ele>485.33333333333337</ele><time>2026-03-27T09:21:46Z</time></trkpt><trkpt lat="48.256780853437874" lon="11.599028487454094"><ele>484.6666666666667</ele><time>2026-03-27T09:21:47Z</time></trkpt><trkpt lat="48.25698145419496" lon="11.598929371712794"><ele>484.0</ele><time>2026-03-27T09:21:48Z</time></trkpt><trkpt lat="48.25718039629416" lon="11.598833949836745"><ele>484.0</ele><time>2026-03-27T09:21:49Z</time></trkpt><trkpt lat="48.25738314975081" lon="11.59874065785917"><ele>484.0</ele><time>2026-03-27T09:21:50Z</time></trkpt><trkpt lat="48.25758797398998" lon="11.59864704724818"><ele>484.0</ele><time>2026-03-27T09:21:51Z</time></trkpt><trkpt lat="48.25779854973831" lon="11.598548871820114"><ele>483.5</ele><time>2026-03-27T09:21:52Z</time></trkpt><trkpt lat="48.258019035032525" lon="11.598441119128791"><ele>483.0</ele><time>2026-03-27T09:21:53Z</time></trkpt><trkpt lat="48.25824616212419" lon="11.598335841128785"><ele>483.0</ele><time>2026-03-27T09:21:54Z</time></trkpt><trkpt lat="48.25847864133649" lon="11.598228237245092"><ele>483.0</ele><time>2026-03-27T09:21:55Z</time></trkpt><trkpt lat="48.25871415277004" lon="11.598115496536126"><ele>483.0</ele><time>2026-03-27T09:21:56Z</time></trkpt><trkpt lat="48.25894823971257" lon="11.598004315927431"><ele>483.0</ele><time>2026-03-27T09:21:57Z</time></trkpt><trkpt lat="48.25917840879497" lon="11.597894108373568"><ele>483.5</ele><time>2026-03-27T09:21:58Z</time></trkpt><trkpt lat="48.259401792090074" lon="11.59778746563854"><ele>484.0</ele><time>2026-03-27T09:21:59Z</time></trkpt><trkpt lat="48.25961592596081" lon="11.59768764864894"><ele>483.33333333333337</ele><time>2026-03-27T09:22:00Z</time></trkpt><trkpt lat="48.259820069279215" lon="11.597596095726677"><ele>482.66666666666663</ele><time>2026-03-27T09:22:01Z</time></trkpt><trkpt lat="48.260022743353815" lon="11.597501754529116"><ele>482.0</ele><time>2026-03-27T09:22:02Z</time></trkpt><trkpt lat="48.26022650253928" lon="11.597405953353896"><ele>482.0</ele><time>2026-03-27T09:22:03Z</time></trkpt><trkpt lat="48.26044159382642" lon="11.597302079735636"><ele>482.0</ele><time>2026-03-27T09:22:04Z</time></trkpt><trkpt lat="48.26065485757423" lon="11.597209003817559"><ele>482.0</ele><time>2026-03-27T09:22:05Z</time></trkpt><trkpt lat="48.26086317641815" lon="11.59710635128383"><ele>481.0</ele><time>2026-03-27T09:22:06Z</time></trkpt><trkpt lat="48.26106124662766" lon="11.597010386631787"><ele>480.0</ele><time>2026-03-27T09:22:07Z</time></trkpt><trkpt lat="48.26125468204031" lon="11.5969182878794"><ele>479.0</ele><time>2026-03-27T09:22:08Z</time></trkpt><trkpt lat="48.26144198319891" lon="11.596829560637325"><ele>478.3333333333333</ele><time>2026-03-27T09:22:09Z</time></trkpt><trkpt lat="48.261624165433275" lon="11.596741209147151"><ele>477.66666666666663</ele><time>2026-03-27T09:22:10Z</time></trkpt><trkpt lat="48.26179877380867" lon="11.596655257725978"><ele>477.0</ele><time>2026-03-27T09:22:11Z</time></trkpt><trkpt lat="48.26196511221619" lon="11.596573960481534"><ele>477.0</ele><time>2026-03-27T09:22:12Z</time></trkpt><trkpt lat="48.2621225058957" lon="11.596497657205004"><ele>477.0</ele><time>2026-03-27T09:22:13Z</time></trkpt><trkpt lat="48.26226960377027" lon="11.596426687162646"><ele>477.0</ele><time>2026-03-27T09:22:14Z</time></trkpt><trkpt lat="48.262409267167826" lon="11.596359223794234"><ele>476.75</ele><time>2026-03-27T09:22:15Z</time></trkpt><trkpt lat="48.26254460803236" lon="11.59629327133547"><ele>476.5</ele><time>2026-03-27T09:22:16Z</time></trkpt><trkpt lat="48.26267627021603" lon="11.596230115892798"><ele>476.25</ele><time>2026-03-27T09:22:17Z</time></trkpt><trkpt lat="48.26280742848308" lon="11.596168523224627"><ele>476.0</ele><time>2026-03-27T09:22:18Z</time></trkpt><trkpt lat="48.26295036790858" lon="11.596101209510637"><ele>476.0</ele><time>2026-03-27T09:22:19Z</time></trkpt><trkpt lat="48.263099775048914" lon="11.59603349684216"><ele>476.0</ele><time>2026-03-27T09:22:20Z</time></trkpt><trkpt lat="48.2632532766893" lon="11.595962242388284"><ele>476.0</ele><time>2026-03-27T09:22:21Z</time></trkpt><trkpt lat="48.26340293950273" lon="11.5958905680937"><ele>476.3333333333333</ele><time>2026-03-27T09:22:22Z</time></trkpt><trkpt lat="48.263549467943044" lon="11.595820571659688"><ele>476.66666666666663</ele><time>2026-03-27T09:22:23Z</time></trkpt><trkpt lat="48.26369318802163" lon="11.595755821471291"><ele>477.0</ele><time>2026-03-27T09:22:24Z</time></trkpt><trkpt lat="48.26383325422678" lon="11.59569154157698"><ele>477.75</ele><time>2026-03-27T09:22:25Z</time></trkpt><trkpt lat="48.26396793533344" lon="11.595628881968262"><ele>478.5</ele><time>2026-03-27T09:22:26Z</time></trkpt><trkpt lat="48.26409101767793" lon="11.59557212553783"><ele>479.25</ele><time>2026-03-27T09:22:27Z</time></trkpt><trkpt lat="48.26419947477743" lon="11.595520831207965"><ele>480.0</ele><time>2026-03-27T09:22:27.999Z</time></trkpt><trkpt lat="48.26430499210565" lon="11.595476363218728"><ele>480.0</ele><time>2026-03-27T09:22:28.999Z</time></trkpt><trkpt lat="48.264406525991" lon="11.595449389884866"><ele>480.0</ele><time>2026-03-27T09:22:29.999Z</time></trkpt><trkpt lat="48.264506532472915" lon="11.595421039986118"><ele>480.0</ele><time>2026-03-27T09:22:30.998Z</time></trkpt><trkpt lat="48.2646006688423" lon="11.595376260095712"><ele>480.0</ele><time>2026-03-27T09:22:31.998Z</time></trkpt><trkpt lat="48.26469233760969" lon="11.595332121369992"><ele>480.0</ele><time>2026-03-27T09:22:32.998Z</time></trkpt><trkpt lat="48.26476886068144" lon="11.595294951152802"><ele>479.8</ele><time>2026-03-27T09:22:33.998Z</time></trkpt><trkpt lat="48.264834839158006" lon="11.59526536180324"><ele>479.6</ele><time>2026-03-27T09:22:34.998Z</time></trkpt><trkpt lat="48.264955532029305" lon="11.595244555873784"><ele>479.4</ele><time>2026-03-27T09:22:37Z</time></trkpt><trkpt lat="48.26506757529828" lon="11.5952626031749"><ele>479.2</ele><time>2026-03-27T09:22:39Z</time></trkpt><trkpt lat="48.26515925474996" lon="11.595329273904373"><ele>479.0</ele><time>2026-03-27T09:22:41Z</time></trkpt><trkpt lat="48.265236528478034" lon="11.595431754879597"><ele>479.0</ele><time>2026-03-27T09:22:43Z</time></trkpt><trkpt lat="48.26530213472748" lon="11.595549334635457"><ele>479.0</ele><time>2026-03-27T09:22:45Z</time></trkpt><trkpt lat="48.265367262955394" lon="11.595678042779872"><ele>479.0</ele><time>2026-03-27T09:22:47Z</time></trkpt><trkpt lat="48.26543951370452" lon="11.595820741926753"><ele>479.0</ele><time>2026-03-27T09:22:49Z</time></trkpt><trkpt lat="48.26550842333138" lon="11.595946835673521"><ele>479.0</ele><time>2026-03-27T09:22:51Z</time></trkpt><trkpt lat="48.26556203257913" lon="11.596040753146289"><ele>479.4</ele><time>2026-03-27T09:22:53Z</time></trkpt><trkpt lat="48.26562358071608" lon="11.596133713824846"><ele>479.79999999999995</ele><time>2026-03-27T09:22:56Z</time></trkpt><trkpt lat="48.265695130218944" lon="11.596232436134647"><ele>480.20000000000005</ele><time>2026-03-27T09:22:58Z</time></trkpt><trkpt lat="48.265787471067675" lon="11.596339603621667"><ele>480.6</ele><time>2026-03-27T09:23:00Z</time></trkpt><trkpt lat="48.26584528961007" lon="11.596402565998233"><ele>481.0</ele><time>2026-03-27T09:23:01Z</time></trkpt><trkpt lat="48.26591549377664" lon="11.596467999243345"><ele>481.0</ele><time>2026-03-27T09:23:02Z</time></trkpt><trkpt lat="48.26600080355923" lon="11.596526197914795"><ele>481.0</ele><time>2026-03-27T09:23:03Z</time></trkpt><trkpt lat="48.266103975972705" lon="11.596579875746574"><ele>481.0</ele><time>2026-03-27T09:23:04Z</time></trkpt><trkpt lat="48.26621060942533" lon="11.59663224571163"><ele>481.0</ele><time>2026-03-27T09:23:05Z</time></trkpt><trkpt lat="48.266320779316764" lon="11.596683450457881"><ele>481.0</ele><time>2026-03-27T09:23:06Z</time></trkpt><trkpt lat="48.266441225394644" lon="11.59672512844402"><ele>480.5</ele><time>2026-03-27T09:23:07Z</time></trkpt><trkpt lat="48.26657517909047" lon="11.596744279608743"><ele>480.0</ele><time>2026-03-27T09:23:08Z</time></trkpt><trkpt lat="48.26670860958179" lon="11.596750520089858"><ele>479.5</ele><time>2026-03-27T09:23:09Z</time></trkpt><trkpt lat="48.26684799237078" lon="11.596754925707403"><ele>479.0</ele><time>2026-03-27T09:23:10Z</time></trkpt><trkpt lat="48.266995120962505" lon="11.596752851940211"><ele>479.0</ele><time>2026-03-27T09:23:10.999Z</time></trkpt><trkpt lat="48.26716147687826" lon="11.596745857865677"><ele>479.0</ele><time>2026-03-27T09:23:11.999Z</time></trkpt><trkpt lat="48.26732146151757" lon="11.59675876202277"><ele>479.0</ele><time>2026-03-27T09:23:12.999Z</time></trkpt><trkpt lat="48.26747803482593" lon="11.596792040280922"><ele>479.0</ele><time>2026-03-27T09:23:13.999Z</time></trkpt><trkpt lat="48.26763049822128" lon="11.596853097067221"><ele>479.0</ele><time>2026-03-27T09:23:14.999Z</time></trkpt><trkpt lat="48.26778250319221" lon="11.596940848262815"><ele>479.0</ele><time>2026-03-27T09:23:15.999Z</time></trkpt><trkpt lat="48.26793379597272" lon="11.597054701697374"><ele>479.3333333333333</ele><time>2026-03-27T09:23:16.999Z</time></trkpt><trkpt lat="48.26808800861859" lon="11.597189153339073"><ele>479.66666666666663</ele><time>2026-03-27T09:23:17.999Z</time></trkpt><trkpt lat="48.2682486946305" lon="11.597326561328575"><ele>480.0</ele><time>2026-03-27T09:23:18.999Z</time></trkpt><trkpt lat="48.26841681667052" lon="11.597474497229749"><ele>480.66666666666663</ele><time>2026-03-27T09:23:19.999Z</time></trkpt><trkpt lat="48.26859060871244" lon="11.597631490781202"><ele>481.3333333333333</ele><time>2026-03-27T09:23:20.999Z</time></trkpt><trkpt lat="48.26877133887533" lon="11.597792717915452"><ele>482.0</ele><time>2026-03-27T09:23:21.999Z</time></trkpt><trkpt lat="48.26895864374583" lon="11.597960444612493"><ele>482.0</ele><time>2026-03-27T09:23:22.999Z</time></trkpt><trkpt lat="48.26915550614342" lon="11.59813395074262"><ele>482.0</ele><time>2026-03-27T09:23:23.999Z</time></trkpt><trkpt lat="48.269359531039846" lon="11.59831180774722"><ele>482.0</ele><time>2026-03-27T09:23:24.999Z</time></trkpt><trkpt lat="48.269555182888375" lon="11.59848435863746"><ele>482.0</ele><time>2026-03-27T09:23:25.999Z</time></trkpt><trkpt lat="48.269745985381654" lon="11.5986507557564"><ele>482.0</ele><time>2026-03-27T09:23:26.999Z</time></trkpt><trkpt lat="48.26993275611296" lon="11.59881501382628"><ele>483.0</ele><time>2026-03-27T09:23:27.999Z</time></trkpt><trkpt lat="48.27012575288303" lon="11.598985313398483"><ele>484.0</ele><time>2026-03-27T09:23:28.999Z</time></trkpt><trkpt lat="48.270326510775845" lon="11.599160240549546"><ele>484.0</ele><time>2026-03-27T09:23:29.999Z</time></trkpt><trkpt lat="48.270540809167564" lon="11.599343919393194"><ele>484.0</ele><time>2026-03-27T09:23:30.999Z</time></trkpt><trkpt lat="48.270754120217894" lon="11.599531652051631"><ele>483.5</ele><time>2026-03-27T09:23:31.999Z</time></trkpt><trkpt lat="48.270962464550024" lon="11.599714473311773"><ele>483.0</ele><time>2026-03-27T09:23:32.999Z</time></trkpt><trkpt lat="48.27115809979279" lon="11.599890076506602"><ele>483.0</ele><time>2026-03-27T09:23:33.999Z</time></trkpt><trkpt lat="48.27135054368395" lon="11.600059818562963"><ele>483.0</ele><time>2026-03-27T09:23:34.999Z</time></trkpt><trkpt lat="48.27154857089701" lon="11.600228018277447"><ele>480.5</ele><time>2026-03-27T09:23:35.999Z</time></trkpt><trkpt lat="48.271755302094526" lon="11.600406987418287"><ele>478.0</ele><time>2026-03-27T09:23:36.999Z</time></trkpt><trkpt lat="48.271967757330785" lon="11.60059534128992"><ele>478.0</ele><time>2026-03-27T09:23:37.999Z</time></trkpt><trkpt lat="48.27218115983832" lon="11.600782871459636"><ele>478.0</ele><time>2026-03-27T09:23:38.999Z</time></trkpt><trkpt lat="48.27239426785475" lon="11.600967442214504"><ele>479.5</ele><time>2026-03-27T09:23:39.999Z</time></trkpt><trkpt lat="48.27259993011339" lon="11.601147465422146"><ele>481.0</ele><time>2026-03-27T09:23:40.999Z</time></trkpt><trkpt lat="48.2727998714039" lon="11.601323916730845"><ele>481.0</ele><time>2026-03-27T09:23:41.999Z</time></trkpt><trkpt lat="48.272999778488796" lon="11.60149831736037"><ele>481.0</ele><time>2026-03-27T09:23:42.999Z</time></trkpt><trkpt lat="48.2732028176236" lon="11.601676965177717"><ele>481.0</ele><time>2026-03-27T09:23:43.999Z</time></trkpt><trkpt lat="48.27340573931789" lon="11.601856340390777"><ele>481.0</ele><time>2026-03-27T09:23:44.999Z</time></trkpt><trkpt lat="48.27360572610677" lon="11.60203092919741"><ele>481.0</ele><time>2026-03-27T09:23:45.999Z</time></trkpt><trkpt lat="48.27380167517303" lon="11.602202910210782"><ele>481.0</ele><time>2026-03-27T09:23:46.999Z</time></trkpt><trkpt lat="48.27399429300778" lon="11.602369224032731"><ele>481.0</ele><time>2026-03-27T09:23:47.999Z</time></trkpt><trkpt lat="48.27418148066008" lon="11.602528288574677"><ele>480.33333333333337</ele><time>2026-03-27T09:23:48.999Z</time></trkpt><trkpt lat="48.274367254222234" lon="11.602693106458512"><ele>479.66666666666663</ele><time>2026-03-27T09:23:49.999Z</time></trkpt><trkpt lat="48.27455416373106" lon="11.602853572082253"><ele>479.0</ele><time>2026-03-27T09:23:50.999Z</time></trkpt><trkpt lat="48.27473847146236" lon="11.60301649663983"><ele>477.66666666666663</ele><time>2026-03-27T09:23:51.999Z</time></trkpt><trkpt lat="48.27492630082135" lon="11.603182009055756"><ele>476.33333333333337</ele><time>2026-03-27T09:23:52.999Z</time></trkpt><trkpt lat="48.275120545009074" lon="11.603348011321382"><ele>475.0</ele><time>2026-03-27T09:23:53.999Z</time></trkpt><trkpt lat="48.27531724599237" lon="11.603517134285193"><ele>475.33333333333337</ele><time>2026-03-27T09:23:54.999Z</time></trkpt><trkpt lat="48.275505487101285" lon="11.603680465639533"><ele>475.66666666666663</ele><time>2026-03-27T09:23:55.999Z</time></trkpt><trkpt lat="48.27568623182447" lon="11.603837652675026"><ele>476.0</ele><time>2026-03-27T09:23:56.999Z</time></trkpt><trkpt lat="48.27586206843961" lon="11.603992530731317"><ele>476.0</ele><time>2026-03-27T09:23:57.999Z</time></trkpt><trkpt lat="48.27603667701069" lon="11.60414914731057"><ele>476.0</ele><time>2026-03-27T09:23:58.999Z</time></trkpt><trkpt lat="48.27621853940716" lon="11.604309976743973"><ele>476.0</ele><time>2026-03-27T09:23:59.999Z</time></trkpt><trkpt lat="48.276406373997844" lon="11.604474606529552"><ele>475.66666666666663</ele><time>2026-03-27T09:24:00.999Z</time></trkpt><trkpt lat="48.276600853782" lon="11.604644306940711"><ele>475.33333333333337</ele><time>2026-03-27T09:24:01.999Z</time></trkpt><trkpt lat="48.276793117051156" lon="11.604813633642172"><ele>475.0</ele><time>2026-03-27T09:24:02.999Z</time></trkpt><trkpt lat="48.276985488799" lon="11.604984009459638"><ele>475.0</ele><time>2026-03-27T09:24:03.999Z</time></trkpt><trkpt lat="48.27717731141463" lon="11.605151927579927"><ele>475.0</ele><time>2026-03-27T09:24:04.999Z</time></trkpt><trkpt lat="48.277370779663876" lon="11.605317456223453"><ele>475.0</ele><time>2026-03-27T09:24:05.999Z</time></trkpt><trkpt lat="48.27756232228483" lon="11.605484929508789"><ele>475.33333333333337</ele><time>2026-03-27T09:24:06.999Z</time></trkpt><trkpt lat="48.277751911726156" lon="11.605651341478724"><ele>475.66666666666663</ele><time>2026-03-27T09:24:07.999Z</time></trkpt><trkpt lat="48.27793980145218" lon="11.605814811697138"><ele>476.0</ele><time>2026-03-27T09:24:08.999Z</time></trkpt><trkpt lat="48.27812659548818" lon="11.605980013559781"><ele>476.3333333333333</ele><time>2026-03-27T09:24:09.999Z</time></trkpt><trkpt lat="48.278300339027574" lon="11.606134418289608"><ele>476.66666666666663</ele><time>2026-03-27T09:24:10.999Z</time></trkpt><trkpt lat="48.27846222856583" lon="11.606272919270259"><ele>477.0</ele><time>2026-03-27T09:24:11.999Z</time></trkpt><trkpt lat="48.27861421502841" lon="11.606410544792837"><ele>477.0</ele><time>2026-03-27T09:24:12.999Z</time></trkpt><trkpt lat="48.27876564732053" lon="11.606541524036968"><ele>477.0</ele><time>2026-03-27T09:24:13.999Z</time></trkpt><trkpt lat="48.27891984499772" lon="11.606676020402938"><ele>477.0</ele><time>2026-03-27T09:24:14.999Z</time></trkpt><trkpt lat="48.27907431344248" lon="11.606811541469563"><ele>477.0</ele><time>2026-03-27T09:24:15.999Z</time></trkpt><trkpt lat="48.27923071180648" lon="11.606947630354155"><ele>477.0</ele><time>2026-03-27T09:24:16.999Z</time></trkpt><trkpt lat="48.27938666335241" lon="11.607086814436244"><ele>477.0</ele><time>2026-03-27T09:24:17.999Z</time></trkpt><trkpt lat="48.279538384643764" lon="11.607221122165283"><ele>477.0</ele><time>2026-03-27T09:24:18.999Z</time></trkpt><trkpt lat="48.2796846857538" lon="11.607348269611306"><ele>477.0</ele><time>2026-03-27T09:24:19.999Z</time></trkpt><trkpt lat="48.27982931043258" lon="11.607472261238321"><ele>477.0</ele><time>2026-03-27T09:24:20.999Z</time></trkpt><trkpt lat="48.279973004438624" lon="11.60759501516726"><ele>476.0</ele><time>2026-03-27T09:24:21.999Z</time></trkpt><trkpt lat="48.280109348672525" lon="11.607709311956734"><ele>475.0</ele><time>2026-03-27T09:24:22.999Z</time></trkpt><trkpt lat="48.28024731285974" lon="11.607828903597147"><ele>474.0</ele><time>2026-03-27T09:24:23.999Z</time></trkpt><trkpt lat="48.28039235557039" lon="11.607957599344983"><ele>474.0</ele><time>2026-03-27T09:24:24.999Z</time></trkpt><trkpt lat="48.28054749833344" lon="11.60809452495408"><ele>474.0</ele><time>2026-03-27T09:24:25.999Z</time></trkpt><trkpt lat="48.28070122010732" lon="11.608230846281598"><ele>474.0</ele><time>2026-03-27T09:24:26.999Z</time></trkpt><trkpt lat="48.28084625527637" lon="11.60835885688002"><ele>473.66666666666663</ele><time>2026-03-27T09:24:27.999Z</time></trkpt><trkpt lat="48.280992611047665" lon="11.60848889440526"><ele>473.3333333333333</ele><time>2026-03-27T09:24:28.999Z</time></trkpt><trkpt lat="48.28114825784164" lon="11.60862392819097"><ele>473.0</ele><time>2026-03-27T09:24:29.999Z</time></trkpt><trkpt lat="48.281311318156355" lon="11.608763317399662"><ele>472.3333333333333</ele><time>2026-03-27T09:24:30.999Z</time></trkpt><trkpt lat="48.281462425681624" lon="11.60890148586138"><ele>471.66666666666663</ele><time>2026-03-27T09:24:31.999Z</time></trkpt><trkpt lat="48.28161256870721" lon="11.609036258069656"><ele>471.0</ele><time>2026-03-27T09:24:32.999Z</time></trkpt><trkpt lat="48.28176488938023" lon="11.609166950914878"><ele>471.0</ele><time>2026-03-27T09:24:33.999Z</time></trkpt><trkpt lat="48.28191956893237" lon="11.609298933273045"><ele>471.0</ele><time>2026-03-27T09:24:34.999Z</time></trkpt><trkpt lat="48.28207361278926" lon="11.609434839998038"><ele>471.0</ele><time>2026-03-27T09:24:35.999Z</time></trkpt><trkpt lat="48.282229853957105" lon="11.609568298630002"><ele>471.66666666666663</ele><time>2026-03-27T09:24:36.999Z</time></trkpt><trkpt lat="48.28238521306263" lon="11.609704059517071"><ele>472.3333333333333</ele><time>2026-03-27T09:24:37.999Z</time></trkpt><trkpt lat="48.282540165997" lon="11.609841378256428"><ele>473.0</ele><time>2026-03-27T09:24:38.999Z</time></trkpt><trkpt lat="48.28269677530657" lon="11.609980317501504"><ele>473.0</ele><time>2026-03-27T09:24:39.999Z</time></trkpt><trkpt lat="48.28285677921557" lon="11.610119779424206"><ele>473.0</ele><time>2026-03-27T09:24:40.999Z</time></trkpt><trkpt lat="48.28302262057479" lon="11.610262828370617"><ele>473.0</ele><time>2026-03-27T09:24:41.998Z</time></trkpt><trkpt lat="48.28319065008106" lon="11.610409276079181"><ele>472.3333333333333</ele><time>2026-03-27T09:24:43Z</time></trkpt><trkpt lat="48.28335874200381" lon="11.610556624140033"><ele>471.66666666666663</ele><time>2026-03-27T09:24:44Z</time></trkpt><trkpt lat="48.283521481552874" lon="11.610699452000247"><ele>471.0</ele><time>2026-03-27T09:24:45Z</time></trkpt><trkpt lat="48.283675966184695" lon="11.610835984514503"><ele>471.0</ele><time>2026-03-27T09:24:46Z</time></trkpt><trkpt lat="48.283829281861294" lon="11.610970689603786"><ele>471.0</ele><time>2026-03-27T09:24:47Z</time></trkpt><trkpt lat="48.28398304233646" lon="11.611104037056027"><ele>471.0</ele><time>2026-03-27T09:24:48Z</time></trkpt><trkpt lat="48.284137475616454" lon="11.611240144707832"><ele>470.66666666666663</ele><time>2026-03-27T09:24:49Z</time></trkpt><trkpt lat="48.28429504492331" lon="11.611375852336423"><ele>470.3333333333333</ele><time>2026-03-27T09:24:50Z</time></trkpt><trkpt lat="48.28445277299066" lon="11.611512303672473"><ele>470.0</ele><time>2026-03-27T09:24:51Z</time></trkpt><trkpt lat="48.28460084599765" lon="11.611641517117597"><ele>470.0</ele><time>2026-03-27T09:24:52Z</time></trkpt><trkpt lat="48.28474766535966" lon="11.611770388161506"><ele>470.0</ele><time>2026-03-27T09:24:53Z</time></trkpt><trkpt lat="48.28489707116029" lon="11.611901565049466"><ele>470.0</ele><time>2026-03-27T09:24:54Z</time></trkpt><trkpt lat="48.285051864337206" lon="11.612035059126466"><ele>470.66666666666663</ele><time>2026-03-27T09:24:55Z</time></trkpt><trkpt lat="48.285212801069726" lon="11.612174323001193"><ele>471.33333333333337</ele><time>2026-03-27T09:24:56Z</time></trkpt><trkpt lat="48.2853765560543" lon="11.61231888894035"><ele>472.0</ele><time>2026-03-27T09:24:57Z</time></trkpt><trkpt lat="48.28553551947142" lon="11.61245973346765"><ele>472.0</ele><time>2026-03-27T09:24:58Z</time></trkpt><trkpt lat="48.28569072413143" lon="11.61259783870218"><ele>472.0</ele><time>2026-03-27T09:24:59Z</time></trkpt><trkpt lat="48.28584282349281" lon="11.612733131410119"><ele>472.0</ele><time>2026-03-27T09:25:00Z</time></trkpt><trkpt lat="48.28599398824962" lon="11.612863520466584"><ele>471.6666666666667</ele><time>2026-03-27T09:25:01Z</time></trkpt><trkpt lat="48.28614662038312" lon="11.612998642469366"><ele>471.33333333333337</ele><time>2026-03-27T09:25:02Z</time></trkpt><trkpt lat="48.2863041719762" lon="11.613131259233684"><ele>471.0</ele><time>2026-03-27T09:25:03Z</time></trkpt><trkpt lat="48.286465865744724" lon="11.613266556073631"><ele>470.33333333333337</ele><time>2026-03-27T09:25:04Z</time></trkpt><trkpt lat="48.28663332099818" lon="11.613398254217437"><ele>469.6666666666667</ele><time>2026-03-27T09:25:05Z</time></trkpt><trkpt lat="48.28680252917144" lon="11.613526429101029"><ele>469.0</ele><time>2026-03-27T09:25:06Z</time></trkpt><trkpt lat="48.2869742174919" lon="11.61364355376993"><ele>468.6666666666667</ele><time>2026-03-27T09:25:07Z</time></trkpt><trkpt lat="48.287143392706696" lon="11.613760719670575"><ele>468.33333333333337</ele><time>2026-03-27T09:25:08Z</time></trkpt><trkpt lat="48.28730522592768" lon="11.613865001229154"><ele>468.0</ele><time>2026-03-27T09:25:09Z</time></trkpt><trkpt lat="48.2874602569014" lon="11.613969113453056"><ele>468.0</ele><time>2026-03-27T09:25:10Z</time></trkpt><trkpt lat="48.287620005762406" lon="11.614071909351821"><ele>468.0</ele><time>2026-03-27T09:25:11Z</time></trkpt><trkpt lat="48.2877843297863" lon="11.614175245484669"><ele>468.0</ele><time>2026-03-27T09:25:12Z</time></trkpt><trkpt lat="48.28795027076029" lon="11.614284123372753"><ele>468.0</ele><time>2026-03-27T09:25:13Z</time></trkpt><trkpt lat="48.28811676798671" lon="11.614394110304254"><ele>468.0</ele><time>2026-03-27T09:25:14Z</time></trkpt><trkpt lat="48.288277013893" lon="11.614496933172962"><ele>468.0</ele><time>2026-03-27T09:25:15Z</time></trkpt><trkpt lat="48.28843234004209" lon="11.614601409693336"><ele>468.33333333333337</ele><time>2026-03-27T09:25:16Z</time></trkpt><trkpt lat="48.288586087531456" lon="11.614700820612297"><ele>468.6666666666667</ele><time>2026-03-27T09:25:17Z</time></trkpt><trkpt lat="48.2887370153976" lon="11.614800054076339"><ele>469.0</ele><time>2026-03-27T09:25:18Z</time></trkpt><trkpt lat="48.28888678146849" lon="11.61490064733186"><ele>468.6666666666667</ele><time>2026-03-27T09:25:19Z</time></trkpt><trkpt lat="48.28903427293022" lon="11.614994419262471"><ele>468.33333333333337</ele><time>2026-03-27T09:25:19.999Z</time></trkpt><trkpt lat="48.28917394015623" lon="11.615086614900383"><ele>468.0</ele><time>2026-03-27T09:25:20.999Z</time></trkpt><trkpt lat="48.28930399285219" lon="11.615172187118851"><ele>468.0</ele><time>2026-03-27T09:25:21.999Z</time></trkpt><trkpt lat="48.289421093565544" lon="11.615247542018725"><ele>468.0</ele><time>2026-03-27T09:25:22.999Z</time></trkpt><trkpt lat="48.28953535264319" lon="11.615323079964806"><ele>468.0</ele><time>2026-03-27T09:25:23.999Z</time></trkpt><trkpt lat="48.28965225296405" lon="11.615399435995805"><ele>468.0</ele><time>2026-03-27T09:25:24.999Z</time></trkpt><trkpt lat="48.289774116711975" lon="11.615477153317293"><ele>468.0</ele><time>2026-03-27T09:25:25.999Z</time></trkpt><trkpt lat="48.289893566854026" lon="11.6155559593423"><ele>468.0</ele><time>2026-03-27T09:25:26.999Z</time></trkpt><trkpt lat="48.29001024425665" lon="11.615630115872275"><ele>468.0</ele><time>2026-03-27T09:25:27.999Z</time></trkpt><trkpt lat="48.29012715642876" lon="11.615707846293429"><ele>468.0</ele><time>2026-03-27T09:25:28.999Z</time></trkpt><trkpt lat="48.290244282946624" lon="11.615787223721213"><ele>468.0</ele><time>2026-03-27T09:25:29.999Z</time></trkpt><trkpt lat="48.29036280013573" lon="11.615863525054792"><ele>468.0</ele><time>2026-03-27T09:25:30.999Z</time></trkpt><trkpt lat="48.290482787728024" lon="11.615941983807664"><ele>468.0</ele><time>2026-03-27T09:25:31.999Z</time></trkpt><trkpt lat="48.290600164223825" lon="11.616019655879903"><ele>468.0</ele><time>2026-03-27T09:25:32.999Z</time></trkpt><trkpt lat="48.290714411849336" lon="11.61609644390451"><ele>467.79999999999995</ele><time>2026-03-27T09:25:33.999Z</time></trkpt><trkpt lat="48.29082072585891" lon="11.616167411847908"><ele>467.59999999999997</ele><time>2026-03-27T09:25:34.999Z</time></trkpt><trkpt lat="48.290920352966516" lon="11.616235095194082"><ele>467.40000000000003</ele><time>2026-03-27T09:25:35.999Z</time></trkpt><trkpt lat="48.29101426805496" lon="11.616300254199961"><ele>467.20000000000005</ele><time>2026-03-27T09:25:36.999Z</time></trkpt><trkpt lat="48.291106359279105" lon="11.616364633224173"><ele>467.0</ele><time>2026-03-27T09:25:37.999Z</time></trkpt><trkpt lat="48.29119864577145" lon="11.6164332905891"><ele>467.0</ele><time>2026-03-27T09:25:38.999Z</time></trkpt><trkpt lat="48.29129514068038" lon="11.61649856928031"><ele>467.00000000000006</ele><time>2026-03-27T09:25:39.999Z</time></trkpt><trkpt lat="48.291392554356115" lon="11.616566900632503"><ele>467.00000000000006</ele><time>2026-03-27T09:25:40.999Z</time></trkpt><trkpt lat="48.29149383164156" lon="11.616632273928548"><ele>467.0</ele><time>2026-03-27T09:25:41.999Z</time></trkpt><trkpt lat="48.29159589119085" lon="11.616693552236102"><ele>467.0</ele><time>2026-03-27T09:25:42.999Z</time></trkpt><trkpt lat="48.29169779425811" lon="11.61675205383563"><ele>467.6</ele><time>2026-03-27T09:25:43.999Z</time></trkpt><trkpt lat="48.291799859682534" lon="11.616811808633974"><ele>468.20000000000005</ele><time>2026-03-27T09:25:44.999Z</time></trkpt><trkpt lat="48.291901176461536" lon="11.61687377024737"><ele>468.8</ele><time>2026-03-27T09:25:45.999Z</time></trkpt><trkpt lat="48.29200181904653" lon="11.616935808591366"><ele>469.4</ele><time>2026-03-27T09:25:46.999Z</time></trkpt><trkpt lat="48.29210190745059" lon="11.617000947573478"><ele>470.0</ele><time>2026-03-27T09:25:47.999Z</time></trkpt><trkpt lat="48.29219605752919" lon="11.617062317297792"><ele>470.0</ele><time>2026-03-27T09:25:48.999Z</time></trkpt><trkpt lat="48.29228418125307" lon="11.617121983365378"><ele>470.0</ele><time>2026-03-27T09:25:49.999Z</time></trkpt><trkpt lat="48.2923716929242" lon="11.61717907701982"><ele>470.0</ele><time>2026-03-27T09:25:50.999Z</time></trkpt><trkpt lat="48.29245990596567" lon="11.617237642371304"><ele>470.0</ele><time>2026-03-27T09:25:51.999Z</time></trkpt><trkpt lat="48.29256468934596" lon="11.61730489139592"><ele>470.0</ele><time>2026-03-27T09:25:52.999Z</time></trkpt><trkpt lat="48.2926601397146" lon="11.617368002294167"><ele>470.0</ele><time>2026-03-27T09:25:53.999Z</time></trkpt><trkpt lat="48.292752160814565" lon="11.617436243712662"><ele>470.0</ele><time>2026-03-27T09:25:54.999Z</time></trkpt><trkpt lat="48.29284290900442" lon="11.617504109388227"><ele>470.0</ele><time>2026-03-27T09:25:55.999Z</time></trkpt><trkpt lat="48.29293448093198" lon="11.617570623139217"><ele>470.0</ele><time>2026-03-27T09:25:56.999Z</time></trkpt><trkpt lat="48.293028400295796" lon="11.617631596813638"><ele>470.0</ele><time>2026-03-27T09:25:57.999Z</time></trkpt><trkpt lat="48.2931205747613" lon="11.617707404563074"><ele>469.8</ele><time>2026-03-27T09:25:58.999Z</time></trkpt><trkpt lat="48.29321722321571" lon="11.617789284067696"><ele>469.6</ele><time>2026-03-27T09:25:59.999Z</time></trkpt><trkpt lat="48.29331182034085" lon="11.617874434998198"><ele>469.4</ele><time>2026-03-27T09:26:00.999Z</time></trkpt><trkpt lat="48.29339942404696" lon="11.617955845829844"><ele>469.2</ele><time>2026-03-27T09:26:01.999Z</time></trkpt><trkpt lat="48.293484634863724" lon="11.618036243063674"><ele>469.0</ele><time>2026-03-27T09:26:02.999Z</time></trkpt><trkpt lat="48.293572887610836" lon="11.618117941003096"><ele>469.0</ele><time>2026-03-27T09:26:03.999Z</time></trkpt><trkpt lat="48.29366224024178" lon="11.618200258762366"><ele>469.0</ele><time>2026-03-27T09:26:04.999Z</time></trkpt><trkpt lat="48.293754935325204" lon="11.618288805766365"><ele>469.0</ele><time>2026-03-27T09:26:05.999Z</time></trkpt><trkpt lat="48.29385101694348" lon="11.61838138537175"><ele>469.0</ele><time>2026-03-27T09:26:06.999Z</time></trkpt><trkpt lat="48.29394908842481" lon="11.618472359275282"><ele>469.0</ele><time>2026-03-27T09:26:07.999Z</time></trkpt><trkpt lat="48.29404485916795" lon="11.618558287070154"><ele>468.79999999999995</ele><time>2026-03-27T09:26:08.999Z</time></trkpt><trkpt lat="48.294134206628854" lon="11.618641620027793"><ele>468.59999999999997</ele><time>2026-03-27T09:26:09.999Z</time></trkpt><trkpt lat="48.29422033571817" lon="11.618730575580786"><ele>468.4</ele><time>2026-03-27T09:26:10.999Z</time></trkpt><trkpt lat="48.29431029853152" lon="11.618828706563045"><ele>468.2</ele><time>2026-03-27T09:26:11.999Z</time></trkpt><trkpt lat="48.294406577893476" lon="11.618923126774051"><ele>468.0</ele><time>2026-03-27T09:26:12.999Z</time></trkpt><trkpt lat="48.29450866878666" lon="11.619012118696721"><ele>468.0</ele><time>2026-03-27T09:26:13.999Z</time></trkpt><trkpt lat="48.2946109527916" lon="11.619105471845575"><ele>468.0</ele><time>2026-03-27T09:26:14.999Z</time></trkpt><trkpt lat="48.294710103653834" lon="11.61919830026807"><ele>468.0</ele><time>2026-03-27T09:26:15.999Z</time></trkpt><trkpt lat="48.29480860349969" lon="11.619290763977963"><ele>468.0</ele><time>2026-03-27T09:26:16.999Z</time></trkpt><trkpt lat="48.294909752585056" lon="11.619385379102452"><ele>468.0</ele><time>2026-03-27T09:26:17.999Z</time></trkpt><trkpt lat="48.29501268985694" lon="11.61948387385266"><ele>468.0</ele><time>2026-03-27T09:26:18.999Z</time></trkpt><trkpt lat="48.295112565536876" lon="11.619585211999263"><ele>468.0</ele><time>2026-03-27T09:26:19.999Z</time></trkpt><trkpt lat="48.29521120318378" lon="11.619685799090476"><ele>468.0</ele><time>2026-03-27T09:26:20.999Z</time></trkpt><trkpt lat="48.29530861957073" lon="11.619784596471279"><ele>468.0</ele><time>2026-03-27T09:26:21.999Z</time></trkpt><trkpt lat="48.29540440808482" lon="11.619878357348295"><ele>467.99999999999994</ele><time>2026-03-27T09:26:22.999Z</time></trkpt><trkpt lat="48.29548869257474" lon="11.619960568460103"><ele>467.99999999999994</ele><time>2026-03-27T09:26:23.999Z</time></trkpt><trkpt lat="48.29557201982577" lon="11.620038701135925"><ele>468.0</ele><time>2026-03-27T09:26:24.999Z</time></trkpt><trkpt lat="48.295654740914365" lon="11.620119086455322"><ele>468.0</ele><time>2026-03-27T09:26:25.999Z</time></trkpt><trkpt lat="48.29573807188267" lon="11.620198451086125"><ele>468.0</ele><time>2026-03-27T09:26:26.999Z</time></trkpt><trkpt lat="48.29582160977809" lon="11.62027638130161"><ele>468.0</ele><time>2026-03-27T09:26:27.999Z</time></trkpt><trkpt lat="48.29589951751498" lon="11.620348186767373"><ele>468.0</ele><time>2026-03-27T09:26:28.999Z</time></trkpt><trkpt lat="48.29597045207896" lon="11.62041509401347"><ele>468.0</ele><time>2026-03-27T09:26:29.999Z</time></trkpt><trkpt lat="48.2960399674922" lon="11.620478592338385"><ele>468.0</ele><time>2026-03-27T09:26:30.999Z</time></trkpt><trkpt lat="48.296102627912866" lon="11.62053588232359"><ele>468.0</ele><time>2026-03-27T09:26:31.999Z</time></trkpt><trkpt lat="48.29616379937619" lon="11.620590765188588"><ele>468.0</ele><time>2026-03-27T09:26:32.999Z</time></trkpt><trkpt lat="48.29622140343366" lon="11.620647197809559"><ele>468.00000000000006</ele><time>2026-03-27T09:26:33.999Z</time></trkpt><trkpt lat="48.296277924774344" lon="11.620703364077716"><ele>468.0</ele><time>2026-03-27T09:26:34.999Z</time></trkpt><trkpt lat="48.29633127816712" lon="11.62075805995348"><ele>468.0</ele><time>2026-03-27T09:26:35.999Z</time></trkpt><trkpt lat="48.29638425882986" lon="11.620811704391958"><ele>468.00000000000006</ele><time>2026-03-27T09:26:36.999Z</time></trkpt><trkpt lat="48.29643716638403" lon="11.620873152721115"><ele>468.0</ele><time>2026-03-27T09:26:37.999Z</time></trkpt><trkpt lat="48.296492221239895" lon="11.620939765706924"><ele>468.0</ele><time>2026-03-27T09:26:38.999Z</time></trkpt><trkpt lat="48.29654325608549" lon="11.621008510504206"><ele>468.14285714285717</ele><time>2026-03-27T09:26:39.999Z</time></trkpt><trkpt lat="48.29659467959841" lon="11.621084227303927"><ele>468.28571428571433</ele><time>2026-03-27T09:26:40.999Z</time></trkpt><trkpt lat="48.29664069193591" lon="11.621169659583915"><ele>468.42857142857144</ele><time>2026-03-27T09:26:41.999Z</time></trkpt><trkpt lat="48.296684921378834" lon="11.621260598406266"><ele>468.57142857142856</ele><time>2026-03-27T09:26:42.999Z</time></trkpt><trkpt lat="48.29672557327876" lon="11.621353392549237"><ele>468.7142857142857</ele><time>2026-03-27T09:26:43.999Z</time></trkpt><trkpt lat="48.29676270132115" lon="11.62145251251711"><ele>468.8571428571429</ele><time>2026-03-27T09:26:44.999Z</time></trkpt><trkpt lat="48.296797353569886" lon="11.62155619950386"><ele>469.0</ele><time>2026-03-27T09:26:45.999Z</time></trkpt><trkpt lat="48.29683180551894" lon="11.621663882441778"><ele>469.00000000000006</ele><time>2026-03-27T09:26:46.999Z</time></trkpt><trkpt lat="48.29686336098793" lon="11.621770341808615"><ele>469.0</ele><time>2026-03-27T09:26:47.998Z</time></trkpt><trkpt lat="48.29689382097384" lon="11.621870749643607"><ele>469.0</ele><time>2026-03-27T09:26:49Z</time></trkpt><trkpt lat="48.296923502282205" lon="11.621969569423952"><ele>469.0</ele><time>2026-03-27T09:26:50Z</time></trkpt><trkpt lat="48.29695093740853" lon="11.622068304979459"><ele>469.00000000000006</ele><time>2026-03-27T09:26:51Z</time></trkpt><trkpt lat="48.296980828438976" lon="11.622176349971115"><ele>469.0</ele><time>2026-03-27T09:26:52Z</time></trkpt><trkpt lat="48.29701952889297" lon="11.622313589273434"><ele>469.00000000000006</ele><time>2026-03-27T09:26:53Z</time></trkpt><trkpt lat="48.297052966889915" lon="11.622431029211452"><ele>469.0</ele><time>2026-03-27T09:26:54Z</time></trkpt><trkpt lat="48.297083753178946" lon="11.62254457943329"><ele>469.0</ele><time>2026-03-27T09:26:55Z</time></trkpt><trkpt lat="48.29711338528629" lon="11.622656280391856"><ele>469.0</ele><time>2026-03-27T09:26:56Z</time></trkpt><trkpt lat="48.29714417704913" lon="11.622767068164697"><ele>469.00000000000006</ele><time>2026-03-27T09:26:57Z</time></trkpt><trkpt lat="48.29717717345857" lon="11.62288395228815"><ele>469.0</ele><time>2026-03-27T09:26:58Z</time></trkpt><trkpt lat="48.29721550636817" lon="11.623002048626322"><ele>469.0</ele><time>2026-03-27T09:26:59Z</time></trkpt><trkpt lat="48.297253081229144" lon="11.62311860673167"><ele>469.0</ele><time>2026-03-27T09:27:00Z</time></trkpt><trkpt lat="48.29728563405316" lon="11.623221026994978"><ele>469.0</ele><time>2026-03-27T09:27:01Z</time></trkpt><trkpt lat="48.297311253770204" lon="11.623316591120952"><ele>469.0</ele><time>2026-03-27T09:27:02Z</time></trkpt><trkpt lat="48.297363298575846" lon="11.623479850830991"><ele>469.0</ele><time>2026-03-27T09:27:04Z</time></trkpt><trkpt lat="48.29741205135828" lon="11.623639724808195"><ele>469.0</ele><time>2026-03-27T09:27:06Z</time></trkpt><trkpt lat="48.29744053817919" lon="11.623728569256533"><ele>469.0</ele><time>2026-03-27T09:27:07Z</time></trkpt><trkpt lat="48.29747327575586" lon="11.623827030658154"><ele>469.0</ele><time>2026-03-27T09:27:08Z</time></trkpt><trkpt lat="48.2975083452834" lon="11.623931549361501"><ele>469.0</ele><time>2026-03-27T09:27:09Z</time></trkpt><trkpt lat="48.29754101868704" lon="11.624035259261081"><ele>469.0</ele><time>2026-03-27T09:27:10Z</time></trkpt><trkpt lat="48.29757047396593" lon="11.624129507691695"><ele>469.0</ele><time>2026-03-27T09:27:11Z</time></trkpt><trkpt lat="48.29759689348129" lon="11.624219553693155"><ele>469.0</ele><time>2026-03-27T09:27:12Z</time></trkpt><trkpt lat="48.2976264045416" lon="11.624305970495453"><ele>469.0</ele><time>2026-03-27T09:27:13Z</time></trkpt><trkpt lat="48.29765849033022" lon="11.624390096702898"><ele>469.0</ele><time>2026-03-27T09:27:14Z</time></trkpt><trkpt lat="48.297687988540176" lon="11.624477516466582"><ele>469.0</ele><time>2026-03-27T09:27:15Z</time></trkpt><trkpt lat="48.29771779321999" lon="11.624566077963925"><ele>469.0</ele><time>2026-03-27T09:27:16Z</time></trkpt><trkpt lat="48.29775137260474" lon="11.62465443629683"><ele>469.0</ele><time>2026-03-27T09:27:17Z</time></trkpt><trkpt lat="48.29779002416263" lon="11.624749487696935"><ele>469.0</ele><time>2026-03-27T09:27:18Z</time></trkpt><trkpt lat="48.29783147228175" lon="11.624850181863849"><ele>469.0</ele><time>2026-03-27T09:27:19Z</time></trkpt><trkpt lat="48.297871604957415" lon="11.624955010503458"><ele>468.8571428571429</ele><time>2026-03-27T09:27:20Z</time></trkpt><trkpt lat="48.29790925883041" lon="11.625048995947896"><ele>468.7142857142857</ele><time>2026-03-27T09:27:21Z</time></trkpt><trkpt lat="48.297946249385184" lon="11.625137358951633"><ele>468.57142857142856</ele><time>2026-03-27T09:27:22Z</time></trkpt><trkpt lat="48.29798013517288" lon="11.625222860098921"><ele>468.42857142857144</ele><time>2026-03-27T09:27:23Z</time></trkpt><trkpt lat="48.2980133330005" lon="11.625303481179476"><ele>468.28571428571433</ele><time>2026-03-27T09:27:24Z</time></trkpt><trkpt lat="48.29805063186338" lon="11.625384011795289"><ele>468.14285714285717</ele><time>2026-03-27T09:27:25Z</time></trkpt><trkpt lat="48.298088708317806" lon="11.625465180636558"><ele>468.0</ele><time>2026-03-27T09:27:26Z</time></trkpt><trkpt lat="48.29812531171315" lon="11.625549815082682"><ele>468.0</ele><time>2026-03-27T09:27:27Z</time></trkpt><trkpt lat="48.29816610739911" lon="11.625636939515628"><ele>468.00000000000006</ele><time>2026-03-27T09:27:28Z</time></trkpt><trkpt lat="48.29820711498303" lon="11.625723708691426"><ele>468.0</ele><time>2026-03-27T09:27:29Z</time></trkpt><trkpt lat="48.29824513532707" lon="11.625809118125241"><ele>468.0</ele><time>2026-03-27T09:27:30Z</time></trkpt><trkpt lat="48.29828096365853" lon="11.625892345000905"><ele>468.00000000000006</ele><time>2026-03-27T09:27:31Z</time></trkpt><trkpt lat="48.298316369627265" lon="11.625973060009901"><ele>468.0</ele><time>2026-03-27T09:27:32Z</time></trkpt><trkpt lat="48.298372446509696" lon="11.626090630300531"><ele>468.0</ele><time>2026-03-27T09:27:34Z</time></trkpt><trkpt lat="48.29841447574658" lon="11.626170864756617"><ele>468.0</ele><time>2026-03-27T09:27:35.999Z</time></trkpt><trkpt lat="48.29845405386432" lon="11.626246680434251"><ele>468.0</ele><time>2026-03-27T09:27:37.999Z</time></trkpt><trkpt lat="48.298492316598086" lon="11.626339067311678"><ele>468.0</ele><time>2026-03-27T09:27:40.999Z</time></trkpt><trkpt lat="48.29852344845825" lon="11.626422546713583"><ele>468.0</ele><time>2026-03-27T09:27:42.999Z</time></trkpt><trkpt lat="48.29863742671488" lon="11.626375159650083"><ele>468.0</ele><time>2026-03-27T09:27:44.999Z</time></trkpt><trkpt lat="48.2987094368034" lon="11.626272309641578"><ele>468.0</ele><time>2026-03-27T09:27:46.999Z</time></trkpt><trkpt lat="48.29879440619101" lon="11.626143175030116"><ele>468.0</ele><time>2026-03-27T09:27:48.999Z</time></trkpt><trkpt lat="48.298840216295474" lon="11.626071390936206"><ele>468.00000000000006</ele><time>2026-03-27T09:27:49.999Z</time></trkpt><trkpt lat="48.29888596172288" lon="11.626000249742653"><ele>468.0</ele><time>2026-03-27T09:27:50.999Z</time></trkpt><trkpt lat="48.298932139331264" lon="11.625927488113827"><ele>468.0</ele><time>2026-03-27T09:27:51.999Z</time></trkpt><trkpt lat="48.29897907734716" lon="11.625854779796034"><ele>468.00000000000006</ele><time>2026-03-27T09:27:52.999Z</time></trkpt><trkpt lat="48.299028193582735" lon="11.625785411770956"><ele>468.0</ele><time>2026-03-27T09:27:53.999Z</time></trkpt><trkpt lat="48.299077761460346" lon="11.625708150149462"><ele>468.0</ele><time>2026-03-27T09:27:54.999Z</time></trkpt><trkpt lat="48.29913250124985" lon="11.625625361159614"><ele>467.79999999999995</ele><time>2026-03-27T09:27:55.999Z</time></trkpt><trkpt lat="48.29919368526535" lon="11.625525769442927"><ele>467.59999999999997</ele><time>2026-03-27T09:27:56.999Z</time></trkpt><trkpt lat="48.29926144485797" lon="11.62541923167804"><ele>467.40000000000003</ele><time>2026-03-27T09:27:57.999Z</time></trkpt><trkpt lat="48.299329378838436" lon="11.625311876615552"><ele>467.20000000000005</ele><time>2026-03-27T09:27:58.999Z</time></trkpt><trkpt lat="48.299397384122734" lon="11.625202004616968"><ele>467.0</ele><time>2026-03-27T09:27:59.999Z</time></trkpt><trkpt lat="48.29946857092858" lon="11.625091656653787"><ele>467.0</ele><time>2026-03-27T09:28:00.999Z</time></trkpt><trkpt lat="48.299536405699385" lon="11.624976501227264"><ele>467.00000000000006</ele><time>2026-03-27T09:28:01.999Z</time></trkpt><trkpt lat="48.29960618801531" lon="11.62486229684985"><ele>467.00000000000006</ele><time>2026-03-27T09:28:02.999Z</time></trkpt><trkpt lat="48.299677026849864" lon="11.624754660035286"><ele>467.0</ele><time>2026-03-27T09:28:03.999Z</time></trkpt><trkpt lat="48.29974425512282" lon="11.624657332171413"><ele>467.0</ele><time>2026-03-27T09:28:04.999Z</time></trkpt><trkpt lat="48.299809276305176" lon="11.624563728169827"><ele>467.0</ele><time>2026-03-27T09:28:05.999Z</time></trkpt><trkpt lat="48.29987346920128" lon="11.624456095482552"><ele>467.00000000000006</ele><time>2026-03-27T09:28:06.999Z</time></trkpt><trkpt lat="48.29994244835387" lon="11.624347288155306"><ele>467.00000000000006</ele><time>2026-03-27T09:28:07.999Z</time></trkpt><trkpt lat="48.300002023101015" lon="11.624257222818988"><ele>467.0</ele><time>2026-03-27T09:28:08.999Z</time></trkpt><trkpt lat="48.30006004637984" lon="11.624174587589867"><ele>467.0</ele><time>2026-03-27T09:28:09.999Z</time></trkpt><trkpt lat="48.300123596253556" lon="11.624075714099877"><ele>467.0</ele><time>2026-03-27T09:28:10.999Z</time></trkpt><trkpt lat="48.300192664870224" lon="11.62396459314499"><ele>467.00000000000006</ele><time>2026-03-27T09:28:11.999Z</time></trkpt><trkpt lat="48.300263728830814" lon="11.623851786914498"><ele>467.00000000000006</ele><time>2026-03-27T09:28:12.999Z</time></trkpt><trkpt lat="48.300331617922794" lon="11.62374355585696"><ele>467.0</ele><time>2026-03-27T09:28:13.999Z</time></trkpt><trkpt lat="48.30039749334209" lon="11.623631301850645"><ele>467.0</ele><time>2026-03-27T09:28:14.999Z</time></trkpt><trkpt lat="48.30046706877177" lon="11.623530531437341"><ele>466.8</ele><time>2026-03-27T09:28:15.999Z</time></trkpt><trkpt lat="48.30053646583548" lon="11.623423055232113"><ele>466.6</ele><time>2026-03-27T09:28:16.999Z</time></trkpt><trkpt lat="48.30060681527448" lon="11.623306030885013"><ele>466.40000000000003</ele><time>2026-03-27T09:28:17.999Z</time></trkpt><trkpt lat="48.3006782861628" lon="11.62319131527947"><ele>466.20000000000005</ele><time>2026-03-27T09:28:18.999Z</time></trkpt><trkpt lat="48.30075200933952" lon="11.623072795903136"><ele>466.0</ele><time>2026-03-27T09:28:19.999Z</time></trkpt><trkpt lat="48.300827959515985" lon="11.622955365746789"><ele>466.4</ele><time>2026-03-27T09:28:20.999Z</time></trkpt><trkpt lat="48.30090824848624" lon="11.62283725859997"><ele>466.8</ele><time>2026-03-27T09:28:21.999Z</time></trkpt><trkpt lat="48.30098875083462" lon="11.622718578739109"><ele>467.19999999999993</ele><time>2026-03-27T09:28:22.999Z</time></trkpt><trkpt lat="48.301066283955876" lon="11.62260335277876"><ele>467.59999999999997</ele><time>2026-03-27T09:28:23.999Z</time></trkpt><trkpt lat="48.30114478926731" lon="11.622494205762353"><ele>468.0</ele><time>2026-03-27T09:28:24.999Z</time></trkpt><trkpt lat="48.30122338442793" lon="11.622383376772518"><ele>468.0</ele><time>2026-03-27T09:28:25.999Z</time></trkpt><trkpt lat="48.3013041893915" lon="11.622282391420915"><ele>467.99999999999994</ele><time>2026-03-27T09:28:26.999Z</time></trkpt><trkpt lat="48.301383109055976" lon="11.622177098669892"><ele>467.99999999999994</ele><time>2026-03-27T09:28:27.999Z</time></trkpt><trkpt lat="48.30146491806156" lon="11.622079164016027"><ele>468.0</ele><time>2026-03-27T09:28:28.999Z</time></trkpt><trkpt lat="48.30154966113708" lon="11.621988758786996"><ele>468.0</ele><time>2026-03-27T09:28:29.999Z</time></trkpt><trkpt lat="48.30164058283576" lon="11.621903280820966"><ele>467.59999999999997</ele><time>2026-03-27T09:28:30.999Z</time></trkpt><trkpt lat="48.301737017447664" lon="11.621825664371809"><ele>467.19999999999993</ele><time>2026-03-27T09:28:31.999Z</time></trkpt><trkpt lat="48.30183612728603" lon="11.621748395545229"><ele>466.8</ele><time>2026-03-27T09:28:32.999Z</time></trkpt><trkpt lat="48.30192986983347" lon="11.621675406564899"><ele>466.4</ele><time>2026-03-27T09:28:33.999Z</time></trkpt><trkpt lat="48.30202186026144" lon="11.621593750267362"><ele>466.0</ele><time>2026-03-27T09:28:34.999Z</time></trkpt><trkpt lat="48.30211883564943" lon="11.621529006504968"><ele>466.0</ele><time>2026-03-27T09:28:35.999Z</time></trkpt><trkpt lat="48.302218603287294" lon="11.621460489597156"><ele>466.0</ele><time>2026-03-27T09:28:36.999Z</time></trkpt><trkpt lat="48.302321151778735" lon="11.621391185717524"><ele>466.0</ele><time>2026-03-27T09:28:37.999Z</time></trkpt><trkpt lat="48.302427100892594" lon="11.621318379557156"><ele>466.0</ele><time>2026-03-27T09:28:38.999Z</time></trkpt><trkpt lat="48.30253624719382" lon="11.62124688948418"><ele>465.75</ele><time>2026-03-27T09:28:39.999Z</time></trkpt><trkpt lat="48.3026448333362" lon="11.621173986799796"><ele>465.5</ele><time>2026-03-27T09:28:40.999Z</time></trkpt><trkpt lat="48.30275280183559" lon="11.621108564637698"><ele>465.25</ele><time>2026-03-27T09:28:41.999Z</time></trkpt><trkpt lat="48.302858945969284" lon="11.621046884524802"><ele>465.0</ele><time>2026-03-27T09:28:42.999Z</time></trkpt><trkpt lat="48.30296251976289" lon="11.620986693933492"><ele>465.0</ele><time>2026-03-27T09:28:43.999Z</time></trkpt><trkpt lat="48.3030628908691" lon="11.620935167171695"><ele>465.0</ele><time>2026-03-27T09:28:44.999Z</time></trkpt><trkpt lat="48.30316102524444" lon="11.6208872994641"><ele>465.0</ele><time>2026-03-27T09:28:45.999Z</time></trkpt><trkpt lat="48.30325722555251" lon="11.620837189445492"><ele>465.0</ele><time>2026-03-27T09:28:46.999Z</time></trkpt><trkpt lat="48.30335352933595" lon="11.620794556837733"><ele>465.0</ele><time>2026-03-27T09:28:47.999Z</time></trkpt><trkpt lat="48.30345198025523" lon="11.62075126025824"><ele>465.4</ele><time>2026-03-27T09:28:48.999Z</time></trkpt><trkpt lat="48.30355168946438" lon="11.620701864792753"><ele>465.8</ele><time>2026-03-27T09:28:49.999Z</time></trkpt><trkpt lat="48.30365383553547" lon="11.620652511649938"><ele>466.20000000000005</ele><time>2026-03-27T09:28:50.999Z</time></trkpt><trkpt lat="48.303758370639024" lon="11.620605606829994"><ele>466.6</ele><time>2026-03-27T09:28:51.999Z</time></trkpt><trkpt lat="48.30386578623387" lon="11.620561677160094"><ele>467.0</ele><time>2026-03-27T09:28:52.999Z</time></trkpt><trkpt lat="48.30397237275408" lon="11.620517383939367"><ele>467.0</ele><time>2026-03-27T09:28:53.999Z</time></trkpt><trkpt lat="48.30407910408284" lon="11.620467194786853"><ele>467.0</ele><time>2026-03-27T09:28:55Z</time></trkpt><trkpt lat="48.30418312421145" lon="11.62041961134095"><ele>467.0</ele><time>2026-03-27T09:28:56Z</time></trkpt><trkpt lat="48.30429199391762" lon="11.620370716316271"><ele>467.0</ele><time>2026-03-27T09:28:57Z</time></trkpt><trkpt lat="48.304405956290466" lon="11.620316865230933"><ele>467.0</ele><time>2026-03-27T09:28:58Z</time></trkpt><trkpt lat="48.30451655477846" lon="11.62026743720509"><ele>467.00000000000006</ele><time>2026-03-27T09:28:59Z</time></trkpt><trkpt lat="48.30461519962016" lon="11.620224025262676"><ele>467.00000000000006</ele><time>2026-03-27T09:29:00Z</time></trkpt><trkpt lat="48.30470649658074" lon="11.620187842941558"><ele>467.0</ele><time>2026-03-27T09:29:01Z</time></trkpt><trkpt lat="48.304805068073904" lon="11.620140191970789"><ele>467.0</ele><time>2026-03-27T09:29:02Z</time></trkpt><trkpt lat="48.30492374411868" lon="11.620082841154415"><ele>467.0</ele><time>2026-03-27T09:29:03Z</time></trkpt><trkpt lat="48.30505496976418" lon="11.620015986179649"><ele>467.0</ele><time>2026-03-27T09:29:04Z</time></trkpt><trkpt lat="48.30517643858158" lon="11.619954643523245"><ele>467.0</ele><time>2026-03-27T09:29:05Z</time></trkpt><trkpt lat="48.30529110510658" lon="11.619897448020954"><ele>467.0</ele><time>2026-03-27T09:29:06Z</time></trkpt><trkpt lat="48.30539629414475" lon="11.619850029942965"><ele>467.0</ele><time>2026-03-27T09:29:07Z</time></trkpt><trkpt lat="48.30549972741042" lon="11.619799727953035"><ele>467.00000000000006</ele><time>2026-03-27T09:29:08Z</time></trkpt><trkpt lat="48.305607025516046" lon="11.619753315702626"><ele>467.00000000000006</ele><time>2026-03-27T09:29:09Z</time></trkpt><trkpt lat="48.30571132146865" lon="11.619710883488517"><ele>467.0</ele><time>2026-03-27T09:29:10Z</time></trkpt><trkpt lat="48.30581082378865" lon="11.61966727157584"><ele>467.0</ele><time>2026-03-27T09:29:11Z</time></trkpt><trkpt lat="48.30591313404978" lon="11.619618776890956"><ele>467.40000000000003</ele><time>2026-03-27T09:29:12Z</time></trkpt><trkpt lat="48.30602071098236" lon="11.619571633759149"><ele>467.80000000000007</ele><time>2026-03-27T09:29:13Z</time></trkpt><trkpt lat="48.306128568829656" lon="11.619528485643409"><ele>468.2</ele><time>2026-03-27T09:29:14Z</time></trkpt><trkpt lat="48.306231046459565" lon="11.619487547635913"><ele>468.6</ele><time>2026-03-27T09:29:15Z</time></trkpt><trkpt lat="48.30633283118688" lon="11.619447882210421"><ele>469.0</ele><time>2026-03-27T09:29:16Z</time></trkpt><trkpt lat="48.30643466044353" lon="11.619405979980503"><ele>468.0</ele><time>2026-03-27T09:29:17Z</time></trkpt><trkpt lat="48.30653999594199" lon="11.61935860182429"><ele>467.0</ele><time>2026-03-27T09:29:18Z</time></trkpt><trkpt lat="48.306649058467954" lon="11.619313404653619"><ele>466.0</ele><time>2026-03-27T09:29:19Z</time></trkpt><trkpt lat="48.30675903506691" lon="11.619268038942874"><ele>465.0</ele><time>2026-03-27T09:29:20Z</time></trkpt><trkpt lat="48.30686326260846" lon="11.619220272758085"><ele>464.0</ele><time>2026-03-27T09:29:21Z</time></trkpt><trkpt lat="48.30696223767094" lon="11.619172490992929"><ele>464.0</ele><time>2026-03-27T09:29:22Z</time></trkpt><trkpt lat="48.30705929752402" lon="11.619126867754856"><ele>464.0</ele><time>2026-03-27T09:29:23Z</time></trkpt><trkpt lat="48.30716385622519" lon="11.619073341968784"><ele>464.0</ele><time>2026-03-27T09:29:24Z</time></trkpt><trkpt lat="48.30727114336373" lon="11.619017710610025"><ele>464.0</ele><time>2026-03-27T09:29:25Z</time></trkpt><trkpt lat="48.30737580378387" lon="11.618967749429608"><ele>464.0</ele><time>2026-03-27T09:29:26Z</time></trkpt><trkpt lat="48.30747758127099" lon="11.618919189460799"><ele>463.75</ele><time>2026-03-27T09:29:27Z</time></trkpt><trkpt lat="48.30757905401623" lon="11.618869590319608"><ele>463.5</ele><time>2026-03-27T09:29:28Z</time></trkpt><trkpt lat="48.30768717943575" lon="11.618818493548385"><ele>463.25</ele><time>2026-03-27T09:29:29Z</time></trkpt><trkpt lat="48.30780194262083" lon="11.618759289689047"><ele>463.0</ele><time>2026-03-27T09:29:30Z</time></trkpt><trkpt lat="48.30791104923215" lon="11.61870652311142"><ele>463.0</ele><time>2026-03-27T09:29:31Z</time></trkpt><trkpt lat="48.308018549132505" lon="11.618651238774614"><ele>463.0</ele><time>2026-03-27T09:29:32Z</time></trkpt><trkpt lat="48.308129909318225" lon="11.61859665582532"><ele>463.0</ele><time>2026-03-27T09:29:33Z</time></trkpt><trkpt lat="48.30823635700767" lon="11.618544865293915"><ele>463.0</ele><time>2026-03-27T09:29:34Z</time></trkpt><trkpt lat="48.30833943976974" lon="11.6184961184534"><ele>462.79999999999995</ele><time>2026-03-27T09:29:35Z</time></trkpt><trkpt lat="48.30844019764401" lon="11.618445760066741"><ele>462.59999999999997</ele><time>2026-03-27T09:29:36Z</time></trkpt><trkpt lat="48.308543362316534" lon="11.61839683683558"><ele>462.40000000000003</ele><time>2026-03-27T09:29:37Z</time></trkpt><trkpt lat="48.30865064961234" lon="11.618346374708564"><ele>462.20000000000005</ele><time>2026-03-27T09:29:38Z</time></trkpt><trkpt lat="48.30875962554761" lon="11.61828904169145"><ele>462.0</ele><time>2026-03-27T09:29:39Z</time></trkpt><trkpt lat="48.30886863062578" lon="11.61823347675734"><ele>462.20000000000005</ele><time>2026-03-27T09:29:40Z</time></trkpt><trkpt lat="48.3089767824364" lon="11.618179452499788"><ele>462.40000000000003</ele><time>2026-03-27T09:29:41Z</time></trkpt><trkpt lat="48.30908238880581" lon="11.618123451810972"><ele>462.59999999999997</ele><time>2026-03-27T09:29:42Z</time></trkpt><trkpt lat="48.309187391995096" lon="11.618064681402755"><ele>462.79999999999995</ele><time>2026-03-27T09:29:43Z</time></trkpt><trkpt lat="48.30929147180771" lon="11.618006122752295"><ele>463.0</ele><time>2026-03-27T09:29:44Z</time></trkpt><trkpt lat="48.30939724835125" lon="11.617945460992662"><ele>463.0</ele><time>2026-03-27T09:29:45Z</time></trkpt><trkpt lat="48.309512992521206" lon="11.617874897062254"><ele>463.0</ele><time>2026-03-27T09:29:46Z</time></trkpt><trkpt lat="48.30963731380831" lon="11.61779186478448"><ele>463.0</ele><time>2026-03-27T09:29:46.999Z</time></trkpt><trkpt lat="48.30976257293856" lon="11.617700204688882"><ele>463.0</ele><time>2026-03-27T09:29:47.999Z</time></trkpt><trkpt lat="48.30988716166475" lon="11.617604756231678"><ele>463.0</ele><time>2026-03-27T09:29:48.999Z</time></trkpt><trkpt lat="48.310012780035365" lon="11.61750547507863"><ele>463.0</ele><time>2026-03-27T09:29:49.999Z</time></trkpt><trkpt lat="48.31015041611493" lon="11.617389152280317"><ele>463.0</ele><time>2026-03-27T09:29:50.999Z</time></trkpt><trkpt lat="48.31029640755995" lon="11.617249385313533"><ele>463.0</ele><time>2026-03-27T09:29:51.999Z</time></trkpt><trkpt lat="48.31044069287916" lon="11.617100000223255"><ele>463.0</ele><time>2026-03-27T09:29:52.999Z</time></trkpt><trkpt lat="48.31057045538719" lon="11.616958630348584"><ele>463.0</ele><time>2026-03-27T09:29:53.999Z</time></trkpt><trkpt lat="48.310696732312714" lon="11.616814412948957"><ele>463.0</ele><time>2026-03-27T09:29:54.999Z</time></trkpt><trkpt lat="48.310815477468864" lon="11.616662399185499"><ele>463.0</ele><time>2026-03-27T09:29:55.999Z</time></trkpt><trkpt lat="48.310931318779815" lon="11.616506764834742"><ele>463.0</ele><time>2026-03-27T09:29:56.999Z</time></trkpt><trkpt lat="48.31104455170062" lon="11.616344169614006"><ele>463.0</ele><time>2026-03-27T09:29:57.999Z</time></trkpt><trkpt lat="48.31115259719965" lon="11.616173551851222"><ele>463.0</ele><time>2026-03-27T09:29:58.999Z</time></trkpt><trkpt lat="48.31126331960449" lon="11.61599306912192"><ele>463.0</ele><time>2026-03-27T09:29:59.999Z</time></trkpt><trkpt lat="48.311368716113385" lon="11.615800839124022"><ele>463.0</ele><time>2026-03-27T09:30:00.999Z</time></trkpt><trkpt lat="48.3114704742363" lon="11.61561167274442"><ele>463.0</ele><time>2026-03-27T09:30:01.999Z</time></trkpt><trkpt lat="48.311569815094025" lon="11.615419996942052"><ele>463.0</ele><time>2026-03-27T09:30:02.999Z</time></trkpt><trkpt lat="48.31166171869379" lon="11.615219410125928"><ele>463.0</ele><time>2026-03-27T09:30:03.999Z</time></trkpt><trkpt lat="48.31174931246263" lon="11.615014058383244"><ele>463.0</ele><time>2026-03-27T09:30:04.999Z</time></trkpt><trkpt lat="48.311828890827655" lon="11.614817438830599"><ele>463.0</ele><time>2026-03-27T09:30:05.999Z</time></trkpt><trkpt lat="48.311906965827006" lon="11.614627871284656"><ele>463.0</ele><time>2026-03-27T09:30:06.999Z</time></trkpt><trkpt lat="48.31198026022582" lon="11.61443399855674"><ele>463.0</ele><time>2026-03-27T09:30:07.999Z</time></trkpt><trkpt lat="48.31205282053489" lon="11.614233924038965"><ele>463.0</ele><time>2026-03-27T09:30:08.999Z</time></trkpt><trkpt lat="48.312130423213226" lon="11.614021590896131"><ele>463.0</ele><time>2026-03-27T09:30:09.999Z</time></trkpt><trkpt lat="48.31220342318938" lon="11.613794564045032"><ele>463.0</ele><time>2026-03-27T09:30:10.999Z</time></trkpt><trkpt lat="48.312275090166246" lon="11.613574937749842"><ele>463.0</ele><time>2026-03-27T09:30:11.999Z</time></trkpt><trkpt lat="48.31234374434127" lon="11.61336310145022"><ele>463.0</ele><time>2026-03-27T09:30:12.999Z</time></trkpt><trkpt lat="48.312407260451245" lon="11.613163644852206"><ele>463.0</ele><time>2026-03-27T09:30:13.999Z</time></trkpt><trkpt lat="48.31247456927103" lon="11.612958199145236"><ele>463.0</ele><time>2026-03-27T09:30:14.999Z</time></trkpt><trkpt lat="48.312543315464715" lon="11.612731873744673"><ele>463.0</ele><time>2026-03-27T09:30:15.999Z</time></trkpt><trkpt lat="48.3126186725857" lon="11.612489368354963"><ele>463.0</ele><time>2026-03-27T09:30:16.999Z</time></trkpt><trkpt lat="48.31268889263828" lon="11.612253490092417"><ele>463.0</ele><time>2026-03-27T09:30:17.999Z</time></trkpt><trkpt lat="48.31275707406275" lon="11.612026970296132"><ele>463.6666666666667</ele><time>2026-03-27T09:30:18.999Z</time></trkpt><trkpt lat="48.31282614843039" lon="11.611795455098353"><ele>464.33333333333337</ele><time>2026-03-27T09:30:19.999Z</time></trkpt><trkpt lat="48.31289752106078" lon="11.611568529443232"><ele>465.0</ele><time>2026-03-27T09:30:20.999Z</time></trkpt><trkpt lat="48.31297139886308" lon="11.611339557351334"><ele>464.0</ele><time>2026-03-27T09:30:21.999Z</time></trkpt><trkpt lat="48.31304607222323" lon="11.611110678181337"><ele>463.0</ele><time>2026-03-27T09:30:22.999Z</time></trkpt><trkpt lat="48.313121476321676" lon="11.610889407033016"><ele>462.0</ele><time>2026-03-27T09:30:23.999Z</time></trkpt><trkpt lat="48.31319515469565" lon="11.610672605270034"><ele>462.0</ele><time>2026-03-27T09:30:24.999Z</time></trkpt><trkpt lat="48.313271285981685" lon="11.610464998609999"><ele>462.0</ele><time>2026-03-27T09:30:25.999Z</time></trkpt><trkpt lat="48.31334952003493" lon="11.61025741587652"><ele>462.0</ele><time>2026-03-27T09:30:26.999Z</time></trkpt><trkpt lat="48.31343024175275" lon="11.610059255285593"><ele>461.75</ele><time>2026-03-27T09:30:27.999Z</time></trkpt><trkpt lat="48.313501192401795" lon="11.60988100031858"><ele>461.5</ele><time>2026-03-27T09:30:28.999Z</time></trkpt><trkpt lat="48.313579719050715" lon="11.609706522238238"><ele>461.25</ele><time>2026-03-27T09:30:29.999Z</time></trkpt><trkpt lat="48.313659340611814" lon="11.60953088496104"><ele>461.0</ele><time>2026-03-27T09:30:30.999Z</time></trkpt><trkpt lat="48.31374204713268" lon="11.609358961209994"><ele>461.25</ele><time>2026-03-27T09:30:31.999Z</time></trkpt><trkpt lat="48.313827155021514" lon="11.609191327363458"><ele>461.5</ele><time>2026-03-27T09:30:32.999Z</time></trkpt><trkpt lat="48.313915319849414" lon="11.60902568122981"><ele>461.75</ele><time>2026-03-27T09:30:33.999Z</time></trkpt><trkpt lat="48.3140148672711" lon="11.608842399312651"><ele>462.0</ele><time>2026-03-27T09:30:34.999Z</time></trkpt><trkpt lat="48.314129561636896" lon="11.608644481133657"><ele>462.33333333333337</ele><time>2026-03-27T09:30:35.999Z</time></trkpt><trkpt lat="48.31424112209346" lon="11.608470877268342"><ele>462.6666666666667</ele><time>2026-03-27T09:30:36.999Z</time></trkpt><trkpt lat="48.314347376828316" lon="11.608315076371007"><ele>463.0</ele><time>2026-03-27T09:30:37.999Z</time></trkpt><trkpt lat="48.31445627188843" lon="11.608159884513501"><ele>463.0</ele><time>2026-03-27T09:30:38.999Z</time></trkpt><trkpt lat="48.31456621014223" lon="11.608003953271824"><ele>463.0</ele><time>2026-03-27T09:30:39.999Z</time></trkpt><trkpt lat="48.314678629208295" lon="11.607849042466347"><ele>463.0</ele><time>2026-03-27T09:30:40.999Z</time></trkpt><trkpt lat="48.31479524301125" lon="11.607705863974237"><ele>462.33333333333337</ele><time>2026-03-27T09:30:41.999Z</time></trkpt><trkpt lat="48.31491526506217" lon="11.607566399929395"><ele>461.66666666666663</ele><time>2026-03-27T09:30:42.999Z</time></trkpt><trkpt lat="48.315036686679264" lon="11.60743223547248"><ele>461.0</ele><time>2026-03-27T09:30:43.999Z</time></trkpt><trkpt lat="48.31516041337766" lon="11.60729993367175"><ele>461.0</ele><time>2026-03-27T09:30:44.999Z</time></trkpt><trkpt lat="48.31528491611571" lon="11.607169983567138"><ele>461.0</ele><time>2026-03-27T09:30:45.999Z</time></trkpt><trkpt lat="48.315411255108906" lon="11.60704163131492"><ele>461.0</ele><time>2026-03-27T09:30:46.999Z</time></trkpt><trkpt lat="48.3155377752789" lon="11.606914661006243"><ele>460.66666666666663</ele><time>2026-03-27T09:30:47.999Z</time></trkpt><trkpt lat="48.31566809373543" lon="11.606790606495274"><ele>460.33333333333337</ele><time>2026-03-27T09:30:48.999Z</time></trkpt><trkpt lat="48.315798970394695" lon="11.606669637633699"><ele>460.0</ele><time>2026-03-27T09:30:49.999Z</time></trkpt><trkpt lat="48.315930960886924" lon="11.6065504253987"><ele>460.0</ele><time>2026-03-27T09:30:50.999Z</time></trkpt><trkpt lat="48.31606375093883" lon="11.60642990954854"><ele>460.0</ele><time>2026-03-27T09:30:51.999Z</time></trkpt><trkpt lat="48.31619817636916" lon="11.606313046001985"><ele>460.0</ele><time>2026-03-27T09:30:52.999Z</time></trkpt><trkpt lat="48.31633165301672" lon="11.606194380563915"><ele>460.33333333333337</ele><time>2026-03-27T09:30:53.999Z</time></trkpt><trkpt lat="48.31646725897719" lon="11.606078295466059"><ele>460.66666666666663</ele><time>2026-03-27T09:30:54.999Z</time></trkpt><trkpt lat="48.31660123861754" lon="11.605961583266478"><ele>461.0</ele><time>2026-03-27T09:30:55.999Z</time></trkpt><trkpt lat="48.31673522880543" lon="11.605841810282149"><ele>461.0</ele><time>2026-03-27T09:30:56.999Z</time></trkpt><trkpt lat="48.31686942465441" lon="11.605723741620928"><ele>461.0</ele><time>2026-03-27T09:30:57.999Z</time></trkpt><trkpt lat="48.31700160820357" lon="11.605601489880168"><ele>461.0</ele><time>2026-03-27T09:30:58.999Z</time></trkpt><trkpt lat="48.31713602172229" lon="11.605484343682512"><ele>461.0</ele><time>2026-03-27T09:30:59.999Z</time></trkpt><trkpt lat="48.31726970760025" lon="11.605364961599486"><ele>461.0</ele><time>2026-03-27T09:31:01Z</time></trkpt><trkpt lat="48.31740424221613" lon="11.605246088702899"><ele>461.0</ele><time>2026-03-27T09:31:02Z</time></trkpt><trkpt lat="48.31753770081859" lon="11.605129696848946"><ele>461.0</ele><time>2026-03-27T09:31:03Z</time></trkpt><trkpt lat="48.317685445941876" lon="11.60500684052086"><ele>461.0</ele><time>2026-03-27T09:31:04Z</time></trkpt><trkpt lat="48.317849079142555" lon="11.604856007317595"><ele>461.0</ele><time>2026-03-27T09:31:05Z</time></trkpt><trkpt lat="48.3179976767648" lon="11.604724357744276"><ele>461.0</ele><time>2026-03-27T09:31:06Z</time></trkpt><trkpt lat="48.318128393301414" lon="11.604613213791142"><ele>461.0</ele><time>2026-03-27T09:31:07Z</time></trkpt><trkpt lat="48.318261633110566" lon="11.604506891443707"><ele>461.0</ele><time>2026-03-27T09:31:08Z</time></trkpt><trkpt lat="48.31840075135814" lon="11.604390202685549"><ele>461.0</ele><time>2026-03-27T09:31:09Z</time></trkpt><trkpt lat="48.31854489774769" lon="11.604269663186656"><ele>461.0</ele><time>2026-03-27T09:31:10Z</time></trkpt><trkpt lat="48.31869406892164" lon="11.604138229768875"><ele>461.0</ele><time>2026-03-27T09:31:11Z</time></trkpt><trkpt lat="48.318841383621894" lon="11.604013394118256"><ele>461.66666666666663</ele><time>2026-03-27T09:31:12Z</time></trkpt><trkpt lat="48.31899021715952" lon="11.603885659579587"><ele>462.33333333333337</ele><time>2026-03-27T09:31:13Z</time></trkpt><trkpt lat="48.31912536519231" lon="11.60377212680976"><ele>463.0</ele><time>2026-03-27T09:31:14Z</time></trkpt><trkpt lat="48.3192572957787" lon="11.603663777593272"><ele>462.33333333333337</ele><time>2026-03-27T09:31:15Z</time></trkpt><trkpt lat="48.319392318169534" lon="11.603551837052017"><ele>461.66666666666663</ele><time>2026-03-27T09:31:16Z</time></trkpt><trkpt lat="48.31952932185203" lon="11.603436247260406"><ele>461.0</ele><time>2026-03-27T09:31:17Z</time></trkpt><trkpt lat="48.31965970498696" lon="11.60332851105192"><ele>461.25</ele><time>2026-03-27T09:31:18Z</time></trkpt><trkpt lat="48.31978729043919" lon="11.603223488526178"><ele>461.5</ele><time>2026-03-27T09:31:19Z</time></trkpt><trkpt lat="48.31990807666368" lon="11.603122095210303"><ele>461.75</ele><time>2026-03-27T09:31:20Z</time></trkpt><trkpt lat="48.32001645807539" lon="11.603032880905912"><ele>462.0</ele><time>2026-03-27T09:31:21Z</time></trkpt><trkpt lat="48.32011951043477" lon="11.602950555989063"><ele>462.0</ele><time>2026-03-27T09:31:22Z</time></trkpt><trkpt lat="48.32021650008199" lon="11.602871594556726"><ele>462.00000000000006</ele><time>2026-03-27T09:31:23Z</time></trkpt><trkpt lat="48.320307305123244" lon="11.602795529373422"><ele>462.00000000000006</ele><time>2026-03-27T09:31:24Z</time></trkpt><trkpt lat="48.32038799068217" lon="11.602726116433185"><ele>462.0</ele><time>2026-03-27T09:31:25Z</time></trkpt><trkpt lat="48.32046298809094" lon="11.602659717771495"><ele>462.0</ele><time>2026-03-27T09:31:26Z</time></trkpt><trkpt lat="48.320532216255586" lon="11.602597379947044"><ele>463.0</ele><time>2026-03-27T09:31:27Z</time></trkpt><trkpt lat="48.320593298691925" lon="11.602540602985652"><ele>464.0</ele><time>2026-03-27T09:31:28Z</time></trkpt><trkpt lat="48.32065668042027" lon="11.602478431757472"><ele>465.0</ele><time>2026-03-27T09:31:29Z</time></trkpt><trkpt lat="48.32071466197062" lon="11.60241286560892"><ele>466.0</ele><time>2026-03-27T09:31:30Z</time></trkpt><trkpt lat="48.320768863911304" lon="11.602343169366103"><ele>467.0</ele><time>2026-03-27T09:31:31Z</time></trkpt><trkpt lat="48.320817945383496" lon="11.602272155821892"><ele>468.0</ele><time>2026-03-27T09:31:32Z</time></trkpt><trkpt lat="48.320863766314744" lon="11.602204903546825"><ele>469.0</ele><time>2026-03-27T09:31:33Z</time></trkpt><trkpt lat="48.320910084597365" lon="11.602136522382954"><ele>469.0</ele><time>2026-03-27T09:31:34Z</time></trkpt><trkpt lat="48.32095651857597" lon="11.60206105125375"><ele>469.0</ele><time>2026-03-27T09:31:35Z</time></trkpt><trkpt lat="48.321007047649516" lon="11.601982703514523"><ele>469.0</ele><time>2026-03-27T09:31:36Z</time></trkpt><trkpt lat="48.32105466884422" lon="11.601914292240616"><ele>469.0</ele><time>2026-03-27T09:31:37Z</time></trkpt><trkpt lat="48.32110333405668" lon="11.601845191120539"><ele>469.0</ele><time>2026-03-27T09:31:38Z</time></trkpt><trkpt lat="48.32115100887466" lon="11.601781934590898"><ele>469.0</ele><time>2026-03-27T09:31:39Z</time></trkpt><trkpt lat="48.32120052579049" lon="11.601723396418377"><ele>469.0</ele><time>2026-03-27T09:31:40Z</time></trkpt><trkpt lat="48.321307667113636" lon="11.601614930276593"><ele>468.83333333333337</ele><time>2026-03-27T09:31:42Z</time></trkpt><trkpt lat="48.321367945816526" lon="11.601561013599936"><ele>468.6666666666667</ele><time>2026-03-27T09:31:43Z</time></trkpt><trkpt lat="48.321427087045855" lon="11.601510442053298"><ele>468.5</ele><time>2026-03-27T09:31:44Z</time></trkpt><trkpt lat="48.32148398827916" lon="11.601454422885123"><ele>468.33333333333337</ele><time>2026-03-27T09:31:45Z</time></trkpt><trkpt lat="48.32154253934132" lon="11.601405204371083"><ele>468.1666666666667</ele><time>2026-03-27T09:31:46Z</time></trkpt><trkpt lat="48.32160058948049" lon="11.60136767274135"><ele>468.0</ele><time>2026-03-27T09:31:47Z</time></trkpt><trkpt lat="48.32171738434736" lon="11.601314957269665"><ele>469.14285714285717</ele><time>2026-03-27T09:31:49Z</time></trkpt><trkpt lat="48.32177979546459" lon="11.601291609425168"><ele>470.28571428571433</ele><time>2026-03-27T09:31:50Z</time></trkpt><trkpt lat="48.32184583156269" lon="11.601278478946995"><ele>471.42857142857144</ele><time>2026-03-27T09:31:51Z</time></trkpt><trkpt lat="48.321916529739696" lon="11.601275126915592"><ele>472.57142857142856</ele><time>2026-03-27T09:31:52Z</time></trkpt><trkpt lat="48.32198987830376" lon="11.601273271597417"><ele>473.7142857142857</ele><time>2026-03-27T09:31:53Z</time></trkpt><trkpt lat="48.322060192914115" lon="11.601283407745793"><ele>474.8571428571429</ele><time>2026-03-27T09:31:54Z</time></trkpt><trkpt lat="48.32212420354376" lon="11.601298013058516"><ele>476.0</ele><time>2026-03-27T09:31:55Z</time></trkpt><trkpt lat="48.32224251886658" lon="11.601316667214443"><ele>477.3333333333333</ele><time>2026-03-27T09:31:57Z</time></trkpt><trkpt lat="48.322353236134575" lon="11.601282007061625"><ele>478.66666666666663</ele><time>2026-03-27T09:31:59Z</time></trkpt><trkpt lat="48.32240871125351" lon="11.601232690286553"><ele>480.0</ele><time>2026-03-27T09:32:00Z</time></trkpt><trkpt lat="48.32246021058027" lon="11.601173080918679"><ele>481.33333333333337</ele><time>2026-03-27T09:32:01Z</time></trkpt><trkpt lat="48.322505973343084" lon="11.601100425086571"><ele>482.6666666666667</ele><time>2026-03-27T09:32:02Z</time></trkpt><trkpt lat="48.322552158477016" lon="11.601013933421314"><ele>484.0</ele><time>2026-03-27T09:32:03Z</time></trkpt><trkpt lat="48.32259643279511" lon="11.600928969637406"><ele>484.57142857142856</ele><time>2026-03-27T09:32:04Z</time></trkpt><trkpt lat="48.32264274747053" lon="11.600848239432034"><ele>485.1428571428571</ele><time>2026-03-27T09:32:05Z</time></trkpt><trkpt lat="48.322688951200256" lon="11.600773249917788"><ele>485.71428571428567</ele><time>2026-03-27T09:32:06Z</time></trkpt><trkpt lat="48.322742567675775" lon="11.600705191801818"><ele>486.2857142857142</ele><time>2026-03-27T09:32:06.999Z</time></trkpt><trkpt lat="48.32279907394799" lon="11.600640111735416"><ele>486.85714285714283</ele><time>2026-03-27T09:32:07.999Z</time></trkpt><trkpt lat="48.32286388246354" lon="11.600591244010753"><ele>487.42857142857133</ele><time>2026-03-27T09:32:08.999Z</time></trkpt><trkpt lat="48.322933192261324" lon="11.600555448223801"><ele>487.99999999999994</ele><time>2026-03-27T09:32:09.999Z</time></trkpt><trkpt lat="48.3229996643594" lon="11.600530577909593"><ele>487.99999999999994</ele><time>2026-03-27T09:32:10.999Z</time></trkpt><trkpt lat="48.32306025427135" lon="11.60050468886755"><ele>488.0</ele><time>2026-03-27T09:32:11.999Z</time></trkpt><trkpt lat="48.32312480068662" lon="11.60047650139438"><ele>488.0</ele><time>2026-03-27T09:32:12.999Z</time></trkpt><trkpt lat="48.32319291100314" lon="11.600443970756578"><ele>488.0</ele><time>2026-03-27T09:32:13.999Z</time></trkpt><trkpt lat="48.32330289362681" lon="11.600396597895822"><ele>487.99999999999994</ele><time>2026-03-27T09:32:15.999Z</time></trkpt><trkpt lat="48.32341880849604" lon="11.600348427415208"><ele>488.0</ele><time>2026-03-27T09:32:17.999Z</time></trkpt><trkpt lat="48.32348211317324" lon="11.600326052549761"><ele>487.79999999999995</ele><time>2026-03-27T09:32:18.999Z</time></trkpt><trkpt lat="48.323586385414934" lon="11.600283377066482"><ele>487.59999999999997</ele><time>2026-03-27T09:32:20.999Z</time></trkpt><trkpt lat="48.323672098990635" lon="11.600257091649734"><ele>487.40000000000003</ele><time>2026-03-27T09:32:22.999Z</time></trkpt><trkpt lat="48.323744715485404" lon="11.600242201132135"><ele>487.20000000000005</ele><time>2026-03-27T09:32:24.999Z</time></trkpt><trkpt lat="48.3238241060019" lon="11.600349015284188"><ele>487.0</ele><time>2026-03-27T09:32:27.999Z</time></trkpt><trkpt lat="48.32384122391041" lon="11.600529072133476"><ele>486.8571428571429</ele><time>2026-03-27T09:32:29.999Z</time></trkpt><trkpt lat="48.32384267720136" lon="11.60062546684215"><ele>486.71428571428567</ele><time>2026-03-27T09:32:30.999Z</time></trkpt><trkpt lat="48.323848664202536" lon="11.600806215443674"><ele>486.57142857142856</ele><time>2026-03-27T09:32:32.999Z</time></trkpt><trkpt lat="48.32384707310408" lon="11.600901114685856"><ele>486.42857142857144</ele><time>2026-03-27T09:32:33.999Z</time></trkpt><trkpt lat="48.323847389565884" lon="11.60099969507361"><ele>486.28571428571433</ele><time>2026-03-27T09:32:34.999Z</time></trkpt><trkpt lat="48.32384920944339" lon="11.601100975369507"><ele>486.1428571428571</ele><time>2026-03-27T09:32:35.999Z</time></trkpt><trkpt lat="48.32385161048867" lon="11.60119967209312"><ele>486.0</ele><time>2026-03-27T09:32:36.999Z</time></trkpt><trkpt lat="48.323855521932195" lon="11.601299540833107"><ele>485.8</ele><time>2026-03-27T09:32:37.999Z</time></trkpt><trkpt lat="48.32388288961372" lon="11.601463845785656"><ele>485.6</ele><time>2026-03-27T09:32:39.999Z</time></trkpt><trkpt lat="48.32394855365008" lon="11.601512750453129"><ele>485.4</ele><time>2026-03-27T09:32:40.999Z</time></trkpt><trkpt lat="48.32407158276629" lon="11.60156415900712"><ele>485.2</ele><time>2026-03-27T09:32:42.999Z</time></trkpt><trkpt lat="48.3241504070971" lon="11.601555703385307"><ele>485.0</ele><time>2026-03-27T09:32:43.999Z</time></trkpt><trkpt lat="48.32423906255989" lon="11.601547811129617"><ele>485.4</ele><time>2026-03-27T09:32:44.999Z</time></trkpt><trkpt lat="48.324329400105896" lon="11.601551689420294"><ele>485.8</ele><time>2026-03-27T09:32:45.999Z</time></trkpt><trkpt lat="48.324420835956964" lon="11.601547919264823"><ele>486.20000000000005</ele><time>2026-03-27T09:32:46.999Z</time></trkpt><trkpt lat="48.3245129357751" lon="11.601543537710581"><ele>486.6</ele><time>2026-03-27T09:32:47.999Z</time></trkpt><trkpt lat="48.324606077238975" lon="11.601541026761627"><ele>487.0</ele><time>2026-03-27T09:32:48.999Z</time></trkpt><trkpt lat="48.32470324452015" lon="11.601551223645554"><ele>487.20000000000005</ele><time>2026-03-27T09:32:49.999Z</time></trkpt><trkpt lat="48.32480204352793" lon="11.601567575263235"><ele>487.40000000000003</ele><time>2026-03-27T09:32:50.999Z</time></trkpt><trkpt lat="48.32490166611406" lon="11.601589597603661"><ele>487.59999999999997</ele><time>2026-03-27T09:32:51.999Z</time></trkpt><trkpt lat="48.32499835851412" lon="11.601635901999671"><ele>487.79999999999995</ele><time>2026-03-27T09:32:52.999Z</time></trkpt><trkpt lat="48.32509309698371" lon="11.601710900043342"><ele>488.0</ele><time>2026-03-27T09:32:53.999Z</time></trkpt><trkpt lat="48.32518110782957" lon="11.60180646320319"><ele>488.0</ele><time>2026-03-27T09:32:54.999Z</time></trkpt><trkpt lat="48.325258095632414" lon="11.60191690295164"><ele>487.99999999999994</ele><time>2026-03-27T09:32:55.999Z</time></trkpt><trkpt lat="48.3253313147323" lon="11.602028869140991"><ele>487.99999999999994</ele><time>2026-03-27T09:32:56.999Z</time></trkpt><trkpt lat="48.325406070257245" lon="11.602138066307823"><ele>488.0</ele><time>2026-03-27T09:32:57.999Z</time></trkpt><trkpt lat="48.32548235728065" lon="11.602241302352459"><ele>488.0</ele><time>2026-03-27T09:32:58.999Z</time></trkpt><trkpt lat="48.325564923657126" lon="11.602346605916463"><ele>488.2</ele><time>2026-03-27T09:32:59.999Z</time></trkpt><trkpt lat="48.32564671556653" lon="11.602455130800504"><ele>488.4</ele><time>2026-03-27T09:33:00.999Z</time></trkpt><trkpt lat="48.32572855625263" lon="11.602571765988825"><ele>488.59999999999997</ele><time>2026-03-27T09:33:01.999Z</time></trkpt><trkpt lat="48.325812389371485" lon="11.602679916508974"><ele>488.79999999999995</ele><time>2026-03-27T09:33:02.999Z</time></trkpt><trkpt lat="48.32589485177981" lon="11.60278715620925"><ele>489.0</ele><time>2026-03-27T09:33:03.999Z</time></trkpt><trkpt lat="48.32597675575903" lon="11.602907539480087"><ele>489.25</ele><time>2026-03-27T09:33:04.999Z</time></trkpt><trkpt lat="48.326063631103196" lon="11.603035163595893"><ele>489.5</ele><time>2026-03-27T09:33:05.999Z</time></trkpt><trkpt lat="48.32615334307999" lon="11.603174284056628"><ele>489.75</ele><time>2026-03-27T09:33:07Z</time></trkpt><trkpt lat="48.32623993940892" lon="11.603308259277206"><ele>490.0</ele><time>2026-03-27T09:33:08Z</time></trkpt><trkpt lat="48.32632550948409" lon="11.603437605508123"><ele>490.25</ele><time>2026-03-27T09:33:09Z</time></trkpt><trkpt lat="48.326416981050826" lon="11.60356641028912"><ele>490.5</ele><time>2026-03-27T09:33:10Z</time></trkpt><trkpt lat="48.32651093212726" lon="11.603691364272457"><ele>490.75</ele><time>2026-03-27T09:33:11Z</time></trkpt><trkpt lat="48.32660254603169" lon="11.603815868799996"><ele>491.0</ele><time>2026-03-27T09:33:12Z</time></trkpt><trkpt lat="48.32668967663804" lon="11.603930728214106"><ele>491.20000000000005</ele><time>2026-03-27T09:33:13Z</time></trkpt><trkpt lat="48.3267748213661" lon="11.604042141725177"><ele>491.40000000000003</ele><time>2026-03-27T09:33:14Z</time></trkpt><trkpt lat="48.32686056354652" lon="11.604151100601628"><ele>491.6</ele><time>2026-03-27T09:33:15Z</time></trkpt><trkpt lat="48.32694314842725" lon="11.604256285439227"><ele>491.8</ele><time>2026-03-27T09:33:16Z</time></trkpt><trkpt lat="48.3270251955419" lon="11.604360874072569"><ele>492.0</ele><time>2026-03-27T09:33:17Z</time></trkpt><trkpt lat="48.327110419862294" lon="11.60446663493272"><ele>492.5</ele><time>2026-03-27T09:33:18Z</time></trkpt><trkpt lat="48.32719748946008" lon="11.604573683581254"><ele>493.0</ele><time>2026-03-27T09:33:19Z</time></trkpt><trkpt lat="48.327287254493164" lon="11.604684162041076"><ele>493.5</ele><time>2026-03-27T09:33:20Z</time></trkpt><trkpt lat="48.32737465700835" lon="11.604791773704559"><ele>494.0</ele><time>2026-03-27T09:33:21Z</time></trkpt><trkpt lat="48.32745916304098" lon="11.60490026565734"><ele>494.4</ele><time>2026-03-27T09:33:22Z</time></trkpt><trkpt lat="48.32754351366586" lon="11.605007975156397"><ele>494.79999999999995</ele><time>2026-03-27T09:33:23Z</time></trkpt><trkpt lat="48.327626076692226" lon="11.605114529403462"><ele>495.20000000000005</ele><time>2026-03-27T09:33:24Z</time></trkpt><trkpt lat="48.32769795356373" lon="11.60522338208227"><ele>495.6</ele><time>2026-03-27T09:33:25Z</time></trkpt><trkpt lat="48.32777459853311" lon="11.605324629500373"><ele>496.0</ele><time>2026-03-27T09:33:26Z</time></trkpt><trkpt lat="48.32785547256128" lon="11.605420887142229"><ele>496.25</ele><time>2026-03-27T09:33:27Z</time></trkpt><trkpt lat="48.327935813022364" lon="11.605514629460039"><ele>496.5</ele><time>2026-03-27T09:33:28Z</time></trkpt><trkpt lat="48.328018703982046" lon="11.605620636968593"><ele>496.75</ele><time>2026-03-27T09:33:29Z</time></trkpt><trkpt lat="48.32810864932096" lon="11.605750743841035"><ele>497.0</ele><time>2026-03-27T09:33:30Z</time></trkpt><trkpt lat="48.32819629330603" lon="11.605894887213447"><ele>496.5</ele><time>2026-03-27T09:33:31Z</time></trkpt><trkpt lat="48.328278969387085" lon="11.606050577875857"><ele>496.0</ele><time>2026-03-27T09:33:32Z</time></trkpt><trkpt lat="48.328350247013404" lon="11.606203234698356"><ele>495.5</ele><time>2026-03-27T09:33:33Z</time></trkpt><trkpt lat="48.32841938137684" lon="11.606366004573935"><ele>495.0</ele><time>2026-03-27T09:33:34Z</time></trkpt><trkpt lat="48.328487035155135" lon="11.606536654151352"><ele>494.75</ele><time>2026-03-27T09:33:35Z</time></trkpt><trkpt lat="48.32855237105377" lon="11.606700030258958"><ele>494.5</ele><time>2026-03-27T09:33:36Z</time></trkpt><trkpt lat="48.328611828788304" lon="11.606844937529342"><ele>494.25</ele><time>2026-03-27T09:33:37Z</time></trkpt><trkpt lat="48.32867412568736" lon="11.606987897066265"><ele>494.0</ele><time>2026-03-27T09:33:38Z</time></trkpt><trkpt lat="48.32873966160577" lon="11.607142452783238"><ele>493.0</ele><time>2026-03-27T09:33:39Z</time></trkpt><trkpt lat="48.3288136358737" lon="11.607309208641848"><ele>492.0</ele><time>2026-03-27T09:33:40Z</time></trkpt><trkpt lat="48.32889569772918" lon="11.60748101832018"><ele>491.0</ele><time>2026-03-27T09:33:41Z</time></trkpt><trkpt lat="48.32898608958343" lon="11.607636780122435"><ele>490.0</ele><time>2026-03-27T09:33:42Z</time></trkpt><trkpt lat="48.32908327808431" lon="11.607762219145133"><ele>489.5</ele><time>2026-03-27T09:33:43Z</time></trkpt><trkpt lat="48.32918613435234" lon="11.60786868918992"><ele>489.0</ele><time>2026-03-27T09:33:44Z</time></trkpt><trkpt lat="48.32929151968198" lon="11.607966699931556"><ele>488.5</ele><time>2026-03-27T09:33:45Z</time></trkpt><trkpt lat="48.32939598873596" lon="11.608066558002871"><ele>488.0</ele><time>2026-03-27T09:33:46Z</time></trkpt><trkpt lat="48.32949335489398" lon="11.60817733910583"><ele>488.0</ele><time>2026-03-27T09:33:47Z</time></trkpt><trkpt lat="48.329586750363276" lon="11.608304335416882"><ele>488.0</ele><time>2026-03-27T09:33:48Z</time></trkpt><trkpt lat="48.329671786635444" lon="11.60842137900599"><ele>488.0</ele><time>2026-03-27T09:33:49Z</time></trkpt><trkpt lat="48.329749182826106" lon="11.608532474586713"><ele>488.0</ele><time>2026-03-27T09:33:50Z</time></trkpt><trkpt lat="48.32982836475876" lon="11.608638619185408"><ele>488.25</ele><time>2026-03-27T09:33:51Z</time></trkpt><trkpt lat="48.32991034234139" lon="11.608752994519422"><ele>488.5</ele><time>2026-03-27T09:33:52Z</time></trkpt><trkpt lat="48.32999511510571" lon="11.608898358288517"><ele>488.75</ele><time>2026-03-27T09:33:53Z</time></trkpt><trkpt lat="48.330072315373954" lon="11.609061782068354"><ele>489.0</ele><time>2026-03-27T09:33:54Z</time></trkpt><trkpt lat="48.330136085590574" lon="11.609219848439759"><ele>489.0</ele><time>2026-03-27T09:33:55Z</time></trkpt><trkpt lat="48.33019451457792" lon="11.609382533590075"><ele>489.0</ele><time>2026-03-27T09:33:56Z</time></trkpt><trkpt lat="48.330247115763264" lon="11.609548987525393"><ele>489.0</ele><time>2026-03-27T09:33:57Z</time></trkpt><trkpt lat="48.33029632795587" lon="11.60971689510721"><ele>489.0</ele><time>2026-03-27T09:33:58Z</time></trkpt><trkpt lat="48.33034500292123" lon="11.609893235465618"><ele>489.0</ele><time>2026-03-27T09:33:59Z</time></trkpt><trkpt lat="48.33039599623581" lon="11.610077676574505"><ele>489.0</ele><time>2026-03-27T09:34:00Z</time></trkpt><trkpt lat="48.33044287530915" lon="11.610253299011136"><ele>489.0</ele><time>2026-03-27T09:34:01Z</time></trkpt><trkpt lat="48.33048565229628" lon="11.610425871140505"><ele>489.0</ele><time>2026-03-27T09:34:02Z</time></trkpt><trkpt lat="48.33052733059517" lon="11.610607976051291"><ele>488.0</ele><time>2026-03-27T09:34:03Z</time></trkpt><trkpt lat="48.33056915932124" lon="11.61079607341398"><ele>487.0</ele><time>2026-03-27T09:34:04Z</time></trkpt><trkpt lat="48.330604949903076" lon="11.610982574631112"><ele>486.0</ele><time>2026-03-27T09:34:05Z</time></trkpt><trkpt lat="48.3306374752295" lon="11.611170848746061"><ele>485.0</ele><time>2026-03-27T09:34:06Z</time></trkpt><trkpt lat="48.330666234143145" lon="11.611360282460904"><ele>485.0</ele><time>2026-03-27T09:34:07Z</time></trkpt><trkpt lat="48.330693907855384" lon="11.611551875004409"><ele>485.0</ele><time>2026-03-27T09:34:08Z</time></trkpt><trkpt lat="48.33071994662046" lon="11.61174411209242"><ele>485.0</ele><time>2026-03-27T09:34:09Z</time></trkpt><trkpt lat="48.33075440037064" lon="11.61193572263515"><ele>485.0</ele><time>2026-03-27T09:34:10Z</time></trkpt><trkpt lat="48.33079430967757" lon="11.612121997887161"><ele>484.5</ele><time>2026-03-27T09:34:11Z</time></trkpt><trkpt lat="48.33083763230401" lon="11.612298067792228"><ele>484.0</ele><time>2026-03-27T09:34:12Z</time></trkpt><trkpt lat="48.330883834096824" lon="11.612479261889195"><ele>483.5</ele><time>2026-03-27T09:34:13Z</time></trkpt><trkpt lat="48.330935208632184" lon="11.612666970234132"><ele>483.0</ele><time>2026-03-27T09:34:14Z</time></trkpt><trkpt lat="48.33098718327577" lon="11.612860309366516"><ele>482.5</ele><time>2026-03-27T09:34:14.999Z</time></trkpt><trkpt lat="48.331039892983725" lon="11.613064612031389"><ele>482.0</ele><time>2026-03-27T09:34:15.999Z</time></trkpt><trkpt lat="48.331093151530744" lon="11.613277391608525"><ele>481.5</ele><time>2026-03-27T09:34:16.999Z</time></trkpt><trkpt lat="48.33111878531947" lon="11.61349202545485"><ele>481.0</ele><time>2026-03-27T09:34:17.999Z</time></trkpt><trkpt lat="48.33116128692435" lon="11.61368433504012"><ele>480.25</ele><time>2026-03-27T09:34:18.999Z</time></trkpt><trkpt lat="48.33118735544198" lon="11.613882215578835"><ele>479.5</ele><time>2026-03-27T09:34:19.999Z</time></trkpt><trkpt lat="48.33121352572393" lon="11.61406909968162"><ele>478.75</ele><time>2026-03-27T09:34:20.999Z</time></trkpt><trkpt lat="48.33123591565528" lon="11.6142438009903"><ele>478.0</ele><time>2026-03-27T09:34:21.999Z</time></trkpt><trkpt lat="48.33125568594348" lon="11.614393190784638"><ele>478.4</ele><time>2026-03-27T09:34:22.999Z</time></trkpt><trkpt lat="48.33127421500461" lon="11.614533039076727"><ele>478.79999999999995</ele><time>2026-03-27T09:34:23.999Z</time></trkpt><trkpt lat="48.33128947863189" lon="11.614672524544215"><ele>479.2</ele><time>2026-03-27T09:34:24.999Z</time></trkpt><trkpt lat="48.33129999448383" lon="11.6148185926301"><ele>479.6</ele><time>2026-03-27T09:34:25.999Z</time></trkpt><trkpt lat="48.33131008292363" lon="11.61497243130039"><ele>480.0</ele><time>2026-03-27T09:34:26.999Z</time></trkpt><trkpt lat="48.33132034589963" lon="11.615138936827744"><ele>480.0</ele><time>2026-03-27T09:34:27.999Z</time></trkpt><trkpt lat="48.33132453169269" lon="11.61530746530402"><ele>480.0</ele><time>2026-03-27T09:34:28.999Z</time></trkpt><trkpt lat="48.331324681636396" lon="11.615461948527718"><ele>480.0</ele><time>2026-03-27T09:34:29.999Z</time></trkpt><trkpt lat="48.33132187805731" lon="11.615613682662717"><ele>480.0</ele><time>2026-03-27T09:34:30.999Z</time></trkpt><trkpt lat="48.331318019902" lon="11.615768533852528"><ele>480.0</ele><time>2026-03-27T09:34:31.999Z</time></trkpt><trkpt lat="48.33131305908805" lon="11.615927662822434"><ele>480.2</ele><time>2026-03-27T09:34:32.999Z</time></trkpt><trkpt lat="48.33130491210375" lon="11.61608988858837"><ele>480.4</ele><time>2026-03-27T09:34:33.999Z</time></trkpt><trkpt lat="48.33129233734993" lon="11.61625123566412"><ele>480.6</ele><time>2026-03-27T09:34:34.999Z</time></trkpt><trkpt lat="48.331279544653455" lon="11.616412498096249"><ele>480.8</ele><time>2026-03-27T09:34:35.999Z</time></trkpt><trkpt lat="48.331261989602574" lon="11.61656904420692"><ele>481.0</ele><time>2026-03-27T09:34:36.999Z</time></trkpt><trkpt lat="48.33125209644609" lon="11.616709991534576"><ele>481.0</ele><time>2026-03-27T09:34:37.999Z</time></trkpt><trkpt lat="48.33123631970467" lon="11.61684476477183"><ele>481.0</ele><time>2026-03-27T09:34:38.999Z</time></trkpt><trkpt lat="48.331218342384524" lon="11.616979255930458"><ele>481.0</ele><time>2026-03-27T09:34:39.999Z</time></trkpt><trkpt lat="48.331198617545695" lon="11.617108476932138"><ele>481.0</ele><time>2026-03-27T09:34:40.999Z</time></trkpt><trkpt lat="48.33118418016952" lon="11.617216327210274"><ele>481.0</ele><time>2026-03-27T09:34:41.999Z</time></trkpt><trkpt lat="48.3311644151963" lon="11.617382117944796"><ele>479.8</ele><time>2026-03-27T09:34:43.999Z</time></trkpt><trkpt lat="48.331151677204495" lon="11.617570865277854"><ele>478.6</ele><time>2026-03-27T09:34:45.999Z</time></trkpt><trkpt lat="48.33114729044115" lon="11.617683092782183"><ele>477.4</ele><time>2026-03-27T09:34:46.999Z</time></trkpt><trkpt lat="48.331143502822364" lon="11.617782254240016"><ele>476.2</ele><time>2026-03-27T09:34:47.999Z</time></trkpt><trkpt lat="48.3311572323789" lon="11.617936880187997"><ele>475.0</ele><time>2026-03-27T09:34:49.999Z</time></trkpt><trkpt lat="48.331178607637106" lon="11.61810865099523"><ele>473.6</ele><time>2026-03-27T09:34:51.999Z</time></trkpt><trkpt lat="48.331198325605406" lon="11.618266295934513"><ele>472.2</ele><time>2026-03-27T09:34:53.999Z</time></trkpt><trkpt lat="48.33120520836556" lon="11.618395860580222"><ele>470.79999999999995</ele><time>2026-03-27T09:34:55.999Z</time></trkpt><trkpt lat="48.331184974642845" lon="11.618567355495637"><ele>469.4</ele><time>2026-03-27T09:34:57.999Z</time></trkpt><trkpt lat="48.331176376881444" lon="11.61872765833298"><ele>468.0</ele><time>2026-03-27T09:34:59.999Z</time></trkpt><trkpt lat="48.331203872549736" lon="11.618911964526868"><ele>467.3333333333333</ele><time>2026-03-27T09:35:01.999Z</time></trkpt><trkpt lat="48.331261655417016" lon="11.619056470644713"><ele>466.66666666666663</ele><time>2026-03-27T09:35:03.999Z</time></trkpt><trkpt lat="48.33130370615101" lon="11.619137277660439"><ele>466.0</ele><time>2026-03-27T09:35:04.999Z</time></trkpt><trkpt lat="48.33135937101716" lon="11.619219586941778"><ele>465.3333333333333</ele><time>2026-03-27T09:35:05.999Z</time></trkpt><trkpt lat="48.331408194457424" lon="11.619282479101152"><ele>464.66666666666663</ele><time>2026-03-27T09:35:06.999Z</time></trkpt><trkpt lat="48.33145650609114" lon="11.619346666904326"><ele>464.0</ele><time>2026-03-27T09:35:07.999Z</time></trkpt><trkpt lat="48.3315056990097" lon="11.619409535403788"><ele>464.00000000000006</ele><time>2026-03-27T09:35:08.999Z</time></trkpt><trkpt lat="48.33155442439803" lon="11.619480518231056"><ele>464.0</ele><time>2026-03-27T09:35:09.999Z</time></trkpt><trkpt lat="48.331606908251764" lon="11.619549711881854"><ele>464.00000000000006</ele><time>2026-03-27T09:35:10.999Z</time></trkpt><trkpt lat="48.331661600297934" lon="11.619618155851878"><ele>464.00000000000006</ele><time>2026-03-27T09:35:11.999Z</time></trkpt><trkpt lat="48.33171762805351" lon="11.619691196697758"><ele>464.0</ele><time>2026-03-27T09:35:13Z</time></trkpt><trkpt lat="48.33177021963869" lon="11.619763189743743"><ele>464.00000000000006</ele><time>2026-03-27T09:35:14Z</time></trkpt><trkpt lat="48.33181757504438" lon="11.619847125174225"><ele>464.00000000000006</ele><time>2026-03-27T09:35:15Z</time></trkpt><trkpt lat="48.331864848209676" lon="11.619944306536603"><ele>463.99999999999994</ele><time>2026-03-27T09:35:16Z</time></trkpt><trkpt lat="48.33190556937569" lon="11.62005444729398"><ele>464.0</ele><time>2026-03-27T09:35:17Z</time></trkpt><trkpt lat="48.331942013713125" lon="11.620163834478957"><ele>464.0</ele><time>2026-03-27T09:35:18Z</time></trkpt><trkpt lat="48.33197441699626" lon="11.62027327912048"><ele>464.0</ele><time>2026-03-27T09:35:19Z</time></trkpt><trkpt lat="48.33200611989458" lon="11.620378290333395"><ele>463.99999999999994</ele><time>2026-03-27T09:35:20Z</time></trkpt><trkpt lat="48.33203694467455" lon="11.62048671852112"><ele>464.0</ele><time>2026-03-27T09:35:21Z</time></trkpt><trkpt lat="48.33207499654304" lon="11.620601833424452"><ele>463.8333333333333</ele><time>2026-03-27T09:35:22Z</time></trkpt><trkpt lat="48.332113958483944" lon="11.620706772502446"><ele>463.66666666666663</ele><time>2026-03-27T09:35:23Z</time></trkpt><trkpt lat="48.3321618966633" lon="11.620810848439799"><ele>463.5</ele><time>2026-03-27T09:35:24Z</time></trkpt><trkpt lat="48.33221845687349" lon="11.620921555315753"><ele>463.33333333333337</ele><time>2026-03-27T09:35:25Z</time></trkpt><trkpt lat="48.33228011712337" lon="11.621031426729965"><ele>463.1666666666667</ele><time>2026-03-27T09:35:26Z</time></trkpt><trkpt lat="48.33234404760933" lon="11.621132616305548"><ele>463.0</ele><time>2026-03-27T09:35:27Z</time></trkpt><trkpt lat="48.33240729701801" lon="11.621230140400952"><ele>464.59999999999997</ele><time>2026-03-27T09:35:28Z</time></trkpt><trkpt lat="48.33247167809084" lon="11.621324886415632"><ele>466.19999999999993</ele><time>2026-03-27T09:35:29Z</time></trkpt><trkpt lat="48.33253792712332" lon="11.621424704998217"><ele>467.8</ele><time>2026-03-27T09:35:30Z</time></trkpt><trkpt lat="48.332603464054905" lon="11.621522211084532"><ele>469.4</ele><time>2026-03-27T09:35:31Z</time></trkpt><trkpt lat="48.33266713844708" lon="11.621616956817414"><ele>471.0</ele><time>2026-03-27T09:35:32Z</time></trkpt><trkpt lat="48.33273259080582" lon="11.621720831139076"><ele>471.0</ele><time>2026-03-27T09:35:33Z</time></trkpt><trkpt lat="48.33279672811909" lon="11.62182877797461"><ele>471.0</ele><time>2026-03-27T09:35:34Z</time></trkpt><trkpt lat="48.332861194883904" lon="11.621945824584953"><ele>471.0</ele><time>2026-03-27T09:35:35Z</time></trkpt><trkpt lat="48.332924231630564" lon="11.622069617083291"><ele>471.0</ele><time>2026-03-27T09:35:36Z</time></trkpt><trkpt lat="48.3329881043872" lon="11.622197529846973"><ele>471.0</ele><time>2026-03-27T09:35:37Z</time></trkpt><trkpt lat="48.33305214148706" lon="11.622330200890506"><ele>472.20000000000005</ele><time>2026-03-27T09:35:38Z</time></trkpt><trkpt lat="48.33311656198447" lon="11.622466370297632"><ele>473.40000000000003</ele><time>2026-03-27T09:35:39Z</time></trkpt><trkpt lat="48.333180578200555" lon="11.622606392702124"><ele>474.6</ele><time>2026-03-27T09:35:40Z</time></trkpt><trkpt lat="48.33324138040801" lon="11.622744547183245"><ele>475.8</ele><time>2026-03-27T09:35:41Z</time></trkpt><trkpt lat="48.33330083745712" lon="11.622885727678879"><ele>477.0</ele><time>2026-03-27T09:35:42Z</time></trkpt><trkpt lat="48.33336006911777" lon="11.623023154304523"><ele>477.0</ele><time>2026-03-27T09:35:43Z</time></trkpt><trkpt lat="48.3334102170411" lon="11.62315237899648"><ele>477.00000000000006</ele><time>2026-03-27T09:35:44Z</time></trkpt><trkpt lat="48.33346071021465" lon="11.6232792961563"><ele>477.00000000000006</ele><time>2026-03-27T09:35:45Z</time></trkpt><trkpt lat="48.33350973529584" lon="11.623409387513005"><ele>477.0</ele><time>2026-03-27T09:35:46Z</time></trkpt><trkpt lat="48.333557295959174" lon="11.623553564369862"><ele>477.0</ele><time>2026-03-27T09:35:47Z</time></trkpt><trkpt lat="48.33360143249711" lon="11.623710590803535"><ele>476.0</ele><time>2026-03-27T09:35:48Z</time></trkpt><trkpt lat="48.33364305954803" lon="11.623876942250046"><ele>475.0</ele><time>2026-03-27T09:35:49Z</time></trkpt><trkpt lat="48.33368598512046" lon="11.624049225082002"><ele>474.0</ele><time>2026-03-27T09:35:50Z</time></trkpt><trkpt lat="48.33374132008082" lon="11.624221155732855"><ele>473.0</ele><time>2026-03-27T09:35:51Z</time></trkpt><trkpt lat="48.33380474643947" lon="11.624387564345621"><ele>471.0</ele><time>2026-03-27T09:35:52Z</time></trkpt><trkpt lat="48.33387305302899" lon="11.624551145015607"><ele>469.0</ele><time>2026-03-27T09:35:53Z</time></trkpt><trkpt lat="48.3339401792903" lon="11.624704024269596"><ele>467.0</ele><time>2026-03-27T09:35:54Z</time></trkpt><trkpt lat="48.33400309805067" lon="11.624855193549141"><ele>465.0</ele><time>2026-03-27T09:35:55Z</time></trkpt><trkpt lat="48.334067598446325" lon="11.625008697811475"><ele>467.25</ele><time>2026-03-27T09:35:56Z</time></trkpt><trkpt lat="48.33413402802782" lon="11.62516582182205"><ele>469.5</ele><time>2026-03-27T09:35:57Z</time></trkpt><trkpt lat="48.3342012170921" lon="11.625322993043673"><ele>471.75</ele><time>2026-03-27T09:35:58Z</time></trkpt><trkpt lat="48.334264149972036" lon="11.625475251583643"><ele>474.0</ele><time>2026-03-27T09:35:59Z</time></trkpt><trkpt lat="48.334318586477444" lon="11.625621742656856"><ele>474.0</ele><time>2026-03-27T09:36:00Z</time></trkpt><trkpt lat="48.33437442020736" lon="11.625774145294839"><ele>474.0</ele><time>2026-03-27T09:36:01Z</time></trkpt><trkpt lat="48.334429097368826" lon="11.62593397479171"><ele>474.0</ele><time>2026-03-27T09:36:02Z</time></trkpt><trkpt lat="48.334481065585216" lon="11.626105928008153"><ele>474.0</ele><time>2026-03-27T09:36:03Z</time></trkpt><trkpt lat="48.33452680932546" lon="11.626290754887808"><ele>474.75</ele><time>2026-03-27T09:36:04Z</time></trkpt><trkpt lat="48.334567570303776" lon="11.626480089677141"><ele>475.5</ele><time>2026-03-27T09:36:05Z</time></trkpt><trkpt lat="48.334614769415786" lon="11.626665219619616"><ele>476.25</ele><time>2026-03-27T09:36:06Z</time></trkpt><trkpt lat="48.33467052952714" lon="11.626846564053896"><ele>477.0</ele><time>2026-03-27T09:36:07Z</time></trkpt><trkpt lat="48.33472484308894" lon="11.62701362171864"><ele>477.0</ele><time>2026-03-27T09:36:08Z</time></trkpt><trkpt lat="48.33478590590572" lon="11.627194557369421"><ele>477.0</ele><time>2026-03-27T09:36:09Z</time></trkpt><trkpt lat="48.33484706416258" lon="11.627399202221325"><ele>477.0</ele><time>2026-03-27T09:36:10Z</time></trkpt><trkpt lat="48.33490470122257" lon="11.627615923683663"><ele>477.0</ele><time>2026-03-27T09:36:11Z</time></trkpt><trkpt lat="48.3349498896942" lon="11.627791154046308"><ele>475.0</ele><time>2026-03-27T09:36:12Z</time></trkpt><trkpt lat="48.33498582923114" lon="11.62792144432897"><ele>473.00000000000006</ele><time>2026-03-27T09:36:13Z</time></trkpt><trkpt lat="48.33502541125292" lon="11.628058699465083"><ele>471.00000000000006</ele><time>2026-03-27T09:36:14Z</time></trkpt><trkpt lat="48.335068769015656" lon="11.628210706849131"><ele>469.0</ele><time>2026-03-27T09:36:15Z</time></trkpt><trkpt lat="48.335119349051624" lon="11.628371503983729"><ele>467.0</ele><time>2026-03-27T09:36:16Z</time></trkpt><trkpt lat="48.33518135408515" lon="11.628526445680926"><ele>465.40000000000003</ele><time>2026-03-27T09:36:17Z</time></trkpt><trkpt lat="48.33524227422271" lon="11.628663681262207"><ele>463.80000000000007</ele><time>2026-03-27T09:36:18Z</time></trkpt><trkpt lat="48.33530650421895" lon="11.628793833208519"><ele>462.2</ele><time>2026-03-27T09:36:19Z</time></trkpt><trkpt lat="48.33538098989643" lon="11.6289231940851"><ele>460.6</ele><time>2026-03-27T09:36:20Z</time></trkpt><trkpt lat="48.33545504886156" lon="11.62904143525734"><ele>459.0</ele><time>2026-03-27T09:36:21Z</time></trkpt><trkpt lat="48.33552650754497" lon="11.629137742910002"><ele>459.6</ele><time>2026-03-27T09:36:22Z</time></trkpt><trkpt lat="48.335610626297736" lon="11.629229157428933"><ele>460.2</ele><time>2026-03-27T09:36:23Z</time></trkpt><trkpt lat="48.33570258858247" lon="11.629333398908232"><ele>460.80000000000007</ele><time>2026-03-27T09:36:24Z</time></trkpt><trkpt lat="48.335799584162594" lon="11.629440408005438"><ele>461.40000000000003</ele><time>2026-03-27T09:36:25Z</time></trkpt><trkpt lat="48.335889625617966" lon="11.62953454650663"><ele>462.0</ele><time>2026-03-27T09:36:26Z</time></trkpt><trkpt lat="48.33597545752915" lon="11.62962618034442"><ele>462.0</ele><time>2026-03-27T09:36:27Z</time></trkpt><trkpt lat="48.33606174807668" lon="11.629724322036823"><ele>462.00000000000006</ele><time>2026-03-27T09:36:28Z</time></trkpt><trkpt lat="48.33615085254326" lon="11.62982140925778"><ele>462.00000000000006</ele><time>2026-03-27T09:36:29Z</time></trkpt><trkpt lat="48.33624344480001" lon="11.629920441580596"><ele>462.0</ele><time>2026-03-27T09:36:29.999Z</time></trkpt><trkpt lat="48.33633571228686" lon="11.630016296910139"><ele>462.0</ele><time>2026-03-27T09:36:30.999Z</time></trkpt><trkpt lat="48.33642438454692" lon="11.630111890341796"><ele>462.20000000000005</ele><time>2026-03-27T09:36:31.999Z</time></trkpt><trkpt lat="48.336511806857644" lon="11.630205760321843"><ele>462.40000000000003</ele><time>2026-03-27T09:36:32.999Z</time></trkpt><trkpt lat="48.336598986202205" lon="11.630300810817442"><ele>462.59999999999997</ele><time>2026-03-27T09:36:33.999Z</time></trkpt><trkpt lat="48.33668577471604" lon="11.630395350876864"><ele>462.79999999999995</ele><time>2026-03-27T09:36:34.999Z</time></trkpt><trkpt lat="48.336771376992345" lon="11.630490136378638"><ele>463.0</ele><time>2026-03-27T09:36:35.999Z</time></trkpt><trkpt lat="48.33685178019291" lon="11.630580762638669"><ele>463.0</ele><time>2026-03-27T09:36:36.999Z</time></trkpt><trkpt lat="48.33693437984665" lon="11.630673482902756"><ele>462.99999999999994</ele><time>2026-03-27T09:36:37.999Z</time></trkpt><trkpt lat="48.337009835245354" lon="11.630760710781349"><ele>462.99999999999994</ele><time>2026-03-27T09:36:38.999Z</time></trkpt><trkpt lat="48.33708978492204" lon="11.630851944990331"><ele>463.0</ele><time>2026-03-27T09:36:39.999Z</time></trkpt><trkpt lat="48.33717416777654" lon="11.630945157895612"><ele>463.0</ele><time>2026-03-27T09:36:40.999Z</time></trkpt><trkpt lat="48.33726329265553" lon="11.6310418297269"><ele>463.0</ele><time>2026-03-27T09:36:41.999Z</time></trkpt><trkpt lat="48.337351387119014" lon="11.631133619437367"><ele>462.99999999999994</ele><time>2026-03-27T09:36:42.999Z</time></trkpt><trkpt lat="48.3374430090757" lon="11.631229004142307"><ele>462.99999999999994</ele><time>2026-03-27T09:36:43.999Z</time></trkpt><trkpt lat="48.33753454905331" lon="11.631325693949025"><ele>463.0</ele><time>2026-03-27T09:36:44.999Z</time></trkpt><trkpt lat="48.33762659061628" lon="11.631422474295562"><ele>463.0</ele><time>2026-03-27T09:36:45.999Z</time></trkpt><trkpt lat="48.337715672406155" lon="11.631517307335594"><ele>463.0</ele><time>2026-03-27T09:36:46.999Z</time></trkpt><trkpt lat="48.337803367200635" lon="11.63160808075447"><ele>462.99999999999994</ele><time>2026-03-27T09:36:47.999Z</time></trkpt><trkpt lat="48.33789044835187" lon="11.63169757150818"><ele>462.99999999999994</ele><time>2026-03-27T09:36:48.999Z</time></trkpt><trkpt lat="48.33797841954376" lon="11.631786201609522"><ele>463.0</ele><time>2026-03-27T09:36:49.999Z</time></trkpt><trkpt lat="48.33806501869782" lon="11.631871770737233"><ele>463.0</ele><time>2026-03-27T09:36:50.999Z</time></trkpt><trkpt lat="48.3381525196655" lon="11.631957037979765"><ele>462.4</ele><time>2026-03-27T09:36:51.999Z</time></trkpt><trkpt lat="48.33824225021686" lon="11.63204215606229"><ele>461.79999999999995</ele><time>2026-03-27T09:36:52.999Z</time></trkpt><trkpt lat="48.33833486925856" lon="11.632124616542294"><ele>461.2</ele><time>2026-03-27T09:36:53.999Z</time></trkpt><trkpt lat="48.33842816329357" lon="11.632209116680977"><ele>460.6</ele><time>2026-03-27T09:36:54.999Z</time></trkpt><trkpt lat="48.338520769911554" lon="11.632294032795103"><ele>460.0</ele><time>2026-03-27T09:36:55.999Z</time></trkpt><trkpt lat="48.33861081229825" lon="11.632374954963922"><ele>460.0</ele><time>2026-03-27T09:36:56.999Z</time></trkpt><trkpt lat="48.338699293623556" lon="11.632457545176678"><ele>460.0</ele><time>2026-03-27T09:36:57.999Z</time></trkpt><trkpt lat="48.33879045855572" lon="11.632536408035644"><ele>460.0</ele><time>2026-03-27T09:36:58.999Z</time></trkpt><trkpt lat="48.33888439988883" lon="11.632613744026122"><ele>460.0</ele><time>2026-03-27T09:36:59.999Z</time></trkpt><trkpt lat="48.338980120772334" lon="11.632692746085565"><ele>460.0</ele><time>2026-03-27T09:37:00.999Z</time></trkpt><trkpt lat="48.339074359521305" lon="11.63277393941239"><ele>460.2</ele><time>2026-03-27T09:37:01.999Z</time></trkpt><trkpt lat="48.339160578411786" lon="11.63285265586375"><ele>460.4</ele><time>2026-03-27T09:37:02.999Z</time></trkpt><trkpt lat="48.33924951735935" lon="11.632934845716415"><ele>460.6</ele><time>2026-03-27T09:37:03.999Z</time></trkpt><trkpt lat="48.339342295652834" lon="11.633015936809453"><ele>460.8</ele><time>2026-03-27T09:37:04.999Z</time></trkpt><trkpt lat="48.33943534109623" lon="11.633094210795495"><ele>461.0</ele><time>2026-03-27T09:37:05.999Z</time></trkpt><trkpt lat="48.33952546860454" lon="11.6331741262911"><ele>461.0</ele><time>2026-03-27T09:37:06.999Z</time></trkpt><trkpt lat="48.33961257896508" lon="11.633250730549658"><ele>461.0</ele><time>2026-03-27T09:37:07.999Z</time></trkpt><trkpt lat="48.3396980899987" lon="11.633326855927963"><ele>461.0</ele><time>2026-03-27T09:37:08.999Z</time></trkpt><trkpt lat="48.33978145107318" lon="11.633402403933177"><ele>461.0</ele><time>2026-03-27T09:37:09.999Z</time></trkpt><trkpt lat="48.3398691891099" lon="11.633482635181252"><ele>461.0</ele><time>2026-03-27T09:37:10.999Z</time></trkpt><trkpt lat="48.339958241771875" lon="11.633566488086457"><ele>461.0</ele><time>2026-03-27T09:37:11.999Z</time></trkpt><trkpt lat="48.34004620432383" lon="11.633643702163878"><ele>461.0</ele><time>2026-03-27T09:37:12.999Z</time></trkpt><trkpt lat="48.340133372578286" lon="11.63372094518501"><ele>461.0</ele><time>2026-03-27T09:37:13.999Z</time></trkpt><trkpt lat="48.34022412700463" lon="11.633800203641458"><ele>461.0</ele><time>2026-03-27T09:37:14.999Z</time></trkpt><trkpt lat="48.340316809616446" lon="11.633885078995263"><ele>461.0</ele><time>2026-03-27T09:37:15.999Z</time></trkpt><trkpt lat="48.34040149364071" lon="11.63397098811534"><ele>461.0</ele><time>2026-03-27T09:37:16.999Z</time></trkpt><trkpt lat="48.3404874155855" lon="11.634053512066245"><ele>461.0</ele><time>2026-03-27T09:37:17.999Z</time></trkpt><trkpt lat="48.340566479884714" lon="11.634134818463833"><ele>461.0</ele><time>2026-03-27T09:37:19Z</time></trkpt><trkpt lat="48.34064763629845" lon="11.63421692558387"><ele>461.0</ele><time>2026-03-27T09:37:20Z</time></trkpt><trkpt lat="48.34073508771059" lon="11.634296155676086"><ele>461.0</ele><time>2026-03-27T09:37:21Z</time></trkpt><trkpt lat="48.340820783484666" lon="11.634386726755366"><ele>460.0</ele><time>2026-03-27T09:37:22Z</time></trkpt><trkpt lat="48.34090823541092" lon="11.63447616807113"><ele>459.0</ele><time>2026-03-27T09:37:23Z</time></trkpt><trkpt lat="48.34099577223372" lon="11.63456119834439"><ele>458.0</ele><time>2026-03-27T09:37:24Z</time></trkpt><trkpt lat="48.34108427223131" lon="11.634642120070552"><ele>457.0</ele><time>2026-03-27T09:37:25Z</time></trkpt><trkpt lat="48.3411717558638" lon="11.63472686555492"><ele>456.0</ele><time>2026-03-27T09:37:26Z</time></trkpt><trkpt lat="48.34125918548352" lon="11.634814028808384"><ele>456.0</ele><time>2026-03-27T09:37:27Z</time></trkpt><trkpt lat="48.34134808197959" lon="11.634905564037199"><ele>456.0</ele><time>2026-03-27T09:37:28Z</time></trkpt><trkpt lat="48.341438696546184" lon="11.63499668472874"><ele>456.0</ele><time>2026-03-27T09:37:29Z</time></trkpt><trkpt lat="48.34152854064774" lon="11.635084186412506"><ele>456.0</ele><time>2026-03-27T09:37:30Z</time></trkpt><trkpt lat="48.34161750233667" lon="11.635171220754042"><ele>456.0</ele><time>2026-03-27T09:37:31Z</time></trkpt><trkpt lat="48.341702191998614" lon="11.635258003199855"><ele>456.20000000000005</ele><time>2026-03-27T09:37:32Z</time></trkpt><trkpt lat="48.34178138398168" lon="11.635337390060576"><ele>456.40000000000003</ele><time>2026-03-27T09:37:33Z</time></trkpt><trkpt lat="48.34186067426473" lon="11.635414339697551"><ele>456.6</ele><time>2026-03-27T09:37:34Z</time></trkpt><trkpt lat="48.34194303302706" lon="11.635493905807385"><ele>456.8</ele><time>2026-03-27T09:37:35Z</time></trkpt><trkpt lat="48.34203284144182" lon="11.635583490602926"><ele>457.0</ele><time>2026-03-27T09:37:36Z</time></trkpt><trkpt lat="48.34212289577949" lon="11.635677759441291"><ele>457.0</ele><time>2026-03-27T09:37:37Z</time></trkpt><trkpt lat="48.34220986055627" lon="11.63577166126676"><ele>457.00000000000006</ele><time>2026-03-27T09:37:38Z</time></trkpt><trkpt lat="48.34229354630861" lon="11.635867196824348"><ele>457.00000000000006</ele><time>2026-03-27T09:37:39Z</time></trkpt><trkpt lat="48.34237293853638" lon="11.635958424965478"><ele>457.0</ele><time>2026-03-27T09:37:40Z</time></trkpt><trkpt lat="48.34244929461597" lon="11.636048847218945"><ele>457.0</ele><time>2026-03-27T09:37:41Z</time></trkpt><trkpt lat="48.34252555014621" lon="11.63613833550244"><ele>457.20000000000005</ele><time>2026-03-27T09:37:42Z</time></trkpt><trkpt lat="48.34260162893803" lon="11.636232974595345"><ele>457.40000000000003</ele><time>2026-03-27T09:37:43Z</time></trkpt><trkpt lat="48.34268230020277" lon="11.636325994982071"><ele>457.59999999999997</ele><time>2026-03-27T09:37:44Z</time></trkpt><trkpt lat="48.34276999488076" lon="11.636419920079652"><ele>457.79999999999995</ele><time>2026-03-27T09:37:45Z</time></trkpt><trkpt lat="48.342861207738416" lon="11.636521612585963"><ele>458.0</ele><time>2026-03-27T09:37:46Z</time></trkpt><trkpt lat="48.34294925235748" lon="11.63661972961996"><ele>458.0</ele><time>2026-03-27T09:37:47Z</time></trkpt><trkpt lat="48.343032948618806" lon="11.636721424166012"><ele>457.99999999999994</ele><time>2026-03-27T09:37:48Z</time></trkpt><trkpt lat="48.34311406641637" lon="11.636831531467072"><ele>457.99999999999994</ele><time>2026-03-27T09:37:49Z</time></trkpt><trkpt lat="48.34319416839984" lon="11.636947011111406"><ele>458.0</ele><time>2026-03-27T09:37:50Z</time></trkpt><trkpt lat="48.34327578954763" lon="11.63706259466042"><ele>458.0</ele><time>2026-03-27T09:37:51Z</time></trkpt><trkpt lat="48.343361835837214" lon="11.637174854268812"><ele>458.79999999999995</ele><time>2026-03-27T09:37:52Z</time></trkpt><trkpt lat="48.3434534619662" lon="11.637278749000332"><ele>459.59999999999997</ele><time>2026-03-27T09:37:53Z</time></trkpt><trkpt lat="48.343542438363414" lon="11.63737198382531"><ele>460.40000000000003</ele><time>2026-03-27T09:37:54Z</time></trkpt><trkpt lat="48.34363639204202" lon="11.637458168791037"><ele>461.20000000000005</ele><time>2026-03-27T09:37:55Z</time></trkpt><trkpt lat="48.3437313735265" lon="11.63753695668474"><ele>462.0</ele><time>2026-03-27T09:37:56Z</time></trkpt><trkpt lat="48.343823580615314" lon="11.637604193014193"><ele>462.0</ele><time>2026-03-27T09:37:57Z</time></trkpt><trkpt lat="48.34391010402109" lon="11.63766101199206"><ele>462.00000000000006</ele><time>2026-03-27T09:37:58Z</time></trkpt><trkpt lat="48.343992232859534" lon="11.63770909327157"><ele>462.00000000000006</ele><time>2026-03-27T09:37:59Z</time></trkpt><trkpt lat="48.34407278993556" lon="11.6377525114844"><ele>462.0</ele><time>2026-03-27T09:38:00Z</time></trkpt><trkpt lat="48.3441590700281" lon="11.637800268284597"><ele>462.0</ele><time>2026-03-27T09:38:01Z</time></trkpt><trkpt lat="48.34424923544986" lon="11.637862926478624"><ele>462.0</ele><time>2026-03-27T09:38:02Z</time></trkpt><trkpt lat="48.344331389287966" lon="11.637946500770164"><ele>462.00000000000006</ele><time>2026-03-27T09:38:03Z</time></trkpt><trkpt lat="48.344402294051434" lon="11.638032361059055"><ele>462.00000000000006</ele><time>2026-03-27T09:38:04Z</time></trkpt><trkpt lat="48.34445700204928" lon="11.638128960045817"><ele>462.0</ele><time>2026-03-27T09:38:05Z</time></trkpt><trkpt lat="48.34450232558022" lon="11.638243788273797"><ele>462.0</ele><time>2026-03-27T09:38:06Z</time></trkpt><trkpt lat="48.34453623879453" lon="11.638364998367088"><ele>462.0</ele><time>2026-03-27T09:38:07Z</time></trkpt><trkpt lat="48.34456148623453" lon="11.638481230047656"><ele>462.00000000000006</ele><time>2026-03-27T09:38:08Z</time></trkpt><trkpt lat="48.34458186181111" lon="11.63861044759015"><ele>462.00000000000006</ele><time>2026-03-27T09:38:09Z</time></trkpt><trkpt lat="48.344604127469545" lon="11.638746357758256"><ele>462.0</ele><time>2026-03-27T09:38:10Z</time></trkpt><trkpt lat="48.34463477614186" lon="11.638879745701436"><ele>462.0</ele><time>2026-03-27T09:38:11Z</time></trkpt><trkpt lat="48.344678607757196" lon="11.639009687169969"><ele>462.6</ele><time>2026-03-27T09:38:12Z</time></trkpt><trkpt lat="48.34474070445779" lon="11.63912465635999"><ele>463.20000000000005</ele><time>2026-03-27T09:38:13Z</time></trkpt><trkpt lat="48.344806265958596" lon="11.639232944652454"><ele>463.8</ele><time>2026-03-27T09:38:14Z</time></trkpt><trkpt lat="48.344890583333566" lon="11.639333031550905"><ele>464.4</ele><time>2026-03-27T09:38:15Z</time></trkpt><trkpt lat="48.34498213867652" lon="11.639428387250863"><ele>465.0</ele><time>2026-03-27T09:38:16Z</time></trkpt><trkpt lat="48.34507453769769" lon="11.639517223182803"><ele>465.2</ele><time>2026-03-27T09:38:17Z</time></trkpt><trkpt lat="48.34516143137114" lon="11.639598875331691"><ele>465.4</ele><time>2026-03-27T09:38:18Z</time></trkpt><trkpt lat="48.34525001654121" lon="11.63967889490175"><ele>465.6</ele><time>2026-03-27T09:38:19Z</time></trkpt><trkpt lat="48.34533949347025" lon="11.639760691360614"><ele>465.8</ele><time>2026-03-27T09:38:20Z</time></trkpt><trkpt lat="48.34543054515921" lon="11.63984339636605"><ele>466.0</ele><time>2026-03-27T09:38:21Z</time></trkpt><trkpt lat="48.34552182456197" lon="11.639925693537187"><ele>465.0</ele><time>2026-03-27T09:38:22Z</time></trkpt><trkpt lat="48.345614094803345" lon="11.640007241851666"><ele>464.0</ele><time>2026-03-27T09:38:23Z</time></trkpt><trkpt lat="48.345705817134004" lon="11.640090979217359"><ele>463.0</ele><time>2026-03-27T09:38:24Z</time></trkpt><trkpt lat="48.34579767257258" lon="11.640176752406804"><ele>462.0</ele><time>2026-03-27T09:38:25Z</time></trkpt><trkpt lat="48.34588575887722" lon="11.640256260044135"><ele>461.0</ele><time>2026-03-27T09:38:26Z</time></trkpt><trkpt lat="48.345971995956745" lon="11.640338245389483"><ele>459.75</ele><time>2026-03-27T09:38:27Z</time></trkpt><trkpt lat="48.3460618729158" lon="11.640422515672508"><ele>458.5</ele><time>2026-03-27T09:38:28Z</time></trkpt><trkpt lat="48.34615926451136" lon="11.640506849976152"><ele>457.25</ele><time>2026-03-27T09:38:29Z</time></trkpt><trkpt lat="48.346258652445556" lon="11.64059905245776"><ele>456.0</ele><time>2026-03-27T09:38:30Z</time></trkpt><trkpt lat="48.346358357470116" lon="11.640694950646196"><ele>456.0</ele><time>2026-03-27T09:38:31Z</time></trkpt><trkpt lat="48.34645509995164" lon="11.640796907661198"><ele>456.0</ele><time>2026-03-27T09:38:32Z</time></trkpt><trkpt lat="48.34654110309639" lon="11.64090716066822"><ele>456.0</ele><time>2026-03-27T09:38:33Z</time></trkpt><trkpt lat="48.34661580506325" lon="11.641024536321488"><ele>456.0</ele><time>2026-03-27T09:38:34Z</time></trkpt><trkpt lat="48.34668448004721" lon="11.64115182932786"><ele>456.0</ele><time>2026-03-27T09:38:35Z</time></trkpt><trkpt lat="48.34674826214571" lon="11.641287048551396"><ele>455.75</ele><time>2026-03-27T09:38:36Z</time></trkpt><trkpt lat="48.34680655860592" lon="11.641435530335581"><ele>455.5</ele><time>2026-03-27T09:38:37Z</time></trkpt><trkpt lat="48.34685448189761" lon="11.64159808128396"><ele>455.25</ele><time>2026-03-27T09:38:38Z</time></trkpt><trkpt lat="48.34689135525426" lon="11.641767532754034"><ele>455.0</ele><time>2026-03-27T09:38:39Z</time></trkpt><trkpt lat="48.346920944162086" lon="11.641935857548853"><ele>454.8</ele><time>2026-03-27T09:38:40Z</time></trkpt><trkpt lat="48.3469448946389" lon="11.64209993844169"><ele>454.6</ele><time>2026-03-27T09:38:41Z</time></trkpt><trkpt lat="48.34696968710805" lon="11.642253424121332"><ele>454.4</ele><time>2026-03-27T09:38:42Z</time></trkpt><trkpt lat="48.34699397944608" lon="11.642392966734466"><ele>454.2</ele><time>2026-03-27T09:38:43Z</time></trkpt><trkpt lat="48.34702072244182" lon="11.642519516358032"><ele>454.0</ele><time>2026-03-27T09:38:44Z</time></trkpt><trkpt lat="48.34704758197182" lon="11.642628855796374"><ele>454.00000000000006</ele><time>2026-03-27T09:38:45Z</time></trkpt><trkpt lat="48.34708355187576" lon="11.642736878030579"><ele>454.0</ele><time>2026-03-27T09:38:46Z</time></trkpt><trkpt lat="48.34713022665707" lon="11.64283809019231"><ele>454.0</ele><time>2026-03-27T09:38:47Z</time></trkpt><trkpt lat="48.34718006251459" lon="11.642924034310365"><ele>454.0</ele><time>2026-03-27T09:38:48Z</time></trkpt><trkpt lat="48.34725610565464" lon="11.643022031996667"><ele>454.00000000000006</ele><time>2026-03-27T09:38:50Z</time></trkpt><trkpt lat="48.347330539153916" lon="11.64312265207181"><ele>454.0</ele><time>2026-03-27T09:38:52Z</time></trkpt><trkpt lat="48.3473580322793" lon="11.643213456216523"><ele>454.1666666666667</ele><time>2026-03-27T09:38:53Z</time></trkpt><trkpt lat="48.34737101359661" lon="11.643312318384313"><ele>454.33333333333337</ele><time>2026-03-27T09:38:54Z</time></trkpt><trkpt lat="48.34739573084329" lon="11.643404942021226"><ele>454.5</ele><time>2026-03-27T09:38:55Z</time></trkpt><trkpt lat="48.34734940740737" lon="11.64353454367572"><ele>454.66666666666663</ele><time>2026-03-27T09:38:56Z</time></trkpt><trkpt lat="48.34732144205969" lon="11.643646197601427"><ele>454.8333333333333</ele><time>2026-03-27T09:38:57Z</time></trkpt><trkpt lat="48.34728208994123" lon="11.643757900146518"><ele>455.0</ele><time>2026-03-27T09:38:58Z</time></trkpt><trkpt lat="48.347234704038385" lon="11.643875386119149"><ele>454.8</ele><time>2026-03-27T09:38:59Z</time></trkpt><trkpt lat="48.34718721229762" lon="11.643999930793019"><ele>454.6</ele><time>2026-03-27T09:39:00Z</time></trkpt><trkpt lat="48.34713946026596" lon="11.644127597573071"><ele>454.4</ele><time>2026-03-27T09:39:01Z</time></trkpt><trkpt lat="48.347088399130755" lon="11.64426446913921"><ele>454.2</ele><time>2026-03-27T09:39:02Z</time></trkpt><trkpt lat="48.347043085667444" lon="11.64440754027069"><ele>454.0</ele><time>2026-03-27T09:39:03Z</time></trkpt><trkpt lat="48.34700232469599" lon="11.644556715042762"><ele>453.75</ele><time>2026-03-27T09:39:04Z</time></trkpt><trkpt lat="48.34696583368016" lon="11.644715133642784"><ele>453.5</ele><time>2026-03-27T09:39:05Z</time></trkpt><trkpt lat="48.346932668247824" lon="11.644882644284445"><ele>453.25</ele><time>2026-03-27T09:39:06Z</time></trkpt><trkpt lat="48.34690235110709" lon="11.645059059394166"><ele>453.0</ele><time>2026-03-27T09:39:07Z</time></trkpt><trkpt lat="48.346872367609365" lon="11.645242008896469"><ele>453.0</ele><time>2026-03-27T09:39:08Z</time></trkpt><trkpt lat="48.346842647218246" lon="11.645429276340945"><ele>453.0</ele><time>2026-03-27T09:39:08.999Z</time></trkpt><trkpt lat="48.346802547938225" lon="11.645613450856576"><ele>453.0</ele><time>2026-03-27T09:39:09.999Z</time></trkpt><trkpt lat="48.346756528924935" lon="11.645792671827488"><ele>453.0</ele><time>2026-03-27T09:39:10.999Z</time></trkpt><trkpt lat="48.346697492645085" lon="11.645970641599963"><ele>453.0</ele><time>2026-03-27T09:39:11.999Z</time></trkpt><trkpt lat="48.34662963001242" lon="11.64614938694552"><ele>453.0</ele><time>2026-03-27T09:39:12.999Z</time></trkpt><trkpt lat="48.346551455071925" lon="11.646326083983206"><ele>453.0</ele><time>2026-03-27T09:39:13.999Z</time></trkpt><trkpt lat="48.34645955678977" lon="11.646491443315616"><ele>453.0</ele><time>2026-03-27T09:39:14.999Z</time></trkpt><trkpt lat="48.34635947925527" lon="11.646639569564812"><ele>453.0</ele><time>2026-03-27T09:39:15.999Z</time></trkpt><trkpt lat="48.34625205222869" lon="11.646773149442465"><ele>453.0</ele><time>2026-03-27T09:39:16.999Z</time></trkpt><trkpt lat="48.3461374521271" lon="11.646888975495898"><ele>453.0</ele><time>2026-03-27T09:39:17.999Z</time></trkpt><trkpt lat="48.34601556895354" lon="11.646997645934421"><ele>453.0</ele><time>2026-03-27T09:39:18.999Z</time></trkpt><trkpt lat="48.34588639082925" lon="11.647088388737966"><ele>453.0</ele><time>2026-03-27T09:39:19.999Z</time></trkpt><trkpt lat="48.34574988997054" lon="11.647159069745447"><ele>453.0</ele><time>2026-03-27T09:39:20.999Z</time></trkpt><trkpt lat="48.34561208592864" lon="11.64721066721804"><ele>453.0</ele><time>2026-03-27T09:39:21.999Z</time></trkpt><trkpt lat="48.34547388894745" lon="11.647240547960003"><ele>453.0</ele><time>2026-03-27T09:39:22.999Z</time></trkpt><trkpt lat="48.34533585550913" lon="11.64725141580443"><ele>453.5</ele><time>2026-03-27T09:39:23.999Z</time></trkpt><trkpt lat="48.34519756226245" lon="11.64724560078261"><ele>454.0</ele><time>2026-03-27T09:39:25.001Z</time></trkpt><trkpt lat="48.34505657688468" lon="11.647219624159694"><ele>454.5</ele><time>2026-03-27T09:39:26.001Z</time></trkpt><trkpt lat="48.34491871406063" lon="11.647149512565282"><ele>455.0</ele><time>2026-03-27T09:39:27.001Z</time></trkpt><trkpt lat="48.34477712376752" lon="11.647088979594798"><ele>455.0</ele><time>2026-03-27T09:39:28.001Z</time></trkpt><trkpt lat="48.34463747886806" lon="11.647019879673062"><ele>455.0</ele><time>2026-03-27T09:39:29.001Z</time></trkpt><trkpt lat="48.34449819034405" lon="11.646947122838196"><ele>455.0</ele><time>2026-03-27T09:39:30.001Z</time></trkpt><trkpt lat="48.34434961074481" lon="11.646868088738003"><ele>455.0</ele><time>2026-03-27T09:39:31.001Z</time></trkpt><trkpt lat="48.34420025987156" lon="11.646787321115896"><ele>455.0</ele><time>2026-03-27T09:39:32.001Z</time></trkpt><trkpt lat="48.34405122162689" lon="11.646706722631752"><ele>455.0</ele><time>2026-03-27T09:39:33.001Z</time></trkpt><trkpt lat="48.3439038402718" lon="11.646627020157785"><ele>454.3333333333333</ele><time>2026-03-27T09:39:34.001Z</time></trkpt><trkpt lat="48.343756375658174" lon="11.64654727303781"><ele>453.66666666666663</ele><time>2026-03-27T09:39:35.001Z</time></trkpt><trkpt lat="48.34360544344879" lon="11.646465652338453"><ele>453.0</ele><time>2026-03-27T09:39:36.001Z</time></trkpt><trkpt lat="48.34345206981117" lon="11.646383753253966"><ele>453.0</ele><time>2026-03-27T09:39:37.001Z</time></trkpt><trkpt lat="48.34330080714582" lon="11.646307598872697"><ele>453.0</ele><time>2026-03-27T09:39:38.001Z</time></trkpt><trkpt lat="48.343160218391176" lon="11.64623980290794"><ele>453.0</ele><time>2026-03-27T09:39:39.001Z</time></trkpt><trkpt lat="48.34301576814234" lon="11.646173643387208"><ele>453.33333333333337</ele><time>2026-03-27T09:39:40.001Z</time></trkpt><trkpt lat="48.342862898851976" lon="11.646108505240134"><ele>453.6666666666667</ele><time>2026-03-27T09:39:41.001Z</time></trkpt><trkpt lat="48.3427071441044" lon="11.646045852234094"><ele>454.0</ele><time>2026-03-27T09:39:42.001Z</time></trkpt><trkpt lat="48.34255865704318" lon="11.645986530182492"><ele>454.0</ele><time>2026-03-27T09:39:43.001Z</time></trkpt><trkpt lat="48.342415731041456" lon="11.645929429863315"><ele>454.0</ele><time>2026-03-27T09:39:44.001Z</time></trkpt><trkpt lat="48.342273523208064" lon="11.645872616077858"><ele>454.0</ele><time>2026-03-27T09:39:45.001Z</time></trkpt><trkpt lat="48.342129438799546" lon="11.645810560097967"><ele>454.0</ele><time>2026-03-27T09:39:46.001Z</time></trkpt><trkpt lat="48.34198289904967" lon="11.645753708942705"><ele>454.0</ele><time>2026-03-27T09:39:47.001Z</time></trkpt><trkpt lat="48.34183517039065" lon="11.645705166089678"><ele>454.0</ele><time>2026-03-27T09:39:48Z</time></trkpt><trkpt lat="48.341686711822334" lon="11.645663758463014"><ele>454.0</ele><time>2026-03-27T09:39:49Z</time></trkpt><trkpt lat="48.3415359478536" lon="11.64562829950221"><ele>454.0</ele><time>2026-03-27T09:39:50Z</time></trkpt><trkpt lat="48.341385330436964" lon="11.645599408531812"><ele>454.0</ele><time>2026-03-27T09:39:51Z</time></trkpt><trkpt lat="48.34122983090473" lon="11.64557762800948"><ele>454.0</ele><time>2026-03-27T09:39:52Z</time></trkpt><trkpt lat="48.34107008250737" lon="11.645569779127769"><ele>454.33333333333337</ele><time>2026-03-27T09:39:53Z</time></trkpt><trkpt lat="48.34091305839231" lon="11.645570046481865"><ele>454.66666666666663</ele><time>2026-03-27T09:39:54Z</time></trkpt><trkpt lat="48.34076038363059" lon="11.645581191852417"><ele>455.0</ele><time>2026-03-27T09:39:55Z</time></trkpt><trkpt lat="48.34061338102315" lon="11.64559972896863"><ele>455.66666666666663</ele><time>2026-03-27T09:39:56Z</time></trkpt><trkpt lat="48.340463697501434" lon="11.64563318971134"><ele>456.33333333333337</ele><time>2026-03-27T09:39:57Z</time></trkpt><trkpt lat="48.34031149263322" lon="11.645674204399402"><ele>457.0</ele><time>2026-03-27T09:39:58Z</time></trkpt><trkpt lat="48.340155585837195" lon="11.645723930933167"><ele>457.0</ele><time>2026-03-27T09:39:59Z</time></trkpt><trkpt lat="48.34000287155132" lon="11.645783199323644"><ele>457.0</ele><time>2026-03-27T09:40:00Z</time></trkpt><trkpt lat="48.33986513392441" lon="11.645846845447283"><ele>457.0</ele><time>2026-03-27T09:40:01Z</time></trkpt><trkpt lat="48.339735089939374" lon="11.645909510342673"><ele>457.0</ele><time>2026-03-27T09:40:02Z</time></trkpt><trkpt lat="48.33960361723111" lon="11.645974037676988"><ele>457.0</ele><time>2026-03-27T09:40:03Z</time></trkpt><trkpt lat="48.33947085317611" lon="11.646045030741858"><ele>457.0</ele><time>2026-03-27T09:40:04Z</time></trkpt><trkpt lat="48.339335301215506" lon="11.646118265031811"><ele>457.0</ele><time>2026-03-27T09:40:05Z</time></trkpt><trkpt lat="48.33920066344372" lon="11.64621705853555"><ele>457.0</ele><time>2026-03-27T09:40:06Z</time></trkpt><trkpt lat="48.339051650235554" lon="11.646292292000508"><ele>457.33333333333337</ele><time>2026-03-27T09:40:07Z</time></trkpt><trkpt lat="48.33889507577814" lon="11.646371224912343"><ele>457.66666666666663</ele><time>2026-03-27T09:40:08Z</time></trkpt><trkpt lat="48.33873427540118" lon="11.646447881420567"><ele>458.0</ele><time>2026-03-27T09:40:09Z</time></trkpt><trkpt lat="48.33857036334266" lon="11.646519543340386"><ele>458.0</ele><time>2026-03-27T09:40:10Z</time></trkpt><trkpt lat="48.338403934015204" lon="11.646555608500394"><ele>458.0</ele><time>2026-03-27T09:40:11Z</time></trkpt><trkpt lat="48.338246840329965" lon="11.64660243586171"><ele>458.0</ele><time>2026-03-27T09:40:12Z</time></trkpt><trkpt lat="48.33809257467549" lon="11.64663541432213"><ele>458.66666666666663</ele><time>2026-03-27T09:40:13Z</time></trkpt><trkpt lat="48.337937041425484" lon="11.646660097478616"><ele>459.33333333333337</ele><time>2026-03-27T09:40:14Z</time></trkpt><trkpt lat="48.33777636024058" lon="11.646675697759951"><ele>460.0</ele><time>2026-03-27T09:40:15Z</time></trkpt><trkpt lat="48.33761174909329" lon="11.646678840724851"><ele>460.0</ele><time>2026-03-27T09:40:16Z</time></trkpt><trkpt lat="48.337445762449626" lon="11.646669288488672"><ele>460.0</ele><time>2026-03-27T09:40:17Z</time></trkpt><trkpt lat="48.33728221924649" lon="11.64664921427748"><ele>460.0</ele><time>2026-03-27T09:40:18Z</time></trkpt><trkpt lat="48.33711913740157" lon="11.64661955157887"><ele>459.33333333333337</ele><time>2026-03-27T09:40:19Z</time></trkpt><trkpt lat="48.33695829764947" lon="11.646578001578456"><ele>458.66666666666663</ele><time>2026-03-27T09:40:19.999Z</time></trkpt><trkpt lat="48.33680078493853" lon="11.646526327017058"><ele>458.0</ele><time>2026-03-27T09:40:20.999Z</time></trkpt><trkpt lat="48.33664456602945" lon="11.64646400835898"><ele>458.0</ele><time>2026-03-27T09:40:21.999Z</time></trkpt><trkpt lat="48.33648949916257" lon="11.64639053458947"><ele>458.0</ele><time>2026-03-27T09:40:22.999Z</time></trkpt><trkpt lat="48.336346630916736" lon="11.646308813938687"><ele>458.0</ele><time>2026-03-27T09:40:23.999Z</time></trkpt><trkpt lat="48.33620243064286" lon="11.646221413746398"><ele>457.0</ele><time>2026-03-27T09:40:24.999Z</time></trkpt><trkpt lat="48.33605799400396" lon="11.64612132154067"><ele>456.0</ele><time>2026-03-27T09:40:25.999Z</time></trkpt><trkpt lat="48.335914775170565" lon="11.646013163688306"><ele>455.0</ele><time>2026-03-27T09:40:26.999Z</time></trkpt><trkpt lat="48.33577486890339" lon="11.645901532854285"><ele>455.0</ele><time>2026-03-27T09:40:27.999Z</time></trkpt><trkpt lat="48.335635405058476" lon="11.645786560134374"><ele>455.0</ele><time>2026-03-27T09:40:28.999Z</time></trkpt><trkpt lat="48.335496908280774" lon="11.645669579403197"><ele>455.0</ele><time>2026-03-27T09:40:29.999Z</time></trkpt><trkpt lat="48.33536177236537" lon="11.645547355899271"><ele>455.0</ele><time>2026-03-27T09:40:30.999Z</time></trkpt><trkpt lat="48.33522721341947" lon="11.645424832434758"><ele>455.0</ele><time>2026-03-27T09:40:31.999Z</time></trkpt><trkpt lat="48.33509285475039" lon="11.64530449608648"><ele>455.0</ele><time>2026-03-27T09:40:32.999Z</time></trkpt><trkpt lat="48.334959188739184" lon="11.645184780236251"><ele>455.0</ele><time>2026-03-27T09:40:33.999Z</time></trkpt><trkpt lat="48.33482647731322" lon="11.645067058185973"><ele>455.0</ele><time>2026-03-27T09:40:34.999Z</time></trkpt><trkpt lat="48.334692813176424" lon="11.644951217110531"><ele>455.0</ele><time>2026-03-27T09:40:35.999Z</time></trkpt><trkpt lat="48.334560915997756" lon="11.644837148668552"><ele>455.0</ele><time>2026-03-27T09:40:36.999Z</time></trkpt><trkpt lat="48.33442224499281" lon="11.644732653896623"><ele>455.0</ele><time>2026-03-27T09:40:37.999Z</time></trkpt><trkpt lat="48.33428370551806" lon="11.64463099462609"><ele>455.0</ele><time>2026-03-27T09:40:38.999Z</time></trkpt><trkpt lat="48.33414013017586" lon="11.644538671558827"><ele>455.3333333333333</ele><time>2026-03-27T09:40:39.999Z</time></trkpt><trkpt lat="48.33399479994106" lon="11.6444493537702"><ele>455.66666666666663</ele><time>2026-03-27T09:40:40.999Z</time></trkpt><trkpt lat="48.33384626729399" lon="11.644362721261547"><ele>456.0</ele><time>2026-03-27T09:40:41.999Z</time></trkpt><trkpt lat="48.33369418630765" lon="11.644284704856497"><ele>456.33333333333337</ele><time>2026-03-27T09:40:42.999Z</time></trkpt><trkpt lat="48.33354556001504" lon="11.644216578521538"><ele>456.6666666666667</ele><time>2026-03-27T09:40:43.999Z</time></trkpt><trkpt lat="48.333402059573366" lon="11.644157287693227"><ele>457.0</ele><time>2026-03-27T09:40:44.999Z</time></trkpt><trkpt lat="48.33325362130447" lon="11.644103632022409"><ele>457.0</ele><time>2026-03-27T09:40:45.999Z</time></trkpt><trkpt lat="48.33310234379167" lon="11.644056408109586"><ele>457.0</ele><time>2026-03-27T09:40:46.999Z</time></trkpt><trkpt lat="48.332946213757346" lon="11.64401340133371"><ele>457.0</ele><time>2026-03-27T09:40:47.999Z</time></trkpt><trkpt lat="48.33279591006216" lon="11.643981006084626"><ele>456.6666666666667</ele><time>2026-03-27T09:40:48.999Z</time></trkpt><trkpt lat="48.33264769013893" lon="11.643954521756713"><ele>456.33333333333337</ele><time>2026-03-27T09:40:49.999Z</time></trkpt><trkpt lat="48.33249189718456" lon="11.643935993518362"><ele>456.0</ele><time>2026-03-27T09:40:50.999Z</time></trkpt><trkpt lat="48.33233120721494" lon="11.643925886153326"><ele>456.0</ele><time>2026-03-27T09:40:51.999Z</time></trkpt><trkpt lat="48.33216455014702" lon="11.643919625931138"><ele>456.0</ele><time>2026-03-27T09:40:52.999Z</time></trkpt><trkpt lat="48.33199521327136" lon="11.643923705547778"><ele>456.0</ele><time>2026-03-27T09:40:53.999Z</time></trkpt><trkpt lat="48.33183756173571" lon="11.643940230113115"><ele>456.0</ele><time>2026-03-27T09:40:54.999Z</time></trkpt><trkpt lat="48.331691891659226" lon="11.643957051537276"><ele>456.0</ele><time>2026-03-27T09:40:55.999Z</time></trkpt><trkpt lat="48.331534789181774" lon="11.643985636776605"><ele>456.0</ele><time>2026-03-27T09:40:56.999Z</time></trkpt><trkpt lat="48.331374000258776" lon="11.644022048360636"><ele>456.0</ele><time>2026-03-27T09:40:57.999Z</time></trkpt><trkpt lat="48.33120787369029" lon="11.644062037792509"><ele>456.0</ele><time>2026-03-27T09:40:58.999Z</time></trkpt><trkpt lat="48.33104909782623" lon="11.644108870700174"><ele>456.0</ele><time>2026-03-27T09:40:59.999Z</time></trkpt><trkpt lat="48.330888589484296" lon="11.644165218788377"><ele>456.0</ele><time>2026-03-27T09:41:00.999Z</time></trkpt><trkpt lat="48.33072340344373" lon="11.644226658230854"><ele>456.0</ele><time>2026-03-27T09:41:01.999Z</time></trkpt><trkpt lat="48.33055869771837" lon="11.644291772839525"><ele>456.0</ele><time>2026-03-27T09:41:02.999Z</time></trkpt><trkpt lat="48.33040524604753" lon="11.644393017631797"><ele>456.0</ele><time>2026-03-27T09:41:03.999Z</time></trkpt><trkpt lat="48.330249189830724" lon="11.644459749794889"><ele>456.0</ele><time>2026-03-27T09:41:04.999Z</time></trkpt><trkpt lat="48.330089118066674" lon="11.644531010016987"><ele>456.0</ele><time>2026-03-27T09:41:05.999Z</time></trkpt><trkpt lat="48.32992828085067" lon="11.644605291989889"><ele>456.33333333333337</ele><time>2026-03-27T09:41:06.999Z</time></trkpt><trkpt lat="48.329766232859704" lon="11.64468088146661"><ele>456.6666666666667</ele><time>2026-03-27T09:41:07.999Z</time></trkpt><trkpt lat="48.32960888313653" lon="11.644753696276108"><ele>457.0</ele><time>2026-03-27T09:41:08.999Z</time></trkpt><trkpt lat="48.329458509782576" lon="11.644821265422268"><ele>457.0</ele><time>2026-03-27T09:41:09.999Z</time></trkpt><trkpt lat="48.32930857147178" lon="11.644891047662592"><ele>457.0</ele><time>2026-03-27T09:41:10.999Z</time></trkpt><trkpt lat="48.329156537760106" lon="11.6449610258876"><ele>457.0</ele><time>2026-03-27T09:41:11.998Z</time></trkpt><trkpt lat="48.32900334728663" lon="11.645031801382947"><ele>457.33333333333337</ele><time>2026-03-27T09:41:12.998Z</time></trkpt><trkpt lat="48.32885548756061" lon="11.64509757504472"><ele>457.66666666666663</ele><time>2026-03-27T09:41:13.998Z</time></trkpt><trkpt lat="48.32871049249896" lon="11.645163349240825"><ele>458.0</ele><time>2026-03-27T09:41:14.998Z</time></trkpt><trkpt lat="48.328566544935526" lon="11.645232440771492"><ele>457.66666666666663</ele><time>2026-03-27T09:41:15.998Z</time></trkpt><trkpt lat="48.32841996578937" lon="11.645301201967746"><ele>457.33333333333337</ele><time>2026-03-27T09:41:16.998Z</time></trkpt><trkpt lat="48.32826669055843" lon="11.64537127118613"><ele>457.0</ele><time>2026-03-27T09:41:17.998Z</time></trkpt><trkpt lat="48.32810579330448" lon="11.645441921501298"><ele>457.6666666666667</ele><time>2026-03-27T09:41:18.998Z</time></trkpt><trkpt lat="48.32794537561699" lon="11.645520559394162"><ele>458.33333333333337</ele><time>2026-03-27T09:41:19.998Z</time></trkpt><trkpt lat="48.327787199765304" lon="11.645595461319568"><ele>459.0</ele><time>2026-03-27T09:41:20.998Z</time></trkpt><trkpt lat="48.3276279999969" lon="11.645625779329047"><ele>459.0</ele><time>2026-03-27T09:41:21.998Z</time></trkpt><trkpt lat="48.32747747872365" lon="11.645695040178381"><ele>459.0</ele><time>2026-03-27T09:41:22.998Z</time></trkpt><trkpt lat="48.32732833870391" lon="11.645763811819174"><ele>459.0</ele><time>2026-03-27T09:41:23.998Z</time></trkpt><trkpt lat="48.32717686167621" lon="11.645834122731582"><ele>458.66666666666663</ele><time>2026-03-27T09:41:24.998Z</time></trkpt><trkpt lat="48.32701915596112" lon="11.645906729363462"><ele>458.3333333333333</ele><time>2026-03-27T09:41:25.998Z</time></trkpt><trkpt lat="48.326858182297705" lon="11.645981313182663"><ele>458.0</ele><time>2026-03-27T09:41:26.998Z</time></trkpt><trkpt lat="48.326694320943666" lon="11.646057234919358"><ele>458.0</ele><time>2026-03-27T09:41:27.998Z</time></trkpt><trkpt lat="48.3265312795266" lon="11.646132223810612"><ele>458.0</ele><time>2026-03-27T09:41:28.998Z</time></trkpt><trkpt lat="48.326370580935205" lon="11.646205821052096"><ele>458.0</ele><time>2026-03-27T09:41:29.998Z</time></trkpt><trkpt lat="48.32621268171342" lon="11.646278266271437"><ele>458.0</ele><time>2026-03-27T09:41:31Z</time></trkpt><trkpt lat="48.32606008199969" lon="11.646348628308957"><ele>458.0</ele><time>2026-03-27T09:41:32Z</time></trkpt><trkpt lat="48.325907386450154" lon="11.646419023474154"><ele>458.0</ele><time>2026-03-27T09:41:33Z</time></trkpt><trkpt lat="48.32575478682694" lon="11.646489374334351"><ele>458.0</ele><time>2026-03-27T09:41:34Z</time></trkpt><trkpt lat="48.32559713805571" lon="11.646562184223264"><ele>458.0</ele><time>2026-03-27T09:41:35Z</time></trkpt><trkpt lat="48.32544144736047" lon="11.646634268049004"><ele>458.0</ele><time>2026-03-27T09:41:36Z</time></trkpt><trkpt lat="48.325291786362776" lon="11.646703520856184"><ele>458.0</ele><time>2026-03-27T09:41:37Z</time></trkpt><trkpt lat="48.32514226291426" lon="11.646772272590162"><ele>458.0</ele><time>2026-03-27T09:41:38Z</time></trkpt><trkpt lat="48.32499014996322" lon="11.646841828289649"><ele>458.0</ele><time>2026-03-27T09:41:39Z</time></trkpt><trkpt lat="48.32483506923376" lon="11.646912205859856"><ele>458.0</ele><time>2026-03-27T09:41:40Z</time></trkpt><trkpt lat="48.32468208029778" lon="11.646978879583017"><ele>458.0</ele><time>2026-03-27T09:41:41Z</time></trkpt><trkpt lat="48.32453034035075" lon="11.647047156928867"><ele>458.0</ele><time>2026-03-27T09:41:42Z</time></trkpt><trkpt lat="48.32437804922373" lon="11.647120362060088"><ele>458.0</ele><time>2026-03-27T09:41:43Z</time></trkpt><trkpt lat="48.32422488266616" lon="11.647219376760882"><ele>458.0</ele><time>2026-03-27T09:41:44Z</time></trkpt><trkpt lat="48.324061184983144" lon="11.647269265184368"><ele>458.0</ele><time>2026-03-27T09:41:45Z</time></trkpt><trkpt lat="48.32391293835182" lon="11.647362106564763"><ele>458.0</ele><time>2026-03-27T09:41:46Z</time></trkpt><trkpt lat="48.323760045314316" lon="11.647431353665743"><ele>458.0</ele><time>2026-03-27T09:41:47Z</time></trkpt><trkpt lat="48.323601009626735" lon="11.64750382845516"><ele>458.0</ele><time>2026-03-27T09:41:48Z</time></trkpt><trkpt lat="48.32344581859703" lon="11.647578715639435"><ele>458.0</ele><time>2026-03-27T09:41:49Z</time></trkpt><trkpt lat="48.3232922199037" lon="11.64762186184662"><ele>458.0</ele><time>2026-03-27T09:41:50Z</time></trkpt><trkpt lat="48.32314154617873" lon="11.64768971157059"><ele>458.0</ele><time>2026-03-27T09:41:51Z</time></trkpt><trkpt lat="48.32298780251198" lon="11.647759552444795"><ele>458.3333333333333</ele><time>2026-03-27T09:41:52Z</time></trkpt><trkpt lat="48.32283288372351" lon="11.64782912936262"><ele>458.66666666666663</ele><time>2026-03-27T09:41:53Z</time></trkpt><trkpt lat="48.322683879790446" lon="11.647895385619785"><ele>459.0</ele><time>2026-03-27T09:41:54Z</time></trkpt><trkpt lat="48.322534402793146" lon="11.647961852234499"><ele>459.0</ele><time>2026-03-27T09:41:55Z</time></trkpt><trkpt lat="48.322380466499176" lon="11.64803245542131"><ele>459.0</ele><time>2026-03-27T09:41:56Z</time></trkpt><trkpt lat="48.322229490785126" lon="11.648104148684261"><ele>459.0</ele><time>2026-03-27T09:41:57Z</time></trkpt><trkpt lat="48.3220816714633" lon="11.648177182131068"><ele>458.33333333333337</ele><time>2026-03-27T09:41:58Z</time></trkpt><trkpt lat="48.32193176885822" lon="11.648251613550558"><ele>457.6666666666667</ele><time>2026-03-27T09:41:59Z</time></trkpt><trkpt lat="48.32178103082166" lon="11.648330012101809"><ele>457.0</ele><time>2026-03-27T09:42:00Z</time></trkpt><trkpt lat="48.32163818608196" lon="11.648409691056957"><ele>457.0</ele><time>2026-03-27T09:42:01Z</time></trkpt><trkpt lat="48.321500542542886" lon="11.64848930459866"><ele>457.0</ele><time>2026-03-27T09:42:02Z</time></trkpt><trkpt lat="48.321368544435394" lon="11.648592367659612"><ele>457.0</ele><time>2026-03-27T09:42:03Z</time></trkpt><trkpt lat="48.321228563948885" lon="11.648675112877283"><ele>457.0</ele><time>2026-03-27T09:42:03.999Z</time></trkpt><trkpt lat="48.3210874548629" lon="11.64876404677119"><ele>456.6666666666667</ele><time>2026-03-27T09:42:04.999Z</time></trkpt><trkpt lat="48.32094689779478" lon="11.648851658821759"><ele>456.33333333333337</ele><time>2026-03-27T09:42:05.999Z</time></trkpt><trkpt lat="48.32080671328708" lon="11.648943579180747"><ele>456.0</ele><time>2026-03-27T09:42:06.999Z</time></trkpt><trkpt lat="48.32065744395362" lon="11.649018614094526"><ele>456.66666666666663</ele><time>2026-03-27T09:42:07.999Z</time></trkpt><trkpt lat="48.32050582128524" lon="11.64912122598076"><ele>457.3333333333333</ele><time>2026-03-27T09:42:08.999Z</time></trkpt><trkpt lat="48.32035956953905" lon="11.649223339310966"><ele>458.0</ele><time>2026-03-27T09:42:09.999Z</time></trkpt><trkpt lat="48.320217768358624" lon="11.649323151492512"><ele>458.0</ele><time>2026-03-27T09:42:10.999Z</time></trkpt><trkpt lat="48.320074936422095" lon="11.649423788287447"><ele>458.0</ele><time>2026-03-27T09:42:11.999Z</time></trkpt><trkpt lat="48.3199315558995" lon="11.649526467549189"><ele>458.0</ele><time>2026-03-27T09:42:12.999Z</time></trkpt><trkpt lat="48.31978674510909" lon="11.649630889131585"><ele>458.3333333333333</ele><time>2026-03-27T09:42:13.999Z</time></trkpt><trkpt lat="48.31964228889167" lon="11.649735938896423"><ele>458.66666666666663</ele><time>2026-03-27T09:42:14.999Z</time></trkpt><trkpt lat="48.31949890013227" lon="11.649840837140564"><ele>459.0</ele><time>2026-03-27T09:42:15.999Z</time></trkpt><trkpt lat="48.3193565174111" lon="11.649944999403255"><ele>459.0</ele><time>2026-03-27T09:42:16.999Z</time></trkpt><trkpt lat="48.31921617886161" lon="11.650048224286916"><ele>459.0</ele><time>2026-03-27T09:42:17.999Z</time></trkpt><trkpt lat="48.31907476075599" lon="11.650153371622915"><ele>459.0</ele><time>2026-03-27T09:42:18.999Z</time></trkpt><trkpt lat="48.318931572858396" lon="11.650260660431666"><ele>459.33333333333337</ele><time>2026-03-27T09:42:19.999Z</time></trkpt><trkpt lat="48.31878709571224" lon="11.650370309353747"><ele>459.6666666666667</ele><time>2026-03-27T09:42:20.999Z</time></trkpt><trkpt lat="48.3186428063551" lon="11.650482300537925"><ele>460.0</ele><time>2026-03-27T09:42:21.999Z</time></trkpt><trkpt lat="48.3185000856442" lon="11.650597394889946"><ele>460.0</ele><time>2026-03-27T09:42:22.999Z</time></trkpt><trkpt lat="48.31835820143194" lon="11.650712592419671"><ele>460.0</ele><time>2026-03-27T09:42:23.999Z</time></trkpt><trkpt lat="48.318219131065" lon="11.650825505358068"><ele>460.0</ele><time>2026-03-27T09:42:24.999Z</time></trkpt><trkpt lat="48.3180830662286" lon="11.650936307368143"><ele>460.0</ele><time>2026-03-27T09:42:25.999Z</time></trkpt><trkpt lat="48.31794994727463" lon="11.651045917325412"><ele>460.0</ele><time>2026-03-27T09:42:26.999Z</time></trkpt><trkpt lat="48.3178173713136" lon="11.651157037814292"><ele>460.0</ele><time>2026-03-27T09:42:27.999Z</time></trkpt><trkpt lat="48.31768483593432" lon="11.651269904932615"><ele>460.6666666666667</ele><time>2026-03-27T09:42:28.999Z</time></trkpt><trkpt lat="48.31755211885975" lon="11.651382926781219"><ele>461.33333333333337</ele><time>2026-03-27T09:42:29.999Z</time></trkpt><trkpt lat="48.31741832724855" lon="11.65149630755112"><ele>462.0</ele><time>2026-03-27T09:42:30.999Z</time></trkpt><trkpt lat="48.31728466915364" lon="11.651609090907721"><ele>461.5</ele><time>2026-03-27T09:42:31.999Z</time></trkpt><trkpt lat="48.31715359526573" lon="11.651720670992326"><ele>461.0</ele><time>2026-03-27T09:42:32.999Z</time></trkpt><trkpt lat="48.31702778848724" lon="11.651832539454697"><ele>460.5</ele><time>2026-03-27T09:42:33.999Z</time></trkpt><trkpt lat="48.31690255658841" lon="11.651946005064108"><ele>460.0</ele><time>2026-03-27T09:42:34.999Z</time></trkpt><trkpt lat="48.31677717624712" lon="11.652059951969758"><ele>460.0</ele><time>2026-03-27T09:42:35.999Z</time></trkpt><trkpt lat="48.316649834982535" lon="11.652177472743245"><ele>460.0</ele><time>2026-03-27T09:42:36.999Z</time></trkpt><trkpt lat="48.3165266150758" lon="11.652294355225024"><ele>460.0</ele><time>2026-03-27T09:42:37.999Z</time></trkpt><trkpt lat="48.31642299625706" lon="11.652419322934646"><ele>460.0</ele><time>2026-03-27T09:42:38.999Z</time></trkpt><trkpt lat="48.3163187861234" lon="11.652515658897867"><ele>460.25</ele><time>2026-03-27T09:42:39.999Z</time></trkpt><trkpt lat="48.316222463477544" lon="11.652604768976476"><ele>460.5</ele><time>2026-03-27T09:42:40.999Z</time></trkpt><trkpt lat="48.31613027965133" lon="11.65268913316281"><ele>460.75</ele><time>2026-03-27T09:42:41.999Z</time></trkpt><trkpt lat="48.316016486066225" lon="11.65279514487062"><ele>461.0</ele><time>2026-03-27T09:42:42.999Z</time></trkpt><trkpt lat="48.3158895250071" lon="11.65288883173744"><ele>461.5</ele><time>2026-03-27T09:42:43.999Z</time></trkpt><trkpt lat="48.315781215645266" lon="11.652991162643465"><ele>462.0</ele><time>2026-03-27T09:42:44.999Z</time></trkpt><trkpt lat="48.3156780621465" lon="11.653088907094125"><ele>462.5</ele><time>2026-03-27T09:42:45.999Z</time></trkpt><trkpt lat="48.315588980945925" lon="11.653199388126696"><ele>463.0</ele><time>2026-03-27T09:42:46.999Z</time></trkpt><trkpt lat="48.315499162032935" lon="11.653283606974878"><ele>463.0</ele><time>2026-03-27T09:42:47.999Z</time></trkpt><trkpt lat="48.315415162822276" lon="11.65336625920864"><ele>462.99999999999994</ele><time>2026-03-27T09:42:48.999Z</time></trkpt><trkpt lat="48.31533096540841" lon="11.65344812396734"><ele>462.99999999999994</ele><time>2026-03-27T09:42:49.999Z</time></trkpt><trkpt lat="48.315243774008515" lon="11.65353540602363"><ele>463.0</ele><time>2026-03-27T09:42:50.999Z</time></trkpt><trkpt lat="48.315158904257856" lon="11.653623254561577"><ele>463.0</ele><time>2026-03-27T09:42:51.999Z</time></trkpt><trkpt lat="48.31507448516146" lon="11.653710767050468"><ele>462.59999999999997</ele><time>2026-03-27T09:42:52.999Z</time></trkpt><trkpt lat="48.31498804954625" lon="11.653795032039083"><ele>462.19999999999993</ele><time>2026-03-27T09:42:53.999Z</time></trkpt><trkpt lat="48.31490170059403" lon="11.653877271062628"><ele>461.8</ele><time>2026-03-27T09:42:54.999Z</time></trkpt><trkpt lat="48.31481508673149" lon="11.65396259566787"><ele>461.4</ele><time>2026-03-27T09:42:55.999Z</time></trkpt><trkpt lat="48.31472706798387" lon="11.654051622099011"><ele>461.0</ele><time>2026-03-27T09:42:56.999Z</time></trkpt><trkpt lat="48.31463728646033" lon="11.654138079678056"><ele>461.0</ele><time>2026-03-27T09:42:57.999Z</time></trkpt><trkpt lat="48.31454643111735" lon="11.65422306842342"><ele>461.0</ele><time>2026-03-27T09:42:58.999Z</time></trkpt><trkpt lat="48.31445449922529" lon="11.654309089412529"><ele>461.0</ele><time>2026-03-27T09:42:59.999Z</time></trkpt><trkpt lat="48.31436350622716" lon="11.65439408253085"><ele>461.0</ele><time>2026-03-27T09:43:00.999Z</time></trkpt><trkpt lat="48.314271835695386" lon="11.654478144721145"><ele>461.0</ele><time>2026-03-27T09:43:01.999Z</time></trkpt><trkpt lat="48.314180562045486" lon="11.654561865134523"><ele>461.25</ele><time>2026-03-27T09:43:02.999Z</time></trkpt><trkpt lat="48.31408861894335" lon="11.654648428288223"><ele>461.5</ele><time>2026-03-27T09:43:03.999Z</time></trkpt><trkpt lat="48.31399551483842" lon="11.654730787608383"><ele>461.75</ele><time>2026-03-27T09:43:04.999Z</time></trkpt><trkpt lat="48.31389950342906" lon="11.654820442912825"><ele>462.0</ele><time>2026-03-27T09:43:05.999Z</time></trkpt><trkpt lat="48.31378883500054" lon="11.654922808654547"><ele>462.0</ele><time>2026-03-27T09:43:06.999Z</time></trkpt><trkpt lat="48.31367794957489" lon="11.655026844294326"><ele>462.0</ele><time>2026-03-27T09:43:07.999Z</time></trkpt><trkpt lat="48.31358172400891" lon="11.655116783085667"><ele>462.0</ele><time>2026-03-27T09:43:08.999Z</time></trkpt><trkpt lat="48.31348197797695" lon="11.655205602960223"><ele>462.0</ele><time>2026-03-27T09:43:09.999Z</time></trkpt><trkpt lat="48.31337412770914" lon="11.655309039708667"><ele>462.0</ele><time>2026-03-27T09:43:10.999Z</time></trkpt><trkpt lat="48.31325783694847" lon="11.6554151978141"><ele>462.0</ele><time>2026-03-27T09:43:11.999Z</time></trkpt><trkpt lat="48.31315254571005" lon="11.655518504126993"><ele>462.0</ele><time>2026-03-27T09:43:12.999Z</time></trkpt><trkpt lat="48.31305536844367" lon="11.655606275259435"><ele>462.0</ele><time>2026-03-27T09:43:13.999Z</time></trkpt><trkpt lat="48.31295690920651" lon="11.655690422994956"><ele>462.0</ele><time>2026-03-27T09:43:14.999Z</time></trkpt><trkpt lat="48.312859563779334" lon="11.65577587790006"><ele>462.0</ele><time>2026-03-27T09:43:15.999Z</time></trkpt><trkpt lat="48.31276135508279" lon="11.655861560453303"><ele>462.0</ele><time>2026-03-27T09:43:16.999Z</time></trkpt><trkpt lat="48.312665641937116" lon="11.655951734637707"><ele>462.0</ele><time>2026-03-27T09:43:17.999Z</time></trkpt><trkpt lat="48.3125686644136" lon="11.656042197876612"><ele>462.5</ele><time>2026-03-27T09:43:18.999Z</time></trkpt><trkpt lat="48.312472295335574" lon="11.656135630346801"><ele>463.0</ele><time>2026-03-27T09:43:19.999Z</time></trkpt><trkpt lat="48.31237326581317" lon="11.656236164300438"><ele>463.5</ele><time>2026-03-27T09:43:20.999Z</time></trkpt><trkpt lat="48.312261399698706" lon="11.656313351171429"><ele>464.0</ele><time>2026-03-27T09:43:21.999Z</time></trkpt><trkpt lat="48.31215485400384" lon="11.65641301667423"><ele>464.0</ele><time>2026-03-27T09:43:22.999Z</time></trkpt><trkpt lat="48.31204881452156" lon="11.656511668697634"><ele>464.0</ele><time>2026-03-27T09:43:23.999Z</time></trkpt><trkpt lat="48.311955792376864" lon="11.65659748870583"><ele>464.0</ele><time>2026-03-27T09:43:24.999Z</time></trkpt><trkpt lat="48.31187202614606" lon="11.656674714998516"><ele>464.0</ele><time>2026-03-27T09:43:25.999Z</time></trkpt><trkpt lat="48.3117995934542" lon="11.65677076573708"><ele>464.0</ele><time>2026-03-27T09:43:26.999Z</time></trkpt><trkpt lat="48.311721880684" lon="11.65684244147872"><ele>463.99999999999994</ele><time>2026-03-27T09:43:27.999Z</time></trkpt><trkpt lat="48.311644194055674" lon="11.656910891013988"><ele>464.0</ele><time>2026-03-27T09:43:28.999Z</time></trkpt><trkpt lat="48.311565096899024" lon="11.65698110454888"><ele>464.0</ele><time>2026-03-27T09:43:29.999Z</time></trkpt><trkpt lat="48.31148768093415" lon="11.657048872035142"><ele>464.0</ele><time>2026-03-27T09:43:30.999Z</time></trkpt><trkpt lat="48.31141950605865" lon="11.657109669616611"><ele>463.99999999999994</ele><time>2026-03-27T09:43:31.999Z</time></trkpt><trkpt lat="48.31135355706099" lon="11.657165135762224"><ele>464.0</ele><time>2026-03-27T09:43:32.999Z</time></trkpt><trkpt lat="48.31129028804269" lon="11.657213786545608"><ele>464.0</ele><time>2026-03-27T09:43:33.999Z</time></trkpt><trkpt lat="48.31123159223311" lon="11.657253468206415"><ele>464.0</ele><time>2026-03-27T09:43:34.998Z</time></trkpt><trkpt lat="48.311119494598096" lon="11.65728702323911"><ele>464.0</ele><time>2026-03-27T09:43:37Z</time></trkpt><trkpt lat="48.311022072297774" lon="11.657208064223685"><ele>464.0</ele><time>2026-03-27T09:43:39Z</time></trkpt><trkpt lat="48.31092538127799" lon="11.65709489309192"><ele>464.0</ele><time>2026-03-27T09:43:41Z</time></trkpt><trkpt lat="48.31090144295762" lon="11.656952075004847"><ele>463.6</ele><time>2026-03-27T09:43:42Z</time></trkpt><trkpt lat="48.310866727994" lon="11.65683203675745"><ele>463.2</ele><time>2026-03-27T09:43:43Z</time></trkpt><trkpt lat="48.310832250156494" lon="11.656713012247963"><ele>462.80000000000007</ele><time>2026-03-27T09:43:44Z</time></trkpt><trkpt lat="48.310797735379914" lon="11.656577878941224"><ele>462.40000000000003</ele><time>2026-03-27T09:43:45Z</time></trkpt><trkpt lat="48.31075760879487" lon="11.656432327909991"><ele>462.0</ele><time>2026-03-27T09:43:46Z</time></trkpt><trkpt lat="48.310717761308496" lon="11.656282842136383"><ele>462.0</ele><time>2026-03-27T09:43:47Z</time></trkpt><trkpt lat="48.31067358767575" lon="11.656125398572021"><ele>462.00000000000006</ele><time>2026-03-27T09:43:48Z</time></trkpt><trkpt lat="48.310632254144416" lon="11.655964168860525"><ele>462.00000000000006</ele><time>2026-03-27T09:43:49Z</time></trkpt><trkpt lat="48.310587135673565" lon="11.655812319387088"><ele>462.0</ele><time>2026-03-27T09:43:50Z</time></trkpt><trkpt lat="48.31056349194927" lon="11.655655458344931"><ele>462.0</ele><time>2026-03-27T09:43:51Z</time></trkpt><trkpt lat="48.31052448121105" lon="11.65549669368209"><ele>462.25</ele><time>2026-03-27T09:43:52Z</time></trkpt><trkpt lat="48.31048273917211" lon="11.655329780565758"><ele>462.5</ele><time>2026-03-27T09:43:53Z</time></trkpt><trkpt lat="48.31043772098375" lon="11.655158952309522"><ele>462.75</ele><time>2026-03-27T09:43:54Z</time></trkpt><trkpt lat="48.3103918909112" lon="11.654992235337245"><ele>463.0</ele><time>2026-03-27T09:43:55Z</time></trkpt><trkpt lat="48.3103410616931" lon="11.654810352347285"><ele>463.0</ele><time>2026-03-27T09:43:56Z</time></trkpt><trkpt lat="48.310289832859866" lon="11.654631259660452"><ele>463.0</ele><time>2026-03-27T09:43:57Z</time></trkpt><trkpt lat="48.310237252891866" lon="11.654454399772433"><ele>463.0</ele><time>2026-03-27T09:43:58Z</time></trkpt><trkpt lat="48.31018402732309" lon="11.654280321503647"><ele>463.0</ele><time>2026-03-27T09:43:59Z</time></trkpt><trkpt lat="48.31012898372896" lon="11.654105727404323"><ele>463.25</ele><time>2026-03-27T09:44:00Z</time></trkpt><trkpt lat="48.31007107194677" lon="11.653930979151497"><ele>463.5</ele><time>2026-03-27T09:44:01Z</time></trkpt><trkpt lat="48.30999495532834" lon="11.653765172883642"><ele>463.75</ele><time>2026-03-27T09:44:02Z</time></trkpt><trkpt lat="48.30992902290511" lon="11.653592900691336"><ele>464.0</ele><time>2026-03-27T09:44:03Z</time></trkpt><trkpt lat="48.30986995074634" lon="11.653429891744144"><ele>464.0</ele><time>2026-03-27T09:44:04Z</time></trkpt><trkpt lat="48.30980668524053" lon="11.6532679692584"><ele>464.0</ele><time>2026-03-27T09:44:05Z</time></trkpt><trkpt lat="48.309740445069714" lon="11.65310516706336"><ele>464.0</ele><time>2026-03-27T09:44:06Z</time></trkpt><trkpt lat="48.309687036978985" lon="11.652924622863807"><ele>464.0</ele><time>2026-03-27T09:44:07Z</time></trkpt><trkpt lat="48.30961622353733" lon="11.652745952587416"><ele>464.25</ele><time>2026-03-27T09:44:08Z</time></trkpt><trkpt lat="48.30954551556091" lon="11.652567549367344"><ele>464.5</ele><time>2026-03-27T09:44:09Z</time></trkpt><trkpt lat="48.309482654288644" lon="11.65240880040293"><ele>464.75</ele><time>2026-03-27T09:44:10Z</time></trkpt><trkpt lat="48.30942493251791" lon="11.652263044557955"><ele>465.0</ele><time>2026-03-27T09:44:11Z</time></trkpt><trkpt lat="48.30937277671209" lon="11.652131343323314"><ele>465.0</ele><time>2026-03-27T09:44:12Z</time></trkpt><trkpt lat="48.30932597703014" lon="11.652012309630036"><ele>465.0</ele><time>2026-03-27T09:44:13Z</time></trkpt><trkpt lat="48.3092846328649" lon="11.651904094886003"><ele>465.0</ele><time>2026-03-27T09:44:14Z</time></trkpt><trkpt lat="48.30924325031054" lon="11.65179577972038"><ele>465.0</ele><time>2026-03-27T09:44:15Z</time></trkpt><trkpt lat="48.30919732763872" lon="11.651675581146039"><ele>465.0</ele><time>2026-03-27T09:44:16Z</time></trkpt><trkpt lat="48.30915261878284" lon="11.65155855973699"><ele>465.0</ele><time>2026-03-27T09:44:16.999Z</time></trkpt><trkpt lat="48.30910785318875" lon="11.65144138971912"><ele>464.8333333333333</ele><time>2026-03-27T09:44:17.999Z</time></trkpt><trkpt lat="48.309063505658735" lon="11.651325313973937"><ele>464.66666666666663</ele><time>2026-03-27T09:44:18.999Z</time></trkpt><trkpt lat="48.30901950228665" lon="11.651211374861258"><ele>464.5</ele><time>2026-03-27T09:44:19.999Z</time></trkpt><trkpt lat="48.30897604272252" lon="11.651100984268181"><ele>464.3333333333333</ele><time>2026-03-27T09:44:20.999Z</time></trkpt><trkpt lat="48.30893254481412" lon="11.65099049622266"><ele>464.16666666666663</ele><time>2026-03-27T09:44:21.999Z</time></trkpt><trkpt lat="48.3088896578228" lon="11.650881560018943"><ele>464.0</ele><time>2026-03-27T09:44:22.999Z</time></trkpt><trkpt lat="48.30884717625757" lon="11.650773653588393"><ele>463.79999999999995</ele><time>2026-03-27T09:44:23.999Z</time></trkpt><trkpt lat="48.30880352912182" lon="11.650663332640375"><ele>463.59999999999997</ele><time>2026-03-27T09:44:24.999Z</time></trkpt><trkpt lat="48.30875184108155" lon="11.650533308005771"><ele>463.4</ele><time>2026-03-27T09:44:25.999Z</time></trkpt><trkpt lat="48.308701210844475" lon="11.650405944480339"><ele>463.2</ele><time>2026-03-27T09:44:26.999Z</time></trkpt><trkpt lat="48.30865212291015" lon="11.650282460638376"><ele>463.0</ele><time>2026-03-27T09:44:27.999Z</time></trkpt><trkpt lat="48.30860413020214" lon="11.650161731900988"><ele>463.4</ele><time>2026-03-27T09:44:28.999Z</time></trkpt><trkpt lat="48.30855456584978" lon="11.650037796729688"><ele>463.79999999999995</ele><time>2026-03-27T09:44:29.999Z</time></trkpt><trkpt lat="48.30850177127202" lon="11.649907769379439"><ele>464.2</ele><time>2026-03-27T09:44:30.999Z</time></trkpt><trkpt lat="48.3084444024275" lon="11.64976647615905"><ele>464.6</ele><time>2026-03-27T09:44:31.999Z</time></trkpt><trkpt lat="48.30838762832184" lon="11.649626647707581"><ele>465.0</ele><time>2026-03-27T09:44:32.999Z</time></trkpt><trkpt lat="48.308334700843545" lon="11.64949860808903"><ele>464.8</ele><time>2026-03-27T09:44:33.999Z</time></trkpt><trkpt lat="48.30827979059554" lon="11.649365811096382"><ele>464.6</ele><time>2026-03-27T09:44:34.999Z</time></trkpt><trkpt lat="48.30822350165743" lon="11.64922967987574"><ele>464.4</ele><time>2026-03-27T09:44:35.999Z</time></trkpt><trkpt lat="48.30816393891514" lon="11.649085654052119"><ele>464.2</ele><time>2026-03-27T09:44:36.999Z</time></trkpt><trkpt lat="48.30810344982189" lon="11.648940297086657"><ele>464.0</ele><time>2026-03-27T09:44:37.999Z</time></trkpt><trkpt lat="48.30804086559814" lon="11.64878990543399"><ele>463.5</ele><time>2026-03-27T09:44:38.999Z</time></trkpt><trkpt lat="48.30797707514537" lon="11.648636615192618"><ele>463.0</ele><time>2026-03-27T09:44:39.999Z</time></trkpt><trkpt lat="48.30791235978046" lon="11.64848110235505"><ele>462.5</ele><time>2026-03-27T09:44:40.999Z</time></trkpt><trkpt lat="48.30784900499264" lon="11.64832787065561"><ele>462.0</ele><time>2026-03-27T09:44:41.999Z</time></trkpt><trkpt lat="48.30779008777009" lon="11.648184798957065"><ele>462.0</ele><time>2026-03-27T09:44:42.999Z</time></trkpt><trkpt lat="48.30773281551164" lon="11.648045721776455"><ele>462.00000000000006</ele><time>2026-03-27T09:44:43.999Z</time></trkpt><trkpt lat="48.30767561905287" lon="11.647906828666455"><ele>462.00000000000006</ele><time>2026-03-27T09:44:44.999Z</time></trkpt><trkpt lat="48.307618906569104" lon="11.647768759094603"><ele>462.0</ele><time>2026-03-27T09:44:45.999Z</time></trkpt><trkpt lat="48.30756194672399" lon="11.647628348910208"><ele>462.0</ele><time>2026-03-27T09:44:46.999Z</time></trkpt><trkpt lat="48.30749198506007" lon="11.647496744762849"><ele>462.20000000000005</ele><time>2026-03-27T09:44:47.999Z</time></trkpt><trkpt lat="48.30743578882287" lon="11.647359651760986"><ele>462.40000000000003</ele><time>2026-03-27T09:44:48.999Z</time></trkpt><trkpt lat="48.30737987337467" lon="11.647222983700608"><ele>462.59999999999997</ele><time>2026-03-27T09:44:49.999Z</time></trkpt><trkpt lat="48.307325313733834" lon="11.647087169700404"><ele>462.79999999999995</ele><time>2026-03-27T09:44:50.999Z</time></trkpt><trkpt lat="48.3072731148282" lon="11.646953006823946"><ele>463.0</ele><time>2026-03-27T09:44:51.999Z</time></trkpt><trkpt lat="48.307222559523794" lon="11.64682122878272"><ele>463.0</ele><time>2026-03-27T09:44:52.999Z</time></trkpt><trkpt lat="48.307171614523405" lon="11.646693286100005"><ele>462.99999999999994</ele><time>2026-03-27T09:44:53.999Z</time></trkpt><trkpt lat="48.30712142924995" lon="11.646566211589427"><ele>462.99999999999994</ele><time>2026-03-27T09:44:54.999Z</time></trkpt><trkpt lat="48.307070478729116" lon="11.646439588620007"><ele>463.0</ele><time>2026-03-27T09:44:55.999Z</time></trkpt><trkpt lat="48.30702182349855" lon="11.64631106680137"><ele>463.0</ele><time>2026-03-27T09:44:56.999Z</time></trkpt><trkpt lat="48.306971637340034" lon="11.646183597307848"><ele>463.0</ele><time>2026-03-27T09:44:57.999Z</time></trkpt><trkpt lat="48.30693403957126" lon="11.646046857758014"><ele>462.99999999999994</ele><time>2026-03-27T09:44:58.999Z</time></trkpt><trkpt lat="48.30688671064038" lon="11.645917977804455"><ele>462.99999999999994</ele><time>2026-03-27T09:44:59.999Z</time></trkpt><trkpt lat="48.30684029627144" lon="11.645791810252572"><ele>463.0</ele><time>2026-03-27T09:45:00.999Z</time></trkpt><trkpt lat="48.30679384929039" lon="11.645668409642147"><ele>463.0</ele><time>2026-03-27T09:45:01.999Z</time></trkpt><trkpt lat="48.30674697937879" lon="11.645547588240646"><ele>463.0</ele><time>2026-03-27T09:45:02.999Z</time></trkpt><trkpt lat="48.30669941338038" lon="11.645427460648957"><ele>462.99999999999994</ele><time>2026-03-27T09:45:03.999Z</time></trkpt><trkpt lat="48.30665219768729" lon="11.645310547889917"><ele>462.99999999999994</ele><time>2026-03-27T09:45:04.999Z</time></trkpt><trkpt lat="48.30660456295872" lon="11.645192753944078"><ele>463.0</ele><time>2026-03-27T09:45:05.999Z</time></trkpt><trkpt lat="48.30655779456465" lon="11.645077309770393"><ele>463.0</ele><time>2026-03-27T09:45:06.999Z</time></trkpt><trkpt lat="48.30651062035914" lon="11.644960863847063"><ele>463.2</ele><time>2026-03-27T09:45:07.999Z</time></trkpt><trkpt lat="48.306464115916725" lon="11.64484607121253"><ele>463.4</ele><time>2026-03-27T09:45:08.999Z</time></trkpt><trkpt lat="48.30641775777053" lon="11.644731639678879"><ele>463.59999999999997</ele><time>2026-03-27T09:45:09.999Z</time></trkpt><trkpt lat="48.30637108776513" lon="11.644616438361341"><ele>463.79999999999995</ele><time>2026-03-27T09:45:10.999Z</time></trkpt><trkpt lat="48.30632324544633" lon="11.644498343245882"><ele>464.0</ele><time>2026-03-27T09:45:11.999Z</time></trkpt><trkpt lat="48.30627404030501" lon="11.644376884126869"><ele>463.4</ele><time>2026-03-27T09:45:12.999Z</time></trkpt><trkpt lat="48.30622430970853" lon="11.644254127957355"><ele>462.79999999999995</ele><time>2026-03-27T09:45:13.999Z</time></trkpt><trkpt lat="48.30617434796399" lon="11.644130801173825"><ele>462.20000000000005</ele><time>2026-03-27T09:45:14.999Z</time></trkpt><trkpt lat="48.306123778997566" lon="11.64400670329504"><ele>461.6</ele><time>2026-03-27T09:45:15.999Z</time></trkpt><trkpt lat="48.3060729594714" lon="11.64388287990461"><ele>461.0</ele><time>2026-03-27T09:45:16.999Z</time></trkpt><trkpt lat="48.30602219093888" lon="11.643759180765151"><ele>461.0</ele><time>2026-03-27T09:45:17.999Z</time></trkpt><trkpt lat="48.30597112726746" lon="11.643634762520566"><ele>461.0</ele><time>2026-03-27T09:45:18.999Z</time></trkpt><trkpt lat="48.30591994626241" lon="11.643510058511172"><ele>461.0</ele><time>2026-03-27T09:45:19.999Z</time></trkpt><trkpt lat="48.30586784705752" lon="11.643383117147946"><ele>461.0</ele><time>2026-03-27T09:45:20.999Z</time></trkpt><trkpt lat="48.305801376401575" lon="11.643265890344646"><ele>461.0</ele><time>2026-03-27T09:45:21.999Z</time></trkpt><trkpt lat="48.30576202957659" lon="11.643126256544829"><ele>461.0</ele><time>2026-03-27T09:45:22.999Z</time></trkpt><trkpt lat="48.305708893919004" lon="11.642997813628186"><ele>461.0</ele><time>2026-03-27T09:45:23.999Z</time></trkpt><trkpt lat="48.305655168659214" lon="11.64287030953878"><ele>461.0</ele><time>2026-03-27T09:45:24.999Z</time></trkpt><trkpt lat="48.3056036591329" lon="11.642748064077573"><ele>461.0</ele><time>2026-03-27T09:45:25.999Z</time></trkpt><trkpt lat="48.305554926857404" lon="11.642633479922978"><ele>461.0</ele><time>2026-03-27T09:45:26.999Z</time></trkpt><trkpt lat="48.30550933839243" lon="11.642526806117594"><ele>461.49999999999994</ele><time>2026-03-27T09:45:27.999Z</time></trkpt><trkpt lat="48.30546550239413" lon="11.642424233074777"><ele>462.0</ele><time>2026-03-27T09:45:28.999Z</time></trkpt><trkpt lat="48.3054252168902" lon="11.642329967869626"><ele>462.5</ele><time>2026-03-27T09:45:29.999Z</time></trkpt><trkpt lat="48.3053862799236" lon="11.642239485535846"><ele>463.0</ele><time>2026-03-27T09:45:30.999Z</time></trkpt><trkpt lat="48.30534918633545" lon="11.642153375391846"><ele>463.49999999999994</ele><time>2026-03-27T09:45:31.999Z</time></trkpt><trkpt lat="48.30528904846571" lon="11.64201376966592"><ele>464.0</ele><time>2026-03-27T09:45:33.999Z</time></trkpt><trkpt lat="48.30524618721029" lon="11.641914270332151"><ele>464.49999999999994</ele><time>2026-03-27T09:45:35.999Z</time></trkpt><trkpt lat="48.3052024125403" lon="11.641814120291526"><ele>465.0</ele><time>2026-03-27T09:45:37.999Z</time></trkpt><trkpt lat="48.305136298916295" lon="11.641663359723294"><ele>465.5</ele><time>2026-03-27T09:45:39.999Z</time></trkpt><trkpt lat="48.30510070909027" lon="11.641583194210245"><ele>466.0</ele><time>2026-03-27T09:45:40.999Z</time></trkpt><trkpt lat="48.305065263138644" lon="11.641503493553971"><ele>466.49999999999994</ele><time>2026-03-27T09:45:41.999Z</time></trkpt><trkpt lat="48.305003975805754" lon="11.641428603473619"><ele>467.0</ele><time>2026-03-27T09:45:43Z</time></trkpt><trkpt lat="48.30495682873962" lon="11.641322386719498"><ele>467.0</ele><time>2026-03-27T09:45:44Z</time></trkpt><trkpt lat="48.3049065541121" lon="11.641209189579982"><ele>467.00000000000006</ele><time>2026-03-27T09:45:45Z</time></trkpt><trkpt lat="48.30485460548357" lon="11.641091335694034"><ele>467.00000000000006</ele><time>2026-03-27T09:45:46Z</time></trkpt><trkpt lat="48.30482094861016" lon="11.640958411260387"><ele>467.0</ele><time>2026-03-27T09:45:47Z</time></trkpt><trkpt lat="48.30476637511963" lon="11.640837779476344"><ele>467.0</ele><time>2026-03-27T09:45:48Z</time></trkpt><trkpt lat="48.304709855539606" lon="11.6407111168114"><ele>466.75</ele><time>2026-03-27T09:45:49Z</time></trkpt><trkpt lat="48.304649656229294" lon="11.640574027165453"><ele>466.5</ele><time>2026-03-27T09:45:50Z</time></trkpt><trkpt lat="48.3045874994586" lon="11.640431351995849"><ele>466.25</ele><time>2026-03-27T09:45:51Z</time></trkpt><trkpt lat="48.30452442769766" lon="11.640283802898425"><ele>466.0</ele><time>2026-03-27T09:45:52Z</time></trkpt><trkpt lat="48.30446332310375" lon="11.64014037584747"><ele>465.6</ele><time>2026-03-27T09:45:53Z</time></trkpt><trkpt lat="48.30440465070684" lon="11.640001326637005"><ele>465.20000000000005</ele><time>2026-03-27T09:45:54Z</time></trkpt><trkpt lat="48.30435048781106" lon="11.639872964605892"><ele>464.79999999999995</ele><time>2026-03-27T09:45:55Z</time></trkpt><trkpt lat="48.30430118413088" lon="11.639752016684405"><ele>464.4</ele><time>2026-03-27T09:45:56Z</time></trkpt><trkpt lat="48.30425361944375" lon="11.639634951704238"><ele>464.0</ele><time>2026-03-27T09:45:57Z</time></trkpt><trkpt lat="48.30420824017618" lon="11.639523490250191"><ele>464.3333333333333</ele><time>2026-03-27T09:45:58Z</time></trkpt><trkpt lat="48.30416448455598" lon="11.639416741632354"><ele>464.66666666666663</ele><time>2026-03-27T09:45:59Z</time></trkpt><trkpt lat="48.30412146993965" lon="11.639311800919169"><ele>465.0</ele><time>2026-03-27T09:46:00Z</time></trkpt><trkpt lat="48.304076587630774" lon="11.639203789194454"><ele>465.33333333333337</ele><time>2026-03-27T09:46:01Z</time></trkpt><trkpt lat="48.30402975148335" lon="11.63909219762399"><ele>465.6666666666667</ele><time>2026-03-27T09:46:02Z</time></trkpt><trkpt lat="48.30398179000239" lon="11.638980291392112"><ele>466.0</ele><time>2026-03-27T09:46:03Z</time></trkpt><trkpt lat="48.3039346822318" lon="11.63887107921414"><ele>465.6666666666667</ele><time>2026-03-27T09:46:04Z</time></trkpt><trkpt lat="48.30388729788689" lon="11.638761225807173"><ele>465.33333333333337</ele><time>2026-03-27T09:46:05Z</time></trkpt><trkpt lat="48.303839771117374" lon="11.638651042229696"><ele>465.0</ele><time>2026-03-27T09:46:06Z</time></trkpt><trkpt lat="48.30379198241504" lon="11.638540251406349"><ele>464.66666666666663</ele><time>2026-03-27T09:46:07Z</time></trkpt><trkpt lat="48.30374496084269" lon="11.638431239092695"><ele>464.3333333333333</ele><time>2026-03-27T09:46:08Z</time></trkpt><trkpt lat="48.3036974886139" lon="11.63832118195201"><ele>464.0</ele><time>2026-03-27T09:46:09Z</time></trkpt><trkpt lat="48.30365122314942" lon="11.638211838394417"><ele>463.99999999999994</ele><time>2026-03-27T09:46:10Z</time></trkpt><trkpt lat="48.303604701197735" lon="11.638101445800494"><ele>464.0</ele><time>2026-03-27T09:46:11Z</time></trkpt><trkpt lat="48.30355766904279" lon="11.637989842545197"><ele>464.0</ele><time>2026-03-27T09:46:12Z</time></trkpt><trkpt lat="48.303510490457214" lon="11.637877891837524"><ele>464.0</ele><time>2026-03-27T09:46:13Z</time></trkpt><trkpt lat="48.30346679966378" lon="11.637774622602699"><ele>463.99999999999994</ele><time>2026-03-27T09:46:14Z</time></trkpt><trkpt lat="48.30342624246785" lon="11.637679654126773"><ele>464.0</ele><time>2026-03-27T09:46:15Z</time></trkpt><trkpt lat="48.30338819387638" lon="11.637590559700296"><ele>464.00000000000006</ele><time>2026-03-27T09:46:16Z</time></trkpt><trkpt lat="48.303351273627094" lon="11.637504793946379"><ele>464.0</ele><time>2026-03-27T09:46:17Z</time></trkpt><trkpt lat="48.30331533833225" lon="11.637421340603325"><ele>464.00000000000006</ele><time>2026-03-27T09:46:18Z</time></trkpt><trkpt lat="48.3032783771853" lon="11.637336571993021"><ele>464.00000000000006</ele><time>2026-03-27T09:46:19Z</time></trkpt><trkpt lat="48.30324236190562" lon="11.63725746260475"><ele>464.0</ele><time>2026-03-27T09:46:20Z</time></trkpt><trkpt lat="48.303182915103456" lon="11.637170600751265"><ele>464.00000000000006</ele><time>2026-03-27T09:46:22Z</time></trkpt><trkpt lat="48.303145779284264" lon="11.637082725931583"><ele>464.00000000000006</ele><time>2026-03-27T09:46:24.999Z</time></trkpt><trkpt lat="48.30309152586525" lon="11.636935466849277"><ele>463.99999999999994</ele><time>2026-03-27T09:46:36.999Z</time></trkpt><trkpt lat="48.30305410065811" lon="11.636831895641514"><ele>464.0</ele><time>2026-03-27T09:46:37.999Z</time></trkpt><trkpt lat="48.30300646041786" lon="11.636733469448117"><ele>464.0</ele><time>2026-03-27T09:46:38.999Z</time></trkpt><trkpt lat="48.30297191277186" lon="11.636642511385793"><ele>464.0</ele><time>2026-03-27T09:46:39.999Z</time></trkpt><trkpt lat="48.302931925300925" lon="11.636544901906282"><ele>463.99999999999994</ele><time>2026-03-27T09:46:40.999Z</time></trkpt><trkpt lat="48.30288860869292" lon="11.636447739014361"><ele>464.0</ele><time>2026-03-27T09:46:41.999Z</time></trkpt><trkpt lat="48.302849320560036" lon="11.636352198187097"><ele>464.0</ele><time>2026-03-27T09:46:42.999Z</time></trkpt><trkpt lat="48.30281235014961" lon="11.636259757078944"><ele>464.0</ele><time>2026-03-27T09:46:43.999Z</time></trkpt><trkpt lat="48.302767293716144" lon="11.636156141005145"><ele>464.0</ele><time>2026-03-27T09:46:44.999Z</time></trkpt><trkpt lat="48.30271915914761" lon="11.636040397399434"><ele>464.0</ele><time>2026-03-27T09:46:45.999Z</time></trkpt><trkpt lat="48.302664096899775" lon="11.635914056984426"><ele>464.0</ele><time>2026-03-27T09:46:46.999Z</time></trkpt><trkpt lat="48.302603826877814" lon="11.635783101937443"><ele>464.25</ele><time>2026-03-27T09:46:47.999Z</time></trkpt><trkpt lat="48.30254132053896" lon="11.63563999372751"><ele>464.5</ele><time>2026-03-27T09:46:48.999Z</time></trkpt><trkpt lat="48.30247451485705" lon="11.635489532016022"><ele>464.75</ele><time>2026-03-27T09:46:49.999Z</time></trkpt><trkpt lat="48.30240231327238" lon="11.635332136286523"><ele>465.0</ele><time>2026-03-27T09:46:50.999Z</time></trkpt><trkpt lat="48.30232786302341" lon="11.635180742234477"><ele>465.2</ele><time>2026-03-27T09:46:51.999Z</time></trkpt><trkpt lat="48.302261662770874" lon="11.635040994698493"><ele>465.4</ele><time>2026-03-27T09:46:52.999Z</time></trkpt><trkpt lat="48.30220009459609" lon="11.634907572543367"><ele>465.6</ele><time>2026-03-27T09:46:53.999Z</time></trkpt><trkpt lat="48.30213750826083" lon="11.634769996565945"><ele>465.8</ele><time>2026-03-27T09:46:54.999Z</time></trkpt><trkpt lat="48.30207102444743" lon="11.634633987257242"><ele>466.0</ele><time>2026-03-27T09:46:55.999Z</time></trkpt><trkpt lat="48.30200543189502" lon="11.634500274348124"><ele>465.75</ele><time>2026-03-27T09:46:56.999Z</time></trkpt><trkpt lat="48.301938293816136" lon="11.634365528703448"><ele>465.5</ele><time>2026-03-27T09:46:57.999Z</time></trkpt><trkpt lat="48.301869937788545" lon="11.63423163838152"><ele>465.25</ele><time>2026-03-27T09:46:58.999Z</time></trkpt><trkpt lat="48.30179904325681" lon="11.634098839552607"><ele>465.0</ele><time>2026-03-27T09:46:59.999Z</time></trkpt><trkpt lat="48.30172792990666" lon="11.633966900224461"><ele>465.0</ele><time>2026-03-27T09:47:00.999Z</time></trkpt><trkpt lat="48.30165914027681" lon="11.633834301518496"><ele>465.0</ele><time>2026-03-27T09:47:01.999Z</time></trkpt><trkpt lat="48.301594874054146" lon="11.6337056964127"><ele>465.0</ele><time>2026-03-27T09:47:02.999Z</time></trkpt><trkpt lat="48.301534053544856" lon="11.633582569053114"><ele>465.0</ele><time>2026-03-27T09:47:03.999Z</time></trkpt><trkpt lat="48.301477005116254" lon="11.63346690268855"><ele>465.0</ele><time>2026-03-27T09:47:04.999Z</time></trkpt><trkpt lat="48.301422025328584" lon="11.633357445914367"><ele>465.2</ele><time>2026-03-27T09:47:05.999Z</time></trkpt><trkpt lat="48.301362507151474" lon="11.633241442504202"><ele>465.4</ele><time>2026-03-27T09:47:06.999Z</time></trkpt><trkpt lat="48.30130291394939" lon="11.633123579150324"><ele>465.6</ele><time>2026-03-27T09:47:07.999Z</time></trkpt><trkpt lat="48.301239447759826" lon="11.63300824435958"><ele>465.8</ele><time>2026-03-27T09:47:08.999Z</time></trkpt><trkpt lat="48.30117903776907" lon="11.632881755951322"><ele>466.0</ele><time>2026-03-27T09:47:09.999Z</time></trkpt><trkpt lat="48.30111499531682" lon="11.632760381469701"><ele>466.4</ele><time>2026-03-27T09:47:10.999Z</time></trkpt><trkpt lat="48.30105150146074" lon="11.632633494820777"><ele>466.8</ele><time>2026-03-27T09:47:11.999Z</time></trkpt><trkpt lat="48.30098702626983" lon="11.632504507445935"><ele>467.19999999999993</ele><time>2026-03-27T09:47:12.999Z</time></trkpt><trkpt lat="48.30092263217127" lon="11.632372179013121"><ele>467.59999999999997</ele><time>2026-03-27T09:47:13.999Z</time></trkpt><trkpt lat="48.30085906817279" lon="11.632239042629559"><ele>468.0</ele><time>2026-03-27T09:47:14.999Z</time></trkpt><trkpt lat="48.300799986319156" lon="11.632108960968976"><ele>468.0</ele><time>2026-03-27T09:47:15.999Z</time></trkpt><trkpt lat="48.30073883880416" lon="11.631978142969603"><ele>468.0</ele><time>2026-03-27T09:47:16.999Z</time></trkpt><trkpt lat="48.30067445556035" lon="11.63184404071591"><ele>468.0</ele><time>2026-03-27T09:47:17.999Z</time></trkpt><trkpt lat="48.30060259694436" lon="11.631711017702422"><ele>468.0</ele><time>2026-03-27T09:47:18.999Z</time></trkpt><trkpt lat="48.30054570352367" lon="11.631546789775014"><ele>468.2</ele><time>2026-03-27T09:47:19.999Z</time></trkpt><trkpt lat="48.300490820890545" lon="11.6314223714118"><ele>468.4</ele><time>2026-03-27T09:47:20.999Z</time></trkpt><trkpt lat="48.30044254666948" lon="11.631312377927198"><ele>468.59999999999997</ele><time>2026-03-27T09:47:21.999Z</time></trkpt><trkpt lat="48.30039166609451" lon="11.63119818730348"><ele>468.79999999999995</ele><time>2026-03-27T09:47:22.999Z</time></trkpt><trkpt lat="48.300338710610845" lon="11.63107834908016"><ele>469.0</ele><time>2026-03-27T09:47:23.999Z</time></trkpt><trkpt lat="48.3002843470317" lon="11.63095439185211"><ele>469.0</ele><time>2026-03-27T09:47:24.999Z</time></trkpt><trkpt lat="48.30022900765991" lon="11.630826712578164"><ele>469.0</ele><time>2026-03-27T09:47:25.999Z</time></trkpt><trkpt lat="48.30017254487284" lon="11.63069738198862"><ele>469.0</ele><time>2026-03-27T09:47:26.999Z</time></trkpt><trkpt lat="48.30011385697102" lon="11.630562885090072"><ele>469.0</ele><time>2026-03-27T09:47:27.999Z</time></trkpt><trkpt lat="48.30005638066624" lon="11.630428237056279"><ele>469.0</ele><time>2026-03-27T09:47:28.999Z</time></trkpt><trkpt lat="48.300009038936096" lon="11.630317884974747"><ele>469.00000000000006</ele><time>2026-03-27T09:47:29.999Z</time></trkpt><trkpt lat="48.29997175065236" lon="11.630230985303463"><ele>469.0</ele><time>2026-03-27T09:47:30.999Z</time></trkpt><trkpt lat="48.299910243496385" lon="11.630085094981345"><ele>469.0</ele><time>2026-03-27T09:47:32.999Z</time></trkpt><trkpt lat="48.299869806369614" lon="11.629988214192881"><ele>469.0</ele><time>2026-03-27T09:47:34.999Z</time></trkpt><trkpt lat="48.29983492062627" lon="11.629904829012448"><ele>469.00000000000006</ele><time>2026-03-27T09:47:36.999Z</time></trkpt><trkpt lat="48.29978273305871" lon="11.629780547990846"><ele>469.0</ele><time>2026-03-27T09:47:39.999Z</time></trkpt><trkpt lat="48.29972429057284" lon="11.629640196975696"><ele>469.0</ele><time>2026-03-27T09:47:41.999Z</time></trkpt><trkpt lat="48.299670717966386" lon="11.629510114070536"><ele>469.0</ele><time>2026-03-27T09:47:43.999Z</time></trkpt><trkpt lat="48.29962700719583" lon="11.629403608674783"><ele>469.0</ele><time>2026-03-27T09:47:45.999Z</time></trkpt><trkpt lat="48.299579805702045" lon="11.629288032501627"><ele>469.0</ele><time>2026-03-27T09:47:48Z</time></trkpt><trkpt lat="48.29952454871334" lon="11.629152731984924"><ele>469.0</ele><time>2026-03-27T09:47:50Z</time></trkpt><trkpt lat="48.2994777400421" lon="11.629070444034843"><ele>469.0</ele><time>2026-03-27T09:47:52Z</time></trkpt><trkpt lat="48.29933980235075" lon="11.629189056289189"><ele>469.0</ele><time>2026-03-27T09:47:53Z</time></trkpt><trkpt lat="48.29929154405955" lon="11.629254767388963"><ele>469.0</ele><time>2026-03-27T09:47:54Z</time></trkpt><trkpt lat="48.299233961967545" lon="11.629331134956955"><ele>469.0</ele><time>2026-03-27T09:47:55Z</time></trkpt><trkpt lat="48.29917193578819" lon="11.629412598456492"><ele>469.0</ele><time>2026-03-27T09:47:56Z</time></trkpt><trkpt lat="48.29910053052255" lon="11.629497040786234"><ele>469.0</ele><time>2026-03-27T09:47:57Z</time></trkpt><trkpt lat="48.29901988030172" lon="11.629590173837093"><ele>469.0</ele><time>2026-03-27T09:47:58Z</time></trkpt><trkpt lat="48.298931492797436" lon="11.629687399171775"><ele>469.0</ele><time>2026-03-27T09:47:59Z</time></trkpt><trkpt lat="48.298848528251774" lon="11.629784423139458"><ele>469.0</ele><time>2026-03-27T09:48:00Z</time></trkpt><trkpt lat="48.29876958908277" lon="11.629884693046556"><ele>469.0</ele><time>2026-03-27T09:48:01Z</time></trkpt><trkpt lat="48.29869797232675" lon="11.629996841616386"><ele>469.25</ele><time>2026-03-27T09:48:02Z</time></trkpt><trkpt lat="48.29863071546184" lon="11.63013324490444"><ele>469.5</ele><time>2026-03-27T09:48:03Z</time></trkpt><trkpt lat="48.29857686985725" lon="11.630298009718269"><ele>469.75</ele><time>2026-03-27T09:48:04Z</time></trkpt><trkpt lat="48.29853652273701" lon="11.630476383694932"><ele>470.0</ele><time>2026-03-27T09:48:05Z</time></trkpt><trkpt lat="48.29850895599125" lon="11.630647066462325"><ele>470.25</ele><time>2026-03-27T09:48:06Z</time></trkpt><trkpt lat="48.29848472976923" lon="11.630804572250913"><ele>470.5</ele><time>2026-03-27T09:48:07Z</time></trkpt><trkpt lat="48.29845593926725" lon="11.630964753898967"><ele>470.75</ele><time>2026-03-27T09:48:08Z</time></trkpt><trkpt lat="48.29841642924239" lon="11.631128030667709"><ele>471.0</ele><time>2026-03-27T09:48:09Z</time></trkpt><trkpt lat="48.2983639153073" lon="11.63128764171877"><ele>470.5</ele><time>2026-03-27T09:48:10Z</time></trkpt><trkpt lat="48.29829074474191" lon="11.631422150495181"><ele>470.0</ele><time>2026-03-27T09:48:11Z</time></trkpt><trkpt lat="48.2982037784038" lon="11.631535337836947"><ele>469.5</ele><time>2026-03-27T09:48:12Z</time></trkpt><trkpt lat="48.29810589423316" lon="11.631632200825427"><ele>469.0</ele><time>2026-03-27T09:48:13Z</time></trkpt><trkpt lat="48.29799818012625" lon="11.631713203964368"><ele>468.6666666666667</ele><time>2026-03-27T09:48:14Z</time></trkpt><trkpt lat="48.29788194566456" lon="11.631791374769007"><ele>468.33333333333337</ele><time>2026-03-27T09:48:15Z</time></trkpt><trkpt lat="48.29774468351046" lon="11.631880912963469"><ele>468.0</ele><time>2026-03-27T09:48:16Z</time></trkpt><trkpt lat="48.29758294349696" lon="11.631972869543313"><ele>467.66666666666663</ele><time>2026-03-27T09:48:17Z</time></trkpt><trkpt lat="48.297435480827616" lon="11.632050725390764"><ele>467.3333333333333</ele><time>2026-03-27T09:48:18Z</time></trkpt><trkpt lat="48.29724942604235" lon="11.632129318455414"><ele>467.0</ele><time>2026-03-27T09:48:19Z</time></trkpt><trkpt lat="48.297109834694695" lon="11.632212255178057"><ele>467.66666666666663</ele><time>2026-03-27T09:48:20Z</time></trkpt><trkpt lat="48.29694459319823" lon="11.632313135018617"><ele>468.33333333333337</ele><time>2026-03-27T09:48:21Z</time></trkpt><trkpt lat="48.296770635148775" lon="11.632421700193648"><ele>469.0</ele><time>2026-03-27T09:48:22Z</time></trkpt><trkpt lat="48.296591851785024" lon="11.632543407812788"><ele>469.0</ele><time>2026-03-27T09:48:23Z</time></trkpt><trkpt lat="48.29640051051055" lon="11.632675464796625"><ele>469.0</ele><time>2026-03-27T09:48:24Z</time></trkpt><trkpt lat="48.29622124041617" lon="11.632788404153157"><ele>469.0</ele><time>2026-03-27T09:48:25Z</time></trkpt><trkpt lat="48.29604047996746" lon="11.63289636163171"><ele>469.0</ele><time>2026-03-27T09:48:26Z</time></trkpt><trkpt lat="48.29584243245503" lon="11.63301098730541"><ele>469.0</ele><time>2026-03-27T09:48:27Z</time></trkpt><trkpt lat="48.295652225556786" lon="11.63311880333199"><ele>469.0</ele><time>2026-03-27T09:48:28Z</time></trkpt><trkpt lat="48.29545523312871" lon="11.633231841928225"><ele>470.0</ele><time>2026-03-27T09:48:29Z</time></trkpt><trkpt lat="48.29525824057885" lon="11.633336954597553"><ele>471.0</ele><time>2026-03-27T09:48:30Z</time></trkpt><trkpt lat="48.295061675490174" lon="11.633437405441478"><ele>472.0</ele><time>2026-03-27T09:48:31Z</time></trkpt><trkpt lat="48.294864284468275" lon="11.633538587477243"><ele>470.6666666666667</ele><time>2026-03-27T09:48:32Z</time></trkpt><trkpt lat="48.29467040124263" lon="11.63364421945256"><ele>469.33333333333337</ele><time>2026-03-27T09:48:33Z</time></trkpt><trkpt lat="48.29447512980207" lon="11.633751166381954"><ele>468.0</ele><time>2026-03-27T09:48:34Z</time></trkpt><trkpt lat="48.29427503375812" lon="11.63385827860456"><ele>468.0</ele><time>2026-03-27T09:48:35Z</time></trkpt><trkpt lat="48.29407342377157" lon="11.633964290968798"><ele>468.0</ele><time>2026-03-27T09:48:36Z</time></trkpt><trkpt lat="48.293883422938514" lon="11.634064650505435"><ele>468.0</ele><time>2026-03-27T09:48:37Z</time></trkpt><trkpt lat="48.293702786400345" lon="11.634164515872461"><ele>469.0</ele><time>2026-03-27T09:48:38Z</time></trkpt><trkpt lat="48.293526446609974" lon="11.634260094589822"><ele>470.0</ele><time>2026-03-27T09:48:38.999Z</time></trkpt><trkpt lat="48.29334407870332" lon="11.634358871572292"><ele>471.0</ele><time>2026-03-27T09:48:39.999Z</time></trkpt><trkpt lat="48.293158698488746" lon="11.634458345736224"><ele>470.66666666666663</ele><time>2026-03-27T09:48:40.999Z</time></trkpt><trkpt lat="48.29297185949145" lon="11.634557867565"><ele>470.3333333333333</ele><time>2026-03-27T09:48:41.999Z</time></trkpt><trkpt lat="48.29278553350275" lon="11.634653528364876"><ele>470.0</ele><time>2026-03-27T09:48:42.999Z</time></trkpt><trkpt lat="48.29260491761052" lon="11.634747776403257"><ele>470.0</ele><time>2026-03-27T09:48:43.999Z</time></trkpt><trkpt lat="48.292426919667896" lon="11.634844012090557"><ele>470.0</ele><time>2026-03-27T09:48:44.999Z</time></trkpt><trkpt lat="48.292251100667734" lon="11.63493914228532"><ele>470.0</ele><time>2026-03-27T09:48:45.999Z</time></trkpt><trkpt lat="48.29207725174188" lon="11.635033859530381"><ele>470.0</ele><time>2026-03-27T09:48:46.999Z</time></trkpt><trkpt lat="48.29190348782595" lon="11.635130331459532"><ele>470.0</ele><time>2026-03-27T09:48:47.999Z</time></trkpt><trkpt lat="48.29172606467728" lon="11.635234172511808"><ele>470.0</ele><time>2026-03-27T09:48:48.999Z</time></trkpt><trkpt lat="48.29154388549937" lon="11.635343753123111"><ele>469.3333333333333</ele><time>2026-03-27T09:48:49.999Z</time></trkpt><trkpt lat="48.29135994335835" lon="11.635451663259817"><ele>468.66666666666663</ele><time>2026-03-27T09:48:50.999Z</time></trkpt><trkpt lat="48.291177384781676" lon="11.635556973392093"><ele>468.0</ele><time>2026-03-27T09:48:51.999Z</time></trkpt><trkpt lat="48.29099387040435" lon="11.635661361482235"><ele>468.0</ele><time>2026-03-27T09:48:52.999Z</time></trkpt><trkpt lat="48.29080789370099" lon="11.635764426168526"><ele>468.0</ele><time>2026-03-27T09:48:53.999Z</time></trkpt><trkpt lat="48.29061256728803" lon="11.635867103196864"><ele>468.0</ele><time>2026-03-27T09:48:54.999Z</time></trkpt><trkpt lat="48.29041485511543" lon="11.635965825151864"><ele>468.66666666666663</ele><time>2026-03-27T09:48:55.999Z</time></trkpt><trkpt lat="48.290214397162856" lon="11.63607044716946"><ele>469.3333333333333</ele><time>2026-03-27T09:48:56.999Z</time></trkpt><trkpt lat="48.29000705505781" lon="11.636181559582585"><ele>470.0</ele><time>2026-03-27T09:48:57.999Z</time></trkpt><trkpt lat="48.289800997104" lon="11.636291325670921"><ele>469.5</ele><time>2026-03-27T09:48:58.999Z</time></trkpt><trkpt lat="48.289594066321186" lon="11.636404311155884"><ele>469.0</ele><time>2026-03-27T09:48:59.999Z</time></trkpt><trkpt lat="48.28937523056395" lon="11.636527194372038"><ele>469.0</ele><time>2026-03-27T09:49:00.999Z</time></trkpt><trkpt lat="48.289145177246674" lon="11.636661024958666"><ele>469.0</ele><time>2026-03-27T09:49:01.999Z</time></trkpt><trkpt lat="48.28890695703059" lon="11.636799465585888"><ele>468.0</ele><time>2026-03-27T09:49:02.999Z</time></trkpt><trkpt lat="48.28867031770183" lon="11.636931928741635"><ele>467.0</ele><time>2026-03-27T09:49:03.999Z</time></trkpt><trkpt lat="48.288439192430396" lon="11.63705666900485"><ele>467.0</ele><time>2026-03-27T09:49:04.999Z</time></trkpt><trkpt lat="48.28820355261143" lon="11.637183877637462"><ele>467.0</ele><time>2026-03-27T09:49:05.999Z</time></trkpt><trkpt lat="48.287959128150234" lon="11.637314273794457"><ele>468.0</ele><time>2026-03-27T09:49:06.999Z</time></trkpt><trkpt lat="48.28772042140176" lon="11.637441125617169"><ele>469.0</ele><time>2026-03-27T09:49:07.999Z</time></trkpt><trkpt lat="48.28748031798081" lon="11.63757163942851"><ele>469.0</ele><time>2026-03-27T09:49:08.999Z</time></trkpt><trkpt lat="48.28723230004916" lon="11.637703830607155"><ele>469.0</ele><time>2026-03-27T09:49:09.999Z</time></trkpt><trkpt lat="48.2869767727404" lon="11.637841803474346"><ele>469.0</ele><time>2026-03-27T09:49:10.999Z</time></trkpt><trkpt lat="48.28671716262835" lon="11.637980608473558"><ele>469.0</ele><time>2026-03-27T09:49:11.999Z</time></trkpt><trkpt lat="48.28646638737991" lon="11.6381103522716"><ele>469.0</ele><time>2026-03-27T09:49:12.999Z</time></trkpt><trkpt lat="48.28622500066497" lon="11.638236665448439"><ele>469.0</ele><time>2026-03-27T09:49:13.999Z</time></trkpt><trkpt lat="48.285984994113534" lon="11.63836510724686"><ele>469.0</ele><time>2026-03-27T09:49:14.999Z</time></trkpt><trkpt lat="48.28574142154532" lon="11.638489613436906"><ele>469.0</ele><time>2026-03-27T09:49:15.999Z</time></trkpt><trkpt lat="48.285487547182974" lon="11.638623898814206"><ele>468.5</ele><time>2026-03-27T09:49:16.999Z</time></trkpt><trkpt lat="48.28522020956551" lon="11.638766641800633"><ele>468.0</ele><time>2026-03-27T09:49:17.999Z</time></trkpt><trkpt lat="48.28494318568923" lon="11.638913179565376"><ele>469.5</ele><time>2026-03-27T09:49:18.999Z</time></trkpt><trkpt lat="48.284664018652975" lon="11.639057508004866"><ele>471.0</ele><time>2026-03-27T09:49:19.999Z</time></trkpt><trkpt lat="48.284384503849076" lon="11.639196398630816"><ele>471.0</ele><time>2026-03-27T09:49:20.999Z</time></trkpt><trkpt lat="48.28410463526388" lon="11.639322246753"><ele>471.0</ele><time>2026-03-27T09:49:21.999Z</time></trkpt><trkpt lat="48.283829028330004" lon="11.639434680369884"><ele>470.0</ele><time>2026-03-27T09:49:22.999Z</time></trkpt><trkpt lat="48.28355644296925" lon="11.639541532896951"><ele>469.0</ele><time>2026-03-27T09:49:23.999Z</time></trkpt><trkpt lat="48.28328384256881" lon="11.639651013334792"><ele>469.5</ele><time>2026-03-27T09:49:24.999Z</time></trkpt><trkpt lat="48.28300937443907" lon="11.639758166082162"><ele>470.0</ele><time>2026-03-27T09:49:25.999Z</time></trkpt><trkpt lat="48.28273071783712" lon="11.639862433280825"><ele>470.0</ele><time>2026-03-27T09:49:26.999Z</time></trkpt><trkpt lat="48.28246028725807" lon="11.6399658050771"><ele>470.0</ele><time>2026-03-27T09:49:27.999Z</time></trkpt><trkpt lat="48.28219711130528" lon="11.640070283673944"><ele>471.0</ele><time>2026-03-27T09:49:28.999Z</time></trkpt><trkpt lat="48.28193881697916" lon="11.640175833725827"><ele>472.0</ele><time>2026-03-27T09:49:29.999Z</time></trkpt><trkpt lat="48.28167931062714" lon="11.640280130684236"><ele>471.5</ele><time>2026-03-27T09:49:30.999Z</time></trkpt><trkpt lat="48.28141416047426" lon="11.640386589639803"><ele>471.0</ele><time>2026-03-27T09:49:31.999Z</time></trkpt><trkpt lat="48.28114597820921" lon="11.640488667667586"><ele>471.0</ele><time>2026-03-27T09:49:32.999Z</time></trkpt><trkpt lat="48.28088183363891" lon="11.64058521268983"><ele>471.0</ele><time>2026-03-27T09:49:33.999Z</time></trkpt><trkpt lat="48.28062107852215" lon="11.640678076669394"><ele>471.0</ele><time>2026-03-27T09:49:34.999Z</time></trkpt><trkpt lat="48.28036520693704" lon="11.640771352348683"><ele>471.0</ele><time>2026-03-27T09:49:35.999Z</time></trkpt><trkpt lat="48.280113804665476" lon="11.64086049057596"><ele>471.0</ele><time>2026-03-27T09:49:36.999Z</time></trkpt><trkpt lat="48.279872212305705" lon="11.640946065567624"><ele>471.0</ele><time>2026-03-27T09:49:37.999Z</time></trkpt><trkpt lat="48.27962196847076" lon="11.64103507121467"><ele>471.5</ele><time>2026-03-27T09:49:38.999Z</time></trkpt><trkpt lat="48.2793621783292" lon="11.64112588381949"><ele>472.0</ele><time>2026-03-27T09:49:39.999Z</time></trkpt><trkpt lat="48.27909656527018" lon="11.641214571068312"><ele>473.0</ele><time>2026-03-27T09:49:40.999Z</time></trkpt><trkpt lat="48.278833386368674" lon="11.64130144704564"><ele>474.0</ele><time>2026-03-27T09:49:41.999Z</time></trkpt><trkpt lat="48.27857530090209" lon="11.641391377161707"><ele>474.0</ele><time>2026-03-27T09:49:42.999Z</time></trkpt><trkpt lat="48.27832132644802" lon="11.64148345237559"><ele>474.0</ele><time>2026-03-27T09:49:43.999Z</time></trkpt><trkpt lat="48.278069158735114" lon="11.64157294328322"><ele>474.0</ele><time>2026-03-27T09:49:44.999Z</time></trkpt><trkpt lat="48.2778181835855" lon="11.64165520565137"><ele>474.0</ele><time>2026-03-27T09:49:45.999Z</time></trkpt><trkpt lat="48.27757087615421" lon="11.641735765348272"><ele>474.0</ele><time>2026-03-27T09:49:46.999Z</time></trkpt><trkpt lat="48.27732328438765" lon="11.64181751122948"><ele>474.0</ele><time>2026-03-27T09:49:47.999Z</time></trkpt><trkpt lat="48.27707694262665" lon="11.641898545781293"><ele>474.0</ele><time>2026-03-27T09:49:48.999Z</time></trkpt><trkpt lat="48.27683130407368" lon="11.641981074662546"><ele>474.0</ele><time>2026-03-27T09:49:49.999Z</time></trkpt><trkpt lat="48.27658446917609" lon="11.642064819556419"><ele>475.0</ele><time>2026-03-27T09:49:50.999Z</time></trkpt><trkpt lat="48.276337195651735" lon="11.642153964589406"><ele>476.0</ele><time>2026-03-27T09:49:51.999Z</time></trkpt><trkpt lat="48.27608680192587" lon="11.642243466093227"><ele>476.0</ele><time>2026-03-27T09:49:52.999Z</time></trkpt><trkpt lat="48.27583392216309" lon="11.642331597199789"><ele>476.0</ele><time>2026-03-27T09:49:54Z</time></trkpt><trkpt lat="48.27557944369852" lon="11.64241668933636"><ele>475.0</ele><time>2026-03-27T09:49:55Z</time></trkpt><trkpt lat="48.27532333338779" lon="11.642502187369196"><ele>474.0</ele><time>2026-03-27T09:49:56Z</time></trkpt><trkpt lat="48.275066505132" lon="11.642588189201785"><ele>474.0</ele><time>2026-03-27T09:49:57Z</time></trkpt><trkpt lat="48.27480904378741" lon="11.64267390036315"><ele>474.0</ele><time>2026-03-27T09:49:58Z</time></trkpt><trkpt lat="48.27455163353255" lon="11.642760280016235"><ele>473.5</ele><time>2026-03-27T09:49:59Z</time></trkpt><trkpt lat="48.27429715063572" lon="11.642849139398987"><ele>473.0</ele><time>2026-03-27T09:50:00Z</time></trkpt><trkpt lat="48.27404439761159" lon="11.642937277959218"><ele>472.0</ele><time>2026-03-27T09:50:01Z</time></trkpt><trkpt lat="48.27379152887188" lon="11.643026147705905"><ele>471.0</ele><time>2026-03-27T09:50:02Z</time></trkpt><trkpt lat="48.2735255148949" lon="11.643117640899034"><ele>471.0</ele><time>2026-03-27T09:50:03Z</time></trkpt><trkpt lat="48.273227222514635" lon="11.643220483288733"><ele>471.0</ele><time>2026-03-27T09:50:04Z</time></trkpt><trkpt lat="48.27291536788577" lon="11.643330094385176"><ele>471.5</ele><time>2026-03-27T09:50:05Z</time></trkpt><trkpt lat="48.27261051267423" lon="11.643439243417617"><ele>472.0</ele><time>2026-03-27T09:50:06Z</time></trkpt><trkpt lat="48.27231211634388" lon="11.6435486445463"><ele>472.5</ele><time>2026-03-27T09:50:07Z</time></trkpt><trkpt lat="48.272040221849736" lon="11.643648052593633"><ele>473.0</ele><time>2026-03-27T09:50:08Z</time></trkpt><trkpt lat="48.27177504912176" lon="11.64374206303792"><ele>473.0</ele><time>2026-03-27T09:50:09Z</time></trkpt><trkpt lat="48.27150980591922" lon="11.643832360269151"><ele>473.0</ele><time>2026-03-27T09:50:10Z</time></trkpt><trkpt lat="48.27123954675704" lon="11.643922904525828"><ele>473.5</ele><time>2026-03-27T09:50:11Z</time></trkpt><trkpt lat="48.27096273722941" lon="11.644016887015429"><ele>474.0</ele><time>2026-03-27T09:50:12Z</time></trkpt><trkpt lat="48.2706853124454" lon="11.64411344351769"><ele>474.0</ele><time>2026-03-27T09:50:13Z</time></trkpt><trkpt lat="48.2703957572181" lon="11.644215231859983"><ele>474.0</ele><time>2026-03-27T09:50:14Z</time></trkpt><trkpt lat="48.27009974313667" lon="11.644314366986041"><ele>474.0</ele><time>2026-03-27T09:50:15Z</time></trkpt><trkpt lat="48.26982410063171" lon="11.644406259604043"><ele>474.0</ele><time>2026-03-27T09:50:16Z</time></trkpt><trkpt lat="48.26954419741195" lon="11.644501464880111"><ele>475.0</ele><time>2026-03-27T09:50:17Z</time></trkpt><trkpt lat="48.26926054729156" lon="11.644596249276017"><ele>476.0</ele><time>2026-03-27T09:50:18Z</time></trkpt><trkpt lat="48.268978547009155" lon="11.644690284622557"><ele>475.0</ele><time>2026-03-27T09:50:19Z</time></trkpt><trkpt lat="48.26869582169259" lon="11.644782610230687"><ele>474.0</ele><time>2026-03-27T09:50:20Z</time></trkpt><trkpt lat="48.26841290031184" lon="11.644878139782492"><ele>474.0</ele><time>2026-03-27T09:50:21Z</time></trkpt><trkpt lat="48.268129836544" lon="11.64497840256996"><ele>474.0</ele><time>2026-03-27T09:50:22Z</time></trkpt><trkpt lat="48.26784748989076" lon="11.645077547267162"><ele>474.5</ele><time>2026-03-27T09:50:23Z</time></trkpt><trkpt lat="48.267566826849055" lon="11.64517418573553"><ele>475.0</ele><time>2026-03-27T09:50:24Z</time></trkpt><trkpt lat="48.267286789025405" lon="11.645269650927952"><ele>475.5</ele><time>2026-03-27T09:50:25Z</time></trkpt><trkpt lat="48.26700625519743" lon="11.6453644263333"><ele>476.0</ele><time>2026-03-27T09:50:26Z</time></trkpt><trkpt lat="48.266725737127985" lon="11.645459681605404"><ele>476.0</ele><time>2026-03-27T09:50:27Z</time></trkpt><trkpt lat="48.26644605415842" lon="11.64555664598223"><ele>476.0</ele><time>2026-03-27T09:50:28Z</time></trkpt><trkpt lat="48.26616838910504" lon="11.645652501813448"><ele>476.5</ele><time>2026-03-27T09:50:29Z</time></trkpt><trkpt lat="48.26589355776769" lon="11.645748342555551"><ele>477.0</ele><time>2026-03-27T09:50:30Z</time></trkpt><trkpt lat="48.26561970297447" lon="11.64584373213962"><ele>476.5</ele><time>2026-03-27T09:50:31Z</time></trkpt><trkpt lat="48.265347507376035" lon="11.6459387569263"><ele>476.0</ele><time>2026-03-27T09:50:32Z</time></trkpt><trkpt lat="48.26507301186014" lon="11.646031736704952"><ele>476.0</ele><time>2026-03-27T09:50:33Z</time></trkpt><trkpt lat="48.264796334722696" lon="11.64612582584019"><ele>476.0</ele><time>2026-03-27T09:50:34Z</time></trkpt><trkpt lat="48.26451760527391" lon="11.646219575532776"><ele>478.0</ele><time>2026-03-27T09:50:35Z</time></trkpt><trkpt lat="48.26423664830994" lon="11.64631156764397"><ele>480.0</ele><time>2026-03-27T09:50:36Z</time></trkpt><trkpt lat="48.263948946522305" lon="11.646408094097078"><ele>479.5</ele><time>2026-03-27T09:50:37Z</time></trkpt><trkpt lat="48.263660457050946" lon="11.646498661712462"><ele>479.0</ele><time>2026-03-27T09:50:38Z</time></trkpt><trkpt lat="48.263368070903304" lon="11.646566927446832"><ele>476.5</ele><time>2026-03-27T09:50:39Z</time></trkpt><trkpt lat="48.263079956724035" lon="11.646628928039924"><ele>474.0</ele><time>2026-03-27T09:50:40Z</time></trkpt><trkpt lat="48.262809070116546" lon="11.64669277294951"><ele>474.0</ele><time>2026-03-27T09:50:41Z</time></trkpt><trkpt lat="48.262543962268154" lon="11.646752164796304"><ele>474.0</ele><time>2026-03-27T09:50:42Z</time></trkpt><trkpt lat="48.26227990770639" lon="11.646810568034772"><ele>475.0</ele><time>2026-03-27T09:50:43Z</time></trkpt><trkpt lat="48.262016693012896" lon="11.646862522312837"><ele>476.0</ele><time>2026-03-27T09:50:44Z</time></trkpt><trkpt lat="48.26175755902409" lon="11.646908122889096"><ele>476.0</ele><time>2026-03-27T09:50:45Z</time></trkpt><trkpt lat="48.261502090319645" lon="11.646948964463016"><ele>476.0</ele><time>2026-03-27T09:50:46Z</time></trkpt><trkpt lat="48.26124491427949" lon="11.646983694124762"><ele>475.5</ele><time>2026-03-27T09:50:47Z</time></trkpt><trkpt lat="48.26097812970457" lon="11.647010731166874"><ele>475.0</ele><time>2026-03-27T09:50:48Z</time></trkpt><trkpt lat="48.26071283908693" lon="11.647029587177592"><ele>476.5</ele><time>2026-03-27T09:50:49Z</time></trkpt><trkpt lat="48.260459096628644" lon="11.647042673817193"><ele>478.0</ele><time>2026-03-27T09:50:50Z</time></trkpt><trkpt lat="48.260209373374664" lon="11.647052652234771"><ele>478.0</ele><time>2026-03-27T09:50:50.999Z</time></trkpt><trkpt lat="48.259954638652324" lon="11.647059431653222"><ele>478.0</ele><time>2026-03-27T09:50:51.999Z</time></trkpt><trkpt lat="48.25969482293497" lon="11.64705956577279"><ele>478.5</ele><time>2026-03-27T09:50:52.999Z</time></trkpt><trkpt lat="48.259431465632005" lon="11.647052721257387"><ele>479.0</ele><time>2026-03-27T09:50:53.999Z</time></trkpt><trkpt lat="48.25917325338374" lon="11.647040669392885"><ele>478.0</ele><time>2026-03-27T09:50:54.999Z</time></trkpt><trkpt lat="48.25893480007683" lon="11.647021311551967"><ele>477.0</ele><time>2026-03-27T09:50:55.999Z</time></trkpt><trkpt lat="48.258701266924525" lon="11.64699965950516"><ele>477.0</ele><time>2026-03-27T09:50:56.999Z</time></trkpt><trkpt lat="48.25846713811011" lon="11.646978341585676"><ele>477.0</ele><time>2026-03-27T09:50:57.999Z</time></trkpt><trkpt lat="48.25822089487466" lon="11.646955323860983"><ele>478.0</ele><time>2026-03-27T09:50:58.999Z</time></trkpt><trkpt lat="48.257963104548224" lon="11.646926521743415"><ele>479.0</ele><time>2026-03-27T09:50:59.999Z</time></trkpt><trkpt lat="48.257712618659916" lon="11.646893541380678"><ele>479.0</ele><time>2026-03-27T09:51:00.999Z</time></trkpt><trkpt lat="48.25747593633707" lon="11.646855951487105"><ele>479.0</ele><time>2026-03-27T09:51:01.999Z</time></trkpt><trkpt lat="48.25723930562384" lon="11.646813246984504"><ele>478.5</ele><time>2026-03-27T09:51:02.999Z</time></trkpt><trkpt lat="48.25700298131084" lon="11.646763904637513"><ele>478.0</ele><time>2026-03-27T09:51:03.999Z</time></trkpt><trkpt lat="48.25676438470636" lon="11.646705463647908"><ele>478.0</ele><time>2026-03-27T09:51:04.999Z</time></trkpt><trkpt lat="48.2565171422652" lon="11.646638416432191"><ele>478.0</ele><time>2026-03-27T09:51:05.999Z</time></trkpt><trkpt lat="48.256256249855085" lon="11.646559004433652"><ele>480.0</ele><time>2026-03-27T09:51:06.999Z</time></trkpt><trkpt lat="48.25598864772141" lon="11.64646975750894"><ele>482.0</ele><time>2026-03-27T09:51:07.999Z</time></trkpt><trkpt lat="48.25572392683248" lon="11.646376205180452"><ele>482.5</ele><time>2026-03-27T09:51:08.999Z</time></trkpt><trkpt lat="48.25546502791751" lon="11.646278985258197"><ele>483.0</ele><time>2026-03-27T09:51:09.999Z</time></trkpt><trkpt lat="48.25521405791587" lon="11.646179432919983"><ele>482.5</ele><time>2026-03-27T09:51:10.999Z</time></trkpt><trkpt lat="48.254967961025145" lon="11.64607418721826"><ele>482.0</ele><time>2026-03-27T09:51:11.999Z</time></trkpt><trkpt lat="48.254724985819415" lon="11.645974197981856"><ele>482.0</ele><time>2026-03-27T09:51:12.999Z</time></trkpt><trkpt lat="48.254484325365304" lon="11.64586709517258"><ele>482.0</ele><time>2026-03-27T09:51:13.999Z</time></trkpt><trkpt lat="48.25425142559682" lon="11.645756939175547"><ele>482.0</ele><time>2026-03-27T09:51:14.999Z</time></trkpt><trkpt lat="48.2540178637272" lon="11.645647897999693"><ele>482.0</ele><time>2026-03-27T09:51:15.999Z</time></trkpt><trkpt lat="48.253782751404046" lon="11.645520945117427"><ele>481.0</ele><time>2026-03-27T09:51:16.999Z</time></trkpt><trkpt lat="48.25354319952902" lon="11.645395951334644"><ele>480.0</ele><time>2026-03-27T09:51:17.999Z</time></trkpt><trkpt lat="48.253295250041774" lon="11.645277301542873"><ele>481.5</ele><time>2026-03-27T09:51:18.999Z</time></trkpt><trkpt lat="48.25304453916221" lon="11.645152332799974"><ele>483.0</ele><time>2026-03-27T09:51:19.999Z</time></trkpt><trkpt lat="48.25280065371126" lon="11.64502682112908"><ele>483.0</ele><time>2026-03-27T09:51:20.999Z</time></trkpt><trkpt lat="48.25255055792233" lon="11.644896031048203"><ele>483.0</ele><time>2026-03-27T09:51:21.999Z</time></trkpt><trkpt lat="48.25229271306584" lon="11.644768426812053"><ele>484.5</ele><time>2026-03-27T09:51:22.999Z</time></trkpt><trkpt lat="48.252032044491244" lon="11.644646044510003"><ele>486.0</ele><time>2026-03-27T09:51:23.999Z</time></trkpt><trkpt lat="48.251784993969366" lon="11.6445250426237"><ele>485.5</ele><time>2026-03-27T09:51:24.999Z</time></trkpt><trkpt lat="48.251548430606746" lon="11.644402915393703"><ele>485.0</ele><time>2026-03-27T09:51:25.999Z</time></trkpt><trkpt lat="48.25130745911061" lon="11.644280998531855"><ele>485.0</ele><time>2026-03-27T09:51:26.999Z</time></trkpt><trkpt lat="48.251062516922026" lon="11.644156319709976"><ele>485.0</ele><time>2026-03-27T09:51:27.999Z</time></trkpt><trkpt lat="48.25081413805555" lon="11.644027402185454"><ele>484.5</ele><time>2026-03-27T09:51:28.999Z</time></trkpt><trkpt lat="48.250557076755136" lon="11.643894672189324"><ele>484.0</ele><time>2026-03-27T09:51:29.999Z</time></trkpt><trkpt lat="48.25030447125419" lon="11.64376703190739"><ele>484.0</ele><time>2026-03-27T09:51:30.999Z</time></trkpt><trkpt lat="48.25005360121326" lon="11.643640676231243"><ele>484.0</ele><time>2026-03-27T09:51:31.999Z</time></trkpt><trkpt lat="48.24980966592161" lon="11.643518911043595"><ele>484.5</ele><time>2026-03-27T09:51:32.999Z</time></trkpt><trkpt lat="48.249569990252155" lon="11.643399814170918"><ele>485.0</ele><time>2026-03-27T09:51:33.999Z</time></trkpt><trkpt lat="48.2493349360742" lon="11.643280461114577"><ele>485.0</ele><time>2026-03-27T09:51:34.999Z</time></trkpt><trkpt lat="48.24910502621894" lon="11.64316208205218"><ele>485.0</ele><time>2026-03-27T09:51:35.999Z</time></trkpt><trkpt lat="48.248878052413275" lon="11.643046090324326"><ele>484.0</ele><time>2026-03-27T09:51:36.999Z</time></trkpt><trkpt lat="48.2486508204957" lon="11.642931397475218"><ele>483.0</ele><time>2026-03-27T09:51:37.999Z</time></trkpt><trkpt lat="48.248419778507476" lon="11.642817144641942"><ele>483.0</ele><time>2026-03-27T09:51:38.999Z</time></trkpt><trkpt lat="48.24818183584711" lon="11.64270153176599"><ele>483.0</ele><time>2026-03-27T09:51:39.999Z</time></trkpt><trkpt lat="48.2479433664193" lon="11.642584291369115"><ele>483.0</ele><time>2026-03-27T09:51:40.999Z</time></trkpt><trkpt lat="48.24770528906449" lon="11.642462525398713"><ele>483.0</ele><time>2026-03-27T09:51:41.999Z</time></trkpt><trkpt lat="48.247470527930126" lon="11.642340400648044"><ele>482.5</ele><time>2026-03-27T09:51:42.999Z</time></trkpt><trkpt lat="48.2472454511866" lon="11.642224693987668"><ele>482.0</ele><time>2026-03-27T09:51:43.999Z</time></trkpt><trkpt lat="48.24702359439694" lon="11.64211278402987"><ele>482.0</ele><time>2026-03-27T09:51:44.999Z</time></trkpt><trkpt lat="48.246799903632166" lon="11.642003563895715"><ele>482.0</ele><time>2026-03-27T09:51:45.999Z</time></trkpt><trkpt lat="48.246575203769844" lon="11.641893158627049"><ele>483.0</ele><time>2026-03-27T09:51:46.999Z</time></trkpt><trkpt lat="48.246349565113945" lon="11.641779965110661"><ele>484.0</ele><time>2026-03-27T09:51:47.999Z</time></trkpt><trkpt lat="48.24612476752073" lon="11.641665666066132"><ele>484.0</ele><time>2026-03-27T09:51:48.999Z</time></trkpt><trkpt lat="48.245898800747575" lon="11.641553185028377"><ele>484.0</ele><time>2026-03-27T09:51:49.999Z</time></trkpt><trkpt lat="48.2456704026387" lon="11.64144120568588"><ele>483.0</ele><time>2026-03-27T09:51:50.999Z</time></trkpt><trkpt lat="48.24544079356373" lon="11.641327636334825"><ele>482.0</ele><time>2026-03-27T09:51:51.999Z</time></trkpt><trkpt lat="48.24520920568378" lon="11.641213693078154"><ele>483.0</ele><time>2026-03-27T09:51:52.999Z</time></trkpt><trkpt lat="48.244975317473084" lon="11.641096919717631"><ele>484.0</ele><time>2026-03-27T09:51:53.999Z</time></trkpt><trkpt lat="48.24473617314373" lon="11.640975141174016"><ele>485.5</ele><time>2026-03-27T09:51:54.999Z</time></trkpt><trkpt lat="48.24449428564394" lon="11.640850406688996"><ele>487.0</ele><time>2026-03-27T09:51:55.999Z</time></trkpt><trkpt lat="48.244254779141" lon="11.640727496466097"><ele>487.0</ele><time>2026-03-27T09:51:56.999Z</time></trkpt><trkpt lat="48.244014495237636" lon="11.640607312491007"><ele>487.0</ele><time>2026-03-27T09:51:57.999Z</time></trkpt><trkpt lat="48.243772329033575" lon="11.640485589211124"><ele>487.0</ele><time>2026-03-27T09:51:58.999Z</time></trkpt><trkpt lat="48.24352554040163" lon="11.640360844509663"><ele>487.0</ele><time>2026-03-27T09:52:00Z</time></trkpt><trkpt lat="48.24328253808235" lon="11.640239774090343"><ele>484.5</ele><time>2026-03-27T09:52:01Z</time></trkpt><trkpt lat="48.24304088798379" lon="11.640119313610334"><ele>482.0</ele><time>2026-03-27T09:52:02Z</time></trkpt><trkpt lat="48.24280545021882" lon="11.640000093209219"><ele>482.0</ele><time>2026-03-27T09:52:03Z</time></trkpt><trkpt lat="48.24257847886709" lon="11.639886764047896"><ele>482.0</ele><time>2026-03-27T09:52:04Z</time></trkpt><trkpt lat="48.242360448704034" lon="11.639778068012713"><ele>482.0</ele><time>2026-03-27T09:52:05Z</time></trkpt><trkpt lat="48.242156667081076" lon="11.639674968323588"><ele>482.0</ele><time>2026-03-27T09:52:06Z</time></trkpt><trkpt lat="48.241962904923064" lon="11.639576718229433"><ele>482.0</ele><time>2026-03-27T09:52:07Z</time></trkpt><trkpt lat="48.241779152758866" lon="11.639484713530504"><ele>482.0</ele><time>2026-03-27T09:52:08Z</time></trkpt><trkpt lat="48.241596771773274" lon="11.639393844763397"><ele>482.0</ele><time>2026-03-27T09:52:09Z</time></trkpt><trkpt lat="48.24141881498406" lon="11.639303866931483"><ele>482.0</ele><time>2026-03-27T09:52:10Z</time></trkpt><trkpt lat="48.2412425681612" lon="11.6392154020314"><ele>482.0</ele><time>2026-03-27T09:52:11Z</time></trkpt><trkpt lat="48.241067493657674" lon="11.639127059131402"><ele>482.0</ele><time>2026-03-27T09:52:12Z</time></trkpt><trkpt lat="48.240889921980425" lon="11.639038335227916"><ele>482.0</ele><time>2026-03-27T09:52:13Z</time></trkpt><trkpt lat="48.24070935362148" lon="11.63894870393652"><ele>482.0</ele><time>2026-03-27T09:52:14Z</time></trkpt><trkpt lat="48.240526793609135" lon="11.638857419503841"><ele>482.0</ele><time>2026-03-27T09:52:15Z</time></trkpt><trkpt lat="48.24034448744313" lon="11.638765724705133"><ele>482.0</ele><time>2026-03-27T09:52:16Z</time></trkpt><trkpt lat="48.24016475428648" lon="11.638674255815914"><ele>482.0</ele><time>2026-03-27T09:52:17Z</time></trkpt><trkpt lat="48.239985652830924" lon="11.638586044749706"><ele>482.0</ele><time>2026-03-27T09:52:18Z</time></trkpt><trkpt lat="48.23981046018809" lon="11.638500426326468"><ele>482.0</ele><time>2026-03-27T09:52:19Z</time></trkpt><trkpt lat="48.239640378045635" lon="11.63841590544946"><ele>482.0</ele><time>2026-03-27T09:52:20Z</time></trkpt><trkpt lat="48.23946991846298" lon="11.638330152626114"><ele>482.0</ele><time>2026-03-27T09:52:21Z</time></trkpt><trkpt lat="48.239296079750005" lon="11.638242379062238"><ele>482.0</ele><time>2026-03-27T09:52:22Z</time></trkpt><trkpt lat="48.23911885396316" lon="11.63815404999239"><ele>482.66666666666663</ele><time>2026-03-27T09:52:23Z</time></trkpt><trkpt lat="48.238941047550725" lon="11.638064660146547"><ele>483.33333333333337</ele><time>2026-03-27T09:52:24Z</time></trkpt><trkpt lat="48.238758242392066" lon="11.637974484606376"><ele>484.0</ele><time>2026-03-27T09:52:25Z</time></trkpt><trkpt lat="48.23857497455963" lon="11.637879431104889"><ele>484.0</ele><time>2026-03-27T09:52:26Z</time></trkpt><trkpt lat="48.238389198290704" lon="11.63778881773894"><ele>484.0</ele><time>2026-03-27T09:52:27Z</time></trkpt><trkpt lat="48.23820015924976" lon="11.637694854989533"><ele>484.0</ele><time>2026-03-27T09:52:28Z</time></trkpt><trkpt lat="48.23800791181313" lon="11.637596135080058"><ele>484.0</ele><time>2026-03-27T09:52:29Z</time></trkpt><trkpt lat="48.237815324950894" lon="11.637500483849099"><ele>484.0</ele><time>2026-03-27T09:52:30Z</time></trkpt><trkpt lat="48.23762366667486" lon="11.637404149235424"><ele>484.0</ele><time>2026-03-27T09:52:31Z</time></trkpt><trkpt lat="48.237434692942905" lon="11.63730677646155"><ele>483.6666666666667</ele><time>2026-03-27T09:52:32Z</time></trkpt><trkpt lat="48.23724273603109" lon="11.637210360687417"><ele>483.33333333333337</ele><time>2026-03-27T09:52:33Z</time></trkpt><trkpt lat="48.237046227906085" lon="11.637113854576903"><ele>483.0</ele><time>2026-03-27T09:52:34Z</time></trkpt><trkpt lat="48.236845434792095" lon="11.637013677744633"><ele>483.33333333333337</ele><time>2026-03-27T09:52:35Z</time></trkpt><trkpt lat="48.23663976792479" lon="11.636911957358723"><ele>483.6666666666667</ele><time>2026-03-27T09:52:36Z</time></trkpt><trkpt lat="48.236430918166405" lon="11.636806954188694"><ele>484.0</ele><time>2026-03-27T09:52:37Z</time></trkpt><trkpt lat="48.2362190847929" lon="11.636702941585492"><ele>484.0</ele><time>2026-03-27T09:52:38Z</time></trkpt><trkpt lat="48.23601131283061" lon="11.63659873077278"><ele>484.0</ele><time>2026-03-27T09:52:39Z</time></trkpt><trkpt lat="48.23580366091621" lon="11.63649334228562"><ele>484.0</ele><time>2026-03-27T09:52:40Z</time></trkpt><trkpt lat="48.2355971740099" lon="11.636389198580378"><ele>484.33333333333337</ele><time>2026-03-27T09:52:41Z</time></trkpt><trkpt lat="48.23538911445406" lon="11.636285215174949"><ele>484.66666666666663</ele><time>2026-03-27T09:52:42Z</time></trkpt><trkpt lat="48.23517532627659" lon="11.636178815133784"><ele>485.0</ele><time>2026-03-27T09:52:43Z</time></trkpt><trkpt lat="48.2349567723797" lon="11.636069139009694"><ele>485.5</ele><time>2026-03-27T09:52:44Z</time></trkpt><trkpt lat="48.23473596593351" lon="11.635957902091075"><ele>486.0</ele><time>2026-03-27T09:52:45Z</time></trkpt><trkpt lat="48.23451380484795" lon="11.63584743874487"><ele>486.0</ele><time>2026-03-27T09:52:46Z</time></trkpt><trkpt lat="48.234296137904" lon="11.635737727280505"><ele>486.0</ele><time>2026-03-27T09:52:47Z</time></trkpt><trkpt lat="48.23408332263348" lon="11.63563070744956"><ele>487.0</ele><time>2026-03-27T09:52:48Z</time></trkpt><trkpt lat="48.23387325284352" lon="11.635526056687183"><ele>488.0</ele><time>2026-03-27T09:52:49Z</time></trkpt><trkpt lat="48.233667202222634" lon="11.635424005556642"><ele>489.0</ele><time>2026-03-27T09:52:50Z</time></trkpt><trkpt lat="48.23346009555354" lon="11.635322160904584"><ele>488.66666666666663</ele><time>2026-03-27T09:52:51Z</time></trkpt><trkpt lat="48.233252071038294" lon="11.635221000070585"><ele>488.3333333333333</ele><time>2026-03-27T09:52:52Z</time></trkpt><trkpt lat="48.23304087937872" lon="11.635120781190299"><ele>488.0</ele><time>2026-03-27T09:52:53Z</time></trkpt><trkpt lat="48.23282921280398" lon="11.635011299697833"><ele>487.5</ele><time>2026-03-27T09:52:54Z</time></trkpt><trkpt lat="48.23261670874549" lon="11.634898522034248"><ele>487.0</ele><time>2026-03-27T09:52:55Z</time></trkpt><trkpt lat="48.23239990269961" lon="11.634791059421016"><ele>486.0</ele><time>2026-03-27T09:52:56Z</time></trkpt><trkpt lat="48.23218209211916" lon="11.634682220388582"><ele>485.0</ele><time>2026-03-27T09:52:57Z</time></trkpt><trkpt lat="48.231962053912326" lon="11.634573057639962"><ele>485.0</ele><time>2026-03-27T09:52:58Z</time></trkpt><trkpt lat="48.23174153562604" lon="11.634461234504053"><ele>485.0</ele><time>2026-03-27T09:52:59Z</time></trkpt><trkpt lat="48.23152509634056" lon="11.6343516342592"><ele>485.3333333333333</ele><time>2026-03-27T09:53:00Z</time></trkpt><trkpt lat="48.23131253535" lon="11.634247418930649"><ele>485.66666666666663</ele><time>2026-03-27T09:53:01Z</time></trkpt><trkpt lat="48.23110398612993" lon="11.634142994200907"><ele>486.0</ele><time>2026-03-27T09:53:02Z</time></trkpt><trkpt lat="48.23090310145441" lon="11.634040111599608"><ele>486.0</ele><time>2026-03-27T09:53:03Z</time></trkpt><trkpt lat="48.23071208018493" lon="11.63394104540346"><ele>486.0</ele><time>2026-03-27T09:53:04Z</time></trkpt><trkpt lat="48.230528101950966" lon="11.63384749111971"><ele>486.0</ele><time>2026-03-27T09:53:05Z</time></trkpt><trkpt lat="48.230348295840436" lon="11.633757355820277"><ele>486.0</ele><time>2026-03-27T09:53:06Z</time></trkpt><trkpt lat="48.23017092480779" lon="11.633671401202939"><ele>486.0</ele><time>2026-03-27T09:53:06.999Z</time></trkpt><trkpt lat="48.229994614902886" lon="11.633582443090642"><ele>486.0</ele><time>2026-03-27T09:53:07.999Z</time></trkpt><trkpt lat="48.22981841302185" lon="11.633494051170214"><ele>486.66666666666663</ele><time>2026-03-27T09:53:08.999Z</time></trkpt><trkpt lat="48.229642031650386" lon="11.633405154014017"><ele>487.3333333333333</ele><time>2026-03-27T09:53:09.999Z</time></trkpt><trkpt lat="48.22946404474485" lon="11.633316221283375"><ele>488.0</ele><time>2026-03-27T09:53:10.999Z</time></trkpt><trkpt lat="48.229286301377876" lon="11.633228109460559"><ele>488.0</ele><time>2026-03-27T09:53:11.999Z</time></trkpt><trkpt lat="48.22910880970433" lon="11.633138550999423"><ele>488.0</ele><time>2026-03-27T09:53:12.999Z</time></trkpt><trkpt lat="48.22893126686277" lon="11.633047419472803"><ele>488.0</ele><time>2026-03-27T09:53:13.999Z</time></trkpt><trkpt lat="48.22875541962918" lon="11.632960848697795"><ele>487.3333333333333</ele><time>2026-03-27T09:53:14.999Z</time></trkpt><trkpt lat="48.228579596854395" lon="11.632872933754774"><ele>486.66666666666663</ele><time>2026-03-27T09:53:15.999Z</time></trkpt><trkpt lat="48.22840698889747" lon="11.632787647500338"><ele>486.0</ele><time>2026-03-27T09:53:16.999Z</time></trkpt><trkpt lat="48.22823805925664" lon="11.632701099236149"><ele>486.33333333333337</ele><time>2026-03-27T09:53:17.999Z</time></trkpt><trkpt lat="48.228071523250634" lon="11.632618403114991"><ele>486.6666666666667</ele><time>2026-03-27T09:53:18.999Z</time></trkpt><trkpt lat="48.22790248934449" lon="11.632534385172313"><ele>487.0</ele><time>2026-03-27T09:53:19.999Z</time></trkpt><trkpt lat="48.22772885286438" lon="11.632447277300926"><ele>487.0</ele><time>2026-03-27T09:53:20.999Z</time></trkpt><trkpt lat="48.227552305772015" lon="11.632356946351953"><ele>487.0</ele><time>2026-03-27T09:53:21.999Z</time></trkpt><trkpt lat="48.22737610783745" lon="11.632267674342911"><ele>487.0</ele><time>2026-03-27T09:53:22.999Z</time></trkpt><trkpt lat="48.22720125226781" lon="11.632179008518515"><ele>487.6666666666667</ele><time>2026-03-27T09:53:23.999Z</time></trkpt><trkpt lat="48.22702739800012" lon="11.63209251511161"><ele>488.33333333333337</ele><time>2026-03-27T09:53:24.999Z</time></trkpt><trkpt lat="48.226855578946825" lon="11.632008566184387"><ele>489.0</ele><time>2026-03-27T09:53:25.999Z</time></trkpt><trkpt lat="48.226683503582684" lon="11.63192103451362"><ele>489.0</ele><time>2026-03-27T09:53:26.999Z</time></trkpt><trkpt lat="48.22650831859092" lon="11.631832897086438"><ele>489.0</ele><time>2026-03-27T09:53:27.999Z</time></trkpt><trkpt lat="48.226333545053805" lon="11.63174426389869"><ele>489.0</ele><time>2026-03-27T09:53:28.999Z</time></trkpt><trkpt lat="48.22615648477496" lon="11.63165508721233"><ele>489.33333333333337</ele><time>2026-03-27T09:53:29.999Z</time></trkpt><trkpt lat="48.22597598710906" lon="11.6315679600257"><ele>489.6666666666667</ele><time>2026-03-27T09:53:30.999Z</time></trkpt><trkpt lat="48.225795058322156" lon="11.63147354626714"><ele>490.0</ele><time>2026-03-27T09:53:31.999Z</time></trkpt><trkpt lat="48.225613062774066" lon="11.631387125362417"><ele>490.0</ele><time>2026-03-27T09:53:32.999Z</time></trkpt><trkpt lat="48.22543025176784" lon="11.631297453082276"><ele>490.0</ele><time>2026-03-27T09:53:33.999Z</time></trkpt><trkpt lat="48.225246023131234" lon="11.631205225257165"><ele>490.0</ele><time>2026-03-27T09:53:34.999Z</time></trkpt><trkpt lat="48.22506088194001" lon="11.63111210959634"><ele>490.6666666666667</ele><time>2026-03-27T09:53:35.999Z</time></trkpt><trkpt lat="48.22487783488641" lon="11.631018233717173"><ele>491.33333333333337</ele><time>2026-03-27T09:53:36.999Z</time></trkpt><trkpt lat="48.224695196798116" lon="11.630928067088455"><ele>492.0</ele><time>2026-03-27T09:53:37.999Z</time></trkpt><trkpt lat="48.2245132079401" lon="11.630838707033027"><ele>492.0</ele><time>2026-03-27T09:53:38.999Z</time></trkpt><trkpt lat="48.224332436778184" lon="11.630748014406612"><ele>492.0</ele><time>2026-03-27T09:53:39.999Z</time></trkpt><trkpt lat="48.22415320457942" lon="11.630658376147172"><ele>492.0</ele><time>2026-03-27T09:53:40.999Z</time></trkpt><trkpt lat="48.22397846232219" lon="11.630562786875975"><ele>492.66666666666663</ele><time>2026-03-27T09:53:41.999Z</time></trkpt><trkpt lat="48.2238049248278" lon="11.630472326759008"><ele>493.3333333333333</ele><time>2026-03-27T09:53:42.999Z</time></trkpt><trkpt lat="48.223630239914485" lon="11.6303950250094"><ele>494.0</ele><time>2026-03-27T09:53:43.999Z</time></trkpt><trkpt lat="48.22345904324384" lon="11.630312525186726"><ele>493.3333333333333</ele><time>2026-03-27T09:53:44.999Z</time></trkpt><trkpt lat="48.22328701092315" lon="11.63022930072878"><ele>492.66666666666663</ele><time>2026-03-27T09:53:45.999Z</time></trkpt><trkpt lat="48.22311092115951" lon="11.630142905157582"><ele>492.0</ele><time>2026-03-27T09:53:46.999Z</time></trkpt><trkpt lat="48.2229325728077" lon="11.630048803111976"><ele>491.33333333333337</ele><time>2026-03-27T09:53:47.999Z</time></trkpt><trkpt lat="48.222746932116145" lon="11.629956547341562"><ele>490.6666666666667</ele><time>2026-03-27T09:53:48.999Z</time></trkpt><trkpt lat="48.222565882903744" lon="11.62986392664447"><ele>490.0</ele><time>2026-03-27T09:53:49.999Z</time></trkpt><trkpt lat="48.22238592517728" lon="11.629769017912308"><ele>489.6666666666667</ele><time>2026-03-27T09:53:50.999Z</time></trkpt><trkpt lat="48.222207904472185" lon="11.629680578419853"><ele>489.33333333333337</ele><time>2026-03-27T09:53:51.999Z</time></trkpt><trkpt lat="48.222032406634234" lon="11.62959048613864"><ele>489.0</ele><time>2026-03-27T09:53:52.999Z</time></trkpt><trkpt lat="48.22186624148607" lon="11.62950207629872"><ele>489.66666666666663</ele><time>2026-03-27T09:53:53.999Z</time></trkpt><trkpt lat="48.22170711136786" lon="11.629415449206638"><ele>490.3333333333333</ele><time>2026-03-27T09:53:54.999Z</time></trkpt><trkpt lat="48.22148932609303" lon="11.62931891364484"><ele>491.0</ele><time>2026-03-27T09:53:55.999Z</time></trkpt><trkpt lat="48.22130283603342" lon="11.62922501436898"><ele>491.66666666666663</ele><time>2026-03-27T09:53:56.999Z</time></trkpt><trkpt lat="48.22111331600179" lon="11.629131002844856"><ele>492.33333333333337</ele><time>2026-03-27T09:53:57.999Z</time></trkpt><trkpt lat="48.2209256852106" lon="11.629039894199678"><ele>493.0</ele><time>2026-03-27T09:53:58.999Z</time></trkpt><trkpt lat="48.22074232668986" lon="11.628932831684457"><ele>492.33333333333337</ele><time>2026-03-27T09:53:59.999Z</time></trkpt><trkpt lat="48.22055162416541" lon="11.628850091188449"><ele>491.66666666666663</ele><time>2026-03-27T09:54:00.999Z</time></trkpt><trkpt lat="48.22035819285289" lon="11.628754066600814"><ele>491.0</ele><time>2026-03-27T09:54:01.999Z</time></trkpt><trkpt lat="48.220175155525624" lon="11.628662174153913"><ele>491.3333333333333</ele><time>2026-03-27T09:54:02.999Z</time></trkpt><trkpt lat="48.2199971030229" lon="11.628572718888167"><ele>491.66666666666663</ele><time>2026-03-27T09:54:03.999Z</time></trkpt><trkpt lat="48.21982065385241" lon="11.628488608571695"><ele>492.0</ele><time>2026-03-27T09:54:05Z</time></trkpt><trkpt lat="48.21964650903229" lon="11.628397682922149"><ele>492.66666666666663</ele><time>2026-03-27T09:54:06Z</time></trkpt><trkpt lat="48.21947157138302" lon="11.62831131363019"><ele>493.3333333333333</ele><time>2026-03-27T09:54:07Z</time></trkpt><trkpt lat="48.21929836422254" lon="11.628223614093391"><ele>494.0</ele><time>2026-03-27T09:54:08Z</time></trkpt><trkpt lat="48.21912304969567" lon="11.628141064415962"><ele>493.3333333333333</ele><time>2026-03-27T09:54:09Z</time></trkpt><trkpt lat="48.218948661485456" lon="11.628054726188369"><ele>492.66666666666663</ele><time>2026-03-27T09:54:10Z</time></trkpt><trkpt lat="48.21876940207338" lon="11.627965904043222"><ele>492.0</ele><time>2026-03-27T09:54:11Z</time></trkpt><trkpt lat="48.218585863450265" lon="11.627873550576377"><ele>492.0</ele><time>2026-03-27T09:54:12Z</time></trkpt><trkpt lat="48.21839718404165" lon="11.627774485138376"><ele>492.0</ele><time>2026-03-27T09:54:13Z</time></trkpt><trkpt lat="48.21820445220319" lon="11.62767430691205"><ele>492.0</ele><time>2026-03-27T09:54:14Z</time></trkpt><trkpt lat="48.218019769023634" lon="11.627586866894289"><ele>492.0</ele><time>2026-03-27T09:54:15Z</time></trkpt><trkpt lat="48.21784380206927" lon="11.627494933586972"><ele>492.0</ele><time>2026-03-27T09:54:16Z</time></trkpt><trkpt lat="48.217667787159634" lon="11.627399410182848"><ele>492.0</ele><time>2026-03-27T09:54:17Z</time></trkpt><trkpt lat="48.217490723765835" lon="11.627311720553354"><ele>492.0</ele><time>2026-03-27T09:54:18Z</time></trkpt><trkpt lat="48.217304170545766" lon="11.62722368543329"><ele>492.0</ele><time>2026-03-27T09:54:19Z</time></trkpt><trkpt lat="48.217124834960956" lon="11.627135767023187"><ele>492.0</ele><time>2026-03-27T09:54:20Z</time></trkpt><trkpt lat="48.21694509326215" lon="11.627045702804148"><ele>492.0</ele><time>2026-03-27T09:54:21Z</time></trkpt><trkpt lat="48.2167676632883" lon="11.626955580431707"><ele>492.0</ele><time>2026-03-27T09:54:22Z</time></trkpt><trkpt lat="48.21658894321544" lon="11.626867745630346"><ele>492.0</ele><time>2026-03-27T09:54:23Z</time></trkpt><trkpt lat="48.21641690517242" lon="11.626786885824485"><ele>492.0</ele><time>2026-03-27T09:54:24Z</time></trkpt><trkpt lat="48.21624384264158" lon="11.626707011090016"><ele>492.0</ele><time>2026-03-27T09:54:25Z</time></trkpt><trkpt lat="48.21607195187206" lon="11.626622230906982"><ele>492.0</ele><time>2026-03-27T09:54:26Z</time></trkpt><trkpt lat="48.21590412543244" lon="11.626535067603212"><ele>492.0</ele><time>2026-03-27T09:54:27Z</time></trkpt><trkpt lat="48.21573887373388" lon="11.626444799768995"><ele>492.0</ele><time>2026-03-27T09:54:28Z</time></trkpt><trkpt lat="48.215574919629866" lon="11.626344839405897"><ele>492.0</ele><time>2026-03-27T09:54:29Z</time></trkpt><trkpt lat="48.21540900671073" lon="11.626240825058243"><ele>492.33333333333337</ele><time>2026-03-27T09:54:30Z</time></trkpt><trkpt lat="48.21524269559883" lon="11.626151139751453"><ele>492.6666666666667</ele><time>2026-03-27T09:54:31Z</time></trkpt><trkpt lat="48.215079637328415" lon="11.62606363479512"><ele>493.0</ele><time>2026-03-27T09:54:32Z</time></trkpt><trkpt lat="48.21492098111703" lon="11.625972084515338"><ele>492.0</ele><time>2026-03-27T09:54:33Z</time></trkpt><trkpt lat="48.21475960160358" lon="11.625877696402027"><ele>491.0</ele><time>2026-03-27T09:54:34Z</time></trkpt><trkpt lat="48.21459542940689" lon="11.62578837911276"><ele>490.0</ele><time>2026-03-27T09:54:35Z</time></trkpt><trkpt lat="48.214428191070176" lon="11.625701924151441"><ele>490.0</ele><time>2026-03-27T09:54:36Z</time></trkpt><trkpt lat="48.214260567113605" lon="11.62561474005447"><ele>490.0</ele><time>2026-03-27T09:54:37Z</time></trkpt><trkpt lat="48.21409150621097" lon="11.625530831621953"><ele>490.0</ele><time>2026-03-27T09:54:38Z</time></trkpt><trkpt lat="48.213922742270064" lon="11.625445630214575"><ele>490.6666666666667</ele><time>2026-03-27T09:54:39Z</time></trkpt><trkpt lat="48.21375331271257" lon="11.625360533225265"><ele>491.33333333333337</ele><time>2026-03-27T09:54:40Z</time></trkpt><trkpt lat="48.21358169529565" lon="11.62527456754018"><ele>492.0</ele><time>2026-03-27T09:54:41Z</time></trkpt><trkpt lat="48.21340633110046" lon="11.625185760154295"><ele>492.33333333333337</ele><time>2026-03-27T09:54:42Z</time></trkpt><trkpt lat="48.213229329638544" lon="11.625094821567155"><ele>492.6666666666667</ele><time>2026-03-27T09:54:43Z</time></trkpt><trkpt lat="48.21305425610705" lon="11.62500922772255"><ele>493.0</ele><time>2026-03-27T09:54:44Z</time></trkpt><trkpt lat="48.21288303258637" lon="11.624924916957227"><ele>493.6666666666667</ele><time>2026-03-27T09:54:45Z</time></trkpt><trkpt lat="48.21271747232895" lon="11.624841208178621"><ele>494.33333333333337</ele><time>2026-03-27T09:54:46Z</time></trkpt><trkpt lat="48.212553345190535" lon="11.62475605213791"><ele>495.0</ele><time>2026-03-27T09:54:47Z</time></trkpt><trkpt lat="48.21238238345849" lon="11.624671764835854"><ele>494.66666666666663</ele><time>2026-03-27T09:54:48Z</time></trkpt><trkpt lat="48.212206017041815" lon="11.624586725960452"><ele>494.3333333333333</ele><time>2026-03-27T09:54:49Z</time></trkpt><trkpt lat="48.21202694483625" lon="11.624498993853951"><ele>494.0</ele><time>2026-03-27T09:54:50Z</time></trkpt><trkpt lat="48.21184427892116" lon="11.624407388752727"><ele>493.66666666666663</ele><time>2026-03-27T09:54:51Z</time></trkpt><trkpt lat="48.21166625305839" lon="11.624318395779031"><ele>493.33333333333337</ele><time>2026-03-27T09:54:52Z</time></trkpt><trkpt lat="48.21149275413457" lon="11.624233050958683"><ele>493.0</ele><time>2026-03-27T09:54:53Z</time></trkpt><trkpt lat="48.211322966967764" lon="11.624148013209123"><ele>493.0</ele><time>2026-03-27T09:54:54Z</time></trkpt><trkpt lat="48.21115492694356" lon="11.624063197732031"><ele>493.0</ele><time>2026-03-27T09:54:55Z</time></trkpt><trkpt lat="48.21098137917867" lon="11.623977358564527"><ele>493.0</ele><time>2026-03-27T09:54:56Z</time></trkpt><trkpt lat="48.21080775954512" lon="11.623889905943983"><ele>492.6666666666667</ele><time>2026-03-27T09:54:57Z</time></trkpt><trkpt lat="48.21063436616631" lon="11.62380205391206"><ele>492.33333333333337</ele><time>2026-03-27T09:54:58Z</time></trkpt><trkpt lat="48.21045734365736" lon="11.623713710991106"><ele>492.0</ele><time>2026-03-27T09:54:59Z</time></trkpt><trkpt lat="48.21028018774676" lon="11.623623863756364"><ele>492.66666666666663</ele><time>2026-03-27T09:55:00Z</time></trkpt><trkpt lat="48.21010151446147" lon="11.62353426052969"><ele>493.3333333333333</ele><time>2026-03-27T09:55:01Z</time></trkpt><trkpt lat="48.209926195506725" lon="11.623443900033037"><ele>494.0</ele><time>2026-03-27T09:55:02Z</time></trkpt><trkpt lat="48.2097541159277" lon="11.623358992440826"><ele>494.0</ele><time>2026-03-27T09:55:03Z</time></trkpt><trkpt lat="48.20958512781192" lon="11.623275876822955"><ele>494.0</ele><time>2026-03-27T09:55:04Z</time></trkpt><trkpt lat="48.20941832161232" lon="11.623192234686686"><ele>494.0</ele><time>2026-03-27T09:55:05Z</time></trkpt><trkpt lat="48.209253170473595" lon="11.623107951299938"><ele>494.0</ele><time>2026-03-27T09:55:06Z</time></trkpt><trkpt lat="48.20908731825885" lon="11.623022187333852"><ele>494.0</ele><time>2026-03-27T09:55:07Z</time></trkpt><trkpt lat="48.20891846700443" lon="11.622935845752295"><ele>494.0</ele><time>2026-03-27T09:55:08Z</time></trkpt><trkpt lat="48.20874245339951" lon="11.62285059747828"><ele>494.0</ele><time>2026-03-27T09:55:09Z</time></trkpt><trkpt lat="48.208561395392756" lon="11.622764539375355"><ele>494.0</ele><time>2026-03-27T09:55:10Z</time></trkpt><trkpt lat="48.208386897787705" lon="11.622678479013915"><ele>494.0</ele><time>2026-03-27T09:55:11Z</time></trkpt><trkpt lat="48.20822539338158" lon="11.622593992996954"><ele>494.25</ele><time>2026-03-27T09:55:12Z</time></trkpt><trkpt lat="48.20808040714766" lon="11.622520049055348"><ele>494.5</ele><time>2026-03-27T09:55:13Z</time></trkpt><trkpt lat="48.207936624821755" lon="11.622448687247088"><ele>494.75</ele><time>2026-03-27T09:55:14Z</time></trkpt><trkpt lat="48.2078006669048" lon="11.622379181454683"><ele>495.0</ele><time>2026-03-27T09:55:15Z</time></trkpt><trkpt lat="48.207663634603215" lon="11.62230850367636"><ele>495.0</ele><time>2026-03-27T09:55:16Z</time></trkpt><trkpt lat="48.20751676572897" lon="11.622234568182689"><ele>495.0</ele><time>2026-03-27T09:55:17Z</time></trkpt><trkpt lat="48.20737675525254" lon="11.622166236008091"><ele>495.0</ele><time>2026-03-27T09:55:18Z</time></trkpt><trkpt lat="48.20724693340751" lon="11.622100045207779"><ele>495.0</ele><time>2026-03-27T09:55:19Z</time></trkpt><trkpt lat="48.20711383264345" lon="11.622031282355612"><ele>495.25</ele><time>2026-03-27T09:55:20Z</time></trkpt><trkpt lat="48.20698380417869" lon="11.621947694475"><ele>495.5</ele><time>2026-03-27T09:55:21Z</time></trkpt><trkpt lat="48.20685719971567" lon="11.621836170802478"><ele>495.75</ele><time>2026-03-27T09:55:22Z</time></trkpt><trkpt lat="48.206744057816046" lon="11.621698058687851"><ele>496.0</ele><time>2026-03-27T09:55:23Z</time></trkpt><trkpt lat="48.206649470684454" lon="11.621539627803232"><ele>496.0</ele><time>2026-03-27T09:55:24Z</time></trkpt><trkpt lat="48.20658055706246" lon="11.621370821574194"><ele>496.0</ele><time>2026-03-27T09:55:25Z</time></trkpt><trkpt lat="48.20653275803318" lon="11.621199204703425"><ele>496.0</ele><time>2026-03-27T09:55:26Z</time></trkpt><trkpt lat="48.20650583400245" lon="11.62103125540161"><ele>496.0</ele><time>2026-03-27T09:55:27Z</time></trkpt><trkpt lat="48.206494585160364" lon="11.620860009022568"><ele>495.75</ele><time>2026-03-27T09:55:27.999Z</time></trkpt><trkpt lat="48.20649987391291" lon="11.620678962592356"><ele>495.5</ele><time>2026-03-27T09:55:28.999Z</time></trkpt><trkpt lat="48.206520655664164" lon="11.620496937785724"><ele>495.25</ele><time>2026-03-27T09:55:29.999Z</time></trkpt><trkpt lat="48.206557707379304" lon="11.620320054866655"><ele>495.0</ele><time>2026-03-27T09:55:30.999Z</time></trkpt><trkpt lat="48.206608329641234" lon="11.620164605502444"><ele>494.8</ele><time>2026-03-27T09:55:31.999Z</time></trkpt><trkpt lat="48.20666486764099" lon="11.620027464499703"><ele>494.6</ele><time>2026-03-27T09:55:32.999Z</time></trkpt><trkpt lat="48.20669048630767" lon="11.619867781871388"><ele>494.4</ele><time>2026-03-27T09:55:33.999Z</time></trkpt><trkpt lat="48.20675212825186" lon="11.619740304694039"><ele>494.2</ele><time>2026-03-27T09:55:34.999Z</time></trkpt><trkpt lat="48.20681410330518" lon="11.619612137945829"><ele>494.0</ele><time>2026-03-27T09:55:35.999Z</time></trkpt><trkpt lat="48.20688429079317" lon="11.61948271140417"><ele>493.79999999999995</ele><time>2026-03-27T09:55:36.999Z</time></trkpt><trkpt lat="48.20695316672469" lon="11.619359670348077"><ele>493.59999999999997</ele><time>2026-03-27T09:55:37.999Z</time></trkpt><trkpt lat="48.207016633334305" lon="11.619233845004873"><ele>493.4</ele><time>2026-03-27T09:55:38.999Z</time></trkpt><trkpt lat="48.2070750032058" lon="11.619114292168577"><ele>493.2</ele><time>2026-03-27T09:55:39.999Z</time></trkpt><trkpt lat="48.207130324951606" lon="11.619005586192504"><ele>493.0</ele><time>2026-03-27T09:55:40.999Z</time></trkpt><trkpt lat="48.20718366188967" lon="11.618907548718912"><ele>493.0</ele><time>2026-03-27T09:55:41.999Z</time></trkpt><trkpt lat="48.20724260882293" lon="11.618825809205784"><ele>492.99999999999994</ele><time>2026-03-27T09:55:42.999Z</time></trkpt><trkpt lat="48.20732780263663" lon="11.618764085111794"><ele>492.99999999999994</ele><time>2026-03-27T09:55:43.999Z</time></trkpt><trkpt lat="48.20742676064044" lon="11.61873741572607"><ele>493.0</ele><time>2026-03-27T09:55:44.999Z</time></trkpt><trkpt lat="48.20751951196857" lon="11.618720391264889"><ele>493.0</ele><time>2026-03-27T09:55:45.999Z</time></trkpt><trkpt lat="48.207608872758435" lon="11.61873186077021"><ele>493.33333333333337</ele><time>2026-03-27T09:55:46.999Z</time></trkpt><trkpt lat="48.20768872374826" lon="11.618758044515706"><ele>493.6666666666667</ele><time>2026-03-27T09:55:47.999Z</time></trkpt><trkpt lat="48.20775106595515" lon="11.618785584685451"><ele>494.0</ele><time>2026-03-27T09:55:48.999Z</time></trkpt><trkpt lat="48.20786963885841" lon="11.618869368487747"><ele>494.33333333333337</ele><time>2026-03-27T09:55:50.999Z</time></trkpt><trkpt lat="48.207940492563964" lon="11.618912189212637"><ele>494.6666666666667</ele><time>2026-03-27T09:55:51.999Z</time></trkpt><trkpt lat="48.208006172274125" lon="11.618953923209077"><ele>495.0</ele><time>2026-03-27T09:55:52.999Z</time></trkpt><trkpt lat="48.208071045543896" lon="11.61899256853456"><ele>495.0</ele><time>2026-03-27T09:55:53.999Z</time></trkpt><trkpt lat="48.20813426291365" lon="11.61903338345079"><ele>495.0</ele><time>2026-03-27T09:55:54.999Z</time></trkpt><trkpt lat="48.20819350975772" lon="11.619099038736644"><ele>495.0</ele><time>2026-03-27T09:55:55.999Z</time></trkpt><trkpt lat="48.2082708605361" lon="11.619146054266324"><ele>495.0</ele><time>2026-03-27T09:55:56.999Z</time></trkpt><trkpt lat="48.20835317330725" lon="11.619198919918714"><ele>495.0</ele><time>2026-03-27T09:55:57.999Z</time></trkpt><trkpt lat="48.20843429966565" lon="11.619258524094787"><ele>495.0</ele><time>2026-03-27T09:55:58.999Z</time></trkpt><trkpt lat="48.20851837804306" lon="11.619314078174037"><ele>494.8</ele><time>2026-03-27T09:55:59.999Z</time></trkpt><trkpt lat="48.20860520275368" lon="11.6193792050437"><ele>494.6</ele><time>2026-03-27T09:56:00.999Z</time></trkpt><trkpt lat="48.20870259103189" lon="11.619450196633938"><ele>494.4</ele><time>2026-03-27T09:56:01.999Z</time></trkpt><trkpt lat="48.208804591080046" lon="11.619499709170233"><ele>494.2</ele><time>2026-03-27T09:56:02.999Z</time></trkpt><trkpt lat="48.20889496024633" lon="11.619588954182456"><ele>494.0</ele><time>2026-03-27T09:56:03.999Z</time></trkpt><trkpt lat="48.20898795808173" lon="11.619660907574977"><ele>493.79999999999995</ele><time>2026-03-27T09:56:04.999Z</time></trkpt><trkpt lat="48.20908366551236" lon="11.619734326409256"><ele>493.59999999999997</ele><time>2026-03-27T09:56:05.999Z</time></trkpt><trkpt lat="48.209176560277804" lon="11.619811173894387"><ele>493.4</ele><time>2026-03-27T09:56:06.999Z</time></trkpt><trkpt lat="48.20927657917038" lon="11.619868074336605"><ele>493.2</ele><time>2026-03-27T09:56:07.999Z</time></trkpt><trkpt lat="48.209365087349425" lon="11.619943748841132"><ele>493.0</ele><time>2026-03-27T09:56:08.999Z</time></trkpt><trkpt lat="48.20944004886766" lon="11.620007840837598"><ele>493.00000000000006</ele><time>2026-03-27T09:56:09.999Z</time></trkpt><trkpt lat="48.209515834608304" lon="11.620072637667446"><ele>493.0</ele><time>2026-03-27T09:56:11Z</time></trkpt><trkpt lat="48.209589769085866" lon="11.620135850753812"><ele>493.0</ele><time>2026-03-27T09:56:12Z</time></trkpt><trkpt lat="48.20966258757095" lon="11.620200523259173"><ele>493.0</ele><time>2026-03-27T09:56:13Z</time></trkpt><trkpt lat="48.209736499697215" lon="11.620265748666508"><ele>493.00000000000006</ele><time>2026-03-27T09:56:14Z</time></trkpt><trkpt lat="48.209811703918476" lon="11.620332114253797"><ele>493.0</ele><time>2026-03-27T09:56:15Z</time></trkpt><trkpt lat="48.209883748900225" lon="11.620425673226276"><ele>493.4</ele><time>2026-03-27T09:56:16Z</time></trkpt><trkpt lat="48.209972255042075" lon="11.620505055556896"><ele>493.79999999999995</ele><time>2026-03-27T09:56:17Z</time></trkpt><trkpt lat="48.210056396963616" lon="11.620581435778675"><ele>494.2</ele><time>2026-03-27T09:56:18Z</time></trkpt><trkpt lat="48.21013816180653" lon="11.620656041536636"><ele>494.6</ele><time>2026-03-27T09:56:19Z</time></trkpt><trkpt lat="48.210232328073296" lon="11.62069877997466"><ele>495.0</ele><time>2026-03-27T09:56:20Z</time></trkpt><trkpt lat="48.21029118843892" lon="11.620801085213483"><ele>495.0</ele><time>2026-03-27T09:56:21Z</time></trkpt><trkpt lat="48.21035825251566" lon="11.620881076724759"><ele>495.0</ele><time>2026-03-27T09:56:22Z</time></trkpt><trkpt lat="48.21041093654148" lon="11.620990194988313"><ele>495.0</ele><time>2026-03-27T09:56:23Z</time></trkpt><trkpt lat="48.210446965040155" lon="11.621107645085717"><ele>495.0</ele><time>2026-03-27T09:56:24Z</time></trkpt><trkpt lat="48.21046338079715" lon="11.621239798730356"><ele>495.0</ele><time>2026-03-27T09:56:25Z</time></trkpt><trkpt lat="48.210467158370676" lon="11.621397536174195"><ele>495.0</ele><time>2026-03-27T09:56:26Z</time></trkpt><trkpt lat="48.21044835422009" lon="11.621555247580641"><ele>495.0</ele><time>2026-03-27T09:56:27Z</time></trkpt><trkpt lat="48.210417768020925" lon="11.62170010684799"><ele>495.0</ele><time>2026-03-27T09:56:28Z</time></trkpt><trkpt lat="48.21039201028243" lon="11.621834310630359"><ele>495.0</ele><time>2026-03-27T09:56:29Z</time></trkpt><trkpt lat="48.21037229363607" lon="11.621958376114904"><ele>495.0</ele><time>2026-03-27T09:56:30Z</time></trkpt><trkpt lat="48.21035651876536" lon="11.62208227438516"><ele>495.0</ele><time>2026-03-27T09:56:31Z</time></trkpt><trkpt lat="48.21034615145947" lon="11.62221305425862"><ele>495.0</ele><time>2026-03-27T09:56:32Z</time></trkpt><trkpt lat="48.21035895887717" lon="11.62233310864276"><ele>495.0</ele><time>2026-03-27T09:56:33Z</time></trkpt><trkpt lat="48.210394277639075" lon="11.622458151494095"><ele>495.0</ele><time>2026-03-27T09:56:34Z</time></trkpt><trkpt lat="48.21044855002567" lon="11.622584053336533"><ele>495.0</ele><time>2026-03-27T09:56:35Z</time></trkpt><trkpt lat="48.210533900259655" lon="11.622693812257314"><ele>495.0</ele><time>2026-03-27T09:56:36Z</time></trkpt><trkpt lat="48.21064142330682" lon="11.622782827974676"><ele>495.0</ele><time>2026-03-27T09:56:37Z</time></trkpt><trkpt lat="48.21076211560463" lon="11.62285543676014"><ele>495.0</ele><time>2026-03-27T09:56:38Z</time></trkpt><trkpt lat="48.210893790154294" lon="11.622915319724914"><ele>495.0</ele><time>2026-03-27T09:56:39Z</time></trkpt><trkpt lat="48.21101613103538" lon="11.622984020246598"><ele>494.75</ele><time>2026-03-27T09:56:40Z</time></trkpt><trkpt lat="48.21112655314965" lon="11.623046066268605"><ele>494.5</ele><time>2026-03-27T09:56:41Z</time></trkpt><trkpt lat="48.211225451000175" lon="11.623100481097556"><ele>494.25</ele><time>2026-03-27T09:56:42Z</time></trkpt><trkpt lat="48.211333817234056" lon="11.623161835503735"><ele>494.0</ele><time>2026-03-27T09:56:43Z</time></trkpt><trkpt lat="48.211448670311654" lon="11.623225345505636"><ele>493.75</ele><time>2026-03-27T09:56:44Z</time></trkpt><trkpt lat="48.21156759611207" lon="11.62329378932155"><ele>493.5</ele><time>2026-03-27T09:56:45Z</time></trkpt><trkpt lat="48.21168252805184" lon="11.62336118866167"><ele>493.25</ele><time>2026-03-27T09:56:46Z</time></trkpt><trkpt lat="48.21179383629298" lon="11.623427663678884"><ele>493.0</ele><time>2026-03-27T09:56:47Z</time></trkpt><trkpt lat="48.21190213731043" lon="11.623498703232213"><ele>493.0</ele><time>2026-03-27T09:56:48Z</time></trkpt><trkpt lat="48.21201637277371" lon="11.623539833332933"><ele>493.0</ele><time>2026-03-27T09:56:49Z</time></trkpt><trkpt lat="48.2121251882049" lon="11.623601061155941"><ele>493.0</ele><time>2026-03-27T09:56:50Z</time></trkpt><trkpt lat="48.212240474214305" lon="11.623665816680566"><ele>493.0</ele><time>2026-03-27T09:56:51Z</time></trkpt><trkpt lat="48.21235479527771" lon="11.62372936715067"><ele>492.5</ele><time>2026-03-27T09:56:52Z</time></trkpt><trkpt lat="48.212465441665366" lon="11.62379084299265"><ele>492.0</ele><time>2026-03-27T09:56:53Z</time></trkpt><trkpt lat="48.21257436946803" lon="11.62385136399043"><ele>491.5</ele><time>2026-03-27T09:56:54Z</time></trkpt><trkpt lat="48.212681568941996" lon="11.623910924701631"><ele>491.0</ele><time>2026-03-27T09:56:55Z</time></trkpt><trkpt lat="48.21278935523988" lon="11.623969985654304"><ele>491.0</ele><time>2026-03-27T09:56:56Z</time></trkpt><trkpt lat="48.212899141513894" lon="11.624030131794768"><ele>491.0</ele><time>2026-03-27T09:56:57Z</time></trkpt><trkpt lat="48.21301034628944" lon="11.62409105505833"><ele>491.0</ele><time>2026-03-27T09:56:58Z</time></trkpt><trkpt lat="48.213122397271974" lon="11.62415289956893"><ele>491.0</ele><time>2026-03-27T09:56:59Z</time></trkpt><trkpt lat="48.21323401711637" lon="11.624214476788087"><ele>491.25</ele><time>2026-03-27T09:57:00Z</time></trkpt><trkpt lat="48.21334709006735" lon="11.624276635157646"><ele>491.5</ele><time>2026-03-27T09:57:01Z</time></trkpt><trkpt lat="48.21346020148214" lon="11.624338814666272"><ele>491.75</ele><time>2026-03-27T09:57:02Z</time></trkpt><trkpt lat="48.2135697760198" lon="11.624399049886716"><ele>492.0</ele><time>2026-03-27T09:57:03Z</time></trkpt><trkpt lat="48.21366206617034" lon="11.624449783549798"><ele>492.0</ele><time>2026-03-27T09:57:04Z</time></trkpt><trkpt lat="48.21375802560309" lon="11.624502534314907"><ele>492.00000000000006</ele><time>2026-03-27T09:57:05Z</time></trkpt><trkpt lat="48.213858768173935" lon="11.624558114038742"><ele>492.00000000000006</ele><time>2026-03-27T09:57:06Z</time></trkpt><trkpt lat="48.21396749018116" lon="11.624618701299635"><ele>492.0</ele><time>2026-03-27T09:57:07Z</time></trkpt><trkpt lat="48.214076836062105" lon="11.624679563351178"><ele>492.0</ele><time>2026-03-27T09:57:08Z</time></trkpt><trkpt lat="48.21417949985721" lon="11.624736696049586"><ele>492.0</ele><time>2026-03-27T09:57:09Z</time></trkpt><trkpt lat="48.214278845140655" lon="11.624791981876728"><ele>492.00000000000006</ele><time>2026-03-27T09:57:10Z</time></trkpt><trkpt lat="48.21437868188587" lon="11.624847541273908"><ele>492.00000000000006</ele><time>2026-03-27T09:57:11Z</time></trkpt><trkpt lat="48.214483365824954" lon="11.624905798095758"><ele>492.0</ele><time>2026-03-27T09:57:12Z</time></trkpt><trkpt lat="48.21459317616609" lon="11.624966825906498"><ele>492.0</ele><time>2026-03-27T09:57:13Z</time></trkpt><trkpt lat="48.21470695662259" lon="11.625029863083423"><ele>492.0</ele><time>2026-03-27T09:57:14Z</time></trkpt><trkpt lat="48.21482082558999" lon="11.625091857619363"><ele>492.0</ele><time>2026-03-27T09:57:15Z</time></trkpt><trkpt lat="48.2149352763544" lon="11.625154168871894"><ele>492.0</ele><time>2026-03-27T09:57:16Z</time></trkpt><trkpt lat="48.21504943634545" lon="11.625216905615767"><ele>492.0</ele><time>2026-03-27T09:57:17Z</time></trkpt><trkpt lat="48.215158573409205" lon="11.625276765017718"><ele>492.5</ele><time>2026-03-27T09:57:18Z</time></trkpt><trkpt lat="48.21526489861082" lon="11.625335448430782"><ele>493.0</ele><time>2026-03-27T09:57:19Z</time></trkpt><trkpt lat="48.215373441068635" lon="11.625394482347977"><ele>493.5</ele><time>2026-03-27T09:57:20Z</time></trkpt><trkpt lat="48.21548495332588" lon="11.625455484875603"><ele>494.0</ele><time>2026-03-27T09:57:21Z</time></trkpt><trkpt lat="48.21559627073438" lon="11.625516648270093"><ele>493.25</ele><time>2026-03-27T09:57:22Z</time></trkpt><trkpt lat="48.21570811622666" lon="11.625578101836203"><ele>492.5</ele><time>2026-03-27T09:57:23Z</time></trkpt><trkpt lat="48.21582021997065" lon="11.6256396888361"><ele>491.75</ele><time>2026-03-27T09:57:24Z</time></trkpt><trkpt lat="48.215923002687944" lon="11.625696702677121"><ele>491.0</ele><time>2026-03-27T09:57:25Z</time></trkpt><trkpt lat="48.2160262061369" lon="11.625753949756215"><ele>491.0</ele><time>2026-03-27T09:57:26Z</time></trkpt><trkpt lat="48.21613360599079" lon="11.625813524634623"><ele>491.0</ele><time>2026-03-27T09:57:27Z</time></trkpt><trkpt lat="48.21624069601233" lon="11.625872927651889"><ele>491.0</ele><time>2026-03-27T09:57:28Z</time></trkpt><trkpt lat="48.216347201696806" lon="11.625932225570976"><ele>491.0</ele><time>2026-03-27T09:57:29Z</time></trkpt><trkpt lat="48.21645384564024" lon="11.625991662779864"><ele>491.0</ele><time>2026-03-27T09:57:30Z</time></trkpt><trkpt lat="48.21655937524963" lon="11.626052543046894"><ele>491.0</ele><time>2026-03-27T09:57:31Z</time></trkpt><trkpt lat="48.216663477811515" lon="11.626112437074289"><ele>491.0</ele><time>2026-03-27T09:57:32Z</time></trkpt><trkpt lat="48.216766025431205" lon="11.626172102982745"><ele>491.0</ele><time>2026-03-27T09:57:33Z</time></trkpt><trkpt lat="48.21686946956519" lon="11.6262325190864"><ele>491.0</ele><time>2026-03-27T09:57:34Z</time></trkpt><trkpt lat="48.216974208392756" lon="11.626291615400048"><ele>491.0</ele><time>2026-03-27T09:57:35Z</time></trkpt><trkpt lat="48.21707346307335" lon="11.626377380386954"><ele>491.0</ele><time>2026-03-27T09:57:36Z</time></trkpt><trkpt lat="48.217180371008276" lon="11.626439817256559"><ele>491.0</ele><time>2026-03-27T09:57:37Z</time></trkpt><trkpt lat="48.217288681531706" lon="11.62649860002961"><ele>491.0</ele><time>2026-03-27T09:57:38Z</time></trkpt><trkpt lat="48.21739579722408" lon="11.626557661919732"><ele>491.20000000000005</ele><time>2026-03-27T09:57:39Z</time></trkpt><trkpt lat="48.21750248199314" lon="11.626617104461367"><ele>491.40000000000003</ele><time>2026-03-27T09:57:40Z</time></trkpt><trkpt lat="48.21760646555333" lon="11.626674668913829"><ele>491.6</ele><time>2026-03-27T09:57:41Z</time></trkpt><trkpt lat="48.217711874305095" lon="11.6267293628179"><ele>491.8</ele><time>2026-03-27T09:57:41.999Z</time></trkpt><trkpt lat="48.217816232172716" lon="11.62678515936383"><ele>492.0</ele><time>2026-03-27T09:57:42.999Z</time></trkpt><trkpt lat="48.21791922212673" lon="11.626840461621734"><ele>492.0</ele><time>2026-03-27T09:57:43.999Z</time></trkpt><trkpt lat="48.218022457526764" lon="11.626893398699115"><ele>492.00000000000006</ele><time>2026-03-27T09:57:44.999Z</time></trkpt><trkpt lat="48.21812523345187" lon="11.626944541752696"><ele>492.00000000000006</ele><time>2026-03-27T09:57:45.999Z</time></trkpt><trkpt lat="48.218229118970704" lon="11.626990977967163"><ele>492.0</ele><time>2026-03-27T09:57:46.999Z</time></trkpt><trkpt lat="48.218334307191746" lon="11.627033690666785"><ele>492.0</ele><time>2026-03-27T09:57:47.999Z</time></trkpt><trkpt lat="48.21844089202095" lon="11.62707866406099"><ele>492.25</ele><time>2026-03-27T09:57:48.999Z</time></trkpt><trkpt lat="48.21854851932176" lon="11.62712430190278"><ele>492.5</ele><time>2026-03-27T09:57:49.999Z</time></trkpt><trkpt lat="48.21865695719986" lon="11.627167209715502"><ele>492.75</ele><time>2026-03-27T09:57:50.999Z</time></trkpt><trkpt lat="48.218766409231996" lon="11.627207415242665"><ele>493.0</ele><time>2026-03-27T09:57:51.999Z</time></trkpt><trkpt lat="48.21887776523086" lon="11.627244924164597"><ele>492.79999999999995</ele><time>2026-03-27T09:57:52.999Z</time></trkpt><trkpt lat="48.21898765327863" lon="11.62727761838976"><ele>492.59999999999997</ele><time>2026-03-27T09:57:53.999Z</time></trkpt><trkpt lat="48.21909775408703" lon="11.627307092641594"><ele>492.40000000000003</ele><time>2026-03-27T09:57:54.999Z</time></trkpt><trkpt lat="48.219206442116814" lon="11.627330496626694"><ele>492.20000000000005</ele><time>2026-03-27T09:57:55.999Z</time></trkpt><trkpt lat="48.219314101399846" lon="11.627350688219416"><ele>492.0</ele><time>2026-03-27T09:57:56.999Z</time></trkpt><trkpt lat="48.21941962113444" lon="11.62735924664581"><ele>492.0</ele><time>2026-03-27T09:57:57.999Z</time></trkpt><trkpt lat="48.2195222030094" lon="11.627365572157535"><ele>492.00000000000006</ele><time>2026-03-27T09:57:58.999Z</time></trkpt><trkpt lat="48.21962504259692" lon="11.627368513561482"><ele>492.00000000000006</ele><time>2026-03-27T09:57:59.999Z</time></trkpt><trkpt lat="48.21972653918636" lon="11.62736663089599"><ele>492.0</ele><time>2026-03-27T09:58:00.999Z</time></trkpt><trkpt lat="48.21982633282675" lon="11.627361043257048"><ele>492.0</ele><time>2026-03-27T09:58:01.999Z</time></trkpt><trkpt lat="48.21992610845665" lon="11.627349142004133"><ele>491.8</ele><time>2026-03-27T09:58:02.999Z</time></trkpt><trkpt lat="48.22002356059857" lon="11.627331990103778"><ele>491.6</ele><time>2026-03-27T09:58:03.999Z</time></trkpt><trkpt lat="48.22012066633151" lon="11.627309413512528"><ele>491.40000000000003</ele><time>2026-03-27T09:58:04.999Z</time></trkpt><trkpt lat="48.22021931507661" lon="11.627279773384895"><ele>491.20000000000005</ele><time>2026-03-27T09:58:05.999Z</time></trkpt><trkpt lat="48.220315074128706" lon="11.627240730534403"><ele>491.0</ele><time>2026-03-27T09:58:06.999Z</time></trkpt><trkpt lat="48.22041214913659" lon="11.627193250127242"><ele>491.0</ele><time>2026-03-27T09:58:07.999Z</time></trkpt><trkpt lat="48.220509181106266" lon="11.627147207734575"><ele>491.0</ele><time>2026-03-27T09:58:08.999Z</time></trkpt><trkpt lat="48.22060666696562" lon="11.627096086555486"><ele>491.0</ele><time>2026-03-27T09:58:09.999Z</time></trkpt><trkpt lat="48.22070412277579" lon="11.627037753649633"><ele>491.0</ele><time>2026-03-27T09:58:10.999Z</time></trkpt><trkpt lat="48.220802673440716" lon="11.626972795844845"><ele>491.0</ele><time>2026-03-27T09:58:11.999Z</time></trkpt><trkpt lat="48.2209007421228" lon="11.626898799416562"><ele>491.0</ele><time>2026-03-27T09:58:12.998Z</time></trkpt><trkpt lat="48.2210006568363" lon="11.626813955799088"><ele>491.0</ele><time>2026-03-27T09:58:13.998Z</time></trkpt><trkpt lat="48.221098271709664" lon="11.626718673674088"><ele>491.0</ele><time>2026-03-27T09:58:14.998Z</time></trkpt><trkpt lat="48.221195830762596" lon="11.62661684079957"><ele>491.0</ele><time>2026-03-27T09:58:15.998Z</time></trkpt><trkpt lat="48.22129161442995" lon="11.626504647745358"><ele>491.0</ele><time>2026-03-27T09:58:16.999Z</time></trkpt><trkpt lat="48.22138405332131" lon="11.626384184753235"><ele>491.0</ele><time>2026-03-27T09:58:17.999Z</time></trkpt><trkpt lat="48.221471090045135" lon="11.62625558603821"><ele>491.0</ele><time>2026-03-27T09:58:18.999Z</time></trkpt><trkpt lat="48.22154912866479" lon="11.626126313262429"><ele>491.0</ele><time>2026-03-27T09:58:19.999Z</time></trkpt><trkpt lat="48.22162207061525" lon="11.62600230075741"><ele>491.0</ele><time>2026-03-27T09:58:21Z</time></trkpt><trkpt lat="48.221693616019905" lon="11.62587538005125"><ele>491.0</ele><time>2026-03-27T09:58:22Z</time></trkpt><trkpt lat="48.22176203615598" lon="11.625741093373493"><ele>491.0</ele><time>2026-03-27T09:58:23Z</time></trkpt><trkpt lat="48.221826588209794" lon="11.625602827938138"><ele>491.0</ele><time>2026-03-27T09:58:24Z</time></trkpt><trkpt lat="48.22188805329209" lon="11.625462619707667"><ele>491.0</ele><time>2026-03-27T09:58:25Z</time></trkpt><trkpt lat="48.22195020253795" lon="11.62531913251067"><ele>490.5</ele><time>2026-03-27T09:58:26Z</time></trkpt><trkpt lat="48.222009787020255" lon="11.625173362948754"><ele>490.0</ele><time>2026-03-27T09:58:27Z</time></trkpt><trkpt lat="48.222074510261834" lon="11.62502924753228"><ele>489.5</ele><time>2026-03-27T09:58:28Z</time></trkpt><trkpt lat="48.22214861069647" lon="11.624874044662452"><ele>489.0</ele><time>2026-03-27T09:58:29Z</time></trkpt><trkpt lat="48.22222621175134" lon="11.624707608705306"><ele>489.0</ele><time>2026-03-27T09:58:30Z</time></trkpt><trkpt lat="48.22230389749204" lon="11.624534420842053"><ele>489.0</ele><time>2026-03-27T09:58:31Z</time></trkpt><trkpt lat="48.222377083436776" lon="11.624366249412619"><ele>489.0</ele><time>2026-03-27T09:58:32Z</time></trkpt><trkpt lat="48.22244612764651" lon="11.624206117359915"><ele>489.0</ele><time>2026-03-27T09:58:33Z</time></trkpt><trkpt lat="48.22249979103314" lon="11.624083309502554"><ele>489.4</ele><time>2026-03-27T09:58:34Z</time></trkpt><trkpt lat="48.22255197729528" lon="11.623969552427459"><ele>489.79999999999995</ele><time>2026-03-27T09:58:35Z</time></trkpt><trkpt lat="48.22260823336973" lon="11.623846151288653"><ele>490.20000000000005</ele><time>2026-03-27T09:58:36Z</time></trkpt><trkpt lat="48.22266575103398" lon="11.623714744869169"><ele>490.6</ele><time>2026-03-27T09:58:37Z</time></trkpt><trkpt lat="48.22273049107559" lon="11.623563318583699"><ele>491.0</ele><time>2026-03-27T09:58:38Z</time></trkpt><trkpt lat="48.22279986443404" lon="11.623397592720123"><ele>491.0</ele><time>2026-03-27T09:58:39Z</time></trkpt><trkpt lat="48.22287060217217" lon="11.623230368468297"><ele>491.0</ele><time>2026-03-27T09:58:40Z</time></trkpt><trkpt lat="48.22293069863781" lon="11.623080863846193"><ele>491.0</ele><time>2026-03-27T09:58:41Z</time></trkpt><trkpt lat="48.22298430809519" lon="11.622939048117962"><ele>491.0</ele><time>2026-03-27T09:58:42Z</time></trkpt><trkpt lat="48.22303611399255" lon="11.62279578785282"><ele>491.0</ele><time>2026-03-27T09:58:42.999Z</time></trkpt><trkpt lat="48.223084972263614" lon="11.62264654074673"><ele>491.0</ele><time>2026-03-27T09:58:43.999Z</time></trkpt><trkpt lat="48.22313492861674" lon="11.622491505956074"><ele>491.0</ele><time>2026-03-27T09:58:44.999Z</time></trkpt><trkpt lat="48.22318953993189" lon="11.622332372397256"><ele>491.0</ele><time>2026-03-27T09:58:45.999Z</time></trkpt><trkpt lat="48.223249938891726" lon="11.622173454652463"><ele>491.0</ele><time>2026-03-27T09:58:46.999Z</time></trkpt><trkpt lat="48.22331916192419" lon="11.622013046650618"><ele>491.0</ele><time>2026-03-27T09:58:47.999Z</time></trkpt><trkpt lat="48.22339384510689" lon="11.621847946896468"><ele>491.0</ele><time>2026-03-27T09:58:48.999Z</time></trkpt><trkpt lat="48.223468320088564" lon="11.621678796858303"><ele>491.0</ele><time>2026-03-27T09:58:49.999Z</time></trkpt><trkpt lat="48.22354283303885" lon="11.621503340605356"><ele>491.0</ele><time>2026-03-27T09:58:50.999Z</time></trkpt><trkpt lat="48.22362039901942" lon="11.621328752863375"><ele>491.0</ele><time>2026-03-27T09:58:51.999Z</time></trkpt><trkpt lat="48.22369738530108" lon="11.62115035040998"><ele>491.0</ele><time>2026-03-27T09:58:52.999Z</time></trkpt><trkpt lat="48.22376892755228" lon="11.620987306191564"><ele>491.0</ele><time>2026-03-27T09:58:53.999Z</time></trkpt><trkpt lat="48.223835420312774" lon="11.62082822501034"><ele>491.0</ele><time>2026-03-27T09:58:54.999Z</time></trkpt><trkpt lat="48.22390177192216" lon="11.620670164597692"><ele>491.0</ele><time>2026-03-27T09:58:55.999Z</time></trkpt><trkpt lat="48.22397160059022" lon="11.620500589936196"><ele>491.0</ele><time>2026-03-27T09:58:56.999Z</time></trkpt><trkpt lat="48.22403738123068" lon="11.620315318379118"><ele>491.0</ele><time>2026-03-27T09:58:57.999Z</time></trkpt><trkpt lat="48.22409514584543" lon="11.620107537966163"><ele>490.75</ele><time>2026-03-27T09:58:58.999Z</time></trkpt><trkpt lat="48.22414482329793" lon="11.619892980018623"><ele>490.5</ele><time>2026-03-27T09:58:59.999Z</time></trkpt><trkpt lat="48.224184219385144" lon="11.619690520348554"><ele>490.25</ele><time>2026-03-27T09:59:00.999Z</time></trkpt><trkpt lat="48.22421818483728" lon="11.619506537451171"><ele>490.0</ele><time>2026-03-27T09:59:01.999Z</time></trkpt><trkpt lat="48.22425953579041" lon="11.6193253050747"><ele>489.75</ele><time>2026-03-27T09:59:02.999Z</time></trkpt><trkpt lat="48.224315610351084" lon="11.619155569762716"><ele>489.5</ele><time>2026-03-27T09:59:03.999Z</time></trkpt><trkpt lat="48.22438516442401" lon="11.618994813255592"><ele>489.25</ele><time>2026-03-27T09:59:04.999Z</time></trkpt><trkpt lat="48.22447007383815" lon="11.618833008788334"><ele>489.0</ele><time>2026-03-27T09:59:05.999Z</time></trkpt><trkpt lat="48.224572831521286" lon="11.618677462545717"><ele>488.75</ele><time>2026-03-27T09:59:06.999Z</time></trkpt><trkpt lat="48.2246888713583" lon="11.618536997042188"><ele>488.5</ele><time>2026-03-27T09:59:07.999Z</time></trkpt><trkpt lat="48.224811473250206" lon="11.618424382059303"><ele>488.25</ele><time>2026-03-27T09:59:08.999Z</time></trkpt><trkpt lat="48.22493935115387" lon="11.618343334032398"><ele>488.0</ele><time>2026-03-27T09:59:09.999Z</time></trkpt><trkpt lat="48.225068375262396" lon="11.618271292313073"><ele>488.5</ele><time>2026-03-27T09:59:10.999Z</time></trkpt><trkpt lat="48.225190179958844" lon="11.618199766918714"><ele>489.0</ele><time>2026-03-27T09:59:11.999Z</time></trkpt><trkpt lat="48.22530905803371" lon="11.618130958528747"><ele>489.5</ele><time>2026-03-27T09:59:12.999Z</time></trkpt><trkpt lat="48.22543646426999" lon="11.61805891435167"><ele>490.0</ele><time>2026-03-27T09:59:13.999Z</time></trkpt><trkpt lat="48.22556608798697" lon="11.617979651221772"><ele>490.0</ele><time>2026-03-27T09:59:14.999Z</time></trkpt><trkpt lat="48.225686697408854" lon="11.61790586869398"><ele>490.0</ele><time>2026-03-27T09:59:15.999Z</time></trkpt><trkpt lat="48.225804351225484" lon="11.617836546615843"><ele>490.0</ele><time>2026-03-27T09:59:16.999Z</time></trkpt><trkpt lat="48.22592283103854" lon="11.617765833770305"><ele>490.0</ele><time>2026-03-27T09:59:17.999Z</time></trkpt><trkpt lat="48.22603952544408" lon="11.617687102231264"><ele>490.0</ele><time>2026-03-27T09:59:18.999Z</time></trkpt><trkpt lat="48.22615214451204" lon="11.617592212026656"><ele>490.0</ele><time>2026-03-27T09:59:19.999Z</time></trkpt><trkpt lat="48.22625699084605" lon="11.617476012659628"><ele>490.0</ele><time>2026-03-27T09:59:20.999Z</time></trkpt><trkpt lat="48.22635481090908" lon="11.617336820334996"><ele>490.0</ele><time>2026-03-27T09:59:21.999Z</time></trkpt><trkpt lat="48.226441440182" lon="11.617178669035425"><ele>489.25</ele><time>2026-03-27T09:59:22.999Z</time></trkpt><trkpt lat="48.22651548583813" lon="11.617000378330726"><ele>488.5</ele><time>2026-03-27T09:59:23.999Z</time></trkpt><trkpt lat="48.22657587056214" lon="11.616803439288931"><ele>487.75</ele><time>2026-03-27T09:59:24.999Z</time></trkpt><trkpt lat="48.22661879180643" lon="11.616594851309051"><ele>487.0</ele><time>2026-03-27T09:59:25.999Z</time></trkpt><trkpt lat="48.22664052655657" lon="11.616396041404819"><ele>486.75</ele><time>2026-03-27T09:59:26.999Z</time></trkpt><trkpt lat="48.226647206489446" lon="11.616191365299201"><ele>486.5</ele><time>2026-03-27T09:59:27.999Z</time></trkpt><trkpt lat="48.226648365580495" lon="11.615968265110203"><ele>486.25</ele><time>2026-03-27T09:59:28.999Z</time></trkpt><trkpt lat="48.22665106644795" lon="11.615733761715763"><ele>486.0</ele><time>2026-03-27T09:59:29.999Z</time></trkpt><trkpt lat="48.22665436922913" lon="11.61550298462141"><ele>486.5</ele><time>2026-03-27T09:59:30.999Z</time></trkpt><trkpt lat="48.22665680427124" lon="11.615288237604304"><ele>487.0</ele><time>2026-03-27T09:59:31.999Z</time></trkpt><trkpt lat="48.226660995345775" lon="11.61506519325652"><ele>487.5</ele><time>2026-03-27T09:59:32.999Z</time></trkpt><trkpt lat="48.22667202453757" lon="11.614832964610224"><ele>488.0</ele><time>2026-03-27T09:59:33.999Z</time></trkpt><trkpt lat="48.22668843064685" lon="11.614593561088737"><ele>488.0</ele><time>2026-03-27T09:59:34.999Z</time></trkpt><trkpt lat="48.22670959391891" lon="11.614348276866897"><ele>488.0</ele><time>2026-03-27T09:59:35.999Z</time></trkpt><trkpt lat="48.22673810260936" lon="11.614095307543073"><ele>488.0</ele><time>2026-03-27T09:59:36.999Z</time></trkpt><trkpt lat="48.22677387401044" lon="11.613839843513183"><ele>488.3333333333333</ele><time>2026-03-27T09:59:37.999Z</time></trkpt><trkpt lat="48.226817641338364" lon="11.613581734467536"><ele>488.66666666666663</ele><time>2026-03-27T09:59:38.999Z</time></trkpt><trkpt lat="48.22687017919713" lon="11.613323424854201"><ele>489.0</ele><time>2026-03-27T09:59:39.999Z</time></trkpt><trkpt lat="48.22692350708154" lon="11.613067787924905"><ele>489.0</ele><time>2026-03-27T09:59:40.999Z</time></trkpt><trkpt lat="48.22694350952129" lon="11.61277439648372"><ele>489.0</ele><time>2026-03-27T09:59:41.999Z</time></trkpt><trkpt lat="48.22700952604751" lon="11.612487149335562"><ele>489.0</ele><time>2026-03-27T09:59:42.999Z</time></trkpt><trkpt lat="48.227070169858344" lon="11.612222162947253"><ele>489.33333333333337</ele><time>2026-03-27T09:59:43.999Z</time></trkpt><trkpt lat="48.22713455314869" lon="11.611947469156926"><ele>489.6666666666667</ele><time>2026-03-27T09:59:44.999Z</time></trkpt><trkpt lat="48.22721046683379" lon="11.611681999837264"><ele>490.0</ele><time>2026-03-27T09:59:45.999Z</time></trkpt><trkpt lat="48.22726606719874" lon="11.611402852199316"><ele>490.0</ele><time>2026-03-27T09:59:46.999Z</time></trkpt><trkpt lat="48.227320315712404" lon="11.611122931299876"><ele>490.0</ele><time>2026-03-27T09:59:47.999Z</time></trkpt><trkpt lat="48.22737740576003" lon="11.610825247657557"><ele>490.0</ele><time>2026-03-27T09:59:48.999Z</time></trkpt><trkpt lat="48.22743654251491" lon="11.610521194437428"><ele>490.33333333333337</ele><time>2026-03-27T09:59:49.999Z</time></trkpt><trkpt lat="48.22749310802426" lon="11.610218627183828"><ele>490.66666666666663</ele><time>2026-03-27T09:59:50.999Z</time></trkpt><trkpt lat="48.22754977936341" lon="11.609916053939823"><ele>491.0</ele><time>2026-03-27T09:59:51.999Z</time></trkpt><trkpt lat="48.22760932480762" lon="11.60958914764701"><ele>490.3333333333333</ele><time>2026-03-27T09:59:52.999Z</time></trkpt><trkpt lat="48.22766476148773" lon="11.609282370329618"><ele>489.66666666666663</ele><time>2026-03-27T09:59:53.999Z</time></trkpt><trkpt lat="48.227720665484156" lon="11.608969131414339"><ele>489.0</ele><time>2026-03-27T09:59:54.999Z</time></trkpt><trkpt lat="48.227777562927734" lon="11.608634359599531"><ele>488.5</ele><time>2026-03-27T09:59:55.999Z</time></trkpt><trkpt lat="48.22783212022527" lon="11.608296588396543"><ele>488.0</ele><time>2026-03-27T09:59:56.999Z</time></trkpt><trkpt lat="48.227886356208714" lon="11.607964036660716"><ele>488.66666666666663</ele><time>2026-03-27T09:59:57.999Z</time></trkpt><trkpt lat="48.22793646354461" lon="11.607652396060303"><ele>489.33333333333337</ele><time>2026-03-27T09:59:58.999Z</time></trkpt><trkpt lat="48.227985842338924" lon="11.60732235013318"><ele>490.0</ele><time>2026-03-27T09:59:59.999Z</time></trkpt><trkpt lat="48.22803727839823" lon="11.60698339382275"><ele>490.0</ele><time>2026-03-27T10:00:00.999Z</time></trkpt><trkpt lat="48.22808899781618" lon="11.606654568134267"><ele>490.0</ele><time>2026-03-27T10:00:01.999Z</time></trkpt><trkpt lat="48.22813686347572" lon="11.606332612620477"><ele>490.0</ele><time>2026-03-27T10:00:02.999Z</time></trkpt><trkpt lat="48.22818154600953" lon="11.606014101469986"><ele>490.0</ele><time>2026-03-27T10:00:03.999Z</time></trkpt><trkpt lat="48.22822467669234" lon="11.605694775626537"><ele>490.0</ele><time>2026-03-27T10:00:04.999Z</time></trkpt><trkpt lat="48.22826862949659" lon="11.605370238233903"><ele>490.0</ele><time>2026-03-27T10:00:05.999Z</time></trkpt><trkpt lat="48.22830998200575" lon="11.605056667181463"><ele>490.0</ele><time>2026-03-27T10:00:06.999Z</time></trkpt><trkpt lat="48.228348203051254" lon="11.604743847645148"><ele>490.0</ele><time>2026-03-27T10:00:07.999Z</time></trkpt><trkpt lat="48.22838758188461" lon="11.604421742067148"><ele>490.0</ele><time>2026-03-27T10:00:08.999Z</time></trkpt><trkpt lat="48.228426996554354" lon="11.604097739559291"><ele>490.0</ele><time>2026-03-27T10:00:09.999Z</time></trkpt><trkpt lat="48.228464084208966" lon="11.603774872758427"><ele>490.0</ele><time>2026-03-27T10:00:10.999Z</time></trkpt><trkpt lat="48.22849932245811" lon="11.603457111193327"><ele>490.0</ele><time>2026-03-27T10:00:11.999Z</time></trkpt><trkpt lat="48.2285336625064" lon="11.603139905208078"><ele>490.33333333333337</ele><time>2026-03-27T10:00:12.999Z</time></trkpt><trkpt lat="48.22856595572407" lon="11.602824372866463"><ele>490.66666666666663</ele><time>2026-03-27T10:00:13.999Z</time></trkpt><trkpt lat="48.2285962592096" lon="11.60249946848398"><ele>491.0</ele><time>2026-03-27T10:00:14.999Z</time></trkpt><trkpt lat="48.22862604982929" lon="11.602183306858938"><ele>490.5</ele><time>2026-03-27T10:00:15.999Z</time></trkpt><trkpt lat="48.22865396032932" lon="11.601854320296445"><ele>490.0</ele><time>2026-03-27T10:00:16.999Z</time></trkpt><trkpt lat="48.2286792708539" lon="11.60150797012561"><ele>490.0</ele><time>2026-03-27T10:00:17.999Z</time></trkpt><trkpt lat="48.228700990629" lon="11.601176026976274"><ele>490.0</ele><time>2026-03-27T10:00:18.999Z</time></trkpt><trkpt lat="48.22871853263569" lon="11.6008564128223"><ele>490.0</ele><time>2026-03-27T10:00:19.998Z</time></trkpt><trkpt lat="48.22873819043266" lon="11.60052612913282"><ele>490.6666666666667</ele><time>2026-03-27T10:00:20.998Z</time></trkpt><trkpt lat="48.2287635052358" lon="11.600197525456613"><ele>491.33333333333337</ele><time>2026-03-27T10:00:21.998Z</time></trkpt><trkpt lat="48.2287860702634" lon="11.599887718443668"><ele>492.0</ele><time>2026-03-27T10:00:23Z</time></trkpt><trkpt lat="48.22880545349805" lon="11.599578502568711"><ele>492.0</ele><time>2026-03-27T10:00:24Z</time></trkpt><trkpt lat="48.228825311230715" lon="11.599269767442642"><ele>492.0</ele><time>2026-03-27T10:00:25Z</time></trkpt><trkpt lat="48.22884161442926" lon="11.59894797455552"><ele>492.0</ele><time>2026-03-27T10:00:26Z</time></trkpt><trkpt lat="48.228860808766235" lon="11.598615901653254"><ele>492.0</ele><time>2026-03-27T10:00:27Z</time></trkpt><trkpt lat="48.228880103411875" lon="11.598281501103175"><ele>492.0</ele><time>2026-03-27T10:00:28Z</time></trkpt><trkpt lat="48.22889781563587" lon="11.597954142616727"><ele>492.0</ele><time>2026-03-27T10:00:29Z</time></trkpt><trkpt lat="48.22891206157506" lon="11.597637503688889"><ele>492.33333333333337</ele><time>2026-03-27T10:00:30Z</time></trkpt><trkpt lat="48.22891962632671" lon="11.59732095849206"><ele>492.6666666666667</ele><time>2026-03-27T10:00:31Z</time></trkpt><trkpt lat="48.22892790391202" lon="11.597003049714832"><ele>493.0</ele><time>2026-03-27T10:00:32Z</time></trkpt><trkpt lat="48.228935008054655" lon="11.596687190697548"><ele>492.33333333333337</ele><time>2026-03-27T10:00:33Z</time></trkpt><trkpt lat="48.228940808821996" lon="11.596371624338035"><ele>491.66666666666663</ele><time>2026-03-27T10:00:34Z</time></trkpt><trkpt lat="48.228949235301606" lon="11.59606302558015"><ele>491.0</ele><time>2026-03-27T10:00:35Z</time></trkpt><trkpt lat="48.22895693175391" lon="11.595760181952269"><ele>490.3333333333333</ele><time>2026-03-27T10:00:36Z</time></trkpt><trkpt lat="48.228963313144185" lon="11.595459024112415"><ele>489.66666666666663</ele><time>2026-03-27T10:00:37Z</time></trkpt><trkpt lat="48.22896825146878" lon="11.59515929222185"><ele>489.0</ele><time>2026-03-27T10:00:38Z</time></trkpt><trkpt lat="48.22897339394625" lon="11.594862203700394"><ele>489.66666666666663</ele><time>2026-03-27T10:00:39Z</time></trkpt><trkpt lat="48.228978189053635" lon="11.59456586864744"><ele>490.3333333333333</ele><time>2026-03-27T10:00:40Z</time></trkpt><trkpt lat="48.22898168401633" lon="11.594271666061546"><ele>491.0</ele><time>2026-03-27T10:00:41Z</time></trkpt><trkpt lat="48.22898346967194" lon="11.593979024627176"><ele>491.0</ele><time>2026-03-27T10:00:42Z</time></trkpt><trkpt lat="48.228984272476" lon="11.59368466521995"><ele>491.0</ele><time>2026-03-27T10:00:43Z</time></trkpt><trkpt lat="48.22898485165936" lon="11.593390784103532"><ele>491.0</ele><time>2026-03-27T10:00:44Z</time></trkpt><trkpt lat="48.228985292005774" lon="11.593095773778607"><ele>491.3333333333333</ele><time>2026-03-27T10:00:45Z</time></trkpt><trkpt lat="48.22898552960715" lon="11.592803440455393"><ele>491.66666666666663</ele><time>2026-03-27T10:00:46Z</time></trkpt><trkpt lat="48.22899078603679" lon="11.592513766070054"><ele>492.0</ele><time>2026-03-27T10:00:47Z</time></trkpt><trkpt lat="48.22899913604012" lon="11.592224263139645"><ele>492.33333333333337</ele><time>2026-03-27T10:00:48Z</time></trkpt><trkpt lat="48.229002801358604" lon="11.591929966688278"><ele>492.6666666666667</ele><time>2026-03-27T10:00:49Z</time></trkpt><trkpt lat="48.22899844149917" lon="11.591625931333803"><ele>493.0</ele><time>2026-03-27T10:00:50Z</time></trkpt><trkpt lat="48.228992717343715" lon="11.59133941046894"><ele>493.33333333333337</ele><time>2026-03-27T10:00:51Z</time></trkpt><trkpt lat="48.22898591102802" lon="11.591066854555311"><ele>493.66666666666663</ele><time>2026-03-27T10:00:52Z</time></trkpt><trkpt lat="48.22897966016833" lon="11.590809141917184"><ele>494.0</ele><time>2026-03-27T10:00:53Z</time></trkpt><trkpt lat="48.22897273851608" lon="11.590558605572635"><ele>493.3333333333333</ele><time>2026-03-27T10:00:54Z</time></trkpt><trkpt lat="48.228963649869385" lon="11.590314734366466"><ele>492.66666666666663</ele><time>2026-03-27T10:00:55Z</time></trkpt><trkpt lat="48.228954732943116" lon="11.590075602194304"><ele>492.0</ele><time>2026-03-27T10:00:56Z</time></trkpt><trkpt lat="48.22894576946808" lon="11.589845715656557"><ele>492.0</ele><time>2026-03-27T10:00:57Z</time></trkpt><trkpt lat="48.22893752836193" lon="11.589618269353691"><ele>492.0</ele><time>2026-03-27T10:00:58Z</time></trkpt><trkpt lat="48.22892925463585" lon="11.589404001510694"><ele>492.0</ele><time>2026-03-27T10:00:59Z</time></trkpt><trkpt lat="48.22891816495706" lon="11.58920389518897"><ele>492.0</ele><time>2026-03-27T10:01:00Z</time></trkpt><trkpt lat="48.22890964678662" lon="11.589011908146459"><ele>491.75</ele><time>2026-03-27T10:01:00.999Z</time></trkpt><trkpt lat="48.228910850126695" lon="11.58883053090523"><ele>491.5</ele><time>2026-03-27T10:01:01.999Z</time></trkpt><trkpt lat="48.22893431675874" lon="11.588651281681564"><ele>491.25</ele><time>2026-03-27T10:01:02.999Z</time></trkpt><trkpt lat="48.22897498630146" lon="11.588471829254226"><ele>491.0</ele><time>2026-03-27T10:01:03.999Z</time></trkpt><trkpt lat="48.229032061173264" lon="11.58831105503976"><ele>491.4</ele><time>2026-03-27T10:01:04.999Z</time></trkpt><trkpt lat="48.22910425602257" lon="11.588175794289937"><ele>491.8</ele><time>2026-03-27T10:01:05.999Z</time></trkpt><trkpt lat="48.229184673054085" lon="11.588065851933047"><ele>492.19999999999993</ele><time>2026-03-27T10:01:06.999Z</time></trkpt><trkpt lat="48.22926966073185" lon="11.58798220819189"><ele>492.59999999999997</ele><time>2026-03-27T10:01:07.999Z</time></trkpt><trkpt lat="48.2293580282088" lon="11.587920952948695"><ele>493.0</ele><time>2026-03-27T10:01:08.999Z</time></trkpt><trkpt lat="48.22945444697545" lon="11.587869109665613"><ele>493.0</ele><time>2026-03-27T10:01:09.999Z</time></trkpt><trkpt lat="48.229548884703135" lon="11.587816925055563"><ele>492.99999999999994</ele><time>2026-03-27T10:01:10.999Z</time></trkpt><trkpt lat="48.22963377733245" lon="11.587749572005862"><ele>492.99999999999994</ele><time>2026-03-27T10:01:11.999Z</time></trkpt><trkpt lat="48.22970715828318" lon="11.587669982142781"><ele>493.0</ele><time>2026-03-27T10:01:12.999Z</time></trkpt><trkpt lat="48.22976931954066" lon="11.58757415207144"><ele>493.0</ele><time>2026-03-27T10:01:13.999Z</time></trkpt><trkpt lat="48.2298209799446" lon="11.587463776184215"><ele>493.00000000000006</ele><time>2026-03-27T10:01:14.999Z</time></trkpt><trkpt lat="48.229862704668754" lon="11.587344260760329"><ele>493.0</ele><time>2026-03-27T10:01:15.999Z</time></trkpt><trkpt lat="48.22989007248019" lon="11.587220528031043"><ele>493.0</ele><time>2026-03-27T10:01:16.999Z</time></trkpt><trkpt lat="48.22990282305628" lon="11.58710134167551"><ele>493.0</ele><time>2026-03-27T10:01:17.999Z</time></trkpt><trkpt lat="48.22989917652993" lon="11.586996222337653"><ele>493.00000000000006</ele><time>2026-03-27T10:01:18.999Z</time></trkpt><trkpt lat="48.22987918781552" lon="11.586848637383028"><ele>493.0</ele><time>2026-03-27T10:01:20.999Z</time></trkpt><trkpt lat="48.22986693331496" lon="11.586724470238835"><ele>493.1666666666667</ele><time>2026-03-27T10:01:22.999Z</time></trkpt><trkpt lat="48.22985209946311" lon="11.5866234845856"><ele>493.33333333333337</ele><time>2026-03-27T10:01:24.999Z</time></trkpt><trkpt lat="48.22984019375781" lon="11.586508656273448"><ele>493.5</ele><time>2026-03-27T10:01:28.999Z</time></trkpt><trkpt lat="48.2298239376388" lon="11.58637498272754"><ele>493.66666666666663</ele><time>2026-03-27T10:01:52.999Z</time></trkpt><trkpt lat="48.22981345618072" lon="11.586278911534427"><ele>493.8333333333333</ele><time>2026-03-27T10:01:54.999Z</time></trkpt><trkpt lat="48.22980294247454" lon="11.586171813878073"><ele>494.0</ele><time>2026-03-27T10:01:56.999Z</time></trkpt><trkpt lat="48.22978725020765" lon="11.586018971091944"><ele>493.6</ele><time>2026-03-27T10:01:58.999Z</time></trkpt><trkpt lat="48.22976474202681" lon="11.585904542719913"><ele>493.2</ele><time>2026-03-27T10:02:00.999Z</time></trkpt><trkpt lat="48.22962518616175" lon="11.58587207524886"><ele>492.80000000000007</ele><time>2026-03-27T10:02:02.999Z</time></trkpt><trkpt lat="48.229553989123445" lon="11.585894409304473"><ele>492.40000000000003</ele><time>2026-03-27T10:02:03.999Z</time></trkpt><trkpt lat="48.22947477696915" lon="11.585914361588125"><ele>492.0</ele><time>2026-03-27T10:02:04.999Z</time></trkpt><trkpt lat="48.229390072076626" lon="11.585935347068082"><ele>492.0</ele><time>2026-03-27T10:02:05.999Z</time></trkpt><trkpt lat="48.2293132609937" lon="11.585957149144658"><ele>492.0</ele><time>2026-03-27T10:02:06.999Z</time></trkpt><trkpt lat="48.229236361795856" lon="11.58597890199718"><ele>492.0</ele><time>2026-03-27T10:02:07.999Z</time></trkpt><trkpt lat="48.22916328152179" lon="11.586001063464437"><ele>492.0</ele><time>2026-03-27T10:02:08.999Z</time></trkpt><trkpt lat="48.22909154952157" lon="11.586023431472714"><ele>492.0</ele><time>2026-03-27T10:02:09.999Z</time></trkpt><trkpt lat="48.22902049217602" lon="11.586045761970349"><ele>492.0</ele><time>2026-03-27T10:02:10.999Z</time></trkpt><trkpt lat="48.22894866180278" lon="11.586068330014404"><ele>492.0</ele><time>2026-03-27T10:02:11.999Z</time></trkpt><trkpt lat="48.22886766724985" lon="11.586091777968875"><ele>492.00000000000006</ele><time>2026-03-27T10:02:12.999Z</time></trkpt><trkpt lat="48.22877735450201" lon="11.586118416186837"><ele>492.00000000000006</ele><time>2026-03-27T10:02:13.999Z</time></trkpt><trkpt lat="48.22868397572824" lon="11.586149478689908"><ele>492.0</ele><time>2026-03-27T10:02:14.999Z</time></trkpt><trkpt lat="48.22859100749711" lon="11.586180512291286"><ele>492.0</ele><time>2026-03-27T10:02:15.999Z</time></trkpt><trkpt lat="48.22850046153046" lon="11.586213077522888"><ele>492.6</ele><time>2026-03-27T10:02:16.999Z</time></trkpt><trkpt lat="48.22841014666868" lon="11.586242859891192"><ele>493.20000000000005</ele><time>2026-03-27T10:02:17.999Z</time></trkpt><trkpt lat="48.2283193765695" lon="11.586268648786001"><ele>493.8</ele><time>2026-03-27T10:02:18.999Z</time></trkpt><trkpt lat="48.228227722233854" lon="11.586295372783066"><ele>494.4</ele><time>2026-03-27T10:02:19.999Z</time></trkpt><trkpt lat="48.22813531430822" lon="11.586321350602166"><ele>495.0</ele><time>2026-03-27T10:02:20.999Z</time></trkpt><trkpt lat="48.22803720656179" lon="11.58634809224779"><ele>495.0</ele><time>2026-03-27T10:02:21.999Z</time></trkpt><trkpt lat="48.22794261848655" lon="11.586375820013652"><ele>495.0</ele><time>2026-03-27T10:02:22.999Z</time></trkpt><trkpt lat="48.22785323844103" lon="11.586401958299447"><ele>495.0</ele><time>2026-03-27T10:02:23.999Z</time></trkpt><trkpt lat="48.227767143227474" lon="11.58642125811398"><ele>495.0</ele><time>2026-03-27T10:02:24.999Z</time></trkpt><trkpt lat="48.22768300341578" lon="11.586438042851485"><ele>495.0</ele><time>2026-03-27T10:02:25.999Z</time></trkpt><trkpt lat="48.22759976714602" lon="11.586450599323634"><ele>495.0</ele><time>2026-03-27T10:02:26.999Z</time></trkpt><trkpt lat="48.22751703593527" lon="11.586454891194762"><ele>495.0</ele><time>2026-03-27T10:02:27.999Z</time></trkpt><trkpt lat="48.22743263627" lon="11.58644965781001"><ele>495.0</ele><time>2026-03-27T10:02:29Z</time></trkpt><trkpt lat="48.227345072201686" lon="11.586436317952934"><ele>495.0</ele><time>2026-03-27T10:02:30Z</time></trkpt><trkpt lat="48.22726752737704" lon="11.586410790082969"><ele>495.0</ele><time>2026-03-27T10:02:31Z</time></trkpt><trkpt lat="48.22719926269806" lon="11.586374629974928"><ele>495.0</ele><time>2026-03-27T10:02:32Z</time></trkpt><trkpt lat="48.227140625885816" lon="11.586326605796915"><ele>495.0</ele><time>2026-03-27T10:02:33Z</time></trkpt><trkpt lat="48.227084096701546" lon="11.586266737262056"><ele>494.8333333333333</ele><time>2026-03-27T10:02:34Z</time></trkpt><trkpt lat="48.22703151916096" lon="11.58618999009457"><ele>494.66666666666663</ele><time>2026-03-27T10:02:35Z</time></trkpt><trkpt lat="48.22698129463758" lon="11.586105180861521"><ele>494.5</ele><time>2026-03-27T10:02:36Z</time></trkpt><trkpt lat="48.22694478010336" lon="11.58600293821442"><ele>494.3333333333333</ele><time>2026-03-27T10:02:37Z</time></trkpt><trkpt lat="48.226921625518436" lon="11.585886397198397"><ele>494.16666666666663</ele><time>2026-03-27T10:02:38Z</time></trkpt><trkpt lat="48.22691395624793" lon="11.585752706065383"><ele>494.0</ele><time>2026-03-27T10:02:39Z</time></trkpt><trkpt lat="48.22691876972203" lon="11.585616044497101"><ele>494.0</ele><time>2026-03-27T10:02:40Z</time></trkpt><trkpt lat="48.22693912187114" lon="11.585481640818042"><ele>494.0</ele><time>2026-03-27T10:02:41Z</time></trkpt><trkpt lat="48.226980173654795" lon="11.585353570220892"><ele>494.0</ele><time>2026-03-27T10:02:42Z</time></trkpt><trkpt lat="48.227041086836365" lon="11.585236765451224"><ele>494.0</ele><time>2026-03-27T10:02:43Z</time></trkpt><trkpt lat="48.22712125993613" lon="11.585139467552144"><ele>494.0</ele><time>2026-03-27T10:02:44Z</time></trkpt><trkpt lat="48.2272130943821" lon="11.585056392421885"><ele>493.0</ele><time>2026-03-27T10:02:45Z</time></trkpt><trkpt lat="48.22731543544226" lon="11.584987534379904"><ele>492.0</ele><time>2026-03-27T10:02:46Z</time></trkpt><trkpt lat="48.22742448445403" lon="11.584926068827883"><ele>491.0</ele><time>2026-03-27T10:02:47Z</time></trkpt><trkpt lat="48.2275319116579" lon="11.584880653174599"><ele>490.0</ele><time>2026-03-27T10:02:48Z</time></trkpt><trkpt lat="48.227638876598405" lon="11.584851091153405"><ele>489.0</ele><time>2026-03-27T10:02:49Z</time></trkpt><trkpt lat="48.227745424577016" lon="11.584829733222174"><ele>489.0</ele><time>2026-03-27T10:02:50Z</time></trkpt><trkpt lat="48.2278532380969" lon="11.584826982339601"><ele>489.0</ele><time>2026-03-27T10:02:51Z</time></trkpt><trkpt lat="48.22796058536613" lon="11.58485393736061"><ele>489.0</ele><time>2026-03-27T10:02:52Z</time></trkpt><trkpt lat="48.22806765612006" lon="11.584907962929748"><ele>489.0</ele><time>2026-03-27T10:02:53Z</time></trkpt><trkpt lat="48.22816523034879" lon="11.584998236462212"><ele>489.0</ele><time>2026-03-27T10:02:54Z</time></trkpt><trkpt lat="48.22824696983278" lon="11.585121477253484"><ele>489.25</ele><time>2026-03-27T10:02:55Z</time></trkpt><trkpt lat="48.2283071795766" lon="11.58527416893718"><ele>489.5</ele><time>2026-03-27T10:02:56Z</time></trkpt><trkpt lat="48.228352445190964" lon="11.585444821810084"><ele>489.75</ele><time>2026-03-27T10:02:57Z</time></trkpt><trkpt lat="48.22840372943592" lon="11.58563961624419"><ele>490.0</ele><time>2026-03-27T10:02:58Z</time></trkpt><trkpt lat="48.22840414609446" lon="11.585927750869354"><ele>492.0</ele><time>2026-03-27T10:02:59Z</time></trkpt><trkpt lat="48.228426510731154" lon="11.586219044844183"><ele>494.0</ele><time>2026-03-27T10:03:00Z</time></trkpt><trkpt lat="48.22844480575579" lon="11.586499111490856"><ele>496.0</ele><time>2026-03-27T10:03:01Z</time></trkpt><trkpt lat="48.2284658920514" lon="11.586789271936398"><ele>495.33333333333337</ele><time>2026-03-27T10:03:02Z</time></trkpt><trkpt lat="48.228483634243034" lon="11.58708935451662"><ele>494.66666666666663</ele><time>2026-03-27T10:03:03Z</time></trkpt><trkpt lat="48.228503159959956" lon="11.587403108026816"><ele>494.0</ele><time>2026-03-27T10:03:04Z</time></trkpt><trkpt lat="48.22852338857014" lon="11.587745252609329"><ele>493.66666666666663</ele><time>2026-03-27T10:03:04.999Z</time></trkpt><trkpt lat="48.22854318002529" lon="11.58807801574971"><ele>493.33333333333337</ele><time>2026-03-27T10:03:05.999Z</time></trkpt><trkpt lat="48.228560503186685" lon="11.588416492958276"><ele>493.0</ele><time>2026-03-27T10:03:06.999Z</time></trkpt><trkpt lat="48.22857855584562" lon="11.588767923454741"><ele>492.0</ele><time>2026-03-27T10:03:07.999Z</time></trkpt><trkpt lat="48.22859817107992" lon="11.589125691958913"><ele>491.0</ele><time>2026-03-27T10:03:08.999Z</time></trkpt><trkpt lat="48.22861458147866" lon="11.589464684221182"><ele>491.5</ele><time>2026-03-27T10:03:09.999Z</time></trkpt><trkpt lat="48.22862870356478" lon="11.589804887317374"><ele>492.0</ele><time>2026-03-27T10:03:10.999Z</time></trkpt><trkpt lat="48.22864051356513" lon="11.590156984749088"><ele>492.66666666666663</ele><time>2026-03-27T10:03:11.999Z</time></trkpt><trkpt lat="48.22865167405804" lon="11.590496284701207"><ele>493.3333333333333</ele><time>2026-03-27T10:03:12.999Z</time></trkpt><trkpt lat="48.22865658444447" lon="11.59082025464302"><ele>494.0</ele><time>2026-03-27T10:03:13.999Z</time></trkpt><trkpt lat="48.22865936352828" lon="11.591148538618013"><ele>493.66666666666663</ele><time>2026-03-27T10:03:14.999Z</time></trkpt><trkpt lat="48.22866650258946" lon="11.591478839795023"><ele>493.33333333333337</ele><time>2026-03-27T10:03:15.999Z</time></trkpt><trkpt lat="48.228672859056054" lon="11.591803935036971"><ele>493.0</ele><time>2026-03-27T10:03:16.999Z</time></trkpt><trkpt lat="48.228680581632545" lon="11.592127028623617"><ele>493.0</ele><time>2026-03-27T10:03:17.999Z</time></trkpt><trkpt lat="48.2286859074898" lon="11.592447819624168"><ele>493.0</ele><time>2026-03-27T10:03:18.999Z</time></trkpt><trkpt lat="48.22868790973521" lon="11.59276886162702"><ele>493.0</ele><time>2026-03-27T10:03:19.999Z</time></trkpt><trkpt lat="48.22868888958101" lon="11.593082006883808"><ele>492.33333333333337</ele><time>2026-03-27T10:03:20.999Z</time></trkpt><trkpt lat="48.22868912681915" lon="11.593392227681663"><ele>491.66666666666663</ele><time>2026-03-27T10:03:21.999Z</time></trkpt><trkpt lat="48.228690825424366" lon="11.593701524448566"><ele>491.0</ele><time>2026-03-27T10:03:22.999Z</time></trkpt><trkpt lat="48.22869185177096" lon="11.594014687175855"><ele>491.0</ele><time>2026-03-27T10:03:23.999Z</time></trkpt><trkpt lat="48.22868994705378" lon="11.594329459052107"><ele>491.0</ele><time>2026-03-27T10:03:24.999Z</time></trkpt><trkpt lat="48.228688142454274" lon="11.594650137786424"><ele>491.0</ele><time>2026-03-27T10:03:25.999Z</time></trkpt><trkpt lat="48.22868295460987" lon="11.594983349177895"><ele>490.3333333333333</ele><time>2026-03-27T10:03:26.999Z</time></trkpt><trkpt lat="48.22867607607616" lon="11.595305103784098"><ele>489.66666666666663</ele><time>2026-03-27T10:03:27.999Z</time></trkpt><trkpt lat="48.22867027969228" lon="11.595601646320485"><ele>489.0</ele><time>2026-03-27T10:03:28.999Z</time></trkpt><trkpt lat="48.22866177211678" lon="11.595899065791825"><ele>489.66666666666663</ele><time>2026-03-27T10:03:29.999Z</time></trkpt><trkpt lat="48.22865230204078" lon="11.596192959603671"><ele>490.3333333333333</ele><time>2026-03-27T10:03:30.999Z</time></trkpt><trkpt lat="48.22864280380082" lon="11.596485631209495"><ele>491.0</ele><time>2026-03-27T10:03:31.999Z</time></trkpt><trkpt lat="48.228634624815086" lon="11.596786372478247"><ele>491.66666666666663</ele><time>2026-03-27T10:03:32.999Z</time></trkpt><trkpt lat="48.22862588363328" lon="11.5970924527671"><ele>492.33333333333337</ele><time>2026-03-27T10:03:33.999Z</time></trkpt><trkpt lat="48.22861325851881" lon="11.597410161892322"><ele>493.0</ele><time>2026-03-27T10:03:34.999Z</time></trkpt><trkpt lat="48.22859548741021" lon="11.597746958184715"><ele>492.5</ele><time>2026-03-27T10:03:35.999Z</time></trkpt><trkpt lat="48.22857713550011" lon="11.598092807197942"><ele>492.0</ele><time>2026-03-27T10:03:36.999Z</time></trkpt><trkpt lat="48.228560679404794" lon="11.5984415263"><ele>491.5</ele><time>2026-03-27T10:03:37.999Z</time></trkpt><trkpt lat="48.228543062927194" lon="11.5987807929814"><ele>491.0</ele><time>2026-03-27T10:03:38.999Z</time></trkpt><trkpt lat="48.22851391829869" lon="11.5991134677758"><ele>491.0</ele><time>2026-03-27T10:03:39.999Z</time></trkpt><trkpt lat="48.22848051328811" lon="11.599436096083883"><ele>491.0</ele><time>2026-03-27T10:03:40.999Z</time></trkpt><trkpt lat="48.2284543139758" lon="11.599755583091"><ele>491.0</ele><time>2026-03-27T10:03:41.999Z</time></trkpt><trkpt lat="48.22842931226128" lon="11.600071500932323"><ele>491.3333333333333</ele><time>2026-03-27T10:03:42.999Z</time></trkpt><trkpt lat="48.22840360223625" lon="11.600385429182579"><ele>491.66666666666663</ele><time>2026-03-27T10:03:43.999Z</time></trkpt><trkpt lat="48.228379515591044" lon="11.600700759151126"><ele>492.0</ele><time>2026-03-27T10:03:44.999Z</time></trkpt><trkpt lat="48.22835396251343" lon="11.601017428921095"><ele>491.66666666666663</ele><time>2026-03-27T10:03:45.999Z</time></trkpt><trkpt lat="48.2283250378152" lon="11.60134135253659"><ele>491.3333333333333</ele><time>2026-03-27T10:03:46.999Z</time></trkpt><trkpt lat="48.228295041530195" lon="11.601671681726664"><ele>491.0</ele><time>2026-03-27T10:03:47.999Z</time></trkpt><trkpt lat="48.22827969890579" lon="11.60201117446009"><ele>491.0</ele><time>2026-03-27T10:03:48.999Z</time></trkpt><trkpt lat="48.22824475325852" lon="11.602371613832041"><ele>491.0</ele><time>2026-03-27T10:03:49.999Z</time></trkpt><trkpt lat="48.22820769954685" lon="11.602741558672474"><ele>490.5</ele><time>2026-03-27T10:03:50.999Z</time></trkpt><trkpt lat="48.22816970979545" lon="11.603108908236738"><ele>490.0</ele><time>2026-03-27T10:03:51.999Z</time></trkpt><trkpt lat="48.22812963308782" lon="11.603483069639292"><ele>491.0</ele><time>2026-03-27T10:03:52.999Z</time></trkpt><trkpt lat="48.22808651359034" lon="11.603868807402742"><ele>492.0</ele><time>2026-03-27T10:03:53.999Z</time></trkpt><trkpt lat="48.22803987806842" lon="11.60426920787215"><ele>492.0</ele><time>2026-03-27T10:03:54.999Z</time></trkpt><trkpt lat="48.227990557907276" lon="11.604673088650316"><ele>492.0</ele><time>2026-03-27T10:03:55.999Z</time></trkpt><trkpt lat="48.227938818991845" lon="11.605073369872764"><ele>491.0</ele><time>2026-03-27T10:03:56.999Z</time></trkpt><trkpt lat="48.22788774107983" lon="11.605459471875822"><ele>490.0</ele><time>2026-03-27T10:03:57.999Z</time></trkpt><trkpt lat="48.22783500654354" lon="11.605841769293662"><ele>490.0</ele><time>2026-03-27T10:03:58.999Z</time></trkpt><trkpt lat="48.22777944018449" lon="11.606239281370073"><ele>490.0</ele><time>2026-03-27T10:03:59.999Z</time></trkpt><trkpt lat="48.22772038253923" lon="11.606642654333365"><ele>490.5</ele><time>2026-03-27T10:04:00.999Z</time></trkpt><trkpt lat="48.22765840247704" lon="11.607049437029625"><ele>491.0</ele><time>2026-03-27T10:04:01.999Z</time></trkpt><trkpt lat="48.22759102701851" lon="11.607484241979963"><ele>489.5</ele><time>2026-03-27T10:04:02.999Z</time></trkpt><trkpt lat="48.22752192632302" lon="11.607913104207338"><ele>488.0</ele><time>2026-03-27T10:04:03.999Z</time></trkpt><trkpt lat="48.22745240293444" lon="11.60832212554257"><ele>488.5</ele><time>2026-03-27T10:04:04.999Z</time></trkpt><trkpt lat="48.227382280744344" lon="11.608722011430453"><ele>489.0</ele><time>2026-03-27T10:04:05.999Z</time></trkpt><trkpt lat="48.2272967562444" lon="11.609113930754537"><ele>489.0</ele><time>2026-03-27T10:04:06.999Z</time></trkpt><trkpt lat="48.22722385024097" lon="11.609517407888344"><ele>489.0</ele><time>2026-03-27T10:04:07.999Z</time></trkpt><trkpt lat="48.227145259752604" lon="11.609932827457127"><ele>489.5</ele><time>2026-03-27T10:04:08.999Z</time></trkpt><trkpt lat="48.227064327299686" lon="11.610370035815093"><ele>490.0</ele><time>2026-03-27T10:04:09.999Z</time></trkpt><trkpt lat="48.226979122507885" lon="11.610820655611274"><ele>490.0</ele><time>2026-03-27T10:04:10.999Z</time></trkpt><trkpt lat="48.22689103326979" lon="11.611262879894516"><ele>490.0</ele><time>2026-03-27T10:04:11.999Z</time></trkpt><trkpt lat="48.22680062181422" lon="11.611682251046389"><ele>489.5</ele><time>2026-03-27T10:04:12.999Z</time></trkpt><trkpt lat="48.22670560885597" lon="11.612090852968143"><ele>489.0</ele><time>2026-03-27T10:04:13.999Z</time></trkpt><trkpt lat="48.22660407718705" lon="11.612494056820433"><ele>489.0</ele><time>2026-03-27T10:04:14.999Z</time></trkpt><trkpt lat="48.22648947448724" lon="11.612898762877196"><ele>489.0</ele><time>2026-03-27T10:04:15.999Z</time></trkpt><trkpt lat="48.22637029125039" lon="11.613302015787562"><ele>488.0</ele><time>2026-03-27T10:04:16.999Z</time></trkpt><trkpt lat="48.22626192873593" lon="11.613703854118285"><ele>487.0</ele><time>2026-03-27T10:04:17.999Z</time></trkpt><trkpt lat="48.22616378911097" lon="11.614077846270234"><ele>487.0</ele><time>2026-03-27T10:04:18.999Z</time></trkpt><trkpt lat="48.22607021869215" lon="11.614425667754686"><ele>487.0</ele><time>2026-03-27T10:04:19.999Z</time></trkpt><trkpt lat="48.22598194326612" lon="11.61475832870423"><ele>487.5</ele><time>2026-03-27T10:04:20.999Z</time></trkpt><trkpt lat="48.22589758889752" lon="11.615089365351729"><ele>488.0</ele><time>2026-03-27T10:04:21.999Z</time></trkpt><trkpt lat="48.22581100080932" lon="11.61542493156531"><ele>488.3333333333333</ele><time>2026-03-27T10:04:22.999Z</time></trkpt><trkpt lat="48.22572326240466" lon="11.615747151900983"><ele>488.66666666666663</ele><time>2026-03-27T10:04:23.999Z</time></trkpt><trkpt lat="48.22563910375521" lon="11.616044288182374"><ele>489.0</ele><time>2026-03-27T10:04:24.999Z</time></trkpt><trkpt lat="48.225556873025496" lon="11.616322145603815"><ele>489.33333333333337</ele><time>2026-03-27T10:04:25.999Z</time></trkpt><trkpt lat="48.22547155567074" lon="11.616581154271158"><ele>489.6666666666667</ele><time>2026-03-27T10:04:26.999Z</time></trkpt><trkpt lat="48.22538073625942" lon="11.616834722352621"><ele>490.0</ele><time>2026-03-27T10:04:27.999Z</time></trkpt><trkpt lat="48.225279609915816" lon="11.617083847128573"><ele>490.0</ele><time>2026-03-27T10:04:28.999Z</time></trkpt><trkpt lat="48.22516713754441" lon="11.617331907394336"><ele>490.0</ele><time>2026-03-27T10:04:29.999Z</time></trkpt><trkpt lat="48.225031738489776" lon="11.617566200392966"><ele>490.0</ele><time>2026-03-27T10:04:30.999Z</time></trkpt><trkpt lat="48.22488127672193" lon="11.617778293176963"><ele>489.33333333333337</ele><time>2026-03-27T10:04:31.999Z</time></trkpt><trkpt lat="48.22473552280564" lon="11.61797024705668"><ele>488.66666666666663</ele><time>2026-03-27T10:04:32.999Z</time></trkpt><trkpt lat="48.22460042210575" lon="11.618151317369874"><ele>488.0</ele><time>2026-03-27T10:04:33.999Z</time></trkpt><trkpt lat="48.22447201103718" lon="11.618315997415813"><ele>488.0</ele><time>2026-03-27T10:04:35Z</time></trkpt><trkpt lat="48.22434892014701" lon="11.618494720378358"><ele>488.0</ele><time>2026-03-27T10:04:36Z</time></trkpt><trkpt lat="48.224237152641784" lon="11.618700821576722"><ele>488.0</ele><time>2026-03-27T10:04:37Z</time></trkpt><trkpt lat="48.22416075407532" lon="11.618939682657476"><ele>488.3333333333333</ele><time>2026-03-27T10:04:38Z</time></trkpt><trkpt lat="48.224096461049236" lon="11.619164377248149"><ele>488.66666666666663</ele><time>2026-03-27T10:04:39Z</time></trkpt><trkpt lat="48.224047809946555" lon="11.619403292926181"><ele>489.0</ele><time>2026-03-27T10:04:40Z</time></trkpt><trkpt lat="48.22401620792485" lon="11.619653873020003"><ele>489.66666666666663</ele><time>2026-03-27T10:04:41Z</time></trkpt><trkpt lat="48.22397564333928" lon="11.619902733676273"><ele>490.3333333333333</ele><time>2026-03-27T10:04:42Z</time></trkpt><trkpt lat="48.223934419786936" lon="11.620145019396706"><ele>491.0</ele><time>2026-03-27T10:04:43Z</time></trkpt><trkpt lat="48.2238688833959" lon="11.620378211828044"><ele>491.0</ele><time>2026-03-27T10:04:44Z</time></trkpt><trkpt lat="48.22378380071047" lon="11.620601829563505"><ele>491.0</ele><time>2026-03-27T10:04:45Z</time></trkpt><trkpt lat="48.22369164114498" lon="11.620819726269795"><ele>491.0</ele><time>2026-03-27T10:04:46Z</time></trkpt><trkpt lat="48.22359572607297" lon="11.62103465096185"><ele>491.0</ele><time>2026-03-27T10:04:47Z</time></trkpt><trkpt lat="48.22350377584624" lon="11.621246065008078"><ele>491.0</ele><time>2026-03-27T10:04:48Z</time></trkpt><trkpt lat="48.22341142805262" lon="11.621458315857627"><ele>491.0</ele><time>2026-03-27T10:04:49Z</time></trkpt><trkpt lat="48.223324811202865" lon="11.621656803865648"><ele>491.0</ele><time>2026-03-27T10:04:50Z</time></trkpt><trkpt lat="48.223243226347165" lon="11.62183607622238"><ele>491.0</ele><time>2026-03-27T10:04:51Z</time></trkpt><trkpt lat="48.223170928118165" lon="11.62199439480552"><ele>491.0</ele><time>2026-03-27T10:04:52Z</time></trkpt><trkpt lat="48.223103072792895" lon="11.622145300352097"><ele>491.0</ele><time>2026-03-27T10:04:53Z</time></trkpt><trkpt lat="48.22304065507354" lon="11.622288505162286"><ele>491.0</ele><time>2026-03-27T10:04:54Z</time></trkpt><trkpt lat="48.222977098398694" lon="11.622427921096703"><ele>491.0</ele><time>2026-03-27T10:04:55Z</time></trkpt><trkpt lat="48.222925778521834" lon="11.6225504915861"><ele>491.0</ele><time>2026-03-27T10:04:56Z</time></trkpt><trkpt lat="48.22287367168105" lon="11.622673033870802"><ele>491.0</ele><time>2026-03-27T10:04:57Z</time></trkpt><trkpt lat="48.222813617505814" lon="11.622804593977632"><ele>491.0</ele><time>2026-03-27T10:04:58Z</time></trkpt><trkpt lat="48.22276256468031" lon="11.622961373782887"><ele>491.0</ele><time>2026-03-27T10:04:59Z</time></trkpt><trkpt lat="48.22270185194912" lon="11.623106979289654"><ele>491.0</ele><time>2026-03-27T10:05:00Z</time></trkpt><trkpt lat="48.22263457598199" lon="11.623226747782756"><ele>491.0</ele><time>2026-03-27T10:05:01Z</time></trkpt><trkpt lat="48.222581163976336" lon="11.623348869077264"><ele>491.0</ele><time>2026-03-27T10:05:02Z</time></trkpt><trkpt lat="48.222529201221946" lon="11.623476161072858"><ele>491.0</ele><time>2026-03-27T10:05:03Z</time></trkpt><trkpt lat="48.22247552439623" lon="11.623602858985329"><ele>491.0</ele><time>2026-03-27T10:05:04Z</time></trkpt><trkpt lat="48.22241684092119" lon="11.623739218815446"><ele>491.0</ele><time>2026-03-27T10:05:05Z</time></trkpt><trkpt lat="48.222354106856415" lon="11.623882953925666"><ele>491.0</ele><time>2026-03-27T10:05:06Z</time></trkpt><trkpt lat="48.222290761734726" lon="11.624028666272457"><ele>491.0</ele><time>2026-03-27T10:05:07Z</time></trkpt><trkpt lat="48.22223102651337" lon="11.624165962687046"><ele>491.0</ele><time>2026-03-27T10:05:08Z</time></trkpt><trkpt lat="48.22217354119973" lon="11.624291672823707"><ele>490.6</ele><time>2026-03-27T10:05:09Z</time></trkpt><trkpt lat="48.22211570277133" lon="11.624418315713653"><ele>490.20000000000005</ele><time>2026-03-27T10:05:10Z</time></trkpt><trkpt lat="48.22205613690665" lon="11.6245522187639"><ele>489.79999999999995</ele><time>2026-03-27T10:05:11Z</time></trkpt><trkpt lat="48.221995533570244" lon="11.62468991347226"><ele>489.4</ele><time>2026-03-27T10:05:12Z</time></trkpt><trkpt lat="48.22192866616596" lon="11.624840935880576"><ele>489.0</ele><time>2026-03-27T10:05:13Z</time></trkpt><trkpt lat="48.22186046444814" lon="11.624994128517674"><ele>489.0</ele><time>2026-03-27T10:05:14Z</time></trkpt><trkpt lat="48.22179306554577" lon="11.625138658916901"><ele>489.0</ele><time>2026-03-27T10:05:15Z</time></trkpt><trkpt lat="48.22172270554906" lon="11.625283507798374"><ele>489.0</ele><time>2026-03-27T10:05:16Z</time></trkpt><trkpt lat="48.22165191382927" lon="11.625422408823956"><ele>489.0</ele><time>2026-03-27T10:05:17Z</time></trkpt><trkpt lat="48.22157828196245" lon="11.625557490135833"><ele>489.0</ele><time>2026-03-27T10:05:18Z</time></trkpt><trkpt lat="48.22150070388516" lon="11.625687961529014"><ele>489.0</ele><time>2026-03-27T10:05:19Z</time></trkpt><trkpt lat="48.22142116218391" lon="11.625816688545504"><ele>489.0</ele><time>2026-03-27T10:05:20Z</time></trkpt><trkpt lat="48.22133865878771" lon="11.625940906558053"><ele>489.0</ele><time>2026-03-27T10:05:21Z</time></trkpt><trkpt lat="48.221252499685555" lon="11.626063144390853"><ele>489.5</ele><time>2026-03-27T10:05:22Z</time></trkpt><trkpt lat="48.221160872672655" lon="11.62618130388394"><ele>490.0</ele><time>2026-03-27T10:05:23Z</time></trkpt><trkpt lat="48.22106635588599" lon="11.62629297836104"><ele>490.5</ele><time>2026-03-27T10:05:24Z</time></trkpt><trkpt lat="48.22097009975647" lon="11.62639441898436"><ele>491.0</ele><time>2026-03-27T10:05:24.999Z</time></trkpt><trkpt lat="48.220875893959445" lon="11.62648376256845"><ele>491.0</ele><time>2026-03-27T10:05:25.999Z</time></trkpt><trkpt lat="48.22078112280714" lon="11.62656691235542"><ele>491.0</ele><time>2026-03-27T10:05:26.999Z</time></trkpt><trkpt lat="48.220682479832675" lon="11.626643620722216"><ele>491.0</ele><time>2026-03-27T10:05:27.999Z</time></trkpt><trkpt lat="48.22058033317533" lon="11.626715663096803"><ele>491.0</ele><time>2026-03-27T10:05:28.999Z</time></trkpt><trkpt lat="48.22047621423488" lon="11.626781277723358"><ele>491.0</ele><time>2026-03-27T10:05:29.999Z</time></trkpt><trkpt lat="48.2203693928905" lon="11.626843083267298"><ele>491.0</ele><time>2026-03-27T10:05:30.999Z</time></trkpt><trkpt lat="48.22025802526681" lon="11.62689605118826"><ele>491.0</ele><time>2026-03-27T10:05:31.999Z</time></trkpt><trkpt lat="48.22014600209974" lon="11.626942058351874"><ele>491.0</ele><time>2026-03-27T10:05:32.999Z</time></trkpt><trkpt lat="48.220034358632105" lon="11.626981293563723"><ele>491.0</ele><time>2026-03-27T10:05:33.999Z</time></trkpt><trkpt lat="48.21992146371475" lon="11.627011316237121"><ele>491.25</ele><time>2026-03-27T10:05:34.999Z</time></trkpt><trkpt lat="48.2198091340429" lon="11.6270319532182"><ele>491.5</ele><time>2026-03-27T10:05:35.999Z</time></trkpt><trkpt lat="48.21969552511676" lon="11.62704887874064"><ele>491.75</ele><time>2026-03-27T10:05:36.999Z</time></trkpt><trkpt lat="48.219580585787966" lon="11.627057942389957"><ele>492.0</ele><time>2026-03-27T10:05:37.999Z</time></trkpt><trkpt lat="48.21946472078049" lon="11.627055085409207"><ele>492.0</ele><time>2026-03-27T10:05:38.999Z</time></trkpt><trkpt lat="48.219352678335504" lon="11.627044267782901"><ele>492.0</ele><time>2026-03-27T10:05:39.999Z</time></trkpt><trkpt lat="48.21923798058834" lon="11.627033388447252"><ele>492.0</ele><time>2026-03-27T10:05:40.999Z</time></trkpt><trkpt lat="48.219120058075475" lon="11.627008186367215"><ele>492.0</ele><time>2026-03-27T10:05:41.999Z</time></trkpt><trkpt lat="48.21899984857346" lon="11.626977800606284"><ele>491.75</ele><time>2026-03-27T10:05:42.999Z</time></trkpt><trkpt lat="48.21888138200053" lon="11.626940701327872"><ele>491.5</ele><time>2026-03-27T10:05:43.999Z</time></trkpt><trkpt lat="48.21876838744979" lon="11.626893062305555"><ele>491.25</ele><time>2026-03-27T10:05:44.999Z</time></trkpt><trkpt lat="48.21865941650879" lon="11.626840574040118"><ele>491.0</ele><time>2026-03-27T10:05:45.999Z</time></trkpt><trkpt lat="48.2185512073037" lon="11.626782390436452"><ele>491.0</ele><time>2026-03-27T10:05:46.999Z</time></trkpt><trkpt lat="48.21844106087133" lon="11.626724059282283"><ele>491.0</ele><time>2026-03-27T10:05:47.999Z</time></trkpt><trkpt lat="48.21833093902177" lon="11.626665533526142"><ele>491.0</ele><time>2026-03-27T10:05:48.999Z</time></trkpt><trkpt lat="48.21822312525469" lon="11.626603114856845"><ele>491.0</ele><time>2026-03-27T10:05:49.999Z</time></trkpt><trkpt lat="48.218116151245184" lon="11.626544742121748"><ele>491.25</ele><time>2026-03-27T10:05:50.999Z</time></trkpt><trkpt lat="48.21800946675434" lon="11.626483173457475"><ele>491.5</ele><time>2026-03-27T10:05:51.999Z</time></trkpt><trkpt lat="48.217901455241126" lon="11.626421814818945"><ele>491.75</ele><time>2026-03-27T10:05:52.999Z</time></trkpt><trkpt lat="48.217794267392556" lon="11.62636312358082"><ele>492.0</ele><time>2026-03-27T10:05:53.999Z</time></trkpt><trkpt lat="48.217687799069246" lon="11.626305142200383"><ele>492.0</ele><time>2026-03-27T10:05:54.999Z</time></trkpt><trkpt lat="48.21758068757766" lon="11.626246502854006"><ele>492.0</ele><time>2026-03-27T10:05:55.999Z</time></trkpt><trkpt lat="48.21747235522421" lon="11.626186171080073"><ele>492.0</ele><time>2026-03-27T10:05:56.999Z</time></trkpt><trkpt lat="48.21736238549103" lon="11.626123666406038"><ele>492.0</ele><time>2026-03-27T10:05:57.999Z</time></trkpt><trkpt lat="48.2172508033803" lon="11.626058882219494"><ele>491.25</ele><time>2026-03-27T10:05:58.999Z</time></trkpt><trkpt lat="48.21713995264606" lon="11.625995371532873"><ele>490.5</ele><time>2026-03-27T10:05:59.999Z</time></trkpt><trkpt lat="48.2170349544854" lon="11.625935695951322"><ele>489.75</ele><time>2026-03-27T10:06:00.999Z</time></trkpt><trkpt lat="48.216929203705156" lon="11.62587771557614"><ele>489.0</ele><time>2026-03-27T10:06:01.999Z</time></trkpt><trkpt lat="48.21682289107609" lon="11.625818746095103"><ele>489.0</ele><time>2026-03-27T10:06:02.999Z</time></trkpt><trkpt lat="48.21671503827996" lon="11.62575948109481"><ele>489.0</ele><time>2026-03-27T10:06:03.999Z</time></trkpt><trkpt lat="48.21660950367011" lon="11.625701941873666"><ele>489.0</ele><time>2026-03-27T10:06:04.999Z</time></trkpt><trkpt lat="48.21650323937921" lon="11.625644370737488"><ele>489.0</ele><time>2026-03-27T10:06:05.999Z</time></trkpt><trkpt lat="48.216397444432715" lon="11.625585884669494"><ele>489.2</ele><time>2026-03-27T10:06:06.999Z</time></trkpt><trkpt lat="48.216289279014454" lon="11.625529915664739"><ele>489.4</ele><time>2026-03-27T10:06:07.999Z</time></trkpt><trkpt lat="48.21618593464445" lon="11.625471817085177"><ele>489.6</ele><time>2026-03-27T10:06:08.999Z</time></trkpt><trkpt lat="48.21608181746321" lon="11.625413431533538"><ele>489.8</ele><time>2026-03-27T10:06:09.999Z</time></trkpt><trkpt lat="48.21598162260052" lon="11.625356535173243"><ele>490.0</ele><time>2026-03-27T10:06:10.999Z</time></trkpt><trkpt lat="48.21588189190066" lon="11.625300436574564"><ele>490.0</ele><time>2026-03-27T10:06:11.999Z</time></trkpt><trkpt lat="48.215783306467465" lon="11.62524451534021"><ele>490.0</ele><time>2026-03-27T10:06:12.999Z</time></trkpt><trkpt lat="48.21568349294258" lon="11.625189008016473"><ele>490.0</ele><time>2026-03-27T10:06:13.999Z</time></trkpt><trkpt lat="48.2155829425854" lon="11.62513301982074"><ele>490.0</ele><time>2026-03-27T10:06:14.999Z</time></trkpt><trkpt lat="48.21548071839757" lon="11.625076674745731"><ele>490.0</ele><time>2026-03-27T10:06:15.999Z</time></trkpt><trkpt lat="48.21537680832214" lon="11.62502156571606"><ele>490.6</ele><time>2026-03-27T10:06:16.999Z</time></trkpt><trkpt lat="48.21527345374431" lon="11.62496480601671"><ele>491.2</ele><time>2026-03-27T10:06:17.999Z</time></trkpt><trkpt lat="48.21517044749496" lon="11.624905424918234"><ele>491.79999999999995</ele><time>2026-03-27T10:06:18.999Z</time></trkpt><trkpt lat="48.21506896380021" lon="11.624846380727435"><ele>492.4</ele><time>2026-03-27T10:06:19.999Z</time></trkpt><trkpt lat="48.2149678471001" lon="11.624790793522221"><ele>493.0</ele><time>2026-03-27T10:06:20.999Z</time></trkpt><trkpt lat="48.21486504993722" lon="11.624734417554697"><ele>492.79999999999995</ele><time>2026-03-27T10:06:21.999Z</time></trkpt><trkpt lat="48.21476264499591" lon="11.624676317136062"><ele>492.59999999999997</ele><time>2026-03-27T10:06:22.999Z</time></trkpt><trkpt lat="48.21465887855515" lon="11.624619727181788"><ele>492.40000000000003</ele><time>2026-03-27T10:06:23.999Z</time></trkpt><trkpt lat="48.21455326259234" lon="11.62456279022012"><ele>492.20000000000005</ele><time>2026-03-27T10:06:24.999Z</time></trkpt><trkpt lat="48.214446336647725" lon="11.624501182891333"><ele>492.0</ele><time>2026-03-27T10:06:25.999Z</time></trkpt><trkpt lat="48.21433735648373" lon="11.62444169584064"><ele>492.0</ele><time>2026-03-27T10:06:26.999Z</time></trkpt><trkpt lat="48.214228281892815" lon="11.624381231276367"><ele>492.0</ele><time>2026-03-27T10:06:27.999Z</time></trkpt><trkpt lat="48.21412262648392" lon="11.624322395238721"><ele>492.0</ele><time>2026-03-27T10:06:28.999Z</time></trkpt><trkpt lat="48.21401630231985" lon="11.62426212321948"><ele>492.0</ele><time>2026-03-27T10:06:29.999Z</time></trkpt><trkpt lat="48.213906666102716" lon="11.624206943705495"><ele>492.0</ele><time>2026-03-27T10:06:30.999Z</time></trkpt><trkpt lat="48.213792839330964" lon="11.624146175377374"><ele>492.0</ele><time>2026-03-27T10:06:31.999Z</time></trkpt><trkpt lat="48.21367859417634" lon="11.62408167376861"><ele>492.0</ele><time>2026-03-27T10:06:32.999Z</time></trkpt><trkpt lat="48.21357048447802" lon="11.624020988208445"><ele>492.0</ele><time>2026-03-27T10:06:33.999Z</time></trkpt><trkpt lat="48.21346281310235" lon="11.623960143639193"><ele>492.0</ele><time>2026-03-27T10:06:34.999Z</time></trkpt><trkpt lat="48.21335472405283" lon="11.623899932337219"><ele>492.0</ele><time>2026-03-27T10:06:35.999Z</time></trkpt><trkpt lat="48.213244380554755" lon="11.623838074613516"><ele>492.0</ele><time>2026-03-27T10:06:36.999Z</time></trkpt><trkpt lat="48.213132400289446" lon="11.623778413594462"><ele>492.0</ele><time>2026-03-27T10:06:37.999Z</time></trkpt><trkpt lat="48.213021882315005" lon="11.62371829627157"><ele>491.8</ele><time>2026-03-27T10:06:38.999Z</time></trkpt><trkpt lat="48.212915144268585" lon="11.623659569971753"><ele>491.6</ele><time>2026-03-27T10:06:40Z</time></trkpt><trkpt lat="48.212810313840244" lon="11.62360029993304"><ele>491.40000000000003</ele><time>2026-03-27T10:06:41Z</time></trkpt><trkpt lat="48.212705600365105" lon="11.623542616316382"><ele>491.20000000000005</ele><time>2026-03-27T10:06:42Z</time></trkpt><trkpt lat="48.21260158828592" lon="11.623485847888572"><ele>491.0</ele><time>2026-03-27T10:06:43Z</time></trkpt><trkpt lat="48.212497626503385" lon="11.623429566781612"><ele>491.4</ele><time>2026-03-27T10:06:44Z</time></trkpt><trkpt lat="48.21239469492435" lon="11.623374310277372"><ele>491.8</ele><time>2026-03-27T10:06:45Z</time></trkpt><trkpt lat="48.212294711753074" lon="11.6233193675938"><ele>492.19999999999993</ele><time>2026-03-27T10:06:46Z</time></trkpt><trkpt lat="48.21219327431443" lon="11.623262930740546"><ele>492.59999999999997</ele><time>2026-03-27T10:06:47Z</time></trkpt><trkpt lat="48.21209011168931" lon="11.623207125467763"><ele>493.0</ele><time>2026-03-27T10:06:48Z</time></trkpt><trkpt lat="48.211986807364546" lon="11.623150232640796"><ele>493.0</ele><time>2026-03-27T10:06:49Z</time></trkpt><trkpt lat="48.21188636349235" lon="11.623094034320932"><ele>492.99999999999994</ele><time>2026-03-27T10:06:50Z</time></trkpt><trkpt lat="48.21178691130256" lon="11.623038664781722"><ele>492.99999999999994</ele><time>2026-03-27T10:06:51Z</time></trkpt><trkpt lat="48.21168786772449" lon="11.62298227614954"><ele>493.0</ele><time>2026-03-27T10:06:52Z</time></trkpt><trkpt lat="48.2115872875243" lon="11.622925566265279"><ele>493.0</ele><time>2026-03-27T10:06:53Z</time></trkpt><trkpt lat="48.211486936576165" lon="11.622872404126998"><ele>493.0</ele><time>2026-03-27T10:06:54Z</time></trkpt><trkpt lat="48.211386885771795" lon="11.622818438383337"><ele>492.99999999999994</ele><time>2026-03-27T10:06:55Z</time></trkpt><trkpt lat="48.21128972154593" lon="11.622763773970775"><ele>492.99999999999994</ele><time>2026-03-27T10:06:56Z</time></trkpt><trkpt lat="48.21119924439188" lon="11.622711002540077"><ele>493.0</ele><time>2026-03-27T10:06:57Z</time></trkpt><trkpt lat="48.21110642617289" lon="11.622659665456723"><ele>493.0</ele><time>2026-03-27T10:06:58Z</time></trkpt><trkpt lat="48.21100987627616" lon="11.622609139671678"><ele>493.00000000000006</ele><time>2026-03-27T10:06:59Z</time></trkpt><trkpt lat="48.21091758514754" lon="11.622558185673034"><ele>493.0</ele><time>2026-03-27T10:07:00Z</time></trkpt><trkpt lat="48.21083128208109" lon="11.62250825565607"><ele>493.0</ele><time>2026-03-27T10:07:01Z</time></trkpt><trkpt lat="48.210750718361716" lon="11.622458745848071"><ele>493.0</ele><time>2026-03-27T10:07:02Z</time></trkpt><trkpt lat="48.21067560241955" lon="11.622400410556954"><ele>493.00000000000006</ele><time>2026-03-27T10:07:03Z</time></trkpt><trkpt lat="48.210608410186175" lon="11.622321518823314"><ele>493.0</ele><time>2026-03-27T10:07:04Z</time></trkpt><trkpt lat="48.21055642515233" lon="11.622217749167287"><ele>493.33333333333337</ele><time>2026-03-27T10:07:05Z</time></trkpt><trkpt lat="48.21051793100609" lon="11.622096343477857"><ele>493.6666666666667</ele><time>2026-03-27T10:07:06Z</time></trkpt><trkpt lat="48.21050019151286" lon="11.621966043870382"><ele>494.0</ele><time>2026-03-27T10:07:07Z</time></trkpt><trkpt lat="48.21050126376078" lon="11.621835086032224"><ele>494.33333333333337</ele><time>2026-03-27T10:07:08Z</time></trkpt><trkpt lat="48.210517018155244" lon="11.621709999373882"><ele>494.6666666666667</ele><time>2026-03-27T10:07:09Z</time></trkpt><trkpt lat="48.2105438742215" lon="11.621594371529653"><ele>495.0</ele><time>2026-03-27T10:07:10Z</time></trkpt><trkpt lat="48.210570528462185" lon="11.62148215773511"><ele>494.99999999999994</ele><time>2026-03-27T10:07:11Z</time></trkpt><trkpt lat="48.21059733764779" lon="11.62137221860818"><ele>495.0</ele><time>2026-03-27T10:07:12Z</time></trkpt><trkpt lat="48.21062982920448" lon="11.621267521707544"><ele>494.99999999999994</ele><time>2026-03-27T10:07:13Z</time></trkpt><trkpt lat="48.21064855318553" lon="11.621156755053237"><ele>494.99999999999994</ele><time>2026-03-27T10:07:14Z</time></trkpt><trkpt lat="48.21064646730033" lon="11.621049081389845"><ele>495.0</ele><time>2026-03-27T10:07:15Z</time></trkpt><trkpt lat="48.210629370664684" lon="11.620950378964531"><ele>494.99999999999994</ele><time>2026-03-27T10:07:16Z</time></trkpt><trkpt lat="48.2105911625524" lon="11.620857902201339"><ele>494.99999999999994</ele><time>2026-03-27T10:07:17Z</time></trkpt><trkpt lat="48.21053593445248" lon="11.620780023387834"><ele>495.0</ele><time>2026-03-27T10:07:18Z</time></trkpt><trkpt lat="48.21046675210647" lon="11.620721313140345"><ele>495.0</ele><time>2026-03-27T10:07:19Z</time></trkpt><trkpt lat="48.21039739758318" lon="11.620687345432684"><ele>495.0</ele><time>2026-03-27T10:07:20Z</time></trkpt><trkpt lat="48.21033000511488" lon="11.620646811887477"><ele>495.0</ele><time>2026-03-27T10:07:21Z</time></trkpt><trkpt lat="48.21025846702822" lon="11.620593296890853"><ele>495.0</ele><time>2026-03-27T10:07:22Z</time></trkpt><trkpt lat="48.210182447553784" lon="11.620531013712665"><ele>495.0</ele><time>2026-03-27T10:07:23Z</time></trkpt><trkpt lat="48.21010454539567" lon="11.620464276669797"><ele>495.0</ele><time>2026-03-27T10:07:24Z</time></trkpt><trkpt lat="48.2100277437285" lon="11.620397423792467"><ele>495.0</ele><time>2026-03-27T10:07:25Z</time></trkpt><trkpt lat="48.20995130079788" lon="11.620331466511997"><ele>495.0</ele><time>2026-03-27T10:07:26Z</time></trkpt><trkpt lat="48.20987281394671" lon="11.620261391518763"><ele>495.0</ele><time>2026-03-27T10:07:27Z</time></trkpt><trkpt lat="48.209792115626335" lon="11.620189014090835"><ele>495.0</ele><time>2026-03-27T10:07:28Z</time></trkpt><trkpt lat="48.20970797396694" lon="11.620116344471683"><ele>494.6</ele><time>2026-03-27T10:07:29Z</time></trkpt><trkpt lat="48.209628024926474" lon="11.620046935523034"><ele>494.2</ele><time>2026-03-27T10:07:30Z</time></trkpt><trkpt lat="48.20955539518616" lon="11.619982695739687"><ele>493.79999999999995</ele><time>2026-03-27T10:07:31Z</time></trkpt><trkpt lat="48.20948115196324" lon="11.619915967558388"><ele>493.4</ele><time>2026-03-27T10:07:32Z</time></trkpt><trkpt lat="48.209395737225286" lon="11.61985090511253"><ele>493.0</ele><time>2026-03-27T10:07:33Z</time></trkpt><trkpt lat="48.209306259073784" lon="11.61978009923569"><ele>493.0</ele><time>2026-03-27T10:07:34Z</time></trkpt><trkpt lat="48.20922256425766" lon="11.619710405601312"><ele>492.99999999999994</ele><time>2026-03-27T10:07:35Z</time></trkpt><trkpt lat="48.209138285777335" lon="11.619643272911672"><ele>492.99999999999994</ele><time>2026-03-27T10:07:36Z</time></trkpt><trkpt lat="48.2090548699754" lon="11.619574965717971"><ele>493.0</ele><time>2026-03-27T10:07:37Z</time></trkpt><trkpt lat="48.20896952767902" lon="11.619505639407443"><ele>493.0</ele><time>2026-03-27T10:07:38Z</time></trkpt><trkpt lat="48.20887840510323" lon="11.619438145104224"><ele>493.0</ele><time>2026-03-27T10:07:39Z</time></trkpt><trkpt lat="48.20878182786815" lon="11.619368701729659"><ele>492.99999999999994</ele><time>2026-03-27T10:07:40Z</time></trkpt><trkpt lat="48.208686340542826" lon="11.61930046447809"><ele>492.99999999999994</ele><time>2026-03-27T10:07:41Z</time></trkpt><trkpt lat="48.208596772108095" lon="11.619236094874774"><ele>493.0</ele><time>2026-03-27T10:07:42Z</time></trkpt><trkpt lat="48.20850621412956" lon="11.619175418197294"><ele>493.0</ele><time>2026-03-27T10:07:43Z</time></trkpt><trkpt lat="48.20841160516151" lon="11.619116119258274"><ele>493.0</ele><time>2026-03-27T10:07:43.999Z</time></trkpt><trkpt lat="48.2083177277638" lon="11.619051175130082"><ele>492.99999999999994</ele><time>2026-03-27T10:07:44.999Z</time></trkpt><trkpt lat="48.20822479616905" lon="11.61898862821072"><ele>492.99999999999994</ele><time>2026-03-27T10:07:45.999Z</time></trkpt><trkpt lat="48.20812991621932" lon="11.61892572965872"><ele>493.0</ele><time>2026-03-27T10:07:46.999Z</time></trkpt><trkpt lat="48.20803363075249" lon="11.618864230664043"><ele>493.0</ele><time>2026-03-27T10:07:47.999Z</time></trkpt><trkpt lat="48.207939784073766" lon="11.61880729511674"><ele>493.1666666666667</ele><time>2026-03-27T10:07:48.999Z</time></trkpt><trkpt lat="48.207853712502406" lon="11.618752556101928"><ele>493.33333333333337</ele><time>2026-03-27T10:07:49.999Z</time></trkpt><trkpt lat="48.207774751738974" lon="11.618701136260738"><ele>493.5</ele><time>2026-03-27T10:07:50.999Z</time></trkpt><trkpt lat="48.20769470039768" lon="11.618654838727545"><ele>493.66666666666663</ele><time>2026-03-27T10:07:51.999Z</time></trkpt><trkpt lat="48.207615248529855" lon="11.618609980942773"><ele>493.8333333333333</ele><time>2026-03-27T10:07:52.999Z</time></trkpt><trkpt lat="48.20753598004013" lon="11.61856950273152"><ele>494.0</ele><time>2026-03-27T10:07:53.999Z</time></trkpt><trkpt lat="48.20745514884314" lon="11.618541816480114"><ele>493.99999999999994</ele><time>2026-03-27T10:07:54.999Z</time></trkpt><trkpt lat="48.20738084646995" lon="11.618533831783171"><ele>494.0</ele><time>2026-03-27T10:07:55.999Z</time></trkpt><trkpt lat="48.207317726780296" lon="11.618537988692145"><ele>494.0</ele><time>2026-03-27T10:07:56.999Z</time></trkpt><trkpt lat="48.207254162138156" lon="11.618539962546338"><ele>494.0</ele><time>2026-03-27T10:07:57.999Z</time></trkpt><trkpt lat="48.20715908441567" lon="11.618609346872667"><ele>493.99999999999994</ele><time>2026-03-27T10:07:59.999Z</time></trkpt><trkpt lat="48.207082364454685" lon="11.618437130178023"><ele>494.0</ele><time>2026-03-27T10:08:00.999Z</time></trkpt><trkpt lat="48.2070279108653" lon="11.618389303944811"><ele>494.4</ele><time>2026-03-27T10:08:01.999Z</time></trkpt><trkpt lat="48.206979721825974" lon="11.618322797374844"><ele>494.79999999999995</ele><time>2026-03-27T10:08:02.999Z</time></trkpt><trkpt lat="48.2068763984519" lon="11.618280144072703"><ele>495.20000000000005</ele><time>2026-03-27T10:08:04.999Z</time></trkpt><trkpt lat="48.20676743516096" lon="11.618240460873192"><ele>495.6</ele><time>2026-03-27T10:08:06.999Z</time></trkpt><trkpt lat="48.206643330704125" lon="11.618195263435386"><ele>496.0</ele><time>2026-03-27T10:08:08.999Z</time></trkpt><trkpt lat="48.206525136132655" lon="11.618146734411983"><ele>497.0</ele><time>2026-03-27T10:08:10.999Z</time></trkpt><trkpt lat="48.20641573074522" lon="11.618096510430869"><ele>498.0</ele><time>2026-03-27T10:08:12.999Z</time></trkpt><trkpt lat="48.20630785949804" lon="11.618052529457469"><ele>499.0</ele><time>2026-03-27T10:08:14.999Z</time></trkpt><trkpt lat="48.20618386194049" lon="11.618001879702197"><ele>500.0</ele><time>2026-03-27T10:08:16.999Z</time></trkpt><trkpt lat="48.20606286037375" lon="11.61795392547058"><ele>500.0</ele><time>2026-03-27T10:08:18.999Z</time></trkpt><trkpt lat="48.2059455821793" lon="11.61790716426631"><ele>500.0</ele><time>2026-03-27T10:08:20.999Z</time></trkpt><trkpt lat="48.20583723343726" lon="11.61786013840831"><ele>500.0</ele><time>2026-03-27T10:08:22.999Z</time></trkpt><trkpt lat="48.20572020448856" lon="11.617820350912767"><ele>500.0</ele><time>2026-03-27T10:08:24.999Z</time></trkpt><trkpt lat="48.20564679427097" lon="11.61782331154237"><ele>500.0</ele><time>2026-03-27T10:08:25.999Z</time></trkpt><trkpt lat="48.20557407651481" lon="11.61785427630358"><ele>500.0</ele><time>2026-03-27T10:08:26.999Z</time></trkpt><trkpt lat="48.20550489763294" lon="11.61783864042572"><ele>500.0</ele><time>2026-03-27T10:08:27.999Z</time></trkpt><trkpt lat="48.20544065817945" lon="11.617820281094406"><ele>500.0</ele><time>2026-03-27T10:08:28.999Z</time></trkpt><trkpt lat="48.20537638848569" lon="11.61779752089453"><ele>500.0</ele><time>2026-03-27T10:08:29.999Z</time></trkpt><trkpt lat="48.20531188056553" lon="11.617776746725076"><ele>500.0</ele><time>2026-03-27T10:08:30.999Z</time></trkpt><trkpt lat="48.20524463539048" lon="11.617753331659182"><ele>500.0</ele><time>2026-03-27T10:08:31.999Z</time></trkpt><trkpt lat="48.20517634480642" lon="11.617725640820305"><ele>500.0</ele><time>2026-03-27T10:08:32.999Z</time></trkpt><trkpt lat="48.20510590412997" lon="11.61770071156859"><ele>500.0</ele><time>2026-03-27T10:08:33.999Z</time></trkpt><trkpt lat="48.205036387897124" lon="11.617676960933636"><ele>500.0</ele><time>2026-03-27T10:08:34.999Z</time></trkpt><trkpt lat="48.204930177355436" lon="11.617628103044686"><ele>500.0</ele><time>2026-03-27T10:08:36.999Z</time></trkpt><trkpt lat="48.204815837366084" lon="11.617584729266442"><ele>500.0</ele><time>2026-03-27T10:08:38.999Z</time></trkpt><trkpt lat="48.20472748471673" lon="11.61754421968922"><ele>500.0</ele><time>2026-03-27T10:08:40.999Z</time></trkpt><trkpt lat="48.20463965541002" lon="11.617572847335337"><ele>500.2</ele><time>2026-03-27T10:08:42.999Z</time></trkpt><trkpt lat="48.20458485485399" lon="11.617729038886578"><ele>500.4</ele><time>2026-03-27T10:08:44.999Z</time></trkpt><trkpt lat="48.20456702775049" lon="11.61782785894667"><ele>500.6</ele><time>2026-03-27T10:08:46Z</time></trkpt><trkpt lat="48.20453429571601" lon="11.617992816029679"><ele>500.8</ele><time>2026-03-27T10:08:48Z</time></trkpt><trkpt lat="48.20449823731021" lon="11.618140086090909"><ele>501.0</ele><time>2026-03-27T10:08:50Z</time></trkpt><trkpt lat="48.2044550467657" lon="11.61831638215312"><ele>501.0</ele><time>2026-03-27T10:08:52Z</time></trkpt><trkpt lat="48.20440755271712" lon="11.61848026460993"><ele>501.0</ele><time>2026-03-27T10:08:54Z</time></trkpt><trkpt lat="48.20437645164679" lon="11.618575096239836"><ele>501.0</ele><time>2026-03-27T10:08:56Z</time></trkpt><trkpt lat="48.20433747843209" lon="11.618718365816543"><ele>501.0</ele><time>2026-03-27T10:08:59Z</time></trkpt><trkpt lat="48.204337036125146" lon="11.618896659013137"><ele>501.0</ele><time>2026-03-27T10:09:01Z</time></trkpt><trkpt lat="48.20437626788249" lon="11.61903941771166"><ele>500.5</ele><time>2026-03-27T10:09:03Z</time></trkpt><trkpt lat="48.204419646022124" lon="11.61914533733114"><ele>500.0</ele><time>2026-03-27T10:09:05Z</time></trkpt><trkpt lat="48.20446026800336" lon="11.619273039895056"><ele>499.5</ele><time>2026-03-27T10:09:07Z</time></trkpt><trkpt lat="48.20453301370336" lon="11.6192837828773"><ele>499.0</ele><time>2026-03-27T10:09:09Z</time></trkpt><trkpt lat="48.204649373012906" lon="11.619219293416391"><ele>498.5</ele><time>2026-03-27T10:09:11Z</time></trkpt><trkpt lat="48.20471683907678" lon="11.619249443766922"><ele>498.0</ele><time>2026-03-27T10:09:12Z</time></trkpt><trkpt lat="48.204782859966436" lon="11.619297405858196"><ele>497.85714285714283</ele><time>2026-03-27T10:09:13Z</time></trkpt><trkpt lat="48.2048552063165" lon="11.619321916427271"><ele>497.71428571428567</ele><time>2026-03-27T10:09:14Z</time></trkpt><trkpt lat="48.204924617487414" lon="11.61935199061067"><ele>497.57142857142856</ele><time>2026-03-27T10:09:15Z</time></trkpt><trkpt lat="48.20498766970567" lon="11.619383541214665"><ele>497.42857142857144</ele><time>2026-03-27T10:09:16Z</time></trkpt><trkpt lat="48.20505219622608" lon="11.619408310719141"><ele>497.2857142857143</ele><time>2026-03-27T10:09:17Z</time></trkpt><trkpt lat="48.20512071422496" lon="11.619433446021638"><ele>497.1428571428571</ele><time>2026-03-27T10:09:18Z</time></trkpt><trkpt lat="48.20518737265779" lon="11.619464014668896"><ele>497.0</ele><time>2026-03-27T10:09:19Z</time></trkpt><trkpt lat="48.20525908864469" lon="11.619496787699294"><ele>496.7142857142857</ele><time>2026-03-27T10:09:20Z</time></trkpt><trkpt lat="48.2053343521732" lon="11.6195345635339"><ele>496.42857142857144</ele><time>2026-03-27T10:09:21Z</time></trkpt><trkpt lat="48.20541119804353" lon="11.6195705129555"><ele>496.1428571428571</ele><time>2026-03-27T10:09:22Z</time></trkpt><trkpt lat="48.20547884073262" lon="11.619605450601414"><ele>495.85714285714283</ele><time>2026-03-27T10:09:23Z</time></trkpt><trkpt lat="48.20554655110114" lon="11.619641206054279"><ele>495.57142857142856</ele><time>2026-03-27T10:09:24Z</time></trkpt><trkpt lat="48.205613260263455" lon="11.619678100821167"><ele>495.2857142857142</ele><time>2026-03-27T10:09:25Z</time></trkpt><trkpt lat="48.20567641491929" lon="11.61971615547017"><ele>494.99999999999994</ele><time>2026-03-27T10:09:26Z</time></trkpt><trkpt lat="48.2057373609014" lon="11.619753317140528"><ele>495.0</ele><time>2026-03-27T10:09:27Z</time></trkpt><trkpt lat="48.20579922878954" lon="11.619795061701343"><ele>495.0</ele><time>2026-03-27T10:09:28Z</time></trkpt><trkpt lat="48.20591383226981" lon="11.619857817701648"><ele>495.0</ele><time>2026-03-27T10:09:30Z</time></trkpt><trkpt lat="48.2060406885101" lon="11.619819206385746"><ele>495.0</ele><time>2026-03-27T10:09:32Z</time></trkpt><trkpt lat="48.20609266123783" lon="11.619740833737202"><ele>495.0</ele><time>2026-03-27T10:09:33Z</time></trkpt><trkpt lat="48.20612597486376" lon="11.619639417237428"><ele>494.99999999999994</ele><time>2026-03-27T10:09:34Z</time></trkpt><trkpt lat="48.20614741515501" lon="11.619531676234784"><ele>495.0</ele><time>2026-03-27T10:09:35Z</time></trkpt><trkpt lat="48.20616569821578" lon="11.61942443559985"><ele>494.99999999999994</ele><time>2026-03-27T10:09:36Z</time></trkpt><trkpt lat="48.20618462209987" lon="11.619319861791185"><ele>494.99999999999994</ele><time>2026-03-27T10:09:37Z</time></trkpt><trkpt lat="48.206205184580824" lon="11.619212813153466"><ele>495.0</ele><time>2026-03-27T10:09:38Z</time></trkpt><trkpt lat="48.20622738678745" lon="11.619106884729785"><ele>494.99999999999994</ele><time>2026-03-27T10:09:39Z</time></trkpt><trkpt lat="48.206248658847585" lon="11.619003406511077"><ele>494.99999999999994</ele><time>2026-03-27T10:09:40Z</time></trkpt><trkpt lat="48.20626662224955" lon="11.618900087660199"><ele>495.42857142857133</ele><time>2026-03-27T10:09:41Z</time></trkpt><trkpt lat="48.206286258040855" lon="11.61880460995752"><ele>495.85714285714283</ele><time>2026-03-27T10:09:42Z</time></trkpt><trkpt lat="48.20630501939777" lon="11.618714332423835"><ele>496.2857142857142</ele><time>2026-03-27T10:09:43Z</time></trkpt><trkpt lat="48.206321106469304" lon="11.618614388110402"><ele>496.71428571428567</ele><time>2026-03-27T10:09:44Z</time></trkpt><trkpt lat="48.20633279541945" lon="11.61851235193775"><ele>497.1428571428571</ele><time>2026-03-27T10:09:45Z</time></trkpt><trkpt lat="48.20635291435854" lon="11.618365050460294"><ele>497.57142857142856</ele><time>2026-03-27T10:09:47Z</time></trkpt><trkpt lat="48.20637815953263" lon="11.618258271626779"><ele>498.0</ele><time>2026-03-27T10:09:49Z</time></trkpt><trkpt lat="48.206470700681194" lon="11.618205423731066"><ele>497.59999999999997</ele><time>2026-03-27T10:09:51Z</time></trkpt><trkpt lat="48.206594699923855" lon="11.618231453884471"><ele>497.19999999999993</ele><time>2026-03-27T10:09:53Z</time></trkpt><trkpt lat="48.20670683222189" lon="11.618270349591855"><ele>496.8</ele><time>2026-03-27T10:09:55Z</time></trkpt><trkpt lat="48.206830891307746" lon="11.618315899901404"><ele>496.4</ele><time>2026-03-27T10:09:56.999Z</time></trkpt><trkpt lat="48.20689402904525" lon="11.618342470896593"><ele>496.0</ele><time>2026-03-27T10:09:57.999Z</time></trkpt><trkpt lat="48.20698753130229" lon="11.61839663562157"><ele>496.0</ele><time>2026-03-27T10:09:59.999Z</time></trkpt><trkpt lat="48.207040442476256" lon="11.618490339041474"><ele>496.0</ele><time>2026-03-27T10:10:01.999Z</time></trkpt><trkpt lat="48.207096135290506" lon="11.618598778378685"><ele>496.0</ele><time>2026-03-27T10:10:03.999Z</time></trkpt><trkpt lat="48.20702835187519" lon="11.618718363572398"><ele>496.0</ele><time>2026-03-27T10:10:04.999Z</time></trkpt><trkpt lat="48.2069829236188" lon="11.618797163523928"><ele>496.0</ele><time>2026-03-27T10:10:05.999Z</time></trkpt><trkpt lat="48.20691644654382" lon="11.618957455630568"><ele>495.6</ele><time>2026-03-27T10:10:07.999Z</time></trkpt><trkpt lat="48.20688582834554" lon="11.619059681984705"><ele>495.20000000000005</ele><time>2026-03-27T10:10:08.999Z</time></trkpt><trkpt lat="48.20684928066196" lon="11.619178213001057"><ele>494.79999999999995</ele><time>2026-03-27T10:10:09.999Z</time></trkpt><trkpt lat="48.20680841762483" lon="11.619307868203142"><ele>494.4</ele><time>2026-03-27T10:10:10.999Z</time></trkpt><trkpt lat="48.20675961304739" lon="11.619446347503077"><ele>494.0</ele><time>2026-03-27T10:10:11.999Z</time></trkpt><trkpt lat="48.206698859208544" lon="11.619582206570158"><ele>494.0</ele><time>2026-03-27T10:10:12.999Z</time></trkpt><trkpt lat="48.20663216085744" lon="11.619716012274234"><ele>494.0</ele><time>2026-03-27T10:10:13.999Z</time></trkpt><trkpt lat="48.20656638656279" lon="11.619852895473983"><ele>494.0</ele><time>2026-03-27T10:10:14.999Z</time></trkpt><trkpt lat="48.206495343420656" lon="11.619998572451815"><ele>494.0</ele><time>2026-03-27T10:10:15.999Z</time></trkpt><trkpt lat="48.20642270912457" lon="11.62013932147497"><ele>494.25</ele><time>2026-03-27T10:10:16.999Z</time></trkpt><trkpt lat="48.20634251541612" lon="11.620279803420216"><ele>494.5</ele><time>2026-03-27T10:10:17.999Z</time></trkpt><trkpt lat="48.20625194492898" lon="11.620411171934007"><ele>494.75</ele><time>2026-03-27T10:10:18.999Z</time></trkpt><trkpt lat="48.206150829217485" lon="11.620531463953848"><ele>495.0</ele><time>2026-03-27T10:10:19.999Z</time></trkpt><trkpt lat="48.206041488588056" lon="11.620636854277874"><ele>495.25</ele><time>2026-03-27T10:10:20.999Z</time></trkpt><trkpt lat="48.205921583892916" lon="11.620726412430395"><ele>495.5</ele><time>2026-03-27T10:10:21.999Z</time></trkpt><trkpt lat="48.20579021534211" lon="11.620806509358069"><ele>495.75</ele><time>2026-03-27T10:10:22.999Z</time></trkpt><trkpt lat="48.20564249702119" lon="11.620880729282124"><ele>496.0</ele><time>2026-03-27T10:10:23.999Z</time></trkpt><trkpt lat="48.205493657648816" lon="11.6209344996663"><ele>496.0</ele><time>2026-03-27T10:10:24.999Z</time></trkpt><trkpt lat="48.205348442579016" lon="11.620966664492789"><ele>496.0</ele><time>2026-03-27T10:10:25.999Z</time></trkpt><trkpt lat="48.205193218693736" lon="11.620976100483935"><ele>496.0</ele><time>2026-03-27T10:10:26.999Z</time></trkpt><trkpt lat="48.20502878092158" lon="11.620958608579308"><ele>496.0</ele><time>2026-03-27T10:10:27.999Z</time></trkpt><trkpt lat="48.2048590059134" lon="11.620912608841646"><ele>496.0</ele><time>2026-03-27T10:10:28.999Z</time></trkpt><trkpt lat="48.20469560294869" lon="11.620846737240095"><ele>496.0</ele><time>2026-03-27T10:10:29.999Z</time></trkpt><trkpt lat="48.20454377086474" lon="11.62077296410286"><ele>496.0</ele><time>2026-03-27T10:10:30.999Z</time></trkpt><trkpt lat="48.20438678817001" lon="11.620694092345156"><ele>496.0</ele><time>2026-03-27T10:10:31.999Z</time></trkpt><trkpt lat="48.20422748585806" lon="11.620613692157637"><ele>496.0</ele><time>2026-03-27T10:10:32.999Z</time></trkpt><trkpt lat="48.20406383017673" lon="11.620534400034254"><ele>496.33333333333337</ele><time>2026-03-27T10:10:33.999Z</time></trkpt><trkpt lat="48.20388862386735" lon="11.620438033915011"><ele>496.66666666666663</ele><time>2026-03-27T10:10:34.999Z</time></trkpt><trkpt lat="48.203709547308314" lon="11.620359922754568"><ele>497.0</ele><time>2026-03-27T10:10:35.999Z</time></trkpt><trkpt lat="48.203529662514036" lon="11.620275012547536"><ele>497.3333333333333</ele><time>2026-03-27T10:10:36.999Z</time></trkpt><trkpt lat="48.20335395162203" lon="11.620192879110753"><ele>497.66666666666663</ele><time>2026-03-27T10:10:37.999Z</time></trkpt><trkpt lat="48.20318230071653" lon="11.620111385506704"><ele>498.0</ele><time>2026-03-27T10:10:38.999Z</time></trkpt><trkpt lat="48.20301072517127" lon="11.62002669276564"><ele>496.66666666666663</ele><time>2026-03-27T10:10:39.999Z</time></trkpt><trkpt lat="48.202834170540704" lon="11.619949417711277"><ele>495.3333333333333</ele><time>2026-03-27T10:10:40.999Z</time></trkpt><trkpt lat="48.20265046359554" lon="11.619872423598201"><ele>494.0</ele><time>2026-03-27T10:10:41.999Z</time></trkpt><trkpt lat="48.202477228754056" lon="11.619793213516763"><ele>494.0</ele><time>2026-03-27T10:10:42.999Z</time></trkpt><trkpt lat="48.20231082804399" lon="11.619714113166246"><ele>494.0</ele><time>2026-03-27T10:10:43.999Z</time></trkpt><trkpt lat="48.202140217232746" lon="11.619631119691613"><ele>494.0</ele><time>2026-03-27T10:10:44.999Z</time></trkpt><trkpt lat="48.20196794777279" lon="11.619543861104015"><ele>494.66666666666663</ele><time>2026-03-27T10:10:45.999Z</time></trkpt><trkpt lat="48.20179129827386" lon="11.61945952938546"><ele>495.33333333333337</ele><time>2026-03-27T10:10:46.999Z</time></trkpt><trkpt lat="48.201612421877776" lon="11.619380185353833"><ele>496.0</ele><time>2026-03-27T10:10:47.999Z</time></trkpt><trkpt lat="48.20143128339421" lon="11.61930130971185"><ele>496.33333333333337</ele><time>2026-03-27T10:10:48.999Z</time></trkpt><trkpt lat="48.2012447022578" lon="11.619219807587086"><ele>496.66666666666663</ele><time>2026-03-27T10:10:49.999Z</time></trkpt><trkpt lat="48.20106014405871" lon="11.619134652893235"><ele>497.0</ele><time>2026-03-27T10:10:51Z</time></trkpt><trkpt lat="48.20087737649318" lon="11.619043902892443"><ele>497.0</ele><time>2026-03-27T10:10:52Z</time></trkpt><trkpt lat="48.20070029143784" lon="11.618955918573102"><ele>497.0</ele><time>2026-03-27T10:10:53Z</time></trkpt><trkpt lat="48.20052782893298" lon="11.618870670041904"><ele>497.0</ele><time>2026-03-27T10:10:54Z</time></trkpt><trkpt lat="48.20035209335295" lon="11.6187830699052"><ele>497.0</ele><time>2026-03-27T10:10:55Z</time></trkpt><trkpt lat="48.20017128521067" lon="11.6186951685024"><ele>497.0</ele><time>2026-03-27T10:10:56Z</time></trkpt><trkpt lat="48.19998667447833" lon="11.618604462594726"><ele>497.0</ele><time>2026-03-27T10:10:57Z</time></trkpt><trkpt lat="48.199801816931256" lon="11.618513737692023"><ele>496.3333333333333</ele><time>2026-03-27T10:10:58Z</time></trkpt><trkpt lat="48.19963424334866" lon="11.61843076952052"><ele>495.66666666666663</ele><time>2026-03-27T10:10:59Z</time></trkpt><trkpt lat="48.19946467945368" lon="11.618343993872617"><ele>495.0</ele><time>2026-03-27T10:11:00Z</time></trkpt><trkpt lat="48.199296148545834" lon="11.618259966156884"><ele>495.0</ele><time>2026-03-27T10:11:01Z</time></trkpt><trkpt lat="48.19912557336886" lon="11.618177379962718"><ele>495.0</ele><time>2026-03-27T10:11:02Z</time></trkpt><trkpt lat="48.19895517976998" lon="11.618094976442412"><ele>495.0</ele><time>2026-03-27T10:11:03Z</time></trkpt><trkpt lat="48.19878622117853" lon="11.618011227383798"><ele>495.0</ele><time>2026-03-27T10:11:04Z</time></trkpt><trkpt lat="48.198617851007754" lon="11.617930275889185"><ele>495.0</ele><time>2026-03-27T10:11:05Z</time></trkpt><trkpt lat="48.1984502906176" lon="11.617849802304857"><ele>495.0</ele><time>2026-03-27T10:11:06Z</time></trkpt><trkpt lat="48.198282706499015" lon="11.617771451488846"><ele>496.0</ele><time>2026-03-27T10:11:07Z</time></trkpt><trkpt lat="48.19811411400126" lon="11.61769137692693"><ele>497.0</ele><time>2026-03-27T10:11:08Z</time></trkpt><trkpt lat="48.19794558632499" lon="11.617607035254704"><ele>498.0</ele><time>2026-03-27T10:11:09Z</time></trkpt><trkpt lat="48.19777613646601" lon="11.617525735008746"><ele>498.0</ele><time>2026-03-27T10:11:10Z</time></trkpt><trkpt lat="48.1976047563162" lon="11.617441819828679"><ele>498.0</ele><time>2026-03-27T10:11:11Z</time></trkpt><trkpt lat="48.197430483538014" lon="11.617360854279447"><ele>498.0</ele><time>2026-03-27T10:11:12Z</time></trkpt><trkpt lat="48.1972578040364" lon="11.617275620713237"><ele>499.0</ele><time>2026-03-27T10:11:13Z</time></trkpt><trkpt lat="48.197083219895056" lon="11.617189666080124"><ele>500.0</ele><time>2026-03-27T10:11:14Z</time></trkpt><trkpt lat="48.19690613428271" lon="11.617104779428606"><ele>501.0</ele><time>2026-03-27T10:11:15Z</time></trkpt><trkpt lat="48.19672900484186" lon="11.617016868735545"><ele>501.33333333333337</ele><time>2026-03-27T10:11:16Z</time></trkpt><trkpt lat="48.19654959406273" lon="11.616929920265292"><ele>501.6666666666667</ele><time>2026-03-27T10:11:17Z</time></trkpt><trkpt lat="48.19636803906933" lon="11.616841936275037"><ele>502.0</ele><time>2026-03-27T10:11:18Z</time></trkpt><trkpt lat="48.19618851001883" lon="11.616754492843175"><ele>501.33333333333337</ele><time>2026-03-27T10:11:19Z</time></trkpt><trkpt lat="48.19601237035708" lon="11.616666843680061"><ele>500.66666666666663</ele><time>2026-03-27T10:11:20Z</time></trkpt><trkpt lat="48.195842308080266" lon="11.61658438300414"><ele>500.0</ele><time>2026-03-27T10:11:21Z</time></trkpt><trkpt lat="48.19567891795564" lon="11.61650556501845"><ele>499.75</ele><time>2026-03-27T10:11:22Z</time></trkpt><trkpt lat="48.19553016370643" lon="11.61642913126073"><ele>499.5</ele><time>2026-03-27T10:11:23Z</time></trkpt><trkpt lat="48.195395641008616" lon="11.616363286638515"><ele>499.25</ele><time>2026-03-27T10:11:24Z</time></trkpt><trkpt lat="48.195276454174795" lon="11.616303433494629"><ele>499.0</ele><time>2026-03-27T10:11:25Z</time></trkpt><trkpt lat="48.195165961652876" lon="11.616248013097586"><ele>499.00000000000006</ele><time>2026-03-27T10:11:26Z</time></trkpt><trkpt lat="48.19506652589635" lon="11.616198333937318"><ele>499.0</ele><time>2026-03-27T10:11:27Z</time></trkpt><trkpt lat="48.194978276515045" lon="11.6161565013067"><ele>499.0</ele><time>2026-03-27T10:11:28Z</time></trkpt><trkpt lat="48.19490218048329" lon="11.61611924903458"><ele>499.0</ele><time>2026-03-27T10:11:29Z</time></trkpt><trkpt lat="48.194831336670966" lon="11.616086208784864"><ele>499.00000000000006</ele><time>2026-03-27T10:11:30Z</time></trkpt><trkpt lat="48.19476255453407" lon="11.616054666061169"><ele>499.0</ele><time>2026-03-27T10:11:31Z</time></trkpt><trkpt lat="48.19469577960644" lon="11.616025027299555"><ele>499.00000000000006</ele><time>2026-03-27T10:11:32Z</time></trkpt><trkpt lat="48.194633418547696" lon="11.615996358438737"><ele>499.0</ele><time>2026-03-27T10:11:33Z</time></trkpt><trkpt lat="48.194573496243514" lon="11.615963464896684"><ele>499.0</ele><time>2026-03-27T10:11:34Z</time></trkpt><trkpt lat="48.19450704565677" lon="11.615929507910899"><ele>499.0</ele><time>2026-03-27T10:11:35Z</time></trkpt><trkpt lat="48.19443355011104" lon="11.615891251140875"><ele>499.00000000000006</ele><time>2026-03-27T10:11:36Z</time></trkpt><trkpt lat="48.19435079442458" lon="11.615852212398933"><ele>499.0</ele><time>2026-03-27T10:11:37Z</time></trkpt><trkpt lat="48.19426353648931" lon="11.615804686049993"><ele>499.00000000000006</ele><time>2026-03-27T10:11:38Z</time></trkpt><trkpt lat="48.19418825053154" lon="11.615764184379113"><ele>499.0</ele><time>2026-03-27T10:11:39Z</time></trkpt><trkpt lat="48.194115422660445" lon="11.615726101116088"><ele>499.00000000000006</ele><time>2026-03-27T10:11:40Z</time></trkpt><trkpt lat="48.19404187993127" lon="11.615692471507652"><ele>499.00000000000006</ele><time>2026-03-27T10:11:41Z</time></trkpt><trkpt lat="48.19397268123467" lon="11.615658499332909"><ele>499.0</ele><time>2026-03-27T10:11:42Z</time></trkpt><trkpt lat="48.193906640582675" lon="11.61562580852645"><ele>499.00000000000006</ele><time>2026-03-27T10:11:43Z</time></trkpt><trkpt lat="48.19384227714615" lon="11.615594378539335"><ele>499.00000000000006</ele><time>2026-03-27T10:11:44Z</time></trkpt><trkpt lat="48.193779716658725" lon="11.615565854862831"><ele>498.83333333333337</ele><time>2026-03-27T10:11:45Z</time></trkpt><trkpt lat="48.19371248534236" lon="11.615533172803037"><ele>498.6666666666667</ele><time>2026-03-27T10:11:46Z</time></trkpt><trkpt lat="48.19363854188028" lon="11.615497285321721"><ele>498.5</ele><time>2026-03-27T10:11:47Z</time></trkpt><trkpt lat="48.19355413843232" lon="11.615464508481475"><ele>498.33333333333337</ele><time>2026-03-27T10:11:48Z</time></trkpt><trkpt lat="48.19347025557007" lon="11.615427052685789"><ele>498.1666666666667</ele><time>2026-03-27T10:11:49Z</time></trkpt><trkpt lat="48.19338458784069" lon="11.615382147936232"><ele>498.0</ele><time>2026-03-27T10:11:50Z</time></trkpt><trkpt lat="48.193294618544954" lon="11.615339660364498"><ele>498.2</ele><time>2026-03-27T10:11:51Z</time></trkpt><trkpt lat="48.19320416103162" lon="11.615294113816573"><ele>498.4</ele><time>2026-03-27T10:11:52Z</time></trkpt><trkpt lat="48.19311479061707" lon="11.615249170253447"><ele>498.59999999999997</ele><time>2026-03-27T10:11:53Z</time></trkpt><trkpt lat="48.19302644104361" lon="11.615204998258918"><ele>498.79999999999995</ele><time>2026-03-27T10:11:54Z</time></trkpt><trkpt lat="48.192940786971036" lon="11.615160324927974"><ele>499.0</ele><time>2026-03-27T10:11:55Z</time></trkpt><trkpt lat="48.192854304406566" lon="11.615121351620756"><ele>498.6</ele><time>2026-03-27T10:11:56Z</time></trkpt><trkpt lat="48.192769260056195" lon="11.6150769423764"><ele>498.2</ele><time>2026-03-27T10:11:57Z</time></trkpt><trkpt lat="48.19268184720619" lon="11.615035977827823"><ele>497.80000000000007</ele><time>2026-03-27T10:11:58Z</time></trkpt><trkpt lat="48.19259025185326" lon="11.614990446376705"><ele>497.40000000000003</ele><time>2026-03-27T10:11:59Z</time></trkpt><trkpt lat="48.192494620466164" lon="11.61493787617734"><ele>497.0</ele><time>2026-03-27T10:12:00Z</time></trkpt><trkpt lat="48.19238700599846" lon="11.6148815830373"><ele>497.20000000000005</ele><time>2026-03-27T10:12:01Z</time></trkpt><trkpt lat="48.19227008149425" lon="11.614822768552946"><ele>497.40000000000003</ele><time>2026-03-27T10:12:02Z</time></trkpt><trkpt lat="48.19216052882233" lon="11.61477202437852"><ele>497.59999999999997</ele><time>2026-03-27T10:12:03Z</time></trkpt><trkpt lat="48.19206021223099" lon="11.614721041818784"><ele>497.79999999999995</ele><time>2026-03-27T10:12:04Z</time></trkpt><trkpt lat="48.191963757902414" lon="11.614671025136255"><ele>498.0</ele><time>2026-03-27T10:12:05Z</time></trkpt><trkpt lat="48.19187024209824" lon="11.614623679757047"><ele>498.0</ele><time>2026-03-27T10:12:06Z</time></trkpt><trkpt lat="48.19178158553528" lon="11.614577558216782"><ele>497.99999999999994</ele><time>2026-03-27T10:12:07Z</time></trkpt><trkpt lat="48.19170000666588" lon="11.614537049483408"><ele>497.99999999999994</ele><time>2026-03-27T10:12:08Z</time></trkpt><trkpt lat="48.19163671190493" lon="11.614501788791845"><ele>498.0</ele><time>2026-03-27T10:12:09Z</time></trkpt><trkpt lat="48.19152918415936" lon="11.614444706589211"><ele>498.0</ele><time>2026-03-27T10:12:11Z</time></trkpt><trkpt lat="48.19143320544964" lon="11.614397896473031"><ele>498.3333333333333</ele><time>2026-03-27T10:12:13Z</time></trkpt><trkpt lat="48.191349319628685" lon="11.614354307069854"><ele>498.66666666666663</ele><time>2026-03-27T10:12:15Z</time></trkpt><trkpt lat="48.19124428409597" lon="11.614298207514569"><ele>499.0</ele><time>2026-03-27T10:12:17Z</time></trkpt><trkpt lat="48.19117683772025" lon="11.614263429012569"><ele>499.3333333333333</ele><time>2026-03-27T10:12:18Z</time></trkpt><trkpt lat="48.19110936007236" lon="11.614230511808325"><ele>499.66666666666663</ele><time>2026-03-27T10:12:19Z</time></trkpt><trkpt lat="48.19104490597582" lon="11.614197268427482"><ele>500.0</ele><time>2026-03-27T10:12:20Z</time></trkpt><trkpt lat="48.19098296751048" lon="11.614165680718237"><ele>500.0</ele><time>2026-03-27T10:12:21Z</time></trkpt><trkpt lat="48.19092133039196" lon="11.614132704381861"><ele>500.0</ele><time>2026-03-27T10:12:21.999Z</time></trkpt><trkpt lat="48.19085112511912" lon="11.614097214974468"><ele>500.0</ele><time>2026-03-27T10:12:22.999Z</time></trkpt><trkpt lat="48.19077105432082" lon="11.614054469600232"><ele>500.0</ele><time>2026-03-27T10:12:23.999Z</time></trkpt><trkpt lat="48.190698536572015" lon="11.614017066181308"><ele>500.0</ele><time>2026-03-27T10:12:24.999Z</time></trkpt><trkpt lat="48.19063491685523" lon="11.61398044782264"><ele>500.0</ele><time>2026-03-27T10:12:25.999Z</time></trkpt><trkpt lat="48.19056643120573" lon="11.613944841496362"><ele>500.0</ele><time>2026-03-27T10:12:26.999Z</time></trkpt><trkpt lat="48.190491156735966" lon="11.613906809450715"><ele>499.99999999999994</ele><time>2026-03-27T10:12:27.999Z</time></trkpt><trkpt lat="48.19042677011677" lon="11.613872404019686"><ele>500.0</ele><time>2026-03-27T10:12:28.999Z</time></trkpt><trkpt lat="48.19030834739981" lon="11.613809366619552"><ele>500.0</ele><time>2026-03-27T10:12:30.999Z</time></trkpt><trkpt lat="48.1902445613483" lon="11.61377351607595"><ele>500.0</ele><time>2026-03-27T10:12:31.999Z</time></trkpt><trkpt lat="48.19017944724224" lon="11.613737194777663"><ele>499.99999999999994</ele><time>2026-03-27T10:12:32.999Z</time></trkpt><trkpt lat="48.19011107328539" lon="11.613696365850235"><ele>500.0</ele><time>2026-03-27T10:12:33.999Z</time></trkpt><trkpt lat="48.1900331185147" lon="11.613649016532195"><ele>500.0</ele><time>2026-03-27T10:12:34.999Z</time></trkpt><trkpt lat="48.18993825785841" lon="11.613595864852755"><ele>500.0</ele><time>2026-03-27T10:12:35.999Z</time></trkpt><trkpt lat="48.189837267352814" lon="11.613535825042302"><ele>500.0</ele><time>2026-03-27T10:12:36.999Z</time></trkpt><trkpt lat="48.18974676222215" lon="11.613480944705048"><ele>500.0</ele><time>2026-03-27T10:12:37.999Z</time></trkpt><trkpt lat="48.189681846669636" lon="11.61343872634277"><ele>500.0</ele><time>2026-03-27T10:12:38.999Z</time></trkpt><trkpt lat="48.189609477027155" lon="11.61339653357819"><ele>499.8333333333333</ele><time>2026-03-27T10:12:39.999Z</time></trkpt><trkpt lat="48.18951938541018" lon="11.613348655936232"><ele>499.66666666666663</ele><time>2026-03-27T10:12:40.999Z</time></trkpt><trkpt lat="48.18944462260055" lon="11.61329970881638"><ele>499.5</ele><time>2026-03-27T10:12:41.999Z</time></trkpt><trkpt lat="48.189381000344135" lon="11.613256321053612"><ele>499.33333333333337</ele><time>2026-03-27T10:12:42.999Z</time></trkpt><trkpt lat="48.1893120334563" lon="11.61320936622456"><ele>499.1666666666667</ele><time>2026-03-27T10:12:43.999Z</time></trkpt><trkpt lat="48.189239557022844" lon="11.613162083236189"><ele>499.0</ele><time>2026-03-27T10:12:44.999Z</time></trkpt><trkpt lat="48.18916303933727" lon="11.613112003720165"><ele>499.00000000000006</ele><time>2026-03-27T10:12:45.999Z</time></trkpt><trkpt lat="48.18907638017845" lon="11.613059706141218"><ele>499.0</ele><time>2026-03-27T10:12:46.999Z</time></trkpt><trkpt lat="48.18899250398404" lon="11.613001130129106"><ele>499.0</ele><time>2026-03-27T10:12:47.999Z</time></trkpt><trkpt lat="48.18891107591296" lon="11.612940934958546"><ele>499.0</ele><time>2026-03-27T10:12:48.999Z</time></trkpt><trkpt lat="48.188829788234216" lon="11.612887135248103"><ele>499.00000000000006</ele><time>2026-03-27T10:12:49.999Z</time></trkpt><trkpt lat="48.188759193052285" lon="11.612832946114393"><ele>499.0</ele><time>2026-03-27T10:12:50.999Z</time></trkpt><trkpt lat="48.188685476899416" lon="11.612775340953341"><ele>499.00000000000006</ele><time>2026-03-27T10:12:51.999Z</time></trkpt><trkpt lat="48.18860794372925" lon="11.612715778650552"><ele>499.0</ele><time>2026-03-27T10:12:52.999Z</time></trkpt><trkpt lat="48.18852390161564" lon="11.612652984755027"><ele>499.0</ele><time>2026-03-27T10:12:53.999Z</time></trkpt><trkpt lat="48.188445054235515" lon="11.61258863952127"><ele>499.0</ele><time>2026-03-27T10:12:54.999Z</time></trkpt><trkpt lat="48.188373643657094" lon="11.612528173064138"><ele>499.00000000000006</ele><time>2026-03-27T10:12:55.999Z</time></trkpt><trkpt lat="48.188300887867484" lon="11.61246810647747"><ele>499.0</ele><time>2026-03-27T10:12:57.001Z</time></trkpt><trkpt lat="48.18822603854414" lon="11.612402543066198"><ele>499.1666666666667</ele><time>2026-03-27T10:12:58.001Z</time></trkpt><trkpt lat="48.18814928937207" lon="11.61233696517679"><ele>499.33333333333337</ele><time>2026-03-27T10:12:59.001Z</time></trkpt><trkpt lat="48.18807295490586" lon="11.61227002649634"><ele>499.5</ele><time>2026-03-27T10:13:00.001Z</time></trkpt><trkpt lat="48.18800192974273" lon="11.612204195257645"><ele>499.66666666666663</ele><time>2026-03-27T10:13:01.001Z</time></trkpt><trkpt lat="48.18793829613543" lon="11.612141031237147"><ele>499.8333333333333</ele><time>2026-03-27T10:13:02.001Z</time></trkpt><trkpt lat="48.18787679220605" lon="11.612079425318921"><ele>500.0</ele><time>2026-03-27T10:13:03.001Z</time></trkpt><trkpt lat="48.187810119254486" lon="11.612014900869427"><ele>500.2</ele><time>2026-03-27T10:13:04.001Z</time></trkpt><trkpt lat="48.18773872449483" lon="11.611946148288654"><ele>500.4</ele><time>2026-03-27T10:13:05.001Z</time></trkpt><trkpt lat="48.18766404117761" lon="11.61186961094924"><ele>500.6</ele><time>2026-03-27T10:13:06.001Z</time></trkpt><trkpt lat="48.187586314227595" lon="11.611786432938143"><ele>500.8</ele><time>2026-03-27T10:13:07.001Z</time></trkpt><trkpt lat="48.18751203102802" lon="11.611706145237093"><ele>501.0</ele><time>2026-03-27T10:13:08.001Z</time></trkpt><trkpt lat="48.18744176485576" lon="11.61162685861162"><ele>501.0</ele><time>2026-03-27T10:13:09.001Z</time></trkpt><trkpt lat="48.187372591004106" lon="11.611550836319754"><ele>501.0</ele><time>2026-03-27T10:13:10.001Z</time></trkpt><trkpt lat="48.18730498916333" lon="11.61147285947631"><ele>501.0</ele><time>2026-03-27T10:13:11.001Z</time></trkpt><trkpt lat="48.18723849127017" lon="11.6113955237346"><ele>501.0</ele><time>2026-03-27T10:13:12Z</time></trkpt><trkpt lat="48.187172428612044" lon="11.611320169541454"><ele>501.0</ele><time>2026-03-27T10:13:13Z</time></trkpt><trkpt lat="48.18710746843411" lon="11.61124309993694"><ele>501.0</ele><time>2026-03-27T10:13:14Z</time></trkpt><trkpt lat="48.18704493584541" lon="11.611167295988217"><ele>501.3333333333333</ele><time>2026-03-27T10:13:15Z</time></trkpt><trkpt lat="48.18698481529521" lon="11.611092899033808"><ele>501.66666666666663</ele><time>2026-03-27T10:13:16Z</time></trkpt><trkpt lat="48.18692736193469" lon="11.611015885654997"><ele>502.0</ele><time>2026-03-27T10:13:17Z</time></trkpt><trkpt lat="48.18686952091033" lon="11.6109377084695"><ele>502.3333333333333</ele><time>2026-03-27T10:13:18Z</time></trkpt><trkpt lat="48.186809894470684" lon="11.61085928638756"><ele>502.66666666666663</ele><time>2026-03-27T10:13:19Z</time></trkpt><trkpt lat="48.18674890066522" lon="11.610777269773866"><ele>503.0</ele><time>2026-03-27T10:13:20Z</time></trkpt><trkpt lat="48.18668384968947" lon="11.61069127145335"><ele>502.99999999999994</ele><time>2026-03-27T10:13:21Z</time></trkpt><trkpt lat="48.18661927380901" lon="11.610602298249653"><ele>503.0</ele><time>2026-03-27T10:13:22Z</time></trkpt><trkpt lat="48.18656000052194" lon="11.61051604979769"><ele>503.0</ele><time>2026-03-27T10:13:23Z</time></trkpt><trkpt lat="48.18650713273239" lon="11.610439068458701"><ele>503.0</ele><time>2026-03-27T10:13:24Z</time></trkpt><trkpt lat="48.186457427775835" lon="11.610362262270586"><ele>502.99999999999994</ele><time>2026-03-27T10:13:25Z</time></trkpt><trkpt lat="48.186407183578524" lon="11.610285707797942"><ele>503.0</ele><time>2026-03-27T10:13:26Z</time></trkpt><trkpt lat="48.18635478019278" lon="11.610202590129372"><ele>503.3333333333333</ele><time>2026-03-27T10:13:27Z</time></trkpt><trkpt lat="48.18629707204495" lon="11.61011995659755"><ele>503.66666666666663</ele><time>2026-03-27T10:13:28Z</time></trkpt><trkpt lat="48.18624160466855" lon="11.610033666167437"><ele>504.0</ele><time>2026-03-27T10:13:29Z</time></trkpt><trkpt lat="48.18618792572087" lon="11.609947736432586"><ele>504.33333333333337</ele><time>2026-03-27T10:13:30Z</time></trkpt><trkpt lat="48.186136559436235" lon="11.609861156641015"><ele>504.6666666666667</ele><time>2026-03-27T10:13:31Z</time></trkpt><trkpt lat="48.18609041688254" lon="11.60978128020308"><ele>505.0</ele><time>2026-03-27T10:13:32Z</time></trkpt><trkpt lat="48.18601288280954" lon="11.609645918253134"><ele>505.0</ele><time>2026-03-27T10:13:34Z</time></trkpt><trkpt lat="48.18594060933309" lon="11.609518835293166"><ele>505.0</ele><time>2026-03-27T10:13:36Z</time></trkpt><trkpt lat="48.18586959866802" lon="11.60938812230798"><ele>505.0</ele><time>2026-03-27T10:13:38Z</time></trkpt><trkpt lat="48.185801984019804" lon="11.609255119930857"><ele>505.0</ele><time>2026-03-27T10:13:40Z</time></trkpt><trkpt lat="48.185715612242284" lon="11.609098217921508"><ele>504.57142857142856</ele><time>2026-03-27T10:13:42Z</time></trkpt><trkpt lat="48.185662277959494" lon="11.609006838654318"><ele>504.1428571428571</ele><time>2026-03-27T10:13:43Z</time></trkpt><trkpt lat="48.18561818978792" lon="11.60892270939242"><ele>503.71428571428567</ele><time>2026-03-27T10:13:44Z</time></trkpt><trkpt lat="48.185577267238536" lon="11.608841780874792"><ele>503.2857142857142</ele><time>2026-03-27T10:13:45Z</time></trkpt><trkpt lat="48.185537703889736" lon="11.608758905572875"><ele>502.85714285714283</ele><time>2026-03-27T10:13:46Z</time></trkpt><trkpt lat="48.1854950658071" lon="11.608673374194225"><ele>502.42857142857133</ele><time>2026-03-27T10:13:47Z</time></trkpt><trkpt lat="48.18545304469999" lon="11.608588779916603"><ele>501.99999999999994</ele><time>2026-03-27T10:13:48Z</time></trkpt><trkpt lat="48.18541338146921" lon="11.608501739607405"><ele>502.00000000000006</ele><time>2026-03-27T10:13:49Z</time></trkpt><trkpt lat="48.185373149204445" lon="11.608415162483352"><ele>502.0</ele><time>2026-03-27T10:13:50Z</time></trkpt><trkpt lat="48.18533426495759" lon="11.608326863174964"><ele>502.0</ele><time>2026-03-27T10:13:51Z</time></trkpt><trkpt lat="48.185291544861336" lon="11.608232895050374"><ele>502.0</ele><time>2026-03-27T10:13:52Z</time></trkpt><trkpt lat="48.18524852957422" lon="11.60813149169156"><ele>502.00000000000006</ele><time>2026-03-27T10:13:53Z</time></trkpt><trkpt lat="48.185205044096996" lon="11.608034600600181"><ele>502.0</ele><time>2026-03-27T10:13:54Z</time></trkpt><trkpt lat="48.18516526635355" lon="11.607938694358083"><ele>501.99999999999994</ele><time>2026-03-27T10:13:55Z</time></trkpt><trkpt lat="48.185126309527774" lon="11.607843846206578"><ele>502.0</ele><time>2026-03-27T10:13:56Z</time></trkpt><trkpt lat="48.18508937529963" lon="11.60775275935949"><ele>501.99999999999994</ele><time>2026-03-27T10:13:57Z</time></trkpt><trkpt lat="48.18505334117491" lon="11.60765914184605"><ele>501.99999999999994</ele><time>2026-03-27T10:13:58Z</time></trkpt><trkpt lat="48.18501659981349" lon="11.607563330653164"><ele>502.0</ele><time>2026-03-27T10:13:59Z</time></trkpt><trkpt lat="48.18497926596642" lon="11.607463002148283"><ele>501.99999999999994</ele><time>2026-03-27T10:14:00Z</time></trkpt><trkpt lat="48.18494038606919" lon="11.607356353564848"><ele>501.99999999999994</ele><time>2026-03-27T10:14:01Z</time></trkpt><trkpt lat="48.18489854426335" lon="11.607247222040115"><ele>501.83333333333337</ele><time>2026-03-27T10:14:02Z</time></trkpt><trkpt lat="48.18485770501101" lon="11.607133671524327"><ele>501.6666666666667</ele><time>2026-03-27T10:14:03Z</time></trkpt><trkpt lat="48.18481954566691" lon="11.60702092590246"><ele>501.5</ele><time>2026-03-27T10:14:04Z</time></trkpt><trkpt lat="48.184782645946584" lon="11.606910119488838"><ele>501.33333333333337</ele><time>2026-03-27T10:14:05Z</time></trkpt><trkpt lat="48.184747051528916" lon="11.606806891211784"><ele>501.1666666666667</ele><time>2026-03-27T10:14:06Z</time></trkpt><trkpt lat="48.18471625598158" lon="11.606706665445655"><ele>501.0</ele><time>2026-03-27T10:14:07Z</time></trkpt><trkpt lat="48.1846855398721" lon="11.606608147105806"><ele>501.0</ele><time>2026-03-27T10:14:08Z</time></trkpt><trkpt lat="48.184654656760515" lon="11.606513280832054"><ele>501.0</ele><time>2026-03-27T10:14:09Z</time></trkpt><trkpt lat="48.1846262683915" lon="11.60642104127788"><ele>501.0</ele><time>2026-03-27T10:14:10Z</time></trkpt><trkpt lat="48.18460047845229" lon="11.60633052107328"><ele>501.0</ele><time>2026-03-27T10:14:11Z</time></trkpt><trkpt lat="48.18457323632109" lon="11.606236773753082"><ele>501.0</ele><time>2026-03-27T10:14:12Z</time></trkpt><trkpt lat="48.18454575557186" lon="11.606143188647854"><ele>501.0</ele><time>2026-03-27T10:14:13Z</time></trkpt><trkpt lat="48.18450499990882" lon="11.605995128328296"><ele>501.0</ele><time>2026-03-27T10:14:15Z</time></trkpt><trkpt lat="48.18447005563999" lon="11.605866477036717"><ele>501.4</ele><time>2026-03-27T10:14:17Z</time></trkpt><trkpt lat="48.18442503650671" lon="11.605698991934755"><ele>501.8</ele><time>2026-03-27T10:14:19Z</time></trkpt><trkpt lat="48.18439942400206" lon="11.605600622478136"><ele>502.19999999999993</ele><time>2026-03-27T10:14:20Z</time></trkpt><trkpt lat="48.18437699262926" lon="11.605507280680317"><ele>502.59999999999997</ele><time>2026-03-27T10:14:21Z</time></trkpt><trkpt lat="48.18433331300914" lon="11.605328131103862"><ele>503.0</ele><time>2026-03-27T10:14:23Z</time></trkpt><trkpt lat="48.18430777374887" lon="11.60522045841555"><ele>503.0</ele><time>2026-03-27T10:14:24Z</time></trkpt><trkpt lat="48.18427985941573" lon="11.605099807098629"><ele>502.99999999999994</ele><time>2026-03-27T10:14:25Z</time></trkpt><trkpt lat="48.184250757489224" lon="11.604969532555856"><ele>502.99999999999994</ele><time>2026-03-27T10:14:26Z</time></trkpt><trkpt lat="48.18422229230359" lon="11.604835396916087"><ele>503.0</ele><time>2026-03-27T10:14:27Z</time></trkpt><trkpt lat="48.184197432213956" lon="11.604704389132213"><ele>503.0</ele><time>2026-03-27T10:14:28Z</time></trkpt><trkpt lat="48.18417097964314" lon="11.604568994410167"><ele>502.5</ele><time>2026-03-27T10:14:29Z</time></trkpt><trkpt lat="48.18414450235613" lon="11.604426633335933"><ele>502.0</ele><time>2026-03-27T10:14:30Z</time></trkpt><trkpt lat="48.184115417508316" lon="11.60426888621475"><ele>501.5</ele><time>2026-03-27T10:14:31Z</time></trkpt><trkpt lat="48.18407763957514" lon="11.604091089235068"><ele>501.0</ele><time>2026-03-27T10:14:32Z</time></trkpt><trkpt lat="48.184040314336805" lon="11.603905138379492"><ele>501.25</ele><time>2026-03-27T10:14:33Z</time></trkpt><trkpt lat="48.18400315561818" lon="11.603722451867846"><ele>501.5</ele><time>2026-03-27T10:14:34Z</time></trkpt><trkpt lat="48.18395971207916" lon="11.603526512649012"><ele>501.75</ele><time>2026-03-27T10:14:35Z</time></trkpt><trkpt lat="48.18391172594109" lon="11.603322218882985"><ele>502.0</ele><time>2026-03-27T10:14:35.999Z</time></trkpt><trkpt lat="48.18386205009522" lon="11.60311235272397"><ele>502.0</ele><time>2026-03-27T10:14:36.999Z</time></trkpt><trkpt lat="48.18381152299659" lon="11.602906713316587"><ele>502.0</ele><time>2026-03-27T10:14:37.999Z</time></trkpt><trkpt lat="48.18375850113089" lon="11.602701574222156"><ele>502.0</ele><time>2026-03-27T10:14:38.999Z</time></trkpt><trkpt lat="48.18370005270263" lon="11.602496872306405"><ele>502.0</ele><time>2026-03-27T10:14:39.999Z</time></trkpt><trkpt lat="48.1836397361007" lon="11.60229240915129"><ele>502.0</ele><time>2026-03-27T10:14:40.999Z</time></trkpt><trkpt lat="48.183573631623844" lon="11.60208520358992"><ele>502.0</ele><time>2026-03-27T10:14:41.999Z</time></trkpt><trkpt lat="48.18350232267153" lon="11.601874256469719"><ele>502.0</ele><time>2026-03-27T10:14:42.999Z</time></trkpt><trkpt lat="48.18342327187431" lon="11.60165988315473"><ele>502.33333333333337</ele><time>2026-03-27T10:14:43.999Z</time></trkpt><trkpt lat="48.18334647465376" lon="11.601454342020203"><ele>502.66666666666663</ele><time>2026-03-27T10:14:44.999Z</time></trkpt><trkpt lat="48.183266388317364" lon="11.601249230341859"><ele>503.0</ele><time>2026-03-27T10:14:45.999Z</time></trkpt><trkpt lat="48.18317883836508" lon="11.60104384077895"><ele>503.0</ele><time>2026-03-27T10:14:46.999Z</time></trkpt><trkpt lat="48.18308634745964" lon="11.600840765660285"><ele>503.0</ele><time>2026-03-27T10:14:47.999Z</time></trkpt><trkpt lat="48.18299113454889" lon="11.600639667033175"><ele>503.0</ele><time>2026-03-27T10:14:48.999Z</time></trkpt><trkpt lat="48.18289314725273" lon="11.600440900238656"><ele>502.66666666666663</ele><time>2026-03-27T10:14:49.999Z</time></trkpt><trkpt lat="48.18279202351431" lon="11.600244192000154"><ele>502.33333333333337</ele><time>2026-03-27T10:14:50.999Z</time></trkpt><trkpt lat="48.1826885613852" lon="11.600052803035588"><ele>502.0</ele><time>2026-03-27T10:14:51.999Z</time></trkpt><trkpt lat="48.1825819346175" lon="11.599865307333216"><ele>502.0</ele><time>2026-03-27T10:14:52.999Z</time></trkpt><trkpt lat="48.18247234866143" lon="11.599683797030325"><ele>502.0</ele><time>2026-03-27T10:14:53.999Z</time></trkpt><trkpt lat="48.18236146478959" lon="11.599503899633048"><ele>502.0</ele><time>2026-03-27T10:14:54.999Z</time></trkpt><trkpt lat="48.18224487400363" lon="11.599326647042302"><ele>502.33333333333337</ele><time>2026-03-27T10:14:55.999Z</time></trkpt><trkpt lat="48.18212628520225" lon="11.599155797021336"><ele>502.66666666666663</ele><time>2026-03-27T10:14:56.999Z</time></trkpt><trkpt lat="48.18200940791074" lon="11.598993568649794"><ele>503.0</ele><time>2026-03-27T10:14:57.999Z</time></trkpt><trkpt lat="48.181897883367334" lon="11.59884134509904"><ele>503.0</ele><time>2026-03-27T10:14:58.999Z</time></trkpt><trkpt lat="48.181779483128295" lon="11.598687828201223"><ele>503.0</ele><time>2026-03-27T10:14:59.999Z</time></trkpt><trkpt lat="48.181658918977945" lon="11.59853483785577"><ele>503.0</ele><time>2026-03-27T10:15:00.999Z</time></trkpt><trkpt lat="48.18153600911578" lon="11.598387627877186"><ele>503.66666666666663</ele><time>2026-03-27T10:15:01.999Z</time></trkpt><trkpt lat="48.18141264309807" lon="11.598243090303669"><ele>504.33333333333337</ele><time>2026-03-27T10:15:03.001Z</time></trkpt><trkpt lat="48.181292895484084" lon="11.598102593560363"><ele>505.0</ele><time>2026-03-27T10:15:04.001Z</time></trkpt><trkpt lat="48.18117745541735" lon="11.597971102136356"><ele>505.0</ele><time>2026-03-27T10:15:05.001Z</time></trkpt><trkpt lat="48.18106336033455" lon="11.597843348390914"><ele>505.0</ele><time>2026-03-27T10:15:06.001Z</time></trkpt><trkpt lat="48.1809451381994" lon="11.597712187196532"><ele>505.0</ele><time>2026-03-27T10:15:07.001Z</time></trkpt><trkpt lat="48.18082559296788" lon="11.597584723160608"><ele>505.0</ele><time>2026-03-27T10:15:08.001Z</time></trkpt><trkpt lat="48.1807066851983" lon="11.597459855586628"><ele>505.0</ele><time>2026-03-27T10:15:09.001Z</time></trkpt><trkpt lat="48.18058810038498" lon="11.597334134736938"><ele>505.0</ele><time>2026-03-27T10:15:10Z</time></trkpt><trkpt lat="48.18046842993451" lon="11.597211786689929"><ele>505.0</ele><time>2026-03-27T10:15:11Z</time></trkpt><trkpt lat="48.18035220270038" lon="11.597091591095786"><ele>505.0</ele><time>2026-03-27T10:15:12Z</time></trkpt><trkpt lat="48.18022682568558" lon="11.596969512332729"><ele>504.6666666666667</ele><time>2026-03-27T10:15:13Z</time></trkpt><trkpt lat="48.18009726534031" lon="11.596843960420024"><ele>504.33333333333337</ele><time>2026-03-27T10:15:14Z</time></trkpt><trkpt lat="48.179968086719015" lon="11.59672065359599"><ele>504.0</ele><time>2026-03-27T10:15:15Z</time></trkpt><trkpt lat="48.17984203119629" lon="11.596596820170095"><ele>503.75</ele><time>2026-03-27T10:15:16Z</time></trkpt><trkpt lat="48.17971703351942" lon="11.596476240999287"><ele>503.5</ele><time>2026-03-27T10:15:17Z</time></trkpt><trkpt lat="48.1795928443523" lon="11.596355400929724"><ele>503.25</ele><time>2026-03-27T10:15:18Z</time></trkpt><trkpt lat="48.179469188809115" lon="11.59623576897262"><ele>503.0</ele><time>2026-03-27T10:15:19Z</time></trkpt><trkpt lat="48.17934594370406" lon="11.59611813466614"><ele>502.75</ele><time>2026-03-27T10:15:20Z</time></trkpt><trkpt lat="48.17922569540765" lon="11.596002595027814"><ele>502.5</ele><time>2026-03-27T10:15:21Z</time></trkpt><trkpt lat="48.17910689181027" lon="11.59589028764267"><ele>502.25</ele><time>2026-03-27T10:15:22Z</time></trkpt><trkpt lat="48.178990696146855" lon="11.595780647071399"><ele>502.0</ele><time>2026-03-27T10:15:23Z</time></trkpt><trkpt lat="48.17887736868001" lon="11.595672766550317"><ele>502.5</ele><time>2026-03-27T10:15:24Z</time></trkpt><trkpt lat="48.17876249468759" lon="11.595564450893844"><ele>503.0</ele><time>2026-03-27T10:15:25Z</time></trkpt><trkpt lat="48.17864661568016" lon="11.595452172111122"><ele>503.5</ele><time>2026-03-27T10:15:26Z</time></trkpt><trkpt lat="48.178530586290925" lon="11.595335746463945"><ele>504.0</ele><time>2026-03-27T10:15:27Z</time></trkpt><trkpt lat="48.178412421436086" lon="11.595221175195352"><ele>504.0</ele><time>2026-03-27T10:15:28Z</time></trkpt><trkpt lat="48.17829621565959" lon="11.595106663298365"><ele>504.0</ele><time>2026-03-27T10:15:29Z</time></trkpt><trkpt lat="48.178176095881646" lon="11.59499339728689"><ele>504.0</ele><time>2026-03-27T10:15:30Z</time></trkpt><trkpt lat="48.17805270609525" lon="11.594876643530496"><ele>504.0</ele><time>2026-03-27T10:15:31Z</time></trkpt><trkpt lat="48.17792891470791" lon="11.59475763764506"><ele>504.25</ele><time>2026-03-27T10:15:32Z</time></trkpt><trkpt lat="48.17779213307096" lon="11.594685966683622"><ele>504.5</ele><time>2026-03-27T10:15:33Z</time></trkpt><trkpt lat="48.17767063695359" lon="11.594583928313533"><ele>504.75</ele><time>2026-03-27T10:15:34Z</time></trkpt><trkpt lat="48.17755046685385" lon="11.594483499239114"><ele>505.0</ele><time>2026-03-27T10:15:35Z</time></trkpt><trkpt lat="48.17745995893747" lon="11.594304842944243"><ele>505.25</ele><time>2026-03-27T10:15:36Z</time></trkpt><trkpt lat="48.177341808957955" lon="11.594192382490752"><ele>505.5</ele><time>2026-03-27T10:15:37Z</time></trkpt><trkpt lat="48.17722312372994" lon="11.59407647369865"><ele>505.75</ele><time>2026-03-27T10:15:38Z</time></trkpt><trkpt lat="48.1771070553736" lon="11.59396413502967"><ele>506.0</ele><time>2026-03-27T10:15:39Z</time></trkpt><trkpt lat="48.176992629314036" lon="11.593857233738005"><ele>506.0</ele><time>2026-03-27T10:15:40Z</time></trkpt><trkpt lat="48.1768833786211" lon="11.593751223207367"><ele>506.0</ele><time>2026-03-27T10:15:41Z</time></trkpt><trkpt lat="48.17677188502018" lon="11.593644704868488"><ele>506.0</ele><time>2026-03-27T10:15:42Z</time></trkpt><trkpt lat="48.176662593955434" lon="11.593537004337438"><ele>506.0</ele><time>2026-03-27T10:15:43Z</time></trkpt><trkpt lat="48.176561028121014" lon="11.593435525852938"><ele>505.8</ele><time>2026-03-27T10:15:44Z</time></trkpt><trkpt lat="48.17646074832365" lon="11.59333725502762"><ele>505.6</ele><time>2026-03-27T10:15:45Z</time></trkpt><trkpt lat="48.17637030125457" lon="11.593247150862819"><ele>505.4</ele><time>2026-03-27T10:15:46Z</time></trkpt><trkpt lat="48.17628116014142" lon="11.593153626282557"><ele>505.2</ele><time>2026-03-27T10:15:47Z</time></trkpt><trkpt lat="48.17619469096794" lon="11.593050412154296"><ele>505.0</ele><time>2026-03-27T10:15:48Z</time></trkpt><trkpt lat="48.176123034224034" lon="11.592948423048139"><ele>504.8</ele><time>2026-03-27T10:15:49Z</time></trkpt><trkpt lat="48.17606738342019" lon="11.592838060164153"><ele>504.6</ele><time>2026-03-27T10:15:50Z</time></trkpt><trkpt lat="48.17602260628086" lon="11.592704542106643"><ele>504.4</ele><time>2026-03-27T10:15:51Z</time></trkpt><trkpt lat="48.17599331241359" lon="11.592555091714537"><ele>504.2</ele><time>2026-03-27T10:15:52Z</time></trkpt><trkpt lat="48.175977821679375" lon="11.59240210818746"><ele>504.0</ele><time>2026-03-27T10:15:53Z</time></trkpt><trkpt lat="48.17598220573229" lon="11.592257694701992"><ele>504.0</ele><time>2026-03-27T10:15:54Z</time></trkpt><trkpt lat="48.17599956268966" lon="11.592131569589258"><ele>504.0</ele><time>2026-03-27T10:15:55Z</time></trkpt><trkpt lat="48.176028847807295" lon="11.592008006299459"><ele>504.0</ele><time>2026-03-27T10:15:56Z</time></trkpt><trkpt lat="48.176067611556626" lon="11.591886891169397"><ele>504.0</ele><time>2026-03-27T10:15:57Z</time></trkpt><trkpt lat="48.1761073608021" lon="11.591763515577169"><ele>504.0</ele><time>2026-03-27T10:15:58Z</time></trkpt><trkpt lat="48.17614703994879" lon="11.591650993709692"><ele>504.0</ele><time>2026-03-27T10:15:59Z</time></trkpt><trkpt lat="48.17619182266402" lon="11.591539295212199"><ele>503.5</ele><time>2026-03-27T10:16:00Z</time></trkpt><trkpt lat="48.176235704724625" lon="11.59143261754865"><ele>503.0</ele><time>2026-03-27T10:16:01Z</time></trkpt><trkpt lat="48.17628327092242" lon="11.591325085337088"><ele>502.5</ele><time>2026-03-27T10:16:02Z</time></trkpt><trkpt lat="48.17633493081828" lon="11.59121350756984"><ele>502.0</ele><time>2026-03-27T10:16:03Z</time></trkpt><trkpt lat="48.176385092064194" lon="11.591099787299994"><ele>501.5</ele><time>2026-03-27T10:16:04Z</time></trkpt><trkpt lat="48.17643453042322" lon="11.59098565846899"><ele>501.0</ele><time>2026-03-27T10:16:04.999Z</time></trkpt><trkpt lat="48.176481789042064" lon="11.590868459962993"><ele>501.6</ele><time>2026-03-27T10:16:05.999Z</time></trkpt><trkpt lat="48.17653011088591" lon="11.590743806623303"><ele>502.20000000000005</ele><time>2026-03-27T10:16:06.999Z</time></trkpt><trkpt lat="48.17657937164134" lon="11.590613843912275"><ele>502.79999999999995</ele><time>2026-03-27T10:16:07.999Z</time></trkpt><trkpt lat="48.17662863136298" lon="11.590488631164787"><ele>503.4</ele><time>2026-03-27T10:16:08.999Z</time></trkpt><trkpt lat="48.17667913255449" lon="11.590365844832975"><ele>504.0</ele><time>2026-03-27T10:16:09.999Z</time></trkpt><trkpt lat="48.17672821161813" lon="11.590242948236074"><ele>504.2</ele><time>2026-03-27T10:16:10.999Z</time></trkpt><trkpt lat="48.17677742773847" lon="11.5901183190814"><ele>504.4</ele><time>2026-03-27T10:16:11.999Z</time></trkpt><trkpt lat="48.17682692864527" lon="11.589987746777847"><ele>504.6</ele><time>2026-03-27T10:16:12.999Z</time></trkpt><trkpt lat="48.17687689236046" lon="11.58985617597358"><ele>504.8</ele><time>2026-03-27T10:16:13.999Z</time></trkpt><trkpt lat="48.17693343835554" lon="11.589713442571732"><ele>505.0</ele><time>2026-03-27T10:16:14.999Z</time></trkpt><trkpt lat="48.1769975154679" lon="11.589560816842047"><ele>505.0</ele><time>2026-03-27T10:16:15.999Z</time></trkpt><trkpt lat="48.1770597458876" lon="11.589399656437179"><ele>505.0</ele><time>2026-03-27T10:16:16.999Z</time></trkpt><trkpt lat="48.17711851355982" lon="11.589242242204412"><ele>505.0</ele><time>2026-03-27T10:16:17.999Z</time></trkpt><trkpt lat="48.17716909135443" lon="11.589103899266467"><ele>505.0</ele><time>2026-03-27T10:16:18.999Z</time></trkpt><trkpt lat="48.17721664846839" lon="11.588958701459873"><ele>505.0</ele><time>2026-03-27T10:16:19.999Z</time></trkpt><trkpt lat="48.17726273636117" lon="11.58881235328504"><ele>505.0</ele><time>2026-03-27T10:16:20.999Z</time></trkpt><trkpt lat="48.177312330891716" lon="11.588661058853448"><ele>505.0</ele><time>2026-03-27T10:16:21.999Z</time></trkpt><trkpt lat="48.17735858620437" lon="11.588507061481963"><ele>505.0</ele><time>2026-03-27T10:16:22.999Z</time></trkpt><trkpt lat="48.17740028236869" lon="11.588354624721052"><ele>505.0</ele><time>2026-03-27T10:16:23.999Z</time></trkpt><trkpt lat="48.177436792386146" lon="11.588201762738262"><ele>505.0</ele><time>2026-03-27T10:16:24.999Z</time></trkpt><trkpt lat="48.17747263604278" lon="11.588052415944464"><ele>505.0</ele><time>2026-03-27T10:16:25.999Z</time></trkpt><trkpt lat="48.1775068129551" lon="11.58790426778087"><ele>505.0</ele><time>2026-03-27T10:16:26.999Z</time></trkpt><trkpt lat="48.17753562604613" lon="11.587757753352447"><ele>505.0</ele><time>2026-03-27T10:16:27.999Z</time></trkpt><trkpt lat="48.17756288646167" lon="11.587610222745788"><ele>505.0</ele><time>2026-03-27T10:16:28.999Z</time></trkpt><trkpt lat="48.177587174259855" lon="11.587462049166291"><ele>505.0</ele><time>2026-03-27T10:16:29.999Z</time></trkpt><trkpt lat="48.17760799952506" lon="11.587316994282565"><ele>505.0</ele><time>2026-03-27T10:16:30.999Z</time></trkpt><trkpt lat="48.177627366973006" lon="11.587178424918212"><ele>505.0</ele><time>2026-03-27T10:16:31.999Z</time></trkpt><trkpt lat="48.1776430713013" lon="11.587054076087043"><ele>505.0</ele><time>2026-03-27T10:16:32.999Z</time></trkpt><trkpt lat="48.17765609076768" lon="11.586948705267918"><ele>505.0</ele><time>2026-03-27T10:16:33.999Z</time></trkpt><trkpt lat="48.17767666464274" lon="11.586776826323225"><ele>505.33333333333337</ele><time>2026-03-27T10:16:35.999Z</time></trkpt><trkpt lat="48.177689578211414" lon="11.58663986116644"><ele>505.6666666666667</ele><time>2026-03-27T10:16:37.999Z</time></trkpt><trkpt lat="48.17769778206089" lon="11.586532115600582"><ele>506.0</ele><time>2026-03-27T10:16:39.999Z</time></trkpt><trkpt lat="48.17770541228951" lon="11.586420350363033"><ele>506.33333333333337</ele><time>2026-03-27T10:16:42.999Z</time></trkpt><trkpt lat="48.17770851529555" lon="11.586310826988866"><ele>506.6666666666667</ele><time>2026-03-27T10:16:46.999Z</time></trkpt><trkpt lat="48.177717537089165" lon="11.586210673984056"><ele>507.0</ele><time>2026-03-27T10:16:49.998Z</time></trkpt><trkpt lat="48.177722286439305" lon="11.58607579130694"><ele>507.0</ele><time>2026-03-27T10:16:52.998Z</time></trkpt><trkpt lat="48.17772453700172" lon="11.58595461441769"><ele>507.0</ele><time>2026-03-27T10:16:55.998Z</time></trkpt><trkpt lat="48.17772848098223" lon="11.585860082880272"><ele>507.0</ele><time>2026-03-27T10:17:00.998Z</time></trkpt><trkpt lat="48.17771837323261" lon="11.585745204838217"><ele>507.0</ele><time>2026-03-27T10:18:04.999Z</time></trkpt><trkpt lat="48.17772256844617" lon="11.585616310366325"><ele>507.0</ele><time>2026-03-27T10:18:07.999Z</time></trkpt><trkpt lat="48.1777984470496" lon="11.585537907341958"><ele>507.0</ele><time>2026-03-27T10:18:09.999Z</time></trkpt><trkpt lat="48.17791704673209" lon="11.585467830201766"><ele>507.0</ele><time>2026-03-27T10:18:11.999Z</time></trkpt><trkpt lat="48.177976955886834" lon="11.585418543733637"><ele>507.0</ele><time>2026-03-27T10:18:12.999Z</time></trkpt><trkpt lat="48.17803978854887" lon="11.585378203718008"><ele>507.0</ele><time>2026-03-27T10:18:13.999Z</time></trkpt><trkpt lat="48.178112937763856" lon="11.58535323008141"><ele>507.0</ele><time>2026-03-27T10:18:14.999Z</time></trkpt><trkpt lat="48.17819465872445" lon="11.585338365957462"><ele>507.0</ele><time>2026-03-27T10:18:15.999Z</time></trkpt><trkpt lat="48.178285102534666" lon="11.585325795555189"><ele>507.0</ele><time>2026-03-27T10:18:16.999Z</time></trkpt><trkpt lat="48.178373679116454" lon="11.585318937947232"><ele>506.8333333333333</ele><time>2026-03-27T10:18:17.999Z</time></trkpt><trkpt lat="48.17845101564171" lon="11.58531255272312"><ele>506.66666666666663</ele><time>2026-03-27T10:18:18.999Z</time></trkpt><trkpt lat="48.17852926729559" lon="11.585309200202095"><ele>506.5</ele><time>2026-03-27T10:18:19.999Z</time></trkpt><trkpt lat="48.17860848475291" lon="11.585302104192207"><ele>506.3333333333333</ele><time>2026-03-27T10:18:20.999Z</time></trkpt><trkpt lat="48.178679142026006" lon="11.585294533902264"><ele>506.16666666666663</ele><time>2026-03-27T10:18:21.999Z</time></trkpt><trkpt lat="48.17875243795355" lon="11.585289296281355"><ele>506.0</ele><time>2026-03-27T10:18:22.999Z</time></trkpt><trkpt lat="48.17882839581713" lon="11.585284346588324"><ele>505.99999999999994</ele><time>2026-03-27T10:18:23.999Z</time></trkpt><trkpt lat="48.17890812587541" lon="11.58527722557665"><ele>506.0</ele><time>2026-03-27T10:18:24.999Z</time></trkpt><trkpt lat="48.178991336700776" lon="11.585267484497715"><ele>506.0</ele><time>2026-03-27T10:18:25.999Z</time></trkpt><trkpt lat="48.17907812538681" lon="11.585258014840061"><ele>506.0</ele><time>2026-03-27T10:18:26.999Z</time></trkpt><trkpt lat="48.17916827917236" lon="11.58524709500181"><ele>505.99999999999994</ele><time>2026-03-27T10:18:27.999Z</time></trkpt><trkpt lat="48.179257159197164" lon="11.585239936759777"><ele>506.0</ele><time>2026-03-27T10:18:28.999Z</time></trkpt><trkpt lat="48.17933267781999" lon="11.585234166322973"><ele>505.66666666666663</ele><time>2026-03-27T10:18:29.999Z</time></trkpt><trkpt lat="48.179405210189216" lon="11.58522626636044"><ele>505.3333333333333</ele><time>2026-03-27T10:18:30.999Z</time></trkpt><trkpt lat="48.17947161508487" lon="11.585218765634282"><ele>505.0</ele><time>2026-03-27T10:18:31.999Z</time></trkpt><trkpt lat="48.17953550731398" lon="11.58521021011898"><ele>504.66666666666663</ele><time>2026-03-27T10:18:32.999Z</time></trkpt><trkpt lat="48.179651981053716" lon="11.585183208959844"><ele>504.3333333333333</ele><time>2026-03-27T10:18:34.999Z</time></trkpt><trkpt lat="48.17975793584634" lon="11.585160870576633"><ele>504.0</ele><time>2026-03-27T10:18:36.999Z</time></trkpt><trkpt lat="48.179834875016766" lon="11.585154603357362"><ele>504.6666666666667</ele><time>2026-03-27T10:18:38.999Z</time></trkpt><trkpt lat="48.17989975942324" lon="11.585147197181902"><ele>505.33333333333337</ele><time>2026-03-27T10:18:41.999Z</time></trkpt><trkpt lat="48.17998848119998" lon="11.58514078008518"><ele>506.0</ele><time>2026-03-27T10:18:47.999Z</time></trkpt><trkpt lat="48.1800662967607" lon="11.58513930566764"><ele>506.6666666666667</ele><time>2026-03-27T10:18:49.999Z</time></trkpt><trkpt lat="48.18017948442506" lon="11.585142502019583"><ele>507.33333333333337</ele><time>2026-03-27T10:18:51.999Z</time></trkpt><trkpt lat="48.180243499515505" lon="11.585143560582194"><ele>508.0</ele><time>2026-03-27T10:18:52.999Z</time></trkpt><trkpt lat="48.18031566445954" lon="11.585136749755247"><ele>508.00000000000006</ele><time>2026-03-27T10:18:53.999Z</time></trkpt><trkpt lat="48.18039274938962" lon="11.585129104246844"><ele>508.0</ele><time>2026-03-27T10:18:54.999Z</time></trkpt><trkpt lat="48.18047127348111" lon="11.585117703767994"><ele>508.0</ele><time>2026-03-27T10:18:55.999Z</time></trkpt><trkpt lat="48.18054836057987" lon="11.585110369631575"><ele>508.0</ele><time>2026-03-27T10:18:56.998Z</time></trkpt><trkpt lat="48.18062689882713" lon="11.585103963870457"><ele>508.00000000000006</ele><time>2026-03-27T10:18:57.998Z</time></trkpt><trkpt lat="48.180705935816924" lon="11.585099319184216"><ele>508.0</ele><time>2026-03-27T10:18:58.998Z</time></trkpt><trkpt lat="48.180787275409884" lon="11.585093860077846"><ele>508.33333333333337</ele><time>2026-03-27T10:18:59.998Z</time></trkpt><trkpt lat="48.180869950581425" lon="11.58508637457967"><ele>508.6666666666667</ele><time>2026-03-27T10:19:00.998Z</time></trkpt><trkpt lat="48.18095612286221" lon="11.585078556700697"><ele>509.0</ele><time>2026-03-27T10:19:01.998Z</time></trkpt><trkpt lat="48.18104478206027" lon="11.585071503682343"><ele>509.33333333333337</ele><time>2026-03-27T10:19:02.998Z</time></trkpt><trkpt lat="48.181136454776585" lon="11.5850611381024"><ele>509.6666666666667</ele><time>2026-03-27T10:19:03.998Z</time></trkpt><trkpt lat="48.18123025435919" lon="11.585053197297933"><ele>510.0</ele><time>2026-03-27T10:19:04.998Z</time></trkpt><trkpt lat="48.18132535743922" lon="11.585043641524335"><ele>510.0</ele><time>2026-03-27T10:19:05.998Z</time></trkpt><trkpt lat="48.18142005942263" lon="11.585033981464337"><ele>510.0</ele><time>2026-03-27T10:19:06.998Z</time></trkpt><trkpt lat="48.18151493450449" lon="11.585023412646342"><ele>510.0</ele><time>2026-03-27T10:19:07.998Z</time></trkpt><trkpt lat="48.1816118541778" lon="11.585015411624514"><ele>510.0</ele><time>2026-03-27T10:19:08.998Z</time></trkpt><trkpt lat="48.181709974560256" lon="11.585006399558543"><ele>510.0</ele><time>2026-03-27T10:19:09.998Z</time></trkpt><trkpt lat="48.18181122665804" lon="11.584995718410237"><ele>509.2</ele><time>2026-03-27T10:19:10.998Z</time></trkpt><trkpt lat="48.1819154823853" lon="11.584982957555102"><ele>508.4</ele><time>2026-03-27T10:19:11.998Z</time></trkpt><trkpt lat="48.18201698137687" lon="11.584971739464262"><ele>507.6</ele><time>2026-03-27T10:19:12.998Z</time></trkpt><trkpt lat="48.18210560664787" lon="11.584965654837394"><ele>506.8</ele><time>2026-03-27T10:19:13.998Z</time></trkpt><trkpt lat="48.18219289691071" lon="11.584957067921378"><ele>506.0</ele><time>2026-03-27T10:19:15Z</time></trkpt><trkpt lat="48.18228027663028" lon="11.58495166602417"><ele>506.0</ele><time>2026-03-27T10:19:16Z</time></trkpt><trkpt lat="48.18236930312306" lon="11.584943343336608"><ele>506.0</ele><time>2026-03-27T10:19:17Z</time></trkpt><trkpt lat="48.182461838345745" lon="11.584937075027476"><ele>506.0</ele><time>2026-03-27T10:19:18Z</time></trkpt><trkpt lat="48.18255148815946" lon="11.584929195250785"><ele>506.0</ele><time>2026-03-27T10:19:19Z</time></trkpt><trkpt lat="48.182640042376555" lon="11.58492150442514"><ele>506.0</ele><time>2026-03-27T10:19:20Z</time></trkpt><trkpt lat="48.18273163899135" lon="11.58491463322549"><ele>506.0</ele><time>2026-03-27T10:19:21Z</time></trkpt><trkpt lat="48.18282452111536" lon="11.584905682590461"><ele>506.0</ele><time>2026-03-27T10:19:22Z</time></trkpt><trkpt lat="48.182919345200766" lon="11.584894010845206"><ele>506.0</ele><time>2026-03-27T10:19:23Z</time></trkpt><trkpt lat="48.183014461824904" lon="11.58488419619578"><ele>506.0</ele><time>2026-03-27T10:19:24Z</time></trkpt><trkpt lat="48.183110147319475" lon="11.584878716666015"><ele>506.0</ele><time>2026-03-27T10:19:25Z</time></trkpt><trkpt lat="48.183206173821816" lon="11.58486801602961"><ele>506.3333333333333</ele><time>2026-03-27T10:19:26Z</time></trkpt><trkpt lat="48.183299099125676" lon="11.584858712626415"><ele>506.66666666666663</ele><time>2026-03-27T10:19:27Z</time></trkpt><trkpt lat="48.183385794894" lon="11.584849607811439"><ele>507.0</ele><time>2026-03-27T10:19:28Z</time></trkpt><trkpt lat="48.18346611024242" lon="11.584843749231128"><ele>507.33333333333337</ele><time>2026-03-27T10:19:29Z</time></trkpt><trkpt lat="48.18354119710008" lon="11.584838453026842"><ele>507.6666666666667</ele><time>2026-03-27T10:19:30Z</time></trkpt><trkpt lat="48.18360889101986" lon="11.584832149834533"><ele>508.0</ele><time>2026-03-27T10:19:31Z</time></trkpt><trkpt lat="48.18372199815142" lon="11.584819727325304"><ele>508.00000000000006</ele><time>2026-03-27T10:19:33Z</time></trkpt><trkpt lat="48.1838566692444" lon="11.584808566608785"><ele>508.0</ele><time>2026-03-27T10:19:35Z</time></trkpt><trkpt lat="48.18393012800223" lon="11.584802248181614"><ele>508.0</ele><time>2026-03-27T10:19:36Z</time></trkpt><trkpt lat="48.18400125165644" lon="11.584794155504083"><ele>508.0</ele><time>2026-03-27T10:19:37Z</time></trkpt><trkpt lat="48.18407364329009" lon="11.584785537813218"><ele>508.00000000000006</ele><time>2026-03-27T10:19:38Z</time></trkpt><trkpt lat="48.18414766508293" lon="11.58477660640149"><ele>508.0</ele><time>2026-03-27T10:19:39Z</time></trkpt><trkpt lat="48.184223376720816" lon="11.584770734329728"><ele>507.6666666666667</ele><time>2026-03-27T10:19:40Z</time></trkpt><trkpt lat="48.18430620647909" lon="11.584765436016223"><ele>507.33333333333337</ele><time>2026-03-27T10:19:41Z</time></trkpt><trkpt lat="48.184392862318994" lon="11.5847559600945"><ele>507.0</ele><time>2026-03-27T10:19:42Z</time></trkpt><trkpt lat="48.18447920602798" lon="11.584745201335123"><ele>506.66666666666663</ele><time>2026-03-27T10:19:43Z</time></trkpt><trkpt lat="48.18456078109394" lon="11.584739885390182"><ele>506.3333333333333</ele><time>2026-03-27T10:19:44Z</time></trkpt><trkpt lat="48.184644344968206" lon="11.584733924172887"><ele>506.0</ele><time>2026-03-27T10:19:45Z</time></trkpt><trkpt lat="48.184730012136356" lon="11.58472650410696"><ele>506.0</ele><time>2026-03-27T10:19:46Z</time></trkpt><trkpt lat="48.184819880769595" lon="11.58471740657396"><ele>506.0</ele><time>2026-03-27T10:19:46.999Z</time></trkpt><trkpt lat="48.18491519014519" lon="11.584711747949601"><ele>506.0</ele><time>2026-03-27T10:19:47.999Z</time></trkpt><trkpt lat="48.185010831914525" lon="11.584703617421455"><ele>506.0</ele><time>2026-03-27T10:19:48.999Z</time></trkpt><trkpt lat="48.18510558874018" lon="11.58469512533635"><ele>506.0</ele><time>2026-03-27T10:19:49.999Z</time></trkpt><trkpt lat="48.18519952920868" lon="11.584689436815923"><ele>506.0</ele><time>2026-03-27T10:19:50.999Z</time></trkpt><trkpt lat="48.18529388833734" lon="11.584683673458764"><ele>506.0</ele><time>2026-03-27T10:19:51.999Z</time></trkpt><trkpt lat="48.18539239026244" lon="11.584675877682246"><ele>506.0</ele><time>2026-03-27T10:19:52.999Z</time></trkpt><trkpt lat="48.18549517564523" lon="11.584666889384222"><ele>506.0</ele><time>2026-03-27T10:19:53.999Z</time></trkpt><trkpt lat="48.185605587718854" lon="11.58465050575071"><ele>506.0</ele><time>2026-03-27T10:19:54.999Z</time></trkpt><trkpt lat="48.185716363555436" lon="11.584640748888782"><ele>506.0</ele><time>2026-03-27T10:19:55.999Z</time></trkpt><trkpt lat="48.18582551465314" lon="11.584630785312717"><ele>506.0</ele><time>2026-03-27T10:19:56.999Z</time></trkpt><trkpt lat="48.18593510376384" lon="11.58462531633098"><ele>506.0</ele><time>2026-03-27T10:19:57.999Z</time></trkpt><trkpt lat="48.18604268949064" lon="11.584619849218175"><ele>506.0</ele><time>2026-03-27T10:19:58.999Z</time></trkpt><trkpt lat="48.1861496024876" lon="11.58461407038027"><ele>506.0</ele><time>2026-03-27T10:19:59.999Z</time></trkpt><trkpt lat="48.186255840862394" lon="11.584606827994591"><ele>506.0</ele><time>2026-03-27T10:20:00.999Z</time></trkpt><trkpt lat="48.186358149128274" lon="11.58459730111076"><ele>506.0</ele><time>2026-03-27T10:20:01.999Z</time></trkpt><trkpt lat="48.18645675506664" lon="11.584592144672225"><ele>506.0</ele><time>2026-03-27T10:20:02.999Z</time></trkpt><trkpt lat="48.18654581234973" lon="11.584590231491353"><ele>506.0</ele><time>2026-03-27T10:20:03.999Z</time></trkpt><trkpt lat="48.186630572203875" lon="11.584592189299618"><ele>506.0</ele><time>2026-03-27T10:20:04.999Z</time></trkpt><trkpt lat="48.186714258413645" lon="11.584591989481506"><ele>505.99999999999994</ele><time>2026-03-27T10:20:05.999Z</time></trkpt><trkpt lat="48.18679405541512" lon="11.584590488210686"><ele>506.0</ele><time>2026-03-27T10:20:06.999Z</time></trkpt><trkpt lat="48.18687444167838" lon="11.584584147638427"><ele>506.0</ele><time>2026-03-27T10:20:07.999Z</time></trkpt><trkpt lat="48.18695158726982" lon="11.58458124251947"><ele>506.0</ele><time>2026-03-27T10:20:08.999Z</time></trkpt><trkpt lat="48.187026526371206" lon="11.584578426358272"><ele>505.99999999999994</ele><time>2026-03-27T10:20:09.999Z</time></trkpt><trkpt lat="48.187096963997284" lon="11.584573469982717"><ele>506.0</ele><time>2026-03-27T10:20:10.999Z</time></trkpt><trkpt lat="48.1872136539027" lon="11.584570849564818"><ele>505.99999999999994</ele><time>2026-03-27T10:20:12.999Z</time></trkpt><trkpt lat="48.18729162186961" lon="11.584566849760323"><ele>506.0</ele><time>2026-03-27T10:20:14.999Z</time></trkpt><trkpt lat="48.187354622360125" lon="11.58456515753004"><ele>506.0</ele><time>2026-03-27T10:20:17.999Z</time></trkpt><trkpt lat="48.18741930162252" lon="11.584544202170667"><ele>506.0</ele><time>2026-03-27T10:20:37.999Z</time></trkpt><trkpt lat="48.187504581513444" lon="11.584542936832193"><ele>505.99999999999994</ele><time>2026-03-27T10:20:39.999Z</time></trkpt><trkpt lat="48.18762437420322" lon="11.58453696795728"><ele>506.0</ele><time>2026-03-27T10:20:41.999Z</time></trkpt><trkpt lat="48.187740479396595" lon="11.584534134872921"><ele>506.3333333333333</ele><time>2026-03-27T10:20:43.999Z</time></trkpt><trkpt lat="48.18780773619534" lon="11.584529374873865"><ele>506.66666666666663</ele><time>2026-03-27T10:20:44.999Z</time></trkpt><trkpt lat="48.18788165256586" lon="11.584526056146006"><ele>507.0</ele><time>2026-03-27T10:20:45.999Z</time></trkpt><trkpt lat="48.18795094862021" lon="11.584523563582083"><ele>507.33333333333337</ele><time>2026-03-27T10:20:46.999Z</time></trkpt><trkpt lat="48.188026135557166" lon="11.58452282064132"><ele>507.6666666666667</ele><time>2026-03-27T10:20:47.999Z</time></trkpt><trkpt lat="48.18812245727275" lon="11.58451861448621"><ele>508.0</ele><time>2026-03-27T10:20:48.999Z</time></trkpt><trkpt lat="48.188224503333174" lon="11.584509025239587"><ele>507.0</ele><time>2026-03-27T10:20:49.999Z</time></trkpt><trkpt lat="48.1883174891652" lon="11.584502818901417"><ele>505.99999999999994</ele><time>2026-03-27T10:20:50.999Z</time></trkpt><trkpt lat="48.188404180963516" lon="11.584496536306041"><ele>504.99999999999994</ele><time>2026-03-27T10:20:51.999Z</time></trkpt><trkpt lat="48.18850213169258" lon="11.584486789106853"><ele>504.0</ele><time>2026-03-27T10:20:52.999Z</time></trkpt><trkpt lat="48.18860550004119" lon="11.584478156591718"><ele>503.0</ele><time>2026-03-27T10:20:53.999Z</time></trkpt><trkpt lat="48.18870435411232" lon="11.584471560208183"><ele>503.0</ele><time>2026-03-27T10:20:54.999Z</time></trkpt><trkpt lat="48.18879897000244" lon="11.58446523344928"><ele>502.99999999999994</ele><time>2026-03-27T10:20:55.999Z</time></trkpt><trkpt lat="48.18889377093464" lon="11.584455634329387"><ele>502.99999999999994</ele><time>2026-03-27T10:20:56.999Z</time></trkpt><trkpt lat="48.18899086089888" lon="11.584446847737016"><ele>503.0</ele><time>2026-03-27T10:20:57.999Z</time></trkpt><trkpt lat="48.18908880407792" lon="11.584438262183353"><ele>503.0</ele><time>2026-03-27T10:20:58.999Z</time></trkpt><trkpt lat="48.18917655428973" lon="11.584430226919615"><ele>502.8571428571429</ele><time>2026-03-27T10:20:59.999Z</time></trkpt><trkpt lat="48.1892544936472" lon="11.58442543962057"><ele>502.7142857142858</ele><time>2026-03-27T10:21:00.999Z</time></trkpt><trkpt lat="48.18932848490777" lon="11.584419787537946"><ele>502.57142857142856</ele><time>2026-03-27T10:21:01.999Z</time></trkpt><trkpt lat="48.18940110787594" lon="11.584415644063842"><ele>502.42857142857144</ele><time>2026-03-27T10:21:02.999Z</time></trkpt><trkpt lat="48.18947415869333" lon="11.584410048459583"><ele>502.2857142857143</ele><time>2026-03-27T10:21:03.999Z</time></trkpt><trkpt lat="48.189548798590586" lon="11.584402197170464"><ele>502.1428571428571</ele><time>2026-03-27T10:21:04.999Z</time></trkpt><trkpt lat="48.189624666251376" lon="11.584392343953178"><ele>501.99999999999994</ele><time>2026-03-27T10:21:05.999Z</time></trkpt><trkpt lat="48.189702601396746" lon="11.584385045964593"><ele>502.00000000000006</ele><time>2026-03-27T10:21:06.999Z</time></trkpt><trkpt lat="48.189779494596216" lon="11.584378139444624"><ele>502.0</ele><time>2026-03-27T10:21:07.999Z</time></trkpt><trkpt lat="48.18985786067627" lon="11.584372301067905"><ele>502.0</ele><time>2026-03-27T10:21:08.999Z</time></trkpt><trkpt lat="48.18994057373186" lon="11.584365524995459"><ele>502.0</ele><time>2026-03-27T10:21:09.999Z</time></trkpt><trkpt lat="48.19002935793072" lon="11.584357569354353"><ele>502.00000000000006</ele><time>2026-03-27T10:21:10.999Z</time></trkpt><trkpt lat="48.19012457735619" lon="11.584349276596633"><ele>502.0</ele><time>2026-03-27T10:21:11.999Z</time></trkpt><trkpt lat="48.19022360202233" lon="11.584339986335708"><ele>502.0</ele><time>2026-03-27T10:21:12.999Z</time></trkpt><trkpt lat="48.190325571862296" lon="11.584329074526131"><ele>502.00000000000006</ele><time>2026-03-27T10:21:13.999Z</time></trkpt><trkpt lat="48.19042624823317" lon="11.584319707027465"><ele>502.00000000000006</ele><time>2026-03-27T10:21:14.998Z</time></trkpt><trkpt lat="48.19052954688075" lon="11.584313062093068"><ele>502.0</ele><time>2026-03-27T10:21:15.998Z</time></trkpt><trkpt lat="48.19063370931758" lon="11.584302727822546"><ele>502.0</ele><time>2026-03-27T10:21:16.998Z</time></trkpt><trkpt lat="48.19074054073999" lon="11.584294062174816"><ele>502.20000000000005</ele><time>2026-03-27T10:21:17.998Z</time></trkpt><trkpt lat="48.190845852179535" lon="11.58429009740532"><ele>502.40000000000003</ele><time>2026-03-27T10:21:18.998Z</time></trkpt><trkpt lat="48.19095139094106" lon="11.58428576870908"><ele>502.59999999999997</ele><time>2026-03-27T10:21:19.998Z</time></trkpt><trkpt lat="48.19103967257223" lon="11.5842792347027"><ele>502.79999999999995</ele><time>2026-03-27T10:21:21Z</time></trkpt><trkpt lat="48.19112623458282" lon="11.584272496569996"><ele>503.0</ele><time>2026-03-27T10:21:22Z</time></trkpt><trkpt lat="48.19121247917773" lon="11.584268776225963"><ele>502.99999999999994</ele><time>2026-03-27T10:21:23Z</time></trkpt><trkpt lat="48.191299135756886" lon="11.584273727398008"><ele>503.0</ele><time>2026-03-27T10:21:24Z</time></trkpt><trkpt lat="48.191380469811925" lon="11.584241914036534"><ele>503.0</ele><time>2026-03-27T10:21:25Z</time></trkpt><trkpt lat="48.19146688314441" lon="11.584297830670947"><ele>503.0</ele><time>2026-03-27T10:21:26Z</time></trkpt><trkpt lat="48.19155021830936" lon="11.584321219901193"><ele>502.99999999999994</ele><time>2026-03-27T10:21:27Z</time></trkpt><trkpt lat="48.191627789771275" lon="11.5843599614771"><ele>503.0</ele><time>2026-03-27T10:21:28Z</time></trkpt><trkpt lat="48.19169920505972" lon="11.584409494545039"><ele>502.8333333333333</ele><time>2026-03-27T10:21:29Z</time></trkpt><trkpt lat="48.19176575218298" lon="11.584469645223376"><ele>502.66666666666663</ele><time>2026-03-27T10:21:30Z</time></trkpt><trkpt lat="48.1918304077098" lon="11.584547957522036"><ele>502.5</ele><time>2026-03-27T10:21:31Z</time></trkpt><trkpt lat="48.19189687168463" lon="11.584639258749878"><ele>502.33333333333337</ele><time>2026-03-27T10:21:32Z</time></trkpt><trkpt lat="48.191962327041736" lon="11.584733737809053"><ele>502.1666666666667</ele><time>2026-03-27T10:21:33Z</time></trkpt><trkpt lat="48.192019967467125" lon="11.584821664797596"><ele>502.0</ele><time>2026-03-27T10:21:34Z</time></trkpt><trkpt lat="48.19207185614836" lon="11.584905693647967"><ele>501.83333333333337</ele><time>2026-03-27T10:21:35Z</time></trkpt><trkpt lat="48.192126207168855" lon="11.58499169771913"><ele>501.6666666666667</ele><time>2026-03-27T10:21:36Z</time></trkpt><trkpt lat="48.19217511230104" lon="11.585068088036259"><ele>501.5</ele><time>2026-03-27T10:21:37Z</time></trkpt><trkpt lat="48.19222370795364" lon="11.585144898318637"><ele>501.33333333333337</ele><time>2026-03-27T10:21:38Z</time></trkpt><trkpt lat="48.19227931399716" lon="11.585224453461375"><ele>501.1666666666667</ele><time>2026-03-27T10:21:39Z</time></trkpt><trkpt lat="48.19233884597825" lon="11.585308975302752"><ele>501.0</ele><time>2026-03-27T10:21:40Z</time></trkpt><trkpt lat="48.192393750934436" lon="11.585387786129925"><ele>500.8333333333333</ele><time>2026-03-27T10:21:41Z</time></trkpt><trkpt lat="48.192447042907816" lon="11.585470597259533"><ele>500.66666666666663</ele><time>2026-03-27T10:21:42Z</time></trkpt><trkpt lat="48.19250095306875" lon="11.585557538069471"><ele>500.5</ele><time>2026-03-27T10:21:43Z</time></trkpt><trkpt lat="48.19254965673515" lon="11.585652457372003"><ele>500.3333333333333</ele><time>2026-03-27T10:21:44Z</time></trkpt><trkpt lat="48.192589061205716" lon="11.585759562172559"><ele>500.16666666666663</ele><time>2026-03-27T10:21:45Z</time></trkpt><trkpt lat="48.19261746303456" lon="11.58588349171904"><ele>500.0</ele><time>2026-03-27T10:21:46Z</time></trkpt><trkpt lat="48.19263294291888" lon="11.586018657472493"><ele>500.0</ele><time>2026-03-27T10:21:47Z</time></trkpt><trkpt lat="48.19267527644009" lon="11.586146287988205"><ele>500.0</ele><time>2026-03-27T10:21:48Z</time></trkpt><trkpt lat="48.19264399568901" lon="11.586316687411669"><ele>500.0</ele><time>2026-03-27T10:21:49Z</time></trkpt><trkpt lat="48.19264604901346" lon="11.586476235552173"><ele>500.0</ele><time>2026-03-27T10:21:50Z</time></trkpt><trkpt lat="48.19264774136732" lon="11.586640427382306"><ele>500.0</ele><time>2026-03-27T10:21:51Z</time></trkpt><trkpt lat="48.19264973791673" lon="11.586803258868285"><ele>500.2</ele><time>2026-03-27T10:21:52Z</time></trkpt><trkpt lat="48.19265128830727" lon="11.58696193677608"><ele>500.4</ele><time>2026-03-27T10:21:53Z</time></trkpt><trkpt lat="48.19265190070647" lon="11.587112291920496"><ele>500.6</ele><time>2026-03-27T10:21:54Z</time></trkpt><trkpt lat="48.19265241119069" lon="11.587258527055242"><ele>500.8</ele><time>2026-03-27T10:21:54.999Z</time></trkpt><trkpt lat="48.19265219430979" lon="11.587397135555507"><ele>501.0</ele><time>2026-03-27T10:21:55.999Z</time></trkpt><trkpt lat="48.19265337550666" lon="11.587537630428502"><ele>501.0</ele><time>2026-03-27T10:21:56.999Z</time></trkpt><trkpt lat="48.19265555061214" lon="11.587680248803084"><ele>501.0</ele><time>2026-03-27T10:21:57.999Z</time></trkpt><trkpt lat="48.1926557189863" lon="11.587823365878087"><ele>501.0</ele><time>2026-03-27T10:21:58.999Z</time></trkpt><trkpt lat="48.19265584005187" lon="11.58795446362725"><ele>501.0</ele><time>2026-03-27T10:21:59.999Z</time></trkpt><trkpt lat="48.192657344327294" lon="11.588079284463836"><ele>501.0</ele><time>2026-03-27T10:22:00.999Z</time></trkpt><trkpt lat="48.19265840536628" lon="11.588200518087868"><ele>501.0</ele><time>2026-03-27T10:22:01.999Z</time></trkpt><trkpt lat="48.192659163248344" lon="11.588313482253847"><ele>501.1666666666667</ele><time>2026-03-27T10:22:02.999Z</time></trkpt><trkpt lat="48.19265984888864" lon="11.588415913851923"><ele>501.33333333333337</ele><time>2026-03-27T10:22:03.999Z</time></trkpt><trkpt lat="48.19266149269433" lon="11.588514865443619"><ele>501.5</ele><time>2026-03-27T10:22:04.999Z</time></trkpt><trkpt lat="48.192663875876356" lon="11.588689676467556"><ele>501.6666666666667</ele><time>2026-03-27T10:22:06.999Z</time></trkpt><trkpt lat="48.192662453739906" lon="11.588862702809035"><ele>501.83333333333337</ele><time>2026-03-27T10:22:08.999Z</time></trkpt><trkpt lat="48.19266533927254" lon="11.588967590252924"><ele>502.0</ele><time>2026-03-27T10:22:09.999Z</time></trkpt><trkpt lat="48.19266586055733" lon="11.589068740603675"><ele>502.33333333333337</ele><time>2026-03-27T10:22:10.999Z</time></trkpt><trkpt lat="48.192665153361375" lon="11.589219789833253"><ele>502.6666666666667</ele><time>2026-03-27T10:22:12.999Z</time></trkpt><trkpt lat="48.192666393946766" lon="11.589350660492203"><ele>503.0</ele><time>2026-03-27T10:22:14.999Z</time></trkpt><trkpt lat="48.192667453282084" lon="11.589457132126263"><ele>503.33333333333337</ele><time>2026-03-27T10:22:16.999Z</time></trkpt><trkpt lat="48.192670076464616" lon="11.58957695492867"><ele>503.6666666666667</ele><time>2026-03-27T10:22:19.999Z</time></trkpt><trkpt lat="48.19266961456559" lon="11.589678266358431"><ele>504.0</ele><time>2026-03-27T10:22:22.999Z</time></trkpt><trkpt lat="48.19267624396015" lon="11.589820089577048"><ele>504.0</ele><time>2026-03-27T10:22:47.999Z</time></trkpt><trkpt lat="48.19267888992123" lon="11.589949028417042"><ele>504.0</ele><time>2026-03-27T10:22:49.999Z</time></trkpt><trkpt lat="48.19267922525863" lon="11.590101126275588"><ele>504.0</ele><time>2026-03-27T10:22:51.999Z</time></trkpt><trkpt lat="48.19267915251025" lon="11.590285780857235"><ele>504.0</ele><time>2026-03-27T10:22:53.999Z</time></trkpt><trkpt lat="48.192680147635535" lon="11.590388063719724"><ele>504.0</ele><time>2026-03-27T10:22:54.999Z</time></trkpt><trkpt lat="48.19267911383065" lon="11.590497387090343"><ele>503.6666666666667</ele><time>2026-03-27T10:22:55.999Z</time></trkpt><trkpt lat="48.192679821610284" lon="11.590609737721246"><ele>503.33333333333337</ele><time>2026-03-27T10:22:56.999Z</time></trkpt><trkpt lat="48.1926815526584" lon="11.590721875237154"><ele>503.0</ele><time>2026-03-27T10:22:57.999Z</time></trkpt><trkpt lat="48.192683429685076" lon="11.59084099268036"><ele>502.6666666666667</ele><time>2026-03-27T10:22:58.999Z</time></trkpt><trkpt lat="48.19268779915503" lon="11.590968643300357"><ele>502.33333333333337</ele><time>2026-03-27T10:22:59.999Z</time></trkpt><trkpt lat="48.192695282923424" lon="11.591101840228983"><ele>502.0</ele><time>2026-03-27T10:23:00.999Z</time></trkpt><trkpt lat="48.192702404674094" lon="11.591236452955634"><ele>501.6666666666667</ele><time>2026-03-27T10:23:01.999Z</time></trkpt><trkpt lat="48.19270556867902" lon="11.591367951486472"><ele>501.33333333333337</ele><time>2026-03-27T10:23:02.999Z</time></trkpt><trkpt lat="48.19271056892861" lon="11.591504485875156"><ele>501.0</ele><time>2026-03-27T10:23:03.999Z</time></trkpt><trkpt lat="48.19271489110287" lon="11.591632143459737"><ele>500.66666666666663</ele><time>2026-03-27T10:23:04.999Z</time></trkpt><trkpt lat="48.192717897304625" lon="11.591746135488656"><ele>500.3333333333333</ele><time>2026-03-27T10:23:05.999Z</time></trkpt><trkpt lat="48.19272154519344" lon="11.591861023448379"><ele>500.0</ele><time>2026-03-27T10:23:06.999Z</time></trkpt><trkpt lat="48.19272717370452" lon="11.591976074766212"><ele>499.99999999999994</ele><time>2026-03-27T10:23:07.999Z</time></trkpt><trkpt lat="48.19272745273491" lon="11.5920960617303"><ele>500.0</ele><time>2026-03-27T10:23:08.999Z</time></trkpt><trkpt lat="48.19272930177249" lon="11.5922167039271"><ele>500.0</ele><time>2026-03-27T10:23:09.999Z</time></trkpt><trkpt lat="48.19272969642926" lon="11.592345602047136"><ele>500.0</ele><time>2026-03-27T10:23:10.999Z</time></trkpt><trkpt lat="48.19273224031734" lon="11.592467931967706"><ele>499.99999999999994</ele><time>2026-03-27T10:23:11.999Z</time></trkpt><trkpt lat="48.192732771932036" lon="11.592586908870919"><ele>500.0</ele><time>2026-03-27T10:23:12.999Z</time></trkpt><trkpt lat="48.19273493588331" lon="11.592706203629103"><ele>499.99999999999994</ele><time>2026-03-27T10:23:13.999Z</time></trkpt><trkpt lat="48.19273783496121" lon="11.592826799838802"><ele>500.0</ele><time>2026-03-27T10:23:14.999Z</time></trkpt><trkpt lat="48.19273923202036" lon="11.592946214189551"><ele>500.0</ele><time>2026-03-27T10:23:15.999Z</time></trkpt><trkpt lat="48.19273945812486" lon="11.593070531990556"><ele>500.0</ele><time>2026-03-27T10:23:16.999Z</time></trkpt><trkpt lat="48.1927415669526" lon="11.593194660172601"><ele>499.99999999999994</ele><time>2026-03-27T10:23:17.999Z</time></trkpt><trkpt lat="48.192741769184586" lon="11.593307844159499"><ele>500.0</ele><time>2026-03-27T10:23:18.999Z</time></trkpt><trkpt lat="48.19274171843865" lon="11.593414239062293"><ele>500.1428571428571</ele><time>2026-03-27T10:23:19.999Z</time></trkpt><trkpt lat="48.19274437164792" lon="11.593517117868096"><ele>500.28571428571433</ele><time>2026-03-27T10:23:20.999Z</time></trkpt><trkpt lat="48.19274549067027" lon="11.5936258420999"><ele>500.42857142857144</ele><time>2026-03-27T10:23:21.999Z</time></trkpt><trkpt lat="48.19274681620343" lon="11.593742946087321"><ele>500.57142857142856</ele><time>2026-03-27T10:23:22.998Z</time></trkpt><trkpt lat="48.192749093916916" lon="11.59385615562402"><ele>500.71428571428567</ele><time>2026-03-27T10:23:23.998Z</time></trkpt><trkpt lat="48.19274846596743" lon="11.59395638408268"><ele>500.8571428571429</ele><time>2026-03-27T10:23:24.998Z</time></trkpt><trkpt lat="48.192749606973436" lon="11.594065067829796"><ele>501.0</ele><time>2026-03-27T10:23:26Z</time></trkpt><trkpt lat="48.192751062194574" lon="11.594183054103814"><ele>501.0</ele><time>2026-03-27T10:23:27Z</time></trkpt><trkpt lat="48.192752316885745" lon="11.594314541140193"><ele>501.0</ele><time>2026-03-27T10:23:28Z</time></trkpt><trkpt lat="48.19275444689907" lon="11.594449427958049"><ele>501.0</ele><time>2026-03-27T10:23:29Z</time></trkpt><trkpt lat="48.192755768934106" lon="11.594575336497767"><ele>501.0</ele><time>2026-03-27T10:23:30Z</time></trkpt><trkpt lat="48.19275630730581" lon="11.594692661593024"><ele>501.0</ele><time>2026-03-27T10:23:31Z</time></trkpt><trkpt lat="48.19275646008086" lon="11.594811809517"><ele>501.0</ele><time>2026-03-27T10:23:32Z</time></trkpt><trkpt lat="48.192755782098466" lon="11.59493600345299"><ele>501.0</ele><time>2026-03-27T10:23:33Z</time></trkpt><trkpt lat="48.19276013581247" lon="11.595062252596977"><ele>501.0</ele><time>2026-03-27T10:23:34Z</time></trkpt><trkpt lat="48.192763299778946" lon="11.595182052984313"><ele>501.0</ele><time>2026-03-27T10:23:35Z</time></trkpt><trkpt lat="48.19276244194956" lon="11.595296864490269"><ele>501.0</ele><time>2026-03-27T10:23:36Z</time></trkpt><trkpt lat="48.19276263288073" lon="11.595393434170408"><ele>501.0</ele><time>2026-03-27T10:23:37Z</time></trkpt><trkpt lat="48.192765491762934" lon="11.595564092708463"><ele>501.0</ele><time>2026-03-27T10:23:39Z</time></trkpt><trkpt lat="48.19276602498279" lon="11.595713064832545"><ele>501.1666666666667</ele><time>2026-03-27T10:23:41Z</time></trkpt><trkpt lat="48.1927677112129" lon="11.595860429788349"><ele>501.33333333333337</ele><time>2026-03-27T10:23:43Z</time></trkpt><trkpt lat="48.19277030989447" lon="11.595974578208446"><ele>501.5</ele><time>2026-03-27T10:23:45Z</time></trkpt><trkpt lat="48.19277071341084" lon="11.596072420760667"><ele>501.6666666666667</ele><time>2026-03-27T10:23:47Z</time></trkpt><trkpt lat="48.19277635163225" lon="11.596181883912811"><ele>501.83333333333337</ele><time>2026-03-27T10:24:14.999Z</time></trkpt><trkpt lat="48.19277504811722" lon="11.5963246250188"><ele>502.0</ele><time>2026-03-27T10:24:17.999Z</time></trkpt><trkpt lat="48.19277698941592" lon="11.596453797560782"><ele>501.6666666666667</ele><time>2026-03-27T10:24:19.999Z</time></trkpt><trkpt lat="48.192778206975646" lon="11.596552631989882"><ele>501.33333333333337</ele><time>2026-03-27T10:24:20.999Z</time></trkpt><trkpt lat="48.19278064828888" lon="11.596742497216342"><ele>501.0</ele><time>2026-03-27T10:24:22.999Z</time></trkpt><trkpt lat="48.192782497279445" lon="11.596841055787861"><ele>500.66666666666663</ele><time>2026-03-27T10:24:23.999Z</time></trkpt><trkpt lat="48.192783737606824" lon="11.596946181492827"><ele>500.3333333333333</ele><time>2026-03-27T10:24:24.999Z</time></trkpt><trkpt lat="48.192785511315165" lon="11.597057241032227"><ele>500.0</ele><time>2026-03-27T10:24:25.999Z</time></trkpt><trkpt lat="48.1927857152955" lon="11.597179008920115"><ele>499.99999999999994</ele><time>2026-03-27T10:24:26.999Z</time></trkpt><trkpt lat="48.19278652585257" lon="11.59730632518145"><ele>500.0</ele><time>2026-03-27T10:24:27.999Z</time></trkpt><trkpt lat="48.192787823325965" lon="11.597430160211948"><ele>500.0</ele><time>2026-03-27T10:24:28.999Z</time></trkpt><trkpt lat="48.19278854872648" lon="11.597558997967335"><ele>500.0</ele><time>2026-03-27T10:24:29.999Z</time></trkpt><trkpt lat="48.19279201218688" lon="11.59769782943075"><ele>499.99999999999994</ele><time>2026-03-27T10:24:30.999Z</time></trkpt><trkpt lat="48.19279186996223" lon="11.597836880873837"><ele>500.0</ele><time>2026-03-27T10:24:31.999Z</time></trkpt><trkpt lat="48.192793519072914" lon="11.597975172111"><ele>500.0</ele><time>2026-03-27T10:24:32.999Z</time></trkpt><trkpt lat="48.19279420195368" lon="11.598116728359068"><ele>500.0</ele><time>2026-03-27T10:24:33.999Z</time></trkpt><trkpt lat="48.1927961679709" lon="11.598262900555621"><ele>500.0</ele><time>2026-03-27T10:24:34.999Z</time></trkpt><trkpt lat="48.192800391552126" lon="11.598413093777982"><ele>500.0</ele><time>2026-03-27T10:24:35.999Z</time></trkpt><trkpt lat="48.19280085868146" lon="11.598567750513364"><ele>500.0</ele><time>2026-03-27T10:24:36.999Z</time></trkpt><trkpt lat="48.1928023442945" lon="11.598715323578826"><ele>499.8</ele><time>2026-03-27T10:24:37.999Z</time></trkpt><trkpt lat="48.1928028338446" lon="11.598857480411763"><ele>499.6</ele><time>2026-03-27T10:24:38.999Z</time></trkpt><trkpt lat="48.192803460934755" lon="11.599010040051168"><ele>499.4</ele><time>2026-03-27T10:24:39.999Z</time></trkpt><trkpt lat="48.19280499292327" lon="11.59916538837452"><ele>499.2</ele><time>2026-03-27T10:24:40.999Z</time></trkpt><trkpt lat="48.192807018928846" lon="11.599313355377602"><ele>499.0</ele><time>2026-03-27T10:24:41.999Z</time></trkpt><trkpt lat="48.19280772197542" lon="11.59946103262395"><ele>499.4</ele><time>2026-03-27T10:24:42.999Z</time></trkpt><trkpt lat="48.19280975720836" lon="11.599616339733513"><ele>499.79999999999995</ele><time>2026-03-27T10:24:43.999Z</time></trkpt><trkpt lat="48.192810471927764" lon="11.599756746243408"><ele>500.20000000000005</ele><time>2026-03-27T10:24:44.999Z</time></trkpt><trkpt lat="48.19281164125447" lon="11.599888871771421"><ele>500.6</ele><time>2026-03-27T10:24:45.999Z</time></trkpt><trkpt lat="48.19281410600861" lon="11.60000780785731"><ele>501.0</ele><time>2026-03-27T10:24:46.999Z</time></trkpt><trkpt lat="48.19281700284702" lon="11.600177876393646"><ele>501.0</ele><time>2026-03-27T10:24:48.999Z</time></trkpt><trkpt lat="48.19282082727366" lon="11.600315762343302"><ele>501.0</ele><time>2026-03-27T10:24:50.999Z</time></trkpt><trkpt lat="48.19282303422735" lon="11.600471998321993"><ele>501.0</ele><time>2026-03-27T10:24:52.999Z</time></trkpt><trkpt lat="48.192827908540536" lon="11.600575147865143"><ele>501.0</ele><time>2026-03-27T10:24:53.999Z</time></trkpt><trkpt lat="48.1928343364821" lon="11.600674308483953"><ele>501.0</ele><time>2026-03-27T10:24:54.999Z</time></trkpt><trkpt lat="48.19284180157208" lon="11.600768603124191"><ele>501.0</ele><time>2026-03-27T10:24:55.999Z</time></trkpt><trkpt lat="48.19285862500641" lon="11.600870863212437"><ele>500.8</ele><time>2026-03-27T10:24:56.999Z</time></trkpt><trkpt lat="48.19288717176424" lon="11.60099026302277"><ele>500.6</ele><time>2026-03-27T10:24:57.999Z</time></trkpt><trkpt lat="48.19292517822809" lon="11.601116645057814"><ele>500.4</ele><time>2026-03-27T10:24:58.999Z</time></trkpt><trkpt lat="48.192967272545964" lon="11.601231320613294"><ele>500.2</ele><time>2026-03-27T10:24:59.999Z</time></trkpt><trkpt lat="48.193016299768196" lon="11.601354992368208"><ele>500.0</ele><time>2026-03-27T10:25:00.999Z</time></trkpt><trkpt lat="48.193065921698285" lon="11.60148859627599"><ele>500.0</ele><time>2026-03-27T10:25:01.999Z</time></trkpt><trkpt lat="48.19310894420021" lon="11.601633935003456"><ele>500.0</ele><time>2026-03-27T10:25:02.999Z</time></trkpt><trkpt lat="48.193156595004105" lon="11.601762235838963"><ele>500.0</ele><time>2026-03-27T10:25:03.999Z</time></trkpt><trkpt lat="48.193201915630816" lon="11.601890259482095"><ele>500.0</ele><time>2026-03-27T10:25:04.999Z</time></trkpt><trkpt lat="48.19325597340587" lon="11.602016704875"><ele>500.0</ele><time>2026-03-27T10:25:05.999Z</time></trkpt><trkpt lat="48.19331961880907" lon="11.602139035177641"><ele>500.0</ele><time>2026-03-27T10:25:06.999Z</time></trkpt><trkpt lat="48.19339590096046" lon="11.602255206299464"><ele>500.0</ele><time>2026-03-27T10:25:07.999Z</time></trkpt><trkpt lat="48.19348073129992" lon="11.602354447007084"><ele>500.0</ele><time>2026-03-27T10:25:08.999Z</time></trkpt><trkpt lat="48.193573862434704" lon="11.60244126805298"><ele>500.0</ele><time>2026-03-27T10:25:09.999Z</time></trkpt><trkpt lat="48.193665636523704" lon="11.602506102725071"><ele>500.0</ele><time>2026-03-27T10:25:10.999Z</time></trkpt><trkpt lat="48.193763529556435" lon="11.602564882811798"><ele>500.0</ele><time>2026-03-27T10:25:11.999Z</time></trkpt><trkpt lat="48.193866121650444" lon="11.602618851651341"><ele>500.0</ele><time>2026-03-27T10:25:12.999Z</time></trkpt><trkpt lat="48.19397261092107" lon="11.602670958935132"><ele>500.0</ele><time>2026-03-27T10:25:13.999Z</time></trkpt><trkpt lat="48.194082715871396" lon="11.602727004960546"><ele>500.0</ele><time>2026-03-27T10:25:14.999Z</time></trkpt><trkpt lat="48.19419442199895" lon="11.602780635427719"><ele>499.5</ele><time>2026-03-27T10:25:15.999Z</time></trkpt><trkpt lat="48.194302475304525" lon="11.60283524673456"><ele>499.0</ele><time>2026-03-27T10:25:16.999Z</time></trkpt><trkpt lat="48.194410825637576" lon="11.602888961831368"><ele>498.5</ele><time>2026-03-27T10:25:17.999Z</time></trkpt><trkpt lat="48.19452108985275" lon="11.60294057819379"><ele>498.0</ele><time>2026-03-27T10:25:18.999Z</time></trkpt><trkpt lat="48.194628574361275" lon="11.602993716915494"><ele>498.0</ele><time>2026-03-27T10:25:19.999Z</time></trkpt><trkpt lat="48.19473029853367" lon="11.6030465615611"><ele>497.99999999999994</ele><time>2026-03-27T10:25:20.999Z</time></trkpt><trkpt lat="48.194834157772135" lon="11.60309786183942"><ele>497.99999999999994</ele><time>2026-03-27T10:25:21.999Z</time></trkpt><trkpt lat="48.194939895079585" lon="11.603151149530591"><ele>498.0</ele><time>2026-03-27T10:25:22.999Z</time></trkpt><trkpt lat="48.195049364216366" lon="11.603204982951418"><ele>498.0</ele><time>2026-03-27T10:25:23.999Z</time></trkpt><trkpt lat="48.19515540164879" lon="11.603257783693802"><ele>498.2</ele><time>2026-03-27T10:25:24.999Z</time></trkpt><trkpt lat="48.19526380060427" lon="11.603310605831483"><ele>498.4</ele><time>2026-03-27T10:25:25.999Z</time></trkpt><trkpt lat="48.19537274348622" lon="11.6033650412405"><ele>498.59999999999997</ele><time>2026-03-27T10:25:26.999Z</time></trkpt><trkpt lat="48.19547505609793" lon="11.603415585227252"><ele>498.79999999999995</ele><time>2026-03-27T10:25:27.999Z</time></trkpt><trkpt lat="48.195574355822664" lon="11.603470252926952"><ele>499.0</ele><time>2026-03-27T10:25:28.999Z</time></trkpt><trkpt lat="48.19567717062858" lon="11.603521872866764"><ele>499.0</ele><time>2026-03-27T10:25:29.999Z</time></trkpt><trkpt lat="48.19578114531174" lon="11.603575133746942"><ele>499.0</ele><time>2026-03-27T10:25:30.999Z</time></trkpt><trkpt lat="48.19588637182751" lon="11.603629039264787"><ele>499.0</ele><time>2026-03-27T10:25:32Z</time></trkpt><trkpt lat="48.19598897058438" lon="11.603684786493664"><ele>499.0</ele><time>2026-03-27T10:25:33Z</time></trkpt><trkpt lat="48.1960899409825" lon="11.60374265302819"><ele>499.0</ele><time>2026-03-27T10:25:34Z</time></trkpt><trkpt lat="48.19619056907933" lon="11.603796682797517"><ele>499.0</ele><time>2026-03-27T10:25:35Z</time></trkpt><trkpt lat="48.19628999580838" lon="11.603849123249361"><ele>499.0</ele><time>2026-03-27T10:25:36Z</time></trkpt><trkpt lat="48.196390365009805" lon="11.603900326290887"><ele>499.0</ele><time>2026-03-27T10:25:37Z</time></trkpt><trkpt lat="48.19647929168798" lon="11.60394680765704"><ele>499.0</ele><time>2026-03-27T10:25:38Z</time></trkpt><trkpt lat="48.1965684042308" lon="11.60399186373096"><ele>499.0</ele><time>2026-03-27T10:25:39Z</time></trkpt><trkpt lat="48.196655701383136" lon="11.604034971548627"><ele>499.2</ele><time>2026-03-27T10:25:40Z</time></trkpt><trkpt lat="48.19674615006564" lon="11.604076536075201"><ele>499.4</ele><time>2026-03-27T10:25:41Z</time></trkpt><trkpt lat="48.196843374834316" lon="11.604117423972701"><ele>499.6</ele><time>2026-03-27T10:25:42Z</time></trkpt><trkpt lat="48.19693272266848" lon="11.604155783357218"><ele>499.8</ele><time>2026-03-27T10:25:43Z</time></trkpt><trkpt lat="48.19701198359618" lon="11.604196959399543"><ele>500.0</ele><time>2026-03-27T10:25:44Z</time></trkpt><trkpt lat="48.19709456847026" lon="11.604237665703256"><ele>500.0</ele><time>2026-03-27T10:25:45Z</time></trkpt><trkpt lat="48.19717755008498" lon="11.604277787974388"><ele>500.0</ele><time>2026-03-27T10:25:46Z</time></trkpt><trkpt lat="48.19726707013077" lon="11.60431906300508"><ele>500.0</ele><time>2026-03-27T10:25:47Z</time></trkpt><trkpt lat="48.19734487332066" lon="11.604355433403152"><ele>500.0</ele><time>2026-03-27T10:25:48Z</time></trkpt><trkpt lat="48.19744768001415" lon="11.604406151958962"><ele>500.0</ele><time>2026-03-27T10:25:50Z</time></trkpt><trkpt lat="48.197526587718166" lon="11.604443731423501"><ele>499.6</ele><time>2026-03-27T10:25:52Z</time></trkpt><trkpt lat="48.197599645706056" lon="11.604480556474005"><ele>499.2</ele><time>2026-03-27T10:25:54Z</time></trkpt><trkpt lat="48.19770012273561" lon="11.60452809424415"><ele>498.79999999999995</ele><time>2026-03-27T10:25:56Z</time></trkpt><trkpt lat="48.19780221012854" lon="11.604579119563063"><ele>498.4</ele><time>2026-03-27T10:25:58Z</time></trkpt><trkpt lat="48.197921314605935" lon="11.604640487576567"><ele>498.0</ele><time>2026-03-27T10:26:00Z</time></trkpt><trkpt lat="48.19798611334716" lon="11.604673600161298"><ele>498.0</ele><time>2026-03-27T10:26:01Z</time></trkpt><trkpt lat="48.19805524501788" lon="11.604710988541136"><ele>497.99999999999994</ele><time>2026-03-27T10:26:02Z</time></trkpt><trkpt lat="48.19812624261784" lon="11.604747454479933"><ele>498.0</ele><time>2026-03-27T10:26:03Z</time></trkpt><trkpt lat="48.19819757095232" lon="11.604784016193156"><ele>498.0</ele><time>2026-03-27T10:26:04Z</time></trkpt><trkpt lat="48.19826769029331" lon="11.604821218716374"><ele>497.99999999999994</ele><time>2026-03-27T10:26:05Z</time></trkpt><trkpt lat="48.19833423484888" lon="11.60485914169811"><ele>498.0</ele><time>2026-03-27T10:26:06Z</time></trkpt><trkpt lat="48.19840095253786" lon="11.60489746966707"><ele>498.0</ele><time>2026-03-27T10:26:07Z</time></trkpt><trkpt lat="48.19846847158127" lon="11.604934344757915"><ele>498.0</ele><time>2026-03-27T10:26:08Z</time></trkpt><trkpt lat="48.19853602903124" lon="11.604971794043411"><ele>498.0</ele><time>2026-03-27T10:26:09Z</time></trkpt><trkpt lat="48.198638159857865" lon="11.605022557364302"><ele>498.0</ele><time>2026-03-27T10:26:11Z</time></trkpt><trkpt lat="48.198715487635184" lon="11.605066411531093"><ele>498.0</ele><time>2026-03-27T10:26:13Z</time></trkpt><trkpt lat="48.198781076965226" lon="11.605099761317822"><ele>498.0</ele><time>2026-03-27T10:26:15Z</time></trkpt><trkpt lat="48.19885941834075" lon="11.60511863102982"><ele>498.0</ele><time>2026-03-27T10:26:32.999Z</time></trkpt><trkpt lat="48.19893705017281" lon="11.605160434515652"><ele>498.0</ele><time>2026-03-27T10:26:34.999Z</time></trkpt><trkpt lat="48.19904475979937" lon="11.605206417262771"><ele>498.0</ele><time>2026-03-27T10:26:36.999Z</time></trkpt><trkpt lat="48.19911368183093" lon="11.605232362239738"><ele>498.0</ele><time>2026-03-27T10:26:37.999Z</time></trkpt><trkpt lat="48.19918072345316" lon="11.6052535989761"><ele>498.0</ele><time>2026-03-27T10:26:38.999Z</time></trkpt><trkpt lat="48.199248388639305" lon="11.605278089582164"><ele>498.0</ele><time>2026-03-27T10:26:39.999Z</time></trkpt><trkpt lat="48.19931661173764" lon="11.605307406536342"><ele>498.0</ele><time>2026-03-27T10:26:40.999Z</time></trkpt><trkpt lat="48.199385732299376" lon="11.605336315121052"><ele>498.1428571428571</ele><time>2026-03-27T10:26:41.999Z</time></trkpt><trkpt lat="48.19945191636705" lon="11.605365596906978"><ele>498.2857142857142</ele><time>2026-03-27T10:26:42.999Z</time></trkpt><trkpt lat="48.199512815510616" lon="11.605395068534495"><ele>498.42857142857144</ele><time>2026-03-27T10:26:43.999Z</time></trkpt><trkpt lat="48.199574110468866" lon="11.60542702653796"><ele>498.57142857142856</ele><time>2026-03-27T10:26:44.999Z</time></trkpt><trkpt lat="48.19963832721563" lon="11.60545847721796"><ele>498.7142857142857</ele><time>2026-03-27T10:26:45.999Z</time></trkpt><trkpt lat="48.199705265129154" lon="11.60549261062045"><ele>498.8571428571429</ele><time>2026-03-27T10:26:46.999Z</time></trkpt><trkpt lat="48.19977032310704" lon="11.605524535910996"><ele>499.00000000000006</ele><time>2026-03-27T10:26:47.999Z</time></trkpt><trkpt lat="48.199835124434124" lon="11.605535046934895"><ele>498.6</ele><time>2026-03-27T10:26:48.999Z</time></trkpt><trkpt lat="48.199950540119865" lon="11.605590749782815"><ele>498.2</ele><time>2026-03-27T10:26:50.999Z</time></trkpt><trkpt lat="48.200052953695426" lon="11.605641608370112"><ele>497.80000000000007</ele><time>2026-03-27T10:26:52.999Z</time></trkpt><trkpt lat="48.20014912239732" lon="11.605686139278912"><ele>497.40000000000003</ele><time>2026-03-27T10:26:54.999Z</time></trkpt><trkpt lat="48.20023331023385" lon="11.60572954242116"><ele>497.0</ele><time>2026-03-27T10:26:56.999Z</time></trkpt><trkpt lat="48.20030867860658" lon="11.605768499064665"><ele>497.0</ele><time>2026-03-27T10:26:59.999Z</time></trkpt><trkpt lat="48.20037587612632" lon="11.605802395318449"><ele>497.00000000000006</ele><time>2026-03-27T10:27:06.999Z</time></trkpt><trkpt lat="48.200455025128555" lon="11.605819222504138"><ele>497.00000000000006</ele><time>2026-03-27T10:27:09.999Z</time></trkpt><trkpt lat="48.200541278761975" lon="11.605855794621553"><ele>497.0</ele><time>2026-03-27T10:27:12.999Z</time></trkpt><trkpt lat="48.2006078331875" lon="11.605590913529449"><ele>497.0</ele><time>2026-03-27T10:27:14.999Z</time></trkpt><trkpt lat="48.20062787991024" lon="11.605480515572607"><ele>496.99999999999994</ele><time>2026-03-27T10:27:15.999Z</time></trkpt><trkpt lat="48.20064524441874" lon="11.605378924820593"><ele>497.0</ele><time>2026-03-27T10:27:16.999Z</time></trkpt><trkpt lat="48.200662386320964" lon="11.605273239479388"><ele>497.0</ele><time>2026-03-27T10:27:17.999Z</time></trkpt><trkpt lat="48.200678513845276" lon="11.605146393038586"><ele>497.0</ele><time>2026-03-27T10:27:18.999Z</time></trkpt><trkpt lat="48.20069603432864" lon="11.605006481405992"><ele>496.99999999999994</ele><time>2026-03-27T10:27:19.999Z</time></trkpt><trkpt lat="48.2007132134887" lon="11.604869725738256"><ele>497.0</ele><time>2026-03-27T10:27:20.999Z</time></trkpt><trkpt lat="48.20072933584236" lon="11.60474214388814"><ele>497.40000000000003</ele><time>2026-03-27T10:27:21.999Z</time></trkpt><trkpt lat="48.20074567599999" lon="11.604616361902385"><ele>497.80000000000007</ele><time>2026-03-27T10:27:22.999Z</time></trkpt><trkpt lat="48.20076232955933" lon="11.604488705987217"><ele>498.2</ele><time>2026-03-27T10:27:23.999Z</time></trkpt><trkpt lat="48.2007778498083" lon="11.604355841288644"><ele>498.6</ele><time>2026-03-27T10:27:24.999Z</time></trkpt><trkpt lat="48.20079539861908" lon="11.604218519162648"><ele>499.0</ele><time>2026-03-27T10:27:25.999Z</time></trkpt><trkpt lat="48.200825175707934" lon="11.603927332421229"><ele>499.0</ele><time>2026-03-27T10:27:27.999Z</time></trkpt><trkpt lat="48.200837973270815" lon="11.603771627734355"><ele>499.0</ele><time>2026-03-27T10:27:28.999Z</time></trkpt><trkpt lat="48.200850953905025" lon="11.603612041404382"><ele>499.0</ele><time>2026-03-27T10:27:29.999Z</time></trkpt><trkpt lat="48.200865004031904" lon="11.603450609708865"><ele>499.0</ele><time>2026-03-27T10:27:30.999Z</time></trkpt><trkpt lat="48.20088232138918" lon="11.60329367929362"><ele>499.0</ele><time>2026-03-27T10:27:31.999Z</time></trkpt><trkpt lat="48.20090253405391" lon="11.603141202880712"><ele>499.0</ele><time>2026-03-27T10:27:32.999Z</time></trkpt><trkpt lat="48.200920592527545" lon="11.60298501735343"><ele>499.0</ele><time>2026-03-27T10:27:33.999Z</time></trkpt><trkpt lat="48.20094617797159" lon="11.60281064075459"><ele>499.0</ele><time>2026-03-27T10:27:34.999Z</time></trkpt><trkpt lat="48.20097002987286" lon="11.602607596637855"><ele>499.0</ele><time>2026-03-27T10:27:35.999Z</time></trkpt><trkpt lat="48.20099608701751" lon="11.602416032348579"><ele>498.75</ele><time>2026-03-27T10:27:36.999Z</time></trkpt><trkpt lat="48.20102310268717" lon="11.60222523898842"><ele>498.5</ele><time>2026-03-27T10:27:38Z</time></trkpt><trkpt lat="48.201045782781584" lon="11.602046223499691"><ele>498.25</ele><time>2026-03-27T10:27:39Z</time></trkpt><trkpt lat="48.20106575756329" lon="11.601883002636676"><ele>498.0</ele><time>2026-03-27T10:27:40Z</time></trkpt><trkpt lat="48.20108548431663" lon="11.601719025106187"><ele>498.25</ele><time>2026-03-27T10:27:41Z</time></trkpt><trkpt lat="48.20110249925717" lon="11.601554498635073"><ele>498.5</ele><time>2026-03-27T10:27:42Z</time></trkpt><trkpt lat="48.20112162258182" lon="11.601387328866918"><ele>498.75</ele><time>2026-03-27T10:27:43Z</time></trkpt><trkpt lat="48.2011408447201" lon="11.601213582778609"><ele>499.0</ele><time>2026-03-27T10:27:44Z</time></trkpt><trkpt lat="48.20115848856329" lon="11.6010332227229"><ele>499.0</ele><time>2026-03-27T10:27:45Z</time></trkpt><trkpt lat="48.201178619096666" lon="11.600854039993076"><ele>499.0</ele><time>2026-03-27T10:27:46Z</time></trkpt><trkpt lat="48.2011964095719" lon="11.600686255860886"><ele>499.0</ele><time>2026-03-27T10:27:47Z</time></trkpt><trkpt lat="48.20121404042488" lon="11.60052811969666"><ele>499.0</ele><time>2026-03-27T10:27:48Z</time></trkpt><trkpt lat="48.20123218593991" lon="11.6003687485039"><ele>499.0</ele><time>2026-03-27T10:27:49Z</time></trkpt><trkpt lat="48.201251974586725" lon="11.600210475096064"><ele>498.79999999999995</ele><time>2026-03-27T10:27:50Z</time></trkpt><trkpt lat="48.201270009435895" lon="11.60005828449306"><ele>498.59999999999997</ele><time>2026-03-27T10:27:51Z</time></trkpt><trkpt lat="48.201289362905506" lon="11.599907061547231"><ele>498.4</ele><time>2026-03-27T10:27:52Z</time></trkpt><trkpt lat="48.201309786645616" lon="11.599750915297825"><ele>498.2</ele><time>2026-03-27T10:27:53Z</time></trkpt><trkpt lat="48.2013299484639" lon="11.599587711506247"><ele>498.0</ele><time>2026-03-27T10:27:54Z</time></trkpt><trkpt lat="48.20134939918966" lon="11.599438600892995"><ele>498.0</ele><time>2026-03-27T10:27:55Z</time></trkpt><trkpt lat="48.201371591409725" lon="11.59930788067399"><ele>498.0</ele><time>2026-03-27T10:27:56Z</time></trkpt><trkpt lat="48.20139434016007" lon="11.599186063383415"><ele>498.0</ele><time>2026-03-27T10:27:57Z</time></trkpt><trkpt lat="48.201397944712426" lon="11.599065937662553"><ele>498.0</ele><time>2026-03-27T10:27:58Z</time></trkpt><trkpt lat="48.20142447138736" lon="11.59895885586317"><ele>498.0</ele><time>2026-03-27T10:27:59Z</time></trkpt><trkpt lat="48.20143744362865" lon="11.598855123968184"><ele>498.0</ele><time>2026-03-27T10:28:00Z</time></trkpt><trkpt lat="48.20144590991023" lon="11.598757369686796"><ele>498.0</ele><time>2026-03-27T10:28:01Z</time></trkpt><trkpt lat="48.20146247325741" lon="11.59858334966686"><ele>497.99999999999994</ele><time>2026-03-27T10:28:03Z</time></trkpt><trkpt lat="48.20147805151957" lon="11.598465583833452"><ele>497.99999999999994</ele><time>2026-03-27T10:28:05Z</time></trkpt><trkpt lat="48.201495138671646" lon="11.598338701742414"><ele>498.0</ele><time>2026-03-27T10:28:30Z</time></trkpt><trkpt lat="48.201503731345646" lon="11.598207497256242"><ele>498.0</ele><time>2026-03-27T10:28:32Z</time></trkpt><trkpt lat="48.20151013213359" lon="11.598013600174662"><ele>498.2</ele><time>2026-03-27T10:28:34Z</time></trkpt><trkpt lat="48.201519028145654" lon="11.597896258660132"><ele>498.4</ele><time>2026-03-27T10:28:35Z</time></trkpt><trkpt lat="48.2015331975055" lon="11.59777009334338"><ele>498.59999999999997</ele><time>2026-03-27T10:28:36Z</time></trkpt><trkpt lat="48.201551534588006" lon="11.59763446078235"><ele>498.79999999999995</ele><time>2026-03-27T10:28:37Z</time></trkpt><trkpt lat="48.20156878978176" lon="11.597490354761936"><ele>499.0</ele><time>2026-03-27T10:28:38Z</time></trkpt><trkpt lat="48.20158779353548" lon="11.597343025331876"><ele>499.0</ele><time>2026-03-27T10:28:39Z</time></trkpt><trkpt lat="48.201607619202" lon="11.597193668516178"><ele>499.0</ele><time>2026-03-27T10:28:40Z</time></trkpt><trkpt lat="48.20162823077968" lon="11.597031799144895"><ele>499.0</ele><time>2026-03-27T10:28:41Z</time></trkpt><trkpt lat="48.20164709729302" lon="11.596871457461566"><ele>499.0</ele><time>2026-03-27T10:28:42Z</time></trkpt><trkpt lat="48.201667178067424" lon="11.59671359379347"><ele>499.0</ele><time>2026-03-27T10:28:43Z</time></trkpt><trkpt lat="48.20168545057573" lon="11.59655736933182"><ele>499.0</ele><time>2026-03-27T10:28:43.999Z</time></trkpt><trkpt lat="48.20170443729033" lon="11.596406845006335"><ele>499.0</ele><time>2026-03-27T10:28:44.999Z</time></trkpt><trkpt lat="48.20172443308383" lon="11.596256285973578"><ele>499.0</ele><time>2026-03-27T10:28:45.999Z</time></trkpt><trkpt lat="48.20174417475361" lon="11.596105902555404"><ele>499.0</ele><time>2026-03-27T10:28:46.999Z</time></trkpt><trkpt lat="48.20176362024881" lon="11.59595206655587"><ele>499.0</ele><time>2026-03-27T10:28:47.999Z</time></trkpt><trkpt lat="48.20178312270692" lon="11.595796593071155"><ele>499.2</ele><time>2026-03-27T10:28:48.999Z</time></trkpt><trkpt lat="48.2018017285774" lon="11.595635695877506"><ele>499.4</ele><time>2026-03-27T10:28:49.999Z</time></trkpt><trkpt lat="48.201821534202296" lon="11.595468366241027"><ele>499.6</ele><time>2026-03-27T10:28:50.999Z</time></trkpt><trkpt lat="48.20183881622375" lon="11.595301991905837"><ele>499.8</ele><time>2026-03-27T10:28:51.999Z</time></trkpt><trkpt lat="48.201853214505626" lon="11.59513676703743"><ele>500.0</ele><time>2026-03-27T10:28:52.999Z</time></trkpt><trkpt lat="48.201863526739295" lon="11.594973215859723"><ele>500.0</ele><time>2026-03-27T10:28:53.999Z</time></trkpt><trkpt lat="48.20186803058971" lon="11.594809031396556"><ele>500.0</ele><time>2026-03-27T10:28:54.999Z</time></trkpt><trkpt lat="48.20186898684067" lon="11.594646888922032"><ele>500.0</ele><time>2026-03-27T10:28:55.999Z</time></trkpt><trkpt lat="48.20186693177811" lon="11.594482436351928"><ele>500.0</ele><time>2026-03-27T10:28:56.999Z</time></trkpt><trkpt lat="48.20185870506882" lon="11.594318014311197"><ele>500.0</ele><time>2026-03-27T10:28:57.999Z</time></trkpt><trkpt lat="48.201847105171005" lon="11.594152533329554"><ele>500.25</ele><time>2026-03-27T10:28:58.999Z</time></trkpt><trkpt lat="48.201831983680435" lon="11.593986186984324"><ele>500.5</ele><time>2026-03-27T10:28:59.999Z</time></trkpt><trkpt lat="48.201814997031775" lon="11.593818542270654"><ele>500.75</ele><time>2026-03-27T10:29:00.999Z</time></trkpt><trkpt lat="48.20179937405305" lon="11.593649054257613"><ele>501.0</ele><time>2026-03-27T10:29:01.999Z</time></trkpt><trkpt lat="48.20177772699616" lon="11.593482739100283"><ele>500.6</ele><time>2026-03-27T10:29:02.999Z</time></trkpt><trkpt lat="48.20175619811202" lon="11.593313927511254"><ele>500.20000000000005</ele><time>2026-03-27T10:29:03.999Z</time></trkpt><trkpt lat="48.20174985659846" lon="11.593155020887428"><ele>499.79999999999995</ele><time>2026-03-27T10:29:04.999Z</time></trkpt><trkpt lat="48.20173079563045" lon="11.59300366177037"><ele>499.4</ele><time>2026-03-27T10:29:05.999Z</time></trkpt><trkpt lat="48.201710217620835" lon="11.592850390266769"><ele>499.0</ele><time>2026-03-27T10:29:06.999Z</time></trkpt><trkpt lat="48.201688639897085" lon="11.59269708158366"><ele>499.0</ele><time>2026-03-27T10:29:07.999Z</time></trkpt><trkpt lat="48.201661617290156" lon="11.5925426308373"><ele>499.0</ele><time>2026-03-27T10:29:08.999Z</time></trkpt><trkpt lat="48.20163734674913" lon="11.592384137232735"><ele>499.0</ele><time>2026-03-27T10:29:09.999Z</time></trkpt><trkpt lat="48.20161303961238" lon="11.592224526413402"><ele>499.0</ele><time>2026-03-27T10:29:10.999Z</time></trkpt><trkpt lat="48.201591093105705" lon="11.592068398468454"><ele>499.0</ele><time>2026-03-27T10:29:11.999Z</time></trkpt><trkpt lat="48.201570037396664" lon="11.591914335931511"><ele>499.0</ele><time>2026-03-27T10:29:12.999Z</time></trkpt><trkpt lat="48.201552717947784" lon="11.59176241780888"><ele>499.0</ele><time>2026-03-27T10:29:13.999Z</time></trkpt><trkpt lat="48.20153624588076" lon="11.591611819996066"><ele>499.0</ele><time>2026-03-27T10:29:14.999Z</time></trkpt><trkpt lat="48.20152069571152" lon="11.591462189631503"><ele>499.0</ele><time>2026-03-27T10:29:15.999Z</time></trkpt><trkpt lat="48.20150788960877" lon="11.59132521671272"><ele>499.0</ele><time>2026-03-27T10:29:16.999Z</time></trkpt><trkpt lat="48.20149621328789" lon="11.591196332477356"><ele>499.6666666666667</ele><time>2026-03-27T10:29:17.999Z</time></trkpt><trkpt lat="48.20148326921864" lon="11.591065735589524"><ele>500.33333333333337</ele><time>2026-03-27T10:29:18.999Z</time></trkpt><trkpt lat="48.20147168465006" lon="11.590936084988952"><ele>501.0</ele><time>2026-03-27T10:29:19.999Z</time></trkpt><trkpt lat="48.201460146118926" lon="11.590814951945507"><ele>501.66666666666663</ele><time>2026-03-27T10:29:20.999Z</time></trkpt><trkpt lat="48.20145026070265" lon="11.590705905013237"><ele>502.3333333333333</ele><time>2026-03-27T10:29:21.999Z</time></trkpt><trkpt lat="48.201441054168164" lon="11.590606729736797"><ele>503.0</ele><time>2026-03-27T10:29:22.999Z</time></trkpt><trkpt lat="48.20142615716335" lon="11.59045620808855"><ele>502.99999999999994</ele><time>2026-03-27T10:29:24.999Z</time></trkpt><trkpt lat="48.201418973257745" lon="11.590358890677205"><ele>503.0</ele><time>2026-03-27T10:29:26.999Z</time></trkpt><trkpt lat="48.20140773395113" lon="11.590246903010168"><ele>503.0</ele><time>2026-03-27T10:29:29.999Z</time></trkpt><trkpt lat="48.201403526225285" lon="11.590108984780173"><ele>503.0</ele><time>2026-03-27T10:29:54Z</time></trkpt><trkpt lat="48.20139069209508" lon="11.589958306343174"><ele>502.99999999999994</ele><time>2026-03-27T10:29:56Z</time></trkpt><trkpt lat="48.201375796012144" lon="11.589788998652336"><ele>503.0</ele><time>2026-03-27T10:29:58Z</time></trkpt><trkpt lat="48.20136131739132" lon="11.589630371846454"><ele>502.0</ele><time>2026-03-27T10:30:00Z</time></trkpt><trkpt lat="48.20134506819735" lon="11.589450755655259"><ele>501.0</ele><time>2026-03-27T10:30:02Z</time></trkpt><trkpt lat="48.20131963527805" lon="11.58930370176756"><ele>500.0</ele><time>2026-03-27T10:30:04Z</time></trkpt><trkpt lat="48.201324906338314" lon="11.589144753445582"><ele>499.0</ele><time>2026-03-27T10:30:06Z</time></trkpt><trkpt lat="48.20130124930446" lon="11.588952323609163"><ele>499.00000000000006</ele><time>2026-03-27T10:30:08Z</time></trkpt><trkpt lat="48.20128113493108" lon="11.588840165329213"><ele>499.0</ele><time>2026-03-27T10:30:09Z</time></trkpt><trkpt lat="48.20126580730104" lon="11.58872897798258"><ele>499.0</ele><time>2026-03-27T10:30:10Z</time></trkpt><trkpt lat="48.201254864514524" lon="11.588625499409913"><ele>499.0</ele><time>2026-03-27T10:30:11Z</time></trkpt><trkpt lat="48.201244996704666" lon="11.588514434796743"><ele>499.00000000000006</ele><time>2026-03-27T10:30:12Z</time></trkpt><trkpt lat="48.20125068715053" lon="11.58839004500527"><ele>499.0</ele><time>2026-03-27T10:30:13Z</time></trkpt><trkpt lat="48.201239006556385" lon="11.588258668745345"><ele>499.33333333333337</ele><time>2026-03-27T10:30:14Z</time></trkpt><trkpt lat="48.20122702250246" lon="11.588123880069677"><ele>499.6666666666667</ele><time>2026-03-27T10:30:15Z</time></trkpt><trkpt lat="48.201215384501786" lon="11.587999010889046"><ele>500.0</ele><time>2026-03-27T10:30:16Z</time></trkpt><trkpt lat="48.20120509528801" lon="11.587887714439914"><ele>500.33333333333337</ele><time>2026-03-27T10:30:17Z</time></trkpt><trkpt lat="48.201194454881374" lon="11.587772619470524"><ele>500.6666666666667</ele><time>2026-03-27T10:30:18Z</time></trkpt><trkpt lat="48.20118368727193" lon="11.587651634806464"><ele>501.0</ele><time>2026-03-27T10:30:19Z</time></trkpt><trkpt lat="48.20115273924459" lon="11.587526740929313"><ele>501.0</ele><time>2026-03-27T10:30:20Z</time></trkpt><trkpt lat="48.201139411507874" lon="11.587389056980383"><ele>501.0</ele><time>2026-03-27T10:30:21Z</time></trkpt><trkpt lat="48.20112661484626" lon="11.587244733585088"><ele>501.0</ele><time>2026-03-27T10:30:22Z</time></trkpt><trkpt lat="48.201112680534436" lon="11.587093966363826"><ele>501.0</ele><time>2026-03-27T10:30:23Z</time></trkpt><trkpt lat="48.201103776334385" lon="11.586952848714745"><ele>501.0</ele><time>2026-03-27T10:30:24Z</time></trkpt><trkpt lat="48.20109583367962" lon="11.58682578261238"><ele>500.8333333333333</ele><time>2026-03-27T10:30:25Z</time></trkpt><trkpt lat="48.201092521601396" lon="11.58670656410836"><ele>500.66666666666663</ele><time>2026-03-27T10:30:26Z</time></trkpt><trkpt lat="48.2010849446171" lon="11.586582930859372"><ele>500.5</ele><time>2026-03-27T10:30:27Z</time></trkpt><trkpt lat="48.201076845207204" lon="11.586463899664246"><ele>500.3333333333333</ele><time>2026-03-27T10:30:28Z</time></trkpt><trkpt lat="48.201071022138805" lon="11.586358584151284"><ele>500.16666666666663</ele><time>2026-03-27T10:30:29Z</time></trkpt><trkpt lat="48.201065243463" lon="11.586184072326128"><ele>500.0</ele><time>2026-03-27T10:30:31Z</time></trkpt><trkpt lat="48.201057354807126" lon="11.586031443635605"><ele>499.99999999999994</ele><time>2026-03-27T10:30:33Z</time></trkpt><trkpt lat="48.20105031866559" lon="11.58589837074212"><ele>500.0</ele><time>2026-03-27T10:30:35Z</time></trkpt><trkpt lat="48.20104392655386" lon="11.585785934425243"><ele>500.0</ele><time>2026-03-27T10:30:38Z</time></trkpt><trkpt lat="48.201043909751455" lon="11.585688211009918"><ele>500.0</ele><time>2026-03-27T10:31:29.999Z</time></trkpt><trkpt lat="48.20104121845063" lon="11.585577569092248"><ele>499.99999999999994</ele><time>2026-03-27T10:31:31.999Z</time></trkpt><trkpt lat="48.201035811054616" lon="11.5854661036888"><ele>500.0</ele><time>2026-03-27T10:31:33.999Z</time></trkpt><trkpt lat="48.20101677357752" lon="11.585345432319487"><ele>500.3333333333333</ele><time>2026-03-27T10:31:35.999Z</time></trkpt><trkpt lat="48.2009446986779" lon="11.585247666245484"><ele>500.66666666666663</ele><time>2026-03-27T10:31:37.999Z</time></trkpt><trkpt lat="48.20088343059078" lon="11.585223807621144"><ele>501.0</ele><time>2026-03-27T10:31:38.999Z</time></trkpt><trkpt lat="48.20081462526772" lon="11.585210903743384"><ele>501.33333333333337</ele><time>2026-03-27T10:31:39.999Z</time></trkpt><trkpt lat="48.20074157577172" lon="11.585195886308087"><ele>501.6666666666667</ele><time>2026-03-27T10:31:40.999Z</time></trkpt><trkpt lat="48.200667962953666" lon="11.585182540874479"><ele>502.0</ele><time>2026-03-27T10:31:41.999Z</time></trkpt><trkpt lat="48.20058847585502" lon="11.585165447691262"><ele>502.0</ele><time>2026-03-27T10:31:42.999Z</time></trkpt><trkpt lat="48.20050274945074" lon="11.58514804987087"><ele>502.00000000000006</ele><time>2026-03-27T10:31:43.999Z</time></trkpt><trkpt lat="48.20041343105209" lon="11.585131591731223"><ele>502.00000000000006</ele><time>2026-03-27T10:31:44.999Z</time></trkpt><trkpt lat="48.20032240565723" lon="11.585113929703999"><ele>502.0</ele><time>2026-03-27T10:31:45.999Z</time></trkpt><trkpt lat="48.200228849453275" lon="11.58509699184701"><ele>502.0</ele><time>2026-03-27T10:31:46.999Z</time></trkpt><trkpt lat="48.200135847385646" lon="11.585076733623035"><ele>502.0</ele><time>2026-03-27T10:31:47.999Z</time></trkpt><trkpt lat="48.20004309027966" lon="11.585057251582574"><ele>502.00000000000006</ele><time>2026-03-27T10:31:48.999Z</time></trkpt><trkpt lat="48.19994755093863" lon="11.585037081819886"><ele>502.00000000000006</ele><time>2026-03-27T10:31:50Z</time></trkpt><trkpt lat="48.199849948531096" lon="11.585018133564255"><ele>502.0</ele><time>2026-03-27T10:31:51Z</time></trkpt><trkpt lat="48.19975005167619" lon="11.58500233880851"><ele>502.0</ele><time>2026-03-27T10:31:52Z</time></trkpt><trkpt lat="48.19964873723963" lon="11.584980495453095"><ele>501.6</ele><time>2026-03-27T10:31:53Z</time></trkpt><trkpt lat="48.199550199616795" lon="11.584959181721223"><ele>501.20000000000005</ele><time>2026-03-27T10:31:54Z</time></trkpt><trkpt lat="48.19945539022866" lon="11.584937077714148"><ele>500.8</ele><time>2026-03-27T10:31:55Z</time></trkpt><trkpt lat="48.199361791758655" lon="11.584919256107396"><ele>500.4</ele><time>2026-03-27T10:31:56Z</time></trkpt><trkpt lat="48.19926751712237" lon="11.584902533959951"><ele>500.0</ele><time>2026-03-27T10:31:57Z</time></trkpt><trkpt lat="48.19918135355766" lon="11.58488653145663"><ele>499.99999999999994</ele><time>2026-03-27T10:31:58Z</time></trkpt><trkpt lat="48.19910463183835" lon="11.58487082188369"><ele>500.0</ele><time>2026-03-27T10:31:59Z</time></trkpt><trkpt lat="48.19902530712989" lon="11.584855125807028"><ele>500.0</ele><time>2026-03-27T10:32:00Z</time></trkpt><trkpt lat="48.19894858328335" lon="11.584841255189774"><ele>500.0</ele><time>2026-03-27T10:32:01Z</time></trkpt><trkpt lat="48.19888364310384" lon="11.58482674613562"><ele>499.99999999999994</ele><time>2026-03-27T10:32:02Z</time></trkpt><trkpt lat="48.1987863308136" lon="11.584810154416434"><ele>500.0</ele><time>2026-03-27T10:32:04Z</time></trkpt><trkpt lat="48.198721516428414" lon="11.584798639918274"><ele>500.0</ele><time>2026-03-27T10:32:06Z</time></trkpt><trkpt lat="48.19864170768663" lon="11.584785098933029"><ele>500.0</ele><time>2026-03-27T10:32:09Z</time></trkpt><trkpt lat="48.19854473344496" lon="11.584767148476024"><ele>500.0</ele><time>2026-03-27T10:32:11Z</time></trkpt><trkpt lat="48.19843705647964" lon="11.58474767028446"><ele>500.0</ele><time>2026-03-27T10:32:13Z</time></trkpt><trkpt lat="48.19831715489128" lon="11.584722031327544"><ele>500.0</ele><time>2026-03-27T10:32:15Z</time></trkpt><trkpt lat="48.19824528485481" lon="11.584710515527645"><ele>499.99999999999994</ele><time>2026-03-27T10:32:16Z</time></trkpt><trkpt lat="48.19817295745583" lon="11.584695968089495"><ele>500.0</ele><time>2026-03-27T10:32:17Z</time></trkpt><trkpt lat="48.19810017800076" lon="11.584683627207154"><ele>500.0</ele><time>2026-03-27T10:32:18Z</time></trkpt><trkpt lat="48.19802655654558" lon="11.584667308842658"><ele>500.0</ele><time>2026-03-27T10:32:19Z</time></trkpt><trkpt lat="48.197950916554284" lon="11.584645758992924"><ele>499.99999999999994</ele><time>2026-03-27T10:32:20Z</time></trkpt><trkpt lat="48.19786945192395" lon="11.584631327434485"><ele>500.0</ele><time>2026-03-27T10:32:21Z</time></trkpt><trkpt lat="48.19777892409722" lon="11.584616251047724"><ele>500.2</ele><time>2026-03-27T10:32:22Z</time></trkpt><trkpt lat="48.19767867432442" lon="11.584600193889802"><ele>500.4</ele><time>2026-03-27T10:32:23Z</time></trkpt><trkpt lat="48.197571012591396" lon="11.584584977091291"><ele>500.6</ele><time>2026-03-27T10:32:24Z</time></trkpt><trkpt lat="48.19746013926235" lon="11.584565361953073"><ele>500.8</ele><time>2026-03-27T10:32:25Z</time></trkpt><trkpt lat="48.19735750969246" lon="11.584542669946327"><ele>501.0</ele><time>2026-03-27T10:32:26Z</time></trkpt><trkpt lat="48.19726305728627" lon="11.584522340296436"><ele>501.20000000000005</ele><time>2026-03-27T10:32:27Z</time></trkpt><trkpt lat="48.19716528319825" lon="11.58450339565141"><ele>501.40000000000003</ele><time>2026-03-27T10:32:28Z</time></trkpt><trkpt lat="48.19706959888044" lon="11.584482526669102"><ele>501.6</ele><time>2026-03-27T10:32:29Z</time></trkpt><trkpt lat="48.19697390663179" lon="11.584463581708361"><ele>501.8</ele><time>2026-03-27T10:32:30Z</time></trkpt><trkpt lat="48.19688165527923" lon="11.584446006672088"><ele>502.0</ele><time>2026-03-27T10:32:31Z</time></trkpt><trkpt lat="48.19679969806613" lon="11.584431427210069"><ele>502.00000000000006</ele><time>2026-03-27T10:32:32Z</time></trkpt><trkpt lat="48.19672690505573" lon="11.584415334337747"><ele>502.0</ele><time>2026-03-27T10:32:33Z</time></trkpt><trkpt lat="48.19665927291602" lon="11.584401737456846"><ele>502.0</ele><time>2026-03-27T10:32:34Z</time></trkpt><trkpt lat="48.1965923133968" lon="11.58438829468862"><ele>502.0</ele><time>2026-03-27T10:32:35Z</time></trkpt><trkpt lat="48.19652538246745" lon="11.58437548270042"><ele>502.00000000000006</ele><time>2026-03-27T10:32:36Z</time></trkpt><trkpt lat="48.19642194056802" lon="11.58435869203836"><ele>502.0</ele><time>2026-03-27T10:32:38Z</time></trkpt><trkpt lat="48.196340430476816" lon="11.584346891399964"><ele>502.1666666666667</ele><time>2026-03-27T10:32:40Z</time></trkpt><trkpt lat="48.19627658325421" lon="11.584339386155772"><ele>502.33333333333337</ele><time>2026-03-27T10:32:42Z</time></trkpt><trkpt lat="48.196196861421896" lon="11.584329918230098"><ele>502.5</ele><time>2026-03-27T10:33:08Z</time></trkpt><trkpt lat="48.19608642412812" lon="11.58430691334247"><ele>502.66666666666663</ele><time>2026-03-27T10:33:10Z</time></trkpt><trkpt lat="48.1960233476433" lon="11.584297631102608"><ele>502.8333333333333</ele><time>2026-03-27T10:33:11Z</time></trkpt><trkpt lat="48.19595422099953" lon="11.58428101443069"><ele>503.0</ele><time>2026-03-27T10:33:12Z</time></trkpt><trkpt lat="48.19587474875292" lon="11.584266470872729"><ele>503.0</ele><time>2026-03-27T10:33:13Z</time></trkpt><trkpt lat="48.195790425955906" lon="11.584252988287512"><ele>502.99999999999994</ele><time>2026-03-27T10:33:14Z</time></trkpt><trkpt lat="48.19569645884039" lon="11.584235568023733"><ele>502.99999999999994</ele><time>2026-03-27T10:33:15Z</time></trkpt><trkpt lat="48.195596238775245" lon="11.584217789518899"><ele>503.0</ele><time>2026-03-27T10:33:16Z</time></trkpt><trkpt lat="48.195494349244065" lon="11.584201608769488"><ele>503.0</ele><time>2026-03-27T10:33:17Z</time></trkpt><trkpt lat="48.19539307459618" lon="11.584181349501069"><ele>503.0</ele><time>2026-03-27T10:33:18Z</time></trkpt><trkpt lat="48.19527715262981" lon="11.584157269762605"><ele>502.99999999999994</ele><time>2026-03-27T10:33:19Z</time></trkpt><trkpt lat="48.1951696072019" lon="11.584132425085182"><ele>502.99999999999994</ele><time>2026-03-27T10:33:20Z</time></trkpt><trkpt lat="48.19506464212168" lon="11.584112197249729"><ele>503.0</ele><time>2026-03-27T10:33:21Z</time></trkpt><trkpt lat="48.194958255770565" lon="11.584090781376728"><ele>503.0</ele><time>2026-03-27T10:33:22Z</time></trkpt><trkpt lat="48.19484983714456" lon="11.584071006873627"><ele>503.2</ele><time>2026-03-27T10:33:23Z</time></trkpt><trkpt lat="48.19473974941061" lon="11.584052765786412"><ele>503.4</ele><time>2026-03-27T10:33:24Z</time></trkpt><trkpt lat="48.19462808461152" lon="11.584031164871265"><ele>503.59999999999997</ele><time>2026-03-27T10:33:25Z</time></trkpt><trkpt lat="48.19451807101631" lon="11.584015994838412"><ele>503.79999999999995</ele><time>2026-03-27T10:33:26Z</time></trkpt><trkpt lat="48.19441814442276" lon="11.583986090951798"><ele>504.0</ele><time>2026-03-27T10:33:27Z</time></trkpt><trkpt lat="48.19432713476733" lon="11.58395946971666"><ele>504.0</ele><time>2026-03-27T10:33:28Z</time></trkpt><trkpt lat="48.19424234473321" lon="11.583940245813643"><ele>504.0</ele><time>2026-03-27T10:33:29Z</time></trkpt><trkpt lat="48.1941569859257" lon="11.583926536387136"><ele>504.0</ele><time>2026-03-27T10:33:30Z</time></trkpt><trkpt lat="48.194067484128915" lon="11.583915652727198"><ele>504.0</ele><time>2026-03-27T10:33:30.999Z</time></trkpt><trkpt lat="48.19397937216215" lon="11.58390886283291"><ele>504.0</ele><time>2026-03-27T10:33:31.999Z</time></trkpt><trkpt lat="48.193901629382374" lon="11.583902101514619"><ele>504.0</ele><time>2026-03-27T10:33:32.999Z</time></trkpt><trkpt lat="48.19383795448351" lon="11.583897663406683"><ele>504.0</ele><time>2026-03-27T10:33:33.999Z</time></trkpt><trkpt lat="48.19374170958906" lon="11.583894115026107"><ele>504.0</ele><time>2026-03-27T10:33:35.999Z</time></trkpt><trkpt lat="48.193654180851766" lon="11.583877470789693"><ele>504.0</ele><time>2026-03-27T10:33:37.999Z</time></trkpt><trkpt lat="48.193585017237815" lon="11.583889345001522"><ele>504.0</ele><time>2026-03-27T10:33:39.999Z</time></trkpt><trkpt lat="48.193500612905616" lon="11.583718255134391"><ele>504.0</ele><time>2026-03-27T10:33:41.999Z</time></trkpt><trkpt lat="48.19345140558899" lon="11.583656878635045"><ele>503.8333333333333</ele><time>2026-03-27T10:33:42.999Z</time></trkpt><trkpt lat="48.19340306513326" lon="11.58359417743615"><ele>503.66666666666663</ele><time>2026-03-27T10:33:43.999Z</time></trkpt><trkpt lat="48.193352596151676" lon="11.583529888707297"><ele>503.5</ele><time>2026-03-27T10:33:44.999Z</time></trkpt><trkpt lat="48.19329671753374" lon="11.583462802796435"><ele>503.3333333333333</ele><time>2026-03-27T10:33:45.999Z</time></trkpt><trkpt lat="48.19323466412704" lon="11.583388740701173"><ele>503.16666666666663</ele><time>2026-03-27T10:33:46.999Z</time></trkpt><trkpt lat="48.19316568600932" lon="11.583306818424894"><ele>503.0</ele><time>2026-03-27T10:33:47.999Z</time></trkpt><trkpt lat="48.193097313401076" lon="11.58322270605679"><ele>502.99999999999994</ele><time>2026-03-27T10:33:48.999Z</time></trkpt><trkpt lat="48.1930330634297" lon="11.583144395418643"><ele>503.0</ele><time>2026-03-27T10:33:49.999Z</time></trkpt><trkpt lat="48.19297736474098" lon="11.583049899044857"><ele>503.0</ele><time>2026-03-27T10:33:50.999Z</time></trkpt><trkpt lat="48.19290268107105" lon="11.583001300076457"><ele>503.0</ele><time>2026-03-27T10:33:51.999Z</time></trkpt><trkpt lat="48.192842064291646" lon="11.582930965802536"><ele>502.99999999999994</ele><time>2026-03-27T10:33:52.999Z</time></trkpt><trkpt lat="48.19278612890794" lon="11.582855057317975"><ele>503.0</ele><time>2026-03-27T10:33:53.999Z</time></trkpt><trkpt lat="48.19273910545857" lon="11.582772468685965"><ele>502.99999999999994</ele><time>2026-03-27T10:33:54.999Z</time></trkpt><trkpt lat="48.19269957095749" lon="11.58268573899778"><ele>503.0</ele><time>2026-03-27T10:33:56Z</time></trkpt><trkpt lat="48.192669666177714" lon="11.582593562866826"><ele>503.0</ele><time>2026-03-27T10:33:57Z</time></trkpt><trkpt lat="48.192633811410076" lon="11.582464499953405"><ele>503.0</ele><time>2026-03-27T10:33:59Z</time></trkpt><trkpt lat="48.19261333464603" lon="11.582374476879686"><ele>502.99999999999994</ele><time>2026-03-27T10:34:03Z</time></trkpt><trkpt lat="48.192606288721656" lon="11.582277145938251"><ele>503.0</ele><time>2026-03-27T10:34:14Z</time></trkpt><trkpt lat="48.192495838107156" lon="11.58218798328687"><ele>502.99999999999994</ele><time>2026-03-27T10:34:16.999Z</time></trkpt><trkpt lat="48.192363382271054" lon="11.582192429225538"><ele>503.0</ele><time>2026-03-27T10:34:18.999Z</time></trkpt><trkpt lat="48.19228702129485" lon="11.582202977265098"><ele>503.0</ele><time>2026-03-27T10:34:19.999Z</time></trkpt><trkpt lat="48.19220903682508" lon="11.582214019597796"><ele>503.0</ele><time>2026-03-27T10:34:20.999Z</time></trkpt><trkpt lat="48.192131133124825" lon="11.582221653848208"><ele>502.99999999999994</ele><time>2026-03-27T10:34:21.999Z</time></trkpt><trkpt lat="48.19204946445702" lon="11.582227008746361"><ele>503.0</ele><time>2026-03-27T10:34:22.999Z</time></trkpt><trkpt lat="48.19196392703627" lon="11.582231541768152"><ele>503.16666666666663</ele><time>2026-03-27T10:34:23.999Z</time></trkpt><trkpt lat="48.191880380714935" lon="11.58223686219853"><ele>503.3333333333333</ele><time>2026-03-27T10:34:24.999Z</time></trkpt><trkpt lat="48.191798290935445" lon="11.58223957562356"><ele>503.5</ele><time>2026-03-27T10:34:25.999Z</time></trkpt><trkpt lat="48.19171708374874" lon="11.582243621125373"><ele>503.66666666666663</ele><time>2026-03-27T10:34:26.999Z</time></trkpt><trkpt lat="48.191634590512685" lon="11.582244438538536"><ele>503.8333333333333</ele><time>2026-03-27T10:34:27.999Z</time></trkpt><trkpt lat="48.19154985020154" lon="11.582247570781977"><ele>504.0</ele><time>2026-03-27T10:34:28.999Z</time></trkpt><trkpt lat="48.19146395569008" lon="11.5822517133015"><ele>504.0</ele><time>2026-03-27T10:34:29.999Z</time></trkpt><trkpt lat="48.191375900659544" lon="11.582256156799282"><ele>504.0</ele><time>2026-03-27T10:34:30.999Z</time></trkpt><trkpt lat="48.19129407270001" lon="11.582262821179581"><ele>504.0</ele><time>2026-03-27T10:34:31.999Z</time></trkpt><trkpt lat="48.19121628904995" lon="11.582263503282423"><ele>504.0</ele><time>2026-03-27T10:34:32.999Z</time></trkpt><trkpt lat="48.19113944098994" lon="11.582264857638688"><ele>504.0</ele><time>2026-03-27T10:34:33.999Z</time></trkpt><trkpt lat="48.19107229884061" lon="11.582263912809054"><ele>504.0</ele><time>2026-03-27T10:34:34.999Z</time></trkpt><trkpt lat="48.19095593845599" lon="11.582270317245989"><ele>504.0</ele><time>2026-03-27T10:34:36.999Z</time></trkpt><trkpt lat="48.19085986445196" lon="11.58226707748723"><ele>504.0</ele><time>2026-03-27T10:34:38.999Z</time></trkpt><trkpt lat="48.19082318192976" lon="11.582189767749252"><ele>504.0</ele><time>2026-03-27T10:34:39.999Z</time></trkpt><trkpt lat="48.1907607481835" lon="11.582017530020623"><ele>504.0</ele><time>2026-03-27T10:34:41.999Z</time></trkpt><trkpt lat="48.19073978580923" lon="11.581906958718752"><ele>504.0</ele><time>2026-03-27T10:34:42.999Z</time></trkpt><trkpt lat="48.190729764565035" lon="11.581786086880816"><ele>504.0</ele><time>2026-03-27T10:34:43.999Z</time></trkpt><trkpt lat="48.19072939681535" lon="11.58165455831095"><ele>504.1666666666667</ele><time>2026-03-27T10:34:44.999Z</time></trkpt><trkpt lat="48.190729419491795" lon="11.581530133624403"><ele>504.33333333333337</ele><time>2026-03-27T10:34:45.999Z</time></trkpt><trkpt lat="48.19072925284463" lon="11.58140299193109"><ele>504.5</ele><time>2026-03-27T10:34:46.999Z</time></trkpt><trkpt lat="48.190724319358594" lon="11.58128372852274"><ele>504.6666666666667</ele><time>2026-03-27T10:34:47.999Z</time></trkpt><trkpt lat="48.190722497495074" lon="11.581168751665702"><ele>504.83333333333337</ele><time>2026-03-27T10:34:48.999Z</time></trkpt><trkpt lat="48.19072250812212" lon="11.581049899738671"><ele>505.0</ele><time>2026-03-27T10:34:49.999Z</time></trkpt><trkpt lat="48.19072395144464" lon="11.580913822766398"><ele>505.0</ele><time>2026-03-27T10:34:50.999Z</time></trkpt><trkpt lat="48.19071761712453" lon="11.580734147510848"><ele>505.0</ele><time>2026-03-27T10:34:51.999Z</time></trkpt><trkpt lat="48.19071062629707" lon="11.58051266601211"><ele>505.0</ele><time>2026-03-27T10:34:52.999Z</time></trkpt><trkpt lat="48.19070297015951" lon="11.58028631084101"><ele>505.0</ele><time>2026-03-27T10:34:53.999Z</time></trkpt><trkpt lat="48.19069980301028" lon="11.580088167923666"><ele>504.6</ele><time>2026-03-27T10:34:54.999Z</time></trkpt><trkpt lat="48.19069741521496" lon="11.579910604902178"><ele>504.2</ele><time>2026-03-27T10:34:55.999Z</time></trkpt><trkpt lat="48.190695741385255" lon="11.579746863664184"><ele>503.79999999999995</ele><time>2026-03-27T10:34:56.999Z</time></trkpt><trkpt lat="48.19069620293922" lon="11.579589028851213"><ele>503.4</ele><time>2026-03-27T10:34:57.999Z</time></trkpt><trkpt lat="48.19069575438978" lon="11.579434208925592"><ele>503.0</ele><time>2026-03-27T10:34:58.999Z</time></trkpt><trkpt lat="48.190695388154325" lon="11.57927868306809"><ele>502.79999999999995</ele><time>2026-03-27T10:34:59.999Z</time></trkpt><trkpt lat="48.190712061322266" lon="11.579124240030126"><ele>502.59999999999997</ele><time>2026-03-27T10:35:00.999Z</time></trkpt><trkpt lat="48.19069114330631" lon="11.578970142308073"><ele>502.40000000000003</ele><time>2026-03-27T10:35:01.999Z</time></trkpt><trkpt lat="48.19068852599102" lon="11.578813804600715"><ele>502.20000000000005</ele><time>2026-03-27T10:35:02.999Z</time></trkpt><trkpt lat="48.19068646408565" lon="11.578655030308086"><ele>502.0</ele><time>2026-03-27T10:35:03.999Z</time></trkpt><trkpt lat="48.19068469621536" lon="11.57849422592432"><ele>501.8</ele><time>2026-03-27T10:35:04.999Z</time></trkpt><trkpt lat="48.19068304699266" lon="11.578328361873147"><ele>501.6</ele><time>2026-03-27T10:35:05.999Z</time></trkpt><trkpt lat="48.19070267388006" lon="11.578160925001342"><ele>501.40000000000003</ele><time>2026-03-27T10:35:06.999Z</time></trkpt><trkpt lat="48.19069977080767" lon="11.5779919432267"><ele>501.20000000000005</ele><time>2026-03-27T10:35:07.999Z</time></trkpt><trkpt lat="48.19069771909739" lon="11.577838064948722"><ele>501.0</ele><time>2026-03-27T10:35:08.999Z</time></trkpt><trkpt lat="48.19069526146825" lon="11.57770964111967"><ele>501.0</ele><time>2026-03-27T10:35:09.999Z</time></trkpt><trkpt lat="48.19069180094975" lon="11.577602804445245"><ele>501.0</ele><time>2026-03-27T10:35:10.999Z</time></trkpt><trkpt lat="48.190690293776655" lon="11.577506398891208"><ele>501.0</ele><time>2026-03-27T10:35:11.999Z</time></trkpt><trkpt lat="48.19068358994501" lon="11.577406074102772"><ele>501.0</ele><time>2026-03-27T10:35:12.999Z</time></trkpt><trkpt lat="48.1907134862382" lon="11.577313274505261"><ele>501.0</ele><time>2026-03-27T10:35:13.999Z</time></trkpt><trkpt lat="48.19076370578821" lon="11.577233814431207"><ele>501.0</ele><time>2026-03-27T10:35:14.999Z</time></trkpt><trkpt lat="48.1908289982225" lon="11.577179079446882"><ele>501.0</ele><time>2026-03-27T10:35:15.999Z</time></trkpt><trkpt lat="48.190899122816624" lon="11.577150079775368"><ele>501.0</ele><time>2026-03-27T10:35:16.999Z</time></trkpt><trkpt lat="48.190972994970565" lon="11.577135376576482"><ele>501.0</ele><time>2026-03-27T10:35:17.999Z</time></trkpt><trkpt lat="48.19104909947386" lon="11.577127136022554"><ele>501.0</ele><time>2026-03-27T10:35:18.999Z</time></trkpt><trkpt lat="48.191128573987456" lon="11.577122611986363"><ele>501.0</ele><time>2026-03-27T10:35:19.999Z</time></trkpt><trkpt lat="48.191201568457814" lon="11.577121314180957"><ele>501.0</ele><time>2026-03-27T10:35:20.999Z</time></trkpt><trkpt lat="48.1912671864976" lon="11.57712192670811"><ele>501.0</ele><time>2026-03-27T10:35:21.999Z</time></trkpt><trkpt lat="48.19133544145714" lon="11.57712253414748"><ele>501.0</ele><time>2026-03-27T10:35:22.999Z</time></trkpt><trkpt lat="48.191412311118434" lon="11.577122746799617"><ele>501.0</ele><time>2026-03-27T10:35:23.999Z</time></trkpt><trkpt lat="48.19149495833532" lon="11.577117370096882"><ele>501.0</ele><time>2026-03-27T10:35:24.999Z</time></trkpt><trkpt lat="48.19157873099594" lon="11.57713878677594"><ele>501.0</ele><time>2026-03-27T10:35:25.999Z</time></trkpt><trkpt lat="48.19165667942467" lon="11.57713818718764"><ele>501.0</ele><time>2026-03-27T10:35:26.999Z</time></trkpt><trkpt lat="48.191731016090465" lon="11.577136387224646"><ele>501.0</ele><time>2026-03-27T10:35:27.999Z</time></trkpt><trkpt lat="48.19180543450265" lon="11.577133891036365"><ele>501.0</ele><time>2026-03-27T10:35:28.999Z</time></trkpt><trkpt lat="48.191880132401096" lon="11.577106834160766"><ele>501.0</ele><time>2026-03-27T10:35:29.999Z</time></trkpt><trkpt lat="48.191957636180135" lon="11.577125180091988"><ele>501.0</ele><time>2026-03-27T10:35:30.999Z</time></trkpt><trkpt lat="48.1920350966642" lon="11.577120266017118"><ele>501.0</ele><time>2026-03-27T10:35:31.999Z</time></trkpt><trkpt lat="48.192109427891744" lon="11.577116573089048"><ele>501.0</ele><time>2026-03-27T10:35:32.999Z</time></trkpt><trkpt lat="48.192175817433636" lon="11.577105959506538"><ele>501.0</ele><time>2026-03-27T10:35:33.999Z</time></trkpt><trkpt lat="48.19228465837621" lon="11.577105082913468"><ele>501.0</ele><time>2026-03-27T10:35:35.999Z</time></trkpt><trkpt lat="48.19236598868021" lon="11.577106454738077"><ele>501.4</ele><time>2026-03-27T10:35:37.999Z</time></trkpt><trkpt lat="48.192460499830126" lon="11.577106422507265"><ele>501.8</ele><time>2026-03-27T10:35:43.999Z</time></trkpt><trkpt lat="48.19253463532582" lon="11.577076257210376"><ele>502.19999999999993</ele><time>2026-03-27T10:35:45.999Z</time></trkpt><trkpt lat="48.1925775383731" lon="11.576956202728212"><ele>502.59999999999997</ele><time>2026-03-27T10:35:47.999Z</time></trkpt><trkpt lat="48.19258148846778" lon="11.576781078634887"><ele>503.0</ele><time>2026-03-27T10:35:49.999Z</time></trkpt><trkpt lat="48.19256596108706" lon="11.576605075063854"><ele>503.3333333333333</ele><time>2026-03-27T10:35:51.999Z</time></trkpt><trkpt lat="48.19254241536725" lon="11.576451557575952"><ele>503.66666666666663</ele><time>2026-03-27T10:35:53.999Z</time></trkpt><trkpt lat="48.192504385811624" lon="11.576285978762924"><ele>504.0</ele><time>2026-03-27T10:35:55.998Z</time></trkpt><trkpt lat="48.192481294084885" lon="11.576185306575956"><ele>504.33333333333337</ele><time>2026-03-27T10:35:56.998Z</time></trkpt><trkpt lat="48.19245997279774" lon="11.576088793729166"><ele>504.6666666666667</ele><time>2026-03-27T10:35:57.998Z</time></trkpt><trkpt lat="48.19243434825158" lon="11.57596468832844"><ele>505.0</ele><time>2026-03-27T10:35:59.998Z</time></trkpt><trkpt lat="48.19241555437812" lon="11.575872583089522"><ele>505.1666666666667</ele><time>2026-03-27T10:36:02Z</time></trkpt><trkpt lat="48.19238967467475" lon="11.57576973752597"><ele>505.33333333333337</ele><time>2026-03-27T10:36:12Z</time></trkpt><trkpt lat="48.19237106282862" lon="11.575581275695932"><ele>505.5</ele><time>2026-03-27T10:36:14Z</time></trkpt><trkpt lat="48.192364755725684" lon="11.575461983294254"><ele>505.66666666666663</ele><time>2026-03-27T10:36:15Z</time></trkpt><trkpt lat="48.192360930795274" lon="11.575351707978605"><ele>505.8333333333333</ele><time>2026-03-27T10:36:16Z</time></trkpt><trkpt lat="48.19235801857337" lon="11.575231131060791"><ele>506.0</ele><time>2026-03-27T10:36:17Z</time></trkpt><trkpt lat="48.19235775268389" lon="11.575096043552143"><ele>506.0</ele><time>2026-03-27T10:36:18Z</time></trkpt><trkpt lat="48.19235497415763" lon="11.574965871714003"><ele>506.0</ele><time>2026-03-27T10:36:19Z</time></trkpt><trkpt lat="48.192351935303684" lon="11.574833993567054"><ele>506.0</ele><time>2026-03-27T10:36:20Z</time></trkpt><trkpt lat="48.19234611823717" lon="11.574702057534818"><ele>506.0</ele><time>2026-03-27T10:36:21Z</time></trkpt><trkpt lat="48.192342622529615" lon="11.574563726104193"><ele>506.0</ele><time>2026-03-27T10:36:22Z</time></trkpt><trkpt lat="48.19233723425025" lon="11.574415365289784"><ele>506.0</ele><time>2026-03-27T10:36:23Z</time></trkpt><trkpt lat="48.19233527103186" lon="11.574261185283719"><ele>506.0</ele><time>2026-03-27T10:36:24Z</time></trkpt><trkpt lat="48.19233318089866" lon="11.574096599330483"><ele>506.0</ele><time>2026-03-27T10:36:25Z</time></trkpt><trkpt lat="48.192328134185956" lon="11.573924128585533"><ele>506.0</ele><time>2026-03-27T10:36:26Z</time></trkpt><trkpt lat="48.19232595567383" lon="11.573759577841281"><ele>506.0</ele><time>2026-03-27T10:36:27Z</time></trkpt><trkpt lat="48.1923234568257" lon="11.573605709192897"><ele>506.16666666666663</ele><time>2026-03-27T10:36:28Z</time></trkpt><trkpt lat="48.19232031635057" lon="11.573460839473228"><ele>506.3333333333333</ele><time>2026-03-27T10:36:29Z</time></trkpt><trkpt lat="48.19231870451311" lon="11.57332138052207"><ele>506.5</ele><time>2026-03-27T10:36:29.999Z</time></trkpt><trkpt lat="48.19231250472034" lon="11.573179135392959"><ele>506.66666666666663</ele><time>2026-03-27T10:36:30.999Z</time></trkpt><trkpt lat="48.19230786798776" lon="11.573054487419586"><ele>506.8333333333333</ele><time>2026-03-27T10:36:31.999Z</time></trkpt><trkpt lat="48.19230172564146" lon="11.572956484820185"><ele>507.0</ele><time>2026-03-27T10:36:32.999Z</time></trkpt><trkpt lat="48.19229811229501" lon="11.572814035482503"><ele>507.0</ele><time>2026-03-27T10:36:34.999Z</time></trkpt><trkpt lat="48.19231082932225" lon="11.57270102482433"><ele>507.0</ele><time>2026-03-27T10:36:36.999Z</time></trkpt><trkpt lat="48.19230999255994" lon="11.572584391292327"><ele>507.0</ele><time>2026-03-27T10:36:39.999Z</time></trkpt><trkpt lat="48.19229497026125" lon="11.572472046762"><ele>507.0</ele><time>2026-03-27T10:37:38.999Z</time></trkpt><trkpt lat="48.19229382905216" lon="11.572335370177298"><ele>507.0</ele><time>2026-03-27T10:37:40.999Z</time></trkpt><trkpt lat="48.1921928619197" lon="11.572322417715116"><ele>507.0</ele><time>2026-03-27T10:37:41.999Z</time></trkpt><trkpt lat="48.1920800165422" lon="11.572326576421522"><ele>507.0</ele><time>2026-03-27T10:37:43.999Z</time></trkpt><trkpt lat="48.192005125999884" lon="11.572329755872088"><ele>507.0</ele><time>2026-03-27T10:37:44.999Z</time></trkpt><trkpt lat="48.1919246720417" lon="11.5723392836978"><ele>507.0</ele><time>2026-03-27T10:37:45.999Z</time></trkpt><trkpt lat="48.191847081631145" lon="11.572343383231141"><ele>507.0</ele><time>2026-03-27T10:37:46.999Z</time></trkpt><trkpt lat="48.191762392839976" lon="11.572346045946723"><ele>507.0</ele><time>2026-03-27T10:37:47.999Z</time></trkpt><trkpt lat="48.191668323900544" lon="11.572352414113631"><ele>507.0</ele><time>2026-03-27T10:37:48.999Z</time></trkpt><trkpt lat="48.191569887218364" lon="11.572357886982632"><ele>507.0</ele><time>2026-03-27T10:37:49.999Z</time></trkpt><trkpt lat="48.19146976787517" lon="11.572359876788651"><ele>507.00000000000006</ele><time>2026-03-27T10:37:50.999Z</time></trkpt><trkpt lat="48.19136789061376" lon="11.572362867787653"><ele>507.00000000000006</ele><time>2026-03-27T10:37:51.999Z</time></trkpt><trkpt lat="48.191259633793706" lon="11.57237078435835"><ele>507.0</ele><time>2026-03-27T10:37:52.999Z</time></trkpt><trkpt lat="48.191144724798875" lon="11.572380998530416"><ele>507.0</ele><time>2026-03-27T10:37:53.999Z</time></trkpt><trkpt lat="48.191029538196815" lon="11.572384282709661"><ele>507.0</ele><time>2026-03-27T10:37:54.999Z</time></trkpt><trkpt lat="48.19091237283692" lon="11.572392499722456"><ele>507.0</ele><time>2026-03-27T10:37:55.999Z</time></trkpt><trkpt lat="48.190797017283465" lon="11.572398492241224"><ele>507.0</ele><time>2026-03-27T10:37:56.999Z</time></trkpt><trkpt lat="48.19068590103726" lon="11.572403532435054"><ele>507.0</ele><time>2026-03-27T10:37:57.999Z</time></trkpt><trkpt lat="48.19057712689729" lon="11.572411477553768"><ele>506.6</ele><time>2026-03-27T10:37:58.999Z</time></trkpt><trkpt lat="48.190467554391496" lon="11.572420044042635"><ele>506.20000000000005</ele><time>2026-03-27T10:37:59.999Z</time></trkpt><trkpt lat="48.19035456240993" lon="11.572427262761282"><ele>505.8</ele><time>2026-03-27T10:38:00.999Z</time></trkpt><trkpt lat="48.19024207926817" lon="11.572433895204393"><ele>505.4</ele><time>2026-03-27T10:38:01.999Z</time></trkpt><trkpt lat="48.19012934409049" lon="11.572438835606132"><ele>505.0</ele><time>2026-03-27T10:38:02.999Z</time></trkpt><trkpt lat="48.190016591807066" lon="11.572443883581089"><ele>505.0</ele><time>2026-03-27T10:38:03.999Z</time></trkpt><trkpt lat="48.18991668742921" lon="11.57244783106299"><ele>505.0</ele><time>2026-03-27T10:38:04.999Z</time></trkpt><trkpt lat="48.18981574949756" lon="11.572460763124393"><ele>505.0</ele><time>2026-03-27T10:38:05.999Z</time></trkpt><trkpt lat="48.18972399736637" lon="11.572466043014748"><ele>505.0</ele><time>2026-03-27T10:38:07Z</time></trkpt><trkpt lat="48.18963580572592" lon="11.572472862464178"><ele>505.0</ele><time>2026-03-27T10:38:08Z</time></trkpt><trkpt lat="48.18954793593917" lon="11.572474160042104"><ele>504.8</ele><time>2026-03-27T10:38:09Z</time></trkpt><trkpt lat="48.189460344539555" lon="11.572476627595925"><ele>504.6</ele><time>2026-03-27T10:38:10Z</time></trkpt><trkpt lat="48.18936740508988" lon="11.572482413286853"><ele>504.4</ele><time>2026-03-27T10:38:11Z</time></trkpt><trkpt lat="48.18926836662086" lon="11.572487373052512"><ele>504.2</ele><time>2026-03-27T10:38:12Z</time></trkpt><trkpt lat="48.18915642995943" lon="11.572491835772784"><ele>504.0</ele><time>2026-03-27T10:38:13Z</time></trkpt><trkpt lat="48.18904126793092" lon="11.572497291610828"><ele>504.0</ele><time>2026-03-27T10:38:14Z</time></trkpt><trkpt lat="48.18894002351791" lon="11.572505072814181"><ele>504.0</ele><time>2026-03-27T10:38:15Z</time></trkpt><trkpt lat="48.1888510534564" lon="11.572511607975612"><ele>504.0</ele><time>2026-03-27T10:38:16Z</time></trkpt><trkpt lat="48.18876679068778" lon="11.572517089427519"><ele>504.0</ele><time>2026-03-27T10:38:17Z</time></trkpt><trkpt lat="48.18868250849516" lon="11.572522332065878"><ele>504.0</ele><time>2026-03-27T10:38:18Z</time></trkpt><trkpt lat="48.188597237351516" lon="11.572530129171648"><ele>504.0</ele><time>2026-03-27T10:38:19Z</time></trkpt><trkpt lat="48.188511426688045" lon="11.572538027520782"><ele>504.0</ele><time>2026-03-27T10:38:20Z</time></trkpt><trkpt lat="48.18842635657681" lon="11.572546779002394"><ele>504.0</ele><time>2026-03-27T10:38:21Z</time></trkpt><trkpt lat="48.1883417502936" lon="11.572556782605965"><ele>504.0</ele><time>2026-03-27T10:38:22Z</time></trkpt><trkpt lat="48.18825885093502" lon="11.572563013248928"><ele>504.0</ele><time>2026-03-27T10:38:23Z</time></trkpt><trkpt lat="48.18818256544891" lon="11.572563551702407"><ele>504.0</ele><time>2026-03-27T10:38:24Z</time></trkpt><trkpt lat="48.18811724459392" lon="11.572564351409001"><ele>504.0</ele><time>2026-03-27T10:38:25Z</time></trkpt><trkpt lat="48.188024735582175" lon="11.572568871117804"><ele>504.0</ele><time>2026-03-27T10:38:27Z</time></trkpt><trkpt lat="48.18793342303742" lon="11.572576916936052"><ele>504.0</ele><time>2026-03-27T10:38:30Z</time></trkpt><trkpt lat="48.18786369056581" lon="11.572592116931084"><ele>504.0</ele><time>2026-03-27T10:38:47Z</time></trkpt><trkpt lat="48.1877930281869" lon="11.572598547071319"><ele>504.0</ele><time>2026-03-27T10:38:48.999Z</time></trkpt><trkpt lat="48.18772589945131" lon="11.572599490773307"><ele>504.0</ele><time>2026-03-27T10:38:50.999Z</time></trkpt><trkpt lat="48.18766159590097" lon="11.572603636650037"><ele>504.0</ele><time>2026-03-27T10:38:52.999Z</time></trkpt><trkpt lat="48.1875800862588" lon="11.572576904950811"><ele>504.0</ele><time>2026-03-27T10:38:55.999Z</time></trkpt><trkpt lat="48.187534328453395" lon="11.572469907636197"><ele>504.0</ele><time>2026-03-27T10:38:57.999Z</time></trkpt><trkpt lat="48.18752237718386" lon="11.572353031775533"><ele>504.0</ele><time>2026-03-27T10:38:59.999Z</time></trkpt><trkpt lat="48.18751545478214" lon="11.57224273514891"><ele>504.0</ele><time>2026-03-27T10:39:01.999Z</time></trkpt><trkpt lat="48.18751600194866" lon="11.572138066046717"><ele>504.0</ele><time>2026-03-27T10:39:04.999Z</time></trkpt><trkpt lat="48.18751574384109" lon="11.572020212226366"><ele>504.0</ele><time>2026-03-27T10:39:08.999Z</time></trkpt><trkpt lat="48.18751301073061" lon="11.57192355429632"><ele>504.0</ele><time>2026-03-27T10:39:11.999Z</time></trkpt><trkpt lat="48.18750880242716" lon="11.571786004840753"><ele>504.0</ele><time>2026-03-27T10:39:13.999Z</time></trkpt><trkpt lat="48.18749971079093" lon="11.571673758421245"><ele>504.0</ele><time>2026-03-27T10:39:14.999Z</time></trkpt><trkpt lat="48.18749455430167" lon="11.571573851233566"><ele>504.0</ele><time>2026-03-27T10:39:15.999Z</time></trkpt><trkpt lat="48.18749248384742" lon="11.571472968541386"><ele>504.0</ele><time>2026-03-27T10:39:16.999Z</time></trkpt><trkpt lat="48.18749008495835" lon="11.571367534702393"><ele>504.0</ele><time>2026-03-27T10:39:17.999Z</time></trkpt><trkpt lat="48.187487429573586" lon="11.571254465302761"><ele>504.0</ele><time>2026-03-27T10:39:18.999Z</time></trkpt><trkpt lat="48.18748492701957" lon="11.571132354411565"><ele>504.0</ele><time>2026-03-27T10:39:19.999Z</time></trkpt><trkpt lat="48.187480677413966" lon="11.571003120161915"><ele>504.2</ele><time>2026-03-27T10:39:20.999Z</time></trkpt><trkpt lat="48.187477079251124" lon="11.570860464198581"><ele>504.4</ele><time>2026-03-27T10:39:21.999Z</time></trkpt><trkpt lat="48.18747291106938" lon="11.570711274732497"><ele>504.6</ele><time>2026-03-27T10:39:22.999Z</time></trkpt><trkpt lat="48.18746672854996" lon="11.5705545366828"><ele>504.8</ele><time>2026-03-27T10:39:23.999Z</time></trkpt><trkpt lat="48.1874586897669" lon="11.570389460858452"><ele>505.0</ele><time>2026-03-27T10:39:24.999Z</time></trkpt><trkpt lat="48.187453569209424" lon="11.57022499793486"><ele>505.0</ele><time>2026-03-27T10:39:25.999Z</time></trkpt><trkpt lat="48.18745040399604" lon="11.570064449878886"><ele>505.0</ele><time>2026-03-27T10:39:26.999Z</time></trkpt><trkpt lat="48.18744555692027" lon="11.56990687111424"><ele>505.0</ele><time>2026-03-27T10:39:27.999Z</time></trkpt><trkpt lat="48.18744041176737" lon="11.569742261721625"><ele>505.0</ele><time>2026-03-27T10:39:28.999Z</time></trkpt><trkpt lat="48.18743210244937" lon="11.569573648020624"><ele>505.0</ele><time>2026-03-27T10:39:29.999Z</time></trkpt><trkpt lat="48.187424688982794" lon="11.569412717463488"><ele>505.0</ele><time>2026-03-27T10:39:30.999Z</time></trkpt><trkpt lat="48.1874197658496" lon="11.569263116249411"><ele>505.0</ele><time>2026-03-27T10:39:31.999Z</time></trkpt><trkpt lat="48.187414022281764" lon="11.569112753022647"><ele>505.0</ele><time>2026-03-27T10:39:32.999Z</time></trkpt><trkpt lat="48.18740624736807" lon="11.568959843449775"><ele>505.0</ele><time>2026-03-27T10:39:33.999Z</time></trkpt><trkpt lat="48.18739925454224" lon="11.56879940643569"><ele>505.0</ele><time>2026-03-27T10:39:34.999Z</time></trkpt><trkpt lat="48.18739219695452" lon="11.56863560907143"><ele>505.0</ele><time>2026-03-27T10:39:35.999Z</time></trkpt><trkpt lat="48.18738340008895" lon="11.56847256164305"><ele>505.0</ele><time>2026-03-27T10:39:36.999Z</time></trkpt><trkpt lat="48.187374032462934" lon="11.56831149334509"><ele>505.0</ele><time>2026-03-27T10:39:37.999Z</time></trkpt><trkpt lat="48.18736427577052" lon="11.568157245941144"><ele>505.0</ele><time>2026-03-27T10:39:38.999Z</time></trkpt><trkpt lat="48.18735551227952" lon="11.5680138280151"><ele>505.0</ele><time>2026-03-27T10:39:39.999Z</time></trkpt><trkpt lat="48.18734752791414" lon="11.5678726193939"><ele>505.83333333333337</ele><time>2026-03-27T10:39:40.999Z</time></trkpt><trkpt lat="48.18733431572289" lon="11.567734016180081"><ele>506.6666666666667</ele><time>2026-03-27T10:39:41.999Z</time></trkpt><trkpt lat="48.18732029503556" lon="11.567595726182528"><ele>507.5</ele><time>2026-03-27T10:39:42.999Z</time></trkpt><trkpt lat="48.187309333226374" lon="11.567462107322854"><ele>508.33333333333337</ele><time>2026-03-27T10:39:43.999Z</time></trkpt><trkpt lat="48.18729943454397" lon="11.567336532976919"><ele>509.1666666666667</ele><time>2026-03-27T10:39:44.999Z</time></trkpt><trkpt lat="48.18728799274492" lon="11.567210085831626"><ele>510.0</ele><time>2026-03-27T10:39:45.999Z</time></trkpt><trkpt lat="48.18727662706204" lon="11.56707845793066"><ele>510.0</ele><time>2026-03-27T10:39:46.999Z</time></trkpt><trkpt lat="48.187265374162024" lon="11.566946178638144"><ele>510.0</ele><time>2026-03-27T10:39:47.999Z</time></trkpt><trkpt lat="48.187255470410946" lon="11.566825673431136"><ele>510.0</ele><time>2026-03-27T10:39:48.999Z</time></trkpt><trkpt lat="48.18724490835365" lon="11.566657988250011"><ele>510.0</ele><time>2026-03-27T10:39:50.999Z</time></trkpt><trkpt lat="48.18723550868444" lon="11.566559766119909"><ele>510.0</ele><time>2026-03-27T10:39:52.999Z</time></trkpt><trkpt lat="48.18723611087355" lon="11.566402957258424"><ele>510.0</ele><time>2026-03-27T10:41:10.999Z</time></trkpt><trkpt lat="48.187209632453396" lon="11.56627763761882"><ele>510.0</ele><time>2026-03-27T10:41:12.999Z</time></trkpt><trkpt lat="48.18721591073861" lon="11.566126856299062"><ele>510.0</ele><time>2026-03-27T10:41:14.999Z</time></trkpt><trkpt lat="48.187080547376695" lon="11.566053507034246"><ele>510.0</ele><time>2026-03-27T10:41:16.999Z</time></trkpt><trkpt lat="48.186957163133755" lon="11.566046576420327"><ele>509.6666666666667</ele><time>2026-03-27T10:41:18.999Z</time></trkpt><trkpt lat="48.186892185262394" lon="11.566047103148065"><ele>509.33333333333337</ele><time>2026-03-27T10:41:19.999Z</time></trkpt><trkpt lat="48.186769047599135" lon="11.566073678461867"><ele>509.0</ele><time>2026-03-27T10:41:21.999Z</time></trkpt><trkpt lat="48.18670549677134" lon="11.566096073873297"><ele>508.6666666666667</ele><time>2026-03-27T10:41:22.999Z</time></trkpt><trkpt lat="48.186634241991264" lon="11.56612119730038"><ele>508.33333333333337</ele><time>2026-03-27T10:41:23.999Z</time></trkpt><trkpt lat="48.18655670797886" lon="11.566145399290992"><ele>508.0</ele><time>2026-03-27T10:41:24.999Z</time></trkpt><trkpt lat="48.186478948521255" lon="11.566162126693595"><ele>508.0</ele><time>2026-03-27T10:41:25.999Z</time></trkpt><trkpt lat="48.18641384630023" lon="11.566177123406392"><ele>508.0</ele><time>2026-03-27T10:41:26.999Z</time></trkpt><trkpt lat="48.1863499143315" lon="11.566194284060177"><ele>508.0</ele><time>2026-03-27T10:41:27.999Z</time></trkpt><trkpt lat="48.18628728124157" lon="11.566205872085352"><ele>508.0</ele><time>2026-03-27T10:41:28.999Z</time></trkpt><trkpt lat="48.1862228522171" lon="11.566213970235959"><ele>508.0</ele><time>2026-03-27T10:41:29.999Z</time></trkpt><trkpt lat="48.18615493588511" lon="11.566224824943383"><ele>508.0</ele><time>2026-03-27T10:41:30.999Z</time></trkpt><trkpt lat="48.18608156890407" lon="11.56623712477204"><ele>508.0</ele><time>2026-03-27T10:41:31.999Z</time></trkpt><trkpt lat="48.186008213008755" lon="11.56624824956687"><ele>507.6666666666667</ele><time>2026-03-27T10:41:32.999Z</time></trkpt><trkpt lat="48.18594362667692" lon="11.566253486598054"><ele>507.33333333333337</ele><time>2026-03-27T10:41:33.999Z</time></trkpt><trkpt lat="48.18582242990652" lon="11.566277889233039"><ele>507.0</ele><time>2026-03-27T10:41:35.999Z</time></trkpt><trkpt lat="48.1857575041193" lon="11.566282671263926"><ele>506.66666666666663</ele><time>2026-03-27T10:41:36.999Z</time></trkpt><trkpt lat="48.185688863580054" lon="11.566293282252026"><ele>506.3333333333333</ele><time>2026-03-27T10:41:37.999Z</time></trkpt><trkpt lat="48.18561563553378" lon="11.566307459940532"><ele>506.0</ele><time>2026-03-27T10:41:38.999Z</time></trkpt><trkpt lat="48.185538017904676" lon="11.566314758512025"><ele>505.99999999999994</ele><time>2026-03-27T10:41:39.999Z</time></trkpt><trkpt lat="48.18542176958789" lon="11.56633571863275"><ele>506.0</ele><time>2026-03-27T10:41:41.999Z</time></trkpt><trkpt lat="48.18535584637245" lon="11.566347888611542"><ele>506.0</ele><time>2026-03-27T10:41:42.999Z</time></trkpt><trkpt lat="48.185282370872855" lon="11.566355355273101"><ele>506.0</ele><time>2026-03-27T10:41:43.999Z</time></trkpt><trkpt lat="48.18520536062224" lon="11.566364481316862"><ele>505.99999999999994</ele><time>2026-03-27T10:41:44.999Z</time></trkpt><trkpt lat="48.18513585797278" lon="11.566382879738002"><ele>506.0</ele><time>2026-03-27T10:41:45.999Z</time></trkpt><trkpt lat="48.1850081880313" lon="11.566391825189157"><ele>505.99999999999994</ele><time>2026-03-27T10:41:47.999Z</time></trkpt><trkpt lat="48.184882204892695" lon="11.566415646756816"><ele>506.0</ele><time>2026-03-27T10:41:49.999Z</time></trkpt><trkpt lat="48.184813977418365" lon="11.566421061880414"><ele>506.0</ele><time>2026-03-27T10:41:50.999Z</time></trkpt><trkpt lat="48.184741737750606" lon="11.566431193274898"><ele>506.0</ele><time>2026-03-27T10:41:51.999Z</time></trkpt><trkpt lat="48.18466967973852" lon="11.566443515765968"><ele>505.99999999999994</ele><time>2026-03-27T10:41:52.999Z</time></trkpt><trkpt lat="48.184597282846816" lon="11.566451766637583"><ele>506.0</ele><time>2026-03-27T10:41:53.999Z</time></trkpt><trkpt lat="48.18452466112761" lon="11.566461044735219"><ele>506.28571428571433</ele><time>2026-03-27T10:41:54.999Z</time></trkpt><trkpt lat="48.184458960196174" lon="11.56647134046803"><ele>506.57142857142856</ele><time>2026-03-27T10:41:55.999Z</time></trkpt><trkpt lat="48.18439114826634" lon="11.566480641280888"><ele>506.8571428571429</ele><time>2026-03-27T10:41:56.999Z</time></trkpt><trkpt lat="48.184324731547996" lon="11.566490572081527"><ele>507.14285714285717</ele><time>2026-03-27T10:41:57.999Z</time></trkpt><trkpt lat="48.18425881385349" lon="11.566498941224031"><ele>507.42857142857144</ele><time>2026-03-27T10:41:58.999Z</time></trkpt><trkpt lat="48.18419102080607" lon="11.566506014191944"><ele>507.7142857142857</ele><time>2026-03-27T10:41:59.999Z</time></trkpt><trkpt lat="48.1841244551417" lon="11.566518110062496"><ele>508.0</ele><time>2026-03-27T10:42:00.999Z</time></trkpt><trkpt lat="48.18405445229509" lon="11.566529366499854"><ele>508.00000000000006</ele><time>2026-03-27T10:42:01.999Z</time></trkpt><trkpt lat="48.183982908707534" lon="11.566538405500776"><ele>508.0</ele><time>2026-03-27T10:42:02.999Z</time></trkpt><trkpt lat="48.18391733855152" lon="11.566551019051866"><ele>508.0</ele><time>2026-03-27T10:42:03.999Z</time></trkpt><trkpt lat="48.18385343625177" lon="11.566558911502112"><ele>508.0</ele><time>2026-03-27T10:42:04.999Z</time></trkpt><trkpt lat="48.183729423141834" lon="11.56657481393631"><ele>508.00000000000006</ele><time>2026-03-27T10:42:06.999Z</time></trkpt><trkpt lat="48.18366509293692" lon="11.56658335289847"><ele>508.0</ele><time>2026-03-27T10:42:07.999Z</time></trkpt><trkpt lat="48.183596313496444" lon="11.56658745695857"><ele>508.0</ele><time>2026-03-27T10:42:08.999Z</time></trkpt><trkpt lat="48.18352645905407" lon="11.566598161187851"><ele>508.0</ele><time>2026-03-27T10:42:09.999Z</time></trkpt><trkpt lat="48.18346015646717" lon="11.566604162882346"><ele>508.0</ele><time>2026-03-27T10:42:10.999Z</time></trkpt><trkpt lat="48.183396334902284" lon="11.56661725770147"><ele>508.0</ele><time>2026-03-27T10:42:11.999Z</time></trkpt><trkpt lat="48.18333206286782" lon="11.566624777223586"><ele>508.0</ele><time>2026-03-27T10:42:12.999Z</time></trkpt><trkpt lat="48.18326107906103" lon="11.566631963868463"><ele>508.0</ele><time>2026-03-27T10:42:13.999Z</time></trkpt><trkpt lat="48.18319086685092" lon="11.566640655476306"><ele>508.0</ele><time>2026-03-27T10:42:14.999Z</time></trkpt><trkpt lat="48.18311925735091" lon="11.566650089940707"><ele>508.14285714285717</ele><time>2026-03-27T10:42:15.999Z</time></trkpt><trkpt lat="48.183049541597185" lon="11.566662859940477"><ele>508.2857142857142</ele><time>2026-03-27T10:42:17Z</time></trkpt><trkpt lat="48.18297724508655" lon="11.566672632710253"><ele>508.4285714285714</ele><time>2026-03-27T10:42:18Z</time></trkpt><trkpt lat="48.18290647075233" lon="11.566680193948631"><ele>508.57142857142856</ele><time>2026-03-27T10:42:19Z</time></trkpt><trkpt lat="48.182840014143125" lon="11.566691180494615"><ele>508.71428571428567</ele><time>2026-03-27T10:42:20Z</time></trkpt><trkpt lat="48.18276978989327" lon="11.566702650153362"><ele>508.8571428571428</ele><time>2026-03-27T10:42:21Z</time></trkpt><trkpt lat="48.182699826548436" lon="11.566709570749168"><ele>508.99999999999994</ele><time>2026-03-27T10:42:22Z</time></trkpt><trkpt lat="48.18263279206611" lon="11.566719970305506"><ele>508.99999999999994</ele><time>2026-03-27T10:42:23Z</time></trkpt><trkpt lat="48.182568216184734" lon="11.566732962306354"><ele>509.0</ele><time>2026-03-27T10:42:24Z</time></trkpt><trkpt lat="48.18250089545763" lon="11.566741361177007"><ele>509.0</ele><time>2026-03-27T10:42:25Z</time></trkpt><trkpt lat="48.18242597633476" lon="11.56675356540804"><ele>509.0</ele><time>2026-03-27T10:42:26Z</time></trkpt><trkpt lat="48.18234704781697" lon="11.566763623670354"><ele>508.99999999999994</ele><time>2026-03-27T10:42:27Z</time></trkpt><trkpt lat="48.18227345286726" lon="11.566777376707604"><ele>509.0</ele><time>2026-03-27T10:42:28Z</time></trkpt><trkpt lat="48.182148632722964" lon="11.566795753138196"><ele>509.66666666666663</ele><time>2026-03-27T10:42:30Z</time></trkpt><trkpt lat="48.18208219784952" lon="11.566805459467949"><ele>510.3333333333333</ele><time>2026-03-27T10:42:31Z</time></trkpt><trkpt lat="48.18201539909902" lon="11.566811379627305"><ele>511.0</ele><time>2026-03-27T10:42:32Z</time></trkpt><trkpt lat="48.18194785485012" lon="11.566820732471603"><ele>511.66666666666663</ele><time>2026-03-27T10:42:33Z</time></trkpt><trkpt lat="48.181844070463846" lon="11.566833472019153"><ele>512.3333333333334</ele><time>2026-03-27T10:42:35Z</time></trkpt><trkpt lat="48.181761770870516" lon="11.566859678373346"><ele>513.0</ele><time>2026-03-27T10:42:37Z</time></trkpt><trkpt lat="48.181672576823296" lon="11.566878457527972"><ele>513.0</ele><time>2026-03-27T10:43:13Z</time></trkpt><trkpt lat="48.18153685150849" lon="11.566871741949527"><ele>513.0</ele><time>2026-03-27T10:43:15Z</time></trkpt><trkpt lat="48.181457231896616" lon="11.56687919631259"><ele>513.0</ele><time>2026-03-27T10:43:16Z</time></trkpt><trkpt lat="48.18138430525763" lon="11.566887181494241"><ele>513.0</ele><time>2026-03-27T10:43:17Z</time></trkpt><trkpt lat="48.18130794658731" lon="11.566896488261456"><ele>513.0</ele><time>2026-03-27T10:43:18Z</time></trkpt><trkpt lat="48.18123791187293" lon="11.566908636582735"><ele>513.0</ele><time>2026-03-27T10:43:19Z</time></trkpt><trkpt lat="48.18116897935167" lon="11.56691867141774"><ele>513.4285714285714</ele><time>2026-03-27T10:43:19.999Z</time></trkpt><trkpt lat="48.181099574781854" lon="11.566929813591653"><ele>513.8571428571429</ele><time>2026-03-27T10:43:20.999Z</time></trkpt><trkpt lat="48.18102965737742" lon="11.56694103809567"><ele>514.2857142857142</ele><time>2026-03-27T10:43:21.999Z</time></trkpt><trkpt lat="48.180962709836265" lon="11.566951785819523"><ele>514.7142857142858</ele><time>2026-03-27T10:43:22.999Z</time></trkpt><trkpt lat="48.18089887350059" lon="11.566962034071867"><ele>515.1428571428571</ele><time>2026-03-27T10:43:23.999Z</time></trkpt><trkpt lat="48.18083311351501" lon="11.566972591146197"><ele>515.5714285714286</ele><time>2026-03-27T10:43:24.999Z</time></trkpt><trkpt lat="48.18076770354207" lon="11.566983092029773"><ele>516.0</ele><time>2026-03-27T10:43:25.999Z</time></trkpt><trkpt lat="48.18070283268829" lon="11.566992435226918"><ele>515.4285714285713</ele><time>2026-03-27T10:43:26.999Z</time></trkpt><trkpt lat="48.18063253076011" lon="11.567002942559572"><ele>514.8571428571429</ele><time>2026-03-27T10:43:27.999Z</time></trkpt><trkpt lat="48.1805593840533" lon="11.567014380636541"><ele>514.2857142857142</ele><time>2026-03-27T10:43:28.999Z</time></trkpt><trkpt lat="48.180483623528914" lon="11.567026227432299"><ele>513.7142857142857</ele><time>2026-03-27T10:43:29.999Z</time></trkpt><trkpt lat="48.18041399485391" lon="11.567037278628494"><ele>513.1428571428571</ele><time>2026-03-27T10:43:30.999Z</time></trkpt><trkpt lat="48.180350052958616" lon="11.567047391821244"><ele>512.5714285714286</ele><time>2026-03-27T10:43:31.999Z</time></trkpt><trkpt lat="48.18028532558869" lon="11.567057629247216"><ele>512.0</ele><time>2026-03-27T10:43:32.999Z</time></trkpt><trkpt lat="48.180215246253056" lon="11.567068713150402"><ele>511.85714285714283</ele><time>2026-03-27T10:43:33.999Z</time></trkpt><trkpt lat="48.180145543412365" lon="11.567079737506669"><ele>511.71428571428567</ele><time>2026-03-27T10:43:34.999Z</time></trkpt><trkpt lat="48.180080644635034" lon="11.567090002042193"><ele>511.57142857142856</ele><time>2026-03-27T10:43:35.999Z</time></trkpt><trkpt lat="48.180014708287054" lon="11.56710043068212"><ele>511.42857142857144</ele><time>2026-03-27T10:43:36.999Z</time></trkpt><trkpt lat="48.1799473699539" lon="11.56713545636956"><ele>511.2857142857143</ele><time>2026-03-27T10:43:37.999Z</time></trkpt><trkpt lat="48.1798771945217" lon="11.567143644327809"><ele>511.1428571428571</ele><time>2026-03-27T10:43:38.999Z</time></trkpt><trkpt lat="48.179809808198875" lon="11.567153710404618"><ele>511.0</ele><time>2026-03-27T10:43:39.999Z</time></trkpt><trkpt lat="48.17968615110946" lon="11.567170416626787"><ele>511.00000000000006</ele><time>2026-03-27T10:43:41.999Z</time></trkpt><trkpt lat="48.17956871057685" lon="11.567182147308564"><ele>511.0</ele><time>2026-03-27T10:43:43.999Z</time></trkpt><trkpt lat="48.179484299268" lon="11.567180582858102"><ele>511.0</ele><time>2026-03-27T10:43:45.999Z</time></trkpt><trkpt lat="48.17941126584912" lon="11.567181685506709"><ele>511.0</ele><time>2026-03-27T10:43:47.999Z</time></trkpt><trkpt lat="48.17934362309912" lon="11.567161049681166"><ele>511.00000000000006</ele><time>2026-03-27T10:43:49.999Z</time></trkpt><trkpt lat="48.17931392788678" lon="11.567049657050532"><ele>511.0</ele><time>2026-03-27T10:43:51.999Z</time></trkpt><trkpt lat="48.17930928586263" lon="11.566930183378222"><ele>511.00000000000006</ele><time>2026-03-27T10:43:53.999Z</time></trkpt><trkpt lat="48.17930540517308" lon="11.566818232604158"><ele>511.0</ele><time>2026-03-27T10:43:55.999Z</time></trkpt><trkpt lat="48.1793013813668" lon="11.566660212330683"><ele>511.0</ele><time>2026-03-27T10:43:57.999Z</time></trkpt><trkpt lat="48.17929906542804" lon="11.566527631293637"><ele>511.0</ele><time>2026-03-27T10:43:59.999Z</time></trkpt><trkpt lat="48.179298460786626" lon="11.566409194442441"><ele>511.00000000000006</ele><time>2026-03-27T10:44:01.999Z</time></trkpt><trkpt lat="48.179293961251865" lon="11.566278001883875"><ele>511.0</ele><time>2026-03-27T10:44:03.999Z</time></trkpt><trkpt lat="48.17929234301037" lon="11.56613724094104"><ele>510.8</ele><time>2026-03-27T10:44:05.999Z</time></trkpt><trkpt lat="48.17928384496829" lon="11.565977356618783"><ele>510.6</ele><time>2026-03-27T10:44:07.999Z</time></trkpt><trkpt lat="48.17927707816355" lon="11.565797919508734"><ele>510.4</ele><time>2026-03-27T10:44:09.999Z</time></trkpt><trkpt lat="48.17927556798611" lon="11.565683331784868"><ele>510.2</ele><time>2026-03-27T10:44:11.999Z</time></trkpt><trkpt lat="48.17927524894429" lon="11.565585553139703"><ele>510.0</ele><time>2026-03-27T10:44:14.999Z</time></trkpt><trkpt lat="48.17926937818477" lon="11.565432011377979"><ele>510.2</ele><time>2026-03-27T10:44:17.999Z</time></trkpt><trkpt lat="48.179263661436664" lon="11.565261659414961"><ele>510.4</ele><time>2026-03-27T10:44:19.999Z</time></trkpt><trkpt lat="48.1792587200554" lon="11.56513858008821"><ele>510.6</ele><time>2026-03-27T10:44:21.999Z</time></trkpt><trkpt lat="48.17924735499277" lon="11.56499980461392"><ele>510.8</ele><time>2026-03-27T10:44:24Z</time></trkpt><trkpt lat="48.179233872799976" lon="11.56485985663419"><ele>511.0</ele><time>2026-03-27T10:44:26Z</time></trkpt><trkpt lat="48.17922422997775" lon="11.564729793727844"><ele>511.00000000000006</ele><time>2026-03-27T10:44:28Z</time></trkpt><trkpt lat="48.179215223824876" lon="11.56460514057413"><ele>511.0</ele><time>2026-03-27T10:44:30Z</time></trkpt><trkpt lat="48.17921202246263" lon="11.564496321083588"><ele>511.0</ele><time>2026-03-27T10:44:32Z</time></trkpt><trkpt lat="48.1792035775367" lon="11.564381351996692"><ele>511.0</ele><time>2026-03-27T10:44:34Z</time></trkpt><trkpt lat="48.17919444750866" lon="11.564275768651713"><ele>511.00000000000006</ele><time>2026-03-27T10:44:37Z</time></trkpt><trkpt lat="48.17917514354015" lon="11.56416445189289"><ele>511.0</ele><time>2026-03-27T10:44:44Z</time></trkpt><trkpt lat="48.179158865169015" lon="11.564061403906774"><ele>511.0</ele><time>2026-03-27T10:44:48Z</time></trkpt><trkpt lat="48.17903009637036" lon="11.564054014331008"><ele>511.0</ele><time>2026-03-27T10:44:49Z</time></trkpt><trkpt lat="48.178971269503144" lon="11.564106482797499"><ele>511.0</ele><time>2026-03-27T10:44:50Z</time></trkpt><trkpt lat="48.17889758733815" lon="11.564143236834292"><ele>511.0</ele><time>2026-03-27T10:44:51Z</time></trkpt><trkpt lat="48.178824034969765" lon="11.564175906081873"><ele>511.0</ele><time>2026-03-27T10:44:52Z</time></trkpt><trkpt lat="48.17871556953344" lon="11.564205974869864"><ele>511.1666666666667</ele><time>2026-03-27T10:44:54Z</time></trkpt><trkpt lat="48.17864573789322" lon="11.564229964922148"><ele>511.33333333333337</ele><time>2026-03-27T10:44:57Z</time></trkpt><trkpt lat="48.178697125173336" lon="11.56436750716865"><ele>511.5</ele><time>2026-03-27T10:45:22Z</time></trkpt><trkpt lat="48.17877141291512" lon="11.564324568258998"><ele>511.66666666666663</ele><time>2026-03-27T10:45:24Z</time></trkpt><trkpt lat="48.178851225427934" lon="11.564295944971354"><ele>511.8333333333333</ele><time>2026-03-27T10:45:27Z</time></trkpt><trkpt lat="48.178921949302186" lon="11.564268018570479"><ele>512.0</ele><time>2026-03-27T10:45:31Z</time></trkpt><trkpt lat="48.17897834066426" lon="11.564225118780891"><ele>512.0</ele><time>2026-03-27T10:47:14Z</time></trkpt><trkpt lat="48.17892949695919" lon="11.564294169800405"><ele>512.0</ele><time>2026-03-27T10:47:40Z</time></trkpt><trkpt lat="48.17884367876215" lon="11.564058859928679"><ele>512.0</ele><time>2026-03-27T10:48:08.999Z</time></trkpt><trkpt lat="48.17890630944554" lon="11.564192377278415"><ele>512.0</ele><time>2026-03-27T10:53:16.999Z</time></trkpt><trkpt lat="48.17890630944554" lon="11.564192377278415"><ele>512.0</ele><time>2026-03-27T10:53:16.999Z</time></trkpt><trkpt lat="48.17890630944554" lon="11.564192377278415"><ele>512.0</ele><time>2026-03-27T10:53:16.999Z</time></trkpt><trkpt lat="48.17890630944554" lon="11.564192377278415"><ele>512.0</ele><time>2026-03-27T10:53:16.999Z</time></trkpt></trkseg></trk></gpx>